
Distance (Route):
Temperature : 18.3°C
Humidity : 78.3%
Pressure : 980.4hPa| Receiver | Frames | First received | Last received |
|---|---|---|---|
| KRY50SP-1 | 719 | 2026-08-31 17:04:50 | 2026-08-31 20:23:55 |
| AA1-15 | 461 | 2026-08-31 17:10:44 | 2026-08-31 19:14:37 |
| SP3BTT-10 | 305 | 2026-08-31 16:51:31 | 2026-08-31 20:31:43 |
| DB0DAN | 280 | 2026-08-31 16:52:10 | 2026-08-31 19:13:55 |
| SONDE2-12 | 247 | 2026-08-31 16:46:59 | 2026-08-31 19:25:19 |
| DM0DOS-11 | 223 | 2026-08-31 17:30:41 | 2026-08-31 18:28:54 |
| SONDE2-11 | 212 | 2026-08-31 16:45:53 | 2026-08-31 19:48:00 |
| EDDB2-12 | 191 | 2026-08-31 16:45:49 | 2026-08-31 19:47:53 |
| EDDB2-11 | 190 | 2026-08-31 16:45:48 | 2026-08-31 19:46:49 |
| DL1XH-west | 156 | 2026-08-31 17:38:09 | 2026-08-31 18:21:13 |
| SP3WXH-11 | 142 | 2026-08-31 17:28:14 | 2026-08-31 20:14:38 |
| AM1SDL-15 | 104 | 2026-08-31 17:55:55 | 2026-08-31 19:26:33 |
| SP6BVK | 75 | 2026-08-31 17:07:20 | 2026-08-31 19:18:30 |
| DAC517 | 74 | 2026-08-31 16:49:21 | 2026-08-31 18:24:23 |
| 13BRC | 70 | 2026-08-31 16:52:15 | 2026-08-31 18:42:17 |
| DL1XH1-15 | 70 | 2026-08-31 17:40:01 | 2026-08-31 18:20:49 |
| S3001 | 65 | 2026-08-31 16:57:28 | 2026-08-31 18:59:05 |
| 3Z3Z-3 | 62 | 2026-08-31 17:33:59 | 2026-08-31 19:24:41 |
| DL2RXE-15 | 52 | 2026-08-31 16:52:23 | 2026-08-31 18:25:26 |
| DF8AY | 48 | 2026-08-31 17:54:01 | 2026-08-31 18:04:56 |
| MECKS9 | 26 | 2026-08-31 17:12:34 | 2026-08-31 18:27:15 |
| D01LWL | 25 | 2026-08-31 17:36:50 | 2026-08-31 18:24:58 |
| DB0NH | 16 | 2026-08-31 17:37:12 | 2026-08-31 18:27:27 |
| SONCRA | 12 | 2026-08-31 17:34:07 | 2026-08-31 18:22:46 |
| OE3JTB-15 | 8 | 2026-08-31 17:40:30 | 2026-08-31 18:23:29 |
| DJ2DS-15 | 7 | 2026-08-31 17:53:48 | 2026-08-31 18:02:49 |
| DO3MHA-11 | 1 | 2026-08-31 18:00:09 | 2026-08-31 18:00:09 |
| Receiver | Date | Latitude | Longitude | Direction | Speed | Altitude | Climb | Temperature | Humidity | Pressure | Voltage | Killtimer | Uptime | BKT | XDATA |
|---|---|---|---|---|---|---|---|---|---|---|---|---|---|---|---|
| SP3BTT-10 | 2026-08-31 20:31:43 | 53.40220 | 16.88212 | 27° | 29km/h | 289m | -1.5m/s | 18.3°C | 78.3% | 980.4hPa | 2.7V | 00:00:00 | 00:00:00 | 00:00:00 | |
| SP3BTT-10 | 2026-08-31 20:31:41 | 53.40207 | 16.88201 | 25° | 31km/h | 292m | -1.0m/s | 18.2°C | 78.3% | 980.2hPa | 2.7V | 00:00:00 | 00:00:00 | 00:00:00 | |
| SP3BTT-10 | 2026-08-31 20:31:39 | 53.40193 | 16.88189 | 32° | 29km/h | 294m | -1.3m/s | 18.2°C | 78.5% | 979.6hPa | 2.7V | 00:00:00 | 00:00:00 | 00:00:00 | |
| SP3BTT-10 | 2026-08-31 20:31:36 | 53.40175 | 16.88170 | 32° | 27km/h | 298m | -1.0m/s | 18.1°C | 78.7% | 979.4hPa | 2.7V | 00:00:00 | 00:00:00 | 08:30:00 | |
| SP3BTT-10 | 2026-08-31 20:31:34 | 53.40163 | 16.88157 | 29° | 27km/h | 301m | -1.0m/s | 18.1°C | 78.8% | 979.1hPa | 2.7V | 00:00:00 | 00:00:00 | 00:00:00 | |
| SP3BTT-10 | 2026-08-31 20:31:32 | 53.40151 | 16.88145 | 29° | 29km/h | 303m | -1.0m/s | 18.1°C | 78.8% | 978.8hPa | 2.7V | 00:00:00 | 00:00:00 | 00:00:00 | |
| SP3BTT-10 | 2026-08-31 20:31:30 | 53.40139 | 16.88132 | 34° | 29km/h | 305m | -1.1m/s | 18.2°C | 78.8% | 978.4hPa | 2.7V | 00:00:00 | 00:00:00 | 00:00:00 | |
| SP3BTT-10 | 2026-08-31 20:31:28 | 53.40126 | 16.88119 | 30° | 29km/h | 307m | -1.0m/s | 18.1°C | 78.8% | 978.3hPa | 2.7V | 00:00:00 | 00:00:00 | 00:00:00 | |
| SP3BTT-10 | 2026-08-31 20:31:26 | 53.40114 | 16.88107 | 32° | 27km/h | 309m | -1.4m/s | 18.1°C | 79.1% | 978.2hPa | 2.7V | 00:00:00 | 00:00:00 | 00:00:00 | |
| SP3BTT-10 | 2026-08-31 20:31:24 | 53.40102 | 16.88094 | 32° | 29km/h | 312m | -1.3m/s | 18.1°C | 79.1% | 977.7hPa | 2.7V | 00:00:00 | 00:00:00 | 00:00:00 | |
| SP3BTT-10 | 2026-08-31 20:31:22 | 53.40089 | 16.88082 | 31° | 29km/h | 315m | -1.0m/s | 18.0°C | 79.2% | 977.5hPa | 2.7V | 00:00:00 | 00:00:00 | 00:00:00 | |
| SP3BTT-10 | 2026-08-31 20:31:20 | 53.40077 | 16.88069 | 33° | 27km/h | 317m | -1.0m/s | 18.0°C | 79.1% | 977.0hPa | 2.7V | 00:00:00 | 00:00:00 | 00:00:00 | |
| SP3BTT-10 | 2026-08-31 20:31:18 | 53.40065 | 16.88056 | 31° | 29km/h | 319m | -1.3m/s | 18.0°C | 79.3% | 977.0hPa | 2.7V | 00:00:00 | 00:00:00 | 08:30:00 | |
| SP3BTT-10 | 2026-08-31 20:31:16 | 53.40052 | 16.88043 | 34° | 27km/h | 322m | -1.0m/s | 18.0°C | 79.3% | 976.5hPa | 2.7V | 00:00:00 | 00:00:00 | 00:00:00 | |
| SP3BTT-10 | 2026-08-31 20:31:14 | 53.40040 | 16.88030 | 32° | 29km/h | 324m | -1.1m/s | 18.0°C | 79.4% | 976.5hPa | 2.7V | 00:00:00 | 00:00:00 | 00:00:00 | |
| SP3BTT-10 | 2026-08-31 20:31:12 | 53.40028 | 16.88016 | 34° | 29km/h | 326m | -1.1m/s | 18.0°C | 79.1% | 976.0hPa | 2.7V | 00:00:00 | 00:00:00 | 00:00:00 | |
| SP3BTT-10 | 2026-08-31 20:31:10 | 53.40016 | 16.88002 | 32° | 29km/h | 329m | -1.4m/s | 18.0°C | 79.3% | 976.0hPa | 2.7V | 00:00:00 | 00:00:00 | 00:00:00 | |
| SP3BTT-10 | 2026-08-31 20:31:08 | 53.40003 | 16.87989 | 32° | 29km/h | 331m | -1.2m/s | 18.0°C | 79.4% | 975.5hPa | 2.7V | 00:00:00 | 00:00:00 | 00:00:00 | |
| SP3BTT-10 | 2026-08-31 20:31:06 | 53.39990 | 16.87976 | 34° | 27km/h | 334m | -1.3m/s | 18.0°C | 79.6% | 975.3hPa | 2.7V | 00:00:00 | 00:00:00 | 00:00:00 | |
| SP3BTT-10 | 2026-08-31 20:31:04 | 53.39979 | 16.87962 | 38° | 29km/h | 336m | -1.3m/s | 18.0°C | 79.5% | 975.0hPa | 2.7V | 00:00:00 | 00:00:00 | 00:00:00 | |
| SP3BTT-10 | 2026-08-31 20:31:02 | 53.39967 | 16.87947 | 34° | 27km/h | 339m | -1.1m/s | 17.9°C | 79.7% | 974.9hPa | 2.7V | 00:00:00 | 00:00:00 | 00:00:00 | |
| SP3BTT-10 | 2026-08-31 20:31:00 | 53.39956 | 16.87934 | 39° | 29km/h | 341m | -1.3m/s | 17.9°C | 79.8% | 974.4hPa | 2.7V | 00:00:00 | 00:00:00 | 08:30:00 | |
| SP3BTT-10 | 2026-08-31 20:30:54 | 53.39920 | 16.87890 | 35° | 29km/h | 349m | -1.5m/s | 17.9°C | 80.0% | 973.6hPa | 2.7V | 00:00:00 | 00:00:00 | 00:00:00 | |
| SP3BTT-10 | 2026-08-31 20:30:48 | 53.39883 | 16.87844 | 36° | 31km/h | 356m | -1.0m/s | 17.8°C | 80.0% | 972.6hPa | 2.7V | 00:00:00 | 00:00:00 | 00:00:00 | |
| SP3BTT-10 | 2026-08-31 20:30:42 | 53.39846 | 16.87799 | 39° | 31km/h | 363m | -1.2m/s | 17.7°C | 80.4% | 971.9hPa | 2.7V | 00:00:00 | 00:00:00 | 00:00:00 | |
| SP3BTT-10 | 2026-08-31 20:30:36 | 53.39809 | 16.87753 | 33° | 31km/h | 371m | -0.9m/s | 17.7°C | 80.7% | 971.0hPa | 2.7V | 00:00:00 | 00:00:00 | 00:00:00 | |
| SP3BTT-10 | 2026-08-31 20:30:30 | 53.39770 | 16.87706 | 35° | 33km/h | 379m | -1.2m/s | 17.6°C | 80.8% | 970.1hPa | 2.7V | 00:00:00 | 00:00:00 | 00:00:00 | |
| SP3BTT-10 | 2026-08-31 20:30:24 | 53.39730 | 16.87659 | 37° | 31km/h | 386m | -1.0m/s | 17.6°C | 81.0% | 969.3hPa | 2.7V | 00:00:00 | 00:00:00 | 00:00:00 | |
| SP3BTT-10 | 2026-08-31 20:30:18 | 53.39691 | 16.87612 | 37° | 31km/h | 393m | -1.0m/s | 17.6°C | 80.9% | 968.5hPa | 2.7V | 00:00:00 | 00:00:00 | 00:00:00 | |
| SP3BTT-10 | 2026-08-31 20:30:12 | 53.39650 | 16.87570 | 26° | 31km/h | 400m | -1.1m/s | 17.6°C | 81.0% | 968.0hPa | 2.7V | 00:00:00 | 00:00:00 | 00:00:00 | |
| SP3BTT-10 | 2026-08-31 20:30:06 | 53.39608 | 16.87535 | 26° | 33km/h | 408m | -1.4m/s | 17.5°C | 81.0% | 967.3hPa | 2.7V | 00:00:00 | 00:00:00 | 08:30:00 | |
| SP3BTT-10 | 2026-08-31 20:30:00 | 53.39567 | 16.87490 | 39° | 33km/h | 414m | -0.6m/s | 17.5°C | 81.1% | 966.4hPa | 2.7V | 00:00:00 | 00:00:00 | 00:00:00 | |
| SP3BTT-10 | 2026-08-31 20:29:54 | 53.39532 | 16.87432 | 41° | 33km/h | 421m | -1.3m/s | 17.4°C | 81.5% | 965.4hPa | 2.7V | 00:00:00 | 00:00:00 | 00:00:00 | |
| SP3BTT-10 | 2026-08-31 20:29:48 | 53.39496 | 16.87371 | 47° | 35km/h | 428m | -1.4m/s | 17.4°C | 81.5% | 964.6hPa | 2.7V | 00:00:00 | 00:00:00 | 00:00:00 | |
| SP3BTT-10 | 2026-08-31 20:29:42 | 53.39459 | 16.87306 | 45° | 37km/h | 437m | -1.3m/s | 17.4°C | 81.7% | 963.7hPa | 2.7V | 00:00:00 | 00:00:00 | 00:00:00 | |
| SP3BTT-10 | 2026-08-31 20:29:36 | 53.39417 | 16.87245 | 36° | 37km/h | 444m | -1.1m/s | 17.3°C | 81.9% | 962.7hPa | 2.7V | 00:00:00 | 00:00:00 | 00:00:00 | |
| SP3BTT-10 | 2026-08-31 20:29:30 | 53.39373 | 16.87189 | 39° | 35km/h | 451m | -1.1m/s | 17.2°C | 82.3% | 961.9hPa | 2.7V | 00:00:00 | 00:00:00 | 00:00:00 | |
| SP3BTT-10 | 2026-08-31 20:29:24 | 53.39335 | 16.87126 | 46° | 35km/h | 459m | -1.3m/s | 17.3°C | 81.8% | 961.0hPa | 2.7V | 00:00:00 | 00:00:00 | 00:00:00 | |
| SP3BTT-10 | 2026-08-31 20:29:18 | 53.39302 | 16.87058 | 49° | 35km/h | 468m | -1.3m/s | 17.2°C | 82.2% | 960.0hPa | 2.7V | 00:00:00 | 00:00:00 | 00:00:00 | |
| SP3BTT-10 | 2026-08-31 20:29:12 | 53.39267 | 16.86990 | 52° | 37km/h | 475m | -1.2m/s | 17.2°C | 81.6% | 959.2hPa | 2.7V | 00:00:00 | 00:00:00 | 08:30:00 | |
| SP3BTT-10 | 2026-08-31 20:28:54 | 53.39165 | 16.86784 | 53° | 35km/h | 498m | -1.1m/s | 17.3°C | 81.5% | 956.9hPa | 2.7V | 00:00:00 | 00:00:00 | 00:00:00 | |
| SP3BTT-10 | 2026-08-31 20:28:48 | 53.39134 | 16.86713 | 54° | 37km/h | 505m | -1.2m/s | 17.2°C | 81.5% | 955.7hPa | 2.7V | 00:00:00 | 00:00:00 | 00:00:00 | |
| SP3BTT-10 | 2026-08-31 20:28:42 | 53.39101 | 16.86642 | 51° | 37km/h | 512m | -1.5m/s | 17.2°C | 81.5% | 955.1hPa | 2.7V | 00:00:00 | 00:00:00 | 00:00:00 | |
| SP3BTT-10 | 2026-08-31 20:28:36 | 53.39069 | 16.86567 | 54° | 37km/h | 521m | -1.2m/s | 17.2°C | 81.2% | 954.2hPa | 2.7V | 00:00:00 | 00:00:00 | 00:00:00 | |
| SP3BTT-10 | 2026-08-31 20:28:30 | 53.39034 | 16.86495 | 50° | 33km/h | 527m | -1.2m/s | 17.2°C | 81.3% | 953.5hPa | 2.7V | 00:00:00 | 00:00:00 | 00:00:00 | |
| SP3BTT-10 | 2026-08-31 20:28:24 | 53.39006 | 16.86424 | 57° | 38km/h | 535m | -1.1m/s | 17.2°C | 81.3% | 952.7hPa | 2.7V | 00:00:00 | 00:00:00 | 00:00:00 | |
| SP3BTT-10 | 2026-08-31 20:28:18 | 53.38973 | 16.86342 | 56° | 38km/h | 543m | -1.1m/s | 17.2°C | 80.8% | 951.8hPa | 2.7V | 00:00:00 | 00:00:00 | 08:30:00 | |
| SP3BTT-10 | 2026-08-31 20:28:12 | 53.38940 | 16.86263 | 62° | 38km/h | 549m | -1.2m/s | 17.2°C | 80.9% | 950.9hPa | 2.7V | 00:00:00 | 00:00:00 | 00:00:00 | |
| SP3BTT-10 | 2026-08-31 20:28:06 | 53.38912 | 16.86179 | 60° | 42km/h | 557m | -1.3m/s | 17.1°C | 81.3% | 950.1hPa | 2.7V | 00:00:00 | 00:00:00 | 00:00:00 | |
| SP3BTT-10 | 2026-08-31 20:28:00 | 53.38879 | 16.86088 | 53° | 42km/h | 564m | -0.9m/s | 17.1°C | 81.4% | 949.4hPa | 2.7V | 00:00:00 | 00:00:00 | 00:00:00 | |
| SP3BTT-10 | 2026-08-31 20:27:54 | 53.38845 | 16.86001 | 63° | 38km/h | 571m | -0.9m/s | 17.0°C | 81.7% | 948.6hPa | 2.7V | 00:00:00 | 00:00:00 | 00:00:00 | |
| SP3BTT-10 | 2026-08-31 20:27:48 | 53.38818 | 16.85913 | 65° | 44km/h | 579m | -1.0m/s | 17.0°C | 81.7% | 947.8hPa | 2.7V | 00:00:00 | 00:00:00 | 00:00:00 | |
| SP3BTT-10 | 2026-08-31 20:27:42 | 53.38784 | 16.85820 | 54° | 38km/h | 586m | -1.1m/s | 17.0°C | 81.1% | 946.9hPa | 2.7V | 00:00:00 | 00:00:00 | 00:00:00 | |
| SP3BTT-10 | 2026-08-31 20:27:36 | 53.38752 | 16.85739 | 62° | 37km/h | 592m | -1.1m/s | 17.0°C | 80.7% | 946.2hPa | 2.7V | 00:00:00 | 00:00:00 | 00:00:00 | |
| SP3BTT-10 | 2026-08-31 20:27:30 | 53.38728 | 16.85652 | 66° | 42km/h | 599m | -1.1m/s | 17.0°C | 80.8% | 945.5hPa | 2.7V | 00:00:00 | 00:00:00 | 00:00:00 | |
| SP3BTT-10 | 2026-08-31 20:27:24 | 53.38699 | 16.85555 | 56° | 40km/h | 606m | -1.1m/s | 17.0°C | 80.4% | 944.7hPa | 2.7V | 00:00:00 | 00:00:00 | 08:30:00 | |
| SP3BTT-10 | 2026-08-31 20:27:18 | 53.38664 | 16.85475 | 56° | 35km/h | 612m | -1.0m/s | 17.0°C | 80.0% | 944.2hPa | 2.7V | 00:00:00 | 00:00:00 | 00:00:00 | |
| SP3BTT-10 | 2026-08-31 20:27:12 | 53.38639 | 16.85395 | 69° | 42km/h | 619m | -1.0m/s | 17.0°C | 79.7% | 943.2hPa | 2.7V | 00:00:00 | 00:00:00 | 00:00:00 | |
| SP3BTT-10 | 2026-08-31 20:27:06 | 53.38614 | 16.85298 | 62° | 42km/h | 626m | -1.2m/s | 17.0°C | 79.4% | 942.6hPa | 2.7V | 00:00:00 | 00:00:00 | 00:00:00 | |
| SP3BTT-10 | 2026-08-31 20:27:00 | 53.38580 | 16.85210 | 58° | 35km/h | 633m | -1.1m/s | 17.0°C | 79.1% | 941.8hPa | 2.7V | 00:00:00 | 00:00:00 | 00:00:00 | |
| SP3BTT-10 | 2026-08-31 20:26:54 | 53.38556 | 16.85130 | 68° | 40km/h | 640m | -1.1m/s | 17.0°C | 79.1% | 940.9hPa | 2.7V | 00:00:00 | 00:00:00 | 00:00:00 | |
| SP3BTT-10 | 2026-08-31 20:26:48 | 53.38532 | 16.85034 | 62° | 38km/h | 647m | -1.1m/s | 17.0°C | 78.1% | 940.2hPa | 2.7V | 00:00:00 | 00:00:00 | 00:00:00 | |
| SP3BTT-10 | 2026-08-31 20:26:42 | 53.38504 | 16.84950 | 65° | 37km/h | 654m | -1.0m/s | 17.1°C | 76.9% | 939.6hPa | 2.7V | 00:00:00 | 00:00:00 | 00:00:00 | |
| SP3BTT-10 | 2026-08-31 20:26:36 | 53.38484 | 16.84864 | 72° | 42km/h | 661m | -1.3m/s | 17.1°C | 76.0% | 938.6hPa | 2.7V | 00:00:00 | 00:00:00 | 00:00:00 | |
| SP3BTT-10 | 2026-08-31 20:26:30 | 53.38459 | 16.84764 | 61° | 40km/h | 668m | -1.2m/s | 17.1°C | 75.3% | 938.0hPa | 2.7V | 00:00:00 | 00:00:00 | 08:30:00 | |
| SP3BTT-10 | 2026-08-31 20:26:24 | 53.38427 | 16.84678 | 61° | 37km/h | 675m | -1.2m/s | 17.2°C | 73.0% | 937.1hPa | 2.7V | 00:00:00 | 00:00:00 | 00:00:00 | |
| SP3BTT-10 | 2026-08-31 20:26:18 | 53.38406 | 16.84592 | 70° | 44km/h | 683m | -1.1m/s | 17.2°C | 72.9% | 936.3hPa | 2.7V | 00:00:00 | 00:00:00 | 00:00:00 | |
| SP3BTT-10 | 2026-08-31 20:26:12 | 53.38380 | 16.84490 | 61° | 42km/h | 689m | -0.8m/s | 17.2°C | 72.7% | 935.7hPa | 2.7V | 00:00:00 | 00:00:00 | 00:00:00 | |
| SP3BTT-10 | 2026-08-31 20:26:06 | 53.38347 | 16.84402 | 60° | 37km/h | 696m | -1.1m/s | 17.1°C | 72.8% | 934.9hPa | 2.7V | 00:00:00 | 00:00:00 | 00:00:00 | |
| SP3BTT-10 | 2026-08-31 20:26:00 | 53.38327 | 16.84316 | 72° | 44km/h | 703m | -1.3m/s | 17.1°C | 72.8% | 934.2hPa | 2.7V | 00:00:00 | 00:00:00 | 00:00:00 | |
| SP3BTT-10 | 2026-08-31 20:25:54 | 53.38301 | 16.84213 | 62° | 42km/h | 710m | -1.4m/s | 17.0°C | 73.0% | 933.3hPa | 2.7V | 00:00:00 | 00:00:00 | 00:00:00 | |
| SP3BTT-10 | 2026-08-31 20:25:48 | 53.38269 | 16.84123 | 60° | 37km/h | 718m | -1.0m/s | 17.0°C | 73.1% | 932.6hPa | 2.7V | 00:00:00 | 00:00:00 | 00:00:00 | |
| SP3BTT-10 | 2026-08-31 20:25:36 | 53.38226 | 16.83934 | 65° | 44km/h | 731m | -1.0m/s | 16.8°C | 73.3% | 931.2hPa | 2.7V | 00:00:00 | 00:00:00 | 08:30:00 | |
| SP3BTT-10 | 2026-08-31 20:25:30 | 53.38192 | 16.83839 | 57° | 37km/h | 738m | -1.1m/s | 16.8°C | 73.6% | 930.3hPa | 2.7V | 00:00:00 | 00:00:00 | 00:00:00 | |
| SP3BTT-10 | 2026-08-31 20:25:24 | 53.38169 | 16.83753 | 73° | 44km/h | 746m | -1.2m/s | 16.7°C | 73.8% | 929.7hPa | 2.7V | 00:00:00 | 00:00:00 | 00:00:00 | |
| SP3BTT-10 | 2026-08-31 20:25:18 | 53.38147 | 16.83649 | 67° | 44km/h | 753m | -1.2m/s | 16.6°C | 73.9% | 928.8hPa | 2.7V | 00:00:00 | 00:00:00 | 00:00:00 | |
| SP3BTT-10 | 2026-08-31 20:25:12 | 53.38115 | 16.83552 | 61° | 37km/h | 760m | -1.1m/s | 16.6°C | 74.3% | 927.9hPa | 2.7V | 00:00:00 | 00:00:00 | 00:00:00 | |
| SP3BTT-10 | 2026-08-31 20:25:06 | 53.38092 | 16.83466 | 73° | 44km/h | 768m | -1.2m/s | 16.5°C | 74.4% | 927.3hPa | 2.7V | 00:00:00 | 00:00:00 | 00:00:00 | |
| SP3BTT-10 | 2026-08-31 20:25:00 | 53.38070 | 16.83362 | 67° | 44km/h | 775m | -1.0m/s | 16.5°C | 74.6% | 926.5hPa | 2.7V | 00:00:00 | 00:00:00 | 00:00:00 | |
| SP3BTT-10 | 2026-08-31 20:24:54 | 53.38039 | 16.83267 | 61° | 37km/h | 782m | -1.1m/s | 16.4°C | 74.9% | 925.8hPa | 2.7V | 00:00:00 | 00:00:00 | 00:00:00 | |
| SP3BTT-10 | 2026-08-31 20:24:48 | 53.38017 | 16.83181 | 74° | 42km/h | 789m | -1.0m/s | 16.4°C | 74.9% | 925.0hPa | 2.7V | 00:00:00 | 00:00:00 | 00:00:00 | |
| SP3BTT-10 | 2026-08-31 20:24:42 | 53.37998 | 16.83077 | 70° | 46km/h | 795m | -1.1m/s | 16.3°C | 75.2% | 924.3hPa | 2.7V | 00:00:00 | 00:00:00 | 08:30:00 | |
| SP3BTT-10 | 2026-08-31 20:24:36 | 53.37967 | 16.82975 | 62° | 38km/h | 802m | -0.9m/s | 16.2°C | 75.5% | 923.7hPa | 2.7V | 00:00:00 | 00:00:00 | 00:00:00 | |
| SP3BTT-10 | 2026-08-31 20:24:30 | 53.37945 | 16.82885 | 73° | 42km/h | 808m | -1.0m/s | 16.2°C | 75.5% | 922.9hPa | 2.7V | 00:00:00 | 00:00:00 | 00:00:00 | |
| SP3BTT-10 | 2026-08-31 20:24:24 | 53.37925 | 16.82782 | 72° | 46km/h | 814m | -0.9m/s | 16.1°C | 75.6% | 922.0hPa | 2.7V | 00:00:00 | 00:00:00 | 00:00:00 | |
| SP3BTT-10 | 2026-08-31 20:24:18 | 53.37896 | 16.82679 | 63° | 38km/h | 821m | -0.9m/s | 16.0°C | 76.0% | 921.3hPa | 2.7V | 00:00:00 | 00:00:00 | 00:00:00 | |
| SP3BTT-10 | 2026-08-31 20:24:12 | 53.37873 | 16.82591 | 72° | 42km/h | 828m | -1.0m/s | 16.0°C | 76.2% | 920.8hPa | 2.7V | 00:00:00 | 00:00:00 | 00:00:00 | |
| SP3BTT-10 | 2026-08-31 20:24:06 | 53.37853 | 16.82486 | 68° | 46km/h | 835m | -1.1m/s | 15.9°C | 76.2% | 919.9hPa | 2.7V | 00:00:00 | 00:00:00 | 00:00:00 | |
| SP3BTT-10 | 2026-08-31 20:24:00 | 53.37822 | 16.82383 | 61° | 38km/h | 842m | -1.1m/s | 15.9°C | 75.8% | 919.3hPa | 2.7V | 00:00:00 | 00:00:00 | 00:00:00 | |
| KRY50SP-1 | 2026-08-31 20:23:55 | 53.37805 | 16.82325 | 72° | 38km/h | 846m | -1.0m/s | 15.9°C | 76.3% | 918.8hPa | 2.7V | 00:00:00 | 00:00:00 | 00:00:00 | |
| SP3BTT-10 | 2026-08-31 20:23:54 | 53.37800 | 16.82294 | 76° | 44km/h | 848m | -1.1m/s | 15.8°C | 76.2% | 918.6hPa | 2.7V | 00:00:00 | 00:00:00 | 00:00:00 | |
| SP3BTT-10 | 2026-08-31 20:23:48 | 53.37781 | 16.82186 | 71° | 46km/h | 854m | -1.1m/s | 15.8°C | 76.2% | 917.9hPa | 2.7V | 00:00:00 | 00:00:00 | 08:30:00 | |
| SP3BTT-10 | 2026-08-31 20:23:42 | 53.37751 | 16.82082 | 62° | 38km/h | 860m | -0.9m/s | 15.7°C | 76.4% | 917.0hPa | 2.7V | 00:00:00 | 00:00:00 | 00:00:00 | |
| SP3BTT-10 | 2026-08-31 20:23:36 | 53.37730 | 16.81990 | 75° | 46km/h | 867m | -0.9m/s | 15.7°C | 76.2% | 916.6hPa | 2.7V | 00:00:00 | 00:00:00 | 00:00:00 | |
| SP3BTT-10 | 2026-08-31 20:23:30 | 53.37712 | 16.81878 | 73° | 47km/h | 873m | -1.0m/s | 15.6°C | 76.4% | 915.9hPa | 2.7V | 00:00:00 | 00:00:00 | 00:00:00 | |
| SP3BTT-10 | 2026-08-31 20:23:24 | 53.37683 | 16.81770 | 65° | 38km/h | 879m | -0.7m/s | 15.6°C | 76.7% | 915.4hPa | 2.7V | 00:00:00 | 00:00:00 | 00:00:00 | |
| SP3BTT-10 | 2026-08-31 20:23:18 | 53.37661 | 16.81677 | 75° | 44km/h | 885m | -1.1m/s | 15.5°C | 76.8% | 914.7hPa | 2.7V | 00:00:00 | 00:00:00 | 00:00:00 | |
| SP3BTT-10 | 2026-08-31 20:23:12 | 53.37642 | 16.81568 | 69° | 44km/h | 892m | -0.9m/s | 15.5°C | 77.0% | 913.9hPa | 2.7V | 00:00:00 | 00:00:00 | 00:00:00 | |
| SP3BTT-10 | 2026-08-31 20:23:06 | 53.37616 | 16.81467 | 73° | 44km/h | 898m | -1.0m/s | 15.4°C | 77.0% | 913.2hPa | 2.7V | 00:00:00 | 00:00:00 | 00:00:00 | |
| SP3BTT-10 | 2026-08-31 20:23:00 | 53.37596 | 16.81358 | 69° | 44km/h | 904m | -1.0m/s | 15.4°C | 76.8% | 912.4hPa | 2.7V | 00:00:00 | 00:00:00 | 00:00:00 | |
| SP3BTT-10 | 2026-08-31 20:22:54 | 53.37572 | 16.81258 | 73° | 40km/h | 911m | -1.1m/s | 15.3°C | 76.9% | 911.8hPa | 2.7V | 00:00:00 | 00:00:00 | 08:30:00 | |
| SP3BTT-10 | 2026-08-31 20:22:48 | 53.37557 | 16.81157 | 77° | 47km/h | 918m | -1.1m/s | 15.3°C | 76.9% | 910.9hPa | 2.7V | 00:00:00 | 00:00:00 | 00:00:00 | |
| SP3BTT-10 | 2026-08-31 20:22:42 | 53.37536 | 16.81042 | 67° | 42km/h | 924m | -1.0m/s | 15.2°C | 77.0% | 910.3hPa | 2.7V | 00:00:00 | 00:00:00 | 00:00:00 | |
| SP3BTT-10 | 2026-08-31 20:22:36 | 53.37513 | 16.80945 | 70° | 40km/h | 931m | -1.0m/s | 15.2°C | 77.1% | 909.6hPa | 2.7V | 00:00:00 | 00:00:00 | 00:00:00 | |
| SP3BTT-10 | 2026-08-31 20:22:30 | 53.37498 | 16.80845 | 78° | 47km/h | 938m | -1.1m/s | 15.1°C | 77.4% | 909.1hPa | 2.7V | 00:00:00 | 00:00:00 | 00:00:00 | |
| KRY50SP-1 | 2026-08-31 20:22:24 | 53.37481 | 16.80749 | 71° | 47km/h | 943m | -0.9m/s | 15.1°C | 77.6% | 908.4hPa | 2.7V | 00:00:00 | 00:00:00 | 00:00:00 | |
| SP3BTT-10 | 2026-08-31 20:22:24 | 53.37477 | 16.80731 | 66° | 42km/h | 944m | -1.0m/s | 15.1°C | 77.4% | 908.3hPa | 2.7V | 00:00:00 | 00:00:00 | 00:00:00 | |
| KRY50SP-1 | 2026-08-31 20:22:19 | 53.37460 | 16.80665 | 72° | 40km/h | 948m | -1.1m/s | 15.1°C | 77.6% | 907.9hPa | 2.7V | 00:00:00 | 00:00:00 | 00:00:00 | |
| SP3BTT-10 | 2026-08-31 20:22:18 | 53.37454 | 16.80634 | 76° | 42km/h | 950m | -0.9m/s | 15.0°C | 77.3% | 907.6hPa | 2.7V | 00:00:00 | 00:00:00 | 00:00:00 | |
| SP3BTT-10 | 2026-08-31 20:22:12 | 53.37442 | 16.80527 | 79° | 47km/h | 956m | -1.1m/s | 15.0°C | 76.8% | 906.7hPa | 2.7V | 00:00:00 | 00:00:00 | 00:00:00 | |
| KRY50SP-1 | 2026-08-31 20:22:06 | 53.37425 | 16.80430 | 70° | 44km/h | 961m | -1.2m/s | 15.0°C | 77.1% | 906.5hPa | 2.7V | 00:00:00 | 00:00:00 | 00:00:00 | |
| SP3BTT-10 | 2026-08-31 20:22:06 | 53.37421 | 16.80413 | 69° | 40km/h | 963m | -0.9m/s | 15.0°C | 77.1% | 906.4hPa | 2.7V | 00:00:00 | 00:00:00 | 00:00:00 | |
| SP3BTT-10 | 2026-08-31 20:22:00 | 53.37403 | 16.80318 | 76° | 40km/h | 969m | -1.0m/s | 14.9°C | 77.1% | 905.5hPa | 2.7V | 00:00:00 | 00:00:00 | 08:30:00 | |
| KRY50SP-1 | 2026-08-31 20:21:55 | 53.37396 | 16.80252 | 80° | 40km/h | 974m | -1.1m/s | 14.9°C | 77.3% | 905.1hPa | 2.7V | 00:00:00 | 00:00:00 | 00:00:00 | |
| SP3BTT-10 | 2026-08-31 20:21:54 | 53.37393 | 16.80218 | 83° | 46km/h | 976m | -1.0m/s | 14.9°C | 77.2% | 904.9hPa | 2.7V | 00:00:00 | 00:00:00 | 00:00:00 | |
| SP3BTT-10 | 2026-08-31 20:21:48 | 53.37377 | 16.80103 | 73° | 40km/h | 982m | -0.9m/s | 14.8°C | 77.5% | 904.1hPa | 2.7V | 00:00:00 | 00:00:00 | 00:00:00 | |
| SP3BTT-10 | 2026-08-31 20:21:42 | 53.37358 | 16.80005 | 78° | 38km/h | 989m | -1.2m/s | 14.8°C | 77.7% | 903.6hPa | 2.7V | 00:00:00 | 00:00:00 | 00:00:00 | |
| SP3BTT-10 | 2026-08-31 20:21:36 | 53.37348 | 16.79907 | 84° | 46km/h | 995m | -1.3m/s | 14.7°C | 78.1% | 902.7hPa | 2.7V | 00:00:00 | 00:00:00 | 00:00:00 | |
| SP3BTT-10 | 2026-08-31 20:21:30 | 53.37333 | 16.79792 | 72° | 42km/h | 1002m | -1.0m/s | 14.6°C | 78.5% | 902.0hPa | 2.7V | 00:00:00 | 00:00:00 | 00:00:00 | |
| SP3BTT-10 | 2026-08-31 20:21:24 | 53.37313 | 16.79692 | 75° | 40km/h | 1008m | -1.0m/s | 14.6°C | 78.1% | 901.3hPa | 2.7V | 00:00:00 | 00:00:00 | 00:00:00 | |
| SP3BTT-10 | 2026-08-31 20:21:18 | 53.37305 | 16.79590 | 83° | 47km/h | 1015m | -1.2m/s | 14.6°C | 77.0% | 900.7hPa | 2.7V | 00:00:00 | 00:00:00 | 00:00:00 | |
| SP3BTT-10 | 2026-08-31 20:21:12 | 53.37289 | 16.79474 | 71° | 42km/h | 1022m | -1.3m/s | 14.5°C | 76.7% | 900.1hPa | 2.7V | 00:00:00 | 00:00:00 | 00:00:00 | |
| SP3BTT-10 | 2026-08-31 20:21:06 | 53.37269 | 16.79375 | 78° | 40km/h | 1029m | -1.3m/s | 14.5°C | 76.7% | 899.1hPa | 2.7V | 00:00:00 | 00:00:00 | 08:30:00 | |
| KRY50SP-1 | 2026-08-31 20:21:03 | 53.37266 | 16.79342 | 84° | 38km/h | 1031m | -1.5m/s | 14.5°C | 76.6% | 898.9hPa | 2.7V | 00:00:00 | 00:00:00 | 00:00:00 | |
| SP3BTT-10 | 2026-08-31 20:21:00 | 53.37261 | 16.79271 | 85° | 47km/h | 1037m | -1.2m/s | 14.4°C | 76.6% | 898.3hPa | 2.7V | 00:00:00 | 00:00:00 | 00:00:00 | |
| SP3BTT-10 | 2026-08-31 20:20:54 | 53.37247 | 16.79152 | 75° | 42km/h | 1043m | -1.1m/s | 14.4°C | 76.8% | 897.6hPa | 2.7V | 00:00:00 | 00:00:00 | 00:00:00 | |
| KRY50SP-1 | 2026-08-31 20:20:51 | 53.37240 | 16.79115 | 72° | 44km/h | 1045m | -1.3m/s | 14.4°C | 76.9% | 897.5hPa | 2.7V | 00:00:00 | 00:00:00 | 00:00:00 | |
| SP3BTT-10 | 2026-08-31 20:20:48 | 53.37227 | 16.79050 | 75° | 40km/h | 1050m | -1.4m/s | 14.3°C | 76.9% | 896.9hPa | 2.7V | 00:00:00 | 00:00:00 | 00:00:00 | |
| KRY50SP-1 | 2026-08-31 20:20:43 | 53.37221 | 16.78986 | 85° | 42km/h | 1055m | -1.2m/s | 14.3°C | 77.0% | 896.5hPa | 2.7V | 00:00:00 | 00:00:00 | 00:00:00 | |
| SP3BTT-10 | 2026-08-31 20:20:42 | 53.37218 | 16.78950 | 83° | 47km/h | 1057m | -1.2m/s | 14.3°C | 77.1% | 896.1hPa | 2.7V | 00:00:00 | 00:00:00 | 00:00:00 | |
| SP3BTT-10 | 2026-08-31 20:20:36 | 53.37205 | 16.78833 | 73° | 42km/h | 1064m | -1.4m/s | 14.2°C | 77.5% | 895.4hPa | 2.7V | 00:00:00 | 00:00:00 | 00:00:00 | |
| SP3BTT-10 | 2026-08-31 20:20:30 | 53.37186 | 16.78730 | 80° | 42km/h | 1071m | -1.0m/s | 14.1°C | 77.9% | 894.5hPa | 2.7V | 00:00:00 | 00:00:00 | 00:00:00 | |
| KRY50SP-1 | 2026-08-31 20:20:25 | 53.37180 | 16.78663 | 86° | 44km/h | 1076m | -1.2m/s | 14.1°C | 77.7% | 894.1hPa | 2.7V | 00:00:00 | 00:00:00 | 00:00:00 | |
| SP3BTT-10 | 2026-08-31 20:20:24 | 53.37178 | 16.78625 | 83° | 47km/h | 1078m | -1.3m/s | 14.1°C | 77.6% | 893.6hPa | 2.7V | 00:00:00 | 00:00:00 | 00:00:00 | |
| SP3BTT-10 | 2026-08-31 20:20:18 | 53.37164 | 16.78506 | 73° | 40km/h | 1086m | -1.0m/s | 14.0°C | 77.9% | 893.1hPa | 2.7V | 00:00:00 | 00:00:00 | 00:00:00 | |
| SP3BTT-10 | 2026-08-31 20:20:12 | 53.37148 | 16.78407 | 81° | 42km/h | 1092m | -1.0m/s | 13.9°C | 77.8% | 892.6hPa | 2.7V | 00:00:00 | 00:00:00 | 08:30:00 | |
| KRY50SP-1 | 2026-08-31 20:20:10 | 53.37147 | 16.78391 | 82° | 40km/h | 1093m | -1.1m/s | 14.0°C | 77.9% | 892.2hPa | 2.7V | 00:00:00 | 00:00:00 | 00:00:00 | |
| SP3BTT-10 | 2026-08-31 20:20:06 | 53.37141 | 16.78301 | 83° | 47km/h | 1098m | -1.2m/s | 13.9°C | 77.9% | 891.6hPa | 2.7V | 00:00:00 | 00:00:00 | 00:00:00 | |
| KRY50SP-1 | 2026-08-31 20:20:05 | 53.37141 | 16.78301 | 83° | 46km/h | 1098m | -1.2m/s | 13.9°C | 77.9% | 891.7hPa | 2.7V | 00:00:00 | 00:00:00 | 00:00:00 | |
| SP3BTT-10 | 2026-08-31 20:20:00 | 53.37125 | 16.78182 | 73° | 42km/h | 1106m | -1.2m/s | 13.8°C | 78.2% | 890.9hPa | 2.7V | 00:00:00 | 00:00:00 | 00:00:00 | |
| KRY50SP-1 | 2026-08-31 20:19:59 | 53.37126 | 16.78182 | 73° | 47km/h | 1106m | -1.2m/s | 13.9°C | 78.2% | 890.9hPa | 2.7V | 00:00:00 | 00:00:00 | 00:00:00 | |
| KRY50SP-1 | 2026-08-31 20:19:54 | 53.37111 | 16.78097 | 81° | 38km/h | 1112m | -1.1m/s | 13.8°C | 78.1% | 890.3hPa | 2.7V | 00:00:00 | 00:00:00 | 00:00:00 | |
| SP3BTT-10 | 2026-08-31 20:19:54 | 53.37109 | 16.78080 | 81° | 42km/h | 1113m | -1.2m/s | 13.8°C | 78.3% | 890.1hPa | 2.7V | 00:00:00 | 00:00:00 | 00:00:00 | |
| KRY50SP-1 | 2026-08-31 20:19:48 | 53.37104 | 16.77992 | 86° | 46km/h | 1119m | -1.1m/s | 13.8°C | 78.2% | 889.6hPa | 2.7V | 00:00:00 | 00:00:00 | 00:00:00 | |
| SP3BTT-10 | 2026-08-31 20:19:48 | 53.37103 | 16.77972 | 84° | 47km/h | 1120m | -1.2m/s | 13.7°C | 78.2% | 889.5hPa | 2.7V | 00:00:00 | 00:00:00 | 00:00:00 | |
| KRY50SP-1 | 2026-08-31 20:19:43 | 53.37095 | 16.77891 | 76° | 47km/h | 1125m | -1.0m/s | 13.7°C | 78.4% | 889.0hPa | 2.7V | 00:00:00 | 00:00:00 | 00:00:00 | |
| SP3BTT-10 | 2026-08-31 20:19:42 | 53.37088 | 16.77852 | 72° | 42km/h | 1127m | -0.9m/s | 13.6°C | 78.4% | 888.9hPa | 2.7V | 00:00:00 | 00:00:00 | 00:00:00 | |
| KRY50SP-1 | 2026-08-31 20:19:37 | 53.37075 | 16.77783 | 73° | 38km/h | 1131m | -1.1m/s | 13.7°C | 78.2% | 888.1hPa | 2.7V | 00:00:00 | 00:00:00 | 00:00:00 | |
| SP3BTT-10 | 2026-08-31 20:19:36 | 53.37070 | 16.77751 | 79° | 40km/h | 1134m | -1.5m/s | 13.6°C | 78.2% | 887.9hPa | 2.7V | 00:00:00 | 00:00:00 | 00:00:00 | |
| KRY50SP-1 | 2026-08-31 20:19:31 | 53.37065 | 16.77684 | 86° | 44km/h | 1139m | -1.3m/s | 13.6°C | 78.0% | 887.5hPa | 2.7V | 00:00:00 | 00:00:00 | 00:00:00 | |
| SP3BTT-10 | 2026-08-31 20:19:30 | 53.37063 | 16.77645 | 83° | 46km/h | 1142m | -1.3m/s | 13.5°C | 78.2% | 887.2hPa | 2.7V | 00:00:00 | 00:00:00 | 00:00:00 | |
| KRY50SP-1 | 2026-08-31 20:19:25 | 53.37053 | 16.77567 | 74° | 46km/h | 1147m | -1.3m/s | 13.5°C | 78.4% | 886.7hPa | 2.7V | 00:00:00 | 00:00:00 | 00:00:00 | |
| SP3BTT-10 | 2026-08-31 20:19:23 | 53.37042 | 16.77514 | 73° | 42km/h | 1151m | -1.1m/s | 13.5°C | 78.4% | 886.4hPa | 2.7V | 00:00:00 | 00:00:00 | 00:00:00 | |
| KRY50SP-1 | 2026-08-31 20:19:20 | 53.37036 | 16.77481 | 76° | 40km/h | 1153m | -1.2m/s | 13.5°C | 78.5% | 886.3hPa | 2.7V | 00:00:00 | 00:00:00 | 00:00:00 | |
| KRY50SP-1 | 2026-08-31 20:19:15 | 53.37028 | 16.77400 | 84° | 38km/h | 1159m | -1.2m/s | 13.4°C | 78.5% | 885.6hPa | 2.7V | 00:00:00 | 00:00:00 | 00:00:00 | |
| KRY50SP-1 | 2026-08-31 20:19:09 | 53.37021 | 16.77290 | 83° | 47km/h | 1166m | -1.1m/s | 13.4°C | 79.1% | 884.8hPa | 2.7V | 00:00:00 | 00:00:00 | 00:00:00 | |
| KRY50SP-1 | 2026-08-31 20:19:03 | 53.37004 | 16.77182 | 75° | 42km/h | 1172m | -1.2m/s | 13.3°C | 79.2% | 884.1hPa | 2.7V | 00:00:00 | 00:00:00 | 00:00:00 | |
| SP3BTT-10 | 2026-08-31 20:18:43 | 53.36960 | 16.76825 | 80° | 42km/h | 1198m | -1.2m/s | 13.0°C | 79.8% | 881.4hPa | 2.7V | 00:00:00 | 00:00:00 | 00:00:00 | |
| SP3BTT-10 | 2026-08-31 20:18:23 | 53.36925 | 16.76478 | 82° | 40km/h | 1223m | -1.3m/s | 12.8°C | 79.6% | 878.7hPa | 2.7V | 00:00:00 | 00:00:00 | 00:00:00 | |
| SP3BTT-10 | 2026-08-31 20:18:03 | 53.36888 | 16.76138 | 88° | 42km/h | 1248m | -1.5m/s | 12.6°C | 80.7% | 876.0hPa | 2.7V | 00:00:00 | 00:00:00 | 00:00:00 | |
| SP3BTT-10 | 2026-08-31 20:17:43 | 53.36853 | 16.75792 | 86° | 42km/h | 1275m | -1.3m/s | 12.4°C | 80.6% | 873.4hPa | 2.7V | 00:00:00 | 00:00:00 | 00:00:00 | |
| SP3BTT-10 | 2026-08-31 20:17:23 | 53.36823 | 16.75440 | 84° | 42km/h | 1301m | -1.3m/s | 12.2°C | 78.8% | 870.7hPa | 2.7V | 00:00:00 | 00:00:00 | 00:00:00 | |
| SP3BTT-10 | 2026-08-31 20:17:03 | 53.36794 | 16.75098 | 77° | 38km/h | 1329m | -1.3m/s | 12.0°C | 79.4% | 868.0hPa | 2.7V | 00:00:00 | 00:00:00 | 00:00:00 | |
| SP3BTT-10 | 2026-08-31 20:16:43 | 53.36771 | 16.74773 | 91° | 40km/h | 1359m | -1.6m/s | 11.7°C | 78.2% | 864.6hPa | 2.7V | 00:00:00 | 00:00:00 | 00:00:00 | |
| SP3BTT-10 | 2026-08-31 20:16:23 | 53.36750 | 16.74427 | 84° | 42km/h | 1389m | -1.3m/s | 11.5°C | 77.8% | 861.5hPa | 2.7V | 00:00:00 | 00:00:00 | 00:00:00 | |
| SP3BTT-10 | 2026-08-31 20:15:43 | 53.36721 | 16.73710 | 87° | 42km/h | 1443m | -1.4m/s | 11.2°C | 74.7% | 856.0hPa | 2.7V | 00:00:00 | 00:00:00 | 00:00:00 | |
| SP3BTT-10 | 2026-08-31 20:15:23 | 53.36710 | 16.73350 | 92° | 44km/h | 1472m | -1.3m/s | 11.0°C | 74.0% | 853.1hPa | 2.7V | 00:00:00 | 00:00:00 | 00:00:00 | |
| SP3BTT-10 | 2026-08-31 20:15:03 | 53.36695 | 16.72985 | 94° | 44km/h | 1502m | -1.3m/s | 10.7°C | 74.5% | 850.0hPa | 2.7V | 00:00:00 | 00:00:00 | 00:00:00 | |
| SP3BTT-10 | 2026-08-31 20:14:43 | 53.36680 | 16.72617 | 92° | 44km/h | 1534m | -1.6m/s | 10.5°C | 75.5% | 846.8hPa | 2.7V | 00:00:00 | 00:00:00 | 00:00:00 | |
| KRY50SP-1 | 2026-08-31 20:14:40 | 53.36680 | 16.72577 | 91° | 49km/h | 1537m | -1.5m/s | 10.5°C | 75.4% | 846.6hPa | 2.7V | 00:00:00 | 00:00:00 | 00:00:00 | |
| SP3WXH-11 | 2026-08-31 20:14:38 | 53.36675 | 16.72496 | 82° | 46km/h | 1544m | -1.4m/s | 10.4°C | 75.3% | 845.9hPa | 2.7V | 00:00:00 | 00:00:00 | 00:00:00 | |
| KRY50SP-1 | 2026-08-31 20:14:33 | 53.36669 | 16.72440 | 82° | 42km/h | 1548m | -1.4m/s | 10.4°C | 76.2% | 845.4hPa | 2.7V | 00:00:00 | 00:00:00 | 00:00:00 | |
| KRY50SP-1 | 2026-08-31 20:14:28 | 53.36665 | 16.72358 | 90° | 38km/h | 1557m | -1.5m/s | 10.3°C | 76.9% | 844.7hPa | 2.7V | 00:00:00 | 00:00:00 | 00:00:00 | |
| SP3BTT-10 | 2026-08-31 20:14:23 | 53.36666 | 16.72245 | 88° | 44km/h | 1566m | -1.6m/s | 10.2°C | 76.9% | 843.6hPa | 2.7V | 00:00:00 | 00:00:00 | 00:00:00 | |
| KRY50SP-1 | 2026-08-31 20:14:09 | 53.36653 | 16.72013 | 94° | 40km/h | 1588m | -1.6m/s | 10.0°C | 77.0% | 841.5hPa | 2.7V | 00:00:00 | 00:00:00 | 00:00:00 | |
| SP3WXH-11 | 2026-08-31 20:14:07 | 53.36655 | 16.71939 | 90° | 46km/h | 1594m | -1.6m/s | 9.9°C | 78.0% | 840.8hPa | 2.7V | 00:00:00 | 00:00:00 | 00:00:00 | |
| SP3BTT-10 | 2026-08-31 20:14:03 | 53.36653 | 16.71880 | 84° | 42km/h | 1599m | -1.6m/s | 9.8°C | 78.4% | 840.3hPa | 2.7V | 00:00:00 | 00:00:00 | 00:00:00 | |
| KRY50SP-1 | 2026-08-31 20:13:54 | 53.36642 | 16.71741 | 85° | 40km/h | 1613m | -1.7m/s | 9.8°C | 78.4% | 839.0hPa | 2.7V | 00:00:00 | 00:00:00 | 00:00:00 | |
| KRY50SP-1 | 2026-08-31 20:13:49 | 53.36638 | 16.71640 | 93° | 42km/h | 1625m | -2.0m/s | 9.6°C | 79.2% | 837.7hPa | 2.7V | 00:00:00 | 00:00:00 | 00:00:00 | |
| SP3BTT-10 | 2026-08-31 20:13:43 | 53.36636 | 16.71527 | 82° | 40km/h | 1636m | -1.7m/s | 9.5°C | 79.5% | 836.5hPa | 2.7V | 00:00:00 | 00:00:00 | 00:00:00 | |
| KRY50SP-1 | 2026-08-31 20:13:40 | 53.36632 | 16.71492 | 83° | 40km/h | 1640m | -2.0m/s | 9.5°C | 79.2% | 836.1hPa | 2.7V | 00:00:00 | 00:00:00 | 00:00:00 | |
| KRY50SP-1 | 2026-08-31 20:13:35 | 53.36630 | 16.71412 | 94° | 40km/h | 1650m | -1.9m/s | 9.5°C | 78.7% | 835.2hPa | 2.7V | 00:00:00 | 00:00:00 | 00:00:00 | |
| KRY50SP-1 | 2026-08-31 20:13:28 | 53.36627 | 16.71283 | 82° | 42km/h | 1663m | -1.9m/s | 9.4°C | 78.7% | 834.0hPa | 2.7V | 00:00:00 | 00:00:00 | 00:00:00 | |
| KRY50SP-1 | 2026-08-31 20:13:23 | 53.36622 | 16.71203 | 90° | 37km/h | 1672m | -1.8m/s | 9.3°C | 77.6% | 832.9hPa | 2.7V | 00:00:00 | 00:00:00 | 00:00:00 | |
| SP3BTT-10 | 2026-08-31 20:13:23 | 53.36622 | 16.71187 | 91° | 40km/h | 1673m | -1.8m/s | 9.2°C | 78.0% | 832.7hPa | 2.7V | 00:00:00 | 00:00:00 | 00:00:00 | |
| KRY50SP-1 | 2026-08-31 20:13:16 | 53.36625 | 16.71080 | 89° | 46km/h | 1683m | -1.3m/s | 9.2°C | 78.6% | 831.8hPa | 2.7V | 00:00:00 | 00:00:00 | 00:00:00 | |
| SP3WXH-11 | 2026-08-31 20:13:04 | 53.36618 | 16.70862 | 91° | 42km/h | 1703m | -1.6m/s | 9.0°C | 78.4% | 829.8hPa | 2.7V | 00:00:00 | 00:00:00 | 00:00:00 | |
| SP3BTT-10 | 2026-08-31 20:13:03 | 53.36619 | 16.70843 | 92° | 42km/h | 1704m | -1.2m/s | 8.9°C | 78.4% | 829.6hPa | 2.7V | 00:00:00 | 00:00:00 | 08:30:00 | |
| SP3BTT-10 | 2026-08-31 20:12:43 | 53.36604 | 16.70495 | 83° | 40km/h | 1733m | -1.2m/s | 8.7°C | 79.5% | 826.9hPa | 2.7V | 00:00:00 | 00:00:00 | 00:00:00 | |
| SP3WXH-11 | 2026-08-31 20:12:33 | 53.36606 | 16.70325 | 85° | 46km/h | 1747m | -1.5m/s | 8.6°C | 78.7% | 825.4hPa | 2.7V | 00:00:00 | 00:00:00 | 00:00:00 | |
| SP3BTT-10 | 2026-08-31 20:12:23 | 53.36599 | 16.70160 | 97° | 40km/h | 1761m | -1.4m/s | 8.5°C | 79.4% | 824.1hPa | 2.7V | 00:00:00 | 00:00:00 | 00:00:00 | |
| SP3BTT-10 | 2026-08-31 20:12:03 | 53.36597 | 16.69816 | 95° | 42km/h | 1785m | -1.0m/s | 8.3°C | 80.2% | 821.8hPa | 2.7V | 00:00:00 | 00:00:00 | 00:00:00 | |
| SP3BTT-10 | 2026-08-31 20:11:43 | 53.36590 | 16.69470 | 92° | 40km/h | 1808m | -1.1m/s | 8.0°C | 81.3% | 819.4hPa | 2.7V | 00:00:00 | 00:00:00 | 00:00:00 | |
| KRY50SP-1 | 2026-08-31 20:11:36 | 53.36592 | 16.69362 | 88° | 46km/h | 1816m | -1.2m/s | 8.0°C | 81.2% | 818.7hPa | 2.7V | 00:00:00 | 00:00:00 | 00:00:00 | |
| SP3WXH-11 | 2026-08-31 20:11:31 | 53.36583 | 16.69260 | 81° | 37km/h | 1822m | -0.9m/s | 7.9°C | 81.9% | 817.9hPa | 2.7V | 00:00:00 | 00:00:00 | 00:00:00 | |
| SP3BTT-10 | 2026-08-31 20:11:23 | 53.36584 | 16.69138 | 99° | 40km/h | 1830m | -0.7m/s | 7.8°C | 81.8% | 817.4hPa | 2.7V | 00:00:00 | 00:00:00 | 00:00:00 | |
| KRY50SP-1 | 2026-08-31 20:11:15 | 53.36588 | 16.69006 | 86° | 44km/h | 1836m | -0.6m/s | 7.8°C | 81.9% | 816.9hPa | 2.7V | 00:00:00 | 00:00:00 | 00:00:00 | |
| KRY50SP-1 | 2026-08-31 20:11:08 | 53.36579 | 16.68893 | 87° | 33km/h | 1840m | -1.1m/s | 7.8°C | 82.0% | 816.3hPa | 2.7V | 00:00:00 | 00:00:00 | 00:00:00 | |
| SP3BTT-10 | 2026-08-31 20:11:03 | 53.36584 | 16.68803 | 99° | 40km/h | 1846m | -0.8m/s | 7.7°C | 81.5% | 815.6hPa | 2.7V | 00:00:00 | 00:00:00 | 00:00:00 | |
| KRY50SP-1 | 2026-08-31 20:11:02 | 53.36584 | 16.68803 | 100° | 42km/h | 1846m | -0.9m/s | 7.8°C | 81.2% | 815.7hPa | 2.7V | 00:00:00 | 00:00:00 | 00:00:00 | |
| SP3WXH-11 | 2026-08-31 20:11:00 | 53.36588 | 16.68748 | 94° | 46km/h | 1848m | -0.7m/s | 7.7°C | 82.1% | 815.6hPa | 2.7V | 00:00:00 | 00:00:00 | 00:00:00 | |
| KRY50SP-1 | 2026-08-31 20:10:56 | 53.36588 | 16.68689 | 89° | 46km/h | 1851m | -0.7m/s | 7.7°C | 82.1% | 815.2hPa | 2.7V | 00:00:00 | 00:00:00 | 00:00:00 | |
| KRY50SP-1 | 2026-08-31 20:10:51 | 53.36582 | 16.68602 | 83° | 37km/h | 1855m | -1.1m/s | 7.7°C | 82.6% | 814.9hPa | 2.7V | 00:00:00 | 00:00:00 | 00:00:00 | |
| KRY50SP-1 | 2026-08-31 20:10:44 | 53.36586 | 16.68495 | 100° | 40km/h | 1861m | -0.6m/s | 7.6°C | 82.8% | 814.3hPa | 2.7V | 00:00:00 | 00:00:00 | 00:00:00 | |
| SP3BTT-10 | 2026-08-31 20:10:43 | 53.36589 | 16.68459 | 97° | 42km/h | 1863m | -0.7m/s | 7.6°C | 82.4% | 814.1hPa | 2.7V | 00:00:00 | 00:00:00 | 00:00:00 | |
| KRY50SP-1 | 2026-08-31 20:10:34 | 53.36585 | 16.68312 | 84° | 38km/h | 1870m | -1.1m/s | 7.5°C | 82.0% | 813.4hPa | 2.7V | 00:00:00 | 00:00:00 | 00:00:00 | |
| SP3WXH-11 | 2026-08-31 20:10:29 | 53.36587 | 16.68215 | 95° | 42km/h | 1876m | -0.8m/s | 7.5°C | 82.2% | 813.0hPa | 2.7V | 00:00:00 | 00:00:00 | 00:00:00 | |
| KRY50SP-1 | 2026-08-31 20:10:28 | 53.36587 | 16.68215 | 97° | 42km/h | 1876m | -0.8m/s | 7.5°C | 82.2% | 813.0hPa | 2.7V | 00:00:00 | 00:00:00 | 00:00:00 | |
| KRY50SP-1 | 2026-08-31 20:10:23 | 53.36587 | 16.68123 | 85° | 42km/h | 1881m | -1.0m/s | 7.5°C | 82.2% | 812.2hPa | 2.7V | 00:00:00 | 00:00:00 | 00:00:00 | |
| SP3BTT-10 | 2026-08-31 20:10:23 | 53.36586 | 16.68106 | 85° | 38km/h | 1882m | -1.0m/s | 7.4°C | 82.9% | 812.2hPa | 2.7V | 00:00:00 | 00:00:00 | 00:00:00 | |
| KRY50SP-1 | 2026-08-31 20:10:17 | 53.36584 | 16.68031 | 97° | 35km/h | 1887m | -0.9m/s | 7.4°C | 83.4% | 811.7hPa | 2.7V | 00:00:00 | 00:00:00 | 00:00:00 | |
| KRY50SP-1 | 2026-08-31 20:10:11 | 53.36590 | 16.67927 | 91° | 46km/h | 1893m | -0.9m/s | 7.3°C | 82.3% | 811.0hPa | 2.7V | 00:00:00 | 00:00:00 | 00:00:00 | |
| KRY50SP-1 | 2026-08-31 20:10:05 | 53.36584 | 16.67822 | 85° | 37km/h | 1900m | -1.3m/s | 7.2°C | 84.3% | 810.4hPa | 2.7V | 00:00:00 | 00:00:00 | 00:00:00 | |
| SP3BTT-10 | 2026-08-31 20:10:03 | 53.36582 | 16.67778 | 92° | 40km/h | 1903m | -1.0m/s | 7.2°C | 83.0% | 810.0hPa | 2.7V | 00:00:00 | 00:00:00 | 08:30:00 | |
| SP3WXH-11 | 2026-08-31 20:09:58 | 53.36587 | 16.67699 | 96° | 42km/h | 1909m | -1.3m/s | 7.2°C | 83.5% | 809.5hPa | 2.7V | 00:00:00 | 00:00:00 | 00:00:00 | |
| KRY50SP-1 | 2026-08-31 20:09:48 | 53.36584 | 16.67526 | 82° | 42km/h | 1920m | -0.9m/s | 7.1°C | 84.2% | 808.4hPa | 2.7V | 00:00:00 | 00:00:00 | 00:00:00 | |
| SP3BTT-10 | 2026-08-31 20:09:43 | 53.36578 | 16.67434 | 92° | 40km/h | 1927m | -0.9m/s | 7.0°C | 84.2% | 807.7hPa | 2.7V | 00:00:00 | 00:00:00 | 00:00:00 | |
| KRY50SP-1 | 2026-08-31 20:09:42 | 53.36578 | 16.67434 | 93° | 35km/h | 1927m | -1.0m/s | 7.0°C | 83.9% | 807.7hPa | 2.7V | 00:00:00 | 00:00:00 | 00:00:00 | |
| KRY50SP-1 | 2026-08-31 20:09:36 | 53.36585 | 16.67336 | 97° | 44km/h | 1934m | -1.3m/s | 6.9°C | 84.5% | 807.0hPa | 2.7V | 00:00:00 | 00:00:00 | 00:00:00 | |
| KRY50SP-1 | 2026-08-31 20:09:31 | 53.36585 | 16.67241 | 86° | 46km/h | 1941m | -1.3m/s | 6.9°C | 84.3% | 806.4hPa | 2.7V | 00:00:00 | 00:00:00 | 00:00:00 | |
| SP3WXH-11 | 2026-08-31 20:09:27 | 53.36578 | 16.67157 | 82° | 35km/h | 1947m | -1.3m/s | 6.8°C | 84.1% | 805.7hPa | 2.7V | 00:00:00 | 00:00:00 | 00:00:00 | |
| SP3BTT-10 | 2026-08-31 20:09:23 | 53.36577 | 16.67100 | 98° | 38km/h | 1951m | -1.0m/s | 6.8°C | 84.6% | 805.3hPa | 2.7V | 00:00:00 | 00:00:00 | 00:00:00 | |
| KRY50SP-1 | 2026-08-31 20:09:07 | 53.36580 | 16.66845 | 90° | 35km/h | 1969m | -1.0m/s | 6.6°C | 85.4% | 803.7hPa | 2.7V | 00:00:00 | 00:00:00 | 00:00:00 | |
| SP3BTT-10 | 2026-08-31 20:09:03 | 53.36583 | 16.66766 | 95° | 38km/h | 1974m | -1.1m/s | 6.5°C | 86.4% | 803.0hPa | 2.7V | 00:00:00 | 00:00:00 | 00:00:00 | |
| SP3WXH-11 | 2026-08-31 20:08:56 | 53.36589 | 16.66653 | 95° | 42km/h | 1983m | -1.4m/s | 6.5°C | 85.8% | 802.0hPa | 2.7V | 00:00:00 | 00:00:00 | 00:00:00 | |
| KRY50SP-1 | 2026-08-31 20:08:50 | 53.36588 | 16.66562 | 83° | 40km/h | 1991m | -1.4m/s | 6.4°C | 86.0% | 801.5hPa | 2.7V | 00:00:00 | 00:00:00 | 00:00:00 | |
| SP3BTT-10 | 2026-08-31 20:08:43 | 53.36588 | 16.66440 | 97° | 40km/h | 2001m | -1.5m/s | 6.4°C | 84.1% | 800.4hPa | 2.7V | 00:00:00 | 00:00:00 | 00:00:00 | |
| KRY50SP-1 | 2026-08-31 20:08:34 | 53.36589 | 16.66302 | 87° | 37km/h | 2011m | -1.2m/s | 6.3°C | 84.4% | 799.6hPa | 2.7V | 00:00:00 | 00:00:00 | 00:00:00 | |
| KRY50SP-1 | 2026-08-31 20:08:26 | 53.36596 | 16.66178 | 97° | 42km/h | 2020m | -1.1m/s | 6.3°C | 84.3% | 798.6hPa | 2.7V | 00:00:00 | 00:00:00 | 00:00:00 | |
| SP3WXH-11 | 2026-08-31 20:08:25 | 53.36597 | 16.66141 | 90° | 44km/h | 2022m | -1.0m/s | 6.2°C | 84.3% | 798.2hPa | 2.7V | 00:00:00 | 00:00:00 | 00:00:00 | |
| SP3BTT-10 | 2026-08-31 20:08:20 | 53.36592 | 16.66053 | 83° | 38km/h | 2028m | -0.9m/s | 6.2°C | 83.5% | 797.7hPa | 2.7V | 00:00:00 | 00:00:00 | 00:00:00 | |
| KRY50SP-1 | 2026-08-31 20:08:14 | 53.36590 | 16.65980 | 97° | 35km/h | 2033m | -1.0m/s | 6.2°C | 84.0% | 797.3hPa | 2.7V | 00:00:00 | 00:00:00 | 00:00:00 | |
| KRY50SP-1 | 2026-08-31 20:08:05 | 53.36593 | 16.65824 | 82° | 40km/h | 2044m | -1.5m/s | 6.0°C | 84.4% | 796.2hPa | 2.7V | 00:00:00 | 00:00:00 | 00:00:00 | |
| SP3WXH-11 | 2026-08-31 20:07:54 | 53.36594 | 16.65632 | 86° | 40km/h | 2057m | -0.9m/s | 6.0°C | 82.1% | 794.7hPa | 2.7V | 00:00:00 | 00:00:00 | 00:00:00 | |
| KRY50SP-1 | 2026-08-31 20:07:45 | 53.36584 | 16.65505 | 84° | 35km/h | 2068m | -1.3m/s | 5.8°C | 84.3% | 793.9hPa | 2.7V | 00:00:00 | 00:00:00 | 00:00:00 | |
| SP3BTT-10 | 2026-08-31 20:07:40 | 53.36578 | 16.65421 | 87° | 37km/h | 2076m | -1.0m/s | 5.7°C | 84.5% | 792.9hPa | 2.7V | 00:00:00 | 00:00:00 | 00:00:00 | |
| KRY50SP-1 | 2026-08-31 20:07:38 | 53.36577 | 16.65407 | 84° | 35km/h | 2077m | -1.2m/s | 5.8°C | 84.8% | 792.9hPa | 2.7V | 00:00:00 | 00:00:00 | 00:00:00 | |
| KRY50SP-1 | 2026-08-31 20:07:32 | 53.36569 | 16.65312 | 81° | 38km/h | 2084m | -1.2m/s | 5.7°C | 83.3% | 792.3hPa | 2.7V | 00:00:00 | 00:00:00 | 00:00:00 | |
| KRY50SP-1 | 2026-08-31 20:07:27 | 53.36560 | 16.65233 | 75° | 37km/h | 2090m | -1.5m/s | 5.7°C | 81.9% | 791.5hPa | 2.7V | 00:00:00 | 00:00:00 | 00:00:00 | |
| SP3WXH-11 | 2026-08-31 20:07:23 | 53.36548 | 16.65159 | 75° | 35km/h | 2097m | -1.3m/s | 5.6°C | 83.0% | 791.0hPa | 2.7V | 00:00:00 | 00:00:00 | 00:00:00 | |
| KRY50SP-1 | 2026-08-31 20:07:21 | 53.36545 | 16.65144 | 78° | 35km/h | 2098m | -1.2m/s | 5.6°C | 82.8% | 790.8hPa | 2.7V | 00:00:00 | 00:00:00 | 00:00:00 | |
| SP3BTT-10 | 2026-08-31 20:07:20 | 53.36542 | 16.65117 | 79° | 35km/h | 2101m | -0.9m/s | 5.6°C | 82.1% | 790.8hPa | 2.7V | 00:00:00 | 00:00:00 | 00:00:00 | |
| KRY50SP-1 | 2026-08-31 20:07:15 | 53.36538 | 16.65065 | 87° | 31km/h | 2105m | -1.0m/s | 5.6°C | 79.3% | 790.3hPa | 2.7V | 00:00:00 | 00:00:00 | 00:00:00 | |
| KRY50SP-1 | 2026-08-31 20:07:10 | 53.36532 | 16.64993 | 82° | 35km/h | 2110m | -1.0m/s | 5.6°C | 77.9% | 789.7hPa | 2.7V | 00:00:00 | 00:00:00 | 00:00:00 | |
| KRY50SP-1 | 2026-08-31 20:07:05 | 53.36526 | 16.64919 | 86° | 38km/h | 2116m | -0.9m/s | 5.7°C | 73.5% | 789.3hPa | 2.7V | 00:00:00 | 00:00:00 | 00:00:00 | |
| SP3WXH-11 | 2026-08-31 20:06:52 | 53.36505 | 16.64717 | 87° | 37km/h | 2133m | -1.4m/s | 5.8°C | 72.7% | 787.6hPa | 2.7V | 00:00:00 | 00:00:00 | 00:00:00 | |
| KRY50SP-1 | 2026-08-31 20:06:47 | 53.36500 | 16.64652 | 75° | 38km/h | 2138m | -1.4m/s | 5.8°C | 75.1% | 787.0hPa | 2.7V | 00:00:00 | 00:00:00 | 00:00:00 | |
| KRY50SP-1 | 2026-08-31 20:06:42 | 53.36485 | 16.64581 | 73° | 29km/h | 2146m | -1.2m/s | 5.7°C | 75.8% | 786.5hPa | 2.7V | 00:00:00 | 00:00:00 | 00:00:00 | |
| SP3BTT-10 | 2026-08-31 20:06:40 | 53.36480 | 16.64545 | 86° | 35km/h | 2149m | -1.3m/s | 5.7°C | 76.2% | 785.9hPa | 2.7V | 00:00:00 | 00:00:00 | 00:00:00 | |
| KRY50SP-1 | 2026-08-31 20:06:36 | 53.36479 | 16.64504 | 90° | 35km/h | 2153m | -1.3m/s | 5.8°C | 76.5% | 785.5hPa | 2.7V | 00:00:00 | 00:00:00 | 00:00:00 | |
| KRY50SP-1 | 2026-08-31 20:06:30 | 53.36470 | 16.64409 | 74° | 38km/h | 2162m | -1.4m/s | 5.8°C | 76.9% | 784.9hPa | 2.7V | 00:00:00 | 00:00:00 | 00:00:00 | |
| KRY50SP-1 | 2026-08-31 20:06:24 | 53.36452 | 16.64325 | 72° | 29km/h | 2170m | -1.3m/s | 5.7°C | 77.1% | 784.1hPa | 2.7V | 00:00:00 | 00:00:00 | 00:00:00 | |
| SP3WXH-11 | 2026-08-31 20:06:21 | 53.36446 | 16.64276 | 86° | 31km/h | 2175m | -1.1m/s | 5.6°C | 77.4% | 783.6hPa | 2.7V | 00:00:00 | 00:00:00 | 00:00:00 | |
| SP3BTT-10 | 2026-08-31 20:06:20 | 53.36445 | 16.64263 | 88° | 35km/h | 2177m | -1.1m/s | 5.6°C | 77.9% | 783.4hPa | 2.7V | 00:00:00 | 00:00:00 | 00:00:00 | |
| KRY50SP-1 | 2026-08-31 20:06:19 | 53.36445 | 16.64263 | 88° | 33km/h | 2177m | -1.1m/s | 5.6°C | 77.4% | 783.4hPa | 2.7V | 00:00:00 | 00:00:00 | 00:00:00 | |
| KRY50SP-1 | 2026-08-31 20:06:14 | 53.36438 | 16.64189 | 76° | 35km/h | 2183m | -1.2m/s | 5.6°C | 78.1% | 782.8hPa | 2.7V | 00:00:00 | 00:00:00 | 00:00:00 | |
| KRY50SP-1 | 2026-08-31 20:06:09 | 53.36427 | 16.64119 | 81° | 37km/h | 2189m | -1.2m/s | 5.5°C | 79.3% | 782.3hPa | 2.7V | 00:00:00 | 00:00:00 | 00:00:00 | |
| KRY50SP-1 | 2026-08-31 20:06:04 | 53.36415 | 16.64042 | 73° | 38km/h | 2197m | -1.6m/s | 5.5°C | 79.8% | 781.5hPa | 2.7V | 00:00:00 | 00:00:00 | 00:00:00 | |
| SP3WXH-11 | 2026-08-31 20:05:50 | 53.36387 | 16.63847 | 82° | 37km/h | 2217m | -1.6m/s | 5.3°C | 80.2% | 779.5hPa | 2.7V | 00:00:00 | 00:00:00 | 00:00:00 | |
| KRY50SP-1 | 2026-08-31 20:05:46 | 53.36381 | 16.63800 | 76° | 37km/h | 2222m | -1.3m/s | 5.2°C | 80.4% | 779.2hPa | 2.7V | 00:00:00 | 00:00:00 | 00:00:00 | |
| SP3BTT-10 | 2026-08-31 20:05:40 | 53.36362 | 16.63705 | 71° | 33km/h | 2231m | -1.2m/s | 5.1°C | 81.1% | 778.1hPa | 2.7V | 00:00:00 | 00:00:00 | 00:00:00 | |
| KRY50SP-1 | 2026-08-31 20:05:35 | 53.36353 | 16.63655 | 80° | 29km/h | 2237m | -1.7m/s | 5.1°C | 80.9% | 777.5hPa | 2.7V | 00:00:00 | 00:00:00 | 00:00:00 | |
| KRY50SP-1 | 2026-08-31 20:05:29 | 53.36346 | 16.63569 | 78° | 38km/h | 2247m | -1.6m/s | 5.1°C | 81.0% | 776.6hPa | 2.7V | 00:00:00 | 00:00:00 | 00:00:00 | |
| KRY50SP-1 | 2026-08-31 20:05:24 | 53.36331 | 16.63496 | 66° | 33km/h | 2254m | -1.7m/s | 5.0°C | 80.9% | 775.8hPa | 2.7V | 00:00:00 | 00:00:00 | 00:00:00 | |
| SP3WXH-11 | 2026-08-31 20:05:19 | 53.36321 | 16.63420 | 84° | 33km/h | 2263m | -1.7m/s | 5.0°C | 80.8% | 775.2hPa | 2.7V | 00:00:00 | 00:00:00 | 00:00:00 | |
| KRY50SP-1 | 2026-08-31 20:05:13 | 53.36316 | 16.63342 | 80° | 38km/h | 2270m | -1.3m/s | 4.9°C | 80.4% | 774.4hPa | 2.7V | 00:00:00 | 00:00:00 | 00:00:00 | |
| KRY50SP-1 | 2026-08-31 20:05:07 | 53.36300 | 16.63244 | 73° | 38km/h | 2280m | -1.5m/s | 4.9°C | 79.9% | 773.6hPa | 2.7V | 00:00:00 | 00:00:00 | 00:00:00 | |
| KRY50SP-1 | 2026-08-31 20:05:02 | 53.36290 | 16.63166 | 81° | 38km/h | 2288m | -2.1m/s | 4.9°C | 79.5% | 772.9hPa | 2.7V | 00:00:00 | 00:00:00 | 00:00:00 | |
| SP3WXH-11 | 2026-08-31 20:04:48 | 53.36257 | 16.62916 | 74° | 35km/h | 2311m | -1.2m/s | 4.7°C | 79.4% | 770.7hPa | 2.7V | 00:00:00 | 00:00:00 | 00:00:00 | |
| KRY50SP-1 | 2026-08-31 20:04:46 | 53.36255 | 16.62901 | 81° | 37km/h | 2312m | -1.2m/s | 4.7°C | 79.4% | 770.6hPa | 2.7V | 00:00:00 | 00:00:00 | 00:00:00 | |
| KRY50SP-1 | 2026-08-31 20:04:41 | 53.36249 | 16.62819 | 81° | 42km/h | 2319m | -1.4m/s | 4.7°C | 78.9% | 769.9hPa | 2.7V | 00:00:00 | 00:00:00 | 00:00:00 | |
| SP3BTT-10 | 2026-08-31 20:04:40 | 53.36245 | 16.62783 | 78° | 40km/h | 2322m | -1.2m/s | 4.7°C | 78.1% | 769.5hPa | 2.7V | 00:00:00 | 00:00:00 | 00:00:00 | |
| KRY50SP-1 | 2026-08-31 20:04:36 | 53.36235 | 16.62730 | 70° | 42km/h | 2326m | -1.6m/s | 4.6°C | 78.4% | 769.1hPa | 2.7V | 00:00:00 | 00:00:00 | 00:00:00 | |
| KRY50SP-1 | 2026-08-31 20:04:30 | 53.36216 | 16.62642 | 80° | 35km/h | 2335m | -1.4m/s | 4.6°C | 78.4% | 768.4hPa | 2.7V | 00:00:00 | 00:00:00 | 00:00:00 | |
| KRY50SP-1 | 2026-08-31 20:04:25 | 53.36209 | 16.62559 | 84° | 44km/h | 2343m | -1.4m/s | 4.7°C | 74.1% | 767.5hPa | 2.7V | 00:00:00 | 00:00:00 | 00:00:00 | |
| SP3BTT-10 | 2026-08-31 20:04:20 | 53.36190 | 16.62449 | 68° | 40km/h | 2353m | -1.5m/s | 4.6°C | 74.6% | 766.7hPa | 2.7V | 00:00:00 | 00:00:00 | 00:00:00 | |
| KRY50SP-1 | 2026-08-31 20:04:19 | 53.36190 | 16.62449 | 68° | 44km/h | 2353m | -1.6m/s | 4.6°C | 74.1% | 766.7hPa | 2.7V | 00:00:00 | 00:00:00 | 00:00:00 | |
| SP3WXH-11 | 2026-08-31 20:04:17 | 53.36178 | 16.62400 | 65° | 38km/h | 2357m | -1.5m/s | 4.5°C | 74.2% | 766.3hPa | 2.7V | 00:00:00 | 00:00:00 | 00:00:00 | |
| KRY50SP-1 | 2026-08-31 20:04:13 | 53.36167 | 16.62358 | 70° | 35km/h | 2362m | -1.6m/s | 4.5°C | 74.4% | 766.0hPa | 2.7V | 00:00:00 | 00:00:00 | 00:00:00 | |
| KRY50SP-1 | 2026-08-31 20:04:08 | 53.36159 | 16.62282 | 83° | 42km/h | 2369m | -1.2m/s | 4.4°C | 74.8% | 765.2hPa | 2.7V | 00:00:00 | 00:00:00 | 00:00:00 | |
| KRY50SP-1 | 2026-08-31 20:04:03 | 53.36145 | 16.62191 | 72° | 44km/h | 2377m | -1.5m/s | 4.4°C | 74.7% | 764.5hPa | 2.7V | 00:00:00 | 00:00:00 | 00:00:00 | |
| SP3WXH-11 | 2026-08-31 20:03:46 | 53.36090 | 16.61909 | 68° | 42km/h | 2404m | -1.4m/s | 4.1°C | 74.9% | 762.0hPa | 2.7V | 00:00:00 | 00:00:00 | 00:00:00 | |
| SP3BTT-10 | 2026-08-31 20:03:40 | 53.36069 | 16.61819 | 73° | 38km/h | 2413m | -1.5m/s | 4.0°C | 75.7% | 761.1hPa | 2.7V | 00:00:00 | 00:00:00 | 00:00:00 | |
| KRY50SP-1 | 2026-08-31 20:03:34 | 53.36055 | 16.61739 | 73° | 42km/h | 2420m | -1.5m/s | 4.0°C | 75.6% | 760.4hPa | 2.7V | 00:00:00 | 00:00:00 | 00:00:00 | |
| KRY50SP-1 | 2026-08-31 20:03:29 | 53.36035 | 16.61662 | 65° | 37km/h | 2429m | -1.8m/s | 3.9°C | 75.9% | 759.6hPa | 2.7V | 00:00:00 | 00:00:00 | 00:00:00 | |
| KRY50SP-1 | 2026-08-31 20:03:24 | 53.36022 | 16.61592 | 80° | 38km/h | 2437m | -1.4m/s | 3.9°C | 76.2% | 758.8hPa | 2.7V | 00:00:00 | 00:00:00 | 00:00:00 | |
| SP3BTT-10 | 2026-08-31 20:03:20 | 53.36007 | 16.61508 | 67° | 38km/h | 2445m | -1.7m/s | 3.8°C | 77.3% | 758.2hPa | 2.7V | 00:00:00 | 00:00:00 | 00:00:00 | |
| KRY50SP-1 | 2026-08-31 20:03:19 | 53.36007 | 16.61508 | 68° | 42km/h | 2445m | -1.8m/s | 3.9°C | 76.7% | 758.2hPa | 2.7V | 00:00:00 | 00:00:00 | 00:00:00 | |
| SP3WXH-11 | 2026-08-31 20:03:15 | 53.35988 | 16.61436 | 71° | 33km/h | 2454m | -1.7m/s | 3.8°C | 76.9% | 757.5hPa | 2.7V | 00:00:00 | 00:00:00 | 00:00:00 | |
| KRY50SP-1 | 2026-08-31 20:03:13 | 53.35986 | 16.61423 | 77° | 33km/h | 2455m | -1.5m/s | 3.8°C | 77.1% | 757.3hPa | 2.7V | 00:00:00 | 00:00:00 | 00:00:00 | |
| KRY50SP-1 | 2026-08-31 20:03:08 | 53.35975 | 16.61344 | 76° | 42km/h | 2463m | -1.7m/s | 3.8°C | 76.6% | 756.4hPa | 2.7V | 00:00:00 | 00:00:00 | 00:00:00 | |
| KRY50SP-1 | 2026-08-31 20:03:02 | 53.35952 | 16.61248 | 65° | 37km/h | 2472m | -1.5m/s | 3.7°C | 76.5% | 755.6hPa | 2.7V | 00:00:00 | 00:00:00 | 00:00:00 | |
| SP3BTT-10 | 2026-08-31 20:03:00 | 53.35942 | 16.61207 | 74° | 38km/h | 2477m | -1.4m/s | 3.6°C | 77.3% | 755.1hPa | 2.7V | 00:00:00 | 00:00:00 | 00:00:00 | |
| KRY50SP-1 | 2026-08-31 20:02:57 | 53.35938 | 16.61178 | 78° | 38km/h | 2480m | -1.5m/s | 3.7°C | 76.9% | 754.8hPa | 2.7V | 00:00:00 | 00:00:00 | 00:00:00 | |
| KRY50SP-1 | 2026-08-31 20:02:51 | 53.35923 | 16.61079 | 74° | 40km/h | 2489m | -1.4m/s | 3.6°C | 77.3% | 754.2hPa | 2.7V | 00:00:00 | 00:00:00 | 00:00:00 | |
| KRY50SP-1 | 2026-08-31 20:02:46 | 53.35906 | 16.61000 | 69° | 38km/h | 2497m | -1.5m/s | 3.5°C | 77.4% | 753.4hPa | 2.7V | 00:00:00 | 00:00:00 | 00:00:00 | |
| SP3WXH-11 | 2026-08-31 20:02:44 | 53.35896 | 16.60958 | 70° | 33km/h | 2502m | -1.5m/s | 3.5°C | 77.4% | 752.8hPa | 2.7V | 00:00:00 | 00:00:00 | 00:00:00 | |
| KRY50SP-1 | 2026-08-31 20:02:41 | 53.35891 | 16.60930 | 80° | 35km/h | 2505m | -1.4m/s | 3.4°C | 77.5% | 752.6hPa | 2.7V | 00:00:00 | 00:00:00 | 00:00:00 | |
| SP3BTT-10 | 2026-08-31 20:02:40 | 53.35888 | 16.60900 | 79° | 38km/h | 2508m | -1.6m/s | 3.4°C | 78.3% | 752.3hPa | 2.7V | 00:00:00 | 00:00:00 | 00:00:00 | |
| KRY50SP-1 | 2026-08-31 20:02:36 | 53.35880 | 16.60849 | 73° | 42km/h | 2513m | -1.5m/s | 3.4°C | 77.8% | 751.9hPa | 2.7V | 00:00:00 | 00:00:00 | 00:00:00 | |
| KRY50SP-1 | 2026-08-31 20:02:30 | 53.35857 | 16.60760 | 73° | 33km/h | 2522m | -1.3m/s | 3.3°C | 78.2% | 751.0hPa | 2.7V | 00:00:00 | 00:00:00 | 00:00:00 | |
| KRY50SP-1 | 2026-08-31 20:02:25 | 53.35846 | 16.60686 | 76° | 42km/h | 2529m | -1.7m/s | 3.2°C | 78.5% | 750.3hPa | 2.7V | 00:00:00 | 00:00:00 | 00:00:00 | |
| KRY50SP-1 | 2026-08-31 20:02:14 | 53.35808 | 16.60520 | 79° | 37km/h | 2547m | -1.6m/s | 3.1°C | 78.9% | 748.7hPa | 2.7V | 00:00:00 | 00:00:00 | 00:00:00 | |
| SP3WXH-11 | 2026-08-31 20:02:13 | 53.35804 | 16.60489 | 79° | 38km/h | 2550m | -1.4m/s | 3.0°C | 78.9% | 748.3hPa | 2.7V | 00:00:00 | 00:00:00 | 00:00:00 | |
| KRY50SP-1 | 2026-08-31 20:02:09 | 53.35796 | 16.60437 | 73° | 44km/h | 2555m | -1.4m/s | 3.0°C | 78.9% | 748.1hPa | 2.7V | 00:00:00 | 00:00:00 | 00:00:00 | |
| KRY50SP-1 | 2026-08-31 20:02:04 | 53.35775 | 16.60360 | 65° | 37km/h | 2563m | -1.6m/s | 3.0°C | 79.0% | 747.3hPa | 2.7V | 00:00:00 | 00:00:00 | 00:00:00 | |
| SP3BTT-10 | 2026-08-31 20:02:00 | 53.35762 | 16.60288 | 78° | 40km/h | 2571m | -1.3m/s | 2.9°C | 79.3% | 746.5hPa | 2.7V | 00:00:00 | 00:00:00 | 00:00:00 | |
| KRY50SP-1 | 2026-08-31 20:01:59 | 53.35762 | 16.60288 | 79° | 40km/h | 2571m | -1.3m/s | 2.9°C | 78.7% | 746.6hPa | 2.7V | 00:00:00 | 00:00:00 | 00:00:00 | |
| KRY50SP-1 | 2026-08-31 20:01:54 | 53.35745 | 16.60203 | 68° | 42km/h | 2578m | -1.4m/s | 2.9°C | 78.6% | 745.8hPa | 2.7V | 00:00:00 | 00:00:00 | 00:00:00 | |
| KRY50SP-1 | 2026-08-31 20:01:48 | 53.35723 | 16.60117 | 76° | 35km/h | 2587m | -1.6m/s | 2.8°C | 78.1% | 745.0hPa | 2.7V | 00:00:00 | 00:00:00 | 00:00:00 | |
| SP3WXH-11 | 2026-08-31 20:01:42 | 53.35706 | 16.60001 | 68° | 42km/h | 2598m | -1.4m/s | 2.8°C | 76.6% | 744.0hPa | 2.7V | 00:00:00 | 00:00:00 | 00:00:00 | |
| SP3BTT-10 | 2026-08-31 20:01:40 | 53.35697 | 16.59969 | 63° | 37km/h | 2601m | -1.6m/s | 2.8°C | 76.6% | 743.8hPa | 2.7V | 00:00:00 | 00:00:00 | 00:00:00 | |
| KRY50SP-1 | 2026-08-31 20:01:37 | 53.35689 | 16.59941 | 66° | 35km/h | 2604m | -1.5m/s | 2.8°C | 76.5% | 743.4hPa | 2.7V | 00:00:00 | 00:00:00 | 00:00:00 | |
| KRY50SP-1 | 2026-08-31 20:01:31 | 53.35675 | 16.59858 | 81° | 38km/h | 2613m | -1.6m/s | 2.7°C | 75.9% | 742.8hPa | 2.7V | 00:00:00 | 00:00:00 | 00:00:00 | |
| KRY50SP-1 | 2026-08-31 20:01:25 | 53.35655 | 16.59757 | 65° | 38km/h | 2621m | -1.3m/s | 2.6°C | 76.7% | 741.9hPa | 2.7V | 00:00:00 | 00:00:00 | 00:00:00 | |
| SP3BTT-10 | 2026-08-31 20:01:20 | 53.35636 | 16.59675 | 79° | 38km/h | 2630m | -1.4m/s | 2.5°C | 77.4% | 741.1hPa | 2.7V | 00:00:00 | 00:00:00 | 00:00:00 | |
| KRY50SP-1 | 2026-08-31 20:01:14 | 53.35625 | 16.59594 | 73° | 42km/h | 2637m | -1.5m/s | 2.5°C | 76.9% | 740.6hPa | 2.7V | 00:00:00 | 00:00:00 | 00:00:00 | |
| SP3WXH-11 | 2026-08-31 20:01:11 | 53.35608 | 16.59531 | 63° | 37km/h | 2643m | -1.3m/s | 2.4°C | 77.1% | 739.8hPa | 2.7V | 00:00:00 | 00:00:00 | 00:00:00 | |
| KRY50SP-1 | 2026-08-31 20:01:08 | 53.35599 | 16.59504 | 66° | 35km/h | 2646m | -1.6m/s | 2.4°C | 77.1% | 739.7hPa | 2.7V | 00:00:00 | 00:00:00 | 00:00:00 | |
| SP3BTT-10 | 2026-08-31 20:01:00 | 53.35574 | 16.59368 | 68° | 38km/h | 2659m | -1.3m/s | 2.2°C | 77.6% | 738.4hPa | 2.7V | 00:00:00 | 00:00:00 | 08:30:00 | |
| KRY50SP-1 | 2026-08-31 20:00:57 | 53.35566 | 16.59336 | 63° | 38km/h | 2662m | -1.4m/s | 2.3°C | 77.3% | 738.1hPa | 2.7V | 00:00:00 | 00:00:00 | 00:00:00 | |
| KRY50SP-1 | 2026-08-31 20:00:52 | 53.35545 | 16.59271 | 70° | 33km/h | 2669m | -1.5m/s | 2.2°C | 76.6% | 737.5hPa | 2.7V | 00:00:00 | 00:00:00 | 00:00:00 | |
| KRY50SP-1 | 2026-08-31 20:00:46 | 53.35530 | 16.59177 | 71° | 44km/h | 2677m | -1.6m/s | 2.1°C | 76.6% | 736.8hPa | 2.7V | 00:00:00 | 00:00:00 | 00:00:00 | |
| SP3BTT-10 | 2026-08-31 20:00:40 | 53.35501 | 16.59073 | 69° | 38km/h | 2686m | -1.2m/s | 2.0°C | 77.1% | 735.8hPa | 2.7V | 00:00:00 | 00:00:00 | 00:00:00 | |
| KRY50SP-1 | 2026-08-31 20:00:34 | 53.35486 | 16.58998 | 70° | 42km/h | 2692m | -1.5m/s | 2.0°C | 77.1% | 735.3hPa | 2.7V | 00:00:00 | 00:00:00 | 00:00:00 | |
| KRY50SP-1 | 2026-08-31 20:00:29 | 53.35464 | 16.58919 | 60° | 38km/h | 2700m | -1.4m/s | 2.0°C | 76.9% | 734.8hPa | 2.7V | 00:00:00 | 00:00:00 | 00:00:00 | |
| KRY50SP-1 | 2026-08-31 20:00:23 | 53.35441 | 16.58840 | 74° | 37km/h | 2708m | -1.2m/s | 1.9°C | 77.0% | 734.0hPa | 2.7V | 00:00:00 | 00:00:00 | 00:00:00 | |
| SP3BTT-10 | 2026-08-31 20:00:20 | 53.35428 | 16.58775 | 68° | 38km/h | 2713m | -1.3m/s | 1.8°C | 77.9% | 733.3hPa | 2.7V | 00:00:00 | 00:00:00 | 00:00:00 | |
| KRY50SP-1 | 2026-08-31 20:00:17 | 53.35419 | 16.58743 | 64° | 44km/h | 2716m | -1.4m/s | 1.8°C | 77.0% | 733.3hPa | 2.7V | 00:00:00 | 00:00:00 | 00:00:00 | |
| KRY50SP-1 | 2026-08-31 20:00:12 | 53.35393 | 16.58667 | 58° | 38km/h | 2722m | -1.2m/s | 1.8°C | 76.7% | 732.8hPa | 2.7V | 00:00:00 | 00:00:00 | 00:00:00 | |
| SP3WXH-11 | 2026-08-31 20:00:09 | 53.35373 | 16.58605 | 72° | 33km/h | 2728m | -1.1m/s | 1.7°C | 76.6% | 732.2hPa | 2.7V | 00:00:00 | 00:00:00 | 00:00:00 | |
| KRY50SP-1 | 2026-08-31 20:00:06 | 53.35371 | 16.58591 | 74° | 35km/h | 2729m | -1.4m/s | 1.7°C | 76.4% | 732.0hPa | 2.7V | 00:00:00 | 00:00:00 | 00:00:00 | |
| KRY50SP-1 | 2026-08-31 20:00:01 | 53.35354 | 16.58511 | 66° | 42km/h | 2735m | -1.2m/s | 1.7°C | 76.4% | 731.3hPa | 2.7V | 00:00:00 | 00:00:00 | 00:00:00 | |
| SP3BTT-10 | 2026-08-31 20:00:00 | 53.35345 | 16.58480 | 63° | 38km/h | 2737m | -0.8m/s | 1.6°C | 76.9% | 731.3hPa | 2.7V | 00:00:00 | 00:00:00 | 00:00:00 | |
| KRY50SP-1 | 2026-08-31 19:59:55 | 53.35326 | 16.58423 | 65° | 37km/h | 2742m | -1.2m/s | 1.7°C | 75.3% | 731.0hPa | 2.7V | 00:00:00 | 00:00:00 | 00:00:00 | |
| KRY50SP-1 | 2026-08-31 19:59:50 | 53.35305 | 16.58355 | 61° | 37km/h | 2747m | -1.3m/s | 1.7°C | 74.4% | 730.3hPa | 2.7V | 00:00:00 | 00:00:00 | 00:00:00 | |
| KRY50SP-1 | 2026-08-31 19:59:45 | 53.35286 | 16.58288 | 69° | 38km/h | 2754m | -1.4m/s | 1.6°C | 74.5% | 729.7hPa | 2.7V | 00:00:00 | 00:00:00 | 00:00:00 | |
| SP3BTT-10 | 2026-08-31 19:59:40 | 53.35258 | 16.58196 | 58° | 38km/h | 2762m | -1.2m/s | 1.5°C | 75.2% | 729.0hPa | 2.7V | 00:00:00 | 00:00:00 | 00:00:00 | |
| SP3WXH-11 | 2026-08-31 19:59:38 | 53.35248 | 16.58170 | 57° | 35km/h | 2764m | -1.1m/s | 1.6°C | -1.0% | 728.9hPa | 2.7V | 00:00:00 | 00:00:00 | 00:00:00 | |
| KRY50SP-1 | 2026-08-31 19:59:35 | 53.35238 | 16.58144 | 60° | 37km/h | 2766m | -1.2m/s | 1.5°C | 74.6% | 728.7hPa | 2.7V | 00:00:00 | 00:00:00 | 00:00:00 | |
| KRY50SP-1 | 2026-08-31 19:59:29 | 53.35210 | 16.58067 | 63° | 35km/h | 2774m | -1.5m/s | 1.5°C | 74.8% | 727.9hPa | 2.7V | 00:00:00 | 00:00:00 | 00:00:00 | |
| KRY50SP-1 | 2026-08-31 19:59:24 | 53.35190 | 16.57995 | 65° | 42km/h | 2781m | -1.4m/s | 1.4°C | 74.9% | 727.4hPa | 2.7V | 00:00:00 | 00:00:00 | 00:00:00 | |
| SP3BTT-10 | 2026-08-31 19:59:20 | 53.35164 | 16.57923 | 53° | 37km/h | 2787m | -1.4m/s | 1.3°C | 76.5% | 726.6hPa | 2.7V | 00:00:00 | 00:00:00 | 00:00:00 | |
| KRY50SP-1 | 2026-08-31 19:59:18 | 53.35158 | 16.57911 | 55° | 35km/h | 2789m | -1.2m/s | 1.4°C | 76.1% | 726.6hPa | 2.7V | 00:00:00 | 00:00:00 | 00:00:00 | |
| KRY50SP-1 | 2026-08-31 19:59:13 | 53.35139 | 16.57847 | 70° | 38km/h | 2794m | -1.2m/s | 1.3°C | 77.0% | 726.2hPa | 2.7V | 00:00:00 | 00:00:00 | 00:00:00 | |
| SP3WXH-11 | 2026-08-31 19:59:07 | 53.35105 | 16.57740 | 52° | 37km/h | 2803m | -1.4m/s | 0°C | -1.0% | -1.0hPa | 2.7V | 00:00:00 | 00:00:00 | 00:00:00 | |
| KRY50SP-1 | 2026-08-31 19:59:01 | 53.35081 | 16.57679 | 67° | 33km/h | 2810m | -1.2m/s | 1.2°C | 79.3% | 724.8hPa | 2.7V | 00:00:00 | 00:00:00 | 00:00:00 | |
| SP3BTT-10 | 2026-08-31 19:59:00 | 53.35074 | 16.57651 | 68° | 38km/h | 2813m | -1.2m/s | 1.1°C | 80.4% | 724.5hPa | 2.7V | 00:00:00 | 00:00:00 | 00:00:00 | |
| KRY50SP-1 | 2026-08-31 19:58:55 | 53.35056 | 16.57588 | 60° | 42km/h | 2818m | -1.3m/s | 1.1°C | 79.7% | 724.0hPa | 2.6V | 00:00:00 | 00:00:00 | 00:00:00 | |
| KRY50SP-1 | 2026-08-31 19:58:49 | 53.35024 | 16.57512 | 58° | 31km/h | 2825m | -1.5m/s | 1.1°C | 79.2% | 723.5hPa | 2.6V | 00:00:00 | 00:00:00 | 00:00:00 | |
| KRY50SP-1 | 2026-08-31 19:58:44 | 53.35005 | 16.57445 | 65° | 40km/h | 2831m | -1.2m/s | 1.1°C | 78.2% | 723.0hPa | 2.6V | 00:00:00 | 00:00:00 | 00:00:00 | |
| SP3BTT-10 | 2026-08-31 19:58:40 | 53.34978 | 16.57373 | 54° | 35km/h | 2837m | -1.2m/s | 1.0°C | 78.8% | 722.3hPa | 2.6V | 00:00:00 | 00:00:00 | 00:00:00 | |
| KRY50SP-1 | 2026-08-31 19:58:38 | 53.34973 | 16.57361 | 54° | 35km/h | 2838m | -1.3m/s | 1.0°C | 78.2% | 722.3hPa | 2.6V | 00:00:00 | 00:00:00 | 00:00:00 | |
| KRY50SP-1 | 2026-08-31 19:58:33 | 53.34952 | 16.57302 | 69° | 35km/h | 2844m | -1.1m/s | 1.0°C | 77.9% | 721.6hPa | 2.6V | 00:00:00 | 00:00:00 | 00:00:00 | |
| KRY50SP-1 | 2026-08-31 19:58:28 | 53.34929 | 16.57227 | 56° | 40km/h | 2850m | -1.3m/s | 1.0°C | 77.6% | 721.1hPa | 2.6V | 00:00:00 | 00:00:00 | 00:00:00 | |
| SP3WXH-11 | 2026-08-31 19:58:26 | 53.34906 | 16.57178 | 52° | 31km/h | 2855m | -1.2m/s | 0.9°C | 77.6% | 720.8hPa | 2.6V | 00:00:00 | 00:00:00 | 00:00:00 | |
| KRY50SP-1 | 2026-08-31 19:58:22 | 53.34897 | 16.57155 | 62° | 31km/h | 2858m | -1.4m/s | 0.9°C | 77.5% | 720.4hPa | 2.6V | 00:00:00 | 00:00:00 | 00:00:00 | |
| SP3BTT-10 | 2026-08-31 19:58:20 | 53.34886 | 16.57116 | 67° | 38km/h | 2862m | -1.4m/s | 0.8°C | 77.9% | 720.0hPa | 2.6V | 00:00:00 | 00:00:00 | 00:00:00 | |
| KRY50SP-1 | 2026-08-31 19:58:16 | 53.34874 | 16.57071 | 63° | 42km/h | 2866m | -1.2m/s | 0.9°C | 77.2% | 719.9hPa | 2.6V | 00:00:00 | 00:00:00 | 00:00:00 | |
| KRY50SP-1 | 2026-08-31 19:58:11 | 53.34842 | 16.56992 | 56° | 31km/h | 2872m | -1.4m/s | 0.8°C | 77.0% | 719.2hPa | 2.6V | 00:00:00 | 00:00:00 | 00:00:00 | |
| KRY50SP-1 | 2026-08-31 19:58:05 | 53.34822 | 16.56925 | 63° | 40km/h | 2879m | -1.1m/s | 0.8°C | 77.3% | 718.7hPa | 2.6V | 00:00:00 | 00:00:00 | 00:00:00 | |
| SP3WXH-11 | 2026-08-31 19:57:55 | 53.34757 | 16.56775 | 56° | 31km/h | 2892m | -1.0m/s | 0.6°C | 78.1% | 717.4hPa | 2.6V | 00:00:00 | 00:00:00 | 00:00:00 | |
| KRY50SP-1 | 2026-08-31 19:57:53 | 53.34757 | 16.56775 | 58° | 31km/h | 2892m | -1.0m/s | 0.7°C | 78.1% | 717.4hPa | 2.6V | 00:00:00 | 00:00:00 | 00:00:00 | |
| KRY50SP-1 | 2026-08-31 19:57:47 | 53.34725 | 16.56699 | 52° | 38km/h | 2899m | -1.6m/s | 0.6°C | 78.3% | 716.7hPa | 2.6V | 00:00:00 | 00:00:00 | 00:00:00 | |
| KRY50SP-1 | 2026-08-31 19:57:41 | 53.34689 | 16.56626 | 55° | 37km/h | 2907m | -1.0m/s | 0.5°C | 78.9% | 716.2hPa | 2.6V | 00:00:00 | 00:00:00 | 00:00:00 | |
| SP3BTT-10 | 2026-08-31 19:57:40 | 53.34678 | 16.56601 | 57° | 37km/h | 2909m | -0.9m/s | 0.4°C | 80.3% | 715.8hPa | 2.6V | 00:00:00 | 00:00:00 | 00:00:00 | |
| KRY50SP-1 | 2026-08-31 19:57:35 | 53.34655 | 16.56547 | 51° | 37km/h | 2914m | -1.4m/s | 0.4°C | 79.6% | 715.4hPa | 2.6V | 00:00:00 | 00:00:00 | 00:00:00 | |
| KRY50SP-1 | 2026-08-31 19:57:30 | 53.34626 | 16.56493 | 56° | 31km/h | 2922m | -1.3m/s | 0.4°C | 79.3% | 714.7hPa | 2.6V | 00:00:00 | 00:00:00 | 00:00:00 | |
| SP3WXH-11 | 2026-08-31 19:57:24 | 53.34585 | 16.56387 | 51° | 42km/h | 2930m | -1.0m/s | 0.4°C | 79.4% | 714.0hPa | 2.6V | 00:00:00 | 00:00:00 | 00:00:00 | |
| SP3BTT-10 | 2026-08-31 19:57:20 | 53.34565 | 16.56350 | 44° | 37km/h | 2934m | -1.0m/s | 0.3°C | 80.1% | 713.7hPa | 2.6V | 00:00:00 | 00:00:00 | 00:00:00 | |
| KRY50SP-1 | 2026-08-31 19:57:18 | 53.34559 | 16.56340 | 47° | 35km/h | 2935m | -0.8m/s | 0.4°C | 79.4% | 713.6hPa | 2.6V | 00:00:00 | 00:00:00 | 00:00:00 | |
| KRY50SP-1 | 2026-08-31 19:57:12 | 53.34528 | 16.56273 | 58° | 38km/h | 2941m | -1.2m/s | 0.3°C | 79.6% | 713.0hPa | 2.6V | 00:00:00 | 00:00:00 | 00:00:00 | |
| KRY50SP-1 | 2026-08-31 19:57:07 | 53.34496 | 16.56208 | 48° | 38km/h | 2947m | -1.0m/s | 0.3°C | 79.9% | 712.5hPa | 2.6V | 00:00:00 | 00:00:00 | 00:00:00 | |
| SP3WXH-11 | 2026-08-31 19:56:53 | 53.34395 | 16.56022 | 47° | 40km/h | 2965m | -1.1m/s | 0.1°C | 80.9% | 710.8hPa | 2.6V | 00:00:00 | 00:00:00 | 00:00:00 | |
| KRY50SP-1 | 2026-08-31 19:56:50 | 53.34388 | 16.56009 | 47° | 40km/h | 2967m | -1.2m/s | 0.1°C | 80.7% | 710.8hPa | 2.6V | 00:00:00 | 00:00:00 | 00:00:00 | |
| KRY50SP-1 | 2026-08-31 19:56:45 | 53.34357 | 16.55960 | 51° | 31km/h | 2972m | -1.1m/s | -0.0°C | 81.4% | 710.2hPa | 2.6V | 00:00:00 | 00:00:00 | 00:00:00 | |
| SP3BTT-10 | 2026-08-31 19:56:40 | 53.34326 | 16.55885 | 53° | 37km/h | 2978m | -1.1m/s | -0.0°C | 82.6% | 709.5hPa | 2.6V | 00:00:00 | 00:00:00 | 00:00:00 | |
| KRY50SP-1 | 2026-08-31 19:56:34 | 53.34292 | 16.55826 | 42° | 33km/h | 2984m | -1.0m/s | -0.1°C | 81.5% | 709.2hPa | 2.6V | 00:00:00 | 00:00:00 | 00:00:00 | |
| KRY50SP-1 | 2026-08-31 19:56:29 | 53.34265 | 16.55778 | 55° | 31km/h | 2989m | -1.2m/s | -0.1°C | 81.6% | 708.6hPa | 2.6V | 00:00:00 | 00:00:00 | 00:00:00 | |
| KRY50SP-1 | 2026-08-31 19:56:24 | 53.34241 | 16.55715 | 51° | 38km/h | 2995m | -0.8m/s | -0.2°C | 82.3% | 708.1hPa | 2.6V | 00:00:00 | 00:00:00 | 00:00:00 | |
| SP3WXH-11 | 2026-08-31 19:56:22 | 53.34214 | 16.55670 | 39° | 33km/h | 2998m | -1.0m/s | -0.2°C | 82.4% | 707.9hPa | 2.6V | 00:00:00 | 00:00:00 | 00:00:00 | |
| SP3BTT-10 | 2026-08-31 19:56:20 | 53.34208 | 16.55661 | 38° | 33km/h | 3000m | -1.1m/s | -0.1°C | 83.3% | 707.6hPa | 2.6V | 00:00:00 | 00:00:00 | 00:00:00 | |
| KRY50SP-1 | 2026-08-31 19:56:19 | 53.34208 | 16.55661 | 38° | 33km/h | 3000m | -1.1m/s | -0.2°C | 82.4% | 707.7hPa | 2.6V | 00:00:00 | 00:00:00 | 00:00:00 | |
| KRY50SP-1 | 2026-08-31 19:56:13 | 53.34177 | 16.55609 | 55° | 29km/h | 3006m | -1.3m/s | -0.2°C | 82.5% | 707.1hPa | 2.6V | 00:00:00 | 00:00:00 | 00:00:00 | |
| KRY50SP-1 | 2026-08-31 19:56:07 | 53.34148 | 16.55532 | 52° | 40km/h | 3011m | -0.8m/s | -0.3°C | 82.6% | 706.6hPa | 2.6V | 00:00:00 | 00:00:00 | 00:00:00 | |
| KRY50SP-1 | 2026-08-31 19:56:02 | 53.34114 | 16.55478 | 41° | 33km/h | 3016m | -1.2m/s | -0.3°C | 82.5% | 706.1hPa | 2.6V | 00:00:00 | 00:00:00 | 00:00:00 | |
| SP3WXH-11 | 2026-08-31 19:55:50 | 53.34050 | 16.55341 | 53° | 35km/h | 3030m | -1.3m/s | -0.5°C | 83.1% | 705.1hPa | 2.6V | 00:00:00 | 00:00:00 | 00:00:00 | |
| KRY50SP-1 | 2026-08-31 19:55:46 | 53.34033 | 16.55305 | 48° | 35km/h | 3033m | -1.1m/s | -0.5°C | 83.1% | 704.7hPa | 2.6V | 00:00:00 | 00:00:00 | 00:00:00 | |
| SP3BTT-10 | 2026-08-31 19:55:40 | 53.33997 | 16.55238 | 56° | 33km/h | 3042m | -1.2m/s | -0.5°C | 83.9% | 704.0hPa | 2.6V | 00:00:00 | 00:00:00 | 00:00:00 | |
| KRY50SP-1 | 2026-08-31 19:55:34 | 53.33970 | 16.55179 | 45° | 37km/h | 3048m | -1.2m/s | -0.6°C | 82.7% | 703.5hPa | 2.6V | 00:00:00 | 00:00:00 | 00:00:00 | |
| KRY50SP-1 | 2026-08-31 19:55:28 | 53.33934 | 16.55125 | 46° | 27km/h | 3055m | -1.3m/s | -0.6°C | 82.5% | 702.9hPa | 2.6V | 00:00:00 | 00:00:00 | 00:00:00 | |
| KRY50SP-1 | 2026-08-31 19:55:23 | 53.33913 | 16.55077 | 62° | 33km/h | 3061m | -1.2m/s | -0.7°C | 82.7% | 702.4hPa | 2.6V | 00:00:00 | 00:00:00 | 00:00:00 | |
| SP3BTT-10 | 2026-08-31 19:55:20 | 53.33894 | 16.55026 | 53° | 33km/h | 3066m | -1.0m/s | -0.7°C | 83.8% | 702.1hPa | 2.6V | 00:00:00 | 00:00:00 | 00:00:00 | |
| SP3WXH-11 | 2026-08-31 19:55:19 | 53.33888 | 16.55014 | 48° | 38km/h | 3067m | -1.2m/s | -0.7°C | 82.5% | 701.9hPa | 2.6V | 00:00:00 | 00:00:00 | 00:00:00 | |
| KRY50SP-1 | 2026-08-31 19:55:17 | 53.33881 | 16.55002 | 46° | 38km/h | 3068m | -1.2m/s | -0.7°C | 82.3% | 701.8hPa | 2.6V | 00:00:00 | 00:00:00 | 00:00:00 | |
| KRY50SP-1 | 2026-08-31 19:55:11 | 53.33843 | 16.54947 | 45° | 27km/h | 3075m | -1.2m/s | -0.7°C | 81.0% | 701.0hPa | 2.6V | 00:00:00 | 00:00:00 | 00:00:00 | |
| KRY50SP-1 | 2026-08-31 19:55:06 | 53.33822 | 16.54898 | 61° | 33km/h | 3082m | -1.3m/s | -0.8°C | 81.3% | 700.4hPa | 2.6V | 00:00:00 | 00:00:00 | 00:00:00 | |
| SP3WXH-11 | 2026-08-31 19:54:48 | 53.33716 | 16.54693 | 54° | 26km/h | 3106m | -1.3m/s | -1.0°C | 82.3% | 698.6hPa | 2.6V | 00:00:00 | 00:00:00 | 00:00:00 | |
| KRY50SP-1 | 2026-08-31 19:54:45 | 53.33708 | 16.54672 | 60° | 31km/h | 3109m | -1.3m/s | -1.0°C | 83.3% | 698.4hPa | 2.6V | 00:00:00 | 00:00:00 | 00:00:00 | |
| SP3BTT-10 | 2026-08-31 19:54:40 | 53.33676 | 16.54597 | 47° | 35km/h | 3118m | -1.4m/s | -1.0°C | 85.3% | 697.5hPa | 2.6V | 00:00:00 | 00:00:00 | 00:00:00 | |
| KRY50SP-1 | 2026-08-31 19:54:39 | 53.33677 | 16.54597 | 48° | 38km/h | 3118m | -1.4m/s | -1.1°C | 84.3% | 697.6hPa | 2.6V | 00:00:00 | 00:00:00 | 00:00:00 | |
| KRY50SP-1 | 2026-08-31 19:54:33 | 53.33640 | 16.54543 | 50° | 26km/h | 3127m | -1.2m/s | -1.2°C | 84.6% | 696.7hPa | 2.6V | 00:00:00 | 00:00:00 | 00:00:00 | |
| KRY50SP-1 | 2026-08-31 19:54:28 | 53.33619 | 16.54490 | 59° | 35km/h | 3134m | -1.4m/s | -1.1°C | 82.1% | 696.1hPa | 2.6V | 00:00:00 | 00:00:00 | 00:00:00 | |
| KRY50SP-1 | 2026-08-31 19:54:23 | 53.33588 | 16.54427 | 45° | 38km/h | 3140m | -1.3m/s | -1.1°C | 80.3% | 695.5hPa | 2.6V | 00:00:00 | 00:00:00 | 00:00:00 | |
| SP3BTT-10 | 2026-08-31 19:54:20 | 53.33562 | 16.54390 | 39° | 33km/h | 3146m | -1.3m/s | -1.1°C | 81.1% | 695.1hPa | 2.6V | 00:00:00 | 00:00:00 | 00:00:00 | |
| KRY50SP-1 | 2026-08-31 19:54:17 | 53.33551 | 16.54374 | 46° | 27km/h | 3149m | -1.3m/s | -1.2°C | 80.0% | 694.8hPa | 2.6V | 00:00:00 | 00:00:00 | 00:00:00 | |
| KRY50SP-1 | 2026-08-31 19:54:12 | 53.33529 | 16.54325 | 57° | 33km/h | 3156m | -1.3m/s | -1.2°C | 80.5% | 694.2hPa | 2.6V | 00:00:00 | 00:00:00 | 00:00:00 | |
| KRY50SP-1 | 2026-08-31 19:54:07 | 53.33501 | 16.54269 | 47° | 35km/h | 3162m | -1.2m/s | -1.3°C | 81.0% | 693.6hPa | 2.6V | 00:00:00 | 00:00:00 | 00:00:00 | |
| KRY50SP-1 | 2026-08-31 19:54:02 | 53.33471 | 16.54214 | 51° | 37km/h | 3169m | -1.1m/s | -1.4°C | 81.7% | 693.1hPa | 2.6V | 00:00:00 | 00:00:00 | 00:00:00 | |
| SP3WXH-11 | 2026-08-31 19:53:46 | 53.33374 | 16.54040 | 41° | 35km/h | 3194m | -1.5m/s | -1.6°C | 82.0% | 690.9hPa | 2.6V | 00:00:00 | 00:00:00 | 00:00:00 | |
| KRY50SP-1 | 2026-08-31 19:53:45 | 53.33374 | 16.54040 | 43° | 37km/h | 3194m | -1.5m/s | -1.6°C | 82.0% | 690.9hPa | 2.6V | 00:00:00 | 00:00:00 | 00:00:00 | |
| KRY50SP-1 | 2026-08-31 19:53:39 | 53.33339 | 16.53988 | 52° | 27km/h | 3204m | -1.4m/s | -1.7°C | 82.3% | 689.9hPa | 2.6V | 00:00:00 | 00:00:00 | 00:00:00 | |
| KRY50SP-1 | 2026-08-31 19:53:34 | 53.33318 | 16.53933 | 57° | 37km/h | 3211m | -1.4m/s | -1.8°C | 83.8% | 689.4hPa | 2.6V | 00:00:00 | 00:00:00 | 00:00:00 | |
| SP3BTT-10 | 2026-08-31 19:53:30 | 53.33286 | 16.53879 | 40° | 33km/h | 3220m | -1.6m/s | -1.8°C | 84.4% | 688.6hPa | 2.6V | 00:00:00 | 00:00:00 | 00:00:00 | |
| KRY50SP-1 | 2026-08-31 19:53:28 | 53.33279 | 16.53870 | 39° | 33km/h | 3221m | -1.8m/s | -1.8°C | 83.2% | 688.5hPa | 2.6V | 00:00:00 | 00:00:00 | 00:00:00 | |
| KRY50SP-1 | 2026-08-31 19:53:23 | 53.33254 | 16.53832 | 54° | 26km/h | 3230m | -1.4m/s | -1.9°C | 84.3% | 687.7hPa | 2.6V | 00:00:00 | 00:00:00 | 00:00:00 | |
| KRY50SP-1 | 2026-08-31 19:53:18 | 53.33232 | 16.53777 | 52° | 37km/h | 3237m | -1.8m/s | -2.0°C | 84.6% | 687.1hPa | 2.6V | 00:00:00 | 00:00:00 | 00:00:00 | |
| SP3WXH-11 | 2026-08-31 19:53:15 | 53.33206 | 16.53731 | 40° | 37km/h | 3244m | -1.7m/s | -2.1°C | 84.9% | 686.6hPa | 2.6V | 00:00:00 | 00:00:00 | 00:00:00 | |
| KRY50SP-1 | 2026-08-31 19:53:12 | 53.33191 | 16.53713 | 35° | 35km/h | 3248m | -1.7m/s | -2.1°C | 85.1% | 686.3hPa | 2.6V | 00:00:00 | 00:00:00 | 00:00:00 | |
| KRY50SP-1 | 2026-08-31 19:53:06 | 53.33158 | 16.53666 | 55° | 29km/h | 3258m | -1.5m/s | -2.2°C | 85.5% | 685.4hPa | 2.6V | 00:00:00 | 00:00:00 | 00:00:00 | |
| KRY50SP-1 | 2026-08-31 19:53:01 | 53.33134 | 16.53608 | 55° | 37km/h | 3265m | -1.4m/s | -2.3°C | 85.4% | 684.8hPa | 2.6V | 00:00:00 | 00:00:00 | 00:00:00 | |
| SP3BTT-10 | 2026-08-31 19:53:00 | 53.33122 | 16.53583 | 47° | 35km/h | 3268m | -1.4m/s | -2.2°C | 86.9% | 684.4hPa | 2.6V | 00:00:00 | 00:00:00 | 00:00:00 | |
| KRY50SP-1 | 2026-08-31 19:52:56 | 53.33101 | 16.53552 | 40° | 35km/h | 3273m | -1.3m/s | -2.3°C | 85.7% | 684.1hPa | 2.6V | 00:00:00 | 00:00:00 | 00:00:00 | |
| KRY50SP-1 | 2026-08-31 19:52:50 | 53.33068 | 16.53497 | 56° | 31km/h | 3281m | -1.7m/s | -2.4°C | 86.3% | 683.6hPa | 2.6V | 00:00:00 | 00:00:00 | 00:00:00 | |
| SP3WXH-11 | 2026-08-31 19:52:44 | 53.33039 | 16.53413 | 58° | 33km/h | 3293m | -2.0m/s | -2.4°C | 84.8% | 682.5hPa | 2.6V | 00:00:00 | 00:00:00 | 00:00:00 | |
| KRY50SP-1 | 2026-08-31 19:52:39 | 53.33020 | 16.53362 | 58° | 37km/h | 3301m | -2.0m/s | -2.5°C | 84.5% | 681.6hPa | 2.6V | 00:00:00 | 00:00:00 | 00:00:00 | |
| KRY50SP-1 | 2026-08-31 19:52:33 | 53.32986 | 16.53280 | 53° | 40km/h | 3312m | -1.6m/s | -2.6°C | 83.4% | 680.7hPa | 2.6V | 00:00:00 | 00:00:00 | 00:00:00 | |
| SP3BTT-10 | 2026-08-31 19:52:30 | 53.32960 | 16.53231 | 50° | 37km/h | 3318m | -1.2m/s | -2.6°C | 84.2% | 680.2hPa | 2.6V | 00:00:00 | 00:00:00 | 00:00:00 | |
| KRY50SP-1 | 2026-08-31 19:52:27 | 53.32949 | 16.53209 | 56° | 33km/h | 3321m | -1.5m/s | -2.7°C | 83.3% | 679.9hPa | 2.7V | 00:00:00 | 00:00:00 | 00:00:00 | |
| KRY50SP-1 | 2026-08-31 19:52:22 | 53.32926 | 16.53148 | 59° | 37km/h | 3329m | -1.9m/s | -2.6°C | 79.3% | 679.4hPa | 2.7V | 00:00:00 | 00:00:00 | 00:00:00 | |
| KRY50SP-1 | 2026-08-31 19:52:17 | 53.32899 | 16.53075 | 55° | 44km/h | 3338m | -1.8m/s | -2.6°C | 73.3% | 678.6hPa | 2.7V | 00:00:00 | 00:00:00 | 00:00:00 | |
| SP3WXH-11 | 2026-08-31 19:52:13 | 53.32863 | 16.53011 | 43° | 37km/h | 3346m | -1.7m/s | -2.6°C | 69.0% | 677.9hPa | 2.7V | 00:00:00 | 00:00:00 | 00:00:00 | |
| KRY50SP-1 | 2026-08-31 19:52:11 | 53.32857 | 16.53000 | 45° | 35km/h | 3348m | -1.7m/s | -2.5°C | 61.5% | 677.7hPa | 2.7V | 00:00:00 | 00:00:00 | 00:00:00 | |
| KRY50SP-1 | 2026-08-31 19:52:06 | 53.32832 | 16.52948 | 60° | 33km/h | 3357m | -1.6m/s | -2.6°C | 61.2% | 677.0hPa | 2.7V | 00:00:00 | 00:00:00 | 00:00:00 | |
| SP3BTT-10 | 2026-08-31 19:52:00 | 53.32797 | 16.52850 | 55° | 38km/h | 3369m | -1.6m/s | -2.6°C | 61.1% | 676.0hPa | 2.7V | 00:00:00 | 00:00:00 | 00:00:00 | |
| KRY50SP-1 | 2026-08-31 19:51:55 | 53.32772 | 16.52801 | 50° | 35km/h | 3376m | -1.8m/s | -2.8°C | 60.5% | 675.3hPa | 2.7V | 00:00:00 | 00:00:00 | 00:00:00 | |
| KRY50SP-1 | 2026-08-31 19:51:50 | 53.32748 | 16.52741 | 62° | 37km/h | 3385m | -1.8m/s | -2.8°C | 60.6% | 674.5hPa | 2.7V | 00:00:00 | 00:00:00 | 00:00:00 | |
| KRY50SP-1 | 2026-08-31 19:51:45 | 53.32724 | 16.52664 | 58° | 44km/h | 3394m | -2.1m/s | -2.9°C | 61.9% | 673.9hPa | 2.7V | 00:00:00 | 00:00:00 | 00:00:00 | |
| SP3WXH-11 | 2026-08-31 19:51:42 | 53.32696 | 16.52606 | 48° | 42km/h | 3402m | -1.6m/s | -3.0°C | 61.2% | 673.1hPa | 2.7V | 00:00:00 | 00:00:00 | 00:00:00 | |
| KRY50SP-1 | 2026-08-31 19:51:40 | 53.32689 | 16.52593 | 48° | 42km/h | 3403m | -1.8m/s | -3.0°C | 61.3% | 673.0hPa | 2.7V | 00:00:00 | 00:00:00 | 00:00:00 | |
| KRY50SP-1 | 2026-08-31 19:51:34 | 53.32656 | 16.52521 | 63° | 37km/h | 3414m | -1.9m/s | -3.1°C | 61.6% | 672.2hPa | 2.7V | 00:00:00 | 00:00:00 | 00:00:00 | |
| SP3BTT-10 | 2026-08-31 19:51:30 | 53.32631 | 16.52446 | 58° | 40km/h | 3424m | -1.7m/s | -3.2°C | 63.1% | 671.2hPa | 2.7V | 00:00:00 | 00:00:00 | 00:00:00 | |
| KRY50SP-1 | 2026-08-31 19:51:28 | 53.32625 | 16.52430 | 55° | 46km/h | 3426m | -1.8m/s | -3.3°C | 62.6% | 671.2hPa | 2.7V | 00:00:00 | 00:00:00 | 00:00:00 | |
| KRY50SP-1 | 2026-08-31 19:51:23 | 53.32590 | 16.52363 | 48° | 37km/h | 3435m | -1.4m/s | -3.3°C | 62.0% | 670.3hPa | 2.7V | 00:00:00 | 00:00:00 | 00:00:00 | |
| KRY50SP-1 | 2026-08-31 19:51:12 | 53.32532 | 16.52208 | 55° | 46km/h | 3450m | -1.4m/s | -3.5°C | 62.0% | 669.0hPa | 2.7V | 00:00:00 | 00:00:00 | 00:00:00 | |
| SP3WXH-11 | 2026-08-31 19:51:11 | 53.32518 | 16.52176 | 51° | 46km/h | 3453m | -1.4m/s | -3.5°C | 61.5% | 668.6hPa | 2.7V | 00:00:00 | 00:00:00 | 00:00:00 | |
| KRY50SP-1 | 2026-08-31 19:51:07 | 53.32495 | 16.52135 | 45° | 40km/h | 3457m | -1.3m/s | -3.5°C | 61.6% | 668.4hPa | 2.7V | 00:00:00 | 00:00:00 | 00:00:00 | |
| KRY50SP-1 | 2026-08-31 19:51:01 | 53.32462 | 16.52062 | 62° | 38km/h | 3464m | -1.5m/s | -3.6°C | 62.9% | 667.7hPa | 2.7V | 00:00:00 | 00:00:00 | 00:00:00 | |
| SP3BTT-10 | 2026-08-31 19:51:00 | 53.32451 | 16.52032 | 63° | 40km/h | 3467m | -1.1m/s | -3.6°C | 63.8% | 667.4hPa | 2.7V | 00:00:00 | 00:00:00 | 08:30:00 | |
| KRY50SP-1 | 2026-08-31 19:50:56 | 53.32434 | 16.51982 | 58° | 47km/h | 3470m | -1.2m/s | -3.7°C | 62.9% | 667.2hPa | 2.7V | 00:00:00 | 00:00:00 | 00:00:00 | |
| KRY50SP-1 | 2026-08-31 19:50:50 | 53.32390 | 16.51897 | 46° | 37km/h | 3477m | -1.0m/s | -3.8°C | 63.3% | 666.6hPa | 2.7V | 00:00:00 | 00:00:00 | 00:00:00 | |
| KRY50SP-1 | 2026-08-31 19:50:45 | 53.32364 | 16.51835 | 65° | 38km/h | 3483m | -1.1m/s | -3.8°C | 63.2% | 666.2hPa | 2.7V | 00:00:00 | 00:00:00 | 00:00:00 | |
| SP3WXH-11 | 2026-08-31 19:50:40 | 53.32330 | 16.51740 | 51° | 46km/h | 3489m | -1.0m/s | -3.9°C | 64.8% | 665.6hPa | 2.7V | 00:00:00 | 00:00:00 | 00:00:00 | |
| KRY50SP-1 | 2026-08-31 19:50:35 | 53.32301 | 16.51687 | 47° | 38km/h | 3493m | -0.9m/s | -3.9°C | 63.5% | 665.3hPa | 2.7V | 00:00:00 | 00:00:00 | 00:00:00 | |
| SP3BTT-10 | 2026-08-31 19:50:30 | 53.32270 | 16.51612 | 65° | 40km/h | 3500m | -1.3m/s | -3.9°C | 64.3% | 664.6hPa | 2.7V | 00:00:00 | 00:00:00 | 00:00:00 | |
| KRY50SP-1 | 2026-08-31 19:50:24 | 53.32241 | 16.51534 | 53° | 46km/h | 3506m | -1.1m/s | -4.0°C | 63.6% | 664.2hPa | 2.7V | 00:00:00 | 00:00:00 | 00:00:00 | |
| KRY50SP-1 | 2026-08-31 19:50:19 | 53.32206 | 16.51468 | 49° | 37km/h | 3512m | -1.1m/s | -4.1°C | 62.9% | 663.7hPa | 2.7V | 00:00:00 | 00:00:00 | 00:00:00 | |
| SP3WXH-11 | 2026-08-31 19:50:09 | 53.32144 | 16.51315 | 50° | 40km/h | 3525m | -1.4m/s | -4.2°C | 62.5% | 662.6hPa | 2.7V | 00:00:00 | 00:00:00 | 00:00:00 | |
| KRY50SP-1 | 2026-08-31 19:50:08 | 53.32144 | 16.51315 | 51° | 42km/h | 3525m | -1.4m/s | -4.2°C | 62.5% | 662.6hPa | 2.7V | 00:00:00 | 00:00:00 | 00:00:00 | |
| KRY50SP-1 | 2026-08-31 19:50:03 | 53.32115 | 16.51254 | 57° | 35km/h | 3531m | -1.1m/s | -4.3°C | 64.1% | 662.2hPa | 2.7V | 00:00:00 | 00:00:00 | 00:00:00 | |
| SP3BTT-10 | 2026-08-31 19:50:00 | 53.32096 | 16.51202 | 59° | 38km/h | 3536m | -1.2m/s | -4.3°C | 65.1% | 661.5hPa | 2.7V | 00:00:00 | 00:00:00 | 00:00:00 | |
| KRY50SP-1 | 2026-08-31 19:49:57 | 53.32086 | 16.51177 | 59° | 35km/h | 3538m | -0.5m/s | -4.3°C | 64.4% | 661.5hPa | 2.7V | 00:00:00 | 00:00:00 | 00:00:00 | |
| KRY50SP-1 | 2026-08-31 19:49:51 | 53.32058 | 16.51094 | 58° | 42km/h | 3545m | -1.3m/s | -4.4°C | 64.9% | 660.9hPa | 2.7V | 00:00:00 | 00:00:00 | 00:00:00 | |
| KRY50SP-1 | 2026-08-31 19:49:45 | 53.32022 | 16.51018 | 53° | 33km/h | 3552m | -1.1m/s | -4.4°C | 65.3% | 660.5hPa | 2.7V | 00:00:00 | 00:00:00 | 00:00:00 | |
| KRY50SP-1 | 2026-08-31 19:49:40 | 53.32001 | 16.50959 | 65° | 35km/h | 3557m | -1.0m/s | -4.4°C | 63.1% | 659.9hPa | 2.7V | 00:00:00 | 00:00:00 | 00:00:00 | |
| SP3WXH-11 | 2026-08-31 19:49:38 | 53.31989 | 16.50915 | 63° | 42km/h | 3560m | -1.0m/s | -4.4°C | 62.8% | 659.7hPa | 2.7V | 00:00:00 | 00:00:00 | 00:00:00 | |
| KRY50SP-1 | 2026-08-31 19:49:35 | 53.31977 | 16.50883 | 57° | 46km/h | 3563m | -1.3m/s | -4.4°C | 61.5% | 659.7hPa | 2.7V | 00:00:00 | 00:00:00 | 00:00:00 | |
| SP3BTT-10 | 2026-08-31 19:49:30 | 53.31937 | 16.50799 | 48° | 38km/h | 3569m | -1.0m/s | -4.3°C | 57.5% | 658.8hPa | 2.7V | 00:00:00 | 00:00:00 | 00:00:00 | |
| KRY50SP-1 | 2026-08-31 19:49:29 | 53.31936 | 16.50799 | 49° | 38km/h | 3569m | -1.0m/s | -4.4°C | 56.7% | 658.9hPa | 2.7V | 00:00:00 | 00:00:00 | 00:00:00 | |
| KRY50SP-1 | 2026-08-31 19:49:24 | 53.31910 | 16.50742 | 59° | 35km/h | 3574m | -1.2m/s | -4.4°C | 56.0% | 658.3hPa | 2.7V | 00:00:00 | 00:00:00 | 00:00:00 | |
| KRY50SP-1 | 2026-08-31 19:49:19 | 53.31886 | 16.50671 | 62° | 40km/h | 3580m | -1.2m/s | -4.4°C | 56.6% | 658.1hPa | 2.7V | 00:00:00 | 00:00:00 | 00:00:00 | |
| KRY50SP-1 | 2026-08-31 19:49:14 | 53.31860 | 16.50595 | 59° | 44km/h | 3586m | -1.5m/s | -4.4°C | 56.7% | 657.6hPa | 2.7V | 00:00:00 | 00:00:00 | 00:00:00 | |
| KRY50SP-1 | 2026-08-31 19:49:08 | 53.31821 | 16.50516 | 48° | 35km/h | 3594m | -1.0m/s | -4.4°C | 57.8% | 657.0hPa | 2.7V | 00:00:00 | 00:00:00 | 00:00:00 | |
| SP3WXH-11 | 2026-08-31 19:49:07 | 53.31810 | 16.50495 | 51° | 31km/h | 3597m | -1.3m/s | -4.3°C | 58.9% | 656.7hPa | 2.7V | 00:00:00 | 00:00:00 | 00:00:00 | |
| KRY50SP-1 | 2026-08-31 19:49:03 | 53.31797 | 16.50461 | 62° | 35km/h | 3601m | -1.2m/s | -4.3°C | 57.7% | 656.3hPa | 2.7V | 00:00:00 | 00:00:00 | 00:00:00 | |
| SP3BTT-10 | 2026-08-31 19:49:00 | 53.31776 | 16.50404 | 55° | 40km/h | 3606m | -1.0m/s | -4.2°C | 52.1% | 655.9hPa | 2.7V | 00:00:00 | 00:00:00 | 00:00:00 | |
| KRY50SP-1 | 2026-08-31 19:48:57 | 53.31763 | 16.50374 | 51° | 44km/h | 3608m | -1.4m/s | -4.2°C | 47.6% | 655.7hPa | 2.7V | 00:00:00 | 00:00:00 | 00:00:00 | |
| KRY50SP-1 | 2026-08-31 19:48:52 | 53.31727 | 16.50309 | 43° | 38km/h | 3616m | -1.3m/s | -4.2°C | 47.4% | 655.1hPa | 2.7V | 00:00:00 | 00:00:00 | 00:00:00 | |
| KRY50SP-1 | 2026-08-31 19:48:46 | 53.31692 | 16.50245 | 55° | 35km/h | 3624m | -1.4m/s | -4.3°C | 47.8% | 654.4hPa | 2.7V | 00:00:00 | 00:00:00 | 00:00:00 | |
| KRY50SP-1 | 2026-08-31 19:48:41 | 53.31664 | 16.50173 | 55° | 46km/h | 3630m | -1.3m/s | -4.3°C | 47.3% | 654.0hPa | 2.7V | 00:00:00 | 00:00:00 | 00:00:00 | |
| SP3WXH-11 | 2026-08-31 19:48:36 | 53.31619 | 16.50094 | 40° | 37km/h | 3640m | -1.3m/s | -4.2°C | 44.1% | 653.2hPa | 2.7V | 00:00:00 | 00:00:00 | 00:00:00 | |
| KRY50SP-1 | 2026-08-31 19:48:35 | 53.31619 | 16.50093 | 42° | 38km/h | 3640m | -1.3m/s | -4.2°C | 44.1% | 653.2hPa | 2.7V | 00:00:00 | 00:00:00 | 00:00:00 | |
| SP3BTT-10 | 2026-08-31 19:48:30 | 53.31583 | 16.50028 | 54° | 42km/h | 3647m | -1.2m/s | -4.1°C | 44.0% | 652.5hPa | 2.7V | 00:00:00 | 00:00:00 | 00:00:00 | |
| KRY50SP-1 | 2026-08-31 19:48:24 | 53.31552 | 16.49954 | 53° | 46km/h | 3653m | -1.4m/s | -4.2°C | 42.5% | 652.0hPa | 2.7V | 00:00:00 | 00:00:00 | 00:00:00 | |
| KRY50SP-1 | 2026-08-31 19:48:18 | 53.31505 | 16.49876 | 40° | 38km/h | 3662m | -1.2m/s | -4.1°C | 39.0% | 651.2hPa | 2.7V | 00:00:00 | 00:00:00 | 00:00:00 | |
| KRY50SP-1 | 2026-08-31 19:48:12 | 53.31467 | 16.49814 | 54° | 37km/h | 3670m | -1.4m/s | -4.0°C | 36.7% | 650.8hPa | 2.7V | 00:00:00 | 00:00:00 | 00:00:00 | |
| KRY50SP-1 | 2026-08-31 19:48:07 | 53.31434 | 16.49744 | 51° | 47km/h | 3677m | -1.4m/s | -4.1°C | 36.7% | 650.0hPa | 2.7V | 00:00:00 | 00:00:00 | 00:00:00 | |
| SP3WXH-11 | 2026-08-31 19:48:05 | 53.31410 | 16.49703 | 43° | 42km/h | 3682m | -1.7m/s | -4.1°C | 36.5% | 649.7hPa | 2.7V | 00:00:00 | 00:00:00 | 00:00:00 | |
| SONDE2-11 | 2026-08-31 19:48:00 | 53.31371 | 16.49650 | 44° | 35km/h | 3690m | -1.4m/s | -4.2°C | 36.5% | 649.1hPa | 2.7V | 00:00:00 | 00:00:00 | 00:00:00 | |
| EDDB2-12 | 2026-08-31 19:47:53 | 53.31329 | 16.49557 | 53° | 44km/h | 3699m | -1.5m/s | -4.2°C | 35.7% | 648.2hPa | 2.7V | 00:00:00 | 00:00:00 | 00:00:00 | |
| KRY50SP-1 | 2026-08-31 19:47:50 | 53.31313 | 16.49526 | 48° | 49km/h | 3703m | -1.4m/s | -4.2°C | 35.3% | 647.9hPa | 2.7V | 00:00:00 | 00:00:00 | 00:00:00 | |
| KRY50SP-1 | 2026-08-31 19:47:44 | 53.31262 | 16.49451 | 38° | 38km/h | 3712m | -1.4m/s | -4.2°C | 34.3% | 647.1hPa | 2.7V | 00:00:00 | 00:00:00 | 00:00:00 | |
| KRY50SP-1 | 2026-08-31 19:47:39 | 53.31222 | 16.49384 | 56° | 40km/h | 3720m | -1.4m/s | -4.3°C | 34.8% | 646.4hPa | 2.7V | 00:00:00 | 00:00:00 | 00:00:00 | |
| SP3WXH-11 | 2026-08-31 19:47:34 | 53.31185 | 16.49309 | 46° | 47km/h | 3727m | -1.4m/s | -4.3°C | 35.1% | 645.8hPa | 2.7V | 00:00:00 | 00:00:00 | 00:00:00 | |
| KRY50SP-1 | 2026-08-31 19:47:33 | 53.31185 | 16.49309 | 48° | 49km/h | 3727m | -1.4m/s | -4.3°C | 35.1% | 645.8hPa | 2.7V | 00:00:00 | 00:00:00 | 00:00:00 | |
| SP3BTT-10 | 2026-08-31 19:47:30 | 53.31150 | 16.49258 | 35° | 42km/h | 3733m | -1.2m/s | -4.3°C | 35.8% | 645.4hPa | 2.7V | 00:00:00 | 00:00:00 | 00:00:00 | |
| SONDE2-11 | 2026-08-31 19:47:29 | 53.31141 | 16.49248 | 36° | 40km/h | 3734m | -1.5m/s | -4.3°C | 35.2% | 645.3hPa | 2.7V | 00:00:00 | 00:00:00 | 00:00:00 | |
| KRY50SP-1 | 2026-08-31 19:47:27 | 53.31133 | 16.49238 | 36° | 38km/h | 3736m | -1.5m/s | -4.3°C | 35.3% | 645.2hPa | 2.7V | 00:00:00 | 00:00:00 | 00:00:00 | |
| KRY50SP-1 | 2026-08-31 19:47:22 | 53.31100 | 16.49185 | 51° | 40km/h | 3743m | -1.6m/s | -4.4°C | 35.3% | 644.6hPa | 2.7V | 00:00:00 | 00:00:00 | 00:00:00 | |
| KRY50SP-1 | 2026-08-31 19:47:17 | 53.31062 | 16.49115 | 44° | 47km/h | 3751m | -1.4m/s | -4.4°C | 34.2% | 644.0hPa | 2.7V | 00:00:00 | 00:00:00 | 00:00:00 | |
| KRY50SP-1 | 2026-08-31 19:47:11 | 53.31009 | 16.49049 | 38° | 38km/h | 3760m | -1.6m/s | -4.3°C | 32.1% | 643.2hPa | 2.7V | 00:00:00 | 00:00:00 | 00:00:00 | |
| KRY50SP-1 | 2026-08-31 19:47:06 | 53.30977 | 16.48996 | 52° | 38km/h | 3768m | -1.6m/s | -4.4°C | 32.6% | 642.4hPa | 2.7V | 00:00:00 | 00:00:00 | 00:00:00 | |
| SP3WXH-11 | 2026-08-31 19:47:03 | 53.30948 | 16.48939 | 43° | 47km/h | 3774m | -1.5m/s | -4.4°C | 33.4% | 642.1hPa | 2.7V | 00:00:00 | 00:00:00 | 00:00:00 | |
| SONDE2-11 | 2026-08-31 19:46:58 | 53.30903 | 16.48878 | 35° | 40km/h | 3782m | -1.5m/s | -4.5°C | 34.3% | 641.4hPa | 2.7V | 00:00:00 | 00:00:00 | 00:00:00 | |
| EDDB2-12 | 2026-08-31 19:46:51 | 53.30854 | 16.48801 | 51° | 42km/h | 3794m | -1.3m/s | -4.6°C | 35.0% | 640.6hPa | 2.7V | 00:00:00 | 00:00:00 | 00:00:00 | |
| EDDB2-11 | 2026-08-31 19:46:49 | 53.30831 | 16.48757 | 43° | 47km/h | 3798m | -1.5m/s | -4.6°C | 34.9% | 640.2hPa | 2.7V | 00:00:00 | 00:00:00 | 00:00:00 | |
| KRY50SP-1 | 2026-08-31 19:46:48 | 53.30839 | 16.48772 | 49° | 49km/h | 3797m | -1.4m/s | -4.6°C | 34.9% | 640.3hPa | 2.7V | 00:00:00 | 00:00:00 | 00:00:00 | |
| KRY50SP-1 | 2026-08-31 19:46:43 | 53.30794 | 16.48706 | 35° | 46km/h | 3805m | -1.5m/s | -4.6°C | 35.2% | 639.7hPa | 2.7V | 00:00:00 | 00:00:00 | 00:00:00 | |
| KRY50SP-1 | 2026-08-31 19:46:37 | 53.30746 | 16.48644 | 46° | 40km/h | 3814m | -1.4m/s | -4.7°C | 34.9% | 638.9hPa | 2.7V | 00:00:00 | 00:00:00 | 00:00:00 | |
| SP3WXH-11 | 2026-08-31 19:46:32 | 53.30698 | 16.48559 | 43° | 49km/h | 3823m | -1.5m/s | -4.7°C | 34.7% | 638.1hPa | 2.7V | 00:00:00 | 00:00:00 | 00:00:00 | |
| KRY50SP-1 | 2026-08-31 19:46:31 | 53.30698 | 16.48559 | 45° | 51km/h | 3823m | -1.5m/s | -4.7°C | 34.6% | 638.1hPa | 2.7V | 00:00:00 | 00:00:00 | 00:00:00 | |
| SP3BTT-10 | 2026-08-31 19:46:30 | 53.30679 | 16.48530 | 41° | 44km/h | 3826m | -1.4m/s | -4.7°C | 35.0% | 637.7hPa | 2.7V | 00:00:00 | 00:00:00 | 08:30:00 | |
| SONDE2-11 | 2026-08-31 19:46:27 | 53.30649 | 16.48493 | 32° | 46km/h | 3831m | -1.3m/s | -4.7°C | 34.0% | 637.4hPa | 2.7V | 00:00:00 | 00:00:00 | 00:00:00 | |
| KRY50SP-1 | 2026-08-31 19:46:26 | 53.30649 | 16.48493 | 33° | 46km/h | 3831m | -1.3m/s | -4.7°C | 33.9% | 637.4hPa | 2.7V | 00:00:00 | 00:00:00 | 00:00:00 | |
| EDDB2-12 | 2026-08-31 19:46:20 | 53.30593 | 16.48421 | 46° | 38km/h | 3841m | -1.7m/s | -4.8°C | 33.9% | 636.7hPa | 2.7V | 00:00:00 | 00:00:00 | 00:00:00 | |
| EDDB2-11 | 2026-08-31 19:46:18 | 53.30580 | 16.48394 | 51° | 44km/h | 3844m | -1.5m/s | -4.8°C | 33.7% | 636.3hPa | 2.7V | 00:00:00 | 00:00:00 | 00:00:00 | |
| KRY50SP-1 | 2026-08-31 19:46:14 | 53.30555 | 16.48350 | 47° | 47km/h | 3849m | -1.7m/s | -4.7°C | 32.5% | 636.0hPa | 2.7V | 00:00:00 | 00:00:00 | 00:00:00 | |
| KRY50SP-1 | 2026-08-31 19:46:08 | 53.30498 | 16.48275 | 35° | 44km/h | 3858m | -1.5m/s | -4.8°C | 32.6% | 635.2hPa | 2.7V | 00:00:00 | 00:00:00 | 00:00:00 | |
| KRY50SP-1 | 2026-08-31 19:46:02 | 53.30453 | 16.48206 | 53° | 44km/h | 3867m | -1.3m/s | -4.8°C | 33.1% | 634.4hPa | 2.7V | 00:00:00 | 00:00:00 | 00:00:00 | |
| SP3WXH-11 | 2026-08-31 19:46:01 | 53.30439 | 16.48177 | 52° | 46km/h | 3870m | -1.4m/s | -4.9°C | 33.3% | 634.2hPa | 2.7V | 00:00:00 | 00:00:00 | 00:00:00 | |
| SONDE2-11 | 2026-08-31 19:45:56 | 53.30395 | 16.48103 | 39° | 49km/h | 3876m | -1.2m/s | -4.9°C | 33.9% | 633.6hPa | 2.7V | 00:00:00 | 00:00:00 | 00:00:00 | |
| EDDB2-12 | 2026-08-31 19:45:49 | 53.30335 | 16.48017 | 43° | 40km/h | 3885m | -1.4m/s | -4.9°C | 34.4% | 632.9hPa | 2.7V | 00:00:00 | 00:00:00 | 00:00:00 | |
| KRY50SP-1 | 2026-08-31 19:45:46 | 53.30319 | 16.47993 | 42° | 42km/h | 3888m | -1.3m/s | -4.9°C | 34.5% | 632.7hPa | 2.7V | 00:00:00 | 00:00:00 | 00:00:00 | |
| KRY50SP-1 | 2026-08-31 19:45:40 | 53.30274 | 16.47911 | 48° | 49km/h | 3897m | -1.6m/s | -5.0°C | 34.3% | 632.1hPa | 2.7V | 00:00:00 | 00:00:00 | 00:00:00 | |
| KRY50SP-1 | 2026-08-31 19:45:35 | 53.30227 | 16.47836 | 40° | 51km/h | 3905m | -1.3m/s | -5.1°C | 34.8% | 631.3hPa | 2.7V | 00:00:00 | 00:00:00 | 00:00:00 | |
| SP3WXH-11 | 2026-08-31 19:45:30 | 53.30175 | 16.47755 | 47° | 46km/h | 3912m | -1.4m/s | -5.1°C | 35.7% | 630.6hPa | 2.7V | 00:00:00 | 00:00:00 | 00:00:00 | |
| SONDE2-11 | 2026-08-31 19:45:25 | 53.30132 | 16.47677 | 46° | 51km/h | 3919m | -1.3m/s | -5.2°C | 35.9% | 630.1hPa | 2.7V | 00:00:00 | 00:00:00 | 00:00:00 | |
| KRY50SP-1 | 2026-08-31 19:45:19 | 53.30086 | 16.47598 | 45° | 51km/h | 3926m | -1.6m/s | -5.2°C | 36.2% | 629.5hPa | 2.7V | 00:00:00 | 00:00:00 | 00:00:00 | |
| EDDB2-12 | 2026-08-31 19:45:18 | 53.30067 | 16.47569 | 41° | 51km/h | 3929m | -1.7m/s | -5.2°C | 36.2% | 629.3hPa | 2.7V | 00:00:00 | 00:00:00 | 00:00:00 | |
| KRY50SP-1 | 2026-08-31 19:45:15 | 53.30038 | 16.47530 | 39° | 46km/h | 3934m | -1.5m/s | -5.3°C | 36.2% | 628.9hPa | 2.7V | 00:00:00 | 00:00:00 | 00:00:00 | |
| KRY50SP-1 | 2026-08-31 19:45:08 | 53.29989 | 16.47447 | 48° | 51km/h | 3943m | -1.5m/s | -5.3°C | 35.9% | 628.3hPa | 2.7V | 00:00:00 | 00:00:00 | 00:00:00 | |
| SP3WXH-11 | 2026-08-31 19:44:59 | 53.29896 | 16.47316 | 45° | 40km/h | 3956m | -1.2m/s | -5.3°C | 34.5% | 627.2hPa | 2.7V | 00:00:00 | 00:00:00 | 00:00:00 | |
| SONDE2-11 | 2026-08-31 19:44:54 | 53.29854 | 16.47243 | 43° | 51km/h | 3963m | -1.3m/s | -5.4°C | 34.5% | 626.7hPa | 2.7V | 00:00:00 | 00:00:00 | 00:00:00 | |
| EDDB2-12 | 2026-08-31 19:44:47 | 53.29785 | 16.47155 | 37° | 42km/h | 3972m | -1.5m/s | -5.4°C | 33.9% | 625.9hPa | 2.7V | 00:00:00 | 00:00:00 | 00:00:00 | |
| KRY50SP-1 | 2026-08-31 19:44:46 | 53.29785 | 16.47155 | 38° | 44km/h | 3972m | -1.5m/s | -5.4°C | 33.9% | 625.9hPa | 2.7V | 00:00:00 | 00:00:00 | 00:00:00 | |
| EDDB2-11 | 2026-08-31 19:44:45 | 53.29746 | 16.47090 | 48° | 49km/h | 3979m | -1.4m/s | -5.4°C | 33.7% | 625.4hPa | 2.7V | 00:00:00 | 00:00:00 | 00:00:00 | |
| KRY50SP-1 | 2026-08-31 19:44:41 | 53.29746 | 16.47090 | 50° | 49km/h | 3979m | -1.4m/s | -5.4°C | 33.6% | 625.4hPa | 2.7V | 00:00:00 | 00:00:00 | 00:00:00 | |
| KRY50SP-1 | 2026-08-31 19:44:35 | 53.29687 | 16.46999 | 37° | 53km/h | 3987m | -1.1m/s | -5.4°C | 33.8% | 624.7hPa | 2.7V | 00:00:00 | 00:00:00 | 00:00:00 | |
| SP3BTT-10 | 2026-08-31 19:44:30 | 53.29629 | 16.46934 | 40° | 49km/h | 3995m | -1.0m/s | -5.4°C | 33.8% | 624.0hPa | 2.7V | 00:00:00 | 00:00:00 | 00:00:00 | |
| KRY50SP-1 | 2026-08-31 19:44:29 | 53.29629 | 16.46934 | 41° | 42km/h | 3995m | -1.0m/s | -5.4°C | 33.2% | 624.1hPa | 2.7V | 00:00:00 | 00:00:00 | 00:00:00 | |
| SP3WXH-11 | 2026-08-31 19:44:28 | 53.29613 | 16.46909 | 45° | 42km/h | 3997m | -1.2m/s | -5.5°C | 33.2% | 623.8hPa | 2.7V | 00:00:00 | 00:00:00 | 00:00:00 | |
| KRY50SP-1 | 2026-08-31 19:44:24 | 53.29589 | 16.46866 | 48° | 51km/h | 4001m | -1.2m/s | -5.5°C | 33.8% | 623.6hPa | 2.7V | 00:00:00 | 00:00:00 | 00:00:00 | |
| SONDE2-11 | 2026-08-31 19:44:23 | 53.29571 | 16.46834 | 42° | 53km/h | 4003m | -1.3m/s | -5.5°C | 0% | 623.5hPa | 2.7V | 00:00:00 | 00:00:00 | 00:00:00 | |
| KRY50SP-1 | 2026-08-31 19:44:18 | 53.29529 | 16.46778 | 37° | 51km/h | 4008m | -1.1m/s | -5.5°C | 33.2% | 623.0hPa | 2.7V | 00:00:00 | 00:00:00 | 00:00:00 | |
| EDDB2-12 | 2026-08-31 19:44:16 | 53.29499 | 16.46742 | 34° | 46km/h | 4011m | -1.2m/s | -5.6°C | 33.5% | 622.8hPa | 2.7V | 00:00:00 | 00:00:00 | 00:00:00 | |
| EDDB2-11 | 2026-08-31 19:44:14 | 53.29480 | 16.46720 | 35° | 46km/h | 4014m | -1.2m/s | -5.6°C | 33.7% | 622.5hPa | 2.7V | 00:00:00 | 00:00:00 | 00:00:00 | |
| KRY50SP-1 | 2026-08-31 19:44:13 | 53.29470 | 16.46709 | 36° | 46km/h | 4015m | -1.5m/s | -5.6°C | 33.7% | 622.4hPa | 2.7V | 00:00:00 | 00:00:00 | 00:00:00 | |
| KRY50SP-1 | 2026-08-31 19:44:07 | 53.29425 | 16.46644 | 45° | 51km/h | 4023m | -1.5m/s | -5.6°C | 33.5% | 621.8hPa | 2.7V | 00:00:00 | 00:00:00 | 00:00:00 | |
| SP3WXH-11 | 2026-08-31 19:43:57 | 53.29303 | 16.46492 | 42° | 42km/h | 4040m | -1.1m/s | -5.7°C | 33.3% | 620.4hPa | 2.7V | 00:00:00 | 00:00:00 | 00:00:00 | |
| SONDE2-11 | 2026-08-31 19:43:52 | 53.29268 | 16.46435 | 44° | 51km/h | 4045m | -1.5m/s | -5.8°C | 32.8% | 619.9hPa | 2.7V | 00:00:00 | 00:00:00 | 00:00:00 | |
| EDDB2-12 | 2026-08-31 19:43:45 | 53.29194 | 16.46345 | 33° | 44km/h | 4056m | -1.4m/s | -5.8°C | 32.3% | 619.1hPa | 2.7V | 00:00:00 | 00:00:00 | 00:00:00 | |
| KRY50SP-1 | 2026-08-31 19:43:44 | 53.29193 | 16.46345 | 34° | 44km/h | 4056m | -1.4m/s | -5.8°C | 32.3% | 619.1hPa | 2.7V | 00:00:00 | 00:00:00 | 00:00:00 | |
| EDDB2-11 | 2026-08-31 19:43:43 | 53.29176 | 16.46324 | 39° | 42km/h | 4058m | -1.2m/s | -5.8°C | 32.4% | 619.1hPa | 2.7V | 00:00:00 | 00:00:00 | 00:00:00 | |
| KRY50SP-1 | 2026-08-31 19:43:39 | 53.29151 | 16.46284 | 47° | 47km/h | 4062m | -1.4m/s | -5.9°C | 32.3% | 618.5hPa | 2.7V | 00:00:00 | 00:00:00 | 00:00:00 | |
| KRY50SP-1 | 2026-08-31 19:43:34 | 53.29101 | 16.46208 | 38° | 57km/h | 4069m | -1.4m/s | -5.9°C | 32.0% | 618.2hPa | 2.7V | 00:00:00 | 00:00:00 | 00:00:00 | |
| SP3BTT-10 | 2026-08-31 19:43:30 | 53.29049 | 16.46148 | 38° | 49km/h | 4076m | -1.2m/s | -5.8°C | 32.5% | 617.6hPa | 2.7V | 00:00:00 | 00:00:00 | 00:00:00 | |
| KRY50SP-1 | 2026-08-31 19:43:28 | 53.29041 | 16.46136 | 41° | 44km/h | 4077m | -1.3m/s | -5.9°C | 31.5% | 617.6hPa | 2.7V | 00:00:00 | 00:00:00 | 00:00:00 | |
| SP3WXH-11 | 2026-08-31 19:43:26 | 53.29016 | 16.46096 | 45° | 49km/h | 4081m | -1.4m/s | -5.9°C | 30.3% | 617.1hPa | 2.7V | 00:00:00 | 00:00:00 | 00:00:00 | |
| KRY50SP-1 | 2026-08-31 19:43:22 | 53.28988 | 16.46050 | 43° | 57km/h | 4086m | -1.6m/s | -5.9°C | 30.3% | 616.9hPa | 2.7V | 00:00:00 | 00:00:00 | 00:00:00 | |
| SONDE2-11 | 2026-08-31 19:43:21 | 53.28966 | 16.46020 | 37° | 53km/h | 4089m | -1.6m/s | -5.9°C | 30.2% | 616.7hPa | 2.7V | 00:00:00 | 00:00:00 | 00:00:00 | |
| EDDB2-12 | 2026-08-31 19:43:14 | 53.28896 | 16.45936 | 43° | 44km/h | 4098m | -1.4m/s | -5.9°C | 29.2% | 615.9hPa | 2.7V | 00:00:00 | 00:00:00 | 00:00:00 | |
| EDDB2-11 | 2026-08-31 19:43:12 | 53.28880 | 16.45908 | 47° | 47km/h | 4101m | -1.4m/s | -5.9°C | 29.0% | 615.6hPa | 2.7V | 00:00:00 | 00:00:00 | 00:00:00 | |
| KRY50SP-1 | 2026-08-31 19:43:10 | 53.28871 | 16.45893 | 46° | 51km/h | 4103m | -1.7m/s | -5.9°C | 28.8% | 615.5hPa | 2.7V | 00:00:00 | 00:00:00 | 00:00:00 | |
| KRY50SP-1 | 2026-08-31 19:43:04 | 53.28808 | 16.45806 | 35° | 51km/h | 4112m | -1.2m/s | -6.0°C | 28.4% | 614.9hPa | 2.7V | 00:00:00 | 00:00:00 | 00:00:00 | |
| SP3WXH-11 | 2026-08-31 19:42:55 | 53.28718 | 16.45672 | 42° | 55km/h | 4125m | -1.2m/s | -6.1°C | 28.4% | 613.9hPa | 2.7V | 00:00:00 | 00:00:00 | 00:00:00 | |
| SONDE2-11 | 2026-08-31 19:42:50 | 53.28653 | 16.45594 | 34° | 44km/h | 4133m | -1.4m/s | -6.2°C | 28.5% | 613.3hPa | 2.7V | 00:00:00 | 00:00:00 | 00:00:00 | |
| KRY50SP-1 | 2026-08-31 19:42:47 | 53.28644 | 16.45583 | 38° | 44km/h | 4135m | -1.2m/s | -6.2°C | 28.5% | 613.1hPa | 2.7V | 00:00:00 | 00:00:00 | 00:00:00 | |
| EDDB2-12 | 2026-08-31 19:42:43 | 53.28603 | 16.45518 | 46° | 49km/h | 4141m | -1.3m/s | -6.2°C | 28.5% | 612.5hPa | 2.7V | 00:00:00 | 00:00:00 | 00:00:00 | |
| KRY50SP-1 | 2026-08-31 19:42:42 | 53.28603 | 16.45518 | 48° | 51km/h | 4142m | -1.3m/s | -6.2°C | 28.5% | 612.5hPa | 2.7V | 00:00:00 | 00:00:00 | 00:00:00 | |
| EDDB2-11 | 2026-08-31 19:42:41 | 53.28584 | 16.45486 | 42° | 53km/h | 4144m | -1.3m/s | -6.2°C | 28.6% | 612.2hPa | 2.7V | 00:00:00 | 00:00:00 | 00:00:00 | |
| KRY50SP-1 | 2026-08-31 19:42:36 | 53.28541 | 16.45431 | 34° | 49km/h | 4149m | -1.3m/s | -6.3°C | 28.7% | 612.0hPa | 2.7V | 00:00:00 | 00:00:00 | 00:00:00 | |
| KRY50SP-1 | 2026-08-31 19:42:31 | 53.28494 | 16.45376 | 43° | 44km/h | 4156m | -1.6m/s | -6.4°C | 28.7% | 611.4hPa | 2.7V | 00:00:00 | 00:00:00 | 00:00:00 | |
| KRY50SP-1 | 2026-08-31 19:42:26 | 53.28449 | 16.45305 | 41° | 55km/h | 4163m | -1.3m/s | -6.4°C | 28.7% | 610.9hPa | 2.7V | 00:00:00 | 00:00:00 | 00:00:00 | |
| SP3WXH-11 | 2026-08-31 19:42:24 | 53.28405 | 16.45254 | 31° | 47km/h | 4168m | -1.5m/s | -6.5°C | 28.7% | 610.4hPa | 2.7V | 00:00:00 | 00:00:00 | 00:00:00 | |
| KRY50SP-1 | 2026-08-31 19:42:21 | 53.28395 | 16.45243 | 33° | 46km/h | 4170m | -1.6m/s | -6.5°C | 28.8% | 610.2hPa | 2.7V | 00:00:00 | 00:00:00 | 00:00:00 | |
| SONDE2-11 | 2026-08-31 19:42:19 | 53.28360 | 16.45200 | 43° | 44km/h | 4176m | -1.3m/s | -6.5°C | 28.9% | 609.6hPa | 2.7V | 00:00:00 | 00:00:00 | 00:00:00 | |
| KRY50SP-1 | 2026-08-31 19:42:16 | 53.28351 | 16.45186 | 47° | 46km/h | 4178m | -1.6m/s | -6.5°C | 28.9% | 609.7hPa | 2.7V | 00:00:00 | 00:00:00 | 00:00:00 | |
| SP3BTT-10 | 2026-08-31 19:42:15 | 53.28334 | 16.45157 | 45° | 49km/h | 4180m | -1.5m/s | -6.5°C | 29.5% | 609.3hPa | 2.7V | 00:00:00 | 00:00:00 | 00:00:00 | |
| EDDB2-12 | 2026-08-31 19:42:12 | 53.28304 | 16.45111 | 38° | 57km/h | 4185m | -1.5m/s | -6.6°C | 28.7% | 609.1hPa | 2.7V | 00:00:00 | 00:00:00 | 00:00:00 | |
| KRY50SP-1 | 2026-08-31 19:42:11 | 53.28293 | 16.45097 | 38° | 55km/h | 4186m | -1.6m/s | -6.6°C | 28.5% | 609.0hPa | 2.7V | 00:00:00 | 00:00:00 | 00:00:00 | |
| EDDB2-11 | 2026-08-31 19:42:10 | 53.28282 | 16.45084 | 34° | 53km/h | 4188m | -1.6m/s | -6.6°C | 28.5% | 608.9hPa | 2.7V | 00:00:00 | 00:00:00 | 00:00:00 | |
| KRY50SP-1 | 2026-08-31 19:42:04 | 53.28231 | 16.45029 | 39° | 44km/h | 4196m | -1.7m/s | -6.7°C | 28.0% | 608.3hPa | 2.7V | 00:00:00 | 00:00:00 | 00:00:00 | |
| SP3WXH-11 | 2026-08-31 19:41:53 | 53.28108 | 16.44855 | 36° | 42km/h | 4214m | -1.6m/s | -6.8°C | 27.6% | 606.8hPa | 2.7V | 00:00:00 | 00:00:00 | 00:00:00 | |
| SONDE2-11 | 2026-08-31 19:41:48 | 53.28068 | 16.44792 | 46° | 47km/h | 4223m | -1.5m/s | -6.8°C | 27.2% | 606.2hPa | 2.7V | 00:00:00 | 00:00:00 | 00:00:00 | |
| KRY50SP-1 | 2026-08-31 19:41:42 | 53.28028 | 16.44732 | 37° | 55km/h | 4229m | -1.5m/s | -6.8°C | 27.1% | 605.7hPa | 2.7V | 00:00:00 | 00:00:00 | 00:00:00 | |
| EDDB2-12 | 2026-08-31 19:41:41 | 53.27996 | 16.44696 | 32° | 47km/h | 4233m | -1.5m/s | -6.9°C | 27.1% | 605.5hPa | 2.7V | 00:00:00 | 00:00:00 | 00:00:00 | |
| EDDB2-11 | 2026-08-31 19:41:39 | 53.27986 | 16.44685 | 33° | 44km/h | 4235m | -1.5m/s | -6.9°C | 27.2% | 605.3hPa | 2.7V | 00:00:00 | 00:00:00 | 00:00:00 | |
| KRY50SP-1 | 2026-08-31 19:41:37 | 53.27977 | 16.44675 | 35° | 44km/h | 4237m | -1.6m/s | -6.9°C | 27.1% | 605.2hPa | 2.7V | 00:00:00 | 00:00:00 | 00:00:00 | |
| KRY50SP-1 | 2026-08-31 19:41:31 | 53.27926 | 16.44597 | 45° | 51km/h | 4246m | -1.7m/s | -7.0°C | 27.2% | 604.4hPa | 2.7V | 00:00:00 | 00:00:00 | 00:00:00 | |
| SP3BTT-10 | 2026-08-31 19:41:30 | 53.27906 | 16.44568 | 38° | 49km/h | 4249m | -1.6m/s | -7.0°C | 27.7% | 604.1hPa | 2.7V | 00:00:00 | 00:00:00 | 08:30:00 | |
| KRY50SP-1 | 2026-08-31 19:41:26 | 53.27873 | 16.44530 | 33° | 49km/h | 4254m | -1.6m/s | -7.1°C | 27.0% | 603.7hPa | 2.7V | 00:00:00 | 00:00:00 | 00:00:00 | |
| SP3WXH-11 | 2026-08-31 19:41:22 | 53.27819 | 16.44466 | 42° | 42km/h | 4264m | -1.6m/s | -7.1°C | 27.1% | 603.0hPa | 2.7V | 00:00:00 | 00:00:00 | 00:00:00 | |
| KRY50SP-1 | 2026-08-31 19:41:20 | 53.27819 | 16.44466 | 44° | 44km/h | 4264m | -1.6m/s | -7.1°C | 27.1% | 603.0hPa | 2.7V | 00:00:00 | 00:00:00 | 00:00:00 | |
| SONDE2-11 | 2026-08-31 19:41:17 | 53.27771 | 16.44397 | 36° | 55km/h | 4271m | -1.7m/s | -7.2°C | 27.1% | 602.5hPa | 2.7V | 00:00:00 | 00:00:00 | 00:00:00 | |
| KRY50SP-1 | 2026-08-31 19:41:15 | 53.27771 | 16.44397 | 37° | 55km/h | 4272m | -1.7m/s | -7.2°C | 27.1% | 602.6hPa | 2.7V | 00:00:00 | 00:00:00 | 00:00:00 | |
| EDDB2-12 | 2026-08-31 19:41:10 | 53.27700 | 16.44320 | 35° | 42km/h | 4284m | -1.7m/s | -7.3°C | 27.2% | 601.5hPa | 2.7V | 00:00:00 | 00:00:00 | 00:00:00 | |
| EDDB2-11 | 2026-08-31 19:41:08 | 53.27683 | 16.44297 | 39° | 44km/h | 4287m | -1.6m/s | -7.3°C | 27.3% | 601.3hPa | 2.7V | 00:00:00 | 00:00:00 | 00:00:00 | |
| KRY50SP-1 | 2026-08-31 19:41:05 | 53.27674 | 16.44285 | 39° | 49km/h | 4289m | -1.8m/s | -7.3°C | 27.3% | 601.1hPa | 2.7V | 00:00:00 | 00:00:00 | 00:00:00 | |
| SP3WXH-11 | 2026-08-31 19:40:51 | 53.27512 | 16.44102 | 34° | 53km/h | 4316m | -1.7m/s | -7.5°C | 27.1% | 599.0hPa | 2.7V | 00:00:00 | 00:00:00 | 00:00:00 | |
| SONDE2-11 | 2026-08-31 19:40:46 | 53.27455 | 16.44042 | 25° | 49km/h | 4325m | -1.8m/s | -7.6°C | 26.6% | 598.3hPa | 2.7V | 00:00:00 | 00:00:00 | 00:00:00 | |
| SP3BTT-10 | 2026-08-31 19:40:45 | 53.27455 | 16.44042 | 26° | 46km/h | 4325m | -1.8m/s | -7.5°C | 27.2% | 598.3hPa | 2.7V | 00:00:00 | 00:00:00 | 00:00:00 | |
| KRY50SP-1 | 2026-08-31 19:40:44 | 53.27455 | 16.44042 | 27° | 51km/h | 4325m | -1.8m/s | -7.6°C | 26.6% | 598.3hPa | 2.7V | 00:00:00 | 00:00:00 | 00:00:00 | |
| EDDB2-12 | 2026-08-31 19:40:39 | 53.27396 | 16.43985 | 39° | 40km/h | 4335m | -1.9m/s | -7.6°C | 26.1% | 597.5hPa | 2.7V | 00:00:00 | 00:00:00 | 00:00:00 | |
| EDDB2-11 | 2026-08-31 19:40:37 | 53.27369 | 16.43947 | 41° | 47km/h | 4341m | -1.9m/s | -7.7°C | 26.3% | 597.1hPa | 2.7V | 00:00:00 | 00:00:00 | 00:00:00 | |
| KRY50SP-1 | 2026-08-31 19:40:34 | 53.27359 | 16.43933 | 41° | 53km/h | 4343m | -1.9m/s | -7.7°C | 26.3% | 597.0hPa | 2.7V | 00:00:00 | 00:00:00 | 00:00:00 | |
| KRY50SP-1 | 2026-08-31 19:40:28 | 53.27292 | 16.43864 | 29° | 47km/h | 4354m | -1.9m/s | -7.7°C | 25.6% | 596.2hPa | 2.7V | 00:00:00 | 00:00:00 | 00:00:00 | |
| SP3WXH-11 | 2026-08-31 19:40:20 | 53.27204 | 16.43750 | 39° | 51km/h | 4372m | -1.9m/s | -7.8°C | 24.5% | 594.8hPa | 2.7V | 00:00:00 | 00:00:00 | 00:00:00 | |
| KRY50SP-1 | 2026-08-31 19:40:16 | 53.27182 | 16.43723 | 35° | 53km/h | 4376m | -1.7m/s | -7.9°C | 24.6% | 594.5hPa | 2.7V | 00:00:00 | 00:00:00 | 00:00:00 | |
| SONDE2-11 | 2026-08-31 19:40:15 | 53.27148 | 16.43691 | 27° | 46km/h | 4381m | -1.6m/s | -7.9°C | 24.7% | 594.1hPa | 2.7V | 00:00:00 | 00:00:00 | 00:00:00 | |
| KRY50SP-1 | 2026-08-31 19:40:10 | 53.27118 | 16.43664 | 31° | 42km/h | 4386m | -2.2m/s | -8.0°C | 24.7% | 593.7hPa | 2.7V | 00:00:00 | 00:00:00 | 00:00:00 | |
| EDDB2-12 | 2026-08-31 19:40:08 | 53.27084 | 16.43622 | 40° | 42km/h | 4394m | -2.0m/s | -8.0°C | 24.6% | 593.1hPa | 2.7V | 00:00:00 | 00:00:00 | 00:00:00 | |
| KRY50SP-1 | 2026-08-31 19:40:05 | 53.27075 | 16.43610 | 41° | 46km/h | 4396m | -1.8m/s | -8.0°C | 24.5% | 593.0hPa | 2.7V | 00:00:00 | 00:00:00 | 00:00:00 | |
| SP3WXH-11 | 2026-08-31 19:39:49 | 53.26911 | 16.43426 | 38° | 40km/h | 4432m | -1.9m/s | -8.3°C | 22.6% | 590.2hPa | 2.7V | 00:00:00 | 00:00:00 | 00:00:00 | |
| KRY50SP-1 | 2026-08-31 19:39:48 | 53.26919 | 16.43437 | 38° | 40km/h | 4431m | -2.0m/s | -8.3°C | 22.8% | 590.4hPa | 2.7V | 00:00:00 | 00:00:00 | 00:00:00 | |
| KRY50SP-1 | 2026-08-31 19:39:43 | 53.26877 | 16.43377 | 43° | 47km/h | 4439m | -1.6m/s | -8.4°C | 22.5% | 589.6hPa | 2.7V | 00:00:00 | 00:00:00 | 00:00:00 | |
| KRY50SP-1 | 2026-08-31 19:39:38 | 53.26832 | 16.43315 | 40° | 42km/h | 4449m | -2.0m/s | -8.4°C | 22.4% | 588.9hPa | 2.7V | 00:00:00 | 00:00:00 | 00:00:00 | |
| EDDB2-12 | 2026-08-31 19:39:37 | 53.26807 | 16.43281 | 37° | 44km/h | 4455m | -2.0m/s | -8.4°C | 21.5% | 588.5hPa | 2.7V | 00:00:00 | 00:00:00 | 00:00:00 | |
| EDDB2-11 | 2026-08-31 19:39:35 | 53.26780 | 16.43249 | 33° | 40km/h | 4461m | -2.2m/s | -8.4°C | 20.3% | 588.0hPa | 2.7V | 00:00:00 | 00:00:00 | 00:00:00 | |
| KRY50SP-1 | 2026-08-31 19:39:32 | 53.26780 | 16.43249 | 35° | 42km/h | 4461m | -2.2m/s | -8.4°C | 20.3% | 588.0hPa | 2.7V | 00:00:00 | 00:00:00 | 00:00:00 | |
| SP3BTT-10 | 2026-08-31 19:39:31 | 53.26764 | 16.43230 | 39° | 46km/h | 4466m | -2.1m/s | -8.4°C | 19.9% | 587.6hPa | 2.7V | 00:00:00 | 00:00:00 | 00:00:00 | |
| KRY50SP-1 | 2026-08-31 19:39:26 | 53.26732 | 16.43184 | 46° | 44km/h | 4474m | -2.0m/s | -8.4°C | 19.8% | 586.9hPa | 2.6V | 00:00:00 | 00:00:00 | 00:00:00 | |
| KRY50SP-1 | 2026-08-31 19:39:20 | 53.26677 | 16.43101 | 41° | 49km/h | 4485m | -1.7m/s | -8.5°C | 21.1% | 586.0hPa | 2.6V | 00:00:00 | 00:00:00 | 00:00:00 | |
| SP3WXH-11 | 2026-08-31 19:39:18 | 53.26644 | 16.43050 | 42° | 44km/h | 4492m | -2.6m/s | -8.6°C | 21.6% | 585.5hPa | 2.6V | 00:00:00 | 00:00:00 | 00:00:00 | |
| KRY50SP-1 | 2026-08-31 19:39:14 | 53.26627 | 16.43023 | 43° | 49km/h | 4497m | -2.3m/s | -8.6°C | 22.0% | 585.2hPa | 2.6V | 00:00:00 | 00:00:00 | 00:00:00 | |
| SONDE2-11 | 2026-08-31 19:39:13 | 53.26599 | 16.42981 | 39° | 47km/h | 4503m | -1.9m/s | -8.6°C | 22.4% | 584.8hPa | 2.6V | 00:00:00 | 00:00:00 | 00:00:00 | |
| KRY50SP-1 | 2026-08-31 19:39:08 | 53.26573 | 16.42943 | 41° | 42km/h | 4509m | -1.9m/s | -8.7°C | 23.0% | 584.3hPa | 2.6V | 00:00:00 | 00:00:00 | 00:00:00 | |
| EDDB2-12 | 2026-08-31 19:39:06 | 53.26541 | 16.42890 | 47° | 47km/h | 4517m | -1.8m/s | -8.7°C | 23.4% | 583.6hPa | 2.6V | 00:00:00 | 00:00:00 | 00:00:00 | |
| EDDB2-11 | 2026-08-31 19:39:04 | 53.26525 | 16.42860 | 47° | 46km/h | 4520m | -1.9m/s | -8.7°C | 23.7% | 583.3hPa | 2.6V | 00:00:00 | 00:00:00 | 00:00:00 | |
| KRY50SP-1 | 2026-08-31 19:39:02 | 53.26525 | 16.42860 | 49° | 47km/h | 4520m | -1.9m/s | -8.7°C | 23.7% | 583.3hPa | 2.6V | 00:00:00 | 00:00:00 | 00:00:00 | |
| SP3WXH-11 | 2026-08-31 19:38:47 | 53.26373 | 16.42625 | 46° | 44km/h | 4553m | -2.3m/s | -8.7°C | 19.2% | 580.6hPa | 2.6V | 00:00:00 | 00:00:00 | 00:00:00 | |
| SONDE2-11 | 2026-08-31 19:38:41 | 53.26331 | 16.42549 | 43° | 51km/h | 4563m | -1.9m/s | -8.8°C | 18.4% | 580.1hPa | 2.6V | 00:00:00 | 00:00:00 | 00:00:00 | |
| KRY50SP-1 | 2026-08-31 19:38:40 | 53.26331 | 16.42549 | 45° | 51km/h | 4563m | -1.9m/s | -8.8°C | 18.4% | 580.1hPa | 2.6V | 00:00:00 | 00:00:00 | 00:00:00 | |
| KRY50SP-1 | 2026-08-31 19:38:34 | 53.26278 | 16.42458 | 47° | 51km/h | 4574m | -2.1m/s | -8.8°C | 16.6% | 579.3hPa | 2.6V | 00:00:00 | 00:00:00 | 00:00:00 | |
| EDDB2-11 | 2026-08-31 19:38:33 | 53.26248 | 16.42411 | 41° | 53km/h | 4580m | -1.9m/s | -8.8°C | 16.0% | 578.8hPa | 2.6V | 00:00:00 | 00:00:00 | 00:00:00 | |
| SP3BTT-10 | 2026-08-31 19:38:31 | 53.26238 | 16.42396 | 41° | 51km/h | 4582m | -1.8m/s | -8.7°C | 16.3% | 578.6hPa | 2.6V | 00:00:00 | 00:00:00 | 00:00:00 | |
| KRY50SP-1 | 2026-08-31 19:38:28 | 53.26219 | 16.42368 | 42° | 47km/h | 4585m | -2.1m/s | -8.8°C | 15.2% | 578.5hPa | 2.6V | 00:00:00 | 00:00:00 | 00:00:00 | |
| KRY50SP-1 | 2026-08-31 19:38:23 | 53.26177 | 16.42294 | 49° | 51km/h | 4597m | -2.4m/s | -8.8°C | 14.3% | 577.6hPa | 2.6V | 00:00:00 | 00:00:00 | 00:00:00 | |
| KRY50SP-1 | 2026-08-31 19:38:18 | 53.26128 | 16.42210 | 42° | 57km/h | 4607m | -2.1m/s | -8.9°C | 13.5% | 576.9hPa | 2.6V | 00:00:00 | 00:00:00 | 00:00:00 | |
| SP3WXH-11 | 2026-08-31 19:38:16 | 53.26087 | 16.42155 | 37° | 46km/h | 4615m | -1.8m/s | -8.9°C | 13.4% | 576.3hPa | 2.6V | 00:00:00 | 00:00:00 | 00:00:00 | |
| KRY50SP-1 | 2026-08-31 19:38:11 | 53.26062 | 16.42117 | 48° | 46km/h | 4620m | -1.6m/s | -8.9°C | 13.1% | 576.0hPa | 2.6V | 00:00:00 | 00:00:00 | 00:00:00 | |
| EDDB2-12 | 2026-08-31 19:38:04 | 53.25980 | 16.41974 | 38° | 51km/h | 4637m | -1.9m/s | -9.0°C | 11.5% | 574.5hPa | 2.6V | 00:00:00 | 00:00:00 | 00:00:00 | |
| EDDB2-11 | 2026-08-31 19:38:02 | 53.25959 | 16.41948 | 37° | 49km/h | 4641m | -1.8m/s | -9.0°C | 11.4% | 574.4hPa | 2.6V | 00:00:00 | 00:00:00 | 00:00:00 | |
| SP3BTT-10 | 2026-08-31 19:38:01 | 53.25959 | 16.41948 | 38° | 51km/h | 4641m | -1.7m/s | -9.0°C | 11.8% | 574.3hPa | 2.6V | 00:00:00 | 00:00:00 | 00:00:00 | |
| KRY50SP-1 | 2026-08-31 19:37:57 | 53.25933 | 16.41910 | 47° | 47km/h | 4647m | -1.6m/s | -9.0°C | 11.1% | 573.9hPa | 2.7V | 00:00:00 | 00:00:00 | 00:00:00 | |
| SP3WXH-11 | 2026-08-31 19:37:45 | 53.25801 | 16.41699 | 47° | 44km/h | 4671m | -1.6m/s | -9.1°C | 9.8% | 572.2hPa | 2.7V | 00:00:00 | 00:00:00 | 00:00:00 | |
| SONDE2-11 | 2026-08-31 19:37:39 | 53.25760 | 16.41619 | 49° | 53km/h | 4680m | -1.8m/s | -9.2°C | 10.0% | 571.5hPa | 2.7V | 00:00:00 | 00:00:00 | 00:00:00 | |
| EDDB2-12 | 2026-08-31 19:37:33 | 53.25689 | 16.41513 | 41° | 44km/h | 4692m | -1.5m/s | -9.3°C | 10.1% | 570.6hPa | 2.7V | 00:00:00 | 00:00:00 | 00:00:00 | |
| EDDB2-11 | 2026-08-31 19:37:31 | 53.25672 | 16.41486 | 48° | 44km/h | 4695m | -1.6m/s | -9.2°C | 10.0% | 570.3hPa | 2.7V | 00:00:00 | 00:00:00 | 00:00:00 | |
| KRY50SP-1 | 2026-08-31 19:37:20 | 53.25590 | 16.41335 | 42° | 58km/h | 4711m | -1.6m/s | -9.2°C | 12.5% | 569.1hPa | 2.7V | 00:00:00 | 00:00:00 | 00:00:00 | |
| SP3BTT-10 | 2026-08-31 19:37:15 | 53.25534 | 16.41254 | 46° | 51km/h | 4720m | -2.0m/s | -9.2°C | 13.0% | 568.4hPa | 2.7V | 00:00:00 | 00:00:00 | 00:00:00 | |
| SP3WXH-11 | 2026-08-31 19:37:13 | 53.25518 | 16.41224 | 50° | 47km/h | 4724m | -1.9m/s | -9.2°C | 11.8% | 568.3hPa | 2.7V | 00:00:00 | 00:00:00 | 00:00:00 | |
| EDDB2-12 | 2026-08-31 19:37:02 | 53.25403 | 16.41039 | 46° | 44km/h | 4743m | -1.6m/s | -9.3°C | 13.0% | 566.8hPa | 2.7V | 00:00:00 | 00:00:00 | 00:00:00 | |
| EDDB2-11 | 2026-08-31 19:37:00 | 53.25388 | 16.41010 | 52° | 49km/h | 4746m | -1.5m/s | -9.3°C | 14.1% | 566.6hPa | 2.7V | 00:00:00 | 00:00:00 | 00:00:00 | |
| KRY50SP-1 | 2026-08-31 19:36:42 | 53.25242 | 16.40762 | 54° | 51km/h | 4773m | -1.7m/s | -9.5°C | 14.5% | 564.7hPa | 2.7V | 00:00:00 | 00:00:00 | 00:00:00 | |
| SONDE2-11 | 2026-08-31 19:36:37 | 53.25184 | 16.40660 | 40° | 53km/h | 4783m | -1.9m/s | -9.6°C | 13.1% | 564.1hPa | 2.7V | 00:00:00 | 00:00:00 | 00:00:00 | |
| KRY50SP-1 | 2026-08-31 19:36:35 | 53.25173 | 16.40645 | 39° | 53km/h | 4784m | -1.5m/s | -9.6°C | 12.9% | 563.8hPa | 2.7V | 00:00:00 | 00:00:00 | 00:00:00 | |
| SP3BTT-10 | 2026-08-31 19:36:30 | 53.25121 | 16.40564 | 49° | 53km/h | 4794m | -1.9m/s | -9.7°C | 14.1% | 563.1hPa | 2.7V | 00:00:00 | 00:00:00 | 00:00:00 | |
| EDDB2-11 | 2026-08-31 19:36:29 | 53.25105 | 16.40531 | 53° | 49km/h | 4797m | -1.6m/s | -9.7°C | 13.6% | 563.1hPa | 2.7V | 00:00:00 | 00:00:00 | 00:00:00 | |
| KRY50SP-1 | 2026-08-31 19:36:24 | 53.25078 | 16.40477 | 49° | 57km/h | 4802m | -1.7m/s | -9.8°C | 12.9% | 562.6hPa | 2.7V | 00:00:00 | 00:00:00 | 00:00:00 | |
| KRY50SP-1 | 2026-08-31 19:36:18 | 53.25018 | 16.40384 | 46° | 49km/h | 4811m | -1.5m/s | -9.8°C | 12.7% | 561.9hPa | 2.7V | 00:00:00 | 00:00:00 | 00:00:00 | |
| KRY50SP-1 | 2026-08-31 19:36:12 | 53.24969 | 16.40287 | 50° | 55km/h | 4821m | -1.7m/s | -9.9°C | 14.1% | 561.3hPa | 2.7V | 00:00:00 | 00:00:00 | 00:00:00 | |
| SP3WXH-11 | 2026-08-31 19:36:11 | 53.24950 | 16.40250 | 47° | 57km/h | 4824m | -1.8m/s | -10.0°C | 14.3% | 561.0hPa | 2.7V | 00:00:00 | 00:00:00 | 00:00:00 | |
| SONDE2-11 | 2026-08-31 19:36:06 | 53.24897 | 16.40171 | 39° | 47km/h | 4831m | -1.4m/s | -10.0°C | 14.7% | 560.3hPa | 2.7V | 00:00:00 | 00:00:00 | 00:00:00 | |
| EDDB2-12 | 2026-08-31 19:35:59 | 53.24842 | 16.40057 | 54° | 53km/h | 4841m | -1.8m/s | -10.1°C | 16.5% | 559.6hPa | 2.7V | 00:00:00 | 00:00:00 | 00:00:00 | |
| KRY50SP-1 | 2026-08-31 19:35:57 | 53.24833 | 16.40038 | 50° | 57km/h | 4844m | -1.9m/s | -10.1°C | 16.6% | 559.6hPa | 2.7V | 00:00:00 | 00:00:00 | 00:00:00 | |
| SP3BTT-10 | 2026-08-31 19:35:45 | 53.24717 | 16.39831 | 54° | 55km/h | 4864m | -1.3m/s | -10.2°C | 17.8% | 557.9hPa | 2.7V | 00:00:00 | 00:00:00 | 08:30:00 | |
| SP3WXH-11 | 2026-08-31 19:35:40 | 53.24668 | 16.39742 | 41° | 55km/h | 4871m | -1.8m/s | -10.3°C | 17.3% | 557.4hPa | 2.5V | 00:00:00 | 00:00:00 | 00:00:00 | |
| SONDE2-11 | 2026-08-31 19:35:35 | 53.24618 | 16.39672 | 43° | 46km/h | 4880m | -1.8m/s | -10.4°C | 17.4% | 556.8hPa | 2.5V | 00:00:00 | 00:00:00 | 00:00:00 | |
| EDDB2-12 | 2026-08-31 19:35:28 | 53.24557 | 16.39551 | 46° | 58km/h | 4890m | -1.9m/s | -10.4°C | 16.5% | 556.1hPa | 2.5V | 00:00:00 | 00:00:00 | 00:00:00 | |
| EDDB2-11 | 2026-08-31 19:35:26 | 53.24535 | 16.39515 | 42° | 60km/h | 4893m | -1.6m/s | -10.4°C | 16.8% | 555.9hPa | 2.5V | 00:00:00 | 00:00:00 | 00:00:00 | |
| KRY50SP-1 | 2026-08-31 19:35:11 | 53.24397 | 16.39292 | 43° | 57km/h | 4916m | -1.9m/s | -10.6°C | 17.5% | 554.2hPa | 2.5V | 00:00:00 | 00:00:00 | 00:00:00 | |
| SP3WXH-11 | 2026-08-31 19:35:09 | 53.24365 | 16.39247 | 35° | 53km/h | 4921m | -1.6m/s | -10.6°C | 17.6% | 553.9hPa | 2.5V | 00:00:00 | 00:00:00 | 00:00:00 | |
| KRY50SP-1 | 2026-08-31 19:35:06 | 53.24343 | 16.39220 | 39° | 49km/h | 4924m | -1.6m/s | -10.6°C | 17.7% | 553.7hPa | 2.5V | 00:00:00 | 00:00:00 | 00:00:00 | |
| SONDE2-11 | 2026-08-31 19:35:04 | 53.24316 | 16.39178 | 48° | 47km/h | 4929m | -1.5m/s | -10.7°C | 17.3% | 553.3hPa | 2.5V | 00:00:00 | 00:00:00 | 00:00:00 | |
| EDDB2-12 | 2026-08-31 19:34:57 | 53.24249 | 16.39055 | 39° | 58km/h | 4940m | -1.7m/s | -10.7°C | 18.2% | 552.5hPa | 2.5V | 00:00:00 | 00:00:00 | 00:00:00 | |
| EDDB2-11 | 2026-08-31 19:34:55 | 53.24226 | 16.39025 | 38° | 57km/h | 4943m | -1.4m/s | -10.7°C | 18.6% | 552.5hPa | 2.5V | 00:00:00 | 00:00:00 | 00:00:00 | |
| KRY50SP-1 | 2026-08-31 19:34:50 | 53.24186 | 16.38971 | 45° | 47km/h | 4949m | -1.5m/s | -10.7°C | 17.7% | 551.9hPa | 2.5V | 00:00:00 | 00:00:00 | 00:00:00 | |
| KRY50SP-1 | 2026-08-31 19:34:45 | 53.24142 | 16.38889 | 50° | 57km/h | 4957m | -1.7m/s | -10.8°C | 17.7% | 551.4hPa | 2.5V | 00:00:00 | 00:00:00 | 00:00:00 | |
| SP3WXH-11 | 2026-08-31 19:34:38 | 53.24058 | 16.38763 | 46° | 46km/h | 4969m | -1.3m/s | -10.9°C | 17.6% | 550.5hPa | 2.5V | 00:00:00 | 00:00:00 | 00:00:00 | |
| KRY50SP-1 | 2026-08-31 19:34:36 | 53.24050 | 16.38749 | 50° | 46km/h | 4970m | -1.7m/s | -10.9°C | 17.6% | 550.2hPa | 2.5V | 00:00:00 | 00:00:00 | 00:00:00 | |
| SONDE2-11 | 2026-08-31 19:34:33 | 53.24018 | 16.38683 | 50° | 55km/h | 4977m | -1.7m/s | -10.9°C | 17.3% | 549.9hPa | 2.5V | 00:00:00 | 00:00:00 | 00:00:00 | |
| KRY50SP-1 | 2026-08-31 19:34:30 | 53.23999 | 16.38645 | 51° | 58km/h | 4980m | -1.9m/s | -10.9°C | 17.0% | 549.7hPa | 2.5V | 00:00:00 | 00:00:00 | 00:00:00 | |
| EDDB2-12 | 2026-08-31 19:34:26 | 53.23945 | 16.38560 | 39° | 55km/h | 4988m | -1.6m/s | -11.0°C | 17.6% | 549.1hPa | 2.5V | 00:00:00 | 00:00:00 | 00:00:00 | |
| KRY50SP-1 | 2026-08-31 19:34:25 | 53.23945 | 16.38560 | 40° | 55km/h | 4988m | -1.6m/s | -11.0°C | 17.6% | 549.1hPa | 2.5V | 00:00:00 | 00:00:00 | 00:00:00 | |
| EDDB2-11 | 2026-08-31 19:34:24 | 53.23917 | 16.38518 | 44° | 47km/h | 4992m | -2.1m/s | -11.0°C | 17.6% | 548.8hPa | 2.5V | 00:00:00 | 00:00:00 | 00:00:00 | |
| KRY50SP-1 | 2026-08-31 19:34:19 | 53.23891 | 16.38471 | 51° | 53km/h | 4998m | -2.2m/s | -11.1°C | 17.3% | 548.4hPa | 2.5V | 00:00:00 | 00:00:00 | 00:00:00 | |
| SP3BTT-10 | 2026-08-31 19:34:14 | 53.23832 | 16.38361 | 43° | 57km/h | 5009m | -1.5m/s | -11.1°C | 18.1% | 547.5hPa | 2.5V | 00:00:00 | 00:00:00 | 00:00:00 | |
| KRY50SP-1 | 2026-08-31 19:34:13 | 53.23832 | 16.38361 | 43° | 62km/h | 5009m | -1.6m/s | -11.2°C | 17.5% | 547.6hPa | 2.5V | 00:00:00 | 00:00:00 | 00:00:00 | |
| SP3WXH-11 | 2026-08-31 19:34:07 | 53.23762 | 16.38253 | 51° | 53km/h | 5021m | -1.6m/s | -11.3°C | 17.9% | 546.8hPa | 2.5V | 00:00:00 | 00:00:00 | 00:00:00 | |
| SONDE2-11 | 2026-08-31 19:34:02 | 53.23717 | 16.38159 | 50° | 62km/h | 5031m | -1.8m/s | -11.3°C | 17.8% | 546.1hPa | 2.5V | 00:00:00 | 00:00:00 | 00:00:00 | |
| EDDB2-12 | 2026-08-31 19:33:55 | 53.23641 | 16.38037 | 39° | 51km/h | 5043m | -1.9m/s | -11.4°C | 18.1% | 545.3hPa | 2.5V | 00:00:00 | 00:00:00 | 00:00:00 | |
| EDDB2-11 | 2026-08-31 19:33:54 | 53.23623 | 16.38007 | 47° | 47km/h | 5047m | -2.2m/s | -11.5°C | 18.2% | 545.1hPa | 2.5V | 00:00:00 | 00:00:00 | 00:00:00 | |
| SP3WXH-11 | 2026-08-31 19:33:36 | 53.23456 | 16.37710 | 50° | 53km/h | 5075m | -2.0m/s | -11.7°C | 18.4% | 543.0hPa | 2.5V | 00:00:00 | 00:00:00 | 00:00:00 | |
| SONDE2-11 | 2026-08-31 19:33:31 | 53.23407 | 16.37614 | 44° | 62km/h | 5083m | -1.5m/s | -11.7°C | 18.4% | 542.5hPa | 2.5V | 00:00:00 | 00:00:00 | 00:00:00 | |
| KRY50SP-1 | 2026-08-31 19:33:29 | 53.23372 | 16.37560 | 42° | 60km/h | 5088m | -1.7m/s | -11.7°C | 18.2% | 542.2hPa | 2.5V | 00:00:00 | 00:00:00 | 00:00:00 | |
| EDDB2-12 | 2026-08-31 19:33:24 | 53.23332 | 16.37499 | 44° | 49km/h | 5094m | -2.2m/s | -11.8°C | 18.3% | 541.6hPa | 2.5V | 00:00:00 | 00:00:00 | 00:00:00 | |
| EDDB2-11 | 2026-08-31 19:33:22 | 53.23315 | 16.37466 | 50° | 53km/h | 5098m | -1.9m/s | -11.8°C | 18.4% | 541.5hPa | 2.5V | 00:00:00 | 00:00:00 | 00:00:00 | |
| KRY50SP-1 | 2026-08-31 19:33:21 | 53.23315 | 16.37466 | 52° | 53km/h | 5098m | -1.9m/s | -11.8°C | 18.4% | 541.5hPa | 2.5V | 00:00:00 | 00:00:00 | 00:00:00 | |
| KRY50SP-1 | 2026-08-31 19:33:18 | 53.23201 | 16.37271 | 42° | 51km/h | 5116m | -2.0m/s | -11.9°C | 18.2% | 540.3hPa | 2.5V | 00:00:00 | 00:00:00 | 00:00:00 | |
| SP3WXH-11 | 2026-08-31 19:33:05 | 53.23146 | 16.37164 | 51° | 62km/h | 5125m | -1.4m/s | -12.0°C | 18.3% | 539.5hPa | 2.5V | 00:00:00 | 00:00:00 | 00:00:00 | |
| KRY50SP-1 | 2026-08-31 19:33:04 | 53.23146 | 16.37164 | 52° | 64km/h | 5125m | -1.4m/s | -12.0°C | 18.3% | 539.5hPa | 2.5V | 00:00:00 | 00:00:00 | 00:00:00 | |
| SONDE2-11 | 2026-08-31 19:33:00 | 53.23091 | 16.37070 | 39° | 57km/h | 5132m | -1.8m/s | -12.1°C | 18.4% | 539.1hPa | 2.5V | 00:00:00 | 00:00:00 | 00:00:00 | |
| EDDB2-12 | 2026-08-31 19:32:53 | 53.23025 | 16.36956 | 53° | 55km/h | 5143m | -1.9m/s | -12.2°C | 18.3% | 538.3hPa | 2.5V | 00:00:00 | 00:00:00 | 00:00:00 | |
| EDDB2-11 | 2026-08-31 19:32:51 | 53.23007 | 16.36917 | 50° | 60km/h | 5146m | -1.9m/s | -12.2°C | 18.3% | 538.1hPa | 2.5V | 00:00:00 | 00:00:00 | 00:00:00 | |
| KRY50SP-1 | 2026-08-31 19:32:46 | 53.22962 | 16.36840 | 44° | 64km/h | 5153m | -1.6m/s | -12.2°C | 18.4% | 537.6hPa | 2.5V | 00:00:00 | 00:00:00 | 00:00:00 | |
| SP3BTT-10 | 2026-08-31 19:32:44 | 53.22929 | 16.36792 | 41° | 58km/h | 5158m | -1.5m/s | -12.2°C | 19.0% | 537.2hPa | 2.5V | 00:00:00 | 00:00:00 | 00:00:00 | |
| KRY50SP-1 | 2026-08-31 19:32:41 | 53.22910 | 16.36760 | 49° | 53km/h | 5161m | -1.4m/s | -12.3°C | 18.2% | 537.0hPa | 2.5V | 00:00:00 | 00:00:00 | 00:00:00 | |
| KRY50SP-1 | 2026-08-31 19:32:35 | 53.22855 | 16.36643 | 50° | 66km/h | 5168m | -1.2m/s | -12.4°C | 18.0% | 536.3hPa | 2.5V | 00:00:00 | 00:00:00 | 00:00:00 | |
| SP3WXH-11 | 2026-08-31 19:32:34 | 53.22832 | 16.36601 | 45° | 66km/h | 5170m | -1.5m/s | -12.4°C | 17.9% | 536.2hPa | 2.5V | 00:00:00 | 00:00:00 | 00:00:00 | |
| KRY50SP-1 | 2026-08-31 19:32:30 | 53.22798 | 16.36549 | 40° | 57km/h | 5174m | -1.5m/s | -12.4°C | 17.3% | 535.9hPa | 2.5V | 00:00:00 | 00:00:00 | 00:00:00 | |
| SONDE2-11 | 2026-08-31 19:32:29 | 53.22778 | 16.36518 | 43° | 53km/h | 5177m | -1.9m/s | -12.4°C | 16.9% | 535.8hPa | 2.5V | 00:00:00 | 00:00:00 | 00:00:00 | |
| KRY50SP-1 | 2026-08-31 19:32:25 | 53.22750 | 16.36470 | 51° | 53km/h | 5183m | -1.9m/s | -12.4°C | 16.5% | 535.3hPa | 2.5V | 00:00:00 | 00:00:00 | 00:00:00 | |
| EDDB2-12 | 2026-08-31 19:32:22 | 53.22716 | 16.36394 | 52° | 60km/h | 5189m | -1.7m/s | -12.5°C | 16.2% | 534.9hPa | 2.5V | 00:00:00 | 00:00:00 | 00:00:00 | |
| EDDB2-11 | 2026-08-31 19:32:20 | 53.22695 | 16.36354 | 45° | 64km/h | 5192m | -1.3m/s | -12.5°C | 16.3% | 534.8hPa | 2.5V | 00:00:00 | 00:00:00 | 00:00:00 | |
| KRY50SP-1 | 2026-08-31 19:32:15 | 53.22650 | 16.36282 | 44° | 57km/h | 5198m | -1.7m/s | -12.6°C | 16.6% | 534.3hPa | 2.5V | 00:00:00 | 00:00:00 | 00:00:00 | |
| KRY50SP-1 | 2026-08-31 19:32:10 | 53.22603 | 16.36200 | 56° | 53km/h | 5205m | -1.4m/s | -12.6°C | 16.6% | 533.9hPa | 2.5V | 00:00:00 | 00:00:00 | 00:00:00 | |
| KRY50SP-1 | 2026-08-31 19:32:05 | 53.22558 | 16.36100 | 54° | 62km/h | 5213m | -1.8m/s | -12.7°C | 16.7% | 533.3hPa | 2.5V | 00:00:00 | 00:00:00 | 00:00:00 | |
| SP3WXH-11 | 2026-08-31 19:32:03 | 53.22526 | 16.36040 | 44° | 64km/h | 5217m | -1.3m/s | -12.8°C | 16.9% | 533.0hPa | 2.5V | 00:00:00 | 00:00:00 | 00:00:00 | |
| SONDE2-11 | 2026-08-31 19:31:58 | 53.22477 | 16.35955 | 51° | 51km/h | 5224m | -1.4m/s | -12.8°C | 17.0% | 532.5hPa | 2.5V | 00:00:00 | 00:00:00 | 00:00:00 | |
| EDDB2-12 | 2026-08-31 19:31:51 | 53.22416 | 16.35817 | 52° | 66km/h | 5235m | -1.3m/s | -12.9°C | 17.7% | 531.8hPa | 2.5V | 00:00:00 | 00:00:00 | 00:00:00 | |
| EDDB2-11 | 2026-08-31 19:31:49 | 53.22393 | 16.35774 | 47° | 66km/h | 5237m | -1.6m/s | -13.0°C | 17.8% | 531.5hPa | 2.5V | 00:00:00 | 00:00:00 | 00:00:00 | |
| KRY50SP-1 | 2026-08-31 19:31:44 | 53.22350 | 16.35703 | 44° | 55km/h | 5243m | -1.6m/s | -13.0°C | 18.1% | 531.1hPa | 2.5V | 00:00:00 | 00:00:00 | 00:00:00 | |
| KRY50SP-1 | 2026-08-31 19:31:38 | 53.22297 | 16.35596 | 55° | 58km/h | 5254m | -1.6m/s | -13.1°C | 18.9% | 530.5hPa | 2.5V | 00:00:00 | 00:00:00 | 00:00:00 | |
| SP3WXH-11 | 2026-08-31 19:31:32 | 53.22224 | 16.35455 | 42° | 58km/h | 5263m | -1.5m/s | -13.2°C | 19.7% | 529.9hPa | 2.5V | 00:00:00 | 00:00:00 | 00:00:00 | |
| SONDE2-11 | 2026-08-31 19:31:27 | 53.22177 | 16.35371 | 53° | 55km/h | 5270m | -1.4m/s | -13.3°C | 20.4% | 529.5hPa | 2.5V | 00:00:00 | 00:00:00 | 00:00:00 | |
| KRY50SP-1 | 2026-08-31 19:31:25 | 53.22169 | 16.35352 | 57° | 57km/h | 5272m | -1.4m/s | -13.3°C | 20.4% | 529.5hPa | 2.5V | 00:00:00 | 00:00:00 | 00:00:00 | |
| EDDB2-12 | 2026-08-31 19:31:20 | 53.22110 | 16.35226 | 45° | 64km/h | 5280m | -1.4m/s | -13.3°C | 20.5% | 528.8hPa | 2.5V | 00:00:00 | 00:00:00 | 00:00:00 | |
| EDDB2-11 | 2026-08-31 19:31:18 | 53.22086 | 16.35189 | 42° | 62km/h | 5283m | -1.6m/s | -13.4°C | 20.5% | 528.6hPa | 2.5V | 00:00:00 | 00:00:00 | 00:00:00 | |
| SP3BTT-10 | 2026-08-31 19:31:14 | 53.22044 | 16.35123 | 47° | 60km/h | 5290m | -1.3m/s | -13.4°C | 21.4% | 528.2hPa | 2.5V | 00:00:00 | 00:00:00 | 00:00:00 | |
| KRY50SP-1 | 2026-08-31 19:31:10 | 53.22019 | 16.35071 | 56° | 57km/h | 5294m | -1.6m/s | -13.5°C | 21.2% | 527.9hPa | 2.5V | 00:00:00 | 00:00:00 | 00:00:00 | |
| KRY50SP-1 | 2026-08-31 19:31:04 | 53.21959 | 16.34945 | 47° | 66km/h | 5303m | -1.7m/s | -13.5°C | 22.2% | 527.2hPa | 2.5V | 00:00:00 | 00:00:00 | 00:00:00 | |
| SP3WXH-11 | 2026-08-31 19:31:01 | 53.21913 | 16.34872 | 41° | 57km/h | 5309m | -1.7m/s | -13.6°C | 22.2% | 526.9hPa | 2.5V | 00:00:00 | 00:00:00 | 00:00:00 | |
| SONDE2-11 | 2026-08-31 19:30:56 | 53.21866 | 16.34791 | 52° | 55km/h | 5318m | -1.3m/s | -13.7°C | 22.4% | 526.3hPa | 2.5V | 00:00:00 | 00:00:00 | 00:00:00 | |
| EDDB2-12 | 2026-08-31 19:30:49 | 53.21798 | 16.34647 | 45° | 66km/h | 5329m | -1.4m/s | -13.8°C | 22.9% | 525.5hPa | 2.5V | 00:00:00 | 00:00:00 | 00:00:00 | |
| EDDB2-11 | 2026-08-31 19:30:47 | 53.21774 | 16.34609 | 41° | 64km/h | 5332m | -1.5m/s | -13.8°C | 22.9% | 525.3hPa | 2.5V | 00:00:00 | 00:00:00 | 00:00:00 | |
| KRY50SP-1 | 2026-08-31 19:30:43 | 53.21740 | 16.34559 | 42° | 55km/h | 5337m | -1.5m/s | -13.9°C | 22.9% | 524.9hPa | 2.5V | 00:00:00 | 00:00:00 | 00:00:00 | |
| KRY50SP-1 | 2026-08-31 19:30:36 | 53.21676 | 16.34435 | 55° | 62km/h | 5348m | -1.7m/s | -14.0°C | 23.3% | 524.2hPa | 2.5V | 00:00:00 | 00:00:00 | 00:00:00 | |
| SP3WXH-11 | 2026-08-31 19:30:30 | 53.21599 | 16.34292 | 42° | 62km/h | 5360m | -1.7m/s | -14.1°C | 23.9% | 523.3hPa | 2.5V | 00:00:00 | 00:00:00 | 00:00:00 | |
| SP3BTT-10 | 2026-08-31 19:30:29 | 53.21587 | 16.34275 | 41° | 60km/h | 5361m | -1.6m/s | -14.0°C | 25.0% | 523.2hPa | 2.5V | 00:00:00 | 00:00:00 | 00:00:00 | |
| SONDE2-11 | 2026-08-31 19:30:25 | 53.21547 | 16.34211 | 49° | 53km/h | 5367m | -1.5m/s | -14.1°C | 24.2% | 522.8hPa | 2.5V | 00:00:00 | 00:00:00 | 00:00:00 | |
| KRY50SP-1 | 2026-08-31 19:30:24 | 53.21547 | 16.34211 | 51° | 53km/h | 5368m | -1.5m/s | -14.1°C | 24.2% | 522.8hPa | 2.5V | 00:00:00 | 00:00:00 | 00:00:00 | |
| KRY50SP-1 | 2026-08-31 19:30:19 | 53.21501 | 16.34112 | 52° | 66km/h | 5376m | -1.6m/s | -14.2°C | 24.4% | 522.2hPa | 2.5V | 00:00:00 | 00:00:00 | 00:00:00 | |
| EDDB2-12 | 2026-08-31 19:30:18 | 53.21480 | 16.34069 | 48° | 68km/h | 5379m | -1.8m/s | -14.2°C | 24.2% | 522.0hPa | 2.5V | 00:00:00 | 00:00:00 | 00:00:00 | |
| EDDB2-11 | 2026-08-31 19:30:16 | 53.21456 | 16.34027 | 44° | 66km/h | 5382m | -1.8m/s | -14.3°C | 24.0% | 521.8hPa | 2.5V | 00:00:00 | 00:00:00 | 00:00:00 | |
| KRY50SP-1 | 2026-08-31 19:30:14 | 53.21432 | 16.33990 | 42° | 64km/h | 5386m | -1.7m/s | -14.3°C | 24.0% | 521.5hPa | 2.5V | 00:00:00 | 00:00:00 | 00:00:00 | |
| KRY50SP-1 | 2026-08-31 19:30:07 | 53.21368 | 16.33893 | 49° | 55km/h | 5395m | -1.7m/s | -14.4°C | 24.4% | 520.9hPa | 2.5V | 00:00:00 | 00:00:00 | 00:00:00 | |
| KRY50SP-1 | 2026-08-31 19:30:02 | 53.21322 | 16.33793 | 53° | 66km/h | 5404m | -1.8m/s | -14.4°C | 24.5% | 520.3hPa | 2.5V | 00:00:00 | 00:00:00 | 00:00:00 | |
| SP3WXH-11 | 2026-08-31 19:29:59 | 53.21276 | 16.33709 | 44° | 66km/h | 5411m | -1.7m/s | -14.5°C | 24.5% | 519.8hPa | 2.5V | 00:00:00 | 00:00:00 | 00:00:00 | |
| SONDE2-11 | 2026-08-31 19:29:54 | 53.21218 | 16.33625 | 40° | 55km/h | 5419m | -1.7m/s | -14.6°C | 24.8% | 519.4hPa | 2.5V | 00:00:00 | 00:00:00 | 00:00:00 | |
| EDDB2-12 | 2026-08-31 19:29:47 | 53.21151 | 16.33497 | 50° | 64km/h | 5430m | -1.9m/s | -14.7°C | 26.3% | 518.5hPa | 2.5V | 00:00:00 | 00:00:00 | 00:00:00 | |
| EDDB2-11 | 2026-08-31 19:29:45 | 53.21128 | 16.33455 | 47° | 66km/h | 5434m | -1.7m/s | -14.7°C | 25.8% | 518.1hPa | 2.5V | 00:00:00 | 00:00:00 | 00:00:00 | |
| SP3BTT-10 | 2026-08-31 19:29:44 | 53.21116 | 16.33435 | 45° | 62km/h | 5436m | -1.8m/s | -14.7°C | 26.6% | 518.0hPa | 2.5V | 00:00:00 | 00:00:00 | 00:00:00 | |
| KRY50SP-1 | 2026-08-31 19:29:35 | 53.21026 | 16.33303 | 46° | 55km/h | 5450m | -1.4m/s | -14.8°C | 25.6% | 517.2hPa | 2.5V | 00:00:00 | 00:00:00 | 00:00:00 | |
| KRY50SP-1 | 2026-08-31 19:29:30 | 53.20976 | 16.33207 | 49° | 66km/h | 5458m | -1.6m/s | -14.9°C | 26.6% | 516.7hPa | 2.5V | 00:00:00 | 00:00:00 | 00:00:00 | |
| SP3WXH-11 | 2026-08-31 19:29:28 | 53.20941 | 16.33146 | 43° | 66km/h | 5463m | -1.6m/s | -14.9°C | 26.9% | 516.2hPa | 2.5V | 00:00:00 | 00:00:00 | 00:00:00 | |
| KRY50SP-1 | 2026-08-31 19:29:25 | 53.20915 | 16.33108 | 40° | 66km/h | 5466m | -1.7m/s | -15.0°C | 27.0% | 516.1hPa | 2.5V | 00:00:00 | 00:00:00 | 00:00:00 | |
| SONDE2-11 | 2026-08-31 19:29:23 | 53.20867 | 16.33044 | 39° | 55km/h | 5473m | -1.9m/s | -15.0°C | 27.0% | 515.6hPa | 2.5V | 00:00:00 | 00:00:00 | 00:00:00 | |
| KRY50SP-1 | 2026-08-31 19:29:19 | 53.20846 | 16.33014 | 46° | 55km/h | 5477m | -1.6m/s | -15.1°C | 27.1% | 515.3hPa | 2.5V | 00:00:00 | 00:00:00 | 00:00:00 | |
| EDDB2-12 | 2026-08-31 19:29:16 | 53.20807 | 16.32940 | 49° | 62km/h | 5483m | -1.7m/s | -15.1°C | 27.5% | 514.9hPa | 2.5V | 00:00:00 | 00:00:00 | 00:00:00 | |
| EDDB2-11 | 2026-08-31 19:29:14 | 53.20786 | 16.32898 | 47° | 68km/h | 5487m | -1.5m/s | -15.2°C | 27.4% | 514.8hPa | 2.5V | 00:00:00 | 00:00:00 | 00:00:00 | |
| KRY50SP-1 | 2026-08-31 19:29:13 | 53.20786 | 16.32898 | 49° | 68km/h | 5487m | -1.5m/s | -15.1°C | 27.4% | 514.8hPa | 2.5V | 00:00:00 | 00:00:00 | 00:00:00 | |
| KRY50SP-1 | 2026-08-31 19:29:07 | 53.20711 | 16.32786 | 38° | 62km/h | 5497m | -1.6m/s | -15.2°C | 26.9% | 514.1hPa | 2.5V | 00:00:00 | 00:00:00 | 00:00:00 | |
| KRY50SP-1 | 2026-08-31 19:29:02 | 53.20656 | 16.32707 | 48° | 57km/h | 5506m | -1.5m/s | -15.3°C | 26.8% | 513.4hPa | 2.5V | 00:00:00 | 00:00:00 | 00:00:00 | |
| SP3WXH-11 | 2026-08-31 19:28:57 | 53.20592 | 16.32587 | 45° | 68km/h | 5516m | -1.9m/s | -15.4°C | 26.7% | 512.7hPa | 2.5V | 00:00:00 | 00:00:00 | 00:00:00 | |
| SONDE2-11 | 2026-08-31 19:28:52 | 53.20515 | 16.32478 | 36° | 60km/h | 5526m | -1.7m/s | -15.4°C | 27.2% | 512.0hPa | 2.5V | 00:00:00 | 00:00:00 | 00:00:00 | |
| EDDB2-12 | 2026-08-31 19:28:45 | 53.20451 | 16.32379 | 49° | 58km/h | 5537m | -1.9m/s | -15.5°C | 28.0% | 511.3hPa | 2.5V | 00:00:00 | 00:00:00 | 00:00:00 | |
| EDDB2-11 | 2026-08-31 19:28:43 | 53.20431 | 16.32339 | 49° | 64km/h | 5540m | -1.7m/s | -15.6°C | 28.3% | 511.0hPa | 2.5V | 00:00:00 | 00:00:00 | 00:00:00 | |
| KRY50SP-1 | 2026-08-31 19:28:41 | 53.20420 | 16.32318 | 47° | 68km/h | 5542m | -1.9m/s | -15.6°C | 28.8% | 510.8hPa | 2.5V | 00:00:00 | 00:00:00 | 00:00:00 | |
| KRY50SP-1 | 2026-08-31 19:28:35 | 53.20342 | 16.32204 | 37° | 64km/h | 5554m | -2.0m/s | -15.6°C | 28.0% | 510.0hPa | 2.5V | 00:00:00 | 00:00:00 | 00:00:00 | |
| KRY50SP-1 | 2026-08-31 19:28:29 | 53.20272 | 16.32110 | 48° | 58km/h | 5566m | -1.9m/s | -15.7°C | 29.1% | 509.3hPa | 2.5V | 00:00:00 | 00:00:00 | 00:00:00 | |
| SP3WXH-11 | 2026-08-31 19:28:26 | 53.20229 | 16.32032 | 46° | 69km/h | 5573m | -1.6m/s | -15.8°C | 28.3% | 508.9hPa | 2.5V | 00:00:00 | 00:00:00 | 00:00:00 | |
| KRY50SP-1 | 2026-08-31 19:28:23 | 53.20204 | 16.31990 | 44° | 71km/h | 5577m | -1.9m/s | -15.8°C | 27.7% | 508.6hPa | 2.5V | 00:00:00 | 00:00:00 | 00:00:00 | |
| SONDE2-11 | 2026-08-31 19:28:21 | 53.20149 | 16.31914 | 35° | 68km/h | 5584m | -1.9m/s | -15.9°C | 27.5% | 508.0hPa | 2.5V | 00:00:00 | 00:00:00 | 00:00:00 | |
| KRY50SP-1 | 2026-08-31 19:28:19 | 53.20135 | 16.31897 | 36° | 64km/h | 5586m | -1.7m/s | -15.9°C | 27.5% | 508.0hPa | 2.5V | 00:00:00 | 00:00:00 | 00:00:00 | |
| SP3BTT-10 | 2026-08-31 19:28:14 | 53.20077 | 16.31820 | 45° | 64km/h | 5596m | -1.8m/s | -15.9°C | 27.7% | 507.3hPa | 2.5V | 00:00:00 | 00:00:00 | 00:00:00 | |
| EDDB2-11 | 2026-08-31 19:28:12 | 53.20047 | 16.31765 | 49° | 62km/h | 5601m | -1.8m/s | -16.0°C | 26.1% | 507.0hPa | 2.5V | 00:00:00 | 00:00:00 | 00:00:00 | |
| KRY50SP-1 | 2026-08-31 19:28:07 | 53.20012 | 16.31703 | 46° | 69km/h | 5607m | -2.1m/s | -16.1°C | 26.3% | 506.6hPa | 2.5V | 00:00:00 | 00:00:00 | 00:00:00 | |
| SP3WXH-11 | 2026-08-31 19:27:55 | 53.19858 | 16.31483 | 48° | 60km/h | 5634m | -2.0m/s | -16.3°C | 26.3% | 504.8hPa | 2.5V | 00:00:00 | 00:00:00 | 00:00:00 | |
| SONDE2-11 | 2026-08-31 19:27:50 | 53.19786 | 16.31364 | 38° | 69km/h | 5645m | -1.9m/s | -16.4°C | 26.4% | 504.0hPa | 2.5V | 00:00:00 | 00:00:00 | 00:00:00 | |
| KRY50SP-1 | 2026-08-31 19:27:45 | 53.19744 | 16.31314 | 36° | 62km/h | 5651m | -1.9m/s | -16.4°C | 26.7% | 503.7hPa | 2.5V | 00:00:00 | 00:00:00 | 00:00:00 | |
| EDDB2-12 | 2026-08-31 19:27:43 | 53.19707 | 16.31269 | 38° | 57km/h | 5657m | -1.9m/s | -16.5°C | 27.1% | 503.3hPa | 2.5V | 00:00:00 | 00:00:00 | 00:00:00 | |
| KRY50SP-1 | 2026-08-31 19:27:35 | 53.19630 | 16.31141 | 45° | 69km/h | 5670m | -1.8m/s | -16.6°C | 29.3% | 502.4hPa | 2.5V | 00:00:00 | 00:00:00 | 00:00:00 | |
| SP3BTT-10 | 2026-08-31 19:27:29 | 53.19533 | 16.31015 | 34° | 64km/h | 5684m | -1.9m/s | -16.6°C | 30.6% | 501.4hPa | 2.5V | 00:00:00 | 00:00:00 | 00:00:00 | |
| SP3WXH-11 | 2026-08-31 19:27:24 | 53.19472 | 16.30942 | 41° | 53km/h | 5693m | -2.0m/s | -16.8°C | 30.5% | 500.9hPa | 2.5V | 00:00:00 | 00:00:00 | 00:00:00 | |
| KRY50SP-1 | 2026-08-31 19:27:23 | 53.19472 | 16.30942 | 43° | 55km/h | 5693m | -2.0m/s | -16.8°C | 30.5% | 500.9hPa | 2.5V | 00:00:00 | 00:00:00 | 00:00:00 | |
| KRY50SP-1 | 2026-08-31 19:27:18 | 53.19416 | 16.30851 | 44° | 69km/h | 5702m | -1.9m/s | -16.8°C | 32.4% | 500.3hPa | 2.5V | 00:00:00 | 00:00:00 | 00:00:00 | |
| KRY50SP-1 | 2026-08-31 19:27:13 | 53.19348 | 16.30756 | 35° | 69km/h | 5712m | -1.8m/s | -16.9°C | 32.7% | 499.6hPa | 2.5V | 00:00:00 | 00:00:00 | 00:00:00 | |
| EDDB2-12 | 2026-08-31 19:27:12 | 53.19320 | 16.30725 | 33° | 64km/h | 5715m | -1.6m/s | -16.9°C | 33.0% | 499.4hPa | 2.5V | 00:00:00 | 00:00:00 | 00:00:00 | |
| EDDB2-11 | 2026-08-31 19:27:10 | 53.19294 | 16.30696 | 33° | 58km/h | 5719m | -2.0m/s | -17.0°C | 33.4% | 499.0hPa | 2.5V | 00:00:00 | 00:00:00 | 00:00:00 | |
| KRY50SP-1 | 2026-08-31 19:27:07 | 53.19271 | 16.30668 | 40° | 57km/h | 5723m | -1.7m/s | -17.0°C | 34.3% | 498.9hPa | 2.5V | 00:00:00 | 00:00:00 | 00:00:00 | |
| SP3WXH-11 | 2026-08-31 19:26:53 | 53.19081 | 16.30406 | 34° | 58km/h | 5749m | -1.8m/s | -17.2°C | 36.0% | 497.0hPa | 2.5V | 00:00:00 | 00:00:00 | 00:00:00 | |
| SONDE2-11 | 2026-08-31 19:26:47 | 53.19013 | 16.30307 | 44° | 66km/h | 5760m | -2.0m/s | -17.3°C | 36.4% | 496.4hPa | 2.5V | 00:00:00 | 00:00:00 | 00:00:00 | |
| KRY50SP-1 | 2026-08-31 19:26:45 | 53.19001 | 16.30287 | 45° | 69km/h | 5763m | -1.9m/s | -17.3°C | 36.4% | 496.1hPa | 2.5V | 00:00:00 | 00:00:00 | 00:00:00 | |
| SP3BTT-10 | 2026-08-31 19:26:44 | 53.18975 | 16.30247 | 41° | 64km/h | 5767m | -1.8m/s | -17.3°C | 37.8% | 495.8hPa | 2.5V | 00:00:00 | 00:00:00 | 00:00:00 | |
| KRY50SP-1 | 2026-08-31 19:26:40 | 53.18932 | 16.30192 | 35° | 71km/h | 5772m | -1.8m/s | -17.4°C | 36.6% | 495.6hPa | 2.6V | 00:00:00 | 00:00:00 | 00:00:00 | |
| EDDB2-11 | 2026-08-31 19:26:39 | 53.18889 | 16.30147 | 31° | 62km/h | 5777m | -1.8m/s | -17.5°C | 36.7% | 495.2hPa | 2.6V | 00:00:00 | 00:00:00 | 00:00:00 | |
| KRY50SP-1 | 2026-08-31 19:26:34 | 53.18853 | 16.30104 | 40° | 57km/h | 5783m | -1.7m/s | -17.5°C | 36.9% | 494.9hPa | 2.6V | 00:00:00 | 00:00:00 | 00:00:00 | |
| AM1SDL-15 | 2026-08-31 19:26:33 | 53.18830 | 16.30072 | 45° | 64km/h | 5786m | -1.8m/s | -17.5°C | 38.5% | 494.5hPa | 2.6V | 00:00:00 | 03:10:44 | 08:30:00 | |
| KRY50SP-1 | 2026-08-31 19:26:28 | 53.18788 | 16.29999 | 48° | 66km/h | 5795m | -2.1m/s | -17.6°C | 37.2% | 494.0hPa | 2.5V | 00:00:00 | 00:00:00 | 00:00:00 | |
| KRY50SP-1 | 2026-08-31 19:26:23 | 53.18722 | 16.29901 | 36° | 69km/h | 5804m | -1.8m/s | -17.7°C | 37.5% | 493.5hPa | 2.5V | 00:00:00 | 00:00:00 | 00:00:00 | |
| SP3WXH-11 | 2026-08-31 19:26:22 | 53.18693 | 16.29870 | 31° | 66km/h | 5808m | -1.9m/s | -17.8°C | 37.6% | 493.2hPa | 2.5V | 00:00:00 | 00:00:00 | 00:00:00 | |
| KRY50SP-1 | 2026-08-31 19:26:17 | 53.18642 | 16.29813 | 39° | 57km/h | 5816m | -1.8m/s | -17.8°C | 37.6% | 492.7hPa | 2.5V | 00:00:00 | 00:00:00 | 00:00:00 | |
| SONDE2-11 | 2026-08-31 19:26:16 | 53.18621 | 16.29782 | 43° | 55km/h | 5819m | -2.0m/s | -17.9°C | 37.7% | 492.4hPa | 2.5V | 00:00:00 | 00:00:00 | 00:00:00 | |
| KRY50SP-1 | 2026-08-31 19:26:11 | 53.18579 | 16.29709 | 47° | 66km/h | 5828m | -2.2m/s | -18.0°C | 37.8% | 491.9hPa | 2.5V | 00:00:00 | 00:00:00 | 00:00:00 | |
| EDDB2-12 | 2026-08-31 19:26:10 | 53.18541 | 16.29650 | 40° | 69km/h | 5834m | -2.1m/s | -18.0°C | 38.1% | 491.6hPa | 2.5V | 00:00:00 | 00:00:00 | 00:00:00 | |
| EDDB2-11 | 2026-08-31 19:26:08 | 53.18513 | 16.29614 | 36° | 68km/h | 5838m | -2.0m/s | -18.0°C | 38.3% | 491.3hPa | 2.5V | 00:00:00 | 00:00:00 | 00:00:00 | |
| KRY50SP-1 | 2026-08-31 19:26:05 | 53.18500 | 16.29597 | 36° | 66km/h | 5840m | -2.0m/s | -18.1°C | 38.3% | 491.1hPa | 2.5V | 00:00:00 | 00:00:00 | 00:00:00 | |
| SP3WXH-11 | 2026-08-31 19:25:51 | 53.18324 | 16.29342 | 37° | 69km/h | 5868m | -1.8m/s | -18.3°C | 39.9% | 489.2hPa | 2.5V | 00:00:00 | 00:00:00 | 00:00:00 | |
| SONDE2-11 | 2026-08-31 19:25:45 | 53.18247 | 16.29252 | 39° | 55km/h | 5879m | -1.5m/s | -18.4°C | 40.5% | 488.6hPa | 2.5V | 00:00:00 | 00:00:00 | 00:00:00 | |
| KRY50SP-1 | 2026-08-31 19:25:43 | 53.18236 | 16.29237 | 42° | 53km/h | 5881m | -2.1m/s | -18.4°C | 40.6% | 488.3hPa | 2.5V | 00:00:00 | 00:00:00 | 00:00:00 | |
| EDDB2-12 | 2026-08-31 19:25:39 | 53.18176 | 16.29129 | 47° | 64km/h | 5893m | -2.0m/s | -18.5°C | 41.1% | 487.6hPa | 2.5V | 00:00:00 | 00:00:00 | 00:00:00 | |
| AM1SDL-15 | 2026-08-31 19:25:38 | 53.18175 | 16.29129 | 48° | 64km/h | 5893m | -1.9m/s | -18.4°C | 42.7% | 487.6hPa | 2.5V | 00:00:00 | 03:09:49 | 00:00:00 | |
| SONDE2-12 | 2026-08-31 19:25:19 | 53.17928 | 16.28759 | 40° | 69km/h | 5931m | -2.0m/s | -18.8°C | 46.2% | 485.1hPa | 2.6V | 00:00:00 | 00:00:00 | 00:00:00 | |
| KRY50SP-1 | 2026-08-31 19:25:16 | 53.17927 | 16.28759 | 42° | 71km/h | 5931m | -2.0m/s | -18.8°C | 45.3% | 485.1hPa | 2.6V | 00:00:00 | 00:00:00 | 00:00:00 | |
| SP3BTT-10 | 2026-08-31 19:25:14 | 53.17887 | 16.28708 | 36° | 62km/h | 5937m | -1.7m/s | -18.8°C | 47.4% | 484.7hPa | 2.6V | 00:00:00 | 00:00:00 | 00:00:00 | |
| KRY50SP-1 | 2026-08-31 19:25:10 | 53.17849 | 16.28665 | 37° | 58km/h | 5942m | -1.8m/s | -18.9°C | 45.4% | 484.4hPa | 2.6V | 00:00:00 | 00:00:00 | 00:00:00 | |
| EDDB2-12 | 2026-08-31 19:25:08 | 53.17807 | 16.28605 | 45° | 55km/h | 5950m | -1.8m/s | -18.9°C | 45.4% | 484.0hPa | 2.6V | 00:00:00 | 00:00:00 | 00:00:00 | |
| EDDB2-11 | 2026-08-31 19:25:06 | 53.17788 | 16.28568 | 50° | 58km/h | 5953m | -1.8m/s | -19.0°C | 45.3% | 483.9hPa | 2.6V | 00:00:00 | 00:00:00 | 00:00:00 | |
| KRY50SP-1 | 2026-08-31 19:25:04 | 53.17788 | 16.28568 | 51° | 60km/h | 5953m | -1.8m/s | -19.0°C | 45.3% | 483.9hPa | 2.6V | 00:00:00 | 00:00:00 | 00:00:00 | |
| SONDE2-12 | 2026-08-31 19:24:48 | 53.17580 | 16.28248 | 48° | 64km/h | 5984m | -2.0m/s | -19.2°C | 44.9% | 481.9hPa | 2.6V | 00:00:00 | 00:00:00 | 00:00:00 | |
| SONDE2-11 | 2026-08-31 19:24:43 | 53.17529 | 16.28169 | 38° | 69km/h | 5991m | -1.5m/s | -19.3°C | 44.1% | 481.3hPa | 2.6V | 00:00:00 | 00:00:00 | 00:00:00 | |
| 3Z3Z-3 | 2026-08-31 19:24:41 | 53.17516 | 16.28152 | 38° | 66km/h | 5993m | -1.9m/s | -19.3°C | 44.0% | 481.2hPa | 2.6V | 00:00:00 | 00:00:00 | 00:00:00 | |
| EDDB2-12 | 2026-08-31 19:24:37 | 53.17443 | 16.28063 | 39° | 53km/h | 6002m | -1.5m/s | -19.4°C | 44.3% | 480.6hPa | 2.6V | 00:00:00 | 00:00:00 | 00:00:00 | |
| AM1SDL-15 | 2026-08-31 19:24:36 | 53.17443 | 16.28063 | 40° | 64km/h | 6002m | -1.5m/s | -19.3°C | 46.0% | 480.6hPa | 2.6V | 00:00:00 | 03:08:47 | 00:00:00 | |
| EDDB2-11 | 2026-08-31 19:24:35 | 53.17423 | 16.28031 | 47° | 53km/h | 6005m | -1.8m/s | -19.4°C | 44.5% | 480.4hPa | 2.6V | 00:00:00 | 00:00:00 | 00:00:00 | |
| KRY50SP-1 | 2026-08-31 19:24:31 | 53.17404 | 16.27995 | 51° | 62km/h | 6009m | -1.7m/s | -19.4°C | 44.7% | 480.1hPa | 2.6V | 00:00:00 | 00:00:00 | 00:00:00 | |
| 3Z3Z-3 | 2026-08-31 19:24:28 | 53.17370 | 16.27933 | 47° | 68km/h | 6014m | -1.7m/s | -19.5°C | 44.7% | 479.9hPa | 2.6V | 00:00:00 | 00:00:00 | 00:00:00 | |
| KRY50SP-1 | 2026-08-31 19:24:26 | 53.17345 | 16.27893 | 43° | 68km/h | 6018m | -2.0m/s | -19.5°C | 44.6% | 479.6hPa | 2.6V | 00:00:00 | 00:00:00 | 00:00:00 | |
| AM1SDL-15 | 2026-08-31 19:24:22 | 53.17278 | 16.27812 | 35° | 60km/h | 6026m | -1.5m/s | -19.5°C | 46.0% | 479.1hPa | 2.6V | 00:00:00 | 03:08:33 | 08:30:00 | |
| KRY50SP-1 | 2026-08-31 19:24:21 | 53.17278 | 16.27811 | 36° | 57km/h | 6026m | -1.6m/s | -19.6°C | 44.2% | 479.1hPa | 2.6V | 00:00:00 | 00:00:00 | 00:00:00 | |
| SP3WXH-11 | 2026-08-31 19:24:18 | 53.17226 | 16.27736 | 45° | 57km/h | 6034m | -1.8m/s | -19.6°C | 44.0% | 478.6hPa | 2.6V | 00:00:00 | 00:00:00 | 00:00:00 | |
| KRY50SP-1 | 2026-08-31 19:24:16 | 53.17226 | 16.27736 | 47° | 57km/h | 6035m | -1.8m/s | -19.6°C | 44.0% | 478.6hPa | 2.6V | 00:00:00 | 00:00:00 | 00:00:00 | |
| SP3BTT-10 | 2026-08-31 19:24:14 | 53.17196 | 16.27678 | 50° | 64km/h | 6040m | -1.4m/s | -19.6°C | 45.8% | 478.2hPa | 2.6V | 00:00:00 | 00:00:00 | 00:00:00 | |
| SONDE2-11 | 2026-08-31 19:24:12 | 53.17174 | 16.27637 | 44° | 68km/h | 6043m | -1.6m/s | -19.7°C | 43.9% | 478.1hPa | 2.6V | 00:00:00 | 00:00:00 | 00:00:00 | |
| AM1SDL-15 | 2026-08-31 19:24:10 | 53.17148 | 16.27597 | 41° | 62km/h | 6046m | -1.4m/s | -19.7°C | 45.7% | 477.7hPa | 2.6V | 00:00:00 | 03:08:21 | 00:00:00 | |
| KRY50SP-1 | 2026-08-31 19:24:05 | 53.17095 | 16.27530 | 37° | 60km/h | 6053m | -1.8m/s | -19.8°C | 43.8% | 477.4hPa | 2.6V | 00:00:00 | 00:00:00 | 00:00:00 | |
| SONDE2-12 | 2026-08-31 19:23:45 | 53.16854 | 16.27175 | 42° | 53km/h | 6086m | -1.5m/s | -20.1°C | 43.6% | 475.3hPa | 2.6V | 00:00:00 | 00:00:00 | 00:00:00 | |
| SP3BTT-10 | 2026-08-31 19:23:44 | 53.16844 | 16.27158 | 47° | 64km/h | 6087m | -1.2m/s | -20.0°C | 44.3% | 475.1hPa | 2.6V | 00:00:00 | 00:00:00 | 00:00:00 | |
| SONDE2-11 | 2026-08-31 19:23:41 | 53.16815 | 16.27105 | 48° | 60km/h | 6091m | -1.5m/s | -20.1°C | 43.1% | 474.8hPa | 2.6V | 00:00:00 | 00:00:00 | 00:00:00 | |
| KRY50SP-1 | 2026-08-31 19:23:38 | 53.16794 | 16.27064 | 48° | 68km/h | 6095m | -1.3m/s | -20.1°C | 43.6% | 474.7hPa | 2.6V | 00:00:00 | 00:00:00 | 00:00:00 | |
| AM1SDL-15 | 2026-08-31 19:23:37 | 53.16770 | 16.27023 | 43° | 64km/h | 6098m | -1.3m/s | -20.1°C | 46.1% | 474.4hPa | 2.6V | 00:00:00 | 03:07:48 | 00:00:00 | |
| EDDB2-12 | 2026-08-31 19:23:35 | 53.16730 | 16.26968 | 37° | 66km/h | 6102m | -1.8m/s | -20.2°C | 44.6% | 474.2hPa | 2.6V | 00:00:00 | 00:00:00 | 00:00:00 | |
| EDDB2-11 | 2026-08-31 19:23:33 | 53.16704 | 16.26936 | 35° | 58km/h | 6106m | -1.8m/s | -20.2°C | 44.9% | 473.9hPa | 2.6V | 00:00:00 | 00:00:00 | 00:00:00 | |
| SONDE2-12 | 2026-08-31 19:23:14 | 53.16490 | 16.26625 | 35° | 57km/h | 6133m | -1.7m/s | -20.5°C | 49.9% | 472.1hPa | 2.6V | 00:00:00 | 00:00:00 | 00:00:00 | |
| AM1SDL-15 | 2026-08-31 19:23:13 | 53.16477 | 16.26611 | 34° | 62km/h | 6134m | -1.4m/s | -20.5°C | 50.9% | 472.1hPa | 2.6V | 00:00:00 | 03:07:24 | 00:00:00 | |
| KRY50SP-1 | 2026-08-31 19:23:11 | 53.16466 | 16.26597 | 40° | 55km/h | 6136m | -1.4m/s | -20.5°C | 49.0% | 472.1hPa | 2.6V | 00:00:00 | 00:00:00 | 00:00:00 | |
| SONDE2-11 | 2026-08-31 19:23:10 | 53.16445 | 16.26566 | 45° | 55km/h | 6139m | -1.2m/s | -20.5°C | 49.3% | 471.9hPa | 2.6V | 00:00:00 | 00:00:00 | 00:00:00 | |
| KRY50SP-1 | 2026-08-31 19:23:06 | 53.16415 | 16.26511 | 49° | 62km/h | 6143m | -1.7m/s | -20.6°C | 49.5% | 471.6hPa | 2.6V | 00:00:00 | 00:00:00 | 00:00:00 | |
| EDDB2-12 | 2026-08-31 19:23:04 | 53.16369 | 16.26429 | 42° | 69km/h | 6149m | -1.6m/s | -20.6°C | 50.0% | 471.2hPa | 2.6V | 00:00:00 | 00:00:00 | 00:00:00 | |
| EDDB2-11 | 2026-08-31 19:23:02 | 53.16343 | 16.26390 | 40° | 68km/h | 6152m | -1.9m/s | -20.7°C | 48.9% | 471.0hPa | 2.6V | 00:00:00 | 00:00:00 | 00:00:00 | |
| 3Z3Z-3 | 2026-08-31 19:23:01 | 53.16356 | 16.26409 | 42° | 69km/h | 6151m | -1.7m/s | -20.6°C | 49.7% | 471.1hPa | 2.6V | 00:00:00 | 00:00:00 | 00:00:00 | |
| KRY50SP-1 | 2026-08-31 19:23:00 | 53.16343 | 16.26390 | 42° | 68km/h | 6152m | -1.9m/s | -20.6°C | 48.9% | 471.0hPa | 2.6V | 00:00:00 | 00:00:00 | 00:00:00 | |
| SONDE2-12 | 2026-08-31 19:22:43 | 53.16126 | 16.26072 | 36° | 68km/h | 6179m | -1.4m/s | -20.9°C | 47.9% | 469.2hPa | 2.6V | 00:00:00 | 00:00:00 | 00:00:00 | |
| SONDE2-11 | 2026-08-31 19:22:39 | 53.16072 | 16.26009 | 34° | 57km/h | 6185m | -1.7m/s | -20.9°C | 47.2% | 468.9hPa | 2.6V | 00:00:00 | 00:00:00 | 00:00:00 | |
| 3Z3Z-3 | 2026-08-31 19:22:38 | 53.16072 | 16.26009 | 36° | 57km/h | 6185m | -1.7m/s | -20.9°C | 47.2% | 468.9hPa | 2.6V | 00:00:00 | 00:00:00 | 00:00:00 | |
| AM1SDL-15 | 2026-08-31 19:22:36 | 53.16037 | 16.25966 | 41° | 62km/h | 6190m | -1.3m/s | -20.9°C | 49.4% | 468.6hPa | 2.6V | 00:00:00 | 03:06:47 | 00:00:00 | |
| EDDB2-12 | 2026-08-31 19:22:33 | 53.15996 | 16.25896 | 47° | 60km/h | 6196m | -1.9m/s | -21.0°C | 47.5% | 468.3hPa | 2.6V | 00:00:00 | 00:00:00 | 00:00:00 | |
| EDDB2-11 | 2026-08-31 19:22:30 | 53.15974 | 16.25856 | 47° | 66km/h | 6200m | -1.7m/s | -21.0°C | 47.5% | 468.1hPa | 2.6V | 00:00:00 | 00:00:00 | 00:00:00 | |
| KRY50SP-1 | 2026-08-31 19:22:28 | 53.15962 | 16.25835 | 47° | 69km/h | 6201m | -1.8m/s | -21.0°C | 47.5% | 467.9hPa | 2.6V | 00:00:00 | 00:00:00 | 00:00:00 | |
| 3Z3Z-3 | 2026-08-31 19:22:27 | 53.15950 | 16.25814 | 45° | 73km/h | 6203m | -1.5m/s | -21.0°C | 47.6% | 467.9hPa | 2.6V | 00:00:00 | 00:00:00 | 00:00:00 | |
| AM1SDL-15 | 2026-08-31 19:22:24 | 53.15893 | 16.25739 | 35° | 64km/h | 6209m | -1.5m/s | -21.0°C | 49.5% | 467.6hPa | 2.6V | 00:00:00 | 03:06:35 | 08:30:00 | |
| KRY50SP-1 | 2026-08-31 19:22:22 | 53.15880 | 16.25723 | 36° | 66km/h | 6211m | -1.5m/s | -21.1°C | 47.4% | 467.4hPa | 2.6V | 00:00:00 | 00:00:00 | 00:00:00 | |
| 3Z3Z-3 | 2026-08-31 19:22:16 | 53.15810 | 16.25632 | 49° | 57km/h | 6219m | -1.6m/s | -21.2°C | 47.5% | 466.9hPa | 2.6V | 00:00:00 | 00:00:00 | 00:00:00 | |
| SP3WXH-11 | 2026-08-31 19:22:14 | 53.15766 | 16.25551 | 45° | 69km/h | 6224m | -1.3m/s | -21.2°C | 48.0% | 466.5hPa | 2.6V | 00:00:00 | 00:00:00 | 00:00:00 | |
| AM1SDL-15 | 2026-08-31 19:22:12 | 53.15753 | 16.25530 | 44° | 64km/h | 6226m | -1.3m/s | -21.2°C | 49.9% | 466.3hPa | 2.6V | 00:00:00 | 03:06:23 | 00:00:00 | |
| KRY50SP-1 | 2026-08-31 19:22:11 | 53.15753 | 16.25530 | 45° | 71km/h | 6226m | -1.4m/s | -21.2°C | 47.9% | 466.4hPa | 2.6V | 00:00:00 | 00:00:00 | 00:00:00 | |
| SONDE2-11 | 2026-08-31 19:22:08 | 53.15698 | 16.25454 | 36° | 69km/h | 6232m | -1.4m/s | -21.3°C | 48.6% | 466.0hPa | 2.6V | 00:00:00 | 00:00:00 | 00:00:00 | |
| 3Z3Z-3 | 2026-08-31 19:22:06 | 53.15684 | 16.25437 | 35° | 68km/h | 6233m | -1.3m/s | -21.3°C | 49.1% | 465.9hPa | 2.6V | 00:00:00 | 00:00:00 | 00:00:00 | |
| KRY50SP-1 | 2026-08-31 19:22:05 | 53.15670 | 16.25422 | 34° | 62km/h | 6234m | -1.3m/s | -21.3°C | 49.7% | 465.8hPa | 2.6V | 00:00:00 | 00:00:00 | 00:00:00 | |
| EDDB2-12 | 2026-08-31 19:22:01 | 53.15614 | 16.25346 | 46° | 57km/h | 6241m | -1.2m/s | -21.4°C | 53.3% | 465.4hPa | 2.6V | 00:00:00 | 00:00:00 | 00:00:00 | |
| EDDB2-11 | 2026-08-31 19:21:59 | 53.15593 | 16.25308 | 46° | 62km/h | 6244m | -1.6m/s | -21.4°C | 53.5% | 465.1hPa | 2.6V | 00:00:00 | 00:00:00 | 00:00:00 | |
| KRY50SP-1 | 2026-08-31 19:21:54 | 53.15545 | 16.25227 | 44° | 73km/h | 6251m | -1.4m/s | -21.4°C | 54.0% | 464.9hPa | 2.6V | 00:00:00 | 00:00:00 | 00:00:00 | |
| 3Z3Z-3 | 2026-08-31 19:21:52 | 53.15517 | 16.25187 | 39° | 73km/h | 6254m | -1.3m/s | -21.5°C | 54.3% | 464.7hPa | 2.6V | 00:00:00 | 00:00:00 | 00:00:00 | |
| AM1SDL-15 | 2026-08-31 19:21:48 | 53.15448 | 16.25109 | 37° | 64km/h | 6260m | -1.5m/s | -21.5°C | 57.0% | 464.2hPa | 2.6V | 00:00:00 | 03:05:59 | 00:00:00 | |
| KRY50SP-1 | 2026-08-31 19:21:42 | 53.15395 | 16.25026 | 49° | 64km/h | 6267m | -1.1m/s | -21.6°C | 55.7% | 463.8hPa | 2.5V | 00:00:00 | 00:00:00 | 00:00:00 | |
| 3Z3Z-3 | 2026-08-31 19:21:41 | 53.15384 | 16.25006 | 48° | 66km/h | 6268m | -1.4m/s | -21.6°C | 55.8% | 463.7hPa | 2.5V | 00:00:00 | 00:00:00 | 00:00:00 | |
| SONDE2-11 | 2026-08-31 19:21:37 | 53.15319 | 16.24906 | 39° | 69km/h | 6275m | -1.8m/s | -21.7°C | 57.7% | 463.3hPa | 2.5V | 00:00:00 | 00:00:00 | 00:00:00 | |
| AM1SDL-15 | 2026-08-31 19:21:36 | 53.15305 | 16.24888 | 38° | 64km/h | 6277m | -1.9m/s | -21.6°C | 61.0% | 462.9hPa | 2.5V | 00:00:00 | 03:05:47 | 00:00:00 | |
| 3Z3Z-3 | 2026-08-31 19:21:31 | 53.15250 | 16.24824 | 34° | 62km/h | 6283m | -1.3m/s | -21.7°C | 59.2% | 462.8hPa | 2.5V | 00:00:00 | 00:00:00 | 00:00:00 | |
| EDDB2-12 | 2026-08-31 19:21:30 | 53.15226 | 16.24796 | 38° | 55km/h | 6286m | -1.5m/s | -21.8°C | 59.4% | 462.6hPa | 2.5V | 00:00:00 | 00:00:00 | 00:00:00 | |
| EDDB2-11 | 2026-08-31 19:21:29 | 53.15205 | 16.24764 | 45° | 58km/h | 6289m | -1.2m/s | -21.8°C | 59.7% | 462.3hPa | 2.5V | 00:00:00 | 00:00:00 | 00:00:00 | |
| SONDE2-12 | 2026-08-31 19:21:10 | 53.14983 | 16.24446 | 46° | 57km/h | 6313m | -1.9m/s | -22.1°C | 68.5% | 460.8hPa | 2.5V | 00:00:00 | 00:00:00 | 00:00:00 | |
| 3Z3Z-3 | 2026-08-31 19:21:09 | 53.14983 | 16.24446 | 47° | 58km/h | 6313m | -1.9m/s | -22.1°C | 67.0% | 460.8hPa | 2.5V | 00:00:00 | 00:00:00 | 00:00:00 | |
| SONDE2-11 | 2026-08-31 19:21:06 | 53.14940 | 16.24367 | 46° | 68km/h | 6320m | -1.6m/s | -22.1°C | 67.5% | 460.4hPa | 2.5V | 00:00:00 | 00:00:00 | 00:00:00 | |
| EDDB2-11 | 2026-08-31 19:20:57 | 53.14820 | 16.24208 | 35° | 58km/h | 6335m | -1.4m/s | -22.2°C | 68.2% | 459.6hPa | 2.5V | 00:00:00 | 00:00:00 | 00:00:00 | |
| SONDE2-12 | 2026-08-31 19:20:39 | 53.14592 | 16.23887 | 34° | 58km/h | 6360m | -1.2m/s | -22.5°C | 71.5% | 458.1hPa | 2.5V | 00:00:00 | 00:00:00 | 00:00:00 | |
| AM1SDL-15 | 2026-08-31 19:20:36 | 53.14558 | 16.23841 | 45° | 69km/h | 6364m | -1.6m/s | -22.5°C | 73.0% | 457.8hPa | 2.5V | 00:00:00 | 03:04:47 | 08:30:00 | |
| SONDE2-11 | 2026-08-31 19:20:35 | 53.14548 | 16.23823 | 45° | 60km/h | 6365m | -1.7m/s | -22.5°C | 70.2% | 457.7hPa | 2.6V | 00:00:00 | 00:00:00 | 00:00:00 | |
| 3Z3Z-3 | 2026-08-31 19:20:31 | 53.14513 | 16.23764 | 47° | 71km/h | 6371m | -1.1m/s | -22.6°C | 70.4% | 457.3hPa | 2.6V | 00:00:00 | 00:00:00 | 00:00:00 | |
| KRY50SP-1 | 2026-08-31 19:20:30 | 53.14501 | 16.23742 | 47° | 73km/h | 6372m | -1.4m/s | -22.6°C | 70.5% | 457.1hPa | 2.6V | 00:00:00 | 00:00:00 | 00:00:00 | |
| EDDB2-12 | 2026-08-31 19:20:28 | 53.14460 | 16.23678 | 40° | 73km/h | 6377m | -2.0m/s | -22.6°C | 70.5% | 457.0hPa | 2.6V | 00:00:00 | 00:00:00 | 00:00:00 | |
| EDDB2-11 | 2026-08-31 19:20:26 | 53.14431 | 16.23641 | 36° | 71km/h | 6380m | -1.5m/s | -22.7°C | 70.7% | 456.8hPa | 2.6V | 00:00:00 | 00:00:00 | 00:00:00 | |
| SONDE2-12 | 2026-08-31 19:20:08 | 53.14190 | 16.23294 | 36° | 60km/h | 6409m | -1.8m/s | -22.9°C | 73.8% | 455.1hPa | 2.6V | 00:00:00 | 00:00:00 | 00:00:00 | |
| KRY50SP-1 | 2026-08-31 19:20:06 | 53.14190 | 16.23294 | 37° | 60km/h | 6409m | -1.8m/s | -22.9°C | 72.1% | 455.1hPa | 2.6V | 00:00:00 | 00:00:00 | 00:00:00 | |
| SONDE2-11 | 2026-08-31 19:20:04 | 53.14156 | 16.23250 | 38° | 57km/h | 6415m | -1.5m/s | -23.0°C | 71.8% | 454.7hPa | 2.6V | 00:00:00 | 00:00:00 | 00:00:00 | |
| EDDB2-12 | 2026-08-31 19:19:57 | 53.14080 | 16.23117 | 46° | 69km/h | 6424m | -1.4m/s | -23.1°C | 68.8% | 454.0hPa | 2.6V | 00:00:00 | 00:00:00 | 00:00:00 | |
| EDDB2-11 | 2026-08-31 19:19:55 | 53.14055 | 16.23074 | 44° | 73km/h | 6427m | -1.4m/s | -23.1°C | 68.2% | 453.8hPa | 2.6V | 00:00:00 | 00:00:00 | 00:00:00 | |
| SONDE2-12 | 2026-08-31 19:19:37 | 53.13833 | 16.22730 | 42° | 73km/h | 6456m | -1.5m/s | -23.2°C | 58.0% | 452.0hPa | 2.6V | 00:00:00 | 00:00:00 | 00:00:00 | |
| AM1SDL-15 | 2026-08-31 19:19:36 | 53.13819 | 16.22709 | 41° | 68km/h | 6457m | -1.8m/s | -23.2°C | 57.9% | 451.7hPa | 2.6V | 00:00:00 | 03:03:47 | 00:00:00 | |
| SONDE2-11 | 2026-08-31 19:19:33 | 53.13776 | 16.22653 | 35° | 68km/h | 6462m | -1.4m/s | -23.2°C | 50.3% | 451.6hPa | 2.6V | 00:00:00 | 00:00:00 | 00:00:00 | |
| SP3BTT-10 | 2026-08-31 19:19:30 | 53.13738 | 16.22601 | 43° | 71km/h | 6467m | -1.1m/s | -23.2°C | 49.6% | 451.4hPa | 2.6V | 00:00:00 | 00:00:00 | 00:00:00 | |
| KRY50SP-1 | 2026-08-31 19:19:27 | 53.13716 | 16.22562 | 51° | 64km/h | 6470m | -1.7m/s | -23.2°C | 45.6% | 451.2hPa | 2.6V | 00:00:00 | 00:00:00 | 00:00:00 | |
| EDDB2-12 | 2026-08-31 19:19:26 | 53.13695 | 16.22521 | 48° | 68km/h | 6473m | -1.4m/s | -23.2°C | 44.7% | 450.8hPa | 2.6V | 00:00:00 | 00:00:00 | 00:00:00 | |
| AM1SDL-15 | 2026-08-31 19:19:24 | 53.13672 | 16.22476 | 49° | 71km/h | 6477m | -1.7m/s | -23.1°C | 46.7% | 450.6hPa | 2.6V | 00:00:00 | 03:03:35 | 00:00:00 | |
| SONDE2-12 | 2026-08-31 19:19:06 | 53.13446 | 16.22106 | 47° | 75km/h | 6506m | -1.5m/s | -22.8°C | 24.8% | 448.9hPa | 2.6V | 00:00:00 | 00:00:00 | 00:00:00 | |
| KRY50SP-1 | 2026-08-31 19:19:03 | 53.13419 | 16.22059 | 46° | 77km/h | 6510m | -2.0m/s | -22.8°C | 21.3% | 448.7hPa | 2.6V | 00:00:00 | 00:00:00 | 00:00:00 | |
| SONDE2-11 | 2026-08-31 19:19:02 | 53.13390 | 16.22015 | 40° | 78km/h | 6513m | -1.7m/s | -22.8°C | 20.5% | 448.4hPa | 2.6V | 00:00:00 | 00:00:00 | 00:00:00 | |
| EDDB2-12 | 2026-08-31 19:18:55 | 53.13294 | 16.21878 | 48° | 64km/h | 6523m | -1.3m/s | -22.8°C | 22.7% | 447.8hPa | 2.6V | 00:00:00 | 00:00:00 | 00:00:00 | |
| EDDB2-11 | 2026-08-31 19:18:53 | 53.13273 | 16.21836 | 48° | 68km/h | 6527m | -1.4m/s | -22.8°C | 27.8% | 447.6hPa | 2.6V | 00:00:00 | 00:00:00 | 00:00:00 | |
| KRY50SP-1 | 2026-08-31 19:18:52 | 53.13272 | 16.21836 | 50° | 69km/h | 6527m | -1.4m/s | -22.8°C | 27.8% | 447.6hPa | 2.6V | 00:00:00 | 00:00:00 | 00:00:00 | |
| AM1SDL-15 | 2026-08-31 19:18:47 | 53.13197 | 16.21691 | 46° | 71km/h | 6538m | -1.5m/s | -22.8°C | 39.4% | 446.8hPa | 2.6V | 00:00:00 | 03:02:58 | 08:30:00 | |
| KRY50SP-1 | 2026-08-31 19:18:46 | 53.13198 | 16.21692 | 46° | 80km/h | 6538m | -1.5m/s | -22.9°C | 37.5% | 446.9hPa | 2.5V | 00:00:00 | 00:00:00 | 00:00:00 | |
| KRY50SP-1 | 2026-08-31 19:18:41 | 53.13124 | 16.21582 | 40° | 69km/h | 6547m | -1.9m/s | -22.9°C | 38.6% | 446.4hPa | 2.5V | 00:00:00 | 00:00:00 | 00:00:00 | |
| SP3WXH-11 | 2026-08-31 19:18:36 | 53.13053 | 16.21465 | 49° | 68km/h | 6556m | -1.7m/s | -23.0°C | 39.1% | 445.9hPa | 2.5V | 00:00:00 | 00:00:00 | 00:00:00 | |
| AM1SDL-15 | 2026-08-31 19:18:35 | 53.13042 | 16.21442 | 53° | 77km/h | 6558m | -1.6m/s | -22.9°C | 40.7% | 445.6hPa | 2.5V | 00:00:00 | 03:02:46 | 00:00:00 | |
| SONDE2-11 | 2026-08-31 19:18:31 | 53.12993 | 16.21343 | 46° | 80km/h | 6566m | -1.5m/s | -23.0°C | 38.8% | 445.2hPa | 2.5V | 00:00:00 | 00:00:00 | 00:00:00 | |
| SP6BVK | 2026-08-31 19:18:30 | 53.12993 | 16.21343 | 47° | 80km/h | 6566m | -1.5m/s | -23.0°C | 38.8% | 445.2hPa | 2.5V | 00:00:00 | 00:00:00 | 00:00:00 | |
| KRY50SP-1 | 2026-08-31 19:18:28 | 53.12964 | 16.21295 | 44° | 78km/h | 6569m | -1.9m/s | -23.1°C | 38.9% | 445.0hPa | 2.5V | 00:00:00 | 00:00:00 | 00:00:00 | |
| EDDB2-12 | 2026-08-31 19:18:24 | 53.12892 | 16.21195 | 39° | 68km/h | 6577m | -1.6m/s | -23.1°C | 39.4% | 444.5hPa | 2.5V | 00:00:00 | 00:00:00 | 00:00:00 | |
| AM1SDL-15 | 2026-08-31 19:18:23 | 53.12879 | 16.21175 | 45° | 73km/h | 6578m | -1.6m/s | -23.1°C | 41.3% | 444.4hPa | 2.5V | 00:00:00 | 03:02:34 | 00:00:00 | |
| EDDB2-11 | 2026-08-31 19:18:22 | 53.12868 | 16.21157 | 44° | 64km/h | 6580m | -1.6m/s | -23.1°C | 39.6% | 444.4hPa | 2.5V | 00:00:00 | 00:00:00 | 00:00:00 | |
| KRY50SP-1 | 2026-08-31 19:18:19 | 53.12846 | 16.21115 | 52° | 64km/h | 6583m | -2.0m/s | -23.2°C | 39.4% | 444.1hPa | 2.5V | 00:00:00 | 00:00:00 | 00:00:00 | |
| SONDE2-12 | 2026-08-31 19:18:04 | 53.12616 | 16.20716 | 53° | 66km/h | 6615m | -2.0m/s | -23.4°C | 46.2% | 442.3hPa | 2.5V | 00:00:00 | 00:00:00 | 00:00:00 | |
| SONDE2-11 | 2026-08-31 19:18:00 | 53.12582 | 16.20644 | 50° | 78km/h | 6621m | -1.5m/s | -23.5°C | 45.4% | 442.1hPa | 2.5V | 00:00:00 | 00:00:00 | 00:00:00 | |
| EDDB2-12 | 2026-08-31 19:17:53 | 53.12497 | 16.20501 | 40° | 77km/h | 6630m | -1.8m/s | -23.6°C | 47.1% | 441.5hPa | 2.5V | 00:00:00 | 00:00:00 | 00:00:00 | |
| EDDB2-11 | 2026-08-31 19:17:51 | 53.12468 | 16.20463 | 40° | 71km/h | 6632m | -1.6m/s | -23.6°C | 47.7% | 441.2hPa | 2.5V | 00:00:00 | 00:00:00 | 00:00:00 | |
| KRY50SP-1 | 2026-08-31 19:17:50 | 53.12468 | 16.20462 | 42° | 71km/h | 6632m | -1.6m/s | -23.6°C | 47.7% | 441.2hPa | 2.5V | 00:00:00 | 00:00:00 | 00:00:00 | |
| SONDE2-12 | 2026-08-31 19:17:33 | 53.12233 | 16.20063 | 42° | 68km/h | 6659m | -1.3m/s | -23.8°C | 49.4% | 439.4hPa | 2.5V | 00:00:00 | 00:00:00 | 00:00:00 | |
| SONDE2-11 | 2026-08-31 19:17:29 | 53.12175 | 16.19961 | 50° | 69km/h | 6665m | -1.4m/s | -23.9°C | 47.3% | 439.0hPa | 2.5V | 00:00:00 | 00:00:00 | 00:00:00 | |
| AM1SDL-15 | 2026-08-31 19:17:23 | 53.12114 | 16.19835 | 48° | 75km/h | 6673m | -1.5m/s | -23.9°C | 50.4% | 438.5hPa | 2.5V | 00:00:00 | 03:01:34 | 00:00:00 | |
| EDDB2-12 | 2026-08-31 19:17:22 | 53.12099 | 16.19810 | 47° | 84km/h | 6675m | -1.9m/s | -23.9°C | 48.5% | 438.6hPa | 2.5V | 00:00:00 | 00:00:00 | 00:00:00 | |
| EDDB2-11 | 2026-08-31 19:17:20 | 53.12069 | 16.19760 | 43° | 80km/h | 6678m | -1.8m/s | -24.0°C | 48.7% | 438.3hPa | 2.5V | 00:00:00 | 00:00:00 | 00:00:00 | |
| SONDE2-12 | 2026-08-31 19:17:02 | 53.11830 | 16.19349 | 41° | 80km/h | 6704m | -1.8m/s | -24.1°C | 50.5% | 436.6hPa | 2.5V | 00:00:00 | 00:00:00 | 00:00:00 | |
| SONDE2-11 | 2026-08-31 19:16:58 | 53.11761 | 16.19244 | 46° | 68km/h | 6712m | -1.4m/s | -24.2°C | 48.0% | 436.0hPa | 2.5V | 00:00:00 | 00:00:00 | 00:00:00 | |
| EDDB2-12 | 2026-08-31 19:16:51 | 53.11692 | 16.19101 | 51° | 78km/h | 6723m | -1.9m/s | -24.3°C | 48.6% | 435.5hPa | 2.5V | 00:00:00 | 00:00:00 | 00:00:00 | |
| EDDB2-11 | 2026-08-31 19:16:49 | 53.11666 | 16.19048 | 49° | 82km/h | 6727m | -1.9m/s | -24.3°C | 48.3% | 435.3hPa | 2.5V | 00:00:00 | 00:00:00 | 00:00:00 | |
| SONDE2-12 | 2026-08-31 19:16:31 | 53.11428 | 16.18598 | 46° | 84km/h | 6760m | -2.0m/s | -24.5°C | 48.0% | 433.2hPa | 2.5V | 00:00:00 | 00:00:00 | 00:00:00 | |
| KRY50SP-1 | 2026-08-31 19:16:28 | 53.11399 | 16.18548 | 45° | 80km/h | 6764m | -1.8m/s | -24.5°C | 48.1% | 433.0hPa | 2.5V | 00:00:00 | 00:00:00 | 00:00:00 | |
| SONDE2-11 | 2026-08-31 19:16:27 | 53.11359 | 16.18481 | 48° | 71km/h | 6769m | -1.9m/s | -24.6°C | 48.0% | 432.8hPa | 2.5V | 00:00:00 | 00:00:00 | 00:00:00 | |
| AM1SDL-15 | 2026-08-31 19:16:23 | 53.11325 | 16.18411 | 53° | 80km/h | 6775m | -2.1m/s | -24.5°C | 50.0% | 432.4hPa | 2.5V | 00:00:00 | 03:00:34 | 00:00:00 | |
| EDDB2-12 | 2026-08-31 19:16:20 | 53.11291 | 16.18333 | 54° | 78km/h | 6781m | -2.1m/s | -24.7°C | 47.3% | 432.0hPa | 2.6V | 00:00:00 | 00:00:00 | 00:00:00 | |
| EDDB2-11 | 2026-08-31 19:16:18 | 53.11267 | 16.18277 | 53° | 84km/h | 6785m | -2.1m/s | -24.7°C | 46.0% | 431.8hPa | 2.6V | 00:00:00 | 00:00:00 | 00:00:00 | |
| SONDE2-12 | 2026-08-31 19:16:00 | 53.11038 | 16.17803 | 49° | 86km/h | 6819m | -1.9m/s | -24.9°C | 46.7% | 429.7hPa | 2.6V | 00:00:00 | 00:00:00 | 00:00:00 | |
| SONDE2-11 | 2026-08-31 19:15:56 | 53.10966 | 16.17678 | 46° | 73km/h | 6828m | -2.0m/s | -25.0°C | 44.2% | 429.1hPa | 2.6V | 00:00:00 | 00:00:00 | 00:00:00 | |
| EDDB2-12 | 2026-08-31 19:15:49 | 53.10897 | 16.17529 | 55° | 78km/h | 6841m | -2.1m/s | -25.1°C | 44.7% | 428.3hPa | 2.6V | 00:00:00 | 00:00:00 | 00:00:00 | |
| EDDB2-11 | 2026-08-31 19:15:47 | 53.10874 | 16.17472 | 54° | 84km/h | 6845m | -1.8m/s | -25.1°C | 43.9% | 428.1hPa | 2.6V | 00:00:00 | 00:00:00 | 00:00:00 | |
| KRY50SP-1 | 2026-08-31 19:15:45 | 53.10861 | 16.17443 | 54° | 88km/h | 6846m | -2.0m/s | -25.1°C | 43.8% | 428.2hPa | 2.6V | 00:00:00 | 00:00:00 | 00:00:00 | |
| SP3BTT-10 | 2026-08-31 19:15:44 | 53.10833 | 16.17385 | 49° | 80km/h | 6850m | -1.9m/s | -25.1°C | 46.5% | 427.8hPa | 2.6V | 00:00:00 | 00:00:00 | 00:00:00 | |
| KRY50SP-1 | 2026-08-31 19:15:36 | 53.10736 | 16.17214 | 53° | 73km/h | 6864m | -2.3m/s | -25.3°C | 44.6% | 426.9hPa | 2.6V | 00:00:00 | 00:00:00 | 00:00:00 | |
| AM1SDL-15 | 2026-08-31 19:15:35 | 53.10714 | 16.17164 | 55° | 84km/h | 6868m | -2.3m/s | -25.3°C | 46.9% | 426.8hPa | 2.6V | 00:00:00 | 02:59:46 | 00:00:00 | |
| SP3WXH-11 | 2026-08-31 19:15:30 | 53.10651 | 16.17022 | 49° | 88km/h | 6878m | -1.8m/s | -25.5°C | 44.7% | 426.2hPa | 2.6V | 00:00:00 | 00:00:00 | 00:00:00 | |
| SONDE2-12 | 2026-08-31 19:15:29 | 53.10324 | 16.16413 | 51° | 73km/h | 6925m | -1.8m/s | -25.9°C | 47.3% | 423.5hPa | 2.6V | 00:00:00 | 00:00:00 | 00:00:00 | |
| SONDE2-11 | 2026-08-31 19:15:25 | 53.10561 | 16.16871 | 44° | 77km/h | 6889m | -2.0m/s | -25.6°C | 45.1% | 425.6hPa | 2.6V | 00:00:00 | 00:00:00 | 00:00:00 | |
| AM1SDL-15 | 2026-08-31 19:15:23 | 53.10547 | 16.16848 | 48° | 80km/h | 6891m | -2.3m/s | -25.5°C | 47.6% | 425.3hPa | 2.6V | 00:00:00 | 02:59:34 | 00:00:00 | |
| EDDB2-12 | 2026-08-31 19:15:18 | 53.10489 | 16.16723 | 54° | 80km/h | 6901m | -2.0m/s | -25.7°C | 45.7% | 424.9hPa | 2.6V | 00:00:00 | 00:00:00 | 00:00:00 | |
| KRY50SP-1 | 2026-08-31 19:15:17 | 53.10488 | 16.16723 | 56° | 80km/h | 6901m | -2.0m/s | -25.7°C | 45.7% | 424.9hPa | 2.6V | 00:00:00 | 00:00:00 | 00:00:00 | |
| EDDB2-11 | 2026-08-31 19:15:16 | 53.10463 | 16.16666 | 52° | 86km/h | 6905m | -2.1m/s | -25.7°C | 45.7% | 424.6hPa | 2.6V | 00:00:00 | 00:00:00 | 00:00:00 | |
| SP3BTT-10 | 2026-08-31 19:15:14 | 53.10436 | 16.16608 | 51° | 80km/h | 6909m | -2.3m/s | -25.7°C | 48.2% | 424.3hPa | 2.6V | 00:00:00 | 00:00:00 | 00:00:00 | |
| AM1SDL-15 | 2026-08-31 19:15:11 | 53.10391 | 16.16528 | 46° | 78km/h | 6916m | -2.2m/s | -25.7°C | 48.0% | 424.0hPa | 2.6V | 00:00:00 | 02:59:22 | 08:30:00 | |
| KRY50SP-1 | 2026-08-31 19:15:05 | 53.10324 | 16.16413 | 52° | 73km/h | 6925m | -1.8m/s | -25.9°C | 46.1% | 423.5hPa | 2.6V | 00:00:00 | 00:00:00 | 00:00:00 | |
| SP3WXH-11 | 2026-08-31 19:14:59 | 53.10240 | 16.16219 | 51° | 86km/h | 6939m | -2.1m/s | -26.0°C | 46.5% | 422.8hPa | 2.6V | 00:00:00 | 00:00:00 | 00:00:00 | |
| SONDE2-11 | 2026-08-31 19:14:54 | 53.10151 | 16.16069 | 43° | 75km/h | 6950m | -2.2m/s | -26.1°C | 46.6% | 422.1hPa | 2.6V | 00:00:00 | 00:00:00 | 00:00:00 | |
| EDDB2-12 | 2026-08-31 19:14:47 | 53.10077 | 16.15926 | 55° | 78km/h | 6961m | -1.7m/s | -26.2°C | 47.1% | 421.4hPa | 2.6V | 00:00:00 | 00:00:00 | 00:00:00 | |
| EDDB2-11 | 2026-08-31 19:14:45 | 53.10053 | 16.15869 | 54° | 84km/h | 6965m | -2.1m/s | -26.3°C | 47.1% | 421.2hPa | 2.6V | 00:00:00 | 00:00:00 | 00:00:00 | |
| AA1-15 | 2026-08-31 19:14:37 | 53.09938 | 16.15656 | 45° | 77km/h | 6979m | -1.9m/s | 0°C | 0% | 0hPa | 2.6V | 18:12:15 | 02:58:48 | 00:00:00 | |
| SONDE2-12 | 2026-08-31 19:14:27 | 53.09818 | 16.15402 | 53° | 88km/h | 6998m | -1.8m/s | -26.6°C | 49.6% | 419.3hPa | 2.5V | 00:00:00 | 00:00:00 | 00:00:00 | |
| SONDE2-11 | 2026-08-31 19:14:23 | 53.09745 | 16.15266 | 44° | 78km/h | 7007m | -2.3m/s | -26.7°C | 48.9% | 418.7hPa | 2.5V | 00:00:00 | 00:00:00 | 00:00:00 | |
| AM1SDL-15 | 2026-08-31 19:14:22 | 53.09745 | 16.15266 | 45° | 78km/h | 7007m | -2.3m/s | -26.6°C | 51.5% | 418.6hPa | 2.5V | 00:00:00 | 02:58:33 | 00:00:00 | |
| EDDB2-12 | 2026-08-31 19:14:16 | 53.09666 | 16.15131 | 50° | 71km/h | 7019m | -2.2m/s | -26.8°C | 49.2% | 418.0hPa | 2.5V | 00:00:00 | 00:00:00 | 00:00:00 | |
| EDDB2-11 | 2026-08-31 19:14:14 | 53.09644 | 16.15080 | 55° | 77km/h | 7023m | -2.1m/s | -26.8°C | 49.4% | 417.7hPa | 2.5V | 00:00:00 | 00:00:00 | 00:00:00 | |
| SONDE2-12 | 2026-08-31 19:13:56 | 53.09404 | 16.14605 | 55° | 84km/h | 7061m | -2.3m/s | -27.2°C | 48.7% | 415.7hPa | 2.5V | 00:00:00 | 00:00:00 | 00:00:00 | |
| DB0DAN | 2026-08-31 19:13:55 | 53.09391 | 16.14575 | 54° | 84km/h | 7063m | -2.3m/s | -27.2°C | 47.4% | 415.51hPa | 2.5V | 00:00:00 | 00:00:00 | 00:00:00 | |
| SONDE2-11 | 2026-08-31 19:13:51 | 53.09332 | 16.14461 | 45° | 86km/h | 7071m | -2.4m/s | -27.3°C | 47.9% | 415.0hPa | 2.5V | 00:00:00 | 00:00:00 | 00:00:00 | |
| EDDB2-12 | 2026-08-31 19:13:45 | 53.09250 | 16.14320 | 49° | 73km/h | 7084m | -1.9m/s | -27.4°C | 48.8% | 414.5hPa | 2.5V | 00:00:00 | 00:00:00 | 00:00:00 | |
| EDDB2-11 | 2026-08-31 19:13:43 | 53.09226 | 16.14270 | 54° | 77km/h | 7088m | -1.9m/s | -27.4°C | 48.5% | 414.1hPa | 2.5V | 00:00:00 | 00:00:00 | 00:00:00 | |
| DB0DAN | 2026-08-31 19:13:40 | 53.09191 | 16.14185 | 55° | 82km/h | 7092m | -1.9m/s | -27.5°C | 48.3% | 413.81hPa | 2.5V | 00:00:00 | 00:00:00 | 00:00:00 | |
| KRY50SP-1 | 2026-08-31 19:13:38 | 53.09178 | 16.14155 | 53° | 89km/h | 7094m | -1.7m/s | -27.5°C | 48.4% | 413.6hPa | 2.5V | 00:00:00 | 00:00:00 | 00:00:00 | |
| AM1SDL-15 | 2026-08-31 19:13:34 | 53.09103 | 16.14015 | 45° | 84km/h | 7104m | -1.8m/s | -27.5°C | 50.3% | 413.1hPa | 2.5V | 00:00:00 | 02:57:45 | 00:00:00 | |
| KRY50SP-1 | 2026-08-31 19:13:32 | 53.09087 | 16.13991 | 45° | 82km/h | 7105m | -1.8m/s | -27.6°C | 48.0% | 413.1hPa | 2.5V | 00:00:00 | 00:00:00 | 00:00:00 | |
| SP3BTT-10 | 2026-08-31 19:13:28 | 53.09023 | 16.13867 | 54° | 89km/h | 7116m | -1.8m/s | -27.7°C | 50.9% | 412.4hPa | 2.5V | 00:00:00 | 00:00:00 | 00:00:00 | |
| KRY50SP-1 | 2026-08-31 19:13:27 | 53.09023 | 16.13867 | 54° | 80km/h | 7116m | -1.8m/s | -27.7°C | 48.2% | 412.4hPa | 2.5V | 00:00:00 | 00:00:00 | 00:00:00 | |
| DB0DAN | 2026-08-31 19:13:25 | 53.08985 | 16.13783 | 52° | 84km/h | 7121m | -1.7m/s | -27.8°C | 47.7% | 412.15hPa | 2.5V | 00:00:00 | 00:00:00 | 00:00:00 | |
| AM1SDL-15 | 2026-08-31 19:13:22 | 53.08941 | 16.13695 | 48° | 86km/h | 7125m | -1.8m/s | -27.8°C | 50.2% | 411.8hPa | 2.6V | 00:00:00 | 02:57:33 | 08:30:00 | |
| SONDE2-11 | 2026-08-31 19:13:20 | 53.08909 | 16.13640 | 45° | 88km/h | 7129m | -2.3m/s | -27.9°C | 48.0% | 411.6hPa | 2.5V | 00:00:00 | 00:00:00 | 00:00:00 | |
| KRY50SP-1 | 2026-08-31 19:13:16 | 53.08863 | 16.13562 | 47° | 84km/h | 7135m | -1.9m/s | -27.9°C | 48.5% | 411.3hPa | 2.5V | 00:00:00 | 00:00:00 | 00:00:00 | |
| EDDB2-12 | 2026-08-31 19:13:14 | 53.08823 | 16.13483 | 51° | 82km/h | 7141m | -2.0m/s | -28.0°C | 49.2% | 411.0hPa | 2.5V | 00:00:00 | 00:00:00 | 00:00:00 | |
| DB0DAN | 2026-08-31 19:13:10 | 53.08772 | 16.13367 | 55° | 86km/h | 7149m | -2.4m/s | -28°C | 0% | 0hPa | 2.5V | 00:00:00 | 00:00:00 | 00:00:00 | |
| KRY50SP-1 | 2026-08-31 19:13:05 | 53.08718 | 16.13243 | 55° | 91km/h | 7158m | -3.0m/s | -28.1°C | 49.0% | 409.9hPa | 2.6V | 00:00:00 | 00:00:00 | 00:00:00 | |
| KRY50SP-1 | 2026-08-31 19:13:00 | 53.08641 | 16.13092 | 48° | 91km/h | 7169m | -2.4m/s | -28.3°C | 50.5% | 409.3hPa | 2.6V | 00:00:00 | 00:00:00 | 00:00:00 | |
| AM1SDL-15 | 2026-08-31 19:12:58 | 53.08596 | 16.13009 | 50° | 89km/h | 7175m | -2.0m/s | -28.3°C | 54.7% | 408.9hPa | 2.6V | 00:00:00 | 02:57:09 | 00:00:00 | |
| DB0DAN | 2026-08-31 19:12:55 | 53.08555 | 16.12926 | 52° | 80km/h | 7180m | -2.2m/s | -28.4°C | 0% | 0hPa | 2.6V | 00:00:00 | 00:00:00 | 00:00:00 | |
| SONDE2-12 | 2026-08-31 19:12:54 | 53.08542 | 16.12897 | 55° | 84km/h | 7183m | -2.8m/s | -28.4°C | 53.8% | 408.5hPa | 2.5V | 00:00:00 | 00:00:00 | 00:00:00 | |
| KRY50SP-1 | 2026-08-31 19:12:49 | 53.08487 | 16.12772 | 53° | 95km/h | 7192m | -2.2m/s | -28.5°C | 48.8% | 408.1hPa | 2.5V | 00:00:00 | 00:00:00 | 00:00:00 | |
| AM1SDL-15 | 2026-08-31 19:12:46 | 53.08425 | 16.12651 | 46° | 88km/h | 7201m | -1.8m/s | -28.4°C | 38.6% | 407.5hPa | 2.5V | 00:00:00 | 02:56:57 | 00:00:00 | |
| SP3BTT-10 | 2026-08-31 19:12:43 | 53.08376 | 16.12569 | 44° | 89km/h | 7207m | -1.9m/s | -28.3°C | 28.7% | 407.2hPa | 2.6V | 00:00:00 | 00:00:00 | 00:00:00 | |
| DB0DAN | 2026-08-31 19:12:40 | 53.08331 | 16.12495 | 47° | 78km/h | 7213m | -1.8m/s | 0°C | 0% | 0hPa | 2.6V | 00:00:00 | 00:00:00 | 00:00:00 | |
| SONDE2-12 | 2026-08-31 19:12:23 | 53.08074 | 16.12020 | 49° | 82km/h | 7245m | -1.9m/s | -28.3°C | 28.1% | 405.1hPa | 2.5V | 00:00:00 | 00:00:00 | 00:00:00 | |
| AM1SDL-15 | 2026-08-31 19:12:22 | 53.08061 | 16.11992 | 53° | 93km/h | 7247m | -2.1m/s | -28.3°C | 29.7% | 404.9hPa | 2.5V | 00:00:00 | 02:56:33 | 00:00:00 | |
| KRY50SP-1 | 2026-08-31 19:12:20 | 53.08048 | 16.11963 | 55° | 88km/h | 7249m | -2.3m/s | -28.3°C | 28.1% | 404.8hPa | 2.5V | 00:00:00 | 00:00:00 | 00:00:00 | |
| SONDE2-11 | 2026-08-31 19:12:18 | 53.08004 | 16.11869 | 49° | 99km/h | 7254m | -1.2m/s | -28.4°C | 30.4% | 404.6hPa | 2.5V | 00:00:00 | 00:00:00 | 00:00:00 | |
| KRY50SP-1 | 2026-08-31 19:12:14 | 53.07955 | 16.11777 | 48° | 95km/h | 7260m | -2.6m/s | -28.4°C | 33.5% | 404.3hPa | 2.5V | 00:00:00 | 00:00:00 | 00:00:00 | |
| EDDB2-12 | 2026-08-31 19:12:12 | 53.07904 | 16.11696 | 43° | 89km/h | 7266m | -1.8m/s | -28.4°C | 33.9% | 403.9hPa | 2.5V | 00:00:00 | 00:00:00 | 00:00:00 | |
| EDDB2-11 | 2026-08-31 19:12:10 | 53.07873 | 16.11646 | 44° | 84km/h | 7270m | -1.8m/s | -28.5°C | 34.1% | 403.7hPa | 2.5V | 00:00:00 | 00:00:00 | 00:00:00 | |
| KRY50SP-1 | 2026-08-31 19:12:09 | 53.07873 | 16.11646 | 45° | 84km/h | 7270m | -1.8m/s | -28.5°C | 34.1% | 403.7hPa | 2.5V | 00:00:00 | 00:00:00 | 00:00:00 | |
| KRY50SP-1 | 2026-08-31 19:12:03 | 53.07792 | 16.11482 | 54° | 93km/h | 7282m | -1.6m/s | -28.5°C | 35.2% | 403.0hPa | 2.5V | 00:00:00 | 00:00:00 | 00:00:00 | |
| SP6BVK | 2026-08-31 19:12:02 | 53.07777 | 16.11451 | 52° | 95km/h | 7283m | -2.2m/s | -28.5°C | 34.4% | 403.0hPa | 2.5V | 00:00:00 | 00:00:00 | 00:00:00 | |
| SONDE2-11 | 2026-08-31 19:11:47 | 53.07537 | 16.11013 | 50° | 95km/h | 7316m | -1.8m/s | -28.9°C | 36.4% | 401.2hPa | 2.5V | 00:00:00 | 00:00:00 | 00:00:00 | |
| AM1SDL-15 | 2026-08-31 19:11:46 | 53.07521 | 16.10982 | 49° | 88km/h | 7318m | -1.8m/s | -28.8°C | 39.1% | 401.0hPa | 2.5V | 00:00:00 | 02:55:57 | 00:00:00 | |
| EDDB2-12 | 2026-08-31 19:11:41 | 53.07422 | 16.10820 | 44° | 82km/h | 7330m | -2.6m/s | -29.0°C | 44.5% | 400.3hPa | 2.5V | 00:00:00 | 00:00:00 | 00:00:00 | |
| EDDB2-11 | 2026-08-31 19:11:39 | 53.07407 | 16.10797 | 44° | 78km/h | 7333m | -2.4m/s | -29.0°C | 49.1% | 400.2hPa | 2.5V | 00:00:00 | 00:00:00 | 00:00:00 | |
| KRY50SP-1 | 2026-08-31 19:11:35 | 53.07366 | 16.10723 | 51° | 82km/h | 7340m | -1.9m/s | -29.1°C | 49.8% | 399.7hPa | 2.5V | 00:00:00 | 00:00:00 | 00:00:00 | |
| AM1SDL-15 | 2026-08-31 19:11:34 | 53.07339 | 16.10669 | 53° | 88km/h | 7344m | -2.6m/s | -29.1°C | 55.6% | 399.5hPa | 2.5V | 00:00:00 | 02:55:45 | 08:30:00 | |
| SP3BTT-10 | 2026-08-31 19:11:31 | 53.07296 | 16.10582 | 49° | 86km/h | 7350m | -2.6m/s | -29.1°C | 56.3% | 399.1hPa | 2.5V | 00:00:00 | 00:00:00 | 00:00:00 | |
| KRY50SP-1 | 2026-08-31 19:11:30 | 53.07296 | 16.10582 | 49° | 93km/h | 7350m | -2.6m/s | -29.2°C | 53.2% | 399.2hPa | 2.5V | 00:00:00 | 00:00:00 | 00:00:00 | |
| KRY50SP-1 | 2026-08-31 19:11:25 | 53.07214 | 16.10449 | 41° | 88km/h | 7363m | -2.1m/s | -29.3°C | 53.4% | 398.5hPa | 2.5V | 00:00:00 | 00:00:00 | 00:00:00 | |
| AM1SDL-15 | 2026-08-31 19:11:22 | 53.07152 | 16.10358 | 45° | 86km/h | 7373m | -2.4m/s | -29.3°C | 56.6% | 397.9hPa | 2.5V | 00:00:00 | 02:55:33 | 00:00:00 | |
| KRY50SP-1 | 2026-08-31 19:11:20 | 53.07139 | 16.10336 | 46° | 77km/h | 7375m | -2.3m/s | -29.4°C | 53.9% | 397.8hPa | 2.5V | 00:00:00 | 00:00:00 | 00:00:00 | |
| SONDE2-11 | 2026-08-31 19:11:16 | 53.07073 | 16.10202 | 51° | 88km/h | 7386m | -2.3m/s | -29.5°C | 54.7% | 397.3hPa | 2.5V | 00:00:00 | 00:00:00 | 00:00:00 | |
| KRY50SP-1 | 2026-08-31 19:11:15 | 53.07072 | 16.10202 | 52° | 89km/h | 7386m | -2.3m/s | -29.5°C | 54.6% | 397.3hPa | 2.5V | 00:00:00 | 00:00:00 | 00:00:00 | |
| EDDB2-12 | 2026-08-31 19:11:10 | 53.06956 | 16.10012 | 40° | 86km/h | 7399m | -1.7m/s | -29.7°C | 54.1% | 396.5hPa | 2.5V | 00:00:00 | 00:00:00 | 00:00:00 | |
| EDDB2-11 | 2026-08-31 19:11:08 | 53.06940 | 16.09989 | 41° | 82km/h | 7401m | -1.8m/s | -29.7°C | 54.3% | 396.3hPa | 2.5V | 00:00:00 | 00:00:00 | 00:00:00 | |
| KRY50SP-1 | 2026-08-31 19:11:05 | 53.06912 | 16.09943 | 47° | 75km/h | 7405m | -2.3m/s | -29.7°C | 54.5% | 396.1hPa | 2.5V | 00:00:00 | 00:00:00 | 00:00:00 | |
| SONDE2-11 | 2026-08-31 19:10:45 | 53.06604 | 16.09405 | 49° | 89km/h | 7451m | -1.5m/s | -30.0°C | 55.3% | 393.7hPa | 2.5V | 00:00:00 | 00:00:00 | 00:00:00 | |
| KRY50SP-1 | 2026-08-31 19:10:42 | 53.06574 | 16.09346 | 48° | 97km/h | 7454m | -1.6m/s | -30.0°C | 54.9% | 393.5hPa | 2.5V | 00:00:00 | 00:00:00 | 00:00:00 | |
| EDDB2-12 | 2026-08-31 19:10:39 | 53.06487 | 16.09214 | 39° | 89km/h | 7462m | -1.6m/s | -30.1°C | 54.3% | 392.9hPa | 2.5V | 00:00:00 | 00:00:00 | 00:00:00 | |
| EDDB2-11 | 2026-08-31 19:10:37 | 53.06454 | 16.09167 | 42° | 80km/h | 7466m | -2.4m/s | -30.2°C | 54.2% | 392.7hPa | 2.5V | 00:00:00 | 00:00:00 | 00:00:00 | |
| AM1SDL-15 | 2026-08-31 19:10:34 | 53.06426 | 16.09122 | 45° | 88km/h | 7470m | -2.1m/s | -30.1°C | 56.9% | 392.4hPa | 2.5V | 00:00:00 | 02:54:45 | 00:00:00 | |
| KRY50SP-1 | 2026-08-31 19:10:32 | 53.06412 | 16.09099 | 48° | 78km/h | 7472m | -1.9m/s | -30.2°C | 53.6% | 392.5hPa | 2.5V | 00:00:00 | 00:00:00 | 00:00:00 | |
| SONDE2-12 | 2026-08-31 19:10:19 | 53.06141 | 16.08629 | 52° | 82km/h | 7506m | -2.8m/s | -30.5°C | 50.4% | 390.5hPa | 2.5V | 00:00:00 | 00:00:00 | 00:00:00 | |
| KRY50SP-1 | 2026-08-31 19:10:15 | 53.06154 | 16.08656 | 52° | 82km/h | 7504m | -2.2m/s | -30.5°C | 49.1% | 390.5hPa | 2.5V | 00:00:00 | 00:00:00 | 00:00:00 | |
| SONDE2-11 | 2026-08-31 19:10:14 | 53.06128 | 16.08601 | 51° | 84km/h | 7508m | -2.4m/s | -30.5°C | 49.1% | 390.3hPa | 2.5V | 00:00:00 | 00:00:00 | 00:00:00 | |
| AM1SDL-15 | 2026-08-31 19:10:10 | 53.06066 | 16.08485 | 45° | 84km/h | 7517m | -1.6m/s | -30.5°C | 52.1% | 389.8hPa | 2.5V | 00:00:00 | 02:54:21 | 00:00:00 | |
| KRY50SP-1 | 2026-08-31 19:10:09 | 53.06067 | 16.08485 | 45° | 95km/h | 7517m | -1.6m/s | -30.6°C | 49.1% | 389.9hPa | 2.5V | 00:00:00 | 00:00:00 | 00:00:00 | |
| EDDB2-12 | 2026-08-31 19:10:08 | 53.06015 | 16.08407 | 40° | 89km/h | 7522m | -2.1m/s | -30.6°C | 48.0% | 389.6hPa | 2.5V | 00:00:00 | 00:00:00 | 00:00:00 | |
| EDDB2-11 | 2026-08-31 19:10:06 | 53.05983 | 16.08361 | 39° | 80km/h | 7527m | -1.7m/s | -30.7°C | 48.0% | 389.4hPa | 2.5V | 00:00:00 | 00:00:00 | 00:00:00 | |
| SP6BVK | 2026-08-31 19:10:04 | 53.05982 | 16.08361 | 40° | 82km/h | 7527m | -1.7m/s | -30.6°C | 47.9% | 389.4hPa | 2.5V | 00:00:00 | 00:00:00 | 00:00:00 | |
| KRY50SP-1 | 2026-08-31 19:10:03 | 53.05967 | 16.08339 | 42° | 80km/h | 7529m | -1.9m/s | -30.7°C | 48.0% | 389.4hPa | 2.5V | 00:00:00 | 00:00:00 | 00:00:00 | |
| SONDE2-12 | 2026-08-31 19:09:48 | 53.05691 | 16.07877 | 44° | 77km/h | 7565m | -2.3m/s | -31.0°C | 51.7% | 387.3hPa | 2.5V | 00:00:00 | 00:00:00 | 00:00:00 | |
| KRY50SP-1 | 2026-08-31 19:09:47 | 53.05721 | 16.07923 | 41° | 84km/h | 7561m | -1.7m/s | -31.0°C | 50.2% | 387.5hPa | 2.5V | 00:00:00 | 00:00:00 | 00:00:00 | |
| AM1SDL-15 | 2026-08-31 19:09:46 | 53.05691 | 16.07877 | 45° | 86km/h | 7565m | -2.3m/s | -31.0°C | 53.2% | 387.2hPa | 2.5V | 00:00:00 | 02:53:57 | 08:30:00 | |
| SONDE2-11 | 2026-08-31 19:09:43 | 53.05651 | 16.07805 | 50° | 82km/h | 7571m | -2.0m/s | -31.1°C | 50.3% | 386.9hPa | 2.5V | 00:00:00 | 00:00:00 | 00:00:00 | |
| SP6BVK | 2026-08-31 19:09:42 | 53.05651 | 16.07805 | 51° | 82km/h | 7571m | -2.0m/s | -31.1°C | 50.3% | 387.0hPa | 2.5V | 00:00:00 | 00:00:00 | 00:00:00 | |
| KRY50SP-1 | 2026-08-31 19:09:41 | 53.05638 | 16.07778 | 53° | 82km/h | 7573m | -2.6m/s | -31.1°C | 50.5% | 386.8hPa | 2.5V | 00:00:00 | 00:00:00 | 00:00:00 | |
| 3Z3Z-3 | 2026-08-31 19:09:39 | 53.05609 | 16.07721 | 50° | 93km/h | 7578m | -1.6m/s | -31.2°C | 50.6% | 386.5hPa | 2.5V | 00:00:00 | 00:00:00 | 00:00:00 | |
| EDDB2-12 | 2026-08-31 19:09:37 | 53.05544 | 16.07607 | 42° | 93km/h | 7586m | -1.7m/s | -31.3°C | 50.2% | 386.1hPa | 2.5V | 00:00:00 | 00:00:00 | 00:00:00 | |
| EDDB2-11 | 2026-08-31 19:09:35 | 53.05510 | 16.07555 | 42° | 86km/h | 7590m | -2.7m/s | -31.3°C | 50.4% | 385.8hPa | 2.5V | 00:00:00 | 00:00:00 | 00:00:00 | |
| KRY50SP-1 | 2026-08-31 19:09:31 | 53.05449 | 16.07463 | 45° | 77km/h | 7598m | -2.5m/s | -31.4°C | 50.0% | 385.4hPa | 2.5V | 00:00:00 | 00:00:00 | 00:00:00 | |
| 3Z3Z-3 | 2026-08-31 19:09:28 | 53.05436 | 16.07440 | 50° | 77km/h | 7601m | -2.5m/s | -31.4°C | 50.3% | 385.3hPa | 2.5V | 00:00:00 | 00:00:00 | 00:00:00 | |
| KRY50SP-1 | 2026-08-31 19:09:23 | 53.05369 | 16.07306 | 52° | 91km/h | 7611m | -1.7m/s | -31.5°C | 49.8% | 384.7hPa | 2.5V | 00:00:00 | 00:00:00 | 00:00:00 | |
| AM1SDL-15 | 2026-08-31 19:09:22 | 53.05339 | 16.07247 | 49° | 86km/h | 7615m | -2.3m/s | -31.5°C | 52.8% | 384.4hPa | 2.5V | 00:00:00 | 02:53:33 | 00:00:00 | |
| 3Z3Z-3 | 2026-08-31 19:09:18 | 53.05290 | 16.07162 | 44° | 95km/h | 7621m | -1.8m/s | -31.6°C | 50.3% | 384.1hPa | 2.5V | 00:00:00 | 00:00:00 | 00:00:00 | |
| SP3BTT-10 | 2026-08-31 19:09:16 | 53.05238 | 16.07086 | 42° | 86km/h | 7626m | -2.5m/s | -31.6°C | 52.8% | 383.7hPa | 2.5V | 00:00:00 | 00:00:00 | 00:00:00 | |
| SONDE2-11 | 2026-08-31 19:09:12 | 53.05178 | 16.06994 | 46° | 78km/h | 7635m | -2.3m/s | -31.7°C | 49.9% | 383.4hPa | 2.5V | 00:00:00 | 00:00:00 | 00:00:00 | |
| AM1SDL-15 | 2026-08-31 19:09:08 | 53.05125 | 16.06885 | 53° | 88km/h | 7644m | -2.8m/s | -31.7°C | 54.0% | 382.9hPa | 2.5V | 00:00:00 | 02:53:19 | 00:00:00 | |
| KRY50SP-1 | 2026-08-31 19:09:07 | 53.05125 | 16.06885 | 54° | 89km/h | 7644m | -2.9m/s | -31.8°C | 50.8% | 382.9hPa | 2.6V | 00:00:00 | 00:00:00 | 00:00:00 | |
| EDDB2-12 | 2026-08-31 19:09:06 | 53.05080 | 16.06796 | 46° | 97km/h | 7651m | -1.6m/s | -31.9°C | 52.2% | 382.7hPa | 2.6V | 00:00:00 | 00:00:00 | 00:00:00 | |
| EDDB2-11 | 2026-08-31 19:09:04 | 53.05047 | 16.06741 | 43° | 93km/h | 7656m | -1.8m/s | -31.9°C | 52.1% | 382.3hPa | 2.6V | 00:00:00 | 00:00:00 | 00:00:00 | |
| SONDE2-12 | 2026-08-31 19:08:45 | 53.04780 | 16.06256 | 43° | 86km/h | 7692m | -2.1m/s | -32.3°C | 53.2% | 380.3hPa | 2.6V | 00:00:00 | 00:00:00 | 00:00:00 | |
| AA1-15 | 2026-08-31 19:08:33 | 53.04612 | 16.05931 | 48° | 95km/h | 7717m | -2.8m/s | -32.5°C | 49.7% | 379hPa | 2.6V | 18:12:15 | 02:52:44 | 00:00:00 | |
| AA1-15 | 2026-08-31 19:08:22 | 53.04450 | 16.05647 | 54° | 86km/h | 7742m | -2.2m/s | -32.7°C | 49.9% | 377.7hPa | 2.5V | 18:12:15 | 02:52:33 | 00:00:00 | |
| AA1-15 | 2026-08-31 19:08:12 | 53.04301 | 16.05366 | 42° | 80km/h | 7765m | -2.2m/s | -32.9°C | 50.9% | 376.5hPa | 2.5V | 18:12:15 | 02:52:23 | 00:00:00 | |
| AA1-15 | 2026-08-31 19:08:00 | 53.04136 | 16.05036 | 46° | 91km/h | 7791m | -2.9m/s | -33.1°C | 51% | 375.1hPa | 2.6V | 18:12:15 | 02:52:11 | 00:00:00 | |
| AA1-15 | 2026-08-31 19:07:49 | 53.03983 | 16.04756 | 54° | 89km/h | 7817m | -1.8m/s | -33.3°C | 48.3% | 373.8hPa | 2.6V | 18:12:15 | 02:52:00 | 00:00:00 | |
| SP3BTT-10 | 2026-08-31 19:07:46 | 53.03941 | 16.04668 | 49° | 78km/h | 7823m | -2.3m/s | -33.3°C | 47.5% | 373.4hPa | 2.5V | 00:00:00 | 00:00:00 | 00:00:00 | |
| AM1SDL-15 | 2026-08-31 19:07:44 | 53.03911 | 16.04615 | 46° | 77km/h | 7827m | -2.1m/s | -33.3°C | 46.7% | 373.3hPa | 2.5V | 00:00:00 | 02:51:55 | 00:00:00 | |
| KRY50SP-1 | 2026-08-31 19:07:40 | 53.03867 | 16.04544 | 44° | 80km/h | 7833m | -2.0m/s | -33.4°C | 42.8% | 372.8hPa | 2.5V | 00:00:00 | 00:00:00 | 00:00:00 | |
| SONDE2-11 | 2026-08-31 19:07:39 | 53.03840 | 16.04498 | 45° | 77km/h | 7838m | -1.9m/s | -33.4°C | 42.1% | 372.7hPa | 2.5V | 00:00:00 | 00:00:00 | 00:00:00 | |
| AA1-15 | 2026-08-31 19:07:19 | 53.03567 | 16.04008 | 54° | 73km/h | 7883m | -2.7m/s | -33.6°C | 23.4% | 370.3hPa | 2.5V | 18:12:15 | 02:51:30 | 00:00:00 | |
| KRY50SP-1 | 2026-08-31 19:07:18 | 53.03567 | 16.04008 | 55° | 73km/h | 7883m | -2.7m/s | -33.6°C | 19.3% | 370.3hPa | 2.4V | 00:00:00 | 00:00:00 | 00:00:00 | |
| KRY50SP-1 | 2026-08-31 19:07:12 | 53.03488 | 16.03847 | 46° | 86km/h | 7896m | -2.3m/s | -33.6°C | 11.3% | 369.7hPa | 2.4V | 00:00:00 | 00:00:00 | 00:00:00 | |
| SONDE2-11 | 2026-08-31 19:07:08 | 53.03414 | 16.03730 | 41° | 77km/h | 7908m | -2.2m/s | -33.7°C | 10.7% | 369.1hPa | 2.4V | 00:00:00 | 00:00:00 | 00:00:00 | |
| KRY50SP-1 | 2026-08-31 19:07:07 | 53.03414 | 16.03730 | 42° | 77km/h | 7909m | -2.2m/s | -33.7°C | 10.7% | 369.1hPa | 2.4V | 00:00:00 | 00:00:00 | 00:00:00 | |
| KRY50SP-1 | 2026-08-31 19:07:02 | 53.03353 | 16.03617 | 53° | 75km/h | 7921m | -2.2m/s | -33.8°C | 10.4% | 368.5hPa | 2.4V | 00:00:00 | 00:00:00 | 00:00:00 | |
| EDDB2-12 | 2026-08-31 19:07:01 | 53.03330 | 16.03566 | 52° | 80km/h | 7926m | -2.1m/s | -33.8°C | 9.6% | 368.2hPa | 2.4V | 00:00:00 | 00:00:00 | 00:00:00 | |
| EDDB2-11 | 2026-08-31 19:07:00 | 53.03304 | 16.03511 | 50° | 88km/h | 7930m | -1.9m/s | -33.9°C | 9.6% | 368.0hPa | 2.4V | 00:00:00 | 00:00:00 | 00:00:00 | |
| AM1SDL-15 | 2026-08-31 19:06:56 | 53.03260 | 16.03427 | 45° | 78km/h | 7936m | -2.0m/s | -33.9°C | 11.0% | 367.6hPa | 2.4V | 00:00:00 | 02:51:07 | 00:00:00 | |
| KRY50SP-1 | 2026-08-31 19:06:50 | 53.03187 | 16.03316 | 47° | 69km/h | 7947m | -2.8m/s | -34.0°C | 9.5% | 367.0hPa | 2.4V | 00:00:00 | 00:00:00 | 00:00:00 | |
| AM1SDL-15 | 2026-08-31 19:06:44 | 53.03105 | 16.03145 | 52° | 80km/h | 7964m | -1.7m/s | -34.1°C | 10.8% | 366.2hPa | 2.4V | 00:00:00 | 02:50:55 | 00:00:00 | |
| KRY50SP-1 | 2026-08-31 19:06:39 | 53.03045 | 16.03036 | 46° | 88km/h | 7971m | -2.0m/s | -34.3°C | 9.3% | 365.7hPa | 2.5V | 00:00:00 | 00:00:00 | 00:00:00 | |
| SONDE2-11 | 2026-08-31 19:06:37 | 53.03000 | 16.02964 | 41° | 77km/h | 7978m | -2.3m/s | -34.3°C | 9.3% | 365.4hPa | 2.5V | 00:00:00 | 00:00:00 | 00:00:00 | |
| KRY50SP-1 | 2026-08-31 19:06:34 | 53.02972 | 16.02922 | 46° | 69km/h | 7982m | -2.5m/s | -34.3°C | 9.3% | 365.2hPa | 2.5V | 00:00:00 | 00:00:00 | 00:00:00 | |
| AM1SDL-15 | 2026-08-31 19:06:32 | 53.02938 | 16.02853 | 53° | 82km/h | 7990m | -1.9m/s | -34.4°C | 10.9% | 364.7hPa | 2.5V | 00:00:00 | 02:50:43 | 00:00:00 | |
| EDDB2-12 | 2026-08-31 19:06:30 | 53.02915 | 16.02802 | 53° | 77km/h | 7994m | -2.8m/s | -34.5°C | 9.6% | 364.5hPa | 2.5V | 00:00:00 | 00:00:00 | 00:00:00 | |
| SP3WXH-11 | 2026-08-31 19:06:29 | 53.02903 | 16.02775 | 52° | 80km/h | 7996m | -2.9m/s | -34.5°C | 9.6% | 364.4hPa | 2.5V | 00:00:00 | 00:00:00 | 00:00:00 | |
| KRY50SP-1 | 2026-08-31 19:06:28 | 53.02903 | 16.02775 | 53° | 80km/h | 7997m | -2.9m/s | -34.5°C | 9.6% | 364.4hPa | 2.5V | 00:00:00 | 00:00:00 | 00:00:00 | |
| SONDE2-12 | 2026-08-31 19:06:10 | 53.02638 | 16.02298 | 48° | 86km/h | 8040m | -2.5m/s | -34.9°C | 10.0% | 362.0hPa | 2.5V | 00:00:00 | 00:00:00 | 00:00:00 | |
| AM1SDL-15 | 2026-08-31 19:06:08 | 53.02606 | 16.02245 | 46° | 77km/h | 8044m | -2.7m/s | -34.9°C | 11.2% | 361.8hPa | 2.5V | 00:00:00 | 02:50:19 | 08:30:00 | |
| SONDE2-11 | 2026-08-31 19:06:06 | 53.02574 | 16.02198 | 40° | 80km/h | 8048m | -2.6m/s | -34.9°C | 9.9% | 361.5hPa | 2.4V | 00:00:00 | 00:00:00 | 00:00:00 | |
| KRY50SP-1 | 2026-08-31 19:06:05 | 53.02574 | 16.02198 | 41° | 80km/h | 8048m | -2.6m/s | -34.9°C | 9.8% | 361.5hPa | 2.4V | 00:00:00 | 00:00:00 | 00:00:00 | |
| EDDB2-11 | 2026-08-31 19:05:58 | 53.02460 | 16.01983 | 53° | 82km/h | 8070m | -3.0m/s | -35.1°C | 10.9% | 360.5hPa | 2.4V | 00:00:00 | 00:00:00 | 00:00:00 | |
| AM1SDL-15 | 2026-08-31 19:05:56 | 53.02447 | 16.01955 | 50° | 82km/h | 8073m | -2.1m/s | -35.1°C | 12.6% | 360.3hPa | 2.4V | 00:00:00 | 02:50:07 | 00:00:00 | |
| 3Z3Z-3 | 2026-08-31 19:05:55 | 53.02447 | 16.01955 | 51° | 89km/h | 8073m | -2.2m/s | -35.2°C | 11.0% | 360.4hPa | 2.4V | 00:00:00 | 00:00:00 | 00:00:00 | |
| SONDE2-12 | 2026-08-31 19:05:39 | 53.02198 | 16.01493 | 48° | 91km/h | 8118m | -2.6m/s | -35.6°C | 14.7% | 358.1hPa | 2.4V | 00:00:00 | 00:00:00 | 00:00:00 | |
| KRY50SP-1 | 2026-08-31 19:05:38 | 53.02213 | 16.01521 | 52° | 88km/h | 8115m | -2.8m/s | -35.5°C | 14.0% | 358.3hPa | 2.4V | 00:00:00 | 00:00:00 | 00:00:00 | |
| SONDE2-11 | 2026-08-31 19:05:35 | 53.02134 | 16.01392 | 41° | 78km/h | 8127m | -2.6m/s | -35.7°C | 15.8% | 357.7hPa | 2.4V | 00:00:00 | 00:00:00 | 00:00:00 | |
| AM1SDL-15 | 2026-08-31 19:05:32 | 53.02106 | 16.01348 | 46° | 82km/h | 8132m | -2.3m/s | -35.6°C | 18.3% | 357.4hPa | 2.4V | 00:00:00 | 02:49:43 | 00:00:00 | |
| SP3BTT-10 | 2026-08-31 19:05:31 | 53.02093 | 16.01325 | 46° | 82km/h | 8134m | -2.3m/s | -35.7°C | 18.6% | 357.2hPa | 2.4V | 00:00:00 | 00:00:00 | 08:30:00 | |
| EDDB2-12 | 2026-08-31 19:05:28 | 53.02057 | 16.01255 | 51° | 73km/h | 8142m | -3.2m/s | -35.8°C | 17.7% | 356.8hPa | 2.4V | 00:00:00 | 00:00:00 | 00:00:00 | |
| EDDB2-11 | 2026-08-31 19:05:27 | 53.02033 | 16.01202 | 53° | 78km/h | 8147m | -3.0m/s | -35.8°C | 18.5% | 356.6hPa | 2.4V | 00:00:00 | 00:00:00 | 00:00:00 | |
| KRY50SP-1 | 2026-08-31 19:05:22 | 53.01979 | 16.01088 | 50° | 89km/h | 8157m | -2.9m/s | -35.9°C | 20.6% | 356.1hPa | 2.4V | 00:00:00 | 00:00:00 | 00:00:00 | |
| AM1SDL-15 | 2026-08-31 19:05:18 | 53.01916 | 16.00985 | 42° | 80km/h | 8166m | -2.2m/s | -36.0°C | 25.4% | 355.6hPa | 2.4V | 00:00:00 | 02:49:29 | 00:00:00 | |
| KRY50SP-1 | 2026-08-31 19:05:16 | 53.01902 | 16.00962 | 46° | 75km/h | 8168m | -2.4m/s | -36.0°C | 22.6% | 355.6hPa | 2.4V | 00:00:00 | 00:00:00 | 00:00:00 | |
| KRY50SP-1 | 2026-08-31 19:05:10 | 53.01827 | 16.00819 | 55° | 77km/h | 8182m | -2.9m/s | -36.1°C | 20.6% | 354.8hPa | 2.4V | 00:00:00 | 00:00:00 | 00:00:00 | |
| SP6BVK | 2026-08-31 19:05:08 | 53.01803 | 16.00763 | 55° | 84km/h | 8187m | -2.7m/s | -36.2°C | 20.5% | 354.6hPa | 2.4V | 00:00:00 | 00:00:00 | 00:00:00 | |
| AM1SDL-15 | 2026-08-31 19:05:06 | 53.01761 | 16.00675 | 49° | 82km/h | 8193m | -2.1m/s | -36.2°C | 23.1% | 354.1hPa | 2.4V | 00:00:00 | 02:49:17 | 00:00:00 | |
| KRY50SP-1 | 2026-08-31 19:05:05 | 53.01761 | 16.00675 | 50° | 93km/h | 8193m | -2.2m/s | -36.2°C | 20.8% | 354.2hPa | 2.4V | 00:00:00 | 00:00:00 | 00:00:00 | |
| SONDE2-11 | 2026-08-31 19:05:04 | 53.01729 | 16.00621 | 44° | 86km/h | 8197m | -2.4m/s | -36.3°C | 20.9% | 354.0hPa | 2.4V | 00:00:00 | 00:00:00 | 00:00:00 | |
| EDDB2-12 | 2026-08-31 19:04:57 | 53.01633 | 16.00453 | 52° | 77km/h | 8213m | -2.4m/s | -36.5°C | 21.1% | 353.2hPa | 2.4V | 00:00:00 | 00:00:00 | 00:00:00 | |
| SP3WXH-11 | 2026-08-31 19:04:56 | 53.01609 | 16.00400 | 53° | 82km/h | 8218m | -2.2m/s | -36.5°C | 21.0% | 352.9hPa | 2.4V | 00:00:00 | 00:00:00 | 00:00:00 | |
| KRY50SP-1 | 2026-08-31 19:04:55 | 53.01621 | 16.00427 | 55° | 77km/h | 8216m | -2.9m/s | -36.5°C | 21.0% | 353.1hPa | 2.4V | 00:00:00 | 00:00:00 | 00:00:00 | |
| AM1SDL-15 | 2026-08-31 19:04:54 | 53.01597 | 16.00372 | 57° | 84km/h | 8220m | -3.0m/s | -36.5°C | 23.6% | 352.8hPa | 2.4V | 00:00:00 | 02:49:05 | 00:00:00 | |
| KRY50SP-1 | 2026-08-31 19:04:49 | 53.01542 | 16.00255 | 51° | 88km/h | 8230m | -2.8m/s | -36.6°C | 23.3% | 352.3hPa | 2.6V | 00:00:00 | 00:00:00 | 00:00:00 | |
| SP6BVK | 2026-08-31 19:04:47 | 53.01511 | 16.00199 | 47° | 89km/h | 8235m | -2.6m/s | -36.7°C | 23.8% | 352.1hPa | 2.6V | 00:00:00 | 00:00:00 | 00:00:00 | |
| SP3BTT-10 | 2026-08-31 19:04:46 | 53.01480 | 16.00149 | 43° | 82km/h | 8240m | -2.2m/s | -36.7°C | 26.7% | 351.8hPa | 2.6V | 00:00:00 | 00:00:00 | 00:00:00 | |
| KRY50SP-1 | 2026-08-31 19:04:44 | 53.01464 | 16.00125 | 44° | 78km/h | 8242m | -2.5m/s | -36.7°C | 24.3% | 351.7hPa | 2.6V | 00:00:00 | 00:00:00 | 00:00:00 | |
| AM1SDL-15 | 2026-08-31 19:04:42 | 53.01425 | 16.00056 | 50° | 86km/h | 8249m | -2.6m/s | -36.7°C | 27.1% | 351.2hPa | 2.6V | 00:00:00 | 02:48:53 | 00:00:00 | |
| KRY50SP-1 | 2026-08-31 19:04:39 | 53.01402 | 16.00005 | 56° | 77km/h | 8253m | -2.6m/s | -36.8°C | 24.4% | 351.1hPa | 2.6V | 00:00:00 | 00:00:00 | 00:00:00 | |
| KRY50SP-1 | 2026-08-31 19:04:34 | 53.01340 | 15.99862 | 53° | 89km/h | 8263m | -2.2m/s | -36.9°C | 24.9% | 350.6hPa | 2.6V | 00:00:00 | 00:00:00 | 00:00:00 | |
| SONDE2-11 | 2026-08-31 19:04:33 | 53.01296 | 15.99772 | 47° | 93km/h | 8270m | -2.5m/s | -37.0°C | 25.1% | 350.3hPa | 2.6V | 00:00:00 | 00:00:00 | 00:00:00 | |
| AM1SDL-15 | 2026-08-31 19:04:30 | 53.01264 | 15.99717 | 46° | 82km/h | 8275m | -2.7m/s | -37.0°C | 28.0% | 350.0hPa | 2.6V | 00:00:00 | 02:48:41 | 00:00:00 | |
| KRY50SP-1 | 2026-08-31 19:04:28 | 53.01249 | 15.99692 | 46° | 84km/h | 8278m | -2.6m/s | -37.1°C | 25.5% | 349.9hPa | 2.6V | 00:00:00 | 00:00:00 | 00:00:00 | |
| EDDB2-12 | 2026-08-31 19:04:26 | 53.01207 | 15.99619 | 47° | 75km/h | 8285m | -2.4m/s | -37.1°C | 26.2% | 349.6hPa | 2.6V | 00:00:00 | 00:00:00 | 00:00:00 | |
| SP3WXH-11 | 2026-08-31 19:04:25 | 53.01183 | 15.99569 | 51° | 77km/h | 8290m | -2.6m/s | -37.2°C | 26.8% | 349.3hPa | 2.6V | 00:00:00 | 00:00:00 | 00:00:00 | |
| EDDB2-11 | 2026-08-31 19:04:24 | 53.01183 | 15.99569 | 51° | 77km/h | 8290m | -2.6m/s | -37.2°C | 26.8% | 349.3hPa | 2.6V | 00:00:00 | 00:00:00 | 00:00:00 | |
| KRY50SP-1 | 2026-08-31 19:04:23 | 53.01182 | 15.99569 | 53° | 77km/h | 8291m | -2.6m/s | -37.1°C | 26.8% | 349.3hPa | 2.6V | 00:00:00 | 00:00:00 | 00:00:00 | |
| AM1SDL-15 | 2026-08-31 19:04:18 | 53.01107 | 15.99395 | 51° | 86km/h | 8304m | -2.8m/s | -37.2°C | 31.2% | 348.4hPa | 2.6V | 00:00:00 | 02:48:29 | 08:30:00 | |
| KRY50SP-1 | 2026-08-31 19:04:13 | 53.01045 | 15.99282 | 47° | 89km/h | 8315m | -2.6m/s | -37.3°C | 30.6% | 348.1hPa | 2.6V | 00:00:00 | 00:00:00 | 00:00:00 | |
| KRY50SP-1 | 2026-08-31 19:04:07 | 53.00959 | 15.99134 | 53° | 77km/h | 8329m | -2.8m/s | -37.5°C | 31.9% | 347.3hPa | 2.6V | 00:00:00 | 00:00:00 | 00:00:00 | |
| AM1SDL-15 | 2026-08-31 19:04:06 | 53.00936 | 15.99080 | 57° | 89km/h | 8335m | -2.7m/s | -37.4°C | 35.9% | 347.0hPa | 2.6V | 00:00:00 | 02:48:17 | 00:00:00 | |
| SONDE2-11 | 2026-08-31 19:04:02 | 53.00869 | 15.98929 | 49° | 91km/h | 8348m | -2.8m/s | -37.6°C | 34.0% | 346.4hPa | 2.6V | 00:00:00 | 00:00:00 | 00:00:00 | |
| EDDB2-12 | 2026-08-31 19:03:55 | 53.00773 | 15.98767 | 43° | 86km/h | 8363m | -2.5m/s | -37.8°C | 35.0% | 345.6hPa | 2.6V | 00:00:00 | 00:00:00 | 00:00:00 | |
| EDDB2-11 | 2026-08-31 19:03:54 | 53.00743 | 15.98717 | 48° | 82km/h | 8367m | -2.7m/s | -37.8°C | 36.0% | 345.3hPa | 2.6V | 00:00:00 | 00:00:00 | 00:00:00 | |
| KRY50SP-1 | 2026-08-31 19:03:51 | 53.00729 | 15.98690 | 52° | 84km/h | 8370m | -2.7m/s | -37.8°C | 36.1% | 345.3hPa | 2.6V | 00:00:00 | 00:00:00 | 00:00:00 | |
| KRY50SP-1 | 2026-08-31 19:03:46 | 53.00659 | 15.98545 | 53° | 95km/h | 8380m | -2.8m/s | -38.0°C | 37.1% | 344.5hPa | 2.6V | 00:00:00 | 00:00:00 | 00:00:00 | |
| AM1SDL-15 | 2026-08-31 19:03:42 | 53.00583 | 15.98391 | 50° | 89km/h | 8392m | -2.7m/s | -38.0°C | 41.1% | 343.9hPa | 2.6V | 00:00:00 | 02:47:53 | 00:00:00 | |
| SP6BVK | 2026-08-31 19:03:40 | 53.00566 | 15.98360 | 49° | 99km/h | 8394m | -2.8m/s | -38.1°C | 37.5% | 343.8hPa | 2.4V | 00:00:00 | 00:00:00 | 00:00:00 | |
| SONDE2-12 | 2026-08-31 19:03:35 | 53.00291 | 15.97844 | 46° | 91km/h | 8440m | -3.2m/s | -38.5°C | 44.3% | 341.7hPa | 2.4V | 00:00:00 | 00:00:00 | 00:00:00 | |
| AA1-15 | 2026-08-31 19:03:23 | 53.00291 | 15.97844 | 47° | 91km/h | 8440m | -3.2m/s | -38.5°C | 47.9% | 341.7hPa | 2.4V | 18:12:15 | 02:47:34 | 00:00:00 | |
| SP3WXH-11 | 2026-08-31 19:03:23 | 53.00274 | 15.97817 | 42° | 89km/h | 8442m | -2.5m/s | -38.5°C | 43.1% | 341.6hPa | 2.4V | 00:00:00 | 00:00:00 | 00:00:00 | |
| EDDB2-11 | 2026-08-31 19:03:22 | 53.00274 | 15.97817 | 42° | 89km/h | 8442m | -2.5m/s | -38.5°C | 43.1% | 341.6hPa | 2.4V | 00:00:00 | 00:00:00 | 00:00:00 | |
| SP6BVK | 2026-08-31 19:03:19 | 53.00242 | 15.97766 | 45° | 84km/h | 8447m | -2.7m/s | -38.5°C | 43.3% | 341.4hPa | 2.4V | 00:00:00 | 00:00:00 | 00:00:00 | |
| AM1SDL-15 | 2026-08-31 19:03:18 | 53.00212 | 15.97716 | 48° | 89km/h | 8454m | -2.5m/s | -38.5°C | 47.1% | 341.1hPa | 2.4V | 00:00:00 | 02:47:29 | 00:00:00 | |
| SP3BTT-10 | 2026-08-31 19:03:16 | 53.00186 | 15.97664 | 51° | 97km/h | 8460m | -3.0m/s | -38.6°C | 47.4% | 340.8hPa | 2.4V | 00:00:00 | 00:00:00 | 00:00:00 | |
| KRY50SP-1 | 2026-08-31 19:03:12 | 53.00147 | 15.97578 | 55° | 88km/h | 8467m | -2.6m/s | -38.7°C | 44.0% | 340.5hPa | 2.6V | 00:00:00 | 00:00:00 | 00:00:00 | |
| AM1SDL-15 | 2026-08-31 19:03:06 | 53.00040 | 15.97369 | 43° | 86km/h | 8483m | -2.2m/s | -38.8°C | 49.9% | 339.7hPa | 2.6V | 00:00:00 | 02:47:17 | 00:00:00 | |
| SONDE2-11 | 2026-08-31 19:03:00 | 52.99939 | 15.97187 | 54° | 84km/h | 8500m | -2.7m/s | -39.0°C | 45.1% | 339.0hPa | 2.6V | 00:00:00 | 00:00:00 | 00:00:00 | |
| EDDB2-12 | 2026-08-31 19:02:53 | 52.99855 | 15.97001 | 49° | 97km/h | 8515m | -1.5m/s | -39.1°C | 45.4% | 338.3hPa | 2.6V | 00:00:00 | 00:00:00 | 00:00:00 | |
| SP3WXH-11 | 2026-08-31 19:02:52 | 52.99822 | 15.96941 | 45° | 97km/h | 8518m | -1.8m/s | -39.1°C | 46.2% | 338.1hPa | 2.6V | 00:00:00 | 00:00:00 | 00:00:00 | |
| EDDB2-11 | 2026-08-31 19:02:51 | 52.99822 | 15.96941 | 45° | 97km/h | 8518m | -1.8m/s | -39.1°C | 46.2% | 338.1hPa | 2.6V | 00:00:00 | 00:00:00 | 00:00:00 | |
| KRY50SP-1 | 2026-08-31 19:02:50 | 52.99822 | 15.96941 | 47° | 97km/h | 8518m | -1.8m/s | -39.1°C | 46.2% | 338.1hPa | 2.6V | 00:00:00 | 00:00:00 | 00:00:00 | |
| KRY50SP-1 | 2026-08-31 19:02:44 | 52.99727 | 15.96779 | 49° | 88km/h | 8531m | -2.6m/s | -39.3°C | 47.6% | 337.5hPa | 2.6V | 00:00:00 | 00:00:00 | 00:00:00 | |
| AM1SDL-15 | 2026-08-31 19:02:42 | 52.99685 | 15.96692 | 51° | 99km/h | 8539m | -2.7m/s | -39.3°C | 51.7% | 337.1hPa | 2.6V | 00:00:00 | 02:46:53 | 00:00:00 | |
| KRY50SP-1 | 2026-08-31 19:02:39 | 52.99654 | 15.96630 | 52° | 99km/h | 8543m | -2.3m/s | -39.4°C | 47.6% | 336.9hPa | 2.6V | 00:00:00 | 00:00:00 | 00:00:00 | |
| KRY50SP-1 | 2026-08-31 19:02:33 | 52.99555 | 15.96438 | 46° | 100km/h | 8556m | -2.5m/s | -39.5°C | 47.4% | 336.2hPa | 2.6V | 00:00:00 | 00:00:00 | 00:00:00 | |
| SP3BTT-10 | 2026-08-31 19:02:31 | 52.99501 | 15.96351 | 44° | 91km/h | 8563m | -2.3m/s | -39.5°C | 52.2% | 335.8hPa | 2.6V | 00:00:00 | 00:00:00 | 00:00:00 | |
| AM1SDL-15 | 2026-08-31 19:02:30 | 52.99484 | 15.96323 | 45° | 91km/h | 8565m | -2.6m/s | -39.6°C | 52.8% | 335.6hPa | 2.6V | 00:00:00 | 02:46:41 | 08:30:00 | |
| KRY50SP-1 | 2026-08-31 19:02:28 | 52.99467 | 15.96295 | 44° | 93km/h | 8568m | -2.4m/s | -39.6°C | 49.2% | 335.6hPa | 2.6V | 00:00:00 | 00:00:00 | 00:00:00 | |
| AA1-15 | 2026-08-31 19:02:11 | 52.99187 | 15.95757 | 48° | 89km/h | 8612m | -2.5m/s | -40.1°C | 55.8% | 333.5hPa | 2.6V | 18:12:15 | 02:46:22 | 00:00:00 | |
| SONDE2-12 | 2026-08-31 19:02:02 | 52.99053 | 15.95467 | 51° | 104km/h | 8634m | -2.3m/s | -40.3°C | 53.9% | 332.3hPa | 2.4V | 00:00:00 | 00:00:00 | 00:00:00 | |
| AA1-15 | 2026-08-31 19:02:01 | 52.99036 | 15.95433 | 50° | 104km/h | 8636m | -2m/s | -40.3°C | 57.5% | 332.2hPa | 2.4V | 18:12:15 | 02:46:12 | 00:00:00 | |
| AA1-15 | 2026-08-31 19:01:49 | 52.98841 | 15.95087 | 54° | 95km/h | 8664m | -2.1m/s | -40.6°C | 59.5% | 330.8hPa | 2.4V | 18:12:15 | 02:46:00 | 00:00:00 | |
| KRY50SP-1 | 2026-08-31 19:01:48 | 52.98841 | 15.95086 | 54° | 95km/h | 8664m | -2.1m/s | -40.6°C | 55.9% | 330.8hPa | 2.6V | 00:00:00 | 00:00:00 | 00:00:00 | |
| SONDE2-12 | 2026-08-31 19:01:31 | 52.98550 | 15.94526 | 52° | 100km/h | 8707m | -2.1m/s | -41.0°C | 62.7% | 328.7hPa | 2.6V | 00:00:00 | 00:00:00 | 00:00:00 | |
| AM1SDL-15 | 2026-08-31 19:01:30 | 52.98534 | 15.94492 | 52° | 104km/h | 8709m | -2.2m/s | -41.0°C | 64.9% | 328.6hPa | 2.6V | 00:00:00 | 02:45:41 | 00:00:00 | |
| SONDE2-11 | 2026-08-31 19:01:27 | 52.98464 | 15.94355 | 47° | 108km/h | 8718m | -2.3m/s | -41.1°C | 58.3% | 328.1hPa | 2.6V | 00:00:00 | 00:00:00 | 00:00:00 | |
| KRY50SP-1 | 2026-08-31 19:01:25 | 52.98464 | 15.94355 | 48° | 108km/h | 8719m | -2.3m/s | -41.1°C | 58.3% | 328.1hPa | 2.6V | 00:00:00 | 00:00:00 | 00:00:00 | |
| EDDB2-12 | 2026-08-31 19:01:20 | 52.98351 | 15.94174 | 42° | 95km/h | 8733m | -2.2m/s | -41.2°C | 59.3% | 327.4hPa | 2.6V | 00:00:00 | 00:00:00 | 00:00:00 | |
| SP3WXH-11 | 2026-08-31 19:01:19 | 52.98317 | 15.94120 | 44° | 91km/h | 8738m | -2.0m/s | -41.3°C | 61.5% | 327.3hPa | 2.6V | 00:00:00 | 00:00:00 | 00:00:00 | |
| AM1SDL-15 | 2026-08-31 19:01:18 | 52.98317 | 15.94120 | 45° | 100km/h | 8738m | -1.9m/s | -41.2°C | 66.6% | 327.2hPa | 2.6V | 00:00:00 | 02:45:29 | 00:00:00 | |
| SONDE2-12 | 2026-08-31 19:01:00 | 52.97985 | 15.93541 | 46° | 89km/h | 8781m | -2.5m/s | -41.6°C | 69.2% | 325.1hPa | 2.4V | 00:00:00 | 00:00:00 | 00:00:00 | |
| SONDE2-11 | 2026-08-31 19:00:55 | 52.97925 | 15.93422 | 50° | 100km/h | 8790m | -2.0m/s | -41.7°C | 67.1% | 324.6hPa | 2.4V | 00:00:00 | 00:00:00 | 00:00:00 | |
| EDDB2-12 | 2026-08-31 19:00:49 | 52.97817 | 15.93222 | 43° | 106km/h | 8804m | -2.4m/s | -41.8°C | 66.1% | 324.0hPa | 2.4V | 00:00:00 | 00:00:00 | 00:00:00 | |
| SP3WXH-11 | 2026-08-31 19:00:48 | 52.97778 | 15.93162 | 41° | 102km/h | 8809m | -2.4m/s | -41.8°C | 66.8% | 323.7hPa | 2.4V | 00:00:00 | 00:00:00 | 00:00:00 | |
| EDDB2-11 | 2026-08-31 19:00:47 | 52.97778 | 15.93162 | 41° | 102km/h | 8809m | -2.4m/s | -41.8°C | 66.8% | 323.7hPa | 2.4V | 00:00:00 | 00:00:00 | 00:00:00 | |
| AA1-15 | 2026-08-31 19:00:40 | 52.97658 | 15.92967 | 50° | 95km/h | 8825m | -2.3m/s | -41.9°C | 75.3% | 323.1hPa | 2.4V | 18:12:15 | 02:44:51 | 00:00:00 | |
| AA1-15 | 2026-08-31 19:00:29 | 52.97459 | 15.92609 | 40° | 104km/h | 8851m | -2.2m/s | -42.1°C | 79% | 321.8hPa | 2.5V | 18:12:15 | 02:44:40 | 00:00:00 | |
| AA1-15 | 2026-08-31 19:00:18 | 52.97273 | 15.92272 | 50° | 108km/h | 8878m | -2.7m/s | -42.3°C | 77.8% | 320.5hPa | 2.4V | 18:12:15 | 02:44:29 | 00:00:00 | |
| AA1-15 | 2026-08-31 19:00:07 | 52.97064 | 15.91942 | 46° | 93km/h | 8904m | -2.5m/s | -42.5°C | 76.2% | 319.3hPa | 2.4V | 18:12:15 | 02:44:18 | 00:00:00 | |
| AM1SDL-15 | 2026-08-31 19:00:06 | 52.97048 | 15.91913 | 49° | 104km/h | 8907m | -2.6m/s | -42.5°C | 77.6% | 319.2hPa | 2.4V | 00:00:00 | 02:44:17 | 00:00:00 | |
| SONDE2-12 | 2026-08-31 18:59:58 | 52.96722 | 15.91352 | 50° | 93km/h | 8950m | -3.1m/s | -42.8°C | 73.6% | 317.1hPa | 2.6V | 00:00:00 | 00:00:00 | 00:00:00 | |
| SONDE2-11 | 2026-08-31 18:59:53 | 52.96809 | 15.91494 | 41° | 102km/h | 8938m | -2.4m/s | -42.8°C | 69.8% | 317.7hPa | 2.6V | 00:00:00 | 00:00:00 | 00:00:00 | |
| EDDB2-12 | 2026-08-31 18:59:47 | 52.96707 | 15.91321 | 50° | 97km/h | 8953m | -2.8m/s | -42.9°C | 70.3% | 317.1hPa | 2.6V | 00:00:00 | 00:00:00 | 00:00:00 | |
| EDDB2-11 | 2026-08-31 18:59:45 | 52.96675 | 15.91255 | 50° | 104km/h | 8958m | -2.1m/s | -42.9°C | 69.8% | 316.8hPa | 2.6V | 00:00:00 | 00:00:00 | 00:00:00 | |
| SONDE2-12 | 2026-08-31 18:59:27 | 52.96348 | 15.90680 | 51° | 104km/h | 9004m | -2.7m/s | -43.3°C | 70.0% | 314.7hPa | 2.6V | 00:00:00 | 00:00:00 | 00:00:00 | |
| SP6BVK | 2026-08-31 18:59:25 | 52.96330 | 15.90645 | 52° | 110km/h | 9007m | -2.3m/s | -43.3°C | 67.2% | 314.5hPa | 2.6V | 00:00:00 | 00:00:00 | 00:00:00 | |
| SONDE2-11 | 2026-08-31 18:59:22 | 52.96255 | 15.90504 | 45° | 113km/h | 9017m | -2.8m/s | -43.4°C | 67.2% | 314.1hPa | 2.6V | 00:00:00 | 00:00:00 | 00:00:00 | |
| KRY50SP-1 | 2026-08-31 18:59:19 | 52.96214 | 15.90439 | 42° | 111km/h | 9022m | -2.5m/s | -43.5°C | 67.1% | 313.9hPa | 2.6V | 00:00:00 | 00:00:00 | 00:00:00 | |
| AM1SDL-15 | 2026-08-31 18:59:18 | 52.96173 | 15.90380 | 42° | 102km/h | 9027m | -2.7m/s | -43.5°C | 73.0% | 313.6hPa | 2.6V | 00:00:00 | 02:43:29 | 00:00:00 | |
| EDDB2-12 | 2026-08-31 18:59:16 | 52.96135 | 15.90324 | 41° | 97km/h | 9032m | -2.3m/s | -43.6°C | 67.2% | 313.4hPa | 2.6V | 00:00:00 | 00:00:00 | 00:00:00 | |
| EDDB2-11 | 2026-08-31 18:59:14 | 52.96101 | 15.90268 | 47° | 93km/h | 9037m | -2.8m/s | -43.6°C | 67.2% | 313.1hPa | 2.6V | 00:00:00 | 00:00:00 | 00:00:00 | |
| KRY50SP-1 | 2026-08-31 18:59:13 | 52.96101 | 15.90268 | 49° | 93km/h | 9037m | -2.8m/s | -43.6°C | 67.2% | 313.1hPa | 2.6V | 00:00:00 | 00:00:00 | 00:00:00 | |
| KRY50SP-1 | 2026-08-31 18:59:08 | 52.96020 | 15.90107 | 52° | 108km/h | 9050m | -2.2m/s | -43.7°C | 66.7% | 312.6hPa | 2.6V | 00:00:00 | 00:00:00 | 00:00:00 | |
| AM1SDL-15 | 2026-08-31 18:59:06 | 52.95965 | 15.90000 | 48° | 106km/h | 9057m | -2.5m/s | 0°C | 0% | 0hPa | 2.6V | 00:00:00 | 02:43:17 | 00:00:00 | |
| S3001 | 2026-08-31 18:59:05 | 52.95945 | 15.89966 | 44° | 115km/h | 9060m | -2.2m/s | -43.8°C | 66.2% | 312.1hPa | 2.6V | 00:00:00 | 00:00:00 | 00:00:00 | |
| SP6BVK | 2026-08-31 18:59:04 | 52.95945 | 15.89966 | 46° | 115km/h | 9060m | -2.2m/s | -43.8°C | 66.2% | 312.1hPa | 2.6V | 00:00:00 | 00:00:00 | 00:00:00 | |
| KRY50SP-1 | 2026-08-31 18:59:02 | 52.95904 | 15.89900 | 44° | 110km/h | 9065m | -2.6m/s | -43.8°C | 67.0% | 311.9hPa | 2.6V | 00:00:00 | 00:00:00 | 00:00:00 | |
| SONDE2-11 | 2026-08-31 18:58:51 | 52.95691 | 15.89534 | 50° | 110km/h | 9095m | -2.5m/s | -44.1°C | 71.1% | 310.4hPa | 2.6V | 00:00:00 | 00:00:00 | 00:00:00 | |
| KRY50SP-1 | 2026-08-31 18:58:50 | 52.95691 | 15.89534 | 51° | 110km/h | 9095m | -2.5m/s | -44.1°C | 71.1% | 310.4hPa | 2.6V | 00:00:00 | 00:00:00 | 00:00:00 | |
| SP3BTT-10 | 2026-08-31 18:58:45 | 52.95571 | 15.89330 | 42° | 102km/h | 9111m | -2.4m/s | -44.2°C | 79.0% | 309.7hPa | 2.6V | 00:00:00 | 00:00:00 | 08:30:00 | |
| KRY50SP-1 | 2026-08-31 18:58:44 | 52.95571 | 15.89330 | 42° | 108km/h | 9111m | -2.5m/s | -44.2°C | 72.8% | 309.8hPa | 2.4V | 00:00:00 | 00:00:00 | 00:00:00 | |
| EDDB2-11 | 2026-08-31 18:58:43 | 52.95531 | 15.89273 | 40° | 102km/h | 9116m | -2.2m/s | -44.3°C | 73.5% | 309.5hPa | 2.4V | 00:00:00 | 00:00:00 | 00:00:00 | |
| AM1SDL-15 | 2026-08-31 18:58:41 | 52.95493 | 15.89217 | 45° | 104km/h | 9121m | -2.8m/s | -44.3°C | 81.0% | 309.1hPa | 2.4V | 00:00:00 | 02:42:52 | 00:00:00 | |
| KRY50SP-1 | 2026-08-31 18:58:38 | 52.95460 | 15.89160 | 49° | 95km/h | 9127m | -2.4m/s | -44.4°C | 75.5% | 309.1hPa | 2.4V | 00:00:00 | 00:00:00 | 00:00:00 | |
| KRY50SP-1 | 2026-08-31 18:58:33 | 52.95378 | 15.88994 | 51° | 111km/h | 9140m | -2.2m/s | -44.5°C | 76.5% | 308.4hPa | 2.4V | 00:00:00 | 00:00:00 | 00:00:00 | |
| AM1SDL-15 | 2026-08-31 18:58:29 | 52.95278 | 15.88823 | 43° | 102km/h | 9153m | -2.7m/s | -44.5°C | 82.2% | 307.8hPa | 2.4V | 00:00:00 | 02:42:40 | 00:00:00 | |
| KRY50SP-1 | 2026-08-31 18:58:28 | 52.95257 | 15.88792 | 42° | 108km/h | 9155m | -2.5m/s | -44.6°C | 75.9% | 307.7hPa | 2.4V | 00:00:00 | 00:00:00 | 00:00:00 | |
| 3Z3Z-3 | 2026-08-31 18:58:26 | 52.95236 | 15.88763 | 42° | 108km/h | 9157m | -2.6m/s | -44.6°C | 75.7% | 307.6hPa | 2.4V | 00:00:00 | 00:00:00 | 00:00:00 | |
| SP6BVK | 2026-08-31 18:58:22 | 52.95161 | 15.88652 | 46° | 93km/h | 9167m | -2.9m/s | -44.7°C | 75.5% | 307.2hPa | 2.4V | 00:00:00 | 00:00:00 | 00:00:00 | |
| SONDE2-11 | 2026-08-31 18:58:20 | 52.95112 | 15.88565 | 50° | 99km/h | 9174m | -2.3m/s | -44.8°C | 74.9% | 306.8hPa | 2.4V | 00:00:00 | 00:00:00 | 00:00:00 | |
| AM1SDL-15 | 2026-08-31 18:58:17 | 52.95062 | 15.88465 | 51° | 108km/h | 9182m | -2.4m/s | -44.8°C | 82.0% | 306.4hPa | 2.4V | 00:00:00 | 02:42:28 | 00:00:00 | |
| EDDB2-12 | 2026-08-31 18:58:14 | 52.95006 | 15.88359 | 46° | 115km/h | 9190m | -2.4m/s | -44.9°C | 75.6% | 306.1hPa | 2.4V | 00:00:00 | 00:00:00 | 00:00:00 | |
| 3Z3Z-3 | 2026-08-31 18:58:13 | 52.95006 | 15.88359 | 47° | 115km/h | 9190m | -2.4m/s | -44.9°C | 75.6% | 306.1hPa | 2.4V | 00:00:00 | 00:00:00 | 00:00:00 | |
| EDDB2-11 | 2026-08-31 18:58:12 | 52.94965 | 15.88291 | 43° | 111km/h | 9196m | -2.5m/s | -44.9°C | 75.4% | 305.9hPa | 2.4V | 00:00:00 | 00:00:00 | 00:00:00 | |
| KRY50SP-1 | 2026-08-31 18:58:08 | 52.94903 | 15.88200 | 42° | 102km/h | 9203m | -2.5m/s | -45.0°C | 75.1% | 305.5hPa | 2.4V | 00:00:00 | 00:00:00 | 00:00:00 | |
| AM1SDL-15 | 2026-08-31 18:58:05 | 52.94831 | 15.88089 | 47° | 106km/h | 9213m | -2.8m/s | -45.1°C | 80.4% | 305.0hPa | 2.4V | 00:00:00 | 02:42:16 | 00:00:00 | |
| KRY50SP-1 | 2026-08-31 18:58:03 | 52.94815 | 15.88060 | 48° | 95km/h | 9216m | -2.2m/s | -45.1°C | 73.3% | 304.9hPa | 2.4V | 00:00:00 | 00:00:00 | 00:00:00 | |
| SONDE2-11 | 2026-08-31 18:57:49 | 52.94539 | 15.87582 | 44° | 95km/h | 9254m | -2.2m/s | -45.4°C | 74.4% | 303.1hPa | 2.4V | 00:00:00 | 00:00:00 | 00:00:00 | |
| KRY50SP-1 | 2026-08-31 18:57:47 | 52.94522 | 15.87553 | 49° | 95km/h | 9256m | -2.6m/s | -45.5°C | 74.3% | 303.1hPa | 2.4V | 00:00:00 | 00:00:00 | 00:00:00 | |
| EDDB2-12 | 2026-08-31 18:57:43 | 52.94424 | 15.87354 | 50° | 110km/h | 9272m | -2.7m/s | -45.6°C | 74.5% | 302.3hPa | 2.4V | 00:00:00 | 00:00:00 | 00:00:00 | |
| EDDB2-11 | 2026-08-31 18:57:41 | 52.94406 | 15.87318 | 48° | 113km/h | 9275m | -2.5m/s | -45.6°C | 74.9% | 302.2hPa | 2.4V | 00:00:00 | 00:00:00 | 00:00:00 | |
| KRY50SP-1 | 2026-08-31 18:57:35 | 52.94305 | 15.87151 | 43° | 108km/h | 9288m | -2.5m/s | -45.7°C | 74.3% | 301.7hPa | 2.4V | 00:00:00 | 00:00:00 | 00:00:00 | |
| S3001 | 2026-08-31 18:57:32 | 52.94229 | 15.87040 | 43° | 95km/h | 9298m | -2.4m/s | -45.8°C | 72.1% | 301.2hPa | 2.4V | 00:00:00 | 00:00:00 | 00:00:00 | |
| SONDE2-12 | 2026-08-31 18:57:23 | 52.93906 | 15.86494 | 42° | 91km/h | 9342m | -2.5m/s | -46.2°C | 67.0% | 299.2hPa | 2.4V | 00:00:00 | 00:00:00 | 00:00:00 | |
| SP6BVK | 2026-08-31 18:57:20 | 52.94041 | 15.86693 | 45° | 110km/h | 9325m | -2.5m/s | -46.1°C | 74.4% | 300.0hPa | 2.4V | 00:00:00 | 00:00:00 | 00:00:00 | |
| SONDE2-11 | 2026-08-31 18:57:18 | 52.93981 | 15.86602 | 40° | 102km/h | 9332m | -2.4m/s | -46.2°C | 71.3% | 299.7hPa | 2.4V | 00:00:00 | 00:00:00 | 00:00:00 | |
| AM1SDL-15 | 2026-08-31 18:57:17 | 52.93961 | 15.86575 | 41° | 99km/h | 9335m | -2.6m/s | -46.1°C | 76.4% | 299.5hPa | 2.4V | 00:00:00 | 02:41:28 | 00:00:00 | |
| SP3BTT-10 | 2026-08-31 18:57:15 | 52.93924 | 15.86520 | 43° | 91km/h | 9339m | -2.4m/s | -46.2°C | 72.2% | 299.1hPa | 2.4V | 00:00:00 | 00:00:00 | 00:00:00 | |
| EDDB2-12 | 2026-08-31 18:57:12 | 52.93874 | 15.86439 | 46° | 91km/h | 9346m | -2.0m/s | -46.2°C | 60.2% | 298.8hPa | 2.4V | 00:00:00 | 00:00:00 | 00:00:00 | |
| EDDB2-11 | 2026-08-31 18:57:10 | 52.93843 | 15.86380 | 49° | 95km/h | 9351m | -2.1m/s | -46.2°C | 56.9% | 298.8hPa | 2.4V | 00:00:00 | 00:00:00 | 00:00:00 | |
| SONDE2-12 | 2026-08-31 18:56:52 | 52.93512 | 15.85805 | 53° | 95km/h | 9399m | -2.5m/s | -46.5°C | 36.2% | 296.5hPa | 2.4V | 00:00:00 | 00:00:00 | 00:00:00 | |
| SONDE2-11 | 2026-08-31 18:56:47 | 52.93449 | 15.85670 | 50° | 106km/h | 9409m | -2.3m/s | -46.6°C | 33.9% | 296.2hPa | 2.4V | 00:00:00 | 00:00:00 | 00:00:00 | |
| KRY50SP-1 | 2026-08-31 18:56:45 | 52.93431 | 15.85636 | 48° | 110km/h | 9412m | -2.1m/s | -46.6°C | 34.2% | 296.1hPa | 2.4V | 00:00:00 | 00:00:00 | 00:00:00 | |
| EDDB2-12 | 2026-08-31 18:56:41 | 52.93320 | 15.85460 | 42° | 93km/h | 9426m | -2.2m/s | -46.7°C | 31.0% | 295.5hPa | 2.4V | 00:00:00 | 00:00:00 | 00:00:00 | |
| EDDB2-11 | 2026-08-31 18:56:39 | 52.93303 | 15.85433 | 45° | 89km/h | 9428m | -2.4m/s | -46.7°C | 30.1% | 295.4hPa | 2.4V | 00:00:00 | 00:00:00 | 00:00:00 | |
| KRY50SP-1 | 2026-08-31 18:56:33 | 52.93232 | 15.85292 | 55° | 91km/h | 9443m | -2.6m/s | -46.8°C | 24.7% | 294.8hPa | 2.4V | 00:00:00 | 00:00:00 | 00:00:00 | |
| SP3BTT-10 | 2026-08-31 18:56:31 | 52.93189 | 15.85194 | 55° | 102km/h | 9451m | -2.5m/s | -46.7°C | 25.3% | 294.5hPa | 2.4V | 00:00:00 | 00:00:00 | 00:00:00 | |
| AM1SDL-15 | 2026-08-31 18:56:29 | 52.93157 | 15.85125 | 51° | 97km/h | 9456m | -2.2m/s | -46.6°C | 23.7% | 294.2hPa | 2.4V | 00:00:00 | 02:40:40 | 00:00:00 | |
| KRY50SP-1 | 2026-08-31 18:56:28 | 52.93157 | 15.85124 | 52° | 106km/h | 9456m | -2.3m/s | -46.7°C | 20.2% | 294.3hPa | 2.6V | 00:00:00 | 00:00:00 | 00:00:00 | |
| AA1-15 | 2026-08-31 18:56:11 | 52.92861 | 15.84575 | 49° | 108km/h | 9497m | -2.2m/s | -46.7°C | 23% | 292.3hPa | 2.6V | 18:12:15 | 02:40:22 | 00:00:00 | |
| AA1-15 | 2026-08-31 18:55:59 | 52.92653 | 15.84229 | 52° | 91km/h | 9524m | -2.4m/s | -46.8°C | 22.5% | 291.1hPa | 2.6V | 18:12:15 | 02:40:10 | 00:00:00 | |
| AA1-15 | 2026-08-31 18:55:48 | 52.92464 | 15.83880 | 42° | 97km/h | 9552m | -2.4m/s | -47°C | 22.9% | 290hPa | 2.5V | 18:12:15 | 02:39:59 | 00:00:00 | |
| SONDE2-11 | 2026-08-31 18:55:45 | 52.92413 | 15.83803 | 42° | 86km/h | 9559m | -1.8m/s | -47.0°C | 17.4% | 289.7hPa | 2.6V | 00:00:00 | 00:00:00 | 00:00:00 | |
| AA1-15 | 2026-08-31 18:55:29 | 52.92150 | 15.83327 | 41° | 93km/h | 9595m | -1.9m/s | -47.2°C | 22.6% | 288.1hPa | 2.6V | 18:12:15 | 02:39:40 | 00:00:00 | |
| AM1SDL-15 | 2026-08-31 18:55:29 | 52.92149 | 15.83327 | 42° | 93km/h | 9595m | -1.9m/s | -47.2°C | 20.9% | 288.1hPa | 2.6V | 00:00:00 | 02:39:40 | 00:00:00 | |
| S3001 | 2026-08-31 18:55:28 | 52.92133 | 15.83301 | 43° | 88km/h | 9597m | -2.1m/s | -47.2°C | 17.4% | 288.0hPa | 2.6V | 00:00:00 | 00:00:00 | 00:00:00 | |
| KRY50SP-1 | 2026-08-31 18:55:26 | 52.92117 | 15.83276 | 46° | 84km/h | 9599m | -2.4m/s | -47.2°C | 17.5% | 287.9hPa | 2.6V | 00:00:00 | 00:00:00 | 00:00:00 | |
| AA1-15 | 2026-08-31 18:55:07 | 52.91792 | 15.82698 | 50° | 84km/h | 9642m | -2.1m/s | -47.6°C | 22.9% | 286hPa | 2.6V | 18:12:15 | 02:39:18 | 00:00:00 | |
| EDDB2-11 | 2026-08-31 18:55:06 | 52.91778 | 15.82670 | 52° | 88km/h | 9644m | -2.3m/s | -47.6°C | 18.1% | 285.9hPa | 2.5V | 00:00:00 | 00:00:00 | 00:00:00 | |
| AM1SDL-15 | 2026-08-31 18:55:05 | 52.91764 | 15.82640 | 54° | 99km/h | 9647m | -2.2m/s | -47.6°C | 21.8% | 285.8hPa | 2.5V | 00:00:00 | 02:39:16 | 00:00:00 | |
| KRY50SP-1 | 2026-08-31 18:55:04 | 52.91764 | 15.82640 | 55° | 91km/h | 9647m | -2.3m/s | -47.7°C | 18.3% | 285.8hPa | 2.5V | 00:00:00 | 00:00:00 | 00:00:00 | |
| S3001 | 2026-08-31 18:54:57 | 52.91559 | 15.82292 | 43° | 84km/h | 9674m | -2.0m/s | -47.8°C | 17.6% | 284.7hPa | 2.5V | 00:00:00 | 00:00:00 | 00:00:00 | |
| AM1SDL-15 | 2026-08-31 18:54:53 | 52.91559 | 15.82292 | 44° | 91km/h | 9674m | -1.9m/s | -47.8°C | 21.1% | 284.7hPa | 2.5V | 00:00:00 | 02:39:04 | 00:00:00 | |
| SP6BVK | 2026-08-31 18:54:52 | 52.91559 | 15.82292 | 44° | 86km/h | 9674m | -2.0m/s | -47.8°C | 17.6% | 284.7hPa | 2.5V | 00:00:00 | 00:00:00 | 00:00:00 | |
| KRY50SP-1 | 2026-08-31 18:54:46 | 52.91474 | 15.82129 | 53° | 95km/h | 9687m | -1.9m/s | -47.9°C | 18.3% | 284.2hPa | 2.5V | 00:00:00 | 00:00:00 | 00:00:00 | |
| SONDE2-11 | 2026-08-31 18:54:43 | 52.91409 | 15.82003 | 45° | 100km/h | 9695m | -1.9m/s | -48.0°C | 18.5% | 283.8hPa | 2.5V | 00:00:00 | 00:00:00 | 00:00:00 | |
| AM1SDL-15 | 2026-08-31 18:54:41 | 52.91371 | 15.81945 | 43° | 89km/h | 9699m | -2.3m/s | -47.9°C | 21.7% | 283.6hPa | 2.5V | 00:00:00 | 02:38:52 | 00:00:00 | |
| KRY50SP-1 | 2026-08-31 18:54:40 | 52.91371 | 15.81945 | 43° | 100km/h | 9699m | -2.3m/s | -48.0°C | 18.2% | 283.7hPa | 2.4V | 00:00:00 | 00:00:00 | 00:00:00 | |
| EDDB2-12 | 2026-08-31 18:54:37 | 52.91284 | 15.81821 | 42° | 84km/h | 9710m | -1.8m/s | -48.0°C | 17.6% | 283.2hPa | 2.4V | 00:00:00 | 00:00:00 | 00:00:00 | |
| EDDB2-11 | 2026-08-31 18:54:35 | 52.91269 | 15.81797 | 44° | 78km/h | 9712m | -1.5m/s | -48.0°C | 17.6% | 283.1hPa | 2.4V | 00:00:00 | 00:00:00 | 00:00:00 | |
| KRY50SP-1 | 2026-08-31 18:54:34 | 52.91269 | 15.81797 | 45° | 80km/h | 9712m | -1.5m/s | -48.0°C | 17.6% | 283.1hPa | 2.4V | 00:00:00 | 00:00:00 | 00:00:00 | |
| AA1-15 | 2026-08-31 18:54:15 | 52.90949 | 15.81264 | 50° | 84km/h | 9749m | -2.1m/s | -48.3°C | 23% | 281.3hPa | 2.4V | 18:12:15 | 02:38:26 | 00:00:00 | |
| AA1-15 | 2026-08-31 18:54:04 | 52.90772 | 15.80950 | 38° | 88km/h | 9773m | -2m/s | -48.5°C | 23.4% | 280.4hPa | 2.4V | 18:12:15 | 02:38:15 | 00:00:00 | |
| AA1-15 | 2026-08-31 18:53:53 | 52.90614 | 15.80673 | 49° | 95km/h | 9798m | -1.7m/s | -48.6°C | 23.1% | 279.4hPa | 2.4V | 18:12:15 | 02:38:04 | 00:00:00 | |
| AA1-15 | 2026-08-31 18:53:43 | 52.90445 | 15.80420 | 42° | 78km/h | 9817m | -1.9m/s | -48.6°C | 23.2% | 278.5hPa | 2.4V | 18:12:15 | 02:37:54 | 00:00:00 | |
| SONDE2-11 | 2026-08-31 18:53:41 | 52.90418 | 15.80373 | 49° | 78km/h | 9820m | -2.1m/s | -48.6°C | 17.7% | 278.3hPa | 2.4V | 00:00:00 | 00:00:00 | 00:00:00 | |
| KRY50SP-1 | 2026-08-31 18:53:39 | 52.90405 | 15.80348 | 51° | 77km/h | 9822m | -2.3m/s | -48.6°C | 17.6% | 278.2hPa | 2.4V | 00:00:00 | 00:00:00 | 00:00:00 | |
| EDDB2-12 | 2026-08-31 18:53:34 | 52.90327 | 15.80174 | 49° | 93km/h | 9836m | -2.0m/s | -48.7°C | 18.2% | 277.7hPa | 2.4V | 00:00:00 | 00:00:00 | 00:00:00 | |
| EDDB2-11 | 2026-08-31 18:53:33 | 52.90311 | 15.80144 | 47° | 95km/h | 9838m | -1.8m/s | -48.7°C | 18.3% | 277.6hPa | 2.4V | 00:00:00 | 00:00:00 | 00:00:00 | |
| SP3BTT-10 | 2026-08-31 18:53:30 | 52.90259 | 15.80062 | 42° | 80km/h | 9845m | -2.1m/s | -48.7°C | 21.9% | 277.3hPa | 2.4V | 00:00:00 | 00:00:00 | 00:00:00 | |
| AM1SDL-15 | 2026-08-31 18:53:29 | 52.90243 | 15.80038 | 41° | 80km/h | 9847m | -1.9m/s | -48.7°C | 21.8% | 277.3hPa | 2.4V | 00:00:00 | 02:37:40 | 08:30:00 | |
| KRY50SP-1 | 2026-08-31 18:53:28 | 52.90243 | 15.80038 | 42° | 82km/h | 9847m | -1.9m/s | -48.7°C | 18.1% | 277.3hPa | 2.4V | 00:00:00 | 00:00:00 | 00:00:00 | |
| KRY50SP-1 | 2026-08-31 18:53:23 | 52.90172 | 15.79928 | 51° | 73km/h | 9856m | -2.2m/s | -48.8°C | 17.8% | 276.8hPa | 2.4V | 00:00:00 | 00:00:00 | 00:00:00 | |
| SONDE2-12 | 2026-08-31 18:53:14 | 52.89876 | 15.79386 | 55° | 82km/h | 9899m | -2.1m/s | -48.8°C | 20.8% | 275.0hPa | 2.4V | 00:00:00 | 00:00:00 | 00:00:00 | |
| KRY50SP-1 | 2026-08-31 18:53:11 | 52.90000 | 15.79597 | 42° | 86km/h | 9882m | -1.8m/s | -48.9°C | 18.9% | 275.8hPa | 2.4V | 00:00:00 | 00:00:00 | 00:00:00 | |
| SONDE2-11 | 2026-08-31 18:53:10 | 52.89967 | 15.79552 | 39° | 78km/h | 9886m | -1.6m/s | -48.8°C | 18.9% | 275.6hPa | 2.4V | 00:00:00 | 00:00:00 | 00:00:00 | |
| SP6BVK | 2026-08-31 18:53:09 | 52.89967 | 15.79552 | 40° | 78km/h | 9886m | -1.6m/s | -48.8°C | 18.9% | 275.6hPa | 2.4V | 00:00:00 | 00:00:00 | 00:00:00 | |
| AM1SDL-15 | 2026-08-31 18:53:05 | 52.89900 | 15.79440 | 54° | 88km/h | 9894m | -2.1m/s | -48.8°C | 23.4% | 275.1hPa | 2.4V | 00:00:00 | 02:37:16 | 00:00:00 | |
| EDDB2-12 | 2026-08-31 18:53:03 | 52.89876 | 15.79386 | 55° | 82km/h | 9899m | -2.1m/s | -48.9°C | 19.8% | 275.0hPa | 2.4V | 00:00:00 | 00:00:00 | 00:00:00 | |
| EDDB2-11 | 2026-08-31 18:53:02 | 52.89849 | 15.79326 | 52° | 89km/h | 9903m | -2.4m/s | -48.9°C | 19.8% | 274.8hPa | 2.4V | 00:00:00 | 00:00:00 | 00:00:00 | |
| S3001 | 2026-08-31 18:52:53 | 52.89703 | 15.79089 | 42° | 77km/h | 9924m | -1.6m/s | -49.0°C | 20.0% | 274.0hPa | 2.4V | 00:00:00 | 00:00:00 | 00:00:00 | |
| AA1-15 | 2026-08-31 18:52:40 | 52.89540 | 15.78768 | 44° | 93km/h | 9948m | -1.7m/s | -49.2°C | 25.6% | 273hPa | 2.4V | 18:12:15 | 02:36:51 | 00:00:00 | |
| AA1-15 | 2026-08-31 18:52:29 | 52.89379 | 15.78503 | 53° | 86km/h | 9969m | -1.9m/s | -49.4°C | 25.9% | 272.2hPa | 2.4V | 18:12:15 | 02:36:40 | 00:00:00 | |
| AA1-15 | 2026-08-31 18:52:16 | 52.89170 | 15.78159 | 45° | 73km/h | 9995m | -2m/s | -49.6°C | 25.8% | 271hPa | 2.6V | 18:12:15 | 02:36:27 | 00:00:00 | |
| SONDE2-12 | 2026-08-31 18:52:12 | 52.89107 | 15.78029 | 53° | 88km/h | 10005m | -2.0m/s | -49.7°C | 21.0% | 270.6hPa | 2.4V | 00:00:00 | 00:00:00 | 00:00:00 | |
| AA1-15 | 2026-08-31 18:52:04 | 52.88996 | 15.77820 | 41° | 93km/h | 10020m | -2m/s | -49.8°C | 26% | 270hPa | 2.4V | 18:12:15 | 02:36:15 | 00:00:00 | |
| AA1-15 | 2026-08-31 18:51:54 | 52.88858 | 15.77578 | 57° | 84km/h | 10041m | -2.1m/s | -49.9°C | 26.1% | 269.2hPa | 2.4V | 18:12:15 | 02:36:05 | 00:00:00 | |
| S3001 | 2026-08-31 18:51:51 | 52.88737 | 15.77342 | 41° | 89km/h | 10057m | -2.0m/s | -50.0°C | 21.4% | 268.6hPa | 2.4V | 00:00:00 | 00:00:00 | 00:00:00 | |
| SONDE2-12 | 2026-08-31 18:51:41 | 52.88660 | 15.77230 | 47° | 75km/h | 10066m | -1.8m/s | -50.0°C | 23.0% | 268.0hPa | 2.4V | 00:00:00 | 00:00:00 | 00:00:00 | |
| AA1-15 | 2026-08-31 18:51:33 | 52.88555 | 15.77010 | 50° | 97km/h | 10082m | -2m/s | -50.1°C | 28.4% | 267.4hPa | 2.4V | 18:12:15 | 02:35:44 | 00:00:00 | |
| KRY50SP-1 | 2026-08-31 18:51:31 | 52.88539 | 15.76979 | 48° | 99km/h | 10084m | -2.1m/s | -50.1°C | 22.1% | 267.4hPa | 2.4V | 00:00:00 | 00:00:00 | 00:00:00 | |
| EDDB2-12 | 2026-08-31 18:51:30 | 52.88504 | 15.76921 | 42° | 97km/h | 10089m | -2.3m/s | -50.1°C | 21.8% | 267.2hPa | 2.4V | 00:00:00 | 00:00:00 | 00:00:00 | |
| EDDB2-11 | 2026-08-31 18:51:29 | 52.88468 | 15.76869 | 39° | 89km/h | 10093m | -2.1m/s | -50.1°C | 21.9% | 267.0hPa | 2.4V | 00:00:00 | 00:00:00 | 00:00:00 | |
| SP6BVK | 2026-08-31 18:51:27 | 52.88468 | 15.76869 | 40° | 91km/h | 10093m | -2.1m/s | -50.1°C | 21.9% | 267.0hPa | 2.4V | 00:00:00 | 00:00:00 | 00:00:00 | |
| SONDE2-12 | 2026-08-31 18:51:10 | 52.88189 | 15.76407 | 37° | 89km/h | 10131m | -2.2m/s | -50.4°C | 23.1% | 265.5hPa | 2.4V | 00:00:00 | 00:00:00 | 00:00:00 | |
| KRY50SP-1 | 2026-08-31 18:51:08 | 52.88171 | 15.76385 | 38° | 88km/h | 10133m | -1.9m/s | -50.4°C | 22.0% | 265.5hPa | 2.4V | 00:00:00 | 00:00:00 | 00:00:00 | |
| SONDE2-11 | 2026-08-31 18:51:06 | 52.88108 | 15.76301 | 46° | 75km/h | 10139m | -1.8m/s | -50.4°C | 22.9% | 265.1hPa | 2.4V | 00:00:00 | 00:00:00 | 00:00:00 | |
| AM1SDL-15 | 2026-08-31 18:51:05 | 52.88108 | 15.76301 | 47° | 89km/h | 10139m | -1.7m/s | -50.4°C | 27.3% | 265.1hPa | 2.4V | 00:00:00 | 02:35:16 | 00:00:00 | |
| KRY50SP-1 | 2026-08-31 18:51:02 | 52.88081 | 15.76253 | 50° | 80km/h | 10143m | -1.7m/s | -50.4°C | 23.0% | 265.0hPa | 2.6V | 00:00:00 | 00:00:00 | 00:00:00 | |
| EDDB2-11 | 2026-08-31 18:50:58 | 52.87988 | 15.76078 | 44° | 97km/h | 10153m | -2.0m/s | -50.6°C | 22.2% | 264.5hPa | 2.6V | 00:00:00 | 00:00:00 | 00:00:00 | |
| S3001 | 2026-08-31 18:50:48 | 52.87833 | 15.75872 | 42° | 75km/h | 10171m | -1.9m/s | -50.7°C | 22.8% | 263.7hPa | 2.6V | 00:00:00 | 00:00:00 | 00:00:00 | |
| AA1-15 | 2026-08-31 18:50:41 | 52.87730 | 15.75685 | 45° | 99km/h | 10185m | -1.9m/s | -50.7°C | 28.8% | 263.1hPa | 2.6V | 18:12:15 | 02:34:52 | 00:00:00 | |
| SONDE2-12 | 2026-08-31 18:50:39 | 52.87569 | 15.75474 | 41° | 78km/h | 10204m | -1.8m/s | -50.9°C | 24.3% | 262.4hPa | 2.4V | 00:00:00 | 00:00:00 | 00:00:00 | |
| KRY50SP-1 | 2026-08-31 18:50:34 | 52.87617 | 15.75536 | 37° | 86km/h | 10197m | -2.4m/s | -50.8°C | 22.8% | 262.6hPa | 2.4V | 00:00:00 | 00:00:00 | 00:00:00 | |
| SP3BTT-10 | 2026-08-31 18:50:30 | 52.87541 | 15.75427 | 48° | 93km/h | 10208m | -1.9m/s | -50.9°C | 27.2% | 262.2hPa | 2.4V | 00:00:00 | 00:00:00 | 00:00:00 | |
| AM1SDL-15 | 2026-08-31 18:50:29 | 52.87527 | 15.75401 | 50° | 93km/h | 10210m | -1.8m/s | -50.9°C | 27.1% | 262.1hPa | 2.4V | 00:00:00 | 02:34:40 | 00:00:00 | |
| EDDB2-12 | 2026-08-31 18:50:28 | 52.87512 | 15.75374 | 49° | 89km/h | 10211m | -1.8m/s | -51.0°C | 22.5% | 262.0hPa | 2.6V | 00:00:00 | 00:00:00 | 00:00:00 | |
| EDDB2-11 | 2026-08-31 18:50:27 | 52.87482 | 15.75316 | 47° | 97km/h | 10215m | -2.3m/s | -51.0°C | 22.1% | 261.9hPa | 2.6V | 00:00:00 | 00:00:00 | 00:00:00 | |
| SP6BVK | 2026-08-31 18:50:25 | 52.87482 | 15.75316 | 49° | 97km/h | 10215m | -2.3m/s | -51.0°C | 22.1% | 261.9hPa | 2.6V | 00:00:00 | 00:00:00 | 00:00:00 | |
| KRY50SP-1 | 2026-08-31 18:50:24 | 52.87465 | 15.75286 | 48° | 97km/h | 10218m | -2.4m/s | -51.0°C | 22.0% | 261.8hPa | 2.6V | 00:00:00 | 00:00:00 | 00:00:00 | |
| AA1-15 | 2026-08-31 18:50:07 | 52.87168 | 15.74798 | 46° | 102km/h | 10256m | -2.2m/s | -51.2°C | 28.7% | 260.3hPa | 2.6V | 18:12:15 | 02:34:18 | 00:00:00 | |
| AA1-15 | 2026-08-31 18:49:56 | 52.86987 | 15.74507 | 53° | 88km/h | 10279m | -2.8m/s | -51.3°C | 29.6% | 259.2hPa | 2.6V | 18:12:15 | 02:34:07 | 00:00:00 | |
| AA1-15 | 2026-08-31 18:49:45 | 52.86803 | 15.74198 | 41° | 82km/h | 10305m | -2.4m/s | -51.2°C | 28.2% | 258.3hPa | 2.4V | 18:12:15 | 02:33:56 | 00:00:00 | |
| SONDE2-12 | 2026-08-31 18:49:37 | 52.86693 | 15.73978 | 50° | 99km/h | 10324m | -2.4m/s | -51.2°C | 23.8% | 257.6hPa | 2.4V | 00:00:00 | 00:00:00 | 00:00:00 | |
| AA1-15 | 2026-08-31 18:49:34 | 52.86641 | 15.73887 | 43° | 99km/h | 10330m | -2.4m/s | -51.3°C | 28.3% | 257.3hPa | 2.4V | 18:12:15 | 02:33:45 | 00:00:00 | |
| AA1-15 | 2026-08-31 18:49:23 | 52.86474 | 15.73607 | 55° | 89km/h | 10356m | -2.6m/s | -51.5°C | 28.2% | 256.2hPa | 2.5V | 18:12:15 | 02:33:34 | 00:00:00 | |
| AA1-15 | 2026-08-31 18:49:12 | 52.86303 | 15.73302 | 47° | 75km/h | 10382m | -2.8m/s | -51.7°C | 28.6% | 255.2hPa | 2.6V | 18:12:15 | 02:33:23 | 00:00:00 | |
| SONDE2-12 | 2026-08-31 18:49:06 | 52.86228 | 15.73144 | 53° | 89km/h | 10397m | -2.4m/s | -51.8°C | 23.9% | 254.6hPa | 2.6V | 00:00:00 | 00:00:00 | 00:00:00 | |
| AA1-15 | 2026-08-31 18:49:01 | 52.86149 | 15.72995 | 43° | 95km/h | 10408m | -2.4m/s | -51.9°C | 28.7% | 254.2hPa | 2.6V | 18:12:15 | 02:33:12 | 00:00:00 | |
| AA1-15 | 2026-08-31 18:48:50 | 52.85986 | 15.72728 | 52° | 88km/h | 10434m | -2.2m/s | -51.9°C | 28.9% | 253.2hPa | 2.4V | 18:12:15 | 02:33:01 | 00:00:00 | |
| AA1-15 | 2026-08-31 18:48:39 | 52.85803 | 15.72440 | 40° | 78km/h | 10461m | -2.7m/s | -52.1°C | 29.3% | 252.2hPa | 2.4V | 18:12:15 | 02:32:50 | 00:00:00 | |
| SONDE2-12 | 2026-08-31 18:48:35 | 52.85748 | 15.72348 | 50° | 82km/h | 10471m | -2.6m/s | -52.1°C | 26.5% | 251.8hPa | 2.6V | 00:00:00 | 00:00:00 | 00:00:00 | |
| 3Z3Z-3 | 2026-08-31 18:48:32 | 52.85720 | 15.72292 | 50° | 89km/h | 10476m | -2.3m/s | -52.1°C | 25.1% | 251.5hPa | 2.6V | 00:00:00 | 00:00:00 | 00:00:00 | |
| SONDE2-11 | 2026-08-31 18:48:30 | 52.85671 | 15.72207 | 44° | 97km/h | 10481m | -2.8m/s | -52.1°C | 24.5% | 251.3hPa | 2.6V | 00:00:00 | 00:00:00 | 00:00:00 | |
| AM1SDL-15 | 2026-08-31 18:48:29 | 52.85653 | 15.72179 | 43° | 88km/h | 10484m | -2.6m/s | -52.0°C | 28.9% | 251.1hPa | 2.6V | 00:00:00 | 02:32:40 | 00:00:00 | |
| KRY50SP-1 | 2026-08-31 18:48:26 | 52.85616 | 15.72127 | 41° | 95km/h | 10489m | -3.1m/s | -52.1°C | 23.5% | 251.0hPa | 2.6V | 00:00:00 | 00:00:00 | 00:00:00 | |
| EDDB2-12 | 2026-08-31 18:48:24 | 52.85562 | 15.72058 | 37° | 84km/h | 10498m | -3.4m/s | -52.1°C | 23.6% | 250.8hPa | 2.6V | 00:00:00 | 00:00:00 | 00:00:00 | |
| SP3WXH-11 | 2026-08-31 18:48:23 | 52.85546 | 15.72037 | 37° | 82km/h | 10501m | -2.9m/s | -52.1°C | 23.8% | 250.6hPa | 2.6V | 00:00:00 | 00:00:00 | 00:00:00 | |
| EDDB2-11 | 2026-08-31 18:48:22 | 52.85530 | 15.72016 | 37° | 77km/h | 10504m | -2.5m/s | -52.2°C | 24.3% | 250.6hPa | 2.6V | 00:00:00 | 00:00:00 | 00:00:00 | |
| SONDE2-12 | 2026-08-31 18:48:04 | 52.85230 | 15.71574 | 43° | 75km/h | 10545m | -2.8m/s | -52.1°C | 25.2% | 248.9hPa | 2.6V | 00:00:00 | 00:00:00 | 00:00:00 | |
| AA1-15 | 2026-08-31 18:48:02 | 52.85203 | 15.71527 | 51° | 80km/h | 10550m | -3m/s | -52.2°C | 30.4% | 248.8hPa | 2.6V | 18:12:15 | 02:32:13 | 00:00:00 | |
| AA1-15 | 2026-08-31 18:47:52 | 52.85029 | 15.71261 | 35° | 88km/h | 10572m | -2.5m/s | -52.4°C | 30.6% | 247.8hPa | 2.6V | 18:12:15 | 02:32:03 | 00:00:00 | |
| EDDB2-11 | 2026-08-31 18:47:51 | 52.85011 | 15.71240 | 37° | 84km/h | 10574m | -2.5m/s | -52.4°C | 25.0% | 247.8hPa | 2.6V | 00:00:00 | 00:00:00 | 00:00:00 | |
| AA1-15 | 2026-08-31 18:47:41 | 52.84858 | 15.70973 | 46° | 99km/h | 10597m | -2.4m/s | -52.5°C | 30.2% | 246.9hPa | 2.6V | 18:12:15 | 02:31:52 | 00:00:00 | |
| SONDE2-12 | 2026-08-31 18:47:33 | 52.84718 | 15.70781 | 43° | 75km/h | 10612m | -2.8m/s | -52.6°C | 25.3% | 246.3hPa | 2.4V | 00:00:00 | 00:00:00 | 00:00:00 | |
| SP3BTT-10 | 2026-08-31 18:47:30 | 52.84676 | 15.70711 | 49° | 89km/h | 10619m | -2.4m/s | -52.5°C | 28.8% | 246.0hPa | 2.4V | 00:00:00 | 00:00:00 | 00:00:00 | |
| AM1SDL-15 | 2026-08-31 18:47:29 | 52.84662 | 15.70685 | 51° | 89km/h | 10621m | -2.2m/s | -52.5°C | 29.0% | 245.9hPa | 2.4V | 00:00:00 | 02:31:40 | 00:00:00 | |
| SONDE2-11 | 2026-08-31 18:47:28 | 52.84649 | 15.70658 | 50° | 86km/h | 10623m | -2.3m/s | -52.6°C | 24.3% | 245.8hPa | 2.6V | 00:00:00 | 00:00:00 | 00:00:00 | |
| 3Z3Z-3 | 2026-08-31 18:47:26 | 52.84634 | 15.70629 | 51° | 91km/h | 10625m | -2.4m/s | -52.6°C | 24.6% | 245.8hPa | 2.6V | 00:00:00 | 00:00:00 | 00:00:00 | |
| KRY50SP-1 | 2026-08-31 18:47:25 | 52.84619 | 15.70600 | 49° | 93km/h | 10627m | -2.1m/s | -52.6°C | 24.7% | 245.7hPa | 2.6V | 00:00:00 | 00:00:00 | 00:00:00 | |
| EDDB2-12 | 2026-08-31 18:47:22 | 52.84548 | 15.70493 | 36° | 93km/h | 10634m | -2.3m/s | -52.6°C | 24.2% | 245.4hPa | 2.6V | 00:00:00 | 00:00:00 | 00:00:00 | |
| SP3WXH-11 | 2026-08-31 18:47:21 | 52.84529 | 15.70470 | 37° | 89km/h | 10636m | -2.4m/s | -52.7°C | 24.0% | 245.3hPa | 2.6V | 00:00:00 | 00:00:00 | 00:00:00 | |
| AA1-15 | 2026-08-31 18:47:21 | 52.84529 | 15.70470 | 37° | 89km/h | 10636m | -2.4m/s | -52.7°C | 30.1% | 245.3hPa | 2.6V | 18:12:15 | 02:31:32 | 00:00:00 | |
| EDDB2-11 | 2026-08-31 18:47:20 | 52.84511 | 15.70449 | 35° | 84km/h | 10638m | -2.5m/s | -52.6°C | 23.7% | 245.2hPa | 2.6V | 00:00:00 | 00:00:00 | 00:00:00 | |
| KRY50SP-1 | 2026-08-31 18:47:19 | 52.84511 | 15.70449 | 36° | 84km/h | 10638m | -2.5m/s | -52.6°C | 23.7% | 245.2hPa | 2.6V | 00:00:00 | 00:00:00 | 00:00:00 | |
| SONDE2-12 | 2026-08-31 18:47:02 | 52.84220 | 15.70022 | 37° | 75km/h | 10675m | -2.4m/s | -52.5°C | 24.6% | 243.8hPa | 2.6V | 00:00:00 | 00:00:00 | 00:00:00 | |
| SONDE2-11 | 2026-08-31 18:46:57 | 52.84150 | 15.69908 | 51° | 84km/h | 10686m | -2.2m/s | -52.6°C | 23.4% | 243.5hPa | 2.6V | 00:00:00 | 00:00:00 | 00:00:00 | |
| EDDB2-12 | 2026-08-31 18:46:51 | 52.84052 | 15.69740 | 40° | 97km/h | 10698m | -2.4m/s | -52.7°C | 24.1% | 243.1hPa | 2.6V | 00:00:00 | 00:00:00 | 00:00:00 | |
| SP3WXH-11 | 2026-08-31 18:46:50 | 52.84013 | 15.69691 | 35° | 91km/h | 10702m | -2.3m/s | -52.7°C | 24.6% | 242.9hPa | 2.6V | 00:00:00 | 00:00:00 | 00:00:00 | |
| EDDB2-11 | 2026-08-31 18:46:49 | 52.84013 | 15.69691 | 35° | 91km/h | 10702m | -2.3m/s | -52.7°C | 24.6% | 242.9hPa | 2.6V | 00:00:00 | 00:00:00 | 00:00:00 | |
| 3Z3Z-3 | 2026-08-31 18:46:48 | 52.84013 | 15.69691 | 36° | 91km/h | 10702m | -2.3m/s | -52.7°C | 24.6% | 242.9hPa | 2.6V | 00:00:00 | 00:00:00 | 00:00:00 | |
| SONDE2-12 | 2026-08-31 18:46:31 | 52.83716 | 15.69237 | 37° | 82km/h | 10737m | -1.9m/s | -52.9°C | 26.4% | 241.7hPa | 2.6V | 00:00:00 | 00:00:00 | 00:00:00 | |
| KRY50SP-1 | 2026-08-31 18:46:30 | 52.83717 | 15.69237 | 39° | 82km/h | 10737m | -1.9m/s | -52.9°C | 25.0% | 241.7hPa | 2.6V | 00:00:00 | 00:00:00 | 00:00:00 | |
| AM1SDL-15 | 2026-08-31 18:46:29 | 52.83686 | 15.69195 | 44° | 91km/h | 10741m | -2.2m/s | -52.9°C | 29.9% | 241.5hPa | 2.6V | 00:00:00 | 02:30:40 | 00:00:00 | |
| 3Z3Z-3 | 2026-08-31 18:46:28 | 52.83686 | 15.69195 | 44° | 78km/h | 10741m | -2.2m/s | -52.9°C | 24.8% | 241.6hPa | 2.6V | 00:00:00 | 00:00:00 | 00:00:00 | |
| SONDE2-11 | 2026-08-31 18:46:26 | 52.83643 | 15.69122 | 48° | 86km/h | 10747m | -2.0m/s | -53.0°C | 24.2% | 241.4hPa | 2.6V | 00:00:00 | 00:00:00 | 00:00:00 | |
| KRY50SP-1 | 2026-08-31 18:46:25 | 52.83642 | 15.69121 | 49° | 86km/h | 10747m | -2.0m/s | -53.0°C | 24.2% | 241.4hPa | 2.6V | 00:00:00 | 00:00:00 | 00:00:00 | |
| EDDB2-12 | 2026-08-31 18:46:20 | 52.83546 | 15.68944 | 45° | 100km/h | 10757m | -2.0m/s | -53.0°C | 24.2% | 240.9hPa | 2.6V | 00:00:00 | 00:00:00 | 00:00:00 | |
| SP3WXH-11 | 2026-08-31 18:46:19 | 52.83509 | 15.68887 | 41° | 99km/h | 10760m | -2.5m/s | -53.0°C | 25.1% | 240.8hPa | 2.6V | 00:00:00 | 00:00:00 | 00:00:00 | |
| EDDB2-11 | 2026-08-31 18:46:18 | 52.83509 | 15.68887 | 41° | 99km/h | 10760m | -2.5m/s | -53.0°C | 25.1% | 240.8hPa | 2.6V | 00:00:00 | 00:00:00 | 00:00:00 | |
| AM1SDL-15 | 2026-08-31 18:46:17 | 52.83490 | 15.68860 | 41° | 89km/h | 10762m | -2.6m/s | -53.0°C | 30.7% | 240.7hPa | 2.6V | 00:00:00 | 02:30:28 | 08:30:00 | |
| KRY50SP-1 | 2026-08-31 18:46:14 | 52.83455 | 15.68812 | 41° | 86km/h | 10766m | -2.2m/s | -53.0°C | 25.5% | 240.5hPa | 2.6V | 00:00:00 | 00:00:00 | 00:00:00 | |
| AA1-15 | 2026-08-31 18:45:57 | 52.83170 | 15.68333 | 40° | 82km/h | 10802m | -2.4m/s | -53°C | 30.6% | 239.2hPa | 2.6V | 18:12:15 | 02:30:08 | 00:00:00 | |
| SONDE2-11 | 2026-08-31 18:45:55 | 52.83141 | 15.68287 | 46° | 80km/h | 10807m | -2.6m/s | -53.0°C | 25.0% | 239.1hPa | 2.6V | 00:00:00 | 00:00:00 | 00:00:00 | |
| EDDB2-12 | 2026-08-31 18:45:49 | 52.83051 | 15.68118 | 45° | 99km/h | 10820m | -1.9m/s | -52.9°C | 24.4% | 238.7hPa | 2.6V | 00:00:00 | 00:00:00 | 00:00:00 | |
| SP3WXH-11 | 2026-08-31 18:45:48 | 52.83014 | 15.68060 | 42° | 100km/h | 10824m | -2.2m/s | -52.9°C | 23.9% | 238.6hPa | 2.6V | 00:00:00 | 00:00:00 | 00:00:00 | |
| EDDB2-11 | 2026-08-31 18:45:47 | 52.83014 | 15.68060 | 42° | 100km/h | 10824m | -2.2m/s | -52.9°C | 23.9% | 238.6hPa | 2.6V | 00:00:00 | 00:00:00 | 00:00:00 | |
| AA1-15 | 2026-08-31 18:45:38 | 52.82859 | 15.67848 | 45° | 86km/h | 10842m | -2.3m/s | -52.8°C | 29.9% | 237.8hPa | 2.6V | 18:12:15 | 02:29:49 | 00:00:00 | |
| SONDE2-12 | 2026-08-31 18:45:29 | 52.82698 | 15.67598 | 38° | 102km/h | 10859m | -2.7m/s | -52.8°C | 23.7% | 237.1hPa | 2.6V | 00:00:00 | 00:00:00 | 00:00:00 | |
| AA1-15 | 2026-08-31 18:45:27 | 52.82657 | 15.67548 | 36° | 95km/h | 10863m | -2.5m/s | -52.8°C | 29% | 237hPa | 2.6V | 18:12:15 | 02:29:38 | 00:00:00 | |
| AA1-15 | 2026-08-31 18:45:16 | 52.82471 | 15.67261 | 44° | 104km/h | 10886m | -2.4m/s | -52.9°C | 28.1% | 236.1hPa | 2.6V | 18:12:15 | 02:29:27 | 00:00:00 | |
| AA1-15 | 2026-08-31 18:45:05 | 52.82267 | 15.66995 | 46° | 86km/h | 10911m | -2.3m/s | -52.9°C | 25.4% | 235.3hPa | 2.6V | 18:12:15 | 02:29:16 | 00:00:00 | |
| SONDE2-12 | 2026-08-31 18:44:58 | 52.82113 | 15.66745 | 37° | 93km/h | 10931m | -1.9m/s | -52.9°C | 20.3% | 234.5hPa | 2.5V | 00:00:00 | 00:00:00 | 00:00:00 | |
| AA1-15 | 2026-08-31 18:44:54 | 52.82076 | 15.66698 | 39° | 88km/h | 10935m | -2.8m/s | -52.9°C | 23.6% | 234.4hPa | 2.5V | 18:12:15 | 02:29:05 | 00:00:00 | |
| SONDE2-11 | 2026-08-31 18:44:53 | 52.82059 | 15.66675 | 40° | 84km/h | 10937m | -2.6m/s | -52.9°C | 18.3% | 234.3hPa | 2.5V | 00:00:00 | 00:00:00 | 00:00:00 | |
| EDDB2-12 | 2026-08-31 18:44:47 | 52.81970 | 15.66531 | 50° | 86km/h | 10954m | -2.5m/s | -52.8°C | 16.6% | 233.7hPa | 2.5V | 00:00:00 | 00:00:00 | 00:00:00 | |
| SP3WXH-11 | 2026-08-31 18:44:46 | 52.81941 | 15.66473 | 50° | 93km/h | 10958m | -2.4m/s | -52.7°C | 16.5% | 233.6hPa | 2.5V | 00:00:00 | 00:00:00 | 00:00:00 | |
| EDDB2-11 | 2026-08-31 18:44:45 | 52.81941 | 15.66473 | 50° | 93km/h | 10958m | -2.4m/s | -52.7°C | 16.5% | 233.6hPa | 2.5V | 00:00:00 | 00:00:00 | 00:00:00 | |
| AA1-15 | 2026-08-31 18:44:44 | 52.81925 | 15.66442 | 49° | 95km/h | 10960m | -2.3m/s | -52.7°C | 22.1% | 233.5hPa | 2.5V | 18:12:15 | 02:28:55 | 00:00:00 | |
| AA1-15 | 2026-08-31 18:44:32 | 52.81727 | 15.66130 | 50° | 82km/h | 10989m | -2.5m/s | -52.8°C | 20.9% | 232.5hPa | 2.4V | 18:12:15 | 02:28:43 | 00:00:00 | |
| SONDE2-12 | 2026-08-31 18:44:27 | 52.81659 | 15.65982 | 51° | 99km/h | 11001m | -2.4m/s | -52.9°C | 15.9% | 232.1hPa | 2.6V | 00:00:00 | 00:00:00 | 00:00:00 | |
| AA1-15 | 2026-08-31 18:44:21 | 52.81552 | 15.65811 | 40° | 86km/h | 11013m | -2.1m/s | -52.8°C | 18.5% | 231.6hPa | 2.6V | 18:12:15 | 02:28:32 | 00:00:00 | |
| AA1-15 | 2026-08-31 18:44:10 | 52.81390 | 15.65505 | 48° | 102km/h | 11041m | -2.2m/s | -52.8°C | 14.8% | 230.7hPa | 2.6V | 18:12:15 | 02:28:21 | 00:00:00 | |
| AA1-15 | 2026-08-31 18:44:00 | 52.81218 | 15.65225 | 53° | 93km/h | 11063m | -2.3m/s | -52.2°C | 11.7% | 229.9hPa | 2.5V | 18:12:15 | 02:28:11 | 00:00:00 | |
| SONDE2-12 | 2026-08-31 18:43:56 | 52.81159 | 15.65094 | 53° | 100km/h | 11070m | -2.8m/s | -51.5°C | 8.3% | 229.6hPa | 2.5V | 00:00:00 | 00:00:00 | 00:00:00 | |
| AA1-15 | 2026-08-31 18:43:49 | 52.81036 | 15.64876 | 40° | 91km/h | 11086m | -2.2m/s | -51.2°C | 9.8% | 228.9hPa | 2.5V | 18:12:15 | 02:28:00 | 00:00:00 | |
| EDDB2-12 | 2026-08-31 18:43:45 | 52.80974 | 15.64777 | 47° | 80km/h | 11096m | -3.0m/s | -51.1°C | 7.3% | 228.6hPa | 2.6V | 00:00:00 | 00:00:00 | 00:00:00 | |
| AA1-15 | 2026-08-31 18:43:38 | 52.80873 | 15.64569 | 47° | 102km/h | 11113m | -2.4m/s | -51.1°C | 10% | 228hPa | 2.6V | 18:12:15 | 02:27:49 | 00:00:00 | |
| AA1-15 | 2026-08-31 18:43:27 | 52.80692 | 15.64286 | 53° | 82km/h | 11142m | -3.1m/s | -50.9°C | 9.6% | 227.1hPa | 2.6V | 18:12:15 | 02:27:38 | 00:00:00 | |
| SONDE2-12 | 2026-08-31 18:43:25 | 52.80653 | 15.64199 | 54° | 91km/h | 11149m | -2.5m/s | -50.7°C | 8.0% | 226.8hPa | 2.6V | 00:00:00 | 00:00:00 | 00:00:00 | |
| 3Z3Z-3 | 2026-08-31 18:43:24 | 52.80666 | 15.64229 | 54° | 88km/h | 11147m | -2.3m/s | -50.8°C | 7.5% | 226.9hPa | 2.6V | 00:00:00 | 00:00:00 | 00:00:00 | |
| SONDE2-11 | 2026-08-31 18:43:20 | 52.80592 | 15.64078 | 45° | 91km/h | 11157m | -1.9m/s | -50.7°C | 7.7% | 226.5hPa | 2.6V | 00:00:00 | 00:00:00 | 00:00:00 | |
| KRY50SP-1 | 2026-08-31 18:43:19 | 52.80592 | 15.64078 | 46° | 91km/h | 11157m | -1.9m/s | -50.7°C | 7.7% | 226.5hPa | 2.6V | 00:00:00 | 00:00:00 | 00:00:00 | |
| AM1SDL-15 | 2026-08-31 18:43:16 | 52.80527 | 15.63980 | 43° | 80km/h | 11166m | -2.7m/s | -50.7°C | 10.3% | 226.1hPa | 2.6V | 00:00:00 | 02:27:27 | 00:00:00 | |
| EDDB2-12 | 2026-08-31 18:43:14 | 52.80484 | 15.63912 | 45° | 73km/h | 11175m | -3.2m/s | -50.8°C | 7.0% | 225.9hPa | 2.5V | 00:00:00 | 00:00:00 | 00:00:00 | |
| 3Z3Z-3 | 2026-08-31 18:43:13 | 52.80484 | 15.63912 | 47° | 75km/h | 11176m | -3.2m/s | -50.8°C | 7.0% | 226.0hPa | 2.5V | 00:00:00 | 00:00:00 | 00:00:00 | |
| SP6BVK | 2026-08-31 18:43:12 | 52.80484 | 15.63912 | 47° | 75km/h | 11176m | -3.2m/s | -50.8°C | 7.0% | 226.0hPa | 2.5V | 00:00:00 | 00:00:00 | 00:00:00 | |
| SONDE2-12 | 2026-08-31 18:42:54 | 52.80209 | 15.63414 | 54° | 73km/h | 11231m | -2.8m/s | -49.6°C | 6.3% | 224.2hPa | 2.5V | 00:00:00 | 00:00:00 | 00:00:00 | |
| SONDE2-11 | 2026-08-31 18:42:49 | 52.80164 | 15.63301 | 55° | 89km/h | 11242m | -2.6m/s | -49.6°C | 5.9% | 223.9hPa | 2.5V | 00:00:00 | 00:00:00 | 00:00:00 | |
| KRY50SP-1 | 2026-08-31 18:42:47 | 52.80150 | 15.63269 | 55° | 93km/h | 11244m | -2.6m/s | -49.6°C | 5.9% | 223.7hPa | 2.5V | 00:00:00 | 00:00:00 | 00:00:00 | |
| EDDB2-12 | 2026-08-31 18:42:43 | 52.80071 | 15.63123 | 41° | 89km/h | 11257m | -2.3m/s | -49.6°C | 6.0% | 223.3hPa | 2.5V | 00:00:00 | 00:00:00 | 00:00:00 | |
| SP3WXH-11 | 2026-08-31 18:42:42 | 52.80038 | 15.63076 | 40° | 80km/h | 11262m | -2.2m/s | -49.4°C | 5.9% | 223.2hPa | 2.5V | 00:00:00 | 00:00:00 | 00:00:00 | |
| EDDB2-11 | 2026-08-31 18:42:41 | 52.80038 | 15.63076 | 40° | 80km/h | 11262m | -2.2m/s | -49.4°C | 5.9% | 223.2hPa | 2.5V | 00:00:00 | 00:00:00 | 00:00:00 | |
| 3Z3Z-3 | 2026-08-31 18:42:40 | 52.80038 | 15.63076 | 41° | 80km/h | 11262m | -2.2m/s | -49.4°C | 5.9% | 223.2hPa | 2.5V | 00:00:00 | 00:00:00 | 00:00:00 | |
| SONDE2-12 | 2026-08-31 18:42:23 | 52.79782 | 15.62582 | 42° | 75km/h | 11311m | -2.4m/s | -49.4°C | 5.6% | 221.5hPa | 2.5V | 00:00:00 | 00:00:00 | 00:00:00 | |
| KRY50SP-1 | 2026-08-31 18:42:20 | 52.79769 | 15.62561 | 46° | 73km/h | 11313m | -2.6m/s | -49.4°C | 5.3% | 221.4hPa | 2.5V | 00:00:00 | 00:00:00 | 00:00:00 | |
| SONDE2-11 | 2026-08-31 18:42:18 | 52.79735 | 15.62491 | 56° | 73km/h | 11321m | -2.6m/s | -49.5°C | 5.1% | 221.2hPa | 2.5V | 00:00:00 | 00:00:00 | 00:00:00 | |
| 13BRC | 2026-08-31 18:42:17 | 52.79735 | 15.62491 | 57° | 75km/h | 11321m | -2.6m/s | -49.4°C | 5.1% | 221.2hPa | 2.5V | 00:00:00 | 00:00:00 | 00:00:00 | |
| AM1SDL-15 | 2026-08-31 18:42:16 | 52.79714 | 15.62435 | 59° | 91km/h | 11326m | -2.5m/s | -49.4°C | 7.6% | 220.9hPa | 2.5V | 00:00:00 | 02:26:27 | 00:00:00 | |
| SP3BTT-10 | 2026-08-31 18:42:13 | 52.79678 | 15.62341 | 57° | 84km/h | 11333m | -2.7m/s | -49.4°C | 7.5% | 220.7hPa | 2.5V | 00:00:00 | 00:00:00 | 00:00:00 | |
| EDDB2-12 | 2026-08-31 18:42:12 | 52.79650 | 15.62276 | 52° | 97km/h | 11339m | -2.8m/s | -49.5°C | 5.0% | 220.5hPa | 2.5V | 00:00:00 | 00:00:00 | 00:00:00 | |
| SP3WXH-11 | 2026-08-31 18:42:11 | 52.79635 | 15.62244 | 48° | 97km/h | 11341m | -2.7m/s | -49.5°C | 5.0% | 220.4hPa | 2.5V | 00:00:00 | 00:00:00 | 00:00:00 | |
| EDDB2-11 | 2026-08-31 18:42:10 | 52.79635 | 15.62244 | 48° | 97km/h | 11341m | -2.7m/s | -49.5°C | 5.0% | 220.4hPa | 2.5V | 00:00:00 | 00:00:00 | 00:00:00 | |
| KRY50SP-1 | 2026-08-31 18:42:09 | 52.79618 | 15.62215 | 47° | 95km/h | 11344m | -2.6m/s | -49.5°C | 5.0% | 220.4hPa | 2.5V | 00:00:00 | 00:00:00 | 00:00:00 | |
| SONDE2-12 | 2026-08-31 18:41:52 | 52.79392 | 15.61740 | 45° | 88km/h | 11393m | -2.5m/s | -49.3°C | 4.5% | 218.7hPa | 2.5V | 00:00:00 | 00:00:00 | 00:00:00 | |
| SONDE2-11 | 2026-08-31 18:41:47 | 52.79336 | 15.61648 | 46° | 69km/h | 11404m | -2.9m/s | -49.3°C | 3.9% | 218.4hPa | 2.5V | 00:00:00 | 00:00:00 | 00:00:00 | |
| KRY50SP-1 | 2026-08-31 18:41:46 | 52.79335 | 15.61648 | 47° | 69km/h | 11404m | -2.9m/s | -49.3°C | 3.9% | 218.4hPa | 2.5V | 00:00:00 | 00:00:00 | 00:00:00 | |
| EDDB2-12 | 2026-08-31 18:41:41 | 52.79266 | 15.61470 | 61° | 82km/h | 11424m | -2.8m/s | -49.0°C | 3.5% | 217.7hPa | 2.5V | 00:00:00 | 00:00:00 | 00:00:00 | |
| AM1SDL-15 | 2026-08-31 18:41:40 | 52.79266 | 15.61470 | 62° | 80km/h | 11424m | -2.7m/s | -48.9°C | 5.8% | 217.7hPa | 2.5V | 00:00:00 | 02:25:51 | 00:00:00 | |
| EDDB2-11 | 2026-08-31 18:41:39 | 52.79255 | 15.61439 | 59° | 88km/h | 11426m | -2.5m/s | -49.0°C | 3.5% | 217.7hPa | 2.5V | 00:00:00 | 00:00:00 | 00:00:00 | |
| SONDE2-12 | 2026-08-31 18:41:21 | 52.79040 | 15.60940 | 56° | 88km/h | 11477m | -2.4m/s | -48.3°C | 2.8% | 216.0hPa | 2.5V | 00:00:00 | 00:00:00 | 00:00:00 | |
| 13BRC | 2026-08-31 18:41:19 | 52.79040 | 15.60940 | 58° | 89km/h | 11477m | -2.4m/s | -48.3°C | 2.7% | 216.0hPa | 2.5V | 00:00:00 | 00:00:00 | 00:00:00 | |
| KRY50SP-1 | 2026-08-31 18:41:18 | 52.79014 | 15.60879 | 53° | 89km/h | 11482m | -2.8m/s | -48.3°C | 2.7% | 215.8hPa | 2.5V | 00:00:00 | 00:00:00 | 00:00:00 | |
| 3Z3Z-3 | 2026-08-31 18:41:17 | 52.79014 | 15.60879 | 53° | 89km/h | 11482m | -2.8m/s | -48.3°C | 2.7% | 215.8hPa | 2.5V | 00:00:00 | 00:00:00 | 00:00:00 | |
| SONDE2-11 | 2026-08-31 18:41:16 | 52.78985 | 15.60824 | 46° | 84km/h | 11488m | -3.0m/s | -48.3°C | 2.6% | 215.7hPa | 2.5V | 00:00:00 | 00:00:00 | 00:00:00 | |
| AA1-15 | 2026-08-31 18:40:57 | 52.78762 | 15.60332 | 44° | 73km/h | 11539m | -1.6m/s | -48.4°C | 1.9% | 214hPa | 2.5V | 18:12:15 | 02:25:08 | 00:00:00 | |
| SONDE2-12 | 2026-08-31 18:40:50 | 52.78688 | 15.60152 | 62° | 75km/h | 11560m | -2.5m/s | -48.5°C | 2.4% | 213.2hPa | 2.6V | 00:00:00 | 00:00:00 | 00:00:00 | |
| SONDE2-11 | 2026-08-31 18:40:45 | 52.78646 | 15.60034 | 53° | 86km/h | 11571m | -2.7m/s | -48.6°C | 2.3% | 213.0hPa | 2.6V | 00:00:00 | 00:00:00 | 00:00:00 | |
| AA1-15 | 2026-08-31 18:40:43 | 52.78618 | 15.59979 | 48° | 84km/h | 11577m | -2.6m/s | -48.6°C | 1.8% | 212.8hPa | 2.6V | 18:12:15 | 02:24:54 | 00:00:00 | |
| 3Z3Z-3 | 2026-08-31 18:40:42 | 52.78605 | 15.59954 | 47° | 80km/h | 11579m | -2.4m/s | -48.6°C | 2.3% | 212.7hPa | 2.5V | 00:00:00 | 00:00:00 | 00:00:00 | |
| KRY50SP-1 | 2026-08-31 18:40:40 | 52.78591 | 15.59931 | 46° | 75km/h | 11582m | -2.2m/s | -48.6°C | 2.2% | 212.6hPa | 2.5V | 00:00:00 | 00:00:00 | 00:00:00 | |
| EDDB2-12 | 2026-08-31 18:40:39 | 52.78554 | 15.59871 | 44° | 64km/h | 11589m | -2.5m/s | -48.5°C | 2.2% | 212.4hPa | 2.5V | 00:00:00 | 00:00:00 | 00:00:00 | |
| AA1-15 | 2026-08-31 18:40:20 | 52.78352 | 15.59430 | 50° | 64km/h | 11634m | -2.3m/s | -48.6°C | 1.4% | 210.8hPa | 2.5V | 18:12:15 | 02:24:31 | 00:00:00 | |
| SONDE2-12 | 2026-08-31 18:40:19 | 52.78334 | 15.59387 | 58° | 66km/h | 11640m | -2.6m/s | -48.7°C | 2.1% | 210.7hPa | 2.5V | 00:00:00 | 00:00:00 | 00:00:00 | |
| 3Z3Z-3 | 2026-08-31 18:40:16 | 52.78325 | 15.59362 | 63° | 69km/h | 11642m | -2.6m/s | -48.7°C | 2.0% | 210.6hPa | 2.5V | 00:00:00 | 00:00:00 | 00:00:00 | |
| SONDE2-11 | 2026-08-31 18:40:14 | 52.78301 | 15.59281 | 62° | 77km/h | 11651m | -2.6m/s | -48.7°C | 2.1% | 210.3hPa | 2.5V | 00:00:00 | 00:00:00 | 00:00:00 | |
| AM1SDL-15 | 2026-08-31 18:40:13 | 52.78292 | 15.59252 | 62° | 82km/h | 11654m | -2.6m/s | -48.6°C | 4.1% | 210.2hPa | 2.5V | 00:00:00 | 02:24:24 | 00:00:00 | |
| EDDB2-12 | 2026-08-31 18:40:08 | 52.78214 | 15.59084 | 45° | 82km/h | 11670m | -2.5m/s | -48.7°C | 1.9% | 209.7hPa | 2.5V | 00:00:00 | 00:00:00 | 00:00:00 | |
| EDDB2-11 | 2026-08-31 18:40:06 | 52.78199 | 15.59060 | 42° | 80km/h | 11672m | -2.6m/s | -48.6°C | 1.8% | 209.7hPa | 2.5V | 00:00:00 | 00:00:00 | 00:00:00 | |
| SONDE2-12 | 2026-08-31 18:39:48 | 52.77944 | 15.58585 | 38° | 75km/h | 11724m | -2.9m/s | -48.2°C | 1.7% | 208.0hPa | 2.5V | 00:00:00 | 00:00:00 | 00:00:00 | |
| SP6BVK | 2026-08-31 18:39:47 | 52.77975 | 15.58627 | 43° | 84km/h | 11720m | -2.7m/s | -48.2°C | 1.7% | 208.2hPa | 2.5V | 00:00:00 | 00:00:00 | 00:00:00 | |
| SONDE2-11 | 2026-08-31 18:39:43 | 52.77894 | 15.58510 | 47° | 62km/h | 11734m | -2.2m/s | -48.2°C | 1.7% | 207.7hPa | 2.5V | 00:00:00 | 00:00:00 | 00:00:00 | |
| KRY50SP-1 | 2026-08-31 18:39:40 | 52.77884 | 15.58490 | 55° | 66km/h | 11736m | -2.6m/s | -48.2°C | 1.7% | 207.6hPa | 2.5V | 00:00:00 | 00:00:00 | 00:00:00 | |
| 13BRC | 2026-08-31 18:39:39 | 52.77875 | 15.58466 | 59° | 69km/h | 11739m | -2.6m/s | -48.2°C | 1.7% | 207.5hPa | 2.5V | 00:00:00 | 00:00:00 | 00:00:00 | |
| EDDB2-12 | 2026-08-31 18:39:37 | 52.77831 | 15.58357 | 54° | 86km/h | 11750m | -2.8m/s | -48.2°C | 1.7% | 207.3hPa | 2.5V | 00:00:00 | 00:00:00 | 00:00:00 | |
| EDDB2-11 | 2026-08-31 18:39:35 | 52.77818 | 15.58328 | 50° | 86km/h | 11753m | -2.4m/s | -48.2°C | 1.7% | 207.1hPa | 2.5V | 00:00:00 | 00:00:00 | 00:00:00 | |
| KRY50SP-1 | 2026-08-31 18:39:34 | 52.77818 | 15.58327 | 52° | 88km/h | 11753m | -2.4m/s | -48.2°C | 1.7% | 207.1hPa | 2.5V | 00:00:00 | 00:00:00 | 00:00:00 | |
| SONDE2-12 | 2026-08-31 18:39:16 | 52.77561 | 15.57870 | 47° | 91km/h | 11804m | -2.7m/s | -48.3°C | 1.7% | 205.6hPa | 2.5V | 00:00:00 | 00:00:00 | 00:00:00 | |
| AA1-15 | 2026-08-31 18:39:08 | 52.77440 | 15.57684 | 50° | 71km/h | 11823m | -2.3m/s | -48.5°C | 0.9% | 205hPa | 2.5V | 18:12:15 | 02:23:19 | 00:00:00 | |
| SP6BVK | 2026-08-31 18:39:06 | 52.77429 | 15.57662 | 54° | 69km/h | 11825m | -2.3m/s | -48.5°C | 1.7% | 204.9hPa | 2.6V | 00:00:00 | 00:00:00 | 00:00:00 | |
| AA1-15 | 2026-08-31 18:38:49 | 52.77184 | 15.57181 | 55° | 73km/h | 11871m | -2.3m/s | -48.4°C | 0.7% | 203.5hPa | 2.6V | 18:12:15 | 02:23:00 | 00:00:00 | |
| SONDE2-12 | 2026-08-31 18:38:45 | 52.77128 | 15.57032 | 56° | 93km/h | 11885m | -2.4m/s | -48.3°C | 1.6% | 203.0hPa | 2.6V | 00:00:00 | 00:00:00 | 00:00:00 | |
| AA1-15 | 2026-08-31 18:38:38 | 52.77034 | 15.56845 | 44° | 91km/h | 11900m | -2.5m/s | -48.4°C | 0.7% | 202.6hPa | 2.6V | 18:12:15 | 02:22:49 | 00:00:00 | |
| AA1-15 | 2026-08-31 18:38:27 | 52.76900 | 15.56550 | 61° | 93km/h | 11929m | -2.6m/s | -48.5°C | 0.6% | 201.7hPa | 2.5V | 18:12:15 | 02:22:38 | 00:00:00 | |
| AA1-15 | 2026-08-31 18:38:16 | 52.76742 | 15.56215 | 56° | 75km/h | 11955m | -2.6m/s | -48.4°C | 0.6% | 200.8hPa | 2.6V | 18:12:15 | 02:22:27 | 00:00:00 | |
| SONDE2-12 | 2026-08-31 18:38:14 | 52.76703 | 15.56100 | 63° | 80km/h | 11968m | -2.5m/s | -48.4°C | 1.6% | 200.5hPa | 2.5V | 00:00:00 | 00:00:00 | 00:00:00 | |
| AA1-15 | 2026-08-31 18:38:05 | 52.76624 | 15.55856 | 55° | 99km/h | 11986m | -2.4m/s | -48.4°C | 0.7% | 199.9hPa | 2.5V | 18:12:15 | 02:22:16 | 00:00:00 | |
| AA1-15 | 2026-08-31 18:37:54 | 52.76496 | 15.55548 | 68° | 78km/h | 12015m | -2.7m/s | -48°C | 0.4% | 199hPa | 2.5V | 18:12:15 | 02:22:05 | 00:00:00 | |
| S3001 | 2026-08-31 18:37:52 | 52.76481 | 15.55482 | 67° | 88km/h | 12021m | -2.5m/s | -47.8°C | 1.5% | 198.8hPa | 2.6V | 00:00:00 | 00:00:00 | 00:00:00 | |
| AA1-15 | 2026-08-31 18:37:44 | 52.76383 | 15.55212 | 51° | 88km/h | 12041m | -2.8m/s | -47.7°C | 0.5% | 198.3hPa | 2.6V | 18:12:15 | 02:21:55 | 00:00:00 | |
| SONDE2-12 | 2026-08-31 18:37:43 | 52.76369 | 15.55185 | 48° | 82km/h | 12044m | -2.8m/s | -47.7°C | 1.5% | 198.2hPa | 2.5V | 00:00:00 | 00:00:00 | 00:00:00 | |
| AA1-15 | 2026-08-31 18:37:33 | 52.76276 | 15.54911 | 67° | 89km/h | 12071m | -2.8m/s | -47.8°C | 0.7% | 197.3hPa | 2.5V | 18:12:15 | 02:21:44 | 00:00:00 | |
| AA1-15 | 2026-08-31 18:37:23 | 52.76156 | 15.54632 | 51° | 69km/h | 12098m | -2.7m/s | -47.6°C | 0.5% | 196.6hPa | 2.4V | 18:12:15 | 02:21:34 | 00:00:00 | |
| AA1-15 | 2026-08-31 18:37:12 | 52.76059 | 15.54331 | 53° | 84km/h | 12128m | -1.9m/s | -47.6°C | 0.6% | 195.8hPa | 2.6V | 18:12:15 | 02:21:23 | 00:00:00 | |
| AA1-15 | 2026-08-31 18:37:01 | 52.75942 | 15.54083 | 67° | 64km/h | 12158m | -2.1m/s | -47.5°C | 0.5% | 194.8hPa | 2.5V | 18:12:15 | 02:21:12 | 00:00:00 | |
| AA1-15 | 2026-08-31 18:36:50 | 52.75819 | 15.53775 | 47° | 73km/h | 12183m | -1.9m/s | -47.6°C | 0.6% | 194hPa | 2.6V | 18:12:15 | 02:21:01 | 00:00:00 | |
| SONDE2-12 | 2026-08-31 18:36:41 | 52.75745 | 15.53558 | 67° | 82km/h | 12206m | -3.2m/s | -47.6°C | 1.5% | 193.3hPa | 2.5V | 00:00:00 | 00:00:00 | 00:00:00 | |
| AA1-15 | 2026-08-31 18:36:39 | 52.75726 | 15.53493 | 63° | 89km/h | 12212m | -3.1m/s | -47.7°C | 0.5% | 193.2hPa | 2.5V | 18:12:15 | 02:20:50 | 00:00:00 | |
| AA1-15 | 2026-08-31 18:36:28 | 52.75597 | 15.53208 | 65° | 64km/h | 12239m | -2.7m/s | -47.7°C | 0.5% | 192.4hPa | 2.5V | 18:12:15 | 02:20:39 | 00:00:00 | |
| AA1-15 | 2026-08-31 18:36:17 | 52.75495 | 15.52895 | 49° | 75km/h | 12269m | -2.3m/s | -47.8°C | 0.6% | 191.5hPa | 2.6V | 18:12:15 | 02:20:28 | 00:00:00 | |
| SONDE2-12 | 2026-08-31 18:36:10 | 52.75413 | 15.52735 | 65° | 58km/h | 12290m | -2.3m/s | -47.8°C | 1.5% | 190.9hPa | 2.5V | 00:00:00 | 00:00:00 | 00:00:00 | |
| AA1-15 | 2026-08-31 18:36:06 | 52.75395 | 15.52658 | 70° | 77km/h | 12297m | -2.3m/s | -47.8°C | 0.5% | 190.7hPa | 2.5V | 18:12:15 | 02:20:17 | 00:00:00 | |
| AA1-15 | 2026-08-31 18:35:55 | 52.75271 | 15.52359 | 54° | 62km/h | 12324m | -2.5m/s | -47.7°C | 0.6% | 189.9hPa | 2.6V | 18:12:15 | 02:20:06 | 00:00:00 | |
| S3001 | 2026-08-31 18:35:48 | 52.75224 | 15.52179 | 69° | 78km/h | 12342m | -2.7m/s | -47.5°C | 1.4% | 189.4hPa | 2.6V | 00:00:00 | 00:00:00 | 00:00:00 | |
| AA1-15 | 2026-08-31 18:35:44 | 52.75188 | 15.52049 | 61° | 91km/h | 12352m | -2.5m/s | -47.5°C | 0.5% | 189.1hPa | 2.6V | 18:12:15 | 02:19:55 | 00:00:00 | |
| SONDE2-12 | 2026-08-31 18:35:39 | 52.75103 | 15.51869 | 54° | 62km/h | 12367m | -2.9m/s | -47.3°C | 1.5% | 188.6hPa | 2.5V | 00:00:00 | 00:00:00 | 00:00:00 | |
| AA1-15 | 2026-08-31 18:35:33 | 52.75076 | 15.51776 | 71° | 64km/h | 12377m | -2.1m/s | -47.2°C | 0.3% | 188.3hPa | 2.5V | 18:12:15 | 02:19:44 | 00:00:00 | |
| AA1-15 | 2026-08-31 18:35:22 | 52.74974 | 15.51452 | 51° | 71km/h | 12401m | -2.3m/s | -47°C | 0.4% | 187.6hPa | 2.6V | 18:12:15 | 02:19:33 | 00:00:00 | |
| AA1-15 | 2026-08-31 18:35:12 | 52.74900 | 15.51202 | 68° | 84km/h | 12425m | -2.3m/s | -46.7°C | 0.3% | 186.8hPa | 2.6V | 18:12:15 | 02:19:23 | 00:00:00 | |
| SONDE2-12 | 2026-08-31 18:35:08 | 52.74858 | 15.51077 | 54° | 82km/h | 12434m | -2.7m/s | -46.6°C | 1.4% | 186.6hPa | 2.5V | 00:00:00 | 00:00:00 | 00:00:00 | |
| AA1-15 | 2026-08-31 18:35:01 | 52.74788 | 15.50915 | 67° | 60km/h | 12452m | -2.6m/s | -46.5°C | 0.4% | 186.1hPa | 2.5V | 18:12:15 | 02:19:12 | 00:00:00 | |
| AA1-15 | 2026-08-31 18:34:50 | 52.74692 | 15.50599 | 52° | 69km/h | 12479m | -2.2m/s | -46.4°C | 0.4% | 185.3hPa | 2.5V | 18:12:15 | 02:19:01 | 00:00:00 | |
| S3001 | 2026-08-31 18:34:46 | 52.74659 | 15.50509 | 67° | 58km/h | 12489m | -2.4m/s | -46.2°C | 1.3% | 185.0hPa | 2.6V | 00:00:00 | 00:00:00 | 00:00:00 | |
| AA1-15 | 2026-08-31 18:34:39 | 52.74621 | 15.50310 | 70° | 84km/h | 12506m | -2.7m/s | -46.1°C | 0.3% | 184.5hPa | 2.6V | 18:12:15 | 02:18:50 | 00:00:00 | |
| SONDE2-12 | 2026-08-31 18:34:37 | 52.74605 | 15.50246 | 65° | 82km/h | 12512m | -2.5m/s | -46.2°C | 1.5% | 184.4hPa | 2.5V | 00:00:00 | 00:00:00 | 00:00:00 | |
| AA1-15 | 2026-08-31 18:34:28 | 52.74539 | 15.50027 | 75° | 60km/h | 12535m | -3.5m/s | -46.1°C | 0.2% | 183.7hPa | 2.5V | 18:12:15 | 02:18:39 | 00:00:00 | |
| AA1-15 | 2026-08-31 18:34:17 | 52.74477 | 15.49705 | 61° | 66km/h | 12565m | -2.4m/s | -46.1°C | 0.4% | 182.8hPa | 2.5V | 18:12:15 | 02:18:28 | 00:00:00 | |
| AA1-15 | 2026-08-31 18:34:06 | 52.74430 | 15.49429 | 75° | 80km/h | 12597m | -2.8m/s | -46°C | 0.4% | 182hPa | 2.6V | 18:12:15 | 02:18:17 | 00:00:00 | |
| AA1-15 | 2026-08-31 18:33:55 | 52.74350 | 15.49158 | 78° | 55km/h | 12629m | -3.4m/s | -46.2°C | 0.4% | 181.1hPa | 2.6V | 18:12:15 | 02:18:06 | 00:00:00 | |
| EDDB2-11 | 2026-08-31 18:33:54 | 52.74345 | 15.49110 | 79° | 62km/h | 12635m | -2.7m/s | -46.2°C | 1.4% | 181.0hPa | 2.5V | 00:00:00 | 00:00:00 | 00:00:00 | |
| AA1-15 | 2026-08-31 18:33:44 | 52.74279 | 15.48855 | 55° | 68km/h | 12659m | -3.6m/s | -46.2°C | 0.2% | 180.3hPa | 2.5V | 18:12:15 | 02:17:55 | 00:00:00 | |
| SONDE2-12 | 2026-08-31 18:33:35 | 52.74230 | 15.48648 | 75° | 73km/h | 12683m | -2.7m/s | -46.2°C | 1.4% | 179.7hPa | 2.5V | 00:00:00 | 00:00:00 | 00:00:00 | |
| AA1-15 | 2026-08-31 18:33:34 | 52.74225 | 15.48618 | 73° | 77km/h | 12685m | -2.6m/s | -46.2°C | 0.3% | 179.6hPa | 2.5V | 18:12:15 | 02:17:45 | 00:00:00 | |
| AA1-15 | 2026-08-31 18:33:22 | 52.74141 | 15.48328 | 80° | 55km/h | 12719m | -2.7m/s | -46.5°C | 0.4% | 178.7hPa | 2.5V | 18:12:15 | 02:17:33 | 00:00:00 | |
| AA1-15 | 2026-08-31 18:33:12 | 52.74078 | 15.48034 | 57° | 57km/h | 12750m | -2.4m/s | -46.5°C | 0.4% | 177.9hPa | 2.6V | 18:12:15 | 02:17:22 | 00:00:00 | |
| SONDE2-12 | 2026-08-31 18:33:04 | 52.74047 | 15.47892 | 81° | 60km/h | 12771m | -3.0m/s | -46.6°C | 1.5% | 177.3hPa | 2.5V | 00:00:00 | 00:00:00 | 00:00:00 | |
| AA1-15 | 2026-08-31 18:33:01 | 52.74035 | 15.47809 | 73° | 75km/h | 12778m | -2.5m/s | -46.6°C | 0.4% | 177.1hPa | 2.5V | 18:12:15 | 02:17:12 | 00:00:00 | |
| AA1-15 | 2026-08-31 18:32:50 | 52.73955 | 15.47560 | 76° | 47km/h | 12810m | -3m/s | -46.6°C | 0.4% | 176.3hPa | 2.5V | 18:12:15 | 02:17:01 | 00:00:00 | |
| AA1-15 | 2026-08-31 18:32:39 | 52.73886 | 15.47285 | 51° | 62km/h | 12839m | -3.1m/s | -46.7°C | 0.4% | 175.5hPa | 2.5V | 18:12:15 | 02:16:50 | 00:00:00 | |
| SONDE2-12 | 2026-08-31 18:32:33 | 52.73843 | 15.47180 | 71° | 46km/h | 12858m | -2.5m/s | -46.8°C | 1.5% | 175.0hPa | 2.6V | 00:00:00 | 00:00:00 | 00:00:00 | |
| AA1-15 | 2026-08-31 18:32:28 | 52.73818 | 15.47061 | 65° | 73km/h | 12868m | -2.6m/s | -46.9°C | 0.5% | 174.7hPa | 2.6V | 18:12:15 | 02:16:39 | 00:00:00 | |
| AA1-15 | 2026-08-31 18:32:17 | 52.73719 | 15.46835 | 66° | 47km/h | 12900m | -3.1m/s | -47°C | 0.5% | 173.9hPa | 2.6V | 18:12:15 | 02:16:28 | 00:00:00 | |
| AA1-15 | 2026-08-31 18:32:06 | 52.73633 | 15.46582 | 45° | 60km/h | 12928m | -2.8m/s | -47.1°C | 0.4% | 173.1hPa | 2.6V | 18:12:15 | 02:16:17 | 00:00:00 | |
| SONDE2-12 | 2026-08-31 18:32:02 | 52.73590 | 15.46506 | 60° | 44km/h | 12942m | -3.0m/s | -47.2°C | 1.5% | 172.8hPa | 2.6V | 00:00:00 | 00:00:00 | 00:00:00 | |
| SONDE2-11 | 2026-08-31 18:31:57 | 52.73570 | 15.46425 | 68° | 62km/h | 12952m | -2.9m/s | -47.3°C | 1.4% | 172.5hPa | 2.6V | 00:00:00 | 00:00:00 | 00:00:00 | |
| EDDB2-12 | 2026-08-31 18:31:51 | 52.73517 | 15.46274 | 47° | 68km/h | 12969m | -3.0m/s | -47.3°C | 1.4% | 172.1hPa | 2.6V | 00:00:00 | 00:00:00 | 00:00:00 | |
| SP3WXH-11 | 2026-08-31 18:31:50 | 52.73506 | 15.46254 | 47° | 60km/h | 12971m | -2.6m/s | -47.3°C | 1.5% | 172.1hPa | 2.6V | 00:00:00 | 00:00:00 | 00:00:00 | |
| EDDB2-11 | 2026-08-31 18:31:49 | 52.73495 | 15.46236 | 45° | 57km/h | 12974m | -3.2m/s | -47.3°C | 1.5% | 172.0hPa | 2.6V | 00:00:00 | 00:00:00 | 00:00:00 | |
| SONDE2-12 | 2026-08-31 18:31:31 | 52.73363 | 15.45849 | 53° | 49km/h | 13021m | -3.1m/s | -47.6°C | 1.5% | 170.8hPa | 2.6V | 00:00:00 | 00:00:00 | 00:00:00 | |
| AA1-15 | 2026-08-31 18:31:24 | 52.73327 | 15.45715 | 70° | 64km/h | 13040m | -2.6m/s | -47.6°C | 0.6% | 170.3hPa | 2.6V | 18:12:15 | 02:15:35 | 00:00:00 | |
| AA1-15 | 2026-08-31 18:31:13 | 52.73223 | 15.45475 | 51° | 47km/h | 13067m | -3.4m/s | -47.5°C | 0.5% | 169.6hPa | 2.5V | 18:12:15 | 02:15:24 | 00:00:00 | |
| AA1-15 | 2026-08-31 18:31:02 | 52.73142 | 15.45232 | 51° | 71km/h | 13097m | -3.1m/s | -47.6°C | 0.5% | 168.8hPa | 2.5V | 18:12:15 | 02:15:13 | 00:00:00 | |
| SONDE2-12 | 2026-08-31 18:31:00 | 52.73118 | 15.45189 | 45° | 68km/h | 13103m | -3.2m/s | -47.6°C | 1.5% | 168.7hPa | 2.6V | 00:00:00 | 00:00:00 | 00:00:00 | |
| AA1-15 | 2026-08-31 18:30:52 | 52.73053 | 15.45044 | 71° | 60km/h | 13124m | -2.8m/s | -47.7°C | 0.5% | 168.1hPa | 2.6V | 18:12:15 | 02:15:03 | 00:00:00 | |
| EDDB2-12 | 2026-08-31 18:30:49 | 52.73034 | 15.44968 | 64° | 71km/h | 13132m | -2.8m/s | -47.8°C | 1.4% | 167.9hPa | 2.5V | 00:00:00 | 00:00:00 | 00:00:00 | |
| SP3WXH-11 | 2026-08-31 18:30:48 | 52.73025 | 15.44941 | 61° | 75km/h | 13134m | -3.0m/s | -47.8°C | 1.4% | 167.8hPa | 2.5V | 00:00:00 | 00:00:00 | 00:00:00 | |
| EDDB2-11 | 2026-08-31 18:30:47 | 52.73015 | 15.44915 | 55° | 77km/h | 13137m | -3.0m/s | -47.8°C | 1.4% | 167.8hPa | 2.5V | 00:00:00 | 00:00:00 | 00:00:00 | |
| AA1-15 | 2026-08-31 18:30:41 | 52.72943 | 15.44789 | 42° | 57km/h | 13154m | -3.6m/s | -47.9°C | 0.5% | 167.3hPa | 2.5V | 18:12:15 | 02:14:52 | 00:00:00 | |
| AA1-15 | 2026-08-31 18:30:30 | 52.72851 | 15.44552 | 51° | 78km/h | 13186m | -3.2m/s | -47.9°C | 0.5% | 166.6hPa | 2.6V | 18:12:15 | 02:14:41 | 00:00:00 | |
| SONDE2-12 | 2026-08-31 18:30:29 | 52.72839 | 15.44528 | 47° | 75km/h | 13189m | -3.0m/s | -47.9°C | 1.5% | 166.5hPa | 2.5V | 00:00:00 | 00:00:00 | 00:00:00 | |
| AA1-15 | 2026-08-31 18:30:20 | 52.72744 | 15.44366 | 58° | 53km/h | 13216m | -2.3m/s | -48°C | 0.6% | 165.8hPa | 2.5V | 18:12:15 | 02:14:31 | 00:00:00 | |
| AA1-15 | 2026-08-31 18:30:09 | 52.72620 | 15.44113 | 38° | 66km/h | 13247m | -3.1m/s | -48.2°C | 0.5% | 165hPa | 2.5V | 18:12:15 | 02:14:20 | 00:00:00 | |
| AA1-15 | 2026-08-31 18:29:58 | 52.72521 | 15.43881 | 56° | 78km/h | 13280m | -3.2m/s | -48.4°C | 0.6% | 164.2hPa | 2.5V | 18:12:15 | 02:14:09 | 00:00:00 | |
| SONDE2-11 | 2026-08-31 18:29:53 | 52.72459 | 15.43769 | 40° | 62km/h | 13294m | -3.4m/s | -48.5°C | 1.5% | 163.8hPa | 2.5V | 00:00:00 | 00:00:00 | 00:00:00 | |
| EDDB2-12 | 2026-08-31 18:29:47 | 52.72408 | 15.43664 | 63° | 55km/h | 13313m | -3.5m/s | -48.7°C | 1.4% | 163.2hPa | 2.5V | 00:00:00 | 00:00:00 | 00:00:00 | |
| SP3WXH-11 | 2026-08-31 18:29:46 | 52.72401 | 15.43643 | 65° | 57km/h | 13316m | -3.5m/s | -48.7°C | 1.4% | 163.2hPa | 2.5V | 00:00:00 | 00:00:00 | 00:00:00 | |
| EDDB2-11 | 2026-08-31 18:29:45 | 52.72395 | 15.43620 | 67° | 62km/h | 13319m | -3.4m/s | -48.7°C | 1.4% | 163.2hPa | 2.5V | 00:00:00 | 00:00:00 | 00:00:00 | |
| SONDE2-12 | 2026-08-31 18:29:27 | 52.72254 | 15.43225 | 69° | 68km/h | 13375m | -3.5m/s | -48.5°C | 1.5% | 161.8hPa | 2.5V | 00:00:00 | 00:00:00 | 00:00:00 | |
| AA1-15 | 2026-08-31 18:29:10 | 52.72131 | 15.42849 | 69° | 73km/h | 13427m | -3.3m/s | -48.7°C | 0.6% | 160.6hPa | 2.5V | 18:12:15 | 02:13:21 | 00:00:00 | |
| AA1-15 | 2026-08-31 18:28:59 | 52.72025 | 15.42605 | 65° | 51km/h | 13462m | -3.2m/s | -48.7°C | 0.7% | 159.8hPa | 2.5V | 18:12:15 | 02:13:10 | 00:00:00 | |
| SONDE2-12 | 2026-08-31 18:28:56 | 52.72011 | 15.42539 | 72° | 62km/h | 13471m | -3.0m/s | -48.8°C | 1.6% | 159.6hPa | 2.6V | 00:00:00 | 00:00:00 | 00:00:00 | |
| KRY50SP-1 | 2026-08-31 18:28:55 | 52.72012 | 15.42539 | 74° | 62km/h | 13472m | -3.0m/s | -48.8°C | 1.5% | 159.6hPa | 2.6V | 00:00:00 | 00:00:00 | 00:00:00 | |
| DM0DOS-11 | 2026-08-31 18:28:54 | 52.71962 | 15.42377 | 51° | 75km/h | 13490m | -3m/s | -48.9°C | 3.6% | 159.2hPa | 2.6V | 08:30:00 | 02:13:01 | 00:00:00 | |
| AA1-15 | 2026-08-31 18:28:48 | 52.71938 | 15.42332 | 45° | 66km/h | 13497m | -3.1m/s | -49°C | 0.8% | 159hPa | 2.5V | 18:12:15 | 02:12:59 | 00:00:00 | |
| 3Z3Z-3 | 2026-08-31 18:28:47 | 52.71926 | 15.42314 | 45° | 60km/h | 13500m | -3.3m/s | -49.0°C | 1.5% | 159.0hPa | 2.6V | 00:00:00 | 00:00:00 | 00:00:00 | |
| EDDB2-12 | 2026-08-31 18:28:45 | 52.71899 | 15.42267 | 52° | 46km/h | 13510m | -3.4m/s | -49.0°C | 1.5% | 158.7hPa | 2.6V | 00:00:00 | 00:00:00 | 00:00:00 | |
| SP3WXH-11 | 2026-08-31 18:28:44 | 52.71899 | 15.42267 | 52° | 46km/h | 13510m | -3.4m/s | -49.0°C | 1.5% | 158.7hPa | 2.6V | 00:00:00 | 00:00:00 | 00:00:00 | |
| DM0DOS-11 | 2026-08-31 18:28:43 | 52.71865 | 15.42136 | 68° | 73km/h | 13529m | -2.8m/s | -49.1°C | 3.6% | 158.3hPa | 2.6V | 08:30:00 | 02:12:49 | 00:00:00 | |
| DB0DAN | 2026-08-31 18:28:40 | 52.71876 | 15.42189 | 71° | 58km/h | 13522m | -2.7m/s | -49.1°C | 1.5% | 158.46hPa | 2.5V | 00:00:00 | 00:00:00 | 00:00:00 | |
| AA1-15 | 2026-08-31 18:28:37 | 52.71857 | 15.42107 | 66° | 78km/h | 13531m | -2.9m/s | -49.1°C | 0.7% | 158.3hPa | 2.6V | 18:12:15 | 02:12:48 | 00:00:00 | |
| AA1-15 | 2026-08-31 18:28:26 | 52.71746 | 15.41859 | 62° | 49km/h | 13564m | -2.8m/s | -49.3°C | 0.8% | 157.5hPa | 2.6V | 18:12:15 | 02:12:37 | 00:00:00 | |
| SONDE2-12 | 2026-08-31 18:28:25 | 52.71741 | 15.41840 | 69° | 51km/h | 13567m | -3.5m/s | -49.3°C | 1.6% | 157.4hPa | 2.5V | 00:00:00 | 00:00:00 | 00:00:00 | |
| DM0DOS-11 | 2026-08-31 18:28:23 | 52.71697 | 15.41654 | 61° | 80km/h | 13589m | -2.9m/s | -49.3°C | 3.7% | 156.9hPa | 2.5V | 08:30:00 | 02:12:29 | 00:00:00 | |
| AA1-15 | 2026-08-31 18:28:15 | 52.71662 | 15.41571 | 49° | 77km/h | 13598m | -2.9m/s | -49.4°C | 0.8% | 156.8hPa | 2.6V | 18:12:15 | 02:12:26 | 00:00:00 | |
| AA1-15 | 2026-08-31 18:28:04 | 52.71573 | 15.41351 | 73° | 66km/h | 13631m | -2.7m/s | -49.3°C | 0.8% | 156hPa | 2.5V | 18:12:15 | 02:12:15 | 00:00:00 | |
| DM0DOS-11 | 2026-08-31 18:28:03 | 52.71519 | 15.41180 | 51° | 78km/h | 13647m | -2.8m/s | -49.1°C | 3.7% | 155.5hPa | 2.5V | 08:30:00 | 02:12:09 | 00:00:00 | |
| SONDE2-12 | 2026-08-31 18:27:54 | 52.71462 | 15.41081 | 48° | 53km/h | 13663m | -3.3m/s | -49.0°C | 1.6% | 155.2hPa | 2.5V | 00:00:00 | 00:00:00 | 00:00:00 | |
| DM0DOS-11 | 2026-08-31 18:27:53 | 52.71432 | 15.40988 | 72° | 58km/h | 13678m | -2.3m/s | -48.9°C | 3.8% | 154.8hPa | 2.5V | 08:30:00 | 02:11:59 | 00:00:00 | |
| AA1-15 | 2026-08-31 18:27:53 | 52.71462 | 15.41081 | 49° | 55km/h | 13663m | -3.3m/s | -49°C | 0.8% | 155.2hPa | 2.5V | 18:12:15 | 02:12:04 | 00:00:00 | |
| SONDE2-11 | 2026-08-31 18:27:49 | 52.71436 | 15.41010 | 70° | 53km/h | 13675m | -2.6m/s | -48.9°C | 1.5% | 154.9hPa | 2.6V | 00:00:00 | 00:00:00 | 00:00:00 | |
| AM1SDL-15 | 2026-08-31 18:27:45 | 52.71414 | 15.40908 | 68° | 71km/h | 13686m | -2.6m/s | -48.9°C | 3.8% | 154.6hPa | 2.6V | 00:00:00 | 02:11:56 | 00:00:00 | |
| SP6BVK | 2026-08-31 18:27:44 | 52.71414 | 15.40908 | 69° | 77km/h | 13686m | -2.7m/s | -48.9°C | 1.6% | 154.7hPa | 2.6V | 00:00:00 | 00:00:00 | 00:00:00 | |
| DM0DOS-11 | 2026-08-31 18:27:43 | 52.71335 | 15.40729 | 42° | 66km/h | 13707m | -3m/s | -48.8°C | 3.5% | 154.1hPa | 2.6V | 08:30:00 | 02:11:49 | 00:00:00 | |
| AA1-15 | 2026-08-31 18:27:42 | 52.71385 | 15.40822 | 56° | 80km/h | 13695m | -3.2m/s | -48.9°C | 0.8% | 154.5hPa | 2.5V | 18:12:15 | 02:11:53 | 00:00:00 | |
| SP3WXH-11 | 2026-08-31 18:27:42 | 52.71373 | 15.40796 | 50° | 77km/h | 13698m | -3.0m/s | -48.8°C | 1.5% | 154.4hPa | 2.5V | 00:00:00 | 00:00:00 | 00:00:00 | |
| EDDB2-11 | 2026-08-31 18:27:41 | 52.71373 | 15.40796 | 50° | 77km/h | 13698m | -3.0m/s | -48.8°C | 1.5% | 154.4hPa | 2.5V | 00:00:00 | 00:00:00 | 00:00:00 | |
| 3Z3Z-3 | 2026-08-31 18:27:35 | 52.71301 | 15.40680 | 44° | 53km/h | 13716m | -3.1m/s | -48.8°C | 1.5% | 154.0hPa | 2.5V | 00:00:00 | 00:00:00 | 00:00:00 | |
| DM0DOS-11 | 2026-08-31 18:27:33 | 52.71251 | 15.40542 | 62° | 75km/h | 13734m | -2.5m/s | -48.9°C | 3.8% | 153.5hPa | 2.5V | 08:30:00 | 02:11:39 | 00:00:00 | |
| AA1-15 | 2026-08-31 18:27:31 | 52.71272 | 15.40614 | 65° | 57km/h | 13726m | -2.6m/s | -48.8°C | 0.8% | 153.6hPa | 2.5V | 18:12:15 | 02:11:42 | 00:00:00 | |
| DB0NH | 2026-08-31 18:27:27 | 52.71242 | 15.40514 | 60° | 68km/h | 13737m | -2.5m/s | -48.8°C | 3.7% | 153.4hPa | 2.6V | 00:00:00 | 02:11:38 | 08:30:00 | |
| SP6BVK | 2026-08-31 18:27:24 | 52.71219 | 15.40459 | 54° | 80km/h | 13742m | -2.5m/s | -48.9°C | 1.5% | 153.3hPa | 2.5V | 00:00:00 | 00:00:00 | 00:00:00 | |
| DM0DOS-11 | 2026-08-31 18:27:23 | 52.71126 | 15.40320 | 37° | 57km/h | 13758m | -3m/s | -49°C | 3.6% | 152.9hPa | 2.5V | 08:30:00 | 02:11:29 | 00:00:00 | |
| AA1-15 | 2026-08-31 18:27:20 | 52.71151 | 15.40351 | 38° | 68km/h | 13753m | -2.4m/s | -49°C | 0.7% | 153hPa | 2.6V | 18:12:15 | 02:11:31 | 00:00:00 | |
| KRY50SP-1 | 2026-08-31 18:27:17 | 52.71126 | 15.40320 | 39° | 57km/h | 13758m | -3.0m/s | -49.0°C | 1.5% | 152.9hPa | 2.6V | 00:00:00 | 00:00:00 | 00:00:00 | |
| MECKS9 | 2026-08-31 18:27:15 | 52.71106 | 15.40292 | 47° | 49km/h | 13764m | -3.0m/s | -49.0°C | 1.5% | 152.7hPa | 2.6V | 00:00:00 | 00:00:00 | 00:00:00 | |
| DM0DOS-11 | 2026-08-31 18:27:13 | 52.71042 | 15.40110 | 53° | 80km/h | 13787m | -2.5m/s | -48.9°C | 3.6% | 152.3hPa | 2.6V | 08:30:00 | 02:11:19 | 00:00:00 | |
| AA1-15 | 2026-08-31 18:27:10 | 52.71062 | 15.40165 | 62° | 75km/h | 13781m | -2.5m/s | -48.9°C | 0.8% | 152.5hPa | 2.5V | 18:12:15 | 02:11:21 | 00:00:00 | |
| AM1SDL-15 | 2026-08-31 18:27:09 | 52.71053 | 15.40138 | 58° | 71km/h | 13784m | -2.4m/s | -48.8°C | 3.7% | 152.3hPa | 2.5V | 00:00:00 | 02:11:20 | 00:00:00 | |
| KRY50SP-1 | 2026-08-31 18:27:05 | 52.71016 | 15.40059 | 47° | 82km/h | 13793m | -2.5m/s | -48.9°C | 1.5% | 152.2hPa | 2.5V | 00:00:00 | 00:00:00 | 00:00:00 | |
| DM0DOS-11 | 2026-08-31 18:27:03 | 52.70911 | 15.39924 | 45° | 49km/h | 13810m | -2.4m/s | -49°C | 3.7% | 151.7hPa | 2.5V | 08:30:00 | 02:11:09 | 00:00:00 | |
| AA1-15 | 2026-08-31 18:26:59 | 52.70920 | 15.39938 | 40° | 49km/h | 13808m | -2.2m/s | -49°C | 0.8% | 151.8hPa | 2.5V | 18:12:15 | 02:11:10 | 00:00:00 | |
| DB0NH | 2026-08-31 18:26:57 | 52.70903 | 15.39908 | 55° | 73km/h | 13812m | -2.8m/s | -48.9°C | 3.7% | 151.6hPa | 2.5V | 00:00:00 | 02:11:08 | 00:00:00 | |
| 3Z3Z-3 | 2026-08-31 18:26:55 | 52.70897 | 15.39890 | 62° | 55km/h | 13815m | -3.0m/s | -49.0°C | 1.5% | 151.6hPa | 2.5V | 00:00:00 | 00:00:00 | 00:00:00 | |
| KRY50SP-1 | 2026-08-31 18:26:54 | 52.70890 | 15.39868 | 65° | 60km/h | 13818m | -2.7m/s | -49.0°C | 1.5% | 151.5hPa | 2.5V | 00:00:00 | 00:00:00 | 00:00:00 | |
| DM0DOS-11 | 2026-08-31 18:26:53 | 52.70816 | 15.39689 | 44° | 84km/h | 13836m | -2.5m/s | -49.1°C | 3.6% | 151.1hPa | 2.5V | 08:30:00 | 02:10:59 | 00:00:00 | |
| SONDE2-12 | 2026-08-31 18:26:52 | 52.70867 | 15.39794 | 58° | 73km/h | 13826m | -2.6m/s | -49.1°C | 1.5% | 151.3hPa | 2.5V | 00:00:00 | 00:00:00 | 00:00:00 | |
| AA1-15 | 2026-08-31 18:26:48 | 52.70816 | 15.39689 | 44° | 84km/h | 13836m | -2.5m/s | -49.2°C | 0.7% | 151.1hPa | 2.5V | 18:12:15 | 02:10:59 | 00:00:00 | |
| SONDE2-11 | 2026-08-31 18:26:47 | 52.70800 | 15.39666 | 40° | 80km/h | 13839m | -2.6m/s | -49.2°C | 1.5% | 151.1hPa | 2.6V | 00:00:00 | 00:00:00 | 00:00:00 | |
| AM1SDL-15 | 2026-08-31 18:26:45 | 52.70770 | 15.39625 | 38° | 66km/h | 13844m | -2.6m/s | -49.2°C | 3.7% | 150.8hPa | 2.6V | 00:00:00 | 02:10:56 | 00:00:00 | |
| DM0DOS-11 | 2026-08-31 18:26:43 | 52.70702 | 15.39495 | 64° | 66km/h | 13864m | -2.7m/s | -49.4°C | 3.8% | 150.5hPa | 2.6V | 08:30:00 | 02:10:49 | 00:00:00 | |
| AA1-15 | 2026-08-31 18:26:37 | 52.70694 | 15.39470 | 64° | 69km/h | 13867m | -2.4m/s | -49.4°C | 0.8% | 150.4hPa | 2.6V | 18:12:15 | 02:10:48 | 00:00:00 | |
| DM0DOS-11 | 2026-08-31 18:26:33 | 52.70580 | 15.39221 | 40° | 78km/h | 13891m | -2.5m/s | -49.6°C | 3.8% | 149.8hPa | 2.5V | 08:30:00 | 02:10:39 | 00:00:00 | |
| AA1-15 | 2026-08-31 18:26:26 | 52.70551 | 15.39183 | 38° | 69km/h | 13897m | -3.3m/s | -49.5°C | 0.9% | 149.7hPa | 2.6V | 18:12:15 | 02:10:37 | 00:00:00 | |
| DM0DOS-11 | 2026-08-31 18:26:23 | 52.70479 | 15.39011 | 62° | 77km/h | 13921m | -2.8m/s | -49.5°C | 3.8% | 149.2hPa | 2.5V | 08:30:00 | 02:10:29 | 00:00:00 | |
| SONDE2-12 | 2026-08-31 18:26:21 | 52.70495 | 15.39065 | 62° | 66km/h | 13916m | -2.8m/s | -49.5°C | 1.6% | 149.3hPa | 2.6V | 00:00:00 | 00:00:00 | 00:00:00 | |
| AA1-15 | 2026-08-31 18:26:15 | 52.70447 | 15.38917 | 56° | 91km/h | 13930m | -3m/s | -49.6°C | 0.8% | 148.9hPa | 2.6V | 18:12:15 | 02:10:26 | 00:00:00 | |
| AA1-15 | 2026-08-31 18:26:04 | 52.70288 | 15.38652 | 53° | 60km/h | 13962m | -2.5m/s | -49.3°C | 0.8% | 148.2hPa | 2.5V | 18:12:15 | 02:10:15 | 00:00:00 | |
| DM0DOS-11 | 2026-08-31 18:26:03 | 52.70231 | 15.38485 | 57° | 89km/h | 13979m | -2.6m/s | -49.1°C | 3.6% | 147.9hPa | 2.5V | 08:30:00 | 02:10:09 | 00:00:00 | |
| S3001 | 2026-08-31 18:25:58 | 52.70231 | 15.38485 | 57° | 89km/h | 13979m | -2.6m/s | -49.1°C | 1.5% | 147.9hPa | 2.6V | 00:00:00 | 00:00:00 | 00:00:00 | |
| DB0NH | 2026-08-31 18:25:57 | 52.70218 | 15.38453 | 56° | 82km/h | 13982m | -2.7m/s | -49.1°C | 3.6% | 147.8hPa | 2.6V | 00:00:00 | 02:10:08 | 00:00:00 | |
| DM0DOS-11 | 2026-08-31 18:25:53 | 52.70082 | 15.38234 | 48° | 64km/h | 14007m | -3.2m/s | -49.2°C | 3.7% | 147.3hPa | 2.5V | 08:30:00 | 02:09:59 | 00:00:00 | |
| AA1-15 | 2026-08-31 18:25:53 | 52.70155 | 15.38336 | 43° | 88km/h | 13993m | -2.8m/s | -49.2°C | 0.7% | 147.6hPa | 2.5V | 18:12:15 | 02:10:04 | 00:00:00 | |
| SONDE2-12 | 2026-08-31 18:25:50 | 52.70094 | 15.38253 | 40° | 66km/h | 14005m | -2.4m/s | -49.2°C | 1.6% | 147.3hPa | 2.6V | 00:00:00 | 00:00:00 | 00:00:00 | |
| 13BRC | 2026-08-31 18:25:46 | 52.70072 | 15.38214 | 51° | 62km/h | 14011m | -3.1m/s | -49.3°C | 1.5% | 147.2hPa | 2.6V | 00:00:00 | 00:00:00 | 00:00:00 | |
| AM1SDL-15 | 2026-08-31 18:25:45 | 52.70054 | 15.38170 | 60° | 88km/h | 14017m | -2.6m/s | -49.2°C | 3.6% | 147.0hPa | 2.6V | 00:00:00 | 02:09:56 | 00:00:00 | |
| KRY50SP-1 | 2026-08-31 18:25:44 | 52.70054 | 15.38170 | 60° | 68km/h | 14017m | -2.6m/s | -49.3°C | 1.5% | 147.1hPa | 2.6V | 00:00:00 | 00:00:00 | 00:00:00 | |
| DM0DOS-11 | 2026-08-31 18:25:43 | 52.69980 | 15.37953 | 52° | 100km/h | 14038m | -3m/s | -49.4°C | 3.6% | 146.6hPa | 2.6V | 08:30:00 | 02:09:49 | 00:00:00 | |
| AA1-15 | 2026-08-31 18:25:42 | 52.70029 | 15.38086 | 65° | 84km/h | 14025m | -2.7m/s | -49.3°C | 0.7% | 146.9hPa | 2.5V | 18:12:15 | 02:09:53 | 00:00:00 | |
| SP3BTT-10 | 2026-08-31 18:25:41 | 52.70019 | 15.38054 | 61° | 97km/h | 14028m | -2.7m/s | -49.3°C | 3.5% | 146.7hPa | 2.6V | 00:00:00 | 00:00:00 | 00:00:00 | |
| KRY50SP-1 | 2026-08-31 18:25:39 | 52.69995 | 15.37986 | 56° | 97km/h | 14035m | -2.8m/s | -49.4°C | 1.4% | 146.7hPa | 2.6V | 00:00:00 | 00:00:00 | 00:00:00 | |
| SP3WXH-11 | 2026-08-31 18:25:38 | 52.69964 | 15.37921 | 50° | 99km/h | 14041m | -2.4m/s | -49.4°C | 1.4% | 146.6hPa | 2.6V | 00:00:00 | 00:00:00 | 00:00:00 | |
| EDDB2-11 | 2026-08-31 18:25:37 | 52.69964 | 15.37921 | 50° | 99km/h | 14041m | -2.4m/s | -49.4°C | 1.4% | 146.6hPa | 2.6V | 00:00:00 | 00:00:00 | 00:00:00 | |
| AM1SDL-15 | 2026-08-31 18:25:33 | 52.69896 | 15.37813 | 42° | 80km/h | 14050m | -2.5m/s | -49.4°C | 3.8% | 146.2hPa | 2.6V | 00:00:00 | 02:09:44 | 00:00:00 | |
| DM0DOS-11 | 2026-08-31 18:25:32 | 52.69832 | 15.37667 | 65° | 78km/h | 14066m | -2.9m/s | -49.6°C | 3.7% | 145.9hPa | 2.6V | 08:30:00 | 02:09:38 | 00:00:00 | |
| AA1-15 | 2026-08-31 18:25:31 | 52.69869 | 15.37768 | 48° | 69km/h | 14055m | -2m/s | -49.5°C | 0.9% | 146.2hPa | 2.5V | 18:12:15 | 02:09:42 | 00:00:00 | |
| DB0NH | 2026-08-31 18:25:27 | 52.69832 | 15.37667 | 66° | 91km/h | 14067m | -2.9m/s | -49.5°C | 3.7% | 145.9hPa | 2.5V | 00:00:00 | 02:09:38 | 00:00:00 | |
| DL2RXE-15 | 2026-08-31 18:25:26 | 52.69832 | 15.37667 | 66° | 78km/h | 14067m | -2.9m/s | -49.6°C | 1.5% | 145.9hPa | 2.5V | 00:00:00 | 00:00:00 | 00:00:00 | |
| 13BRC | 2026-08-31 18:25:25 | 52.69823 | 15.37637 | 65° | 82km/h | 14069m | -2.9m/s | -49.6°C | 1.5% | 145.9hPa | 2.5V | 00:00:00 | 00:00:00 | 00:00:00 | |
| 3Z3Z-3 | 2026-08-31 18:25:22 | 52.69795 | 15.37535 | 63° | 97km/h | 14078m | -2.9m/s | -49.6°C | 1.5% | 145.6hPa | 2.5V | 00:00:00 | 00:00:00 | 00:00:00 | |
| AM1SDL-15 | 2026-08-31 18:25:21 | 52.69770 | 15.37463 | 59° | 88km/h | 14085m | -2.8m/s | -49.5°C | 3.7% | 145.5hPa | 2.5V | 00:00:00 | 02:09:32 | 00:00:00 | |
| DM0DOS-11 | 2026-08-31 18:25:20 | 52.69705 | 15.37333 | 44° | 91km/h | 14095m | -2.6m/s | -49.5°C | 3.8% | 145.3hPa | 2.5V | 08:30:00 | 02:09:28 | 00:00:00 | |
| AA1-15 | 2026-08-31 18:25:20 | 52.69755 | 15.37427 | 54° | 104km/h | 14087m | -2.7m/s | -49.5°C | 0.7% | 145.4hPa | 2.6V | 18:12:15 | 02:09:31 | 00:00:00 | |
| SONDE2-12 | 2026-08-31 18:25:19 | 52.69722 | 15.37361 | 47° | 100km/h | 14092m | -3.1m/s | -49.5°C | 1.6% | 145.4hPa | 2.6V | 00:00:00 | 00:00:00 | 00:00:00 | |
| AA1-15 | 2026-08-31 18:25:09 | 52.69611 | 15.37131 | 67° | 82km/h | 14120m | -3m/s | -49.4°C | 0.7% | 144.7hPa | 2.6V | 18:12:15 | 02:09:20 | 00:00:00 | |
| SP3WXH-11 | 2026-08-31 18:25:07 | 52.69586 | 15.37029 | 67° | 97km/h | 14129m | -3.1m/s | -49.4°C | 1.5% | 144.5hPa | 2.6V | 00:00:00 | 00:00:00 | 00:00:00 | |
| DM0DOS-11 | 2026-08-31 18:25:06 | 52.69520 | 15.36843 | 51° | 102km/h | 14145m | -2.4m/s | -49.4°C | 3.6% | 144.2hPa | 2.6V | 08:30:00 | 02:09:12 | 00:00:00 | |
| AA1-15 | 2026-08-31 18:24:59 | 52.69487 | 15.36781 | 47° | 95km/h | 14150m | -2.8m/s | -49.4°C | 0.8% | 144.1hPa | 2.5V | 18:12:15 | 02:09:10 | 00:00:00 | |
| D01LWL | 2026-08-31 18:24:58 | 52.69415 | 15.36625 | 65° | 75km/h | 14168m | -3.2m/s | 0°C | -1.0% | -1.0hPa | 2.6V | 00:00:00 | 00:00:00 | 00:00:00 | |
| DB0NH | 2026-08-31 18:24:57 | 52.69456 | 15.36728 | 50° | 88km/h | 14155m | -3.0m/s | -49.4°C | 3.7% | 143.9hPa | 2.6V | 00:00:00 | 02:09:08 | 00:00:00 | |
| DM0DOS-11 | 2026-08-31 18:24:56 | 52.69400 | 15.36565 | 69° | 80km/h | 14174m | -3.1m/s | -49.5°C | 3.7% | 143.6hPa | 2.6V | 08:30:00 | 02:09:02 | 00:00:00 | |
| AA1-15 | 2026-08-31 18:24:48 | 52.69377 | 15.36459 | 66° | 99km/h | 14184m | -3m/s | -49.6°C | 0.8% | 143.3hPa | 2.5V | 18:12:15 | 02:08:59 | 00:00:00 | |
| SONDE2-12 | 2026-08-31 18:24:48 | 52.69366 | 15.36421 | 64° | 100km/h | 14187m | -3.1m/s | -49.6°C | 1.5% | 143.3hPa | 2.6V | 00:00:00 | 00:00:00 | 00:00:00 | |
| AA1-15 | 2026-08-31 18:24:37 | 52.69224 | 15.36120 | 57° | 69km/h | 14215m | -3.1m/s | -49.6°C | 0.7% | 142.6hPa | 2.6V | 18:12:15 | 02:08:48 | 00:00:00 | |
| AA1-15 | 2026-08-31 18:24:26 | 52.69118 | 15.35755 | 53° | 99km/h | 14252m | -2.5m/s | -49.4°C | 0.7% | 141.9hPa | 2.6V | 18:12:15 | 02:08:37 | 00:00:00 | |
| S3001 | 2026-08-31 18:24:25 | 52.69103 | 15.35724 | 49° | 93km/h | 14255m | -2.4m/s | -49.5°C | 1.5% | 141.8hPa | 2.5V | 00:00:00 | 00:00:00 | 00:00:00 | |
| 13BRC | 2026-08-31 18:24:24 | 52.69102 | 15.35724 | 51° | 93km/h | 14255m | -2.4m/s | -49.5°C | 1.5% | 141.9hPa | 2.5V | 00:00:00 | 00:00:00 | 00:00:00 | |
| DAC517 | 2026-08-31 18:24:23 | 52.69045 | 15.35622 | 50° | 71km/h | 14267m | -3.0m/s | -49.5°C | 1.4% | 141.5hPa | 2.5V | 00:00:00 | 00:00:00 | 00:00:00 | |
| DM0DOS-11 | 2026-08-31 18:24:22 | 52.69006 | 15.35496 | 70° | 75km/h | 14284m | -3.1m/s | -49.6°C | 3.6% | 141.2hPa | 2.5V | 08:30:00 | 02:08:27 | 00:00:00 | |
| SONDE2-12 | 2026-08-31 18:24:17 | 52.69006 | 15.35496 | 70° | 73km/h | 14284m | -3.1m/s | -49.6°C | 1.5% | 141.2hPa | 2.6V | 00:00:00 | 00:00:00 | 00:00:00 | |
| AA1-15 | 2026-08-31 18:24:15 | 52.69000 | 15.35465 | 73° | 82km/h | 14287m | -3m/s | -49.7°C | 0.7% | 141hPa | 2.6V | 18:12:15 | 02:08:26 | 00:00:00 | |
| SONDE2-11 | 2026-08-31 18:24:12 | 52.68966 | 15.35320 | 62° | 97km/h | 14301m | -3.2m/s | -49.8°C | 1.5% | 140.9hPa | 2.5V | 00:00:00 | 00:00:00 | 00:00:00 | |
| DM0DOS-11 | 2026-08-31 18:24:11 | 52.68897 | 15.35168 | 48° | 80km/h | 14315m | -3.6m/s | -49.8°C | 3.7% | 140.6hPa | 2.5V | 08:30:00 | 02:08:17 | 00:00:00 | |
| AA1-15 | 2026-08-31 18:24:04 | 52.68873 | 15.35123 | 51° | 68km/h | 14322m | -3.1m/s | -49.9°C | 0.7% | 140.3hPa | 2.5V | 18:12:15 | 02:08:15 | 00:00:00 | |
| 3Z3Z-3 | 2026-08-31 18:24:03 | 52.68873 | 15.35123 | 52° | 68km/h | 14322m | -3.1m/s | -49.9°C | 1.4% | 140.3hPa | 2.6V | 00:00:00 | 00:00:00 | 00:00:00 | |
| DM0DOS-11 | 2026-08-31 18:24:01 | 52.68820 | 15.34913 | 70° | 88km/h | 14349m | -2.9m/s | -49.9°C | 3.8% | 139.8hPa | 2.6V | 08:30:00 | 02:08:07 | 00:00:00 | |
| AA1-15 | 2026-08-31 18:23:53 | 52.68789 | 15.34810 | 58° | 91km/h | 14359m | -2.8m/s | -49.9°C | 0.7% | 139.6hPa | 2.5V | 18:12:15 | 02:08:04 | 00:00:00 | |
| SONDE2-12 | 2026-08-31 18:23:45 | 52.68682 | 15.34613 | 51° | 58km/h | 14385m | -3.0m/s | -49.9°C | 1.5% | 139.0hPa | 2.5V | 00:00:00 | 00:00:00 | 00:00:00 | |
| AA1-15 | 2026-08-31 18:23:42 | 52.68659 | 15.34547 | 66° | 66km/h | 14395m | -3.1m/s | -49.9°C | 0.7% | 138.8hPa | 2.5V | 18:12:15 | 02:07:53 | 00:00:00 | |
| DM0DOS-11 | 2026-08-31 18:23:41 | 52.68607 | 15.34355 | 56° | 95km/h | 14415m | -3.3m/s | -49.6°C | 3.6% | 138.4hPa | 2.5V | 08:30:00 | 02:07:47 | 00:00:00 | |
| SONDE2-11 | 2026-08-31 18:23:40 | 52.68646 | 15.34491 | 69° | 78km/h | 14401m | -2.7m/s | -49.8°C | 1.5% | 138.7hPa | 2.6V | 00:00:00 | 00:00:00 | 00:00:00 | |
| KRY50SP-1 | 2026-08-31 18:23:39 | 52.68646 | 15.34491 | 71° | 78km/h | 14401m | -2.7m/s | -49.8°C | 1.5% | 138.7hPa | 2.6V | 00:00:00 | 00:00:00 | 00:00:00 | |
| SP6BVK | 2026-08-31 18:23:38 | 52.68639 | 15.34459 | 69° | 88km/h | 14405m | -3.0m/s | -49.8°C | 1.5% | 138.6hPa | 2.6V | 00:00:00 | 00:00:00 | 00:00:00 | |
| DAC517 | 2026-08-31 18:23:36 | 52.68620 | 15.34389 | 62° | 95km/h | 14412m | -3.5m/s | -49.6°C | 1.4% | 138.4hPa | 2.6V | 00:00:00 | 00:00:00 | 00:00:00 | |
| SP3WXH-11 | 2026-08-31 18:23:34 | 52.68564 | 15.34264 | 46° | 88km/h | 14425m | -2.7m/s | -49.5°C | 1.3% | 138.1hPa | 2.6V | 00:00:00 | 00:00:00 | 00:00:00 | |
| EDDB2-11 | 2026-08-31 18:23:33 | 52.68564 | 15.34264 | 46° | 88km/h | 14425m | -2.7m/s | -49.5°C | 1.3% | 138.1hPa | 2.6V | 00:00:00 | 00:00:00 | 00:00:00 | |
| DM0DOS-11 | 2026-08-31 18:23:31 | 52.68471 | 15.34107 | 59° | 69km/h | 14447m | -3m/s | -49.5°C | 3.7% | 137.7hPa | 2.6V | 08:30:00 | 02:07:37 | 00:00:00 | |
| AA1-15 | 2026-08-31 18:23:31 | 52.68532 | 15.34214 | 43° | 82km/h | 14430m | -3.3m/s | -49.5°C | 0.5% | 138hPa | 2.5V | 18:12:15 | 02:07:42 | 00:00:00 | |
| OE3JTB-15 | 2026-08-31 18:23:29 | 52.68503 | 15.34171 | 43° | 82km/h | 14437m | -3.8m/s | -49.4°C | 3.6% | 137.8hPa | 2.5V | 00:00:00 | 02:07:40 | 00:00:00 | |
| 3Z3Z-3 | 2026-08-31 18:23:28 | 52.68503 | 15.34171 | 44° | 73km/h | 14437m | -3.9m/s | -49.4°C | 1.4% | 137.9hPa | 2.5V | 00:00:00 | 00:00:00 | 00:00:00 | |
| DB0NH | 2026-08-31 18:23:27 | 52.68480 | 15.34130 | 54° | 71km/h | 14444m | -2.7m/s | -49.4°C | 3.7% | 137.7hPa | 2.5V | 00:00:00 | 02:07:38 | 00:00:00 | |
| SP3BTT-10 | 2026-08-31 18:23:26 | 52.68471 | 15.34107 | 60° | 73km/h | 14447m | -3.0m/s | -49.4°C | 3.7% | 137.6hPa | 2.5V | 00:00:00 | 00:00:00 | 00:00:00 | |
| D01LWL | 2026-08-31 18:23:25 | 52.68463 | 15.34082 | 62° | 71km/h | 14450m | -3.1m/s | 0°C | -1.0% | -1.0hPa | 2.5V | 00:00:00 | 00:00:00 | 00:00:00 | |
| KRY50SP-1 | 2026-08-31 18:23:23 | 52.68455 | 15.34054 | 66° | 75km/h | 14453m | -2.9m/s | -49.5°C | 1.4% | 137.6hPa | 2.5V | 00:00:00 | 00:00:00 | 00:00:00 | |
| 13BRC | 2026-08-31 18:23:22 | 52.68447 | 15.34025 | 67° | 80km/h | 14456m | -3.0m/s | -49.5°C | 1.4% | 137.5hPa | 2.5V | 00:00:00 | 00:00:00 | 00:00:00 | |
| DM0DOS-11 | 2026-08-31 18:23:21 | 52.68367 | 15.33779 | 53° | 104km/h | 14481m | -3.7m/s | -49.5°C | 3.6% | 137hPa | 2.5V | 08:30:00 | 02:07:27 | 00:00:00 | |
| AA1-15 | 2026-08-31 18:23:20 | 52.68420 | 15.33923 | 65° | 95km/h | 14466m | -3.6m/s | -49.5°C | 0.6% | 137.3hPa | 2.6V | 18:12:15 | 02:07:31 | 00:00:00 | |
| SONDE2-12 | 2026-08-31 18:23:14 | 52.68318 | 15.33689 | 43° | 89km/h | 14491m | -3.3m/s | -49.5°C | 1.5% | 136.7hPa | 2.5V | 00:00:00 | 00:00:00 | 00:00:00 | |
| KRY50SP-1 | 2026-08-31 18:23:13 | 52.68335 | 15.33716 | 46° | 97km/h | 14488m | -3.3m/s | -49.6°C | 1.4% | 136.8hPa | 2.5V | 00:00:00 | 00:00:00 | 00:00:00 | |
| DM0DOS-11 | 2026-08-31 18:23:11 | 52.68236 | 15.33536 | 63° | 68km/h | 14515m | -3.3m/s | -49.5°C | 3.5% | 136.3hPa | 2.5V | 08:30:00 | 02:07:17 | 00:00:00 | |
| AM1SDL-15 | 2026-08-31 18:23:09 | 52.68262 | 15.33603 | 48° | 71km/h | 14504m | -3.3m/s | -49.5°C | 3.6% | 136.4hPa | 2.6V | 00:00:00 | 02:07:20 | 00:00:00 | |
| AA1-15 | 2026-08-31 18:23:09 | 52.68262 | 15.33603 | 48° | 66km/h | 14504m | -3.4m/s | -49.5°C | 0.6% | 136.5hPa | 2.6V | 18:12:15 | 02:07:20 | 00:00:00 | |
| KRY50SP-1 | 2026-08-31 18:23:08 | 52.68262 | 15.33603 | 49° | 66km/h | 14504m | -3.4m/s | -49.5°C | 1.4% | 136.5hPa | 2.6V | 00:00:00 | 00:00:00 | 00:00:00 | |
| SP3WXH-11 | 2026-08-31 18:23:03 | 52.68204 | 15.33411 | 65° | 95km/h | 14528m | -2.9m/s | -49.4°C | 1.3% | 136.0hPa | 2.6V | 00:00:00 | 00:00:00 | 00:00:00 | |
| EDDB2-11 | 2026-08-31 18:23:02 | 52.68204 | 15.33411 | 65° | 95km/h | 14528m | -2.9m/s | -49.4°C | 1.3% | 136.0hPa | 2.6V | 00:00:00 | 00:00:00 | 00:00:00 | |
| DM0DOS-11 | 2026-08-31 18:23:01 | 52.68121 | 15.33223 | 45° | 82km/h | 14546m | -3.9m/s | -49.2°C | 3.5% | 135.6hPa | 2.6V | 08:30:00 | 02:07:07 | 00:00:00 | |
| AA1-15 | 2026-08-31 18:22:58 | 52.68151 | 15.33276 | 51° | 93km/h | 14539m | -3.3m/s | -49.2°C | 0.5% | 135.7hPa | 2.5V | 18:12:15 | 02:07:09 | 00:00:00 | |
| S3001 | 2026-08-31 18:22:52 | 52.68063 | 15.33117 | 55° | 60km/h | 14565m | -4.1m/s | -49.2°C | 1.2% | 135.2hPa | 2.5V | 00:00:00 | 00:00:00 | 00:00:00 | |
| DM0DOS-11 | 2026-08-31 18:22:51 | 52.68032 | 15.32991 | 71° | 75km/h | 14584m | -3.2m/s | -49.3°C | 3.5% | 134.8hPa | 2.5V | 08:30:00 | 02:06:57 | 00:00:00 | |
| AA1-15 | 2026-08-31 18:22:48 | 52.68043 | 15.33048 | 69° | 66km/h | 14577m | -3.8m/s | -49.3°C | 0.4% | 134.9hPa | 2.5V | 18:12:15 | 02:06:59 | 00:00:00 | |
| SONCRA | 2026-08-31 18:22:46 | 52.68032 | 15.32991 | 71° | 75km/h | 14584m | -3.2m/s | -49.3°C | 1.3% | 134.9hPa | 2.5V | 00:00:00 | 00:00:00 | 00:00:00 | |
| SONDE2-12 | 2026-08-31 18:22:43 | 52.68008 | 15.32895 | 63° | 88km/h | 14594m | -2.8m/s | -49.4°C | 1.4% | 134.6hPa | 2.5V | 00:00:00 | 00:00:00 | 00:00:00 | |
| DM0DOS-11 | 2026-08-31 18:22:41 | 52.67916 | 15.32709 | 44° | 64km/h | 14617m | -3m/s | -49.3°C | 3.5% | 134.2hPa | 2.5V | 08:30:00 | 02:06:47 | 00:00:00 | |
| AA1-15 | 2026-08-31 18:22:37 | 52.67929 | 15.32729 | 44° | 71km/h | 14614m | -2.8m/s | -49.4°C | 0.5% | 134.3hPa | 2.6V | 18:12:15 | 02:06:48 | 00:00:00 | |
| KRY50SP-1 | 2026-08-31 18:22:36 | 52.67916 | 15.32709 | 46° | 64km/h | 14617m | -3.0m/s | -49.3°C | 1.3% | 134.2hPa | 2.6V | 00:00:00 | 00:00:00 | 00:00:00 | |
| SP6BVK | 2026-08-31 18:22:35 | 52.67916 | 15.32709 | 46° | 64km/h | 14617m | -3.0m/s | -49.3°C | 1.3% | 134.2hPa | 2.6V | 00:00:00 | 00:00:00 | 00:00:00 | |
| SP3WXH-11 | 2026-08-31 18:22:32 | 52.67879 | 15.32617 | 70° | 57km/h | 14633m | -3.3m/s | -49.2°C | 1.3% | 133.8hPa | 2.6V | 00:00:00 | 00:00:00 | 00:00:00 | |
| DM0DOS-11 | 2026-08-31 18:22:31 | 52.67849 | 15.32470 | 65° | 88km/h | 14649m | -3.2m/s | -49.1°C | 3.5% | 133.5hPa | 2.6V | 08:30:00 | 02:06:37 | 00:00:00 | |
| AA1-15 | 2026-08-31 18:22:26 | 52.67849 | 15.32470 | 66° | 88km/h | 14649m | -3.2m/s | -49.1°C | 0.5% | 133.5hPa | 2.6V | 18:12:15 | 02:06:37 | 00:00:00 | |
| OE3JTB-15 | 2026-08-31 18:22:26 | 52.67849 | 15.32470 | 66° | 69km/h | 14649m | -3.1m/s | -49.1°C | 3.5% | 133.4hPa | 2.5V | 00:00:00 | 00:00:00 | 00:00:00 | |
| KRY50SP-1 | 2026-08-31 18:22:24 | 52.67839 | 15.32437 | 61° | 88km/h | 14652m | -3.1m/s | -49.1°C | 1.3% | 133.4hPa | 2.5V | 00:00:00 | 00:00:00 | 00:00:00 | |
| 3Z3Z-3 | 2026-08-31 18:22:23 | 52.67828 | 15.32406 | 57° | 86km/h | 14655m | -3.2m/s | -49.1°C | 1.3% | 133.3hPa | 2.5V | 00:00:00 | 00:00:00 | 00:00:00 | |
| DM0DOS-11 | 2026-08-31 18:22:21 | 52.67738 | 15.32245 | 56° | 49km/h | 14681m | -4.1m/s | -49.1°C | 3.4% | 132.8hPa | 2.5V | 08:30:00 | 02:06:27 | 00:00:00 | |
| AA1-15 | 2026-08-31 18:22:15 | 52.67732 | 15.32227 | 66° | 49km/h | 14685m | -3.5m/s | -49.1°C | 0.4% | 132.7hPa | 2.5V | 18:12:15 | 02:06:26 | 00:00:00 | |
| SONDE2-12 | 2026-08-31 18:22:12 | 52.67720 | 15.32160 | 73° | 64km/h | 14694m | -2.7m/s | -49.1°C | 1.3% | 132.5hPa | 2.6V | 00:00:00 | 00:00:00 | 00:00:00 | |
| DM0DOS-11 | 2026-08-31 18:22:11 | 52.67668 | 15.31974 | 52° | 88km/h | 14711m | -3.5m/s | -49.2°C | 3.4% | 132.1hPa | 2.6V | 08:30:00 | 02:06:17 | 00:00:00 | |
| DB0DAN | 2026-08-31 18:22:10 | 52.67708 | 15.32101 | 70° | 78km/h | 14699m | -2.8m/s | -49.2°C | 1.3% | 132.42hPa | 2.5V | 00:00:00 | 00:00:00 | 00:00:00 | |
| AA1-15 | 2026-08-31 18:22:04 | 52.67639 | 15.31921 | 45° | 82km/h | 14718m | -3m/s | -49.2°C | 0.4% | 132hPa | 2.5V | 18:12:15 | 02:06:15 | 00:00:00 | |
| DM0DOS-11 | 2026-08-31 18:22:01 | 52.67568 | 15.31761 | 71° | 64km/h | 14741m | -3.3m/s | -49.3°C | 3.4% | 131.5hPa | 2.6V | 08:30:00 | 02:06:07 | 00:00:00 | |
| AA1-15 | 2026-08-31 18:21:54 | 52.67557 | 15.31705 | 71° | 77km/h | 14747m | -3.2m/s | -49.4°C | 0.4% | 131.3hPa | 2.6V | 18:12:15 | 02:06:05 | 00:00:00 | |
| DM0DOS-11 | 2026-08-31 18:21:51 | 52.67464 | 15.31470 | 44° | 75km/h | 14772m | -3.2m/s | -49.3°C | 3.5% | 130.8hPa | 2.5V | 08:30:00 | 02:05:57 | 00:00:00 | |
| S3001 | 2026-08-31 18:21:50 | 52.67507 | 15.31547 | 52° | 89km/h | 14763m | -3.3m/s | -49.3°C | 1.3% | 131.0hPa | 2.6V | 00:00:00 | 00:00:00 | 00:00:00 | |
| AA1-15 | 2026-08-31 18:21:43 | 52.67431 | 15.31412 | 54° | 57km/h | 14781m | -3.2m/s | -49.3°C | 0.4% | 130.6hPa | 2.6V | 18:12:15 | 02:05:54 | 00:00:00 | |
| DM0DOS-11 | 2026-08-31 18:21:41 | 52.67391 | 15.31233 | 70° | 84km/h | 14803m | -3.4m/s | -49.5°C | 3.4% | 130.1hPa | 2.5V | 08:30:00 | 02:05:47 | 00:00:00 | |
| DB0DAN | 2026-08-31 18:21:40 | 52.67412 | 15.31349 | 72° | 58km/h | 14790m | -3.1m/s | -49.4°C | 1.2% | 130.41hPa | 2.5V | 00:00:00 | 00:00:00 | 00:00:00 | |
| AA1-15 | 2026-08-31 18:21:33 | 52.67362 | 15.31133 | 57° | 91km/h | 14813m | -3.2m/s | -49.6°C | 0.4% | 129.9hPa | 2.5V | 18:12:15 | 02:05:44 | 00:00:00 | |
| AA1-15 | 2026-08-31 18:21:22 | 52.67255 | 15.30865 | 76° | 75km/h | 14850m | -3.8m/s | -49.8°C | 0.4% | 129.2hPa | 2.5V | 18:12:15 | 02:05:33 | 00:00:00 | |
| DM0DOS-11 | 2026-08-31 18:21:20 | 52.67205 | 15.30671 | 55° | 88km/h | 14870m | -3.1m/s | -50°C | 3.6% | 128.8hPa | 2.5V | 08:30:00 | 02:05:27 | 00:00:00 | |
| DL1XH-west | 2026-08-31 18:21:13 | 52.67165 | 15.30594 | 45° | 73km/h | 14880m | -3.6m/s | -50.1°C | 0.5% | 128.6hPa | 2.6V | 18:12:15 | 02:05:24 | 00:00:00 | |
| AA1-15 | 2026-08-31 18:21:11 | 52.67140 | 15.30553 | 44° | 62km/h | 14887m | -3.9m/s | -50.1°C | 0.5% | 128.4hPa | 2.5V | 18:12:15 | 02:05:22 | 00:00:00 | |
| SP3BTT-10 | 2026-08-31 18:21:11 | 52.67140 | 15.30553 | 44° | 62km/h | 14887m | -3.8m/s | -50.0°C | 3.5% | 128.4hPa | 2.6V | 00:00:00 | 00:00:00 | 00:00:00 | |
| DM0DOS-11 | 2026-08-31 18:21:10 | 52.67102 | 15.30460 | 71° | 58km/h | 14905m | -3.6m/s | -50.2°C | 3.8% | 128.1hPa | 2.6V | 08:30:00 | 02:05:17 | 00:00:00 | |
| DL1XH-west | 2026-08-31 18:21:02 | 52.67077 | 15.30349 | 63° | 82km/h | 14918m | -2.9m/s | -50.2°C | 0.7% | 127.9hPa | 2.6V | 18:12:15 | 02:05:13 | 00:00:00 | |
| DM0DOS-11 | 2026-08-31 18:21:00 | 52.67000 | 15.30192 | 42° | 73km/h | 14938m | -4m/s | -49.6°C | 3.5% | 127.4hPa | 2.6V | 08:30:00 | 02:05:07 | 00:00:00 | |
| AA1-15 | 2026-08-31 18:21:00 | 52.67055 | 15.30288 | 54° | 86km/h | 14925m | -3.5m/s | -50°C | 0.6% | 127.7hPa | 2.5V | 18:12:15 | 02:05:11 | 00:00:00 | |
| EDDB2-12 | 2026-08-31 18:20:59 | 52.67041 | 15.30261 | 48° | 82km/h | 14928m | -3.2m/s | -49.9°C | 1.3% | 127.7hPa | 2.5V | 00:00:00 | 00:00:00 | 00:00:00 | |
| EDDB2-11 | 2026-08-31 18:20:58 | 52.67013 | 15.30213 | 44° | 75km/h | 14934m | -4.0m/s | -49.7°C | 1.3% | 127.5hPa | 2.5V | 00:00:00 | 00:00:00 | 00:00:00 | |
| 13BRC | 2026-08-31 18:20:57 | 52.67027 | 15.30236 | 47° | 80km/h | 14931m | -3.3m/s | -49.8°C | 1.3% | 127.6hPa | 2.5V | 00:00:00 | 00:00:00 | 00:00:00 | |
| KRY50SP-1 | 2026-08-31 18:20:55 | 52.67000 | 15.30192 | 43° | 73km/h | 14938m | -4.1m/s | -49.6°C | 1.3% | 127.4hPa | 2.5V | 00:00:00 | 00:00:00 | 00:00:00 | |
| 3Z3Z-3 | 2026-08-31 18:20:53 | 52.66965 | 15.30138 | 46° | 53km/h | 14949m | -2.9m/s | -49.3°C | 1.2% | 127.2hPa | 2.5V | 00:00:00 | 00:00:00 | 00:00:00 | |
| SP6BVK | 2026-08-31 18:20:51 | 52.66956 | 15.30123 | 52° | 51km/h | 14952m | -3.4m/s | -49.1°C | 1.2% | 127.2hPa | 2.5V | 00:00:00 | 00:00:00 | 00:00:00 | |
| DM0DOS-11 | 2026-08-31 18:20:50 | 52.66915 | 15.29981 | 63° | 82km/h | 14969m | -3.3m/s | -48.8°C | 3.4% | 126.8hPa | 2.5V | 08:30:00 | 02:04:57 | 00:00:00 | |
| AA1-15 | 2026-08-31 18:20:49 | 52.66937 | 15.30063 | 68° | 62km/h | 14960m | -3m/s | -48.8°C | 0.4% | 127hPa | 2.6V | 18:12:15 | 02:05:00 | 00:00:00 | |
| DL1XH1-15 | 2026-08-31 18:20:49 | 52.66893 | 15.29922 | 52° | 84km/h | 14975m | -3.2m/s | -48.8°C | 3.4% | 126.8hPa | 2.5V | 08:30:00 | 02:04:55 | 00:00:00 | |
| DL1XH-west | 2026-08-31 18:20:46 | 52.66915 | 15.29981 | 63° | 82km/h | 14969m | -3.3m/s | -48.8°C | 0.4% | 126.8hPa | 2.5V | 18:12:15 | 02:04:57 | 00:00:00 | |
| AM1SDL-15 | 2026-08-31 18:20:45 | 52.66905 | 15.29951 | 58° | 78km/h | 14972m | -3.3m/s | -48.8°C | 3.4% | 126.7hPa | 2.6V | 00:00:00 | 02:04:56 | 00:00:00 | |
| SONCRA | 2026-08-31 18:20:42 | 52.66851 | 15.29846 | 44° | 77km/h | 14985m | -4.5m/s | -48.7°C | 1.2% | 126.5hPa | 2.6V | 00:00:00 | 00:00:00 | 00:00:00 | |
| DM0DOS-11 | 2026-08-31 18:20:40 | 52.66790 | 15.29758 | 50° | 51km/h | 15005m | -3.9m/s | -48.6°C | 3.3% | 126.2hPa | 2.6V | 08:30:00 | 02:04:47 | 00:00:00 | |
| SONDE2-12 | 2026-08-31 18:20:39 | 52.66823 | 15.29806 | 38° | 66km/h | 14994m | -4.4m/s | -48.6°C | 1.3% | 126.4hPa | 2.5V | 00:00:00 | 00:00:00 | 00:00:00 | |
| AA1-15 | 2026-08-31 18:20:38 | 52.66811 | 15.29789 | 39° | 60km/h | 14998m | -4.1m/s | -48.6°C | 0.4% | 126.3hPa | 2.5V | 18:12:15 | 02:04:49 | 00:00:00 | |
| DL1XH-west | 2026-08-31 18:20:36 | 52.66790 | 15.29758 | 50° | 51km/h | 15005m | -3.9m/s | -48.7°C | 0.3% | 126.2hPa | 2.6V | 18:12:15 | 02:04:47 | 00:00:00 | |
| SONDE2-11 | 2026-08-31 18:20:34 | 52.66776 | 15.29722 | 64° | 51km/h | 15012m | -3.6m/s | -48.6°C | 1.2% | 126.1hPa | 2.5V | 00:00:00 | 00:00:00 | 00:00:00 | |
| KRY50SP-1 | 2026-08-31 18:20:33 | 52.66776 | 15.29722 | 66° | 53km/h | 15012m | -3.6m/s | -48.6°C | 1.2% | 126.1hPa | 2.5V | 00:00:00 | 00:00:00 | 00:00:00 | |
| SP6BVK | 2026-08-31 18:20:32 | 52.66765 | 15.29677 | 72° | 64km/h | 15019m | -3.3m/s | -48.6°C | 1.2% | 125.9hPa | 2.5V | 00:00:00 | 00:00:00 | 00:00:00 | |
| 3Z3Z-3 | 2026-08-31 18:20:31 | 52.66765 | 15.29677 | 72° | 64km/h | 15019m | -3.3m/s | -48.6°C | 1.2% | 125.9hPa | 2.5V | 00:00:00 | 00:00:00 | 00:00:00 | |
| DM0DOS-11 | 2026-08-31 18:20:30 | 52.66707 | 15.29510 | 47° | 84km/h | 15037m | -3.6m/s | -48.7°C | 3.3% | 125.5hPa | 2.5V | 08:30:00 | 02:04:37 | 00:00:00 | |
| AA1-15 | 2026-08-31 18:20:28 | 52.66733 | 15.29565 | 57° | 84km/h | 15031m | -3.4m/s | -48.7°C | 0.3% | 125.7hPa | 2.5V | 18:12:15 | 02:04:39 | 00:00:00 | |
| EDDB2-12 | 2026-08-31 18:20:28 | 52.66733 | 15.29565 | 57° | 82km/h | 15031m | -3.4m/s | -48.7°C | 1.2% | 125.7hPa | 2.6V | 00:00:00 | 00:00:00 | 00:00:00 | |
| KRY50SP-1 | 2026-08-31 18:20:27 | 52.66733 | 15.29565 | 58° | 84km/h | 15031m | -3.4m/s | -48.6°C | 1.2% | 125.7hPa | 2.6V | 00:00:00 | 00:00:00 | 00:00:00 | |
| DB0DAN | 2026-08-31 18:20:25 | 52.66693 | 15.29485 | 44° | 77km/h | 15041m | -3.9m/s | -48.7°C | 1.2% | 125.46hPa | 2.6V | 00:00:00 | 00:00:00 | 00:00:00 | |
| DL1XH-west | 2026-08-31 18:20:24 | 52.66678 | 15.29463 | 42° | 75km/h | 15044m | -4.1m/s | -48.7°C | 0.3% | 125.4hPa | 2.6V | 18:12:15 | 02:04:35 | 00:00:00 | |
| KRY50SP-1 | 2026-08-31 18:20:21 | 52.66651 | 15.29425 | 40° | 62km/h | 15053m | -4.0m/s | -48.7°C | 1.2% | 125.3hPa | 2.5V | 00:00:00 | 00:00:00 | 00:00:00 | |
| DM0DOS-11 | 2026-08-31 18:20:20 | 52.66605 | 15.29315 | 69° | 64km/h | 15071m | -3.9m/s | -48.8°C | 3.3% | 124.9hPa | 2.5V | 08:30:00 | 02:04:27 | 00:00:00 | |
| AA1-15 | 2026-08-31 18:20:17 | 52.66611 | 15.29338 | 70° | 57km/h | 15068m | -3.4m/s | -48.8°C | 0.3% | 124.9hPa | 2.5V | 18:12:15 | 02:04:28 | 00:00:00 | |
| DL1XH-west | 2026-08-31 18:20:13 | 52.66586 | 15.29230 | 66° | 82km/h | 15082m | -3.8m/s | -48.9°C | 0.3% | 124.7hPa | 2.6V | 18:12:15 | 02:04:24 | 00:00:00 | |
| SONCRA | 2026-08-31 18:20:11 | 52.66553 | 15.29141 | 51° | 82km/h | 15093m | -3.6m/s | -49.0°C | 1.2% | 124.5hPa | 2.6V | 00:00:00 | 00:00:00 | 00:00:00 | |
| DM0DOS-11 | 2026-08-31 18:20:10 | 52.66501 | 15.29051 | 43° | 64km/h | 15107m | -3.5m/s | -49.1°C | 3.5% | 124.3hPa | 2.6V | 08:30:00 | 02:04:17 | 00:00:00 | |
| SONDE2-12 | 2026-08-31 18:20:08 | 52.66526 | 15.29091 | 44° | 77km/h | 15101m | -3.8m/s | -49.1°C | 1.3% | 124.4hPa | 2.5V | 00:00:00 | 00:00:00 | 00:00:00 | |
| AA1-15 | 2026-08-31 18:20:07 | 52.66513 | 15.29070 | 42° | 68km/h | 15104m | -3.2m/s | -49.1°C | 0.4% | 124.4hPa | 2.5V | 18:12:15 | 02:04:18 | 00:00:00 | |
| DAC517 | 2026-08-31 18:20:04 | 52.66490 | 15.29034 | 44° | 55km/h | 15111m | -2.9m/s | -49.1°C | 1.2% | 124.3hPa | 2.5V | 00:00:00 | 00:00:00 | 00:00:00 | |
| SONDE2-11 | 2026-08-31 18:20:03 | 52.66473 | 15.29001 | 55° | 49km/h | 15118m | -3.3m/s | -49.2°C | 1.2% | 124.1hPa | 2.5V | 00:00:00 | 00:00:00 | 00:00:00 | |
| KRY50SP-1 | 2026-08-31 18:20:02 | 52.66467 | 15.28984 | 64° | 47km/h | 15121m | -3.1m/s | -49.2°C | 1.2% | 124.0hPa | 2.5V | 00:00:00 | 00:00:00 | 00:00:00 | |
| DM0DOS-11 | 2026-08-31 18:20:00 | 52.66436 | 15.28832 | 67° | 80km/h | 15141m | -3.5m/s | -49.2°C | 3.4% | 123.6hPa | 2.5V | 08:30:00 | 02:04:07 | 00:00:00 | |
| DL1XH-west | 2026-08-31 18:20:00 | 52.66457 | 15.28944 | 74° | 58km/h | 15127m | -3.7m/s | -49.2°C | 0.4% | 123.9hPa | 2.6V | 18:12:15 | 02:04:11 | 00:00:00 | |
| AA1-15 | 2026-08-31 18:19:56 | 52.66436 | 15.28832 | 67° | 80km/h | 15141m | -3.5m/s | -49.2°C | 0.4% | 123.6hPa | 2.5V | 18:12:15 | 02:04:07 | 00:00:00 | |
| EDDB2-11 | 2026-08-31 18:19:56 | 52.66428 | 15.28801 | 63° | 82km/h | 15145m | -3.3m/s | -49.2°C | 1.3% | 123.6hPa | 2.5V | 00:00:00 | 00:00:00 | 00:00:00 | |
| DB0DAN | 2026-08-31 18:19:55 | 52.66428 | 15.28801 | 63° | 80km/h | 15145m | -3.3m/s | -49.2°C | 1.3% | 123.56hPa | 2.5V | 00:00:00 | 00:00:00 | 00:00:00 | |
| DM0DOS-11 | 2026-08-31 18:19:50 | 52.66339 | 15.28599 | 65° | 47km/h | 15174m | -2.9m/s | -49.2°C | 3.4% | 123.1hPa | 2.5V | 08:30:00 | 02:03:57 | 00:00:00 | |
| AA1-15 | 2026-08-31 18:19:45 | 52.66334 | 15.28580 | 71° | 51km/h | 15176m | -3.4m/s | -49.3°C | 0.4% | 123hPa | 2.5V | 18:12:15 | 02:03:56 | 00:00:00 | |
| DAC517 | 2026-08-31 18:19:44 | 52.66330 | 15.28558 | 78° | 58km/h | 15180m | -3.6m/s | -49.3°C | 1.2% | 122.9hPa | 2.6V | 00:00:00 | 00:00:00 | 00:00:00 | |
| AM1SDL-15 | 2026-08-31 18:19:42 | 52.66323 | 15.28507 | 77° | 73km/h | 15186m | -3.5m/s | -49.2°C | 3.4% | 122.7hPa | 2.6V | 00:00:00 | 02:03:53 | 00:00:00 | |
| SP3BTT-10 | 2026-08-31 18:19:41 | 52.66318 | 15.28477 | 77° | 77km/h | 15189m | -3.4m/s | -49.2°C | 3.4% | 122.6hPa | 2.6V | 00:00:00 | 00:00:00 | 00:00:00 | |
| DM0DOS-11 | 2026-08-31 18:19:40 | 52.66273 | 15.28323 | 54° | 80km/h | 15205m | -3.7m/s | -49.3°C | 3.4% | 122.4hPa | 2.6V | 08:30:00 | 02:03:47 | 00:00:00 | |
| DB0DAN | 2026-08-31 18:19:40 | 52.66312 | 15.28446 | 70° | 77km/h | 15192m | -3.4m/s | -49.2°C | 1.2% | 122.64hPa | 2.6V | 00:00:00 | 00:00:00 | 00:00:00 | |
| DL1XH-west | 2026-08-31 18:19:39 | 52.66305 | 15.28414 | 69° | 84km/h | 15195m | -3.7m/s | -49.2°C | 0.4% | 0hPa | 2.5V | 18:12:15 | 02:03:50 | 00:00:00 | |
| SONDE2-12 | 2026-08-31 18:19:37 | 52.66285 | 15.28351 | 56° | 82km/h | 15202m | -3.3m/s | -49.3°C | 1.3% | 122.4hPa | 2.5V | 00:00:00 | 00:00:00 | 00:00:00 | |
| AA1-15 | 2026-08-31 18:19:34 | 52.66250 | 15.28273 | 49° | 68km/h | 15213m | -3.6m/s | -49.3°C | 0.5% | 122.2hPa | 2.5V | 18:12:15 | 02:03:45 | 00:00:00 | |
| SONDE2-11 | 2026-08-31 18:19:32 | 52.66231 | 15.28232 | 52° | 57km/h | 15220m | -3.8m/s | -49.3°C | 1.3% | 122.2hPa | 2.6V | 00:00:00 | 00:00:00 | 00:00:00 | |
| AM1SDL-15 | 2026-08-31 18:19:30 | 52.66218 | 15.28195 | 67° | 71km/h | 15227m | -3.3m/s | -49.3°C | 3.5% | 121.9hPa | 2.6V | 00:00:00 | 02:03:41 | 00:00:00 | |
| KRY50SP-1 | 2026-08-31 18:19:29 | 52.66213 | 15.28175 | 74° | 53km/h | 15230m | -3.7m/s | -49.4°C | 1.2% | 122.0hPa | 2.6V | 00:00:00 | 00:00:00 | 00:00:00 | |
| DM0DOS-11 | 2026-08-31 18:19:28 | 52.66193 | 15.28008 | 75° | 84km/h | 15250m | -3.6m/s | -49.6°C | 3.4% | 121.6hPa | 2.6V | 08:30:00 | 02:03:34 | 00:00:00 | |
| DL1XH-west | 2026-08-31 18:19:28 | 52.66210 | 15.28152 | 79° | 58km/h | 15234m | -3.4m/s | -49.4°C | 0.4% | 0hPa | 2.6V | 18:12:15 | 02:03:39 | 00:00:00 | |
| AA1-15 | 2026-08-31 18:19:23 | 52.66194 | 15.28007 | 76° | 84km/h | 15250m | -3.6m/s | -49.6°C | 0.4% | 121.6hPa | 2.6V | 18:12:15 | 02:03:34 | 00:00:00 | |
| DAC517 | 2026-08-31 18:19:22 | 52.66193 | 15.28008 | 77° | 84km/h | 15250m | -3.6m/s | -49.6°C | 1.2% | 121.6hPa | 2.5V | 00:00:00 | 00:00:00 | 00:00:00 | |
| DM0DOS-11 | 2026-08-31 18:19:18 | 52.66109 | 15.27742 | 69° | 51km/h | 15282m | -3.6m/s | -49.8°C | 3.5% | 120.9hPa | 2.5V | 08:30:00 | 02:03:24 | 00:00:00 | |
| DL1XH-west | 2026-08-31 18:19:18 | 52.66149 | 15.27848 | 56° | 75km/h | 15268m | -3.3m/s | -49.7°C | 0.6% | 0hPa | 2.5V | 18:12:15 | 02:03:29 | 00:00:00 | |
| AA1-15 | 2026-08-31 18:19:12 | 52.66105 | 15.27722 | 76° | 53km/h | 15286m | -3.8m/s | -49.8°C | 0.5% | 120.9hPa | 2.5V | 18:12:15 | 02:03:23 | 00:00:00 | |
| DB0DAN | 2026-08-31 18:19:10 | 52.66101 | 15.27674 | 84° | 60km/h | 15293m | -3.8m/s | -49.8°C | 1.3% | 120.78hPa | 2.6V | 00:00:00 | 00:00:00 | 00:00:00 | |
| DL1XH1-15 | 2026-08-31 18:19:09 | 52.66076 | 15.27476 | 67° | 91km/h | 15313m | -3.5m/s | -49.8°C | 3.5% | 120.4hPa | 2.6V | 08:30:00 | 02:03:15 | 00:00:00 | |
| SONCRA | 2026-08-31 18:19:09 | 52.66096 | 15.27615 | 83° | 78km/h | 15300m | -3.6m/s | -49.8°C | 1.3% | 120.7hPa | 2.5V | 00:00:00 | 00:00:00 | 00:00:00 | |
| DM0DOS-11 | 2026-08-31 18:19:08 | 52.66067 | 15.27443 | 63° | 86km/h | 15317m | -3.6m/s | -49.9°C | 3.6% | 120.3hPa | 2.5V | 08:30:00 | 02:03:14 | 00:00:00 | |
| DL1XH-west | 2026-08-31 18:19:07 | 52.66094 | 15.27581 | 82° | 86km/h | 15303m | -3.7m/s | 0°C | 0% | 0hPa | 2.5V | 18:12:15 | 02:03:18 | 00:00:00 | |
| SONDE2-12 | 2026-08-31 18:19:06 | 52.66090 | 15.27546 | 77° | 86km/h | 15307m | -3.5m/s | -49.8°C | 1.3% | 120.5hPa | 2.5V | 00:00:00 | 00:00:00 | 00:00:00 | |
| AA1-15 | 2026-08-31 18:19:01 | 52.66046 | 15.27384 | 59° | 77km/h | 15324m | -3.9m/s | -49.9°C | 0.5% | 120.2hPa | 2.5V | 18:12:15 | 02:03:12 | 00:00:00 | |
| DL1XH-west | 2026-08-31 18:18:57 | 52.66016 | 15.27294 | 70° | 51km/h | 15338m | -2.3m/s | 0°C | 0% | 0hPa | 2.6V | 18:12:15 | 02:03:08 | 00:00:00 | |
| EDDB2-12 | 2026-08-31 18:18:55 | 52.66010 | 15.27252 | 82° | 57km/h | 15343m | -3.6m/s | -50.0°C | 1.3% | 119.9hPa | 2.5V | 00:00:00 | 00:00:00 | 00:00:00 | |
| EDDB2-11 | 2026-08-31 18:18:54 | 52.66007 | 15.27199 | 87° | 71km/h | 15349m | -3.7m/s | -50.0°C | 1.3% | 119.7hPa | 2.5V | 00:00:00 | 00:00:00 | 00:00:00 | |
| 13BRC | 2026-08-31 18:18:53 | 52.66008 | 15.27227 | 87° | 64km/h | 15346m | -3.6m/s | -50.0°C | 1.3% | 119.8hPa | 2.5V | 00:00:00 | 00:00:00 | 00:00:00 | |
| DL1XH1-15 | 2026-08-31 18:18:51 | 52.65981 | 15.26996 | 65° | 86km/h | 15368m | -3.6m/s | -50.2°C | 3.6% | 119.4hPa | 2.5V | 08:30:00 | 02:02:58 | 00:00:00 | |
| DM0DOS-11 | 2026-08-31 18:18:51 | 52.65972 | 15.26965 | 59° | 80km/h | 15372m | -3m/s | -50.2°C | 3.6% | 119.3hPa | 2.6V | 08:30:00 | 02:02:57 | 00:00:00 | |
| AA1-15 | 2026-08-31 18:18:50 | 52.66002 | 15.27100 | 80° | 86km/h | 15359m | -3.6m/s | -50.1°C | 0.5% | 119.5hPa | 2.6V | 18:12:15 | 02:03:01 | 00:00:00 | |
| DL1XH-west | 2026-08-31 18:18:46 | 52.65972 | 15.26965 | 60° | 80km/h | 15372m | -3m/s | 0°C | 0% | 0hPa | 2.6V | 18:12:15 | 02:02:57 | 00:00:00 | |
| S3001 | 2026-08-31 18:18:43 | 52.65944 | 15.26886 | 60° | 60km/h | 15382m | -2.9m/s | -50.3°C | 1.3% | 119.1hPa | 2.5V | 00:00:00 | 00:00:00 | 00:00:00 | |
| AM1SDL-15 | 2026-08-31 18:18:42 | 52.65937 | 15.26864 | 63° | 73km/h | 15385m | -3.5m/s | -50.2°C | 3.6% | 119.1hPa | 2.5V | 00:00:00 | 02:02:53 | 00:00:00 | |
| DM0DOS-11 | 2026-08-31 18:18:40 | 52.65921 | 15.26713 | 86° | 78km/h | 15402m | -3.5m/s | -50.4°C | 3.6% | 118.7hPa | 2.5V | 08:30:00 | 02:02:47 | 00:00:00 | |
| AA1-15 | 2026-08-31 18:18:39 | 52.65924 | 15.26796 | 83° | 58km/h | 15394m | -2.7m/s | -50.4°C | 0.5% | 118.9hPa | 2.6V | 18:12:15 | 02:02:50 | 00:00:00 | |
| DL1XH-west | 2026-08-31 18:18:35 | 52.65919 | 15.26679 | 85° | 84km/h | 15405m | -3.4m/s | 0°C | 0% | 0hPa | 2.5V | 18:12:15 | 02:02:46 | 00:00:00 | |
| 13BRC | 2026-08-31 18:18:33 | 52.65916 | 15.26643 | 83° | 89km/h | 15409m | -3.5m/s | -50.5°C | 1.3% | 118.6hPa | 2.6V | 00:00:00 | 00:00:00 | 00:00:00 | |
| KRY50SP-1 | 2026-08-31 18:18:32 | 52.65912 | 15.26606 | 80° | 93km/h | 15412m | -3.4m/s | -50.5°C | 1.3% | 118.6hPa | 2.6V | 00:00:00 | 00:00:00 | 00:00:00 | |
| DM0DOS-11 | 2026-08-31 18:18:30 | 52.65858 | 15.26385 | 64° | 62km/h | 15434m | -2.9m/s | -50.7°C | 3.7% | 118.2hPa | 2.6V | 08:30:00 | 02:02:37 | 00:00:00 | |
| DL1XH1-15 | 2026-08-31 18:18:30 | 52.65852 | 15.26362 | 68° | 55km/h | 15438m | -2.6m/s | -50.7°C | 3.7% | 118.1hPa | 2.5V | 08:30:00 | 02:02:36 | 00:00:00 | |
| AA1-15 | 2026-08-31 18:18:29 | 52.65882 | 15.26465 | 64° | 84km/h | 15425m | -3.6m/s | -50.7°C | 0.7% | 118.3hPa | 2.5V | 18:12:15 | 02:02:40 | 00:00:00 | |
| DL1XH-west | 2026-08-31 18:18:25 | 52.65852 | 15.26362 | 69° | 55km/h | 15438m | -2.6m/s | 0°C | 0% | 0hPa | 2.5V | 18:12:15 | 02:02:36 | 00:00:00 | |
| EDDB2-12 | 2026-08-31 18:18:24 | 52.65847 | 15.26340 | 73° | 53km/h | 15440m | -3.3m/s | -50.8°C | 1.3% | 118.1hPa | 2.5V | 00:00:00 | 00:00:00 | 00:00:00 | |
| KRY50SP-1 | 2026-08-31 18:18:23 | 52.65844 | 15.26317 | 81° | 57km/h | 15444m | -3.5m/s | -50.8°C | 1.3% | 118.0hPa | 2.5V | 00:00:00 | 00:00:00 | 00:00:00 | |
| 3Z3Z-3 | 2026-08-31 18:18:22 | 52.65844 | 15.26317 | 81° | 57km/h | 15444m | -3.5m/s | -50.8°C | 1.3% | 118.0hPa | 2.5V | 00:00:00 | 00:00:00 | 00:00:00 | |
| DAC517 | 2026-08-31 18:18:21 | 52.65842 | 15.26293 | 87° | 62km/h | 15447m | -3.6m/s | -50.8°C | 1.3% | 117.9hPa | 2.5V | 00:00:00 | 00:00:00 | 00:00:00 | |
| DM0DOS-11 | 2026-08-31 18:18:19 | 52.65831 | 15.26094 | 77° | 95km/h | 15465m | -3.4m/s | -50.9°C | 3.7% | 117.6hPa | 2.5V | 08:30:00 | 02:02:27 | 00:00:00 | |
| AA1-15 | 2026-08-31 18:18:19 | 52.65840 | 15.26205 | 87° | 82km/h | 15456m | -3.4m/s | -50.9°C | 0.6% | 117.7hPa | 2.6V | 18:12:15 | 02:02:30 | 00:00:00 | |
| AM1SDL-15 | 2026-08-31 18:18:18 | 52.65838 | 15.26170 | 86° | 78km/h | 15460m | -3.0m/s | -50.8°C | 3.6% | 117.7hPa | 2.5V | 00:00:00 | 02:02:29 | 00:00:00 | |
| KRY50SP-1 | 2026-08-31 18:18:16 | 52.65836 | 15.26132 | 83° | 93km/h | 15463m | -3.1m/s | -50.9°C | 1.3% | 117.6hPa | 2.5V | 00:00:00 | 00:00:00 | 00:00:00 | |
| D01LWL | 2026-08-31 18:18:15 | 52.65818 | 15.26021 | 67° | 88km/h | 15472m | -3.1m/s | -51.0°C | 1.3% | 117.5hPa | 2.5V | 00:00:00 | 00:00:00 | 00:00:00 | |
| 3Z3Z-3 | 2026-08-31 18:18:13 | 52.65809 | 15.25988 | 64° | 86km/h | 15475m | -3.0m/s | -51.0°C | 1.3% | 117.5hPa | 2.5V | 00:00:00 | 00:00:00 | 00:00:00 | |
| S3001 | 2026-08-31 18:18:12 | 52.65799 | 15.25957 | 62° | 80km/h | 15478m | -4.0m/s | -51.0°C | 1.3% | 117.4hPa | 2.5V | 00:00:00 | 00:00:00 | 00:00:00 | |
| SP3BTT-10 | 2026-08-31 18:18:11 | 52.65790 | 15.25929 | 63° | 62km/h | 15483m | -3.8m/s | -51.0°C | 3.8% | 117.3hPa | 2.5V | 00:00:00 | 00:00:00 | 08:30:00 | |
| KRY50SP-1 | 2026-08-31 18:18:10 | 52.65790 | 15.25929 | 64° | 75km/h | 15483m | -3.8m/s | -51.0°C | 1.4% | 117.3hPa | 2.5V | 00:00:00 | 00:00:00 | 00:00:00 | |
| DM0DOS-11 | 2026-08-31 18:18:09 | 52.65765 | 15.25807 | 85° | 62km/h | 15498m | -2.9m/s | -51.1°C | 3.8% | 117.1hPa | 2.5V | 08:30:00 | 02:02:17 | 00:00:00 | |
| AA1-15 | 2026-08-31 18:18:08 | 52.65771 | 15.25856 | 71° | 57km/h | 15492m | -3.2m/s | -51.1°C | 0.7% | 117.2hPa | 2.6V | 18:12:15 | 02:02:19 | 00:00:00 | |
| SP6BVK | 2026-08-31 18:18:07 | 52.65771 | 15.25856 | 72° | 57km/h | 15492m | -3.2m/s | -51.1°C | 1.4% | 117.2hPa | 2.5V | 00:00:00 | 00:00:00 | 00:00:00 | |
| AM1SDL-15 | 2026-08-31 18:18:06 | 52.65765 | 15.25807 | 86° | 86km/h | 15498m | -2.8m/s | -51.1°C | 3.8% | 117.0hPa | 2.5V | 00:00:00 | 02:02:17 | 00:00:00 | |
| KRY50SP-1 | 2026-08-31 18:18:05 | 52.65764 | 15.25780 | 91° | 68km/h | 15501m | -2.7m/s | -51.2°C | 1.3% | 117.0hPa | 2.5V | 00:00:00 | 00:00:00 | 00:00:00 | |
| DAC517 | 2026-08-31 18:18:04 | 52.65762 | 15.25686 | 86° | 86km/h | 15509m | -2.9m/s | -51.3°C | 1.3% | 116.9hPa | 2.5V | 00:00:00 | 00:00:00 | 00:00:00 | |
| 3Z3Z-3 | 2026-08-31 18:18:01 | 52.65762 | 15.25686 | 86° | 86km/h | 15509m | -2.9m/s | -51.3°C | 1.3% | 116.9hPa | 2.5V | 00:00:00 | 00:00:00 | 00:00:00 | |
| DM0DOS-11 | 2026-08-31 18:17:59 | 52.65725 | 15.25459 | 63° | 93km/h | 15527m | -3.8m/s | -51.4°C | 3.8% | 116.5hPa | 2.5V | 08:30:00 | 02:02:07 | 00:00:00 | |
| AA1-15 | 2026-08-31 18:17:57 | 52.65734 | 15.25495 | 66° | 93km/h | 15523m | -3.3m/s | -51.4°C | 0.6% | 116.6hPa | 2.5V | 18:12:15 | 02:02:08 | 00:00:00 | |
| AA1-15 | 2026-08-31 18:17:46 | 52.65683 | 15.25157 | 89° | 84km/h | 15554m | -3.1m/s | -51.6°C | 0.8% | 116hPa | 2.5V | 18:12:15 | 02:01:57 | 00:00:00 | |
| AA1-15 | 2026-08-31 18:17:35 | 52.65622 | 15.24819 | 68° | 60km/h | 15582m | -3.2m/s | -51.3°C | 0.6% | 115.5hPa | 2.6V | 18:12:15 | 02:01:46 | 00:00:00 | |
| SONDE2-12 | 2026-08-31 18:17:33 | 52.65614 | 15.24773 | 76° | 57km/h | 15588m | -3.8m/s | -51.1°C | 1.4% | 115.4hPa | 2.5V | 00:00:00 | 00:00:00 | 00:00:00 | |
| KRY50SP-1 | 2026-08-31 18:17:32 | 52.65614 | 15.24773 | 77° | 57km/h | 15588m | -3.8m/s | -51.1°C | 1.3% | 115.4hPa | 2.5V | 00:00:00 | 00:00:00 | 00:00:00 | |
| 3Z3Z-3 | 2026-08-31 18:17:31 | 52.65610 | 15.24727 | 89° | 57km/h | 15594m | -3.4m/s | -51.0°C | 1.3% | 115.3hPa | 2.5V | 00:00:00 | 00:00:00 | 00:00:00 | |
| AM1SDL-15 | 2026-08-31 18:17:30 | 52.65609 | 15.24704 | 91° | 64km/h | 15597m | -3.7m/s | -50.9°C | 3.7% | 115.1hPa | 2.5V | 00:00:00 | 02:01:41 | 00:00:00 | |
| MECKS9 | 2026-08-31 18:17:29 | 52.65609 | 15.24704 | 92° | 58km/h | 15597m | -3.7m/s | -50.9°C | 1.3% | 115.2hPa | 2.5V | 00:00:00 | 00:00:00 | 00:00:00 | |
| DB0NH | 2026-08-31 18:17:28 | 52.65610 | 15.24653 | 94° | 44km/h | 15604m | -4.0m/s | -50.7°C | 3.9% | 115.0hPa | 2.5V | 00:00:00 | 02:01:39 | 00:00:00 | |
| DM0DOS-11 | 2026-08-31 18:17:26 | 52.65584 | 15.24443 | 61° | 71km/h | 15623m | -3.1m/s | -50.4°C | 3.7% | 114.8hPa | 2.5V | 08:30:00 | 02:01:32 | 00:00:00 | |
| AA1-15 | 2026-08-31 18:17:24 | 52.65605 | 15.24530 | 77° | 78km/h | 15616m | -2.7m/s | -50.5°C | 0.7% | 114.9hPa | 2.5V | 18:12:15 | 02:01:35 | 00:00:00 | |
| AA1-15 | 2026-08-31 18:17:13 | 52.65542 | 15.24283 | 93° | 46km/h | 15651m | -3.1m/s | -50.1°C | 0.5% | 114.2hPa | 2.5V | 18:12:15 | 02:01:24 | 00:00:00 | |
| AA1-15 | 2026-08-31 18:17:02 | 52.65502 | 15.24025 | 55° | 53km/h | 15685m | -4.7m/s | -49.8°C | 0.4% | 113.7hPa | 2.6V | 18:12:15 | 02:01:13 | 00:00:00 | |
| AA1-15 | 2026-08-31 18:16:51 | 52.65472 | 15.23839 | 74° | 53km/h | 15721m | -3.3m/s | -49.9°C | 0.7% | 113.1hPa | 2.6V | 18:12:15 | 02:01:02 | 00:00:00 | |
| EDDB2-12 | 2026-08-31 18:16:51 | 52.65472 | 15.23839 | 73° | 53km/h | 15721m | -3.3m/s | -49.9°C | 1.3% | 113.1hPa | 2.5V | 00:00:00 | 00:00:00 | 00:00:00 | |
| SP3WXH-11 | 2026-08-31 18:16:50 | 52.65467 | 15.23818 | 68° | 55km/h | 15724m | -3.0m/s | -49.9°C | 1.3% | 113.0hPa | 2.5V | 00:00:00 | 00:00:00 | 00:00:00 | |
| DM0DOS-11 | 2026-08-31 18:16:49 | 52.65442 | 15.23744 | 49° | 47km/h | 15738m | -3.6m/s | -49.9°C | 3.7% | 112.8hPa | 2.5V | 08:30:00 | 02:00:57 | 00:00:00 | |
| AA1-15 | 2026-08-31 18:16:41 | 52.65414 | 15.23687 | 67° | 24km/h | 15758m | -3.5m/s | -49.2°C | 0.4% | 112.5hPa | 2.5V | 18:12:15 | 02:00:52 | 00:00:00 | |
| SP3BTT-10 | 2026-08-31 18:16:41 | 52.65414 | 15.23687 | 68° | 33km/h | 15758m | -3.4m/s | -49.2°C | 3.4% | 112.4hPa | 2.6V | 00:00:00 | 00:00:00 | 00:00:00 | |
| DM0DOS-11 | 2026-08-31 18:16:39 | 52.65414 | 15.23623 | 100° | 42km/h | 15773m | -3.4m/s | -48.4°C | 3.3% | 112.2hPa | 2.6V | 08:30:00 | 02:00:47 | 00:00:00 | |
| SONDE2-12 | 2026-08-31 18:16:31 | 52.65407 | 15.23527 | 60° | 46km/h | 15791m | -2.7m/s | -48.5°C | 1.3% | 112.0hPa | 2.6V | 00:00:00 | 00:00:00 | 00:00:00 | |
| AA1-15 | 2026-08-31 18:16:30 | 52.65401 | 15.23511 | 56° | 46km/h | 15794m | -3.3m/s | -48.5°C | 0.4% | 111.9hPa | 2.6V | 18:12:15 | 02:00:41 | 00:00:00 | |
| 13BRC | 2026-08-31 18:16:30 | 52.65401 | 15.23511 | 57° | 46km/h | 15794m | -3.3m/s | -48.5°C | 1.2% | 111.9hPa | 2.5V | 00:00:00 | 00:00:00 | 00:00:00 | |
| 3Z3Z-3 | 2026-08-31 18:16:27 | 52.65382 | 15.23474 | 40° | 31km/h | 15804m | -3.8m/s | -48.5°C | 1.2% | 111.7hPa | 2.5V | 00:00:00 | 00:00:00 | 00:00:00 | |
| DM0DOS-11 | 2026-08-31 18:16:26 | 52.65367 | 15.23431 | 105° | 26km/h | 15824m | -3.4m/s | -48.4°C | 3.3% | 111.3hPa | 2.5V | 08:30:00 | 02:00:32 | 00:00:00 | |
| AA1-15 | 2026-08-31 18:16:19 | 52.65371 | 15.23406 | 104° | 38km/h | 15830m | -3.5m/s | -48.5°C | 0.3% | 111.2hPa | 2.5V | 18:12:15 | 02:00:30 | 00:00:00 | |
| EDDB2-11 | 2026-08-31 18:16:18 | 52.65373 | 15.23389 | 98° | 44km/h | 15833m | -3.7m/s | -48.5°C | 1.2% | 111.1hPa | 2.6V | 00:00:00 | 00:00:00 | 00:00:00 | |
| DAC517 | 2026-08-31 18:16:17 | 52.65372 | 15.23390 | 99° | 44km/h | 15833m | -3.7m/s | -48.5°C | 1.2% | 111.1hPa | 2.6V | 00:00:00 | 00:00:00 | 00:00:00 | |
| 3Z3Z-3 | 2026-08-31 18:16:16 | 52.65373 | 15.23371 | 94° | 49km/h | 15837m | -3.8m/s | -48.5°C | 1.1% | 111.1hPa | 2.6V | 00:00:00 | 00:00:00 | 00:00:00 | |
| KRY50SP-1 | 2026-08-31 18:16:14 | 52.65372 | 15.23330 | 76° | 47km/h | 15844m | -3.7m/s | -48.5°C | 1.2% | 111.0hPa | 2.6V | 00:00:00 | 00:00:00 | 00:00:00 | |
| MECKS9 | 2026-08-31 18:16:12 | 52.65363 | 15.23296 | 58° | 44km/h | 15851m | -3.7m/s | -48.6°C | 1.1% | 110.9hPa | 2.6V | 00:00:00 | 00:00:00 | 00:00:00 | |
| DB0DAN | 2026-08-31 18:16:10 | 52.65345 | 15.23260 | 43° | 31km/h | 15862m | -4.3m/s | -48.6°C | 1.1% | 110.72hPa | 2.6V | 00:00:00 | 00:00:00 | 00:00:00 | |
| AA1-15 | 2026-08-31 18:16:08 | 52.65335 | 15.23245 | 35° | 20km/h | 15872m | -4.1m/s | -48.6°C | 0.3% | 110.6hPa | 2.5V | 18:12:15 | 02:00:19 | 00:00:00 | |
| 3Z3Z-3 | 2026-08-31 18:16:05 | 52.65330 | 15.23236 | 88° | 11km/h | 15879m | -3.8m/s | -48.7°C | 1.2% | 110.4hPa | 2.6V | 00:00:00 | 00:00:00 | 00:00:00 | |
| DM0DOS-11 | 2026-08-31 18:16:04 | 52.65340 | 15.23148 | 83° | 47km/h | 15906m | -3.4m/s | -48.9°C | 3.4% | 110hPa | 2.6V | 08:30:00 | 02:00:10 | 00:00:00 | |
| SONDE2-12 | 2026-08-31 18:16:00 | 52.65341 | 15.23167 | 92° | 44km/h | 15902m | -3.7m/s | -48.8°C | 1.2% | 110.0hPa | 2.6V | 00:00:00 | 00:00:00 | 00:00:00 | |
| AA1-15 | 2026-08-31 18:15:57 | 52.65334 | 15.23109 | 66° | 51km/h | 15913m | -3.3m/s | -48.9°C | 0.4% | 109.9hPa | 2.6V | 18:12:15 | 02:00:08 | 00:00:00 | |
| DB0DAN | 2026-08-31 18:15:55 | 52.65322 | 15.23075 | 51° | 38km/h | 15920m | -3.1m/s | -49°C | 1.2% | 109.79hPa | 2.5V | 00:00:00 | 00:00:00 | 00:00:00 | |
| SONDE2-11 | 2026-08-31 18:15:55 | 52.65316 | 15.23063 | 49° | 37km/h | 15924m | -4.0m/s | -49.0°C | 1.2% | 109.8hPa | 2.5V | 00:00:00 | 00:00:00 | 00:00:00 | |
| DM0DOS-11 | 2026-08-31 18:15:54 | 52.65301 | 15.23033 | 107° | 13km/h | 15941m | -3.7m/s | -49.1°C | 3.3% | 109.5hPa | 2.5V | 08:30:00 | 02:00:00 | 00:00:00 | |
| AA1-15 | 2026-08-31 18:15:46 | 52.65311 | 15.23011 | 126° | 31km/h | 15951m | -3.6m/s | -49.1°C | 0.4% | 109.3hPa | 2.5V | 18:12:15 | 01:59:57 | 00:00:00 | |
| DM0DOS-11 | 2026-08-31 18:15:44 | 52.65319 | 15.22900 | 59° | 37km/h | 15976m | -2.8m/s | -49.2°C | 3.5% | 108.9hPa | 2.5V | 08:30:00 | 01:59:50 | 00:00:00 | |
| AA1-15 | 2026-08-31 18:15:36 | 52.65304 | 15.22873 | 33° | 22km/h | 15986m | -3.5m/s | -49°C | 0.4% | 108.8hPa | 2.6V | 18:12:15 | 01:59:47 | 00:00:00 | |
| DAC517 | 2026-08-31 18:15:35 | 52.65305 | 15.22873 | 33° | 22km/h | 15986m | -3.5m/s | -49.0°C | 1.2% | 108.8hPa | 2.5V | 00:00:00 | 00:00:00 | 00:00:00 | |
| DM0DOS-11 | 2026-08-31 18:15:34 | 52.65308 | 15.22856 | 137° | 27km/h | 16012m | -3.3m/s | -48.7°C | 3.5% | 108.3hPa | 2.5V | 08:30:00 | 01:59:40 | 00:00:00 | |
| SONDE2-12 | 2026-08-31 18:15:29 | 52.65308 | 15.22856 | 137° | 26km/h | 16012m | -3.3m/s | -48.7°C | 1.2% | 108.3hPa | 2.6V | 00:00:00 | 00:00:00 | 00:00:00 | |
| AA1-15 | 2026-08-31 18:15:25 | 52.65320 | 15.22802 | 88° | 40km/h | 16025m | -3m/s | -48.4°C | 0.3% | 108.2hPa | 2.6V | 18:12:15 | 01:59:36 | 00:00:00 | |
| AA1-15 | 2026-08-31 18:15:15 | 52.65283 | 15.22730 | 224° | 5km/h | 16061m | -3.3m/s | -48.3°C | 0.2% | 107.6hPa | 2.5V | 18:12:15 | 01:59:26 | 00:00:00 | |
| DM0DOS-11 | 2026-08-31 18:15:14 | 52.65304 | 15.22693 | 99° | 37km/h | 16083m | -3.5m/s | -48.4°C | 3.2% | 107.2hPa | 2.5V | 08:30:00 | 01:59:20 | 00:00:00 | |
| AM1SDL-15 | 2026-08-31 18:15:13 | 52.65289 | 15.22729 | 160° | 27km/h | 16069m | -3.6m/s | -48.2°C | 3.2% | 107.4hPa | 2.5V | 00:00:00 | 01:59:24 | 00:00:00 | |
| DAC517 | 2026-08-31 18:15:12 | 52.65289 | 15.22729 | 161° | 18km/h | 16069m | -3.6m/s | -48.3°C | 1.1% | 107.5hPa | 2.5V | 00:00:00 | 00:00:00 | 00:00:00 | |
| 3Z3Z-3 | 2026-08-31 18:15:11 | 52.65293 | 15.22725 | 141° | 24km/h | 16072m | -3.7m/s | -48.3°C | 1.1% | 107.4hPa | 2.5V | 00:00:00 | 00:00:00 | 00:00:00 | |
| SP3BTT-10 | 2026-08-31 18:15:10 | 52.65301 | 15.22706 | 114° | 31km/h | 16080m | -3.4m/s | -48.3°C | 3.2% | 107.2hPa | 2.5V | 00:00:00 | 00:00:00 | 00:00:00 | |
| KRY50SP-1 | 2026-08-31 18:15:09 | 52.65304 | 15.22693 | 101° | 37km/h | 16083m | -3.5m/s | -48.4°C | 1.1% | 107.2hPa | 2.5V | 00:00:00 | 00:00:00 | 00:00:00 | |
| D01LWL | 2026-08-31 18:15:08 | 52.65304 | 15.22677 | 87° | 38km/h | 16087m | -3.3m/s | -48.5°C | 1.1% | 107.1hPa | 2.5V | 00:00:00 | 00:00:00 | 00:00:00 | |
| S3001 | 2026-08-31 18:15:06 | 52.65299 | 15.22646 | 63° | 37km/h | 16094m | -3.4m/s | -48.5°C | 1.1% | 107.0hPa | 2.5V | 00:00:00 | 00:00:00 | 00:00:00 | |
| DM0DOS-11 | 2026-08-31 18:15:04 | 52.65263 | 15.22612 | 331° | 7km/h | 16121m | -3.8m/s | -48.8°C | 3.3% | 106.6hPa | 2.5V | 08:30:00 | 01:59:10 | 00:00:00 | |
| AA1-15 | 2026-08-31 18:15:04 | 52.65288 | 15.22623 | 36° | 35km/h | 16101m | -3.5m/s | -48.6°C | 0.2% | 106.9hPa | 2.6V | 18:12:15 | 01:59:15 | 00:00:00 | |
| SONDE2-12 | 2026-08-31 18:14:58 | 52.65262 | 15.22613 | 191° | 4km/h | 16125m | -4.0m/s | -48.8°C | 1.2% | 106.5hPa | 2.5V | 00:00:00 | 00:00:00 | 00:00:00 | |
| DB0DAN | 2026-08-31 18:14:55 | 52.65272 | 15.22606 | 140° | 20km/h | 16136m | -3.6m/s | -48.9°C | 1.1% | 106.34hPa | 2.5V | 00:00:00 | 00:00:00 | 00:00:00 | |
| DM0DOS-11 | 2026-08-31 18:14:54 | 52.65276 | 15.22531 | 61° | 37km/h | 16159m | -3.6m/s | -49.1°C | 3.4% | 106hPa | 2.6V | 08:30:00 | 01:59:00 | 00:00:00 | |
| AA1-15 | 2026-08-31 18:14:53 | 52.65279 | 15.22587 | 110° | 33km/h | 16144m | -3.7m/s | -48.9°C | 0.3% | 106.2hPa | 2.5V | 18:12:15 | 01:59:04 | 00:00:00 | |
| DL1XH-west | 2026-08-31 18:14:48 | 52.65271 | 15.22519 | 48° | 33km/h | 16163m | -3.5m/s | -49.1°C | 0.3% | 105.9hPa | 2.5V | 18:12:15 | 01:58:59 | 00:00:00 | |
| EDDB2-12 | 2026-08-31 18:14:47 | 52.65259 | 15.22504 | 21° | 27km/h | 16170m | -3.6m/s | -49.2°C | 1.2% | 105.8hPa | 2.6V | 00:00:00 | 00:00:00 | 00:00:00 | |
| SP3WXH-11 | 2026-08-31 18:14:46 | 52.65259 | 15.22504 | 21° | 27km/h | 16170m | -3.6m/s | -49.2°C | 1.2% | 105.8hPa | 2.6V | 00:00:00 | 00:00:00 | 00:00:00 | |
| 13BRC | 2026-08-31 18:14:45 | 52.65258 | 15.22504 | 23° | 27km/h | 16170m | -3.6m/s | -49.2°C | 1.2% | 105.8hPa | 2.6V | 00:00:00 | 00:00:00 | 00:00:00 | |
| DM0DOS-11 | 2026-08-31 18:14:44 | 52.65247 | 15.22509 | 159° | 15km/h | 16196m | -3.3m/s | -49.3°C | 3.4% | 105.3hPa | 2.6V | 08:30:00 | 01:58:50 | 00:00:00 | |
| AA1-15 | 2026-08-31 18:14:42 | 52.65242 | 15.22507 | 311° | 9km/h | 16185m | -4.1m/s | -49.3°C | 0.4% | 105.5hPa | 2.5V | 18:12:15 | 01:58:53 | 00:00:00 | |
| DL1XH-west | 2026-08-31 18:14:37 | 52.65254 | 15.22497 | 121° | 26km/h | 16204m | -3.8m/s | -49.2°C | 0.4% | 105.3hPa | 2.6V | 18:12:15 | 01:58:48 | 00:00:00 | |
| S3001 | 2026-08-31 18:14:35 | 52.65258 | 15.22472 | 89° | 31km/h | 16211m | -3.8m/s | -49.2°C | 1.1% | 105.1hPa | 2.5V | 00:00:00 | 00:00:00 | 00:00:00 | |
| DM0DOS-11 | 2026-08-31 18:14:34 | 52.65231 | 15.22408 | 14° | 29km/h | 16235m | -3.8m/s | -49.4°C | 3.4% | 104.8hPa | 2.5V | 08:30:00 | 01:58:40 | 00:00:00 | |
| AA1-15 | 2026-08-31 18:14:32 | 52.65250 | 15.22431 | 57° | 37km/h | 16223m | -3.6m/s | -49.3°C | 0.3% | 104.9hPa | 2.6V | 18:12:15 | 01:58:43 | 00:00:00 | |
| DL1XH-west | 2026-08-31 18:14:27 | 52.65219 | 15.22408 | 344° | 20km/h | 16242m | -3.2m/s | -49.5°C | 0.3% | 104.7hPa | 2.5V | 18:12:15 | 01:58:38 | 00:00:00 | |
| SP3BTT-10 | 2026-08-31 18:14:25 | 52.65212 | 15.22414 | 309° | 18km/h | 16250m | -3.9m/s | -49.5°C | 3.4% | 104.5hPa | 2.5V | 00:00:00 | 00:00:00 | 00:00:00 | |
| DM0DOS-11 | 2026-08-31 18:14:24 | 52.65223 | 15.22397 | 102° | 26km/h | 16272m | -3.5m/s | -49.7°C | 3.5% | 104.2hPa | 2.5V | 08:30:00 | 01:58:30 | 00:00:00 | |
| AA1-15 | 2026-08-31 18:14:21 | 52.65218 | 15.22414 | 126° | 18km/h | 16265m | -3.8m/s | -49.6°C | 0.4% | 104.3hPa | 2.5V | 18:12:15 | 01:58:32 | 00:00:00 | |
| DL1XH1-15 | 2026-08-31 18:14:21 | 52.65222 | 15.22371 | 77° | 37km/h | 16280m | -3.6m/s | -49.8°C | 3.4% | 104hPa | 2.6V | 08:30:00 | 01:58:28 | 00:00:00 | |
| DL1XH-west | 2026-08-31 18:14:17 | 52.65222 | 15.22371 | 77° | 37km/h | 16280m | -3.6m/s | -49.8°C | 0.4% | 104.1hPa | 2.6V | 18:12:15 | 01:58:28 | 00:00:00 | |
| KRY50SP-1 | 2026-08-31 18:14:17 | 52.65222 | 15.22371 | 78° | 37km/h | 16280m | -3.6m/s | -49.8°C | 1.2% | 104.1hPa | 2.6V | 00:00:00 | 00:00:00 | 00:00:00 | |
| EDDB2-12 | 2026-08-31 18:14:16 | 52.65213 | 15.22343 | 51° | 37km/h | 16288m | -3.8m/s | -49.8°C | 1.2% | 103.9hPa | 2.6V | 00:00:00 | 00:00:00 | 00:00:00 | |
| SP3WXH-11 | 2026-08-31 18:14:15 | 52.65213 | 15.22343 | 51° | 37km/h | 16288m | -3.8m/s | -49.8°C | 1.2% | 103.9hPa | 2.6V | 00:00:00 | 00:00:00 | 00:00:00 | |
| DM0DOS-11 | 2026-08-31 18:14:14 | 52.65167 | 15.22312 | 341° | 26km/h | 16312m | -3.8m/s | -50°C | 3.5% | 103.5hPa | 2.6V | 08:30:00 | 01:58:20 | 00:00:00 | |
| AA1-15 | 2026-08-31 18:14:11 | 52.65182 | 15.22311 | 8° | 35km/h | 16304m | -4.2m/s | -50°C | 0.3% | 103.7hPa | 2.6V | 18:12:15 | 01:58:22 | 00:00:00 | |
| DL1XH-west | 2026-08-31 18:14:06 | 52.65158 | 15.22322 | 285° | 5km/h | 16324m | -3.7m/s | -50.1°C | 0.5% | 103.4hPa | 2.5V | 18:12:15 | 01:58:17 | 00:00:00 | |
| AA1-15 | 2026-08-31 18:14:00 | 52.65157 | 15.22282 | 67° | 35km/h | 16347m | -4m/s | -50.2°C | 0.5% | 103hPa | 2.5V | 18:12:15 | 01:58:11 | 00:00:00 | |
| SONDE2-12 | 2026-08-31 18:13:56 | 52.65130 | 15.22235 | 27° | 40km/h | 16364m | -3.6m/s | -50.2°C | 1.3% | 102.7hPa | 2.6V | 00:00:00 | 00:00:00 | 00:00:00 | |
| DL1XH-west | 2026-08-31 18:13:55 | 52.65121 | 15.22229 | 16° | 42km/h | 16367m | -3.1m/s | -50.2°C | 0.4% | 102.7hPa | 2.6V | 18:12:15 | 01:58:06 | 00:00:00 | |
| DM0DOS-11 | 2026-08-31 18:13:54 | 52.65078 | 15.22243 | 309° | 11km/h | 16387m | -3.8m/s | -50.3°C | 3.5% | 102.3hPa | 2.6V | 08:30:00 | 01:58:00 | 00:00:00 | |
| KRY50SP-1 | 2026-08-31 18:13:53 | 52.65110 | 15.22226 | 7° | 40km/h | 16371m | -3.2m/s | -50.2°C | 1.2% | 102.6hPa | 2.5V | 00:00:00 | 00:00:00 | 00:00:00 | |
| DL1XH1-15 | 2026-08-31 18:13:49 | 52.65078 | 15.22222 | 81° | 29km/h | 16407m | -3.7m/s | -50.5°C | 3.5% | 102hPa | 2.5V | 08:30:00 | 01:57:55 | 00:00:00 | |
| AA1-15 | 2026-08-31 18:13:49 | 52.65078 | 15.22243 | 309° | 11km/h | 16387m | -3.8m/s | -50.3°C | 0.4% | 102.3hPa | 2.6V | 18:12:15 | 01:58:00 | 00:00:00 | |
| KRY50SP-1 | 2026-08-31 18:13:47 | 52.65077 | 15.22245 | 305° | 4km/h | 16391m | -4.0m/s | -50.3°C | 1.2% | 102.3hPa | 2.5V | 00:00:00 | 00:00:00 | 00:00:00 | |
| 3Z3Z-3 | 2026-08-31 18:13:46 | 52.65077 | 15.22245 | 100° | 5km/h | 16395m | -4.1m/s | -50.4°C | 1.2% | 102.2hPa | 2.5V | 00:00:00 | 00:00:00 | 00:00:00 | |
| EDDB2-12 | 2026-08-31 18:13:45 | 52.65078 | 15.22222 | 81° | 27km/h | 16407m | -3.7m/s | -50.5°C | 1.2% | 102.0hPa | 2.5V | 00:00:00 | 00:00:00 | 00:00:00 | |
| DM0DOS-11 | 2026-08-31 18:13:44 | 52.65049 | 15.22165 | 25° | 44km/h | 16426m | -4m/s | -50.6°C | 3.5% | 101.7hPa | 2.5V | 08:30:00 | 01:57:50 | 00:00:00 | |
| DL1XH-west | 2026-08-31 18:13:44 | 52.65078 | 15.22222 | 82° | 29km/h | 16407m | -3.7m/s | -50.5°C | 0.5% | 102hPa | 2.5V | 18:12:15 | 01:57:55 | 00:00:00 | |
| EDDB2-11 | 2026-08-31 18:13:43 | 52.65076 | 15.22209 | 70° | 31km/h | 16411m | -3.6m/s | -50.5°C | 1.2% | 102.0hPa | 2.5V | 00:00:00 | 00:00:00 | 00:00:00 | |
| DAC517 | 2026-08-31 18:13:42 | 52.65073 | 15.22196 | 59° | 37km/h | 16415m | -4.0m/s | -50.5°C | 1.2% | 102.0hPa | 2.5V | 00:00:00 | 00:00:00 | 00:00:00 | |
| KRY50SP-1 | 2026-08-31 18:13:41 | 52.65073 | 15.22196 | 59° | 37km/h | 16415m | -4.0m/s | -50.5°C | 1.2% | 102.0hPa | 2.5V | 00:00:00 | 00:00:00 | 00:00:00 | |
| SP3BTT-10 | 2026-08-31 18:13:40 | 52.65058 | 15.22173 | 33° | 37km/h | 16423m | -3.5m/s | -50.5°C | 3.5% | 101.7hPa | 2.5V | 00:00:00 | 00:00:00 | 00:00:00 | |
| DL1XH1-15 | 2026-08-31 18:13:39 | 52.65003 | 15.22164 | 330° | 29km/h | 16444m | -3.5m/s | -50.8°C | 3.6% | 101.4hPa | 2.6V | 08:30:00 | 01:57:45 | 00:00:00 | |
| AA1-15 | 2026-08-31 18:13:38 | 52.65039 | 15.22159 | 17° | 42km/h | 16430m | -4.2m/s | -50.6°C | 0.4% | 101.7hPa | 2.5V | 18:12:15 | 01:57:49 | 00:00:00 | |
| D01LWL | 2026-08-31 18:13:35 | 52.65010 | 15.22159 | 340° | 33km/h | 16441m | -3.0m/s | -50.7°C | 1.2% | 101.5hPa | 2.6V | 00:00:00 | 00:00:00 | 00:00:00 | |
| DM0DOS-11 | 2026-08-31 18:13:34 | 52.64993 | 15.22173 | 101° | 9km/h | 16465m | -3.5m/s | -50.9°C | 3.7% | 101.1hPa | 2.6V | 08:30:00 | 01:57:40 | 00:00:00 | |
| DL1XH-west | 2026-08-31 18:13:33 | 52.64997 | 15.22170 | 323° | 22km/h | 16448m | -4.6m/s | -50.8°C | 0.5% | 101.4hPa | 2.5V | 18:12:15 | 01:57:44 | 00:00:00 | |
| MECKS9 | 2026-08-31 18:13:32 | 52.64997 | 15.22170 | 324° | 22km/h | 16448m | -4.6m/s | -50.8°C | 1.2% | 101.4hPa | 2.5V | 00:00:00 | 00:00:00 | 00:00:00 | |
| KRY50SP-1 | 2026-08-31 18:13:30 | 52.64992 | 15.22177 | 326° | 4km/h | 16457m | -4.1m/s | -50.9°C | 1.3% | 101.2hPa | 2.5V | 00:00:00 | 00:00:00 | 00:00:00 | |
| DL1XH1-15 | 2026-08-31 18:13:29 | 52.64981 | 15.22122 | 47° | 38km/h | 16484m | -3.8m/s | -51.1°C | 3.7% | 100.8hPa | 2.5V | 08:30:00 | 01:57:35 | 00:00:00 | |
| AA1-15 | 2026-08-31 18:13:28 | 52.64993 | 15.22168 | 88° | 16km/h | 16469m | -3.8m/s | -51°C | 0.6% | 101.1hPa | 2.6V | 18:12:15 | 01:57:39 | 00:00:00 | |
| SONDE2-12 | 2026-08-31 18:13:25 | 52.64986 | 15.22134 | 60° | 35km/h | 16480m | -4.0m/s | -51.1°C | 0% | 100.9hPa | 2.5V | 00:00:00 | 00:00:00 | 00:00:00 | |
| DM0DOS-11 | 2026-08-31 18:13:24 | 52.64931 | 15.22097 | 354° | 42km/h | 16503m | -4.4m/s | -51.2°C | 3.7% | 100.5hPa | 2.5V | 08:30:00 | 01:57:30 | 00:00:00 | |
| DL1XH-west | 2026-08-31 18:13:22 | 52.64964 | 15.22104 | 22° | 44km/h | 16492m | -3.4m/s | -51.2°C | 0.5% | 100.7hPa | 2.6V | 18:12:15 | 01:57:33 | 00:00:00 | |
| DAC517 | 2026-08-31 18:13:21 | 52.64964 | 15.22103 | 23° | 44km/h | 16492m | -3.4m/s | -51.2°C | 1.2% | 100.7hPa | 2.6V | 00:00:00 | 00:00:00 | 00:00:00 | |
| SONDE2-11 | 2026-08-31 18:13:20 | 52.64931 | 15.22097 | 354° | 42km/h | 16503m | -4.4m/s | -51.2°C | 1.3% | 100.5hPa | 2.6V | 00:00:00 | 00:00:00 | 00:00:00 | |
| DL1XH1-15 | 2026-08-31 18:13:19 | 52.64899 | 15.22124 | 313° | 11km/h | 16523m | -4.2m/s | -51.4°C | 3.8% | 100.2hPa | 2.6V | 08:30:00 | 01:57:25 | 00:00:00 | |
| AA1-15 | 2026-08-31 18:13:17 | 52.64913 | 15.22105 | 333° | 33km/h | 16512m | -3.4m/s | -51.3°C | 0.6% | 100.4hPa | 2.5V | 18:12:15 | 01:57:28 | 00:00:00 | |
| DM0DOS-11 | 2026-08-31 18:13:14 | 52.64895 | 15.22102 | 67° | 31km/h | 16542m | -3.6m/s | -51.4°C | 3.7% | 99.9hPa | 2.5V | 08:30:00 | 01:57:20 | 00:00:00 | |
| DL1XH-west | 2026-08-31 18:13:11 | 52.64899 | 15.22120 | 83° | 13km/h | 16535m | -3.7m/s | -51.4°C | 0.6% | 100hPa | 2.5V | 18:12:15 | 01:57:22 | 00:00:00 | |
| MECKS9 | 2026-08-31 18:13:10 | 52.64899 | 15.22120 | 84° | 13km/h | 16535m | -3.7m/s | -51.4°C | 1.3% | 100.0hPa | 2.5V | 00:00:00 | 00:00:00 | 00:00:00 | |
| DL1XH1-15 | 2026-08-31 18:13:09 | 52.64857 | 15.22055 | 12° | 42km/h | 16562m | -3.7m/s | -51.4°C | 3.7% | 99.6hPa | 2.5V | 08:30:00 | 01:57:15 | 00:00:00 | |
| AA1-15 | 2026-08-31 18:13:06 | 52.64877 | 15.22069 | 32° | 44km/h | 16554m | -3.8m/s | -51.4°C | 0.5% | 99.7hPa | 2.6V | 18:12:15 | 01:57:17 | 00:00:00 | |
| DL1XH-west | 2026-08-31 18:13:00 | 52.64814 | 15.22065 | 338° | 37km/h | 16577m | -3.8m/s | -51.5°C | 0.6% | 99.4hPa | 2.6V | 18:12:15 | 01:57:11 | 00:00:00 | |
| AA1-15 | 2026-08-31 18:12:55 | 52.64790 | 15.22082 | 33° | 13km/h | 16597m | -3.1m/s | -51.7°C | 0.7% | 99.1hPa | 2.5V | 18:12:15 | 01:57:06 | 00:00:00 | |
| DB0DAN | 2026-08-31 18:12:55 | 52.64790 | 15.22082 | 32° | 11km/h | 16597m | -3.1m/s | -51.7°C | 1.3% | 99.1hPa | 2.5V | 00:00:00 | 00:00:00 | 00:00:00 | |
| SONDE2-12 | 2026-08-31 18:12:54 | 52.64787 | 15.22077 | 48° | 20km/h | 16601m | -3.7m/s | -51.7°C | 1.4% | 99.1hPa | 2.5V | 00:00:00 | 00:00:00 | 00:00:00 | |
| DL1XH-west | 2026-08-31 18:12:50 | 52.64766 | 15.22035 | 46° | 44km/h | 16618m | -4.4m/s | -51.6°C | 0.5% | 98.8hPa | 2.5V | 18:12:15 | 01:57:01 | 00:00:00 | |
| SONDE2-11 | 2026-08-31 18:12:49 | 52.64747 | 15.22011 | 30° | 51km/h | 16627m | -3.7m/s | -51.6°C | 1.2% | 98.7hPa | 2.5V | 00:00:00 | 00:00:00 | 00:00:00 | |
| AA1-15 | 2026-08-31 18:12:44 | 52.64696 | 15.21984 | 5° | 53km/h | 16643m | -4m/s | -51.6°C | 0.8% | 98.4hPa | 2.5V | 18:12:15 | 01:56:55 | 00:00:00 | |
| EDDB2-12 | 2026-08-31 18:12:43 | 52.64673 | 15.21986 | 352° | 38km/h | 16650m | -3.1m/s | -51.6°C | 1.3% | 98.3hPa | 2.6V | 00:00:00 | 00:00:00 | 00:00:00 | |
| SP3WXH-11 | 2026-08-31 18:12:42 | 52.64673 | 15.21986 | 352° | 38km/h | 16650m | -3.1m/s | -51.6°C | 1.3% | 98.3hPa | 2.6V | 00:00:00 | 00:00:00 | 00:00:00 | |
| DL1XH1-15 | 2026-08-31 18:12:41 | 52.64655 | 15.21988 | 25° | 16km/h | 16659m | -4m/s | -51.5°C | 3.9% | 98.2hPa | 2.6V | 08:30:00 | 01:56:50 | 00:00:00 | |
| DL1XH-west | 2026-08-31 18:12:39 | 52.64654 | 15.21988 | 26° | 16km/h | 16659m | -4m/s | -51.5°C | 0.7% | 98.2hPa | 2.6V | 18:12:15 | 01:56:50 | 00:00:00 | |
| DM0DOS-11 | 2026-08-31 18:12:37 | 52.64645 | 15.21970 | 59° | 27km/h | 16672m | -4.2m/s | -51.3°C | 3.8% | 98hPa | 2.5V | 08:30:00 | 01:56:47 | 00:00:00 | |
| AA1-15 | 2026-08-31 18:12:34 | 52.64636 | 15.21944 | 58° | 42km/h | 16680m | -3.9m/s | -51.2°C | 0.5% | 97.8hPa | 2.5V | 18:12:15 | 01:56:45 | 00:00:00 | |
| D01LWL | 2026-08-31 18:12:33 | 52.64629 | 15.21928 | 54° | 49km/h | 16684m | -3.1m/s | -51.1°C | 1.2% | 97.8hPa | 2.5V | 00:00:00 | 00:00:00 | 00:00:00 | |
| DL1XH1-15 | 2026-08-31 18:12:31 | 52.64584 | 15.21866 | 28° | 62km/h | 16699m | -4.1m/s | -50.9°C | 3.7% | 97.5hPa | 2.5V | 08:30:00 | 01:56:40 | 00:00:00 | |
| DL1XH-west | 2026-08-31 18:12:29 | 52.64584 | 15.21866 | 29° | 62km/h | 16699m | -4.1m/s | -50.9°C | 0.6% | 97.5hPa | 2.5V | 18:12:15 | 01:56:40 | 00:00:00 | |
| DM0DOS-11 | 2026-08-31 18:12:27 | 52.64544 | 15.21845 | 10° | 47km/h | 16711m | -4.7m/s | -50.9°C | 3.9% | 97.4hPa | 2.6V | 08:30:00 | 01:56:37 | 00:00:00 | |
| DB0DAN | 2026-08-31 18:12:25 | 52.64534 | 15.21843 | 5° | 35km/h | 16715m | -4m/s | -50.9°C | 1.3% | 97.34hPa | 2.6V | 00:00:00 | 00:00:00 | 00:00:00 | |
| AA1-15 | 2026-08-31 18:12:23 | 52.64519 | 15.21838 | 19° | 26km/h | 16723m | -3.9m/s | -50.7°C | 0.6% | 97.2hPa | 2.5V | 18:12:15 | 01:56:34 | 00:00:00 | |
| SONDE2-12 | 2026-08-31 18:12:23 | 52.64515 | 15.21834 | 33° | 18km/h | 16728m | -3.0m/s | -50.7°C | 1.3% | 97.2hPa | 2.6V | 00:00:00 | 00:00:00 | 00:00:00 | |
| DL1XH1-15 | 2026-08-31 18:12:21 | 52.64506 | 15.21806 | 71° | 33km/h | 16739m | -4m/s | -50.7°C | 3.6% | 97hPa | 2.6V | 08:30:00 | 01:56:30 | 00:00:00 | |
| DL1XH-west | 2026-08-31 18:12:18 | 52.64502 | 15.21791 | 70° | 44km/h | 16744m | -4m/s | -50.7°C | 0.5% | 96.9hPa | 2.6V | 18:12:15 | 01:56:29 | 00:00:00 | |
| AA1-15 | 2026-08-31 18:12:12 | 52.64454 | 15.21670 | 40° | 64km/h | 16770m | -3.3m/s | -50.5°C | 0.6% | 96.5hPa | 2.6V | 18:12:15 | 01:56:23 | 00:00:00 | |
| DL1XH1-15 | 2026-08-31 18:12:11 | 52.64417 | 15.21636 | 20° | 49km/h | 16780m | -3.6m/s | -50.6°C | 3.8% | 96.4hPa | 2.5V | 08:30:00 | 01:56:20 | 00:00:00 | |
| DL1XH-west | 2026-08-31 18:12:08 | 52.64406 | 15.21630 | 15° | 38km/h | 16784m | -3.5m/s | -50.6°C | 0.6% | 96.3hPa | 2.5V | 18:12:15 | 01:56:19 | 00:00:00 | |
| DM0DOS-11 | 2026-08-31 18:12:07 | 52.64392 | 15.21621 | 32° | 26km/h | 16792m | -4.3m/s | -50.5°C | 3.7% | 96.2hPa | 2.5V | 08:30:00 | 01:56:17 | 00:00:00 | |
| D01LWL | 2026-08-31 18:12:02 | 52.64383 | 15.21585 | 80° | 35km/h | 16810m | -4.2m/s | -50.4°C | 1.2% | 96.0hPa | 2.6V | 00:00:00 | 00:00:00 | 00:00:00 | |
| DL1XH1-15 | 2026-08-31 18:12:01 | 52.64362 | 15.21478 | 61° | 68km/h | 16832m | -4.1m/s | -50.2°C | 3.6% | 95.6hPa | 2.6V | 08:30:00 | 01:56:08 | 00:00:00 | |
| AA1-15 | 2026-08-31 18:12:01 | 52.64382 | 15.21568 | 83° | 44km/h | 16814m | -3.9m/s | -50.4°C | 0.5% | 95.9hPa | 2.5V | 18:12:15 | 01:56:12 | 00:00:00 | |
| DL1XH-west | 2026-08-31 18:11:58 | 52.64370 | 15.21502 | 66° | 62km/h | 16827m | -4.2m/s | -50.4°C | 0.5% | 95.7hPa | 2.6V | 18:12:15 | 01:56:09 | 00:00:00 | |
| DM0DOS-11 | 2026-08-31 18:11:57 | 52.64353 | 15.21455 | 53° | 69km/h | 16836m | -3.9m/s | -50.1°C | 3.6% | 95.6hPa | 2.6V | 08:30:00 | 01:56:07 | 00:00:00 | |
| SONDE2-12 | 2026-08-31 18:11:52 | 52.64299 | 15.21384 | 26° | 38km/h | 16857m | -3.9m/s | -49.8°C | 1.2% | 95.3hPa | 2.5V | 00:00:00 | 00:00:00 | 00:00:00 | |
| DL1XH1-15 | 2026-08-31 18:11:51 | 52.64283 | 15.21356 | 82° | 26km/h | 16873m | -4.9m/s | -49.8°C | 3.5% | 95hPa | 2.5V | 08:30:00 | 01:55:58 | 00:00:00 | |
| AA1-15 | 2026-08-31 18:11:50 | 52.64292 | 15.21378 | 27° | 29km/h | 16861m | -3m/s | -49.7°C | 0.5% | 95.2hPa | 2.6V | 18:12:15 | 01:56:01 | 00:00:00 | |
| DL1XH-west | 2026-08-31 18:11:48 | 52.64283 | 15.21356 | 83° | 26km/h | 16873m | -4.9m/s | -49.8°C | 0.4% | 95hPa | 2.5V | 18:12:15 | 01:55:58 | 00:00:00 | |
| DM0DOS-11 | 2026-08-31 18:11:47 | 52.64283 | 15.21344 | 90° | 31km/h | 16877m | -4.5m/s | -49.8°C | 3.5% | 94.9hPa | 2.5V | 08:30:00 | 01:55:57 | 00:00:00 | |
| SONDE2-11 | 2026-08-31 18:11:46 | 52.64283 | 15.21344 | 90° | 29km/h | 16878m | -4.5m/s | -49.8°C | 1.1% | 94.9hPa | 2.5V | 00:00:00 | 00:00:00 | 00:00:00 | |
| AA1-15 | 2026-08-31 18:11:39 | 52.64262 | 15.21192 | 56° | 68km/h | 16910m | -3.5m/s | -50°C | 0.4% | 94.5hPa | 2.5V | 18:12:15 | 01:55:50 | 00:00:00 | |
| DL1XH-west | 2026-08-31 18:11:37 | 52.64242 | 15.21155 | 39° | 57km/h | 16917m | -3.1m/s | -50°C | 0.4% | 94.4hPa | 2.6V | 18:12:15 | 01:55:48 | 00:00:00 | |
| DM0DOS-11 | 2026-08-31 18:11:37 | 52.64231 | 15.21141 | 33° | 53km/h | 16920m | -3.4m/s | -50°C | 3.5% | 94.3hPa | 2.6V | 08:30:00 | 01:55:47 | 00:00:00 | |
| AA1-15 | 2026-08-31 18:11:28 | 52.64197 | 15.21071 | 94° | 38km/h | 16951m | -3.6m/s | -49.9°C | 0.4% | 93.8hPa | 2.6V | 18:12:15 | 01:55:39 | 00:00:00 | |
| DM0DOS-11 | 2026-08-31 18:11:27 | 52.64194 | 15.21007 | 74° | 57km/h | 16963m | -4.1m/s | -50°C | 3.6% | 93.7hPa | 2.5V | 08:30:00 | 01:55:36 | 00:00:00 | |
| DL1XH1-15 | 2026-08-31 18:11:27 | 52.64176 | 15.20941 | 57° | 58km/h | 16976m | -4.1m/s | -50°C | 3.5% | 93.6hPa | 2.6V | 08:30:00 | 01:55:33 | 00:00:00 | |
| DL1XH-west | 2026-08-31 18:11:26 | 52.64197 | 15.21030 | 84° | 55km/h | 16959m | -3.8m/s | -50°C | 0.4% | 93.8hPa | 2.5V | 18:12:15 | 01:55:37 | 00:00:00 | |
| SONDE2-12 | 2026-08-31 18:11:21 | 52.64157 | 15.20906 | 42° | 51km/h | 16984m | -3.8m/s | -50.0°C | 1.2% | 93.4hPa | 2.5V | 00:00:00 | 00:00:00 | 00:00:00 | |
| 13BRC | 2026-08-31 18:11:19 | 52.64157 | 15.20906 | 43° | 53km/h | 16984m | -3.8m/s | -50.0°C | 1.2% | 93.4hPa | 2.5V | 00:00:00 | 00:00:00 | 00:00:00 | |
| DL1XH1-15 | 2026-08-31 18:11:18 | 52.64110 | 15.20851 | 88° | 26km/h | 17014m | -3.7m/s | -50°C | 3.5% | 93hPa | 2.5V | 08:30:00 | 01:55:23 | 00:00:00 | |
| AA1-15 | 2026-08-31 18:11:17 | 52.64129 | 15.20878 | 26° | 33km/h | 16994m | -3.7m/s | -50°C | 0.4% | 93.2hPa | 2.5V | 18:12:15 | 01:55:28 | 00:00:00 | |
| DM0DOS-11 | 2026-08-31 18:11:17 | 52.64117 | 15.20868 | 27° | 24km/h | 17002m | -4.1m/s | -50°C | 3.5% | 93.1hPa | 2.6V | 08:30:00 | 01:55:26 | 00:00:00 | |
| DL1XH-west | 2026-08-31 18:11:16 | 52.64122 | 15.20873 | 27° | 27km/h | 16998m | -4m/s | -50°C | 0.4% | 93.2hPa | 2.6V | 18:12:15 | 01:55:27 | 00:00:00 | |
| SONDE2-11 | 2026-08-31 18:11:15 | 52.64117 | 15.20868 | 27° | 22km/h | 17002m | -4.1m/s | -50.0°C | 1.1% | 93.1hPa | 2.5V | 00:00:00 | 00:00:00 | 00:00:00 | |
| SP6BVK | 2026-08-31 18:11:14 | 52.64117 | 15.20868 | 28° | 24km/h | 17003m | -4.1m/s | -50.0°C | 1.1% | 93.1hPa | 2.5V | 00:00:00 | 00:00:00 | 00:00:00 | |
| KRY50SP-1 | 2026-08-31 18:11:13 | 52.64113 | 15.20864 | 40° | 16km/h | 17007m | -3.5m/s | -50.0°C | 1.2% | 93.1hPa | 2.5V | 00:00:00 | 00:00:00 | 00:00:00 | |
| EDDB2-12 | 2026-08-31 18:11:10 | 52.64108 | 15.20805 | 77° | 44km/h | 17026m | -4.0m/s | -50.0°C | 1.2% | 92.8hPa | 2.5V | 00:00:00 | 00:00:00 | 00:00:00 | |
| SP3WXH-11 | 2026-08-31 18:11:09 | 52.64108 | 15.20805 | 77° | 44km/h | 17026m | -4.0m/s | -50.0°C | 1.2% | 92.8hPa | 2.5V | 00:00:00 | 00:00:00 | 00:00:00 | |
| EDDB2-11 | 2026-08-31 18:11:08 | 52.64105 | 15.20786 | 72° | 49km/h | 17030m | -4.0m/s | -50.1°C | 1.2% | 92.7hPa | 2.5V | 00:00:00 | 00:00:00 | 00:00:00 | |
| DM0DOS-11 | 2026-08-31 18:11:07 | 52.64086 | 15.20725 | 52° | 58km/h | 17043m | -3.9m/s | -50.1°C | 3.6% | 92.5hPa | 2.5V | 08:30:00 | 01:55:16 | 00:00:00 | |
| DL1XH1-15 | 2026-08-31 18:11:07 | 52.64054 | 15.20677 | 33° | 55km/h | 17054m | -3.9m/s | -50°C | 3.5% | 92.4hPa | 2.6V | 08:30:00 | 01:55:13 | 00:00:00 | |
| DL1XH-west | 2026-08-31 18:11:06 | 52.64094 | 15.20745 | 61° | 58km/h | 17038m | -4m/s | -50.1°C | 0.5% | 92.6hPa | 2.5V | 18:12:15 | 01:55:17 | 00:00:00 | |
| MECKS9 | 2026-08-31 18:11:04 | 52.64086 | 15.20725 | 54° | 58km/h | 17043m | -3.9m/s | -50.1°C | 1.2% | 92.6hPa | 2.6V | 00:00:00 | 00:00:00 | 00:00:00 | |
| D01LWL | 2026-08-31 18:11:00 | 52.64007 | 15.20647 | 8° | 38km/h | 17073m | -4.0m/s | -49.9°C | 1.1% | 92.1hPa | 2.6V | 00:00:00 | 00:00:00 | 00:00:00 | |
| 13BRC | 2026-08-31 18:10:59 | 52.64029 | 15.20656 | 23° | 53km/h | 17064m | -4.8m/s | -49.9°C | 1.1% | 92.3hPa | 2.6V | 00:00:00 | 00:00:00 | 00:00:00 | |
| DM0DOS-11 | 2026-08-31 18:10:58 | 52.63987 | 15.20640 | 39° | 18km/h | 17084m | -4.2m/s | -49.8°C | 3.5% | 92hPa | 2.6V | 08:30:00 | 01:55:06 | 00:00:00 | |
| DL1XH1-15 | 2026-08-31 18:10:58 | 52.63981 | 15.20614 | 80° | 31km/h | 17097m | -4m/s | -49.9°C | 3.6% | 91.8hPa | 2.5V | 08:30:00 | 01:55:03 | 00:00:00 | |
| DL1XH-west | 2026-08-31 18:10:55 | 52.63987 | 15.20640 | 40° | 18km/h | 17084m | -4.2m/s | -49.8°C | 0.4% | 92hPa | 2.6V | 18:12:15 | 01:55:06 | 00:00:00 | |
| SONDE2-12 | 2026-08-31 18:10:50 | 52.63973 | 15.20563 | 68° | 53km/h | 17111m | -4.4m/s | -49.9°C | 1.2% | 91.7hPa | 2.5V | 00:00:00 | 00:00:00 | 00:00:00 | |
| DM0DOS-11 | 2026-08-31 18:10:47 | 52.63936 | 15.20486 | 33° | 62km/h | 17128m | -3.5m/s | -49.9°C | 3.4% | 91.4hPa | 2.5V | 08:30:00 | 01:54:56 | 00:00:00 | |
| DL1XH1-15 | 2026-08-31 18:10:47 | 52.63897 | 15.20461 | 8° | 51km/h | 17139m | -2.8m/s | -49.9°C | 3.4% | 91.2hPa | 2.5V | 08:30:00 | 01:54:53 | 00:00:00 | |
| DL1XH-west | 2026-08-31 18:10:44 | 52.63923 | 15.20474 | 25° | 58km/h | 17132m | -3.6m/s | -49.8°C | 0.3% | 91.3hPa | 2.6V | 18:12:15 | 01:54:55 | 00:00:00 | |
| SP3BTT-10 | 2026-08-31 18:10:40 | 52.63873 | 15.20459 | 4° | 35km/h | 17146m | -4.0m/s | -50.0°C | 3.5% | 91.0hPa | 2.5V | 00:00:00 | 00:00:00 | 00:00:00 | |
| EDDB2-12 | 2026-08-31 18:10:39 | 52.63858 | 15.20457 | 12° | 22km/h | 17154m | -5.1m/s | -50.1°C | 1.2% | 91.0hPa | 2.5V | 00:00:00 | 00:00:00 | 00:00:00 | |
| DM0DOS-11 | 2026-08-31 18:10:38 | 52.63847 | 15.20442 | 62° | 24km/h | 17169m | -4.9m/s | -50.2°C | 3.6% | 90.8hPa | 2.5V | 08:30:00 | 01:54:46 | 00:00:00 | |
| DL1XH1-15 | 2026-08-31 18:10:37 | 52.63836 | 15.20402 | 61° | 49km/h | 17184m | -3.9m/s | -50.4°C | 3.5% | 90.6hPa | 2.6V | 08:30:00 | 01:54:43 | 00:00:00 | |
| DL1XH-west | 2026-08-31 18:10:33 | 52.63841 | 15.20418 | 66° | 40km/h | 17179m | -4.4m/s | -50.3°C | 0.4% | 90.7hPa | 2.5V | 18:12:15 | 01:54:44 | 00:00:00 | |
| SP6BVK | 2026-08-31 18:10:32 | 52.63841 | 15.20418 | 67° | 40km/h | 17179m | -4.4m/s | -50.3°C | 1.2% | 90.7hPa | 2.6V | 00:00:00 | 00:00:00 | 00:00:00 | |
| DM0DOS-11 | 2026-08-31 18:10:27 | 52.63754 | 15.20285 | 18° | 60km/h | 17215m | -2.9m/s | -50.6°C | 3.5% | 90.2hPa | 2.6V | 08:30:00 | 01:54:36 | 00:00:00 | |
| DL1XH-west | 2026-08-31 18:10:23 | 52.63726 | 15.20275 | 9° | 47km/h | 17222m | -3.2m/s | -50.7°C | 0.5% | 90.1hPa | 2.6V | 18:12:15 | 01:54:34 | 00:00:00 | |
| SONDE2-12 | 2026-08-31 18:10:19 | 52.63692 | 15.20257 | 56° | 27km/h | 17240m | -4.5m/s | -50.7°C | 1.2% | 89.8hPa | 2.5V | 00:00:00 | 00:00:00 | 00:00:00 | |
| DM0DOS-11 | 2026-08-31 18:10:18 | 52.63677 | 15.20213 | 58° | 53km/h | 17252m | -4m/s | -50.7°C | 3.6% | 89.6hPa | 2.5V | 08:30:00 | 01:54:26 | 00:00:00 | |
| DL1XH-west | 2026-08-31 18:10:13 | 52.63659 | 15.20173 | 48° | 66km/h | 17261m | -4.2m/s | -50.8°C | 0.4% | 89.5hPa | 2.5V | 18:12:15 | 01:54:24 | 00:00:00 | |
| AA1-15 | 2026-08-31 18:10:12 | 52.63647 | 15.20153 | 45° | 69km/h | 17265m | -4.3m/s | -50.8°C | 0.5% | 89.4hPa | 2.5V | 18:12:15 | 01:54:23 | 00:00:00 | |
| DL1XH1-15 | 2026-08-31 18:10:11 | 52.63575 | 15.20077 | 21° | 60km/h | 17286m | -3.8m/s | -50.9°C | 3.8% | 89.1hPa | 2.5V | 08:30:00 | 01:54:18 | 00:00:00 | |
| DL1XH-west | 2026-08-31 18:10:02 | 52.63531 | 15.20048 | 47° | 24km/h | 17305m | -4.4m/s | -51.1°C | 0.5% | 88.9hPa | 2.6V | 18:12:15 | 01:54:13 | 00:00:00 | |
| DL1XH1-15 | 2026-08-31 18:10:01 | 52.63518 | 15.19979 | 71° | 51km/h | 17327m | -4.5m/s | -51.1°C | 3.9% | 88.6hPa | 2.6V | 08:30:00 | 01:54:08 | 00:00:00 | |
| AA1-15 | 2026-08-31 18:10:01 | 52.63528 | 15.20040 | 63° | 26km/h | 17309m | -4.7m/s | -51.1°C | 0.6% | 88.8hPa | 2.5V | 18:12:15 | 01:54:12 | 00:00:00 | |
| D01LWL | 2026-08-31 18:09:58 | 52.63518 | 15.19979 | 71° | 51km/h | 17327m | -4.5m/s | -51.1°C | 1.3% | 88.6hPa | 2.5V | 00:00:00 | 00:00:00 | 00:00:00 | |
| DM0DOS-11 | 2026-08-31 18:09:57 | 52.63505 | 15.19934 | 59° | 64km/h | 17335m | -4.2m/s | -51°C | 3.9% | 88.5hPa | 2.5V | 08:30:00 | 01:54:06 | 00:00:00 | |
| DL1XH-west | 2026-08-31 18:09:51 | 52.63459 | 15.19855 | 34° | 58km/h | 17349m | -3.1m/s | -50.7°C | 0.7% | 88.3hPa | 2.5V | 18:12:15 | 01:54:02 | 00:00:00 | |
| DL1XH1-15 | 2026-08-31 18:09:51 | 52.63418 | 15.19824 | 18° | 29km/h | 17362m | -3.7m/s | -50.3°C | 3.7% | 88.1hPa | 2.6V | 08:30:00 | 01:53:58 | 00:00:00 | |
| AA1-15 | 2026-08-31 18:09:50 | 52.63447 | 15.19844 | 28° | 51km/h | 17352m | -3.4m/s | -50.6°C | 0.6% | 88.2hPa | 2.5V | 18:12:15 | 01:54:01 | 00:00:00 | |
| SONDE2-12 | 2026-08-31 18:09:48 | 52.63418 | 15.19824 | 18° | 27km/h | 17362m | -3.7m/s | -50.3°C | 1.3% | 88.1hPa | 2.5V | 00:00:00 | 00:00:00 | 00:00:00 | |
| KRY50SP-1 | 2026-08-31 18:09:45 | 52.63409 | 15.19814 | 59° | 16km/h | 17370m | -3.9m/s | -49.8°C | 1.2% | 87.9hPa | 2.5V | 00:00:00 | 00:00:00 | 00:00:00 | |
| 3Z3Z-3 | 2026-08-31 18:09:44 | 52.63409 | 15.19814 | 59° | 16km/h | 17370m | -3.9m/s | -49.8°C | 1.2% | 87.9hPa | 2.5V | 00:00:00 | 00:00:00 | 00:00:00 | |
| MECKS9 | 2026-08-31 18:09:43 | 52.63408 | 15.19807 | 83° | 20km/h | 17374m | -4.1m/s | -49.6°C | 1.1% | 87.8hPa | 2.5V | 00:00:00 | 00:00:00 | 00:00:00 | |
| SONDE2-11 | 2026-08-31 18:09:42 | 52.63408 | 15.19783 | 92° | 37km/h | 17382m | -4.6m/s | -49.6°C | 1.1% | 87.7hPa | 2.5V | 00:00:00 | 00:00:00 | 00:00:00 | |
| DL1XH1-15 | 2026-08-31 18:09:41 | 52.63395 | 15.19672 | 63° | 68km/h | 17402m | -4m/s | -49.6°C | 3.6% | 87.5hPa | 2.5V | 08:30:00 | 01:53:48 | 00:00:00 | |
| DL1XH-west | 2026-08-31 18:09:41 | 52.63408 | 15.19766 | 89° | 44km/h | 17386m | -3.9m/s | -49.6°C | 0.4% | 87.7hPa | 2.6V | 18:12:15 | 01:53:52 | 00:00:00 | |
| AA1-15 | 2026-08-31 18:09:39 | 52.63406 | 15.19723 | 81° | 60km/h | 17394m | -4.2m/s | -49.7°C | 0.4% | 87.6hPa | 2.6V | 18:12:15 | 01:53:50 | 00:00:00 | |
| KRY50SP-1 | 2026-08-31 18:09:38 | 52.63406 | 15.19723 | 82° | 60km/h | 17395m | -4.2m/s | -49.7°C | 1.2% | 87.6hPa | 2.5V | 00:00:00 | 00:00:00 | 00:00:00 | |
| DM0DOS-11 | 2026-08-31 18:09:37 | 52.63376 | 15.19626 | 48° | 66km/h | 17409m | -3.9m/s | -49.5°C | 3.5% | 87.4hPa | 2.5V | 08:30:00 | 01:53:46 | 00:00:00 | |
| SP3WXH-11 | 2026-08-31 18:09:36 | 52.63376 | 15.19626 | 48° | 64km/h | 17410m | -3.9m/s | -49.5°C | 1.1% | 87.4hPa | 2.6V | 00:00:00 | 00:00:00 | 00:00:00 | |
| EDDB2-11 | 2026-08-31 18:09:35 | 52.63376 | 15.19626 | 48° | 64km/h | 17410m | -3.9m/s | -49.5°C | 1.1% | 87.4hPa | 2.6V | 00:00:00 | 00:00:00 | 00:00:00 | |
| DAC517 | 2026-08-31 18:09:34 | 52.63376 | 15.19626 | 49° | 66km/h | 17410m | -3.9m/s | -49.5°C | 1.1% | 87.4hPa | 2.6V | 00:00:00 | 00:00:00 | 00:00:00 | |
| KRY50SP-1 | 2026-08-31 18:09:33 | 52.63365 | 15.19608 | 43° | 60km/h | 17414m | -4.5m/s | -49.5°C | 1.1% | 87.3hPa | 2.6V | 00:00:00 | 00:00:00 | 00:00:00 | |
| 3Z3Z-3 | 2026-08-31 18:09:32 | 52.63354 | 15.19594 | 35° | 51km/h | 17418m | -4.3m/s | -49.4°C | 1.2% | 87.2hPa | 2.6V | 00:00:00 | 00:00:00 | 00:00:00 | |
| DL1XH1-15 | 2026-08-31 18:09:31 | 52.63323 | 15.19550 | 96° | 24km/h | 17441m | -4.1m/s | -49.2°C | 3.4% | 86.9hPa | 2.6V | 08:30:00 | 01:53:38 | 00:00:00 | |
| DL1XH-west | 2026-08-31 18:09:30 | 52.63329 | 15.19570 | 31° | 24km/h | 17429m | -3.7m/s | -49.4°C | 0.4% | 87.1hPa | 2.5V | 18:12:15 | 01:53:41 | 00:00:00 | |
| AA1-15 | 2026-08-31 18:09:29 | 52.63325 | 15.19565 | 51° | 18km/h | 17433m | -3.9m/s | -49.4°C | 0.4% | 87hPa | 2.5V | 18:12:15 | 01:53:40 | 00:00:00 | |
| DM0DOS-11 | 2026-08-31 18:09:27 | 52.63325 | 15.19522 | 96° | 42km/h | 17449m | -4.2m/s | -49.1°C | 3.3% | 86.8hPa | 2.6V | 08:30:00 | 01:53:36 | 00:00:00 | |
| DL1XH-west | 2026-08-31 18:09:19 | 52.63303 | 15.19383 | 54° | 66km/h | 17472m | -4.4m/s | -49.1°C | 0.3% | 86.5hPa | 2.5V | 18:12:15 | 01:53:30 | 00:00:00 | |
| AA1-15 | 2026-08-31 18:09:18 | 52.63293 | 15.19363 | 47° | 60km/h | 17476m | -4.1m/s | -49.1°C | 0.3% | 86.5hPa | 2.5V | 18:12:15 | 01:53:29 | 00:00:00 | |
| DM0DOS-11 | 2026-08-31 18:09:17 | 52.63264 | 15.19320 | 39° | 38km/h | 17489m | -4.4m/s | -49.2°C | 3.4% | 86.3hPa | 2.6V | 08:30:00 | 01:53:26 | 00:00:00 | |
| SONDE2-12 | 2026-08-31 18:09:17 | 52.63273 | 15.19332 | 39° | 47km/h | 17484m | -4.4m/s | -49.2°C | 1.2% | 86.4hPa | 2.5V | 00:00:00 | 00:00:00 | 00:00:00 | |
| KRY50SP-1 | 2026-08-31 18:09:16 | 52.63282 | 15.19346 | 43° | 55km/h | 17481m | -4.0m/s | -49.2°C | 1.1% | 86.4hPa | 2.5V | 00:00:00 | 00:00:00 | 00:00:00 | |
| 13BRC | 2026-08-31 18:09:15 | 52.63272 | 15.19332 | 40° | 47km/h | 17485m | -4.4m/s | -49.2°C | 1.1% | 86.4hPa | 2.5V | 00:00:00 | 00:00:00 | 00:00:00 | |
| DL1XH1-15 | 2026-08-31 18:09:11 | 52.63261 | 15.19190 | 86° | 58km/h | 17524m | -4.3m/s | -49.5°C | 3.5% | 85.8hPa | 2.5V | 08:30:00 | 01:53:17 | 00:00:00 | |
| AA1-15 | 2026-08-31 18:09:08 | 52.63258 | 15.19236 | 102° | 49km/h | 17515m | -4.3m/s | -49.5°C | 0.4% | 86hPa | 2.5V | 18:12:15 | 01:53:19 | 00:00:00 | |
| DM0DOS-11 | 2026-08-31 18:09:07 | 52.63259 | 15.19164 | 81° | 64km/h | 17528m | -3.9m/s | -49.5°C | 3.5% | 85.8hPa | 2.5V | 08:30:00 | 01:53:16 | 00:00:00 | |
| EDDB2-12 | 2026-08-31 18:09:05 | 52.63259 | 15.19164 | 81° | 64km/h | 17528m | -3.9m/s | -49.5°C | 1.1% | 85.8hPa | 2.6V | 00:00:00 | 00:00:00 | 00:00:00 | |
| KRY50SP-1 | 2026-08-31 18:09:04 | 52.63259 | 15.19164 | 82° | 64km/h | 17528m | -3.9m/s | -49.5°C | 1.1% | 85.8hPa | 2.6V | 00:00:00 | 00:00:00 | 00:00:00 | |
| DL1XH1-15 | 2026-08-31 18:09:01 | 52.63193 | 15.19014 | 52° | 24km/h | 17563m | -4.7m/s | -49.5°C | 3.5% | 85.3hPa | 2.6V | 08:30:00 | 01:53:07 | 00:00:00 | |
| DL1XH-west | 2026-08-31 18:08:58 | 52.63205 | 15.19030 | 34° | 37km/h | 17556m | -3.9m/s | -49.6°C | 0.4% | 85.5hPa | 2.5V | 18:12:15 | 01:53:09 | 00:00:00 | |
| DM0DOS-11 | 2026-08-31 18:08:57 | 52.63191 | 15.19006 | 78° | 20km/h | 17567m | -3.8m/s | -49.4°C | 3.4% | 85.3hPa | 2.6V | 08:30:00 | 01:53:06 | 00:00:00 | |
| AA1-15 | 2026-08-31 18:08:57 | 52.63198 | 15.19022 | 34° | 29km/h | 17560m | -3.7m/s | -49.5°C | 0.4% | 85.3hPa | 2.6V | 18:12:15 | 01:53:08 | 00:00:00 | |
| D01LWL | 2026-08-31 18:08:56 | 52.63191 | 15.19006 | 78° | 18km/h | 17567m | -3.8m/s | -49.4°C | 1.1% | 85.3hPa | 2.6V | 00:00:00 | 00:00:00 | 00:00:00 | |
| DB0DAN | 2026-08-31 18:08:55 | 52.63191 | 15.19006 | 78° | 18km/h | 17567m | -3.8m/s | -49.4°C | 1.1% | 85.3hPa | 2.6V | 00:00:00 | 00:00:00 | 00:00:00 | |
| S3001 | 2026-08-31 18:08:53 | 52.63192 | 15.18985 | 103° | 33km/h | 17575m | -4.3m/s | -49.1°C | 1.1% | 85.2hPa | 2.6V | 00:00:00 | 00:00:00 | 00:00:00 | |
| KRY50SP-1 | 2026-08-31 18:08:52 | 52.63192 | 15.18985 | 104° | 35km/h | 17575m | -4.3m/s | -49.1°C | 1.1% | 85.2hPa | 2.6V | 00:00:00 | 00:00:00 | 00:00:00 | |
| DL1XH1-15 | 2026-08-31 18:08:51 | 52.63182 | 15.18828 | 57° | 64km/h | 17602m | -3.4m/s | -49.1°C | 3.3% | 84.8hPa | 2.6V | 08:30:00 | 01:52:57 | 00:00:00 | |
| DL1XH-west | 2026-08-31 18:08:48 | 52.63195 | 15.18878 | 74° | 64km/h | 17594m | -4.2m/s | -49.1°C | 0.3% | 85hPa | 2.5V | 18:12:15 | 01:52:59 | 00:00:00 | |
| SONCRA | 2026-08-31 18:08:47 | 52.63189 | 15.18852 | 65° | 64km/h | 17598m | -3.9m/s | -49.1°C | 1.1% | 84.9hPa | 2.6V | 00:00:00 | 00:00:00 | 00:00:00 | |
| DM0DOS-11 | 2026-08-31 18:08:46 | 52.63173 | 15.18807 | 50° | 62km/h | 17605m | -3.5m/s | -49.1°C | 3.3% | 84.8hPa | 2.6V | 08:30:00 | 01:52:56 | 00:00:00 | |
| AA1-15 | 2026-08-31 18:08:46 | 52.63182 | 15.18828 | 58° | 64km/h | 17602m | -3.4m/s | -49.1°C | 0.3% | 84.8hPa | 2.6V | 18:12:15 | 01:52:57 | 00:00:00 | |
| SONDE2-12 | 2026-08-31 18:08:46 | 52.63173 | 15.18807 | 50° | 62km/h | 17605m | -3.5m/s | -49.1°C | 1.1% | 84.8hPa | 2.5V | 00:00:00 | 00:00:00 | 00:00:00 | |
| KRY50SP-1 | 2026-08-31 18:08:42 | 52.63152 | 15.18775 | 36° | 51km/h | 17612m | -3.4m/s | -49.2°C | 1.1% | 84.7hPa | 2.5V | 00:00:00 | 00:00:00 | 00:00:00 | |
| DL1XH1-15 | 2026-08-31 18:08:41 | 52.63119 | 15.18714 | 95° | 37km/h | 17640m | -3.8m/s | -49.5°C | 3.4% | 84.4hPa | 2.5V | 08:30:00 | 01:52:47 | 00:00:00 | |
| DB0DAN | 2026-08-31 18:08:40 | 52.63127 | 15.18749 | 30° | 26km/h | 17623m | -4.3m/s | -49.3°C | 1.1% | 84.55hPa | 2.6V | 00:00:00 | 00:00:00 | 00:00:00 | |
| DL1XH-west | 2026-08-31 18:08:38 | 52.63119 | 15.18736 | 75° | 20km/h | 17631m | -4.7m/s | -49.4°C | 0.4% | 84.4hPa | 2.5V | 18:12:15 | 01:52:49 | 00:00:00 | |
| 3Z3Z-3 | 2026-08-31 18:08:37 | 52.63119 | 15.18736 | 76° | 20km/h | 17632m | -4.7m/s | -49.4°C | 1.1% | 84.4hPa | 2.5V | 00:00:00 | 00:00:00 | 00:00:00 | |
| DM0DOS-11 | 2026-08-31 18:08:36 | 52.63120 | 15.18697 | 92° | 46km/h | 17643m | -3.9m/s | -49.5°C | 3.4% | 84.3hPa | 2.5V | 08:30:00 | 01:52:46 | 00:00:00 | |
| AA1-15 | 2026-08-31 18:08:35 | 52.63120 | 15.18697 | 93° | 46km/h | 17643m | -3.9m/s | -49.5°C | 0.4% | 84.3hPa | 2.5V | 18:12:15 | 01:52:46 | 00:00:00 | |
| SP3WXH-11 | 2026-08-31 18:08:34 | 52.63118 | 15.18653 | 78° | 58km/h | 17651m | -4.0m/s | -49.6°C | 1.1% | 84.2hPa | 2.5V | 00:00:00 | 00:00:00 | 00:00:00 | |
| EDDB2-11 | 2026-08-31 18:08:33 | 52.63118 | 15.18653 | 78° | 58km/h | 17651m | -4.0m/s | -49.6°C | 1.1% | 84.2hPa | 2.5V | 00:00:00 | 00:00:00 | 00:00:00 | |
| DL1XH1-15 | 2026-08-31 18:08:31 | 52.63056 | 15.18509 | 33° | 51km/h | 17679m | -5.1m/s | -49.7°C | 3.5% | 83.8hPa | 2.5V | 08:30:00 | 01:52:37 | 00:00:00 | |
| DL1XH-west | 2026-08-31 18:08:27 | 52.63067 | 15.18521 | 36° | 57km/h | 17674m | -4.6m/s | -49.7°C | 0.4% | 83.9hPa | 2.6V | 18:12:15 | 01:52:38 | 00:00:00 | |
| DM0DOS-11 | 2026-08-31 18:08:26 | 52.63046 | 15.18499 | 25° | 42km/h | 17684m | -4.1m/s | -49.7°C | 3.4% | 83.8hPa | 2.5V | 08:30:00 | 01:52:36 | 00:00:00 | |
| AA1-15 | 2026-08-31 18:08:24 | 52.63037 | 15.18492 | 23° | 31km/h | 17688m | -3.5m/s | -49.7°C | 0.4% | 83.7hPa | 2.5V | 18:12:15 | 01:52:35 | 00:00:00 | |
| SP3BTT-10 | 2026-08-31 18:08:24 | 52.63037 | 15.18492 | 24° | 35km/h | 17688m | -3.5m/s | -49.7°C | 3.4% | 83.7hPa | 2.6V | 00:00:00 | 00:00:00 | 00:00:00 | |
| S3001 | 2026-08-31 18:08:22 | 52.63028 | 15.18481 | 59° | 18km/h | 17695m | -3.9m/s | -49.8°C | 1.1% | 83.7hPa | 2.6V | 00:00:00 | 00:00:00 | 00:00:00 | |
| DL1XH1-15 | 2026-08-31 18:08:21 | 52.63026 | 15.18387 | 82° | 62km/h | 17718m | -3.9m/s | -49.9°C | 3.5% | 83.3hPa | 2.6V | 08:30:00 | 01:52:27 | 00:00:00 | |
| DM0DOS-11 | 2026-08-31 18:08:20 | 52.63022 | 15.18361 | 71° | 64km/h | 17722m | -4m/s | -50°C | 3.6% | 83.3hPa | 2.5V | 08:30:00 | 01:52:26 | 00:00:00 | |
| DL1XH-west | 2026-08-31 18:08:16 | 52.63026 | 15.18387 | 82° | 62km/h | 17718m | -3.9m/s | -50°C | 0.4% | 83.3hPa | 2.6V | 18:12:15 | 01:52:27 | 00:00:00 | |
| SONDE2-12 | 2026-08-31 18:08:14 | 52.63016 | 15.18336 | 64° | 66km/h | 17726m | -3.6m/s | -50.0°C | 1.2% | 83.2hPa | 2.5V | 00:00:00 | 00:00:00 | 00:00:00 | |
| AA1-15 | 2026-08-31 18:08:13 | 52.63008 | 15.18312 | 54° | 66km/h | 17729m | -3.8m/s | -50°C | 0.5% | 83.2hPa | 2.5V | 18:12:15 | 01:52:24 | 00:00:00 | |
| KRY50SP-1 | 2026-08-31 18:08:12 | 52.63008 | 15.18312 | 55° | 66km/h | 17730m | -3.8m/s | -50.0°C | 1.2% | 83.2hPa | 2.6V | 00:00:00 | 00:00:00 | 00:00:00 | |
| DM0DOS-11 | 2026-08-31 18:08:10 | 52.62947 | 15.18231 | 83° | 18km/h | 17762m | -4.4m/s | -50°C | 3.5% | 82.8hPa | 2.6V | 08:30:00 | 01:52:16 | 00:00:00 | |
| DL1XH-west | 2026-08-31 18:08:05 | 52.62948 | 15.18231 | 84° | 18km/h | 17762m | -4.4m/s | -50°C | 0.4% | 82.8hPa | 2.6V | 18:12:15 | 01:52:16 | 00:00:00 | |
| AA1-15 | 2026-08-31 18:08:02 | 52.62951 | 15.18196 | 100° | 40km/h | 17774m | -4.2m/s | -49.9°C | 0.4% | 82.6hPa | 2.5V | 18:12:15 | 01:52:13 | 00:00:00 | |
| KRY50SP-1 | 2026-08-31 18:08:01 | 52.62951 | 15.18196 | 101° | 40km/h | 17774m | -4.2m/s | -49.9°C | 1.1% | 82.6hPa | 2.6V | 00:00:00 | 00:00:00 | 00:00:00 | |
| DM0DOS-11 | 2026-08-31 18:08:00 | 52.62926 | 15.18045 | 46° | 55km/h | 17801m | -4.4m/s | -50°C | 3.5% | 82.3hPa | 2.6V | 08:30:00 | 01:52:06 | 00:00:00 | |
| DL1XH-west | 2026-08-31 18:07:55 | 52.62926 | 15.18045 | 46° | 55km/h | 17801m | -4.4m/s | -50°C | 0.4% | 82.3hPa | 2.6V | 18:12:15 | 01:52:06 | 00:00:00 | |
| AA1-15 | 2026-08-31 18:07:51 | 52.62895 | 15.18008 | 28° | 24km/h | 17818m | -4.2m/s | -50.1°C | 0.4% | 82.1hPa | 2.5V | 18:12:15 | 01:52:02 | 00:00:00 | |
| DL1XH1-15 | 2026-08-31 18:07:51 | 52.62891 | 15.18004 | 49° | 13km/h | 17821m | -3.7m/s | -50.1°C | 3.5% | 82.1hPa | 2.5V | 08:30:00 | 01:52:01 | 00:00:00 | |
| DL1XH-west | 2026-08-31 18:07:45 | 52.62899 | 15.17959 | 106° | 46km/h | 17841m | -4m/s | -50.3°C | 0.5% | 81.8hPa | 2.5V | 18:12:15 | 01:51:56 | 00:00:00 | |
| SONDE2-12 | 2026-08-31 18:07:43 | 52.62902 | 15.17918 | 88° | 55km/h | 17849m | -3.6m/s | -50.3°C | 1.2% | 81.7hPa | 2.6V | 00:00:00 | 00:00:00 | 00:00:00 | |
| DL1XH1-15 | 2026-08-31 18:07:42 | 52.62891 | 15.17852 | 63° | 55km/h | 17860m | -4m/s | -50.3°C | 3.6% | 81.6hPa | 2.6V | 08:30:00 | 01:51:51 | 00:00:00 | |
| AA1-15 | 2026-08-31 18:07:41 | 52.62897 | 15.17873 | 68° | 55km/h | 17855m | -4.1m/s | -50.3°C | 0.5% | 81.6hPa | 2.6V | 18:12:15 | 01:51:52 | 00:00:00 | |
| DL1XH-west | 2026-08-31 18:07:34 | 52.62855 | 15.17794 | 34° | 11km/h | 17884m | -4.3m/s | -50.4°C | 0.4% | 81.3hPa | 2.6V | 18:12:15 | 01:51:45 | 00:00:00 | |
| SP3WXH-11 | 2026-08-31 18:07:32 | 52.62858 | 15.17781 | 129° | 24km/h | 17895m | -4.4m/s | -50.4°C | 1.1% | 81.1hPa | 2.5V | 00:00:00 | 00:00:00 | 00:00:00 | |
| DL1XH1-15 | 2026-08-31 18:07:31 | 52.62873 | 15.17727 | 94° | 44km/h | 17909m | -4m/s | -50.5°C | 3.7% | 80.9hPa | 2.5V | 08:30:00 | 01:51:38 | 00:00:00 | |
| AA1-15 | 2026-08-31 18:07:30 | 52.62862 | 15.17772 | 126° | 29km/h | 17898m | -4.2m/s | -50.5°C | 0.4% | 81.1hPa | 2.6V | 18:12:15 | 01:51:41 | 00:00:00 | |
| MECKS9 | 2026-08-31 18:07:30 | 52.62862 | 15.17772 | 127° | 29km/h | 17899m | -4.2m/s | -50.4°C | 1.1% | 81.1hPa | 2.5V | 00:00:00 | 00:00:00 | 00:00:00 | |
| DAC517 | 2026-08-31 18:07:28 | 52.62870 | 15.17745 | 107° | 44km/h | 17906m | -3.8m/s | -50.5°C | 1.2% | 81.0hPa | 2.5V | 00:00:00 | 00:00:00 | 00:00:00 | |
| DB0DAN | 2026-08-31 18:07:25 | 52.62871 | 15.17688 | 72° | 47km/h | 17917m | -3.7m/s | -50.6°C | 1.2% | 80.82hPa | 2.5V | 00:00:00 | 00:00:00 | 00:00:00 | |
| DL1XH-west | 2026-08-31 18:07:24 | 52.62867 | 15.17669 | 65° | 46km/h | 17921m | -4.3m/s | -50.6°C | 0.5% | 80.8hPa | 2.5V | 18:12:15 | 01:51:35 | 00:00:00 | |
| KRY50SP-1 | 2026-08-31 18:07:23 | 52.62867 | 15.17669 | 66° | 46km/h | 17921m | -4.3m/s | -50.6°C | 1.2% | 80.8hPa | 2.6V | 00:00:00 | 00:00:00 | 00:00:00 | |
| D01LWL | 2026-08-31 18:07:22 | 52.62853 | 15.17643 | 43° | 38km/h | 17928m | -4.6m/s | -50.7°C | 1.2% | 80.7hPa | 2.6V | 00:00:00 | 00:00:00 | 00:00:00 | |
| DM0DOS-11 | 2026-08-31 18:07:20 | 52.62836 | 15.17622 | 148° | 18km/h | 17958m | -4.7m/s | -50.7°C | 3.6% | 80.3hPa | 2.6V | 08:30:00 | 01:51:26 | 00:00:00 | |
| AA1-15 | 2026-08-31 18:07:20 | 52.62840 | 15.17627 | 23° | 24km/h | 17937m | -4.5m/s | -50.7°C | 0.5% | 80.6hPa | 2.5V | 18:12:15 | 01:51:31 | 00:00:00 | |
| DL1XH-west | 2026-08-31 18:07:13 | 52.62846 | 15.17608 | 131° | 31km/h | 17966m | -4.3m/s | -50.7°C | 0.5% | 80.2hPa | 2.5V | 18:12:15 | 01:51:24 | 00:00:00 | |
| SONDE2-12 | 2026-08-31 18:07:12 | 52.62851 | 15.17596 | 117° | 38km/h | 17970m | -4.0m/s | -50.7°C | 1.2% | 80.2hPa | 2.5V | 00:00:00 | 00:00:00 | 00:00:00 | |
| DL1XH1-15 | 2026-08-31 18:07:11 | 52.62848 | 15.17514 | 53° | 42km/h | 17988m | -3.9m/s | -50.6°C | 3.6% | 80hPa | 2.5V | 08:30:00 | 01:51:18 | 00:00:00 | |
| DM0DOS-11 | 2026-08-31 18:07:10 | 52.62834 | 15.17492 | 33° | 33km/h | 17997m | -4.7m/s | -50.6°C | 3.6% | 79.8hPa | 2.6V | 08:30:00 | 01:51:16 | 00:00:00 | |
| AA1-15 | 2026-08-31 18:07:10 | 52.62856 | 15.17564 | 91° | 44km/h | 17977m | -3.7m/s | -50.7°C | 0.5% | 80.1hPa | 2.6V | 18:12:15 | 01:51:21 | 00:00:00 | |
| DB0DAN | 2026-08-31 18:07:10 | 52.62856 | 15.17564 | 91° | 42km/h | 17977m | -3.7m/s | -50.7°C | 1.2% | 80.08hPa | 2.6V | 00:00:00 | 00:00:00 | 00:00:00 | |
| DL1XH-west | 2026-08-31 18:07:02 | 52.62817 | 15.17486 | 341° | 16km/h | 18009m | -4.9m/s | -50.7°C | 0.5% | 79.7hPa | 2.5V | 18:12:15 | 01:51:13 | 00:00:00 | |
| SP3WXH-11 | 2026-08-31 18:07:01 | 52.62815 | 15.17490 | 233° | 7km/h | 18019m | -3.5m/s | -50.8°C | 1.2% | 79.6hPa | 2.5V | 00:00:00 | 00:00:00 | 00:00:00 | |
| DM0DOS-11 | 2026-08-31 18:07:00 | 52.62833 | 15.17463 | 107° | 33km/h | 18038m | -4.3m/s | -50.9°C | 3.7% | 79.3hPa | 2.5V | 08:30:00 | 01:51:06 | 00:00:00 | |
| AA1-15 | 2026-08-31 18:06:59 | 52.62817 | 15.17491 | 186° | 11km/h | 18023m | -4.6m/s | -50.8°C | 0.5% | 79.5hPa | 2.5V | 18:12:15 | 01:51:10 | 00:00:00 | |
| DB0DAN | 2026-08-31 18:06:55 | 52.62833 | 15.17463 | 107° | 31km/h | 18038m | -4.3m/s | -50.9°C | 1.2% | 79.32hPa | 2.5V | 00:00:00 | 00:00:00 | 00:00:00 | |
| D01LWL | 2026-08-31 18:06:51 | 52.62827 | 15.17404 | 47° | 38km/h | 18055m | -4.0m/s | -51.0°C | 1.2% | 79.2hPa | 2.6V | 00:00:00 | 00:00:00 | 00:00:00 | |
| DM0DOS-11 | 2026-08-31 18:06:50 | 52.62784 | 15.17387 | 313° | 18km/h | 18079m | -5.3m/s | -51.1°C | 3.6% | 78.8hPa | 2.6V | 08:30:00 | 01:50:56 | 00:00:00 | |
| AA1-15 | 2026-08-31 18:06:49 | 52.62811 | 15.17385 | 21° | 38km/h | 18062m | -4m/s | -51°C | 0.5% | 79.1hPa | 2.6V | 18:12:15 | 01:51:00 | 00:00:00 | |
| DL1XH-west | 2026-08-31 18:06:48 | 52.62803 | 15.17381 | 10° | 35km/h | 18066m | -4m/s | -51°C | 0.6% | 79hPa | 2.5V | 18:12:15 | 01:50:59 | 00:00:00 | |
| SONDE2-12 | 2026-08-31 18:06:41 | 52.62788 | 15.17399 | 167° | 15km/h | 18097m | -4.0m/s | -51.2°C | 1.2% | 78.6hPa | 2.5V | 00:00:00 | 00:00:00 | 00:00:00 | |
| DM0DOS-11 | 2026-08-31 18:06:40 | 52.62791 | 15.17330 | 56° | 38km/h | 18120m | -4.7m/s | -51.3°C | 3.7% | 78.3hPa | 2.5V | 08:30:00 | 01:50:46 | 00:00:00 | |
| AA1-15 | 2026-08-31 18:06:39 | 52.62795 | 15.17386 | 119° | 29km/h | 18104m | -3.9m/s | -51.3°C | 0.6% | 78.6hPa | 2.6V | 18:12:15 | 01:50:50 | 00:00:00 | |
| DL1XH-west | 2026-08-31 18:06:38 | 52.62798 | 15.17374 | 99° | 31km/h | 18108m | -4.6m/s | -51.3°C | 0.5% | 78.5hPa | 2.6V | 18:12:15 | 01:50:49 | 00:00:00 | |
| 3Z3Z-3 | 2026-08-31 18:06:37 | 52.62797 | 15.17374 | 100° | 31km/h | 18108m | -4.6m/s | -51.3°C | 1.2% | 78.5hPa | 2.5V | 00:00:00 | 00:00:00 | 00:00:00 | |
| SONDE2-11 | 2026-08-31 18:06:36 | 52.62796 | 15.17345 | 70° | 38km/h | 18116m | -4.1m/s | -51.3°C | 1.2% | 78.4hPa | 2.5V | 00:00:00 | 00:00:00 | 00:00:00 | |
| KRY50SP-1 | 2026-08-31 18:06:34 | 52.62791 | 15.17330 | 58° | 38km/h | 18120m | -4.7m/s | -51.3°C | 1.2% | 78.3hPa | 2.5V | 00:00:00 | 00:00:00 | 00:00:00 | |
| MECKS9 | 2026-08-31 18:06:33 | 52.62785 | 15.17318 | 41° | 38km/h | 18124m | -4.5m/s | -51.3°C | 1.2% | 78.3hPa | 2.5V | 00:00:00 | 00:00:00 | 00:00:00 | |
| AM1SDL-15 | 2026-08-31 18:06:32 | 52.62767 | 15.17303 | 17° | 22km/h | 18133m | -5.3m/s | -51.3°C | 3.7% | 78.2hPa | 2.5V | 00:00:00 | 01:50:43 | 00:00:00 | |
| 13BRC | 2026-08-31 18:06:31 | 52.62767 | 15.17303 | 17° | 38km/h | 18133m | -5.4m/s | -51.4°C | 1.2% | 78.2hPa | 2.5V | 00:00:00 | 00:00:00 | 00:00:00 | |
| DM0DOS-11 | 2026-08-31 18:06:30 | 52.62746 | 15.17311 | 150° | 16km/h | 18164m | -3.8m/s | -51.4°C | 3.7% | 77.8hPa | 2.5V | 08:30:00 | 01:50:36 | 00:00:00 | |
| AA1-15 | 2026-08-31 18:06:28 | 52.62744 | 15.17308 | 303° | 15km/h | 18152m | -3.9m/s | -51.3°C | 0.6% | 78hPa | 2.5V | 18:12:15 | 01:50:39 | 00:00:00 | |
| DL1XH-west | 2026-08-31 18:06:22 | 52.62755 | 15.17286 | 98° | 31km/h | 18176m | -4.7m/s | -51.5°C | 0.6% | 77.7hPa | 2.6V | 18:12:15 | 01:50:33 | 00:00:00 | |
| DM0DOS-11 | 2026-08-31 18:06:20 | 52.62714 | 15.17196 | 17° | 42km/h | 18206m | -5.7m/s | -51.6°C | 3.8% | 77.3hPa | 2.6V | 08:30:00 | 01:50:26 | 00:00:00 | |
| AA1-15 | 2026-08-31 18:06:17 | 52.62734 | 15.17213 | 35° | 47km/h | 18197m | -4.4m/s | -51.5°C | 0.6% | 77.4hPa | 2.5V | 18:12:15 | 01:50:28 | 00:00:00 | |
| SONCRA | 2026-08-31 18:06:12 | 52.62690 | 15.17194 | 345° | 22km/h | 18220m | -5.2m/s | -51.6°C | 1.2% | 77.2hPa | 2.5V | 00:00:00 | 00:00:00 | 00:00:00 | |
| DM0DOS-11 | 2026-08-31 18:06:10 | 52.62689 | 15.17162 | 85° | 37km/h | 18249m | -4.5m/s | -51.7°C | 3.8% | 76.8hPa | 2.5V | 08:30:00 | 01:50:16 | 00:00:00 | |
| DL2RXE-15 | 2026-08-31 18:06:09 | 52.62684 | 15.17198 | 312° | 7km/h | 18229m | -3.9m/s | -51.7°C | 1.2% | 77.1hPa | 2.5V | 00:00:00 | 00:00:00 | 00:00:00 | |
| DL1XH1-15 | 2026-08-31 18:06:08 | 52.62683 | 15.17128 | 64° | 47km/h | 18258m | -4.3m/s | -51.8°C | 3.8% | 76.7hPa | 2.5V | 08:30:00 | 01:50:14 | 00:00:00 | |
| DL1XH-west | 2026-08-31 18:06:06 | 52.62689 | 15.17176 | 96° | 29km/h | 18244m | -4.5m/s | -51.7°C | 0.6% | 76.9hPa | 2.6V | 18:12:15 | 01:50:17 | 00:00:00 | |
| SP6BVK | 2026-08-31 18:06:05 | 52.62689 | 15.17162 | 87° | 37km/h | 18249m | -4.6m/s | -51.7°C | 1.2% | 76.9hPa | 2.6V | 00:00:00 | 00:00:00 | 00:00:00 | |
| MECKS9 | 2026-08-31 18:06:04 | 52.62689 | 15.17162 | 87° | 37km/h | 18249m | -4.6m/s | -51.7°C | 1.2% | 76.9hPa | 2.6V | 00:00:00 | 00:00:00 | 00:00:00 | |
| KRY50SP-1 | 2026-08-31 18:06:02 | 52.62677 | 15.17111 | 55° | 51km/h | 18262m | -4.4m/s | -51.8°C | 1.2% | 76.7hPa | 2.6V | 00:00:00 | 00:00:00 | 00:00:00 | |
| DAC517 | 2026-08-31 18:06:01 | 52.62677 | 15.17111 | 55° | 51km/h | 18262m | -4.4m/s | -51.8°C | 1.2% | 76.7hPa | 2.6V | 00:00:00 | 00:00:00 | 00:00:00 | |
| DM0DOS-11 | 2026-08-31 18:06:00 | 52.62609 | 15.17061 | 341° | 24km/h | 18293m | -4.2m/s | -51.9°C | 3.8% | 76.3hPa | 2.6V | 08:30:00 | 01:50:06 | 00:00:00 | |
| DL1XH-west | 2026-08-31 18:05:55 | 52.62609 | 15.17061 | 342° | 24km/h | 18293m | -4.2m/s | -51.9°C | 0.6% | 76.3hPa | 2.6V | 18:12:15 | 01:50:06 | 00:00:00 | |
| MECKS9 | 2026-08-31 18:05:53 | 52.62604 | 15.17064 | 342° | 15km/h | 18298m | -4.7m/s | -51.9°C | 1.2% | 76.3hPa | 2.5V | 00:00:00 | 00:00:00 | 00:00:00 | |
| DM0DOS-11 | 2026-08-31 18:05:50 | 52.62582 | 15.16962 | 45° | 55km/h | 18336m | -5.1m/s | -52°C | 3.8% | 75.8hPa | 2.5V | 08:30:00 | 01:49:56 | 00:00:00 | |
| D01LWL | 2026-08-31 18:05:49 | 52.62601 | 15.17034 | 84° | 37km/h | 18319m | -4.5m/s | -52.0°C | 1.2% | 76.0hPa | 2.6V | 00:00:00 | 00:00:00 | 00:00:00 | |
| S3001 | 2026-08-31 18:05:47 | 52.62596 | 15.16999 | 67° | 49km/h | 18327m | -4.3m/s | -52.0°C | 1.2% | 75.9hPa | 2.6V | 00:00:00 | 00:00:00 | 00:00:00 | |
| DL1XH-west | 2026-08-31 18:05:44 | 52.62571 | 15.16948 | 36° | 55km/h | 18341m | -4.8m/s | -52.1°C | 0.7% | 75.8hPa | 2.6V | 18:12:15 | 01:49:55 | 00:00:00 | |
| SONDE2-12 | 2026-08-31 18:05:39 | 52.62518 | 15.16923 | 357° | 26km/h | 18364m | -4.9m/s | -52.2°C | 1.3% | 75.5hPa | 2.7V | 00:00:00 | 00:00:00 | 00:00:00 | |
| DAC517 | 2026-08-31 18:05:38 | 52.62518 | 15.16923 | 359° | 26km/h | 18365m | -4.9m/s | -52.2°C | 1.2% | 75.5hPa | 2.7V | 00:00:00 | 00:00:00 | 00:00:00 | |
| DL1XH1-15 | 2026-08-31 18:05:37 | 52.62503 | 15.16878 | 79° | 44km/h | 18394m | -4.1m/s | -52.4°C | 3.9% | 75.2hPa | 2.7V | 08:30:00 | 01:49:43 | 00:00:00 | |
| AA1-15 | 2026-08-31 18:05:33 | 52.62504 | 15.16894 | 86° | 37km/h | 18390m | -3.8m/s | -52.4°C | 0.6% | 75.2hPa | 2.5V | 18:12:15 | 01:49:44 | 00:00:00 | |
| DL1XH-west | 2026-08-31 18:05:31 | 52.62500 | 15.16858 | 72° | 53km/h | 18398m | -4.5m/s | -52.4°C | 0.7% | 75.1hPa | 2.6V | 18:12:15 | 01:49:42 | 00:00:00 | |
| DM0DOS-11 | 2026-08-31 18:05:30 | 52.62440 | 15.16755 | 19° | 51km/h | 18426m | -4.2m/s | -52.6°C | 4% | 74.8hPa | 2.6V | 08:30:00 | 01:49:36 | 00:00:00 | |
| AA1-15 | 2026-08-31 18:05:22 | 52.62411 | 15.16745 | 10° | 24km/h | 18440m | -5.2m/s | -52.6°C | 0.7% | 74.6hPa | 2.5V | 18:12:15 | 01:49:33 | 00:00:00 | |
| DM0DOS-11 | 2026-08-31 18:05:20 | 52.62397 | 15.16683 | 76° | 51km/h | 18471m | -4.7m/s | -52.6°C | 4% | 74.3hPa | 2.5V | 08:30:00 | 01:49:26 | 00:00:00 | |
| DL1XH-west | 2026-08-31 18:05:20 | 52.62403 | 15.16741 | 38° | 11km/h | 18448m | -3.9m/s | -52.7°C | 0.8% | 74.5hPa | 2.6V | 18:12:15 | 01:49:31 | 00:00:00 | |
| DL1XH1-15 | 2026-08-31 18:05:19 | 52.62393 | 15.16661 | 68° | 58km/h | 18476m | -4.4m/s | -52.5°C | 3.9% | 74.2hPa | 2.7V | 08:30:00 | 01:49:25 | 00:00:00 | |
| AA1-15 | 2026-08-31 18:05:11 | 52.62367 | 15.16596 | 46° | 66km/h | 18489m | -5.1m/s | -52.5°C | 0.6% | 74hPa | 2.5V | 18:12:15 | 01:49:22 | 00:00:00 | |
| DL1XH-west | 2026-08-31 18:05:09 | 52.62343 | 15.16566 | 27° | 57km/h | 18499m | -4.4m/s | -52.6°C | 0.7% | 74hPa | 2.5V | 18:12:15 | 01:49:20 | 00:00:00 | |
| SONDE2-12 | 2026-08-31 18:05:08 | 52.62331 | 15.16557 | 18° | 49km/h | 18504m | -4.0m/s | -52.6°C | 1.3% | 73.9hPa | 2.6V | 00:00:00 | 00:00:00 | 00:00:00 | |
| AA1-15 | 2026-08-31 18:05:01 | 52.62295 | 15.16516 | 96° | 31km/h | 18533m | -4.1m/s | -52.7°C | 0.7% | 73.5hPa | 2.6V | 18:12:15 | 01:49:12 | 00:00:00 | |
| DM0DOS-11 | 2026-08-31 18:05:00 | 52.62278 | 15.16396 | 54° | 62km/h | 18561m | -4.3m/s | -52.7°C | 4.1% | 73.2hPa | 2.7V | 08:30:00 | 01:49:06 | 00:00:00 | |
| DL1XH-west | 2026-08-31 18:04:58 | 52.62295 | 15.16462 | 81° | 53km/h | 18546m | -5.1m/s | -52.7°C | 0.7% | 73.3hPa | 2.5V | 18:12:15 | 01:49:09 | 00:00:00 | |
| DF8AY | 2026-08-31 18:04:56 | 52.62286 | 15.16418 | 62° | 60km/h | 18556m | -4.7m/s | -52.7°C | 0.8% | 73.3hPa | 2.7V | 18:12:15 | 01:49:07 | 00:00:00 | |
| EDDB2-11 | 2026-08-31 18:04:56 | 52.62278 | 15.16396 | 54° | 60km/h | 18561m | -4.3m/s | -52.7°C | 1.3% | 73.3hPa | 2.7V | 00:00:00 | 00:00:00 | 00:00:00 | |
| KRY50SP-1 | 2026-08-31 18:04:55 | 52.62278 | 15.16396 | 55° | 62km/h | 18561m | -4.3m/s | -52.7°C | 1.3% | 73.3hPa | 2.7V | 00:00:00 | 00:00:00 | 00:00:00 | |
| 3Z3Z-3 | 2026-08-31 18:04:53 | 52.62258 | 15.16362 | 35° | 51km/h | 18570m | -4.0m/s | -52.7°C | 1.3% | 73.2hPa | 2.7V | 00:00:00 | 00:00:00 | 00:00:00 | |
| DM0DOS-11 | 2026-08-31 18:04:50 | 52.62217 | 15.16326 | 110° | 24km/h | 18606m | -5m/s | -52.7°C | 3.9% | 72.7hPa | 2.7V | 08:30:00 | 01:48:56 | 00:00:00 | |
| AA1-15 | 2026-08-31 18:04:50 | 52.62230 | 15.16343 | 16° | 29km/h | 18581m | -5.4m/s | -52.7°C | 0.8% | 73hPa | 2.7V | 18:12:15 | 01:49:01 | 00:00:00 | |
| DL1XH-west | 2026-08-31 18:04:46 | 52.62216 | 15.16333 | 109° | 13km/h | 18601m | -5.1m/s | -52.7°C | 0.7% | 72.8hPa | 2.5V | 18:12:15 | 01:48:57 | 00:00:00 | |
| MECKS9 | 2026-08-31 18:04:44 | 52.62217 | 15.16326 | 112° | 24km/h | 18606m | -5.0m/s | -52.7°C | 1.2% | 72.7hPa | 2.5V | 00:00:00 | 00:00:00 | 00:00:00 | |
| KRY50SP-1 | 2026-08-31 18:04:43 | 52.62219 | 15.16315 | 107° | 33km/h | 18610m | -4.8m/s | -52.7°C | 1.3% | 72.6hPa | 2.5V | 00:00:00 | 00:00:00 | 00:00:00 | |
| SP6BVK | 2026-08-31 18:04:42 | 52.62221 | 15.16299 | 100° | 42km/h | 18615m | -4.3m/s | -52.7°C | 1.3% | 72.6hPa | 2.5V | 00:00:00 | 00:00:00 | 00:00:00 | |
| DM0DOS-11 | 2026-08-31 18:04:40 | 52.62177 | 15.16151 | 30° | 44km/h | 18652m | -5.4m/s | -52.7°C | 4% | 72.2hPa | 2.5V | 08:30:00 | 01:48:46 | 00:00:00 | |
| AA1-15 | 2026-08-31 18:04:39 | 52.62214 | 15.16215 | 62° | 57km/h | 18632m | -5.4m/s | -52.7°C | 0.8% | 72.4hPa | 2.5V | 18:12:15 | 01:48:50 | 00:00:00 | |
| SONDE2-12 | 2026-08-31 18:04:37 | 52.62197 | 15.16177 | 43° | 57km/h | 18642m | -4.9m/s | -52.7°C | 1.3% | 72.3hPa | 2.6V | 00:00:00 | 00:00:00 | 00:00:00 | |
| DL1XH-west | 2026-08-31 18:04:36 | 52.62187 | 15.16163 | 36° | 53km/h | 18646m | -5.4m/s | -52.7°C | 0.8% | 72.3hPa | 2.6V | 18:12:15 | 01:48:47 | 00:00:00 | |
| 3Z3Z-3 | 2026-08-31 18:04:34 | 52.62177 | 15.16151 | 32° | 44km/h | 18652m | -5.4m/s | -52.7°C | 1.3% | 72.2hPa | 2.6V | 00:00:00 | 00:00:00 | 00:00:00 | |
| KRY50SP-1 | 2026-08-31 18:04:33 | 52.62161 | 15.16139 | 12° | 24km/h | 18662m | -4.3m/s | -52.7°C | 1.3% | 72.1hPa | 2.6V | 00:00:00 | 00:00:00 | 00:00:00 | |
| SONDE2-11 | 2026-08-31 18:04:32 | 52.62153 | 15.16136 | 10° | 5km/h | 18671m | -4.2m/s | -52.7°C | 1.3% | 72.0hPa | 2.6V | 00:00:00 | 00:00:00 | 00:00:00 | |
| DM0DOS-11 | 2026-08-31 18:04:30 | 52.62162 | 15.16079 | 91° | 47km/h | 18699m | -4.7m/s | -52.8°C | 4% | 71.7hPa | 2.6V | 08:30:00 | 01:48:36 | 00:00:00 | |
| AA1-15 | 2026-08-31 18:04:28 | 52.62156 | 15.16123 | 120° | 24km/h | 18685m | -4.8m/s | -52.7°C | 0.8% | 71.8hPa | 2.5V | 18:12:15 | 01:48:39 | 00:00:00 | |
| DL1XH-west | 2026-08-31 18:04:25 | 52.62162 | 15.16079 | 91° | 47km/h | 18699m | -4.7m/s | -52.8°C | 0.8% | 71.7hPa | 2.6V | 18:12:15 | 01:48:36 | 00:00:00 | |
| DF8AY | 2026-08-31 18:04:22 | 52.62153 | 15.16016 | 61° | 51km/h | 18712m | -5m/s | -52.8°C | 0.8% | 71.5hPa | 2.5V | 18:12:15 | 01:48:33 | 00:00:00 | |
| KRY50SP-1 | 2026-08-31 18:04:22 | 52.62153 | 15.16016 | 62° | 51km/h | 18713m | -5.0m/s | -52.8°C | 1.3% | 71.5hPa | 2.6V | 00:00:00 | 00:00:00 | 00:00:00 | |
| SP6BVK | 2026-08-31 18:04:21 | 52.62153 | 15.16016 | 62° | 51km/h | 18713m | -5.0m/s | -52.8°C | 1.3% | 71.5hPa | 2.6V | 00:00:00 | 00:00:00 | 00:00:00 | |
| DM0DOS-11 | 2026-08-31 18:04:20 | 52.62103 | 15.15965 | 353° | 9km/h | 18742m | -4m/s | -52.9°C | 4.1% | 71.2hPa | 2.6V | 08:30:00 | 01:48:26 | 00:00:00 | |
| AA1-15 | 2026-08-31 18:04:17 | 52.62112 | 15.15965 | 7° | 27km/h | 18734m | -4.1m/s | -52.9°C | 0.8% | 71.3hPa | 2.5V | 18:12:15 | 01:48:28 | 00:00:00 | |
| DL1XH-west | 2026-08-31 18:04:15 | 52.62103 | 15.15965 | 353° | 9km/h | 18742m | -4.1m/s | -52.9°C | 0.8% | 71.2hPa | 2.6V | 18:12:15 | 01:48:26 | 00:00:00 | |
| S3001 | 2026-08-31 18:04:14 | 52.62104 | 15.15962 | 130° | 13km/h | 18750m | -4.6m/s | -52.9°C | 1.3% | 71.1hPa | 2.6V | 00:00:00 | 00:00:00 | 00:00:00 | |
| DL1XH1-15 | 2026-08-31 18:04:11 | 52.62118 | 15.15874 | 81° | 53km/h | 18777m | -5.8m/s | -52.9°C | 4.1% | 70.7hPa | 2.6V | 08:30:00 | 01:48:18 | 00:00:00 | |
| DM0DOS-11 | 2026-08-31 18:04:10 | 52.62110 | 15.15833 | 60° | 53km/h | 18787m | -5.1m/s | -53°C | 4.1% | 70.7hPa | 2.5V | 08:30:00 | 01:48:16 | 00:00:00 | |
| DF8AY | 2026-08-31 18:04:06 | 52.62115 | 15.15853 | 71° | 53km/h | 18782m | -5.6m/s | -52.9°C | 0.8% | 70.7hPa | 2.5V | 18:12:15 | 01:48:17 | 00:00:00 | |
| DL1XH-west | 2026-08-31 18:04:04 | 52.62102 | 15.15815 | 50° | 51km/h | 18792m | -4.6m/s | -53°C | 0.8% | 70.6hPa | 2.5V | 18:12:15 | 01:48:15 | 00:00:00 | |
| KRY50SP-1 | 2026-08-31 18:04:03 | 52.62103 | 15.15815 | 51° | 51km/h | 18792m | -4.6m/s | -53.0°C | 1.3% | 70.6hPa | 2.5V | 00:00:00 | 00:00:00 | 00:00:00 | |
| SONDE2-11 | 2026-08-31 18:04:01 | 52.62072 | 15.15780 | 9° | 20km/h | 18811m | -4.7m/s | -53.0°C | 1.3% | 70.4hPa | 2.5V | 00:00:00 | 00:00:00 | 00:00:00 | |
| DM0DOS-11 | 2026-08-31 18:04:00 | 52.62074 | 15.15771 | 137° | 26km/h | 18835m | -5.4m/s | -52.9°C | 4% | 70.2hPa | 2.5V | 08:30:00 | 01:48:06 | 00:00:00 | |
| AA1-15 | 2026-08-31 18:03:55 | 52.62074 | 15.15771 | 138° | 26km/h | 18835m | -5.4m/s | -52.9°C | 0.7% | 70.2hPa | 2.5V | 18:12:15 | 01:48:06 | 00:00:00 | |
| DB0DAN | 2026-08-31 18:03:55 | 52.62074 | 15.15771 | 138° | 26km/h | 18835m | -5.4m/s | -52.9°C | 1.2% | 70.18hPa | 2.5V | 00:00:00 | 00:00:00 | 00:00:00 | |
| DL1XH-west | 2026-08-31 18:03:53 | 52.62083 | 15.15749 | 116° | 40km/h | 18845m | -4.8m/s | -53°C | 0.8% | 70hPa | 2.5V | 18:12:15 | 01:48:04 | 00:00:00 | |
| DM0DOS-11 | 2026-08-31 18:03:50 | 52.62060 | 15.15634 | 5° | 27km/h | 18878m | -4.7m/s | -52.8°C | 4% | 69.6hPa | 2.6V | 08:30:00 | 01:47:56 | 00:00:00 | |
| DF8AY | 2026-08-31 18:03:48 | 52.62081 | 15.15659 | 54° | 44km/h | 18866m | -4.3m/s | -52.9°C | 0.8% | 69.8hPa | 2.5V | 18:12:15 | 01:47:59 | 00:00:00 | |
| D01LWL | 2026-08-31 18:03:45 | 52.62060 | 15.15634 | 5° | 26km/h | 18878m | -4.7m/s | -52.8°C | 1.3% | 69.6hPa | 2.5V | 00:00:00 | 00:00:00 | 00:00:00 | |
| AA1-15 | 2026-08-31 18:03:44 | 52.62055 | 15.15633 | 359° | 16km/h | 18883m | -5.3m/s | -52.8°C | 0.7% | 69.6hPa | 2.5V | 18:12:15 | 01:47:55 | 00:00:00 | |
| DL1XH-west | 2026-08-31 18:03:41 | 52.62050 | 15.15638 | 229° | 11km/h | 18899m | -4.6m/s | -52.8°C | 0.7% | 69.4hPa | 2.7V | 18:12:15 | 01:47:52 | 00:00:00 | |
| DM0DOS-11 | 2026-08-31 18:03:40 | 52.62078 | 15.15597 | 106° | 42km/h | 18924m | -4.7m/s | -52.9°C | 3.9% | 69.2hPa | 2.7V | 08:30:00 | 01:47:46 | 00:00:00 | |
| DB0DAN | 2026-08-31 18:03:40 | 52.62052 | 15.15640 | 189° | 16km/h | 18904m | -4.5m/s | -52.8°C | 1.3% | 69.4hPa | 2.6V | 00:00:00 | 00:00:00 | 00:00:00 | |
| SONDE2-12 | 2026-08-31 18:03:35 | 52.62078 | 15.15597 | 106° | 42km/h | 18924m | -4.7m/s | -52.9°C | 1.3% | 69.2hPa | 2.5V | 00:00:00 | 00:00:00 | 00:00:00 | |
| AA1-15 | 2026-08-31 18:03:33 | 52.62079 | 15.15561 | 82° | 46km/h | 18933m | -5.2m/s | -52.9°C | 0.7% | 69.1hPa | 2.5V | 18:12:15 | 01:47:44 | 00:00:00 | |
| DF8AY | 2026-08-31 18:03:31 | 52.62072 | 15.15526 | 60° | 42km/h | 18943m | -5.5m/s | -53°C | 0.8% | 69hPa | 2.5V | 18:12:15 | 01:47:42 | 00:00:00 | |
| DM0DOS-11 | 2026-08-31 18:03:30 | 52.62044 | 15.15500 | 256° | 4km/h | 18969m | -5m/s | -53.1°C | 4.1% | 68.7hPa | 2.5V | 08:30:00 | 01:47:36 | 00:00:00 | |
| DL1XH-west | 2026-08-31 18:03:27 | 52.62048 | 15.15497 | 359° | 16km/h | 18961m | -3.9m/s | -53.1°C | 0.8% | 68.8hPa | 2.7V | 18:12:15 | 01:47:38 | 00:00:00 | |
| DB0DAN | 2026-08-31 18:03:25 | 52.62044 | 15.15500 | 257° | 4km/h | 18969m | -5m/s | -53.1°C | 1.3% | 68.69hPa | 2.5V | 00:00:00 | 00:00:00 | 00:00:00 | |
| AA1-15 | 2026-08-31 18:03:22 | 52.62052 | 15.15494 | 139° | 26km/h | 18983m | -4.8m/s | -53.1°C | 0.8% | 68.6hPa | 2.6V | 18:12:15 | 01:47:33 | 00:00:00 | |
| KRY50SP-1 | 2026-08-31 18:03:21 | 52.62052 | 15.15494 | 140° | 26km/h | 18983m | -4.8m/s | -53.1°C | 1.3% | 68.6hPa | 2.5V | 00:00:00 | 00:00:00 | 00:00:00 | |
| DM0DOS-11 | 2026-08-31 18:03:20 | 52.62055 | 15.15382 | 52° | 47km/h | 19013m | -4.9m/s | -53.2°C | 4% | 68.2hPa | 2.5V | 08:30:00 | 01:47:26 | 00:00:00 | |
| DF8AY | 2026-08-31 18:03:17 | 52.62030 | 15.15345 | 28° | 42km/h | 19030m | -6.5m/s | -53.3°C | 0.7% | 68hPa | 2.7V | 18:12:15 | 01:47:23 | 00:00:00 | |
| DL1XH-west | 2026-08-31 18:03:16 | 52.62061 | 15.15400 | 67° | 51km/h | 19009m | -4.5m/s | -53.2°C | 0.8% | 68.3hPa | 2.7V | 18:12:15 | 01:47:27 | 00:00:00 | |
| AA1-15 | 2026-08-31 18:03:11 | 52.62022 | 15.15338 | 21° | 33km/h | 19036m | -6.1m/s | -53.3°C | 0.7% | 68hPa | 2.7V | 18:12:15 | 01:47:22 | 00:00:00 | |
| DB0DAN | 2026-08-31 18:03:10 | 52.62015 | 15.15333 | 16° | 24km/h | 19042m | -6m/s | -53.3°C | 1.3% | 67.96hPa | 2.5V | 00:00:00 | 00:00:00 | 00:00:00 | |
| DL1XH-west | 2026-08-31 18:03:05 | 52.62012 | 15.15316 | 120° | 26km/h | 19063m | -4.8m/s | -53.5°C | 0.9% | 67.7hPa | 2.6V | 18:12:15 | 01:47:16 | 00:00:00 | |
| SONDE2-12 | 2026-08-31 18:03:04 | 52.62016 | 15.15304 | 111° | 33km/h | 19068m | -5.1m/s | -53.5°C | 1.4% | 67.7hPa | 2.7V | 00:00:00 | 00:00:00 | 00:00:00 | |
| AA1-15 | 2026-08-31 18:03:01 | 52.62018 | 15.15253 | 79° | 46km/h | 19082m | -5.1m/s | -53.5°C | 0.9% | 67.5hPa | 2.7V | 18:12:15 | 01:47:12 | 00:00:00 | |
| DL1XH-west | 2026-08-31 18:02:55 | 52.61975 | 15.15168 | 16° | 37km/h | 19112m | -5m/s | -53.5°C | 0.9% | 67.2hPa | 2.6V | 18:12:15 | 01:47:06 | 00:00:00 | |
| AA1-15 | 2026-08-31 18:02:50 | 52.61956 | 15.15167 | 163° | 9km/h | 19136m | -5m/s | -53.3°C | 0.7% | 67hPa | 2.7V | 18:12:15 | 01:47:01 | 00:00:00 | |
| DJ2DS-15 | 2026-08-31 18:02:49 | 52.61958 | 15.15165 | 151° | 13km/h | 19141m | -5.2m/s | -53.3°C | 1.3% | 66.9hPa | 2.7V | 00:00:00 | 00:00:00 | 00:00:00 | |
| DL1XH-west | 2026-08-31 18:02:44 | 52.61971 | 15.15114 | 80° | 40km/h | 19166m | -3.9m/s | -53.3°C | 0.9% | 66.7hPa | 2.7V | 18:12:15 | 01:46:55 | 00:00:00 | |
| D01LWL | 2026-08-31 18:02:43 | 52.61968 | 15.15098 | 66° | 42km/h | 19170m | -3.7m/s | -53.3°C | 1.4% | 66.6hPa | 2.7V | 00:00:00 | 00:00:00 | 00:00:00 | |
| DM0DOS-11 | 2026-08-31 18:02:42 | 52.61936 | 15.15058 | 11° | 37km/h | 19188m | -6.1m/s | -53.3°C | 4.2% | 66.5hPa | 2.7V | 08:30:00 | 01:46:50 | 00:00:00 | |
| DF8AY | 2026-08-31 18:02:40 | 52.61945 | 15.15063 | 19° | 40km/h | 19182m | -5m/s | -53.4°C | 0.8% | 66.5hPa | 2.5V | 18:12:15 | 01:46:51 | 00:00:00 | |
| AA1-15 | 2026-08-31 18:02:39 | 52.61936 | 15.15058 | 12° | 37km/h | 19188m | -6.1m/s | -53.3°C | 0.9% | 66.5hPa | 2.7V | 18:12:15 | 01:46:50 | 00:00:00 | |
| SONDE2-12 | 2026-08-31 18:02:33 | 52.61910 | 15.15070 | 177° | 9km/h | 19218m | -4.4m/s | -53.3°C | 1.4% | 66.1hPa | 2.5V | 00:00:00 | 00:00:00 | 00:00:00 | |
| DL1XH-west | 2026-08-31 18:02:33 | 52.61910 | 15.15070 | 177° | 9km/h | 19218m | -4.4m/s | -53.4°C | 0.8% | 66.1hPa | 2.7V | 18:12:15 | 01:46:44 | 00:00:00 | |
| DM0DOS-11 | 2026-08-31 18:02:32 | 52.61921 | 15.15039 | 99° | 37km/h | 19237m | -4.6m/s | -53.4°C | 4.2% | 66hPa | 2.5V | 08:30:00 | 01:46:40 | 00:00:00 | |
| AA1-15 | 2026-08-31 18:02:28 | 52.61921 | 15.15023 | 85° | 42km/h | 19242m | -4.7m/s | -53.4°C | 0.9% | 65.9hPa | 2.7V | 18:12:15 | 01:46:39 | 00:00:00 | |
| DF8AY | 2026-08-31 18:02:27 | 52.61920 | 15.15005 | 72° | 44km/h | 19247m | -5.5m/s | -53.3°C | 0.9% | 65.9hPa | 2.6V | 18:12:15 | 01:46:38 | 00:00:00 | |
| DL1XH-west | 2026-08-31 18:02:23 | 52.61890 | 15.14944 | 25° | 46km/h | 19268m | -4.8m/s | -52.8°C | 0.7% | 65.6hPa | 2.7V | 18:12:15 | 01:46:34 | 00:00:00 | |
| AA1-15 | 2026-08-31 18:02:17 | 52.61853 | 15.14940 | 169° | 4km/h | 19294m | -4.1m/s | -52.9°C | 0.8% | 65.4hPa | 2.7V | 18:12:15 | 01:46:28 | 00:00:00 | |
| DF8AY | 2026-08-31 18:02:16 | 52.61854 | 15.14938 | 131° | 15km/h | 19298m | -4.7m/s | -53°C | 0.8% | 65.3hPa | 2.7V | 18:12:15 | 01:46:27 | 00:00:00 | |
| DL1XH-west | 2026-08-31 18:02:12 | 52.61864 | 15.14893 | 93° | 46km/h | 19316m | -4.8m/s | -53°C | 0.8% | 65.1hPa | 2.7V | 18:12:15 | 01:46:23 | 00:00:00 | |
| D01LWL | 2026-08-31 18:02:12 | 52.61863 | 15.14873 | 81° | 47km/h | 19320m | -5.3m/s | -53.0°C | 1.3% | 65.1hPa | 2.5V | 00:00:00 | 00:00:00 | 00:00:00 | |
| S3001 | 2026-08-31 18:02:10 | 52.61855 | 15.14834 | 59° | 49km/h | 19331m | -5.8m/s | -53.1°C | 1.3% | 65.0hPa | 2.5V | 00:00:00 | 00:00:00 | 00:00:00 | |
| 3Z3Z-3 | 2026-08-31 18:02:08 | 52.61848 | 15.14816 | 50° | 49km/h | 19337m | -5.6m/s | -53.0°C | 1.3% | 64.9hPa | 2.5V | 00:00:00 | 00:00:00 | 00:00:00 | |
| DL1XH1-15 | 2026-08-31 18:02:07 | 52.61797 | 15.14779 | 336° | 20km/h | 19370m | -4.8m/s | -53.1°C | 4.1% | 64.6hPa | 2.5V | 08:30:00 | 01:46:13 | 00:00:00 | |
| DF8AY | 2026-08-31 18:02:06 | 52.61829 | 15.14791 | 29° | 46km/h | 19347m | -5.4m/s | -53°C | 0.8% | 64.8hPa | 2.7V | 18:12:15 | 01:46:17 | 00:00:00 | |
| DL1XH-west | 2026-08-31 18:02:02 | 52.61797 | 15.14779 | 337° | 20km/h | 19370m | -4.8m/s | -53.2°C | 0.8% | 64.7hPa | 2.5V | 18:12:15 | 01:46:13 | 00:00:00 | |
| KRY50SP-1 | 2026-08-31 18:02:01 | 52.61797 | 15.14779 | 338° | 20km/h | 19370m | -4.8m/s | -53.2°C | 1.3% | 64.6hPa | 2.7V | 00:00:00 | 00:00:00 | 00:00:00 | |
| 13BRC | 2026-08-31 18:02:00 | 52.61793 | 15.14781 | 317° | 11km/h | 19376m | -4.4m/s | -53.2°C | 1.3% | 64.6hPa | 2.7V | 00:00:00 | 00:00:00 | 00:00:00 | |
| DL2RXE-15 | 2026-08-31 18:01:59 | 52.61792 | 15.14783 | 243° | 4km/h | 19380m | -4.6m/s | -53.2°C | 1.2% | 64.5hPa | 2.7V | 00:00:00 | 00:00:00 | 00:00:00 | |
| DB0NH | 2026-08-31 18:01:58 | 52.61795 | 15.14779 | 134° | 29km/h | 19390m | -4.6m/s | -53.2°C | 4.2% | 64.4hPa | 2.7V | 00:00:00 | 01:46:09 | 00:00:00 | |
| DL1XH1-15 | 2026-08-31 18:01:56 | 52.61784 | 15.14672 | 44° | 53km/h | 19423m | -5m/s | -53.1°C | 4% | 64.1hPa | 2.7V | 08:30:00 | 01:46:02 | 00:00:00 | |
| AA1-15 | 2026-08-31 18:01:55 | 52.61802 | 15.14745 | 91° | 40km/h | 19403m | -4.7m/s | -53°C | 0.8% | 64.3hPa | 2.7V | 18:12:15 | 01:46:06 | 00:00:00 | |
| DL1XH-west | 2026-08-31 18:01:52 | 52.61792 | 15.14689 | 56° | 53km/h | 19418m | -4.8m/s | -53.1°C | 0.8% | 64.2hPa | 2.5V | 18:12:15 | 01:46:03 | 00:00:00 | |
| SP3WXH-11 | 2026-08-31 18:01:51 | 52.61774 | 15.14658 | 32° | 51km/h | 19429m | -5.0m/s | -53.2°C | 1.2% | 64.0hPa | 2.7V | 00:00:00 | 00:00:00 | 00:00:00 | |
| EDDB2-11 | 2026-08-31 18:01:50 | 52.61763 | 15.14648 | 20° | 46km/h | 19434m | -4.7m/s | -53.2°C | 1.3% | 64.0hPa | 2.7V | 00:00:00 | 00:00:00 | 00:00:00 | |
| AA1-15 | 2026-08-31 18:01:44 | 52.61730 | 15.14647 | 307° | 9km/h | 19456m | -3.9m/s | -53.4°C | 0.8% | 63.8hPa | 2.7V | 18:12:15 | 01:45:55 | 00:00:00 | |
| DM0DOS-11 | 2026-08-31 18:01:41 | 52.61730 | 15.14588 | 59° | 42km/h | 19492m | -4.1m/s | -53.7°C | 4.4% | 63.4hPa | 2.5V | 08:30:00 | 01:45:47 | 00:00:00 | |
| DL1XH-west | 2026-08-31 18:01:41 | 52.61734 | 15.14645 | 132° | 16km/h | 19469m | -4.9m/s | -53.6°C | 0.9% | 63.7hPa | 2.5V | 18:12:15 | 01:45:52 | 00:00:00 | |
| DL1XH1-15 | 2026-08-31 18:01:40 | 52.61723 | 15.14573 | 47° | 44km/h | 19496m | -4.6m/s | -53.6°C | 4.4% | 63.4hPa | 2.7V | 08:30:00 | 01:45:46 | 00:00:00 | |
| DB0DAN | 2026-08-31 18:01:40 | 52.61736 | 15.14638 | 112° | 20km/h | 19474m | -5.2m/s | -53.6°C | 1.3% | 63.62hPa | 2.7V | 00:00:00 | 00:00:00 | 00:00:00 | |
| DF8AY | 2026-08-31 18:01:34 | 52.61715 | 15.14561 | 38° | 46km/h | 19501m | -4.5m/s | -53.6°C | 0.9% | 63.4hPa | 2.7V | 18:12:15 | 01:45:45 | 00:00:00 | |
| AA1-15 | 2026-08-31 18:01:33 | 52.61706 | 15.14551 | 25° | 46km/h | 19505m | -4.8m/s | -53.5°C | 0.9% | 63.3hPa | 2.6V | 18:12:15 | 01:45:44 | 00:00:00 | |
| SONDE2-12 | 2026-08-31 18:01:31 | 52.61685 | 15.14542 | 5° | 37km/h | 19514m | -5.2m/s | -53.3°C | 1.4% | 63.2hPa | 2.5V | 00:00:00 | 00:00:00 | 00:00:00 | |
| DL1XH-west | 2026-08-31 18:01:30 | 52.61676 | 15.14541 | 1° | 33km/h | 19519m | -5.9m/s | -53.3°C | 0.9% | 63.1hPa | 2.5V | 18:12:15 | 01:45:41 | 00:00:00 | |
| KRY50SP-1 | 2026-08-31 18:01:29 | 52.61676 | 15.14541 | 2° | 33km/h | 19519m | -5.9m/s | -53.3°C | 1.3% | 63.1hPa | 2.7V | 00:00:00 | 00:00:00 | 00:00:00 | |
| DB0NH | 2026-08-31 18:01:28 | 52.61662 | 15.14545 | 329° | 26km/h | 19529m | -4.2m/s | -53.3°C | 4.2% | 63.0hPa | 2.7V | 00:00:00 | 01:45:39 | 08:30:00 | |
| DB0DAN | 2026-08-31 18:01:25 | 52.61656 | 15.14561 | 257° | 11km/h | 19543m | -4.9m/s | -53.2°C | 1.3% | 62.9hPa | 2.5V | 00:00:00 | 00:00:00 | 00:00:00 | |
| AA1-15 | 2026-08-31 18:01:22 | 52.61664 | 15.14565 | 146° | 18km/h | 19557m | -5.2m/s | -53.2°C | 0.9% | 62.7hPa | 2.7V | 18:12:15 | 01:45:33 | 00:00:00 | |
| MECKS9 | 2026-08-31 18:01:21 | 52.61664 | 15.14565 | 147° | 18km/h | 19557m | -5.2m/s | -53.2°C | 1.3% | 62.7hPa | 2.5V | 00:00:00 | 00:00:00 | 00:00:00 | |
| DL1XH1-15 | 2026-08-31 18:01:20 | 52.61636 | 15.14495 | 9° | 42km/h | 19592m | -5.5m/s | -53.2°C | 4.3% | 62.4hPa | 2.5V | 08:30:00 | 01:45:25 | 00:00:00 | |
| DL1XH-west | 2026-08-31 18:01:19 | 52.61669 | 15.14541 | 84° | 27km/h | 19572m | -4.1m/s | -53.3°C | 0.9% | 62.6hPa | 2.5V | 18:12:15 | 01:45:30 | 00:00:00 | |
| DF8AY | 2026-08-31 18:01:18 | 52.61667 | 15.14530 | 65° | 33km/h | 19575m | -4m/s | -53.3°C | 1% | 62.6hPa | 2.7V | 18:12:15 | 01:45:29 | 00:00:00 | |
| AA1-15 | 2026-08-31 18:01:11 | 52.61606 | 15.14497 | 342° | 37km/h | 19610m | -6.5m/s | -52.8°C | 0.8% | 62.2hPa | 2.7V | 18:12:15 | 01:45:22 | 00:00:00 | |
| DB0DAN | 2026-08-31 18:01:10 | 52.61598 | 15.14503 | 328° | 29km/h | 19615m | -6.3m/s | -52.7°C | 1.3% | 62.22hPa | 2.5V | 00:00:00 | 00:00:00 | 00:00:00 | |
| D01LWL | 2026-08-31 18:01:10 | 52.61593 | 15.14509 | 313° | 22km/h | 19622m | -5.7m/s | -52.6°C | 1.3% | 62.2hPa | 2.5V | 00:00:00 | 00:00:00 | 00:00:00 | |
| DM0DOS-11 | 2026-08-31 18:01:09 | 52.61597 | 15.14513 | 122° | 18km/h | 19646m | -5.5m/s | -52.2°C | 3.9% | 61.9hPa | 2.5V | 08:30:00 | 01:45:15 | 00:00:00 | |
| DL1XH-west | 2026-08-31 18:01:09 | 52.61593 | 15.14509 | 314° | 22km/h | 19622m | -5.7m/s | -52.6°C | 0.8% | 62.2hPa | 2.5V | 18:12:15 | 01:45:20 | 00:00:00 | |
| AA1-15 | 2026-08-31 18:01:00 | 52.61595 | 15.14472 | 55° | 33km/h | 19669m | -4.8m/s | -52.2°C | 0.7% | 61.7hPa | 2.7V | 18:12:15 | 01:45:11 | 00:00:00 | |
| DL1XH-west | 2026-08-31 18:00:58 | 52.61582 | 15.14452 | 30° | 37km/h | 19678m | -4.8m/s | -52.2°C | 0.7% | 61.6hPa | 2.5V | 18:12:15 | 01:45:09 | 00:00:00 | |
| DB0NH | 2026-08-31 18:00:58 | 52.61582 | 15.14452 | 30° | 26km/h | 19679m | -4.8m/s | -52.2°C | 3.9% | 61.6hPa | 2.7V | 00:00:00 | 01:45:09 | 00:00:00 | |
| 3Z3Z-3 | 2026-08-31 18:00:57 | 52.61582 | 15.14452 | 31° | 37km/h | 19679m | -4.8m/s | -52.2°C | 1.2% | 61.6hPa | 2.7V | 00:00:00 | 00:00:00 | 00:00:00 | |
| DB0DAN | 2026-08-31 18:00:55 | 52.61554 | 15.14443 | 357° | 35km/h | 19693m | -4.8m/s | -52.3°C | 1.3% | 61.5hPa | 2.7V | 00:00:00 | 00:00:00 | 00:00:00 | |
| SONDE2-11 | 2026-08-31 18:00:55 | 52.61546 | 15.14444 | 347° | 31km/h | 19698m | -4.7m/s | -52.3°C | 1.3% | 61.5hPa | 2.5V | 00:00:00 | 00:00:00 | 00:00:00 | |
| AM1SDL-15 | 2026-08-31 18:00:54 | 52.61546 | 15.14444 | 348° | 20km/h | 19698m | -4.6m/s | -52.3°C | 4.1% | 61.4hPa | 2.5V | 00:00:00 | 01:45:05 | 08:30:00 | |
| SP3BTT-10 | 2026-08-31 18:00:53 | 52.61538 | 15.14447 | 343° | 15km/h | 19703m | -4.4m/s | -52.3°C | 4.1% | 61.4hPa | 2.7V | 00:00:00 | 00:00:00 | 00:00:00 | |
| KRY50SP-1 | 2026-08-31 18:00:51 | 52.61533 | 15.14451 | 340° | 20km/h | 19707m | -4.3m/s | -52.3°C | 1.3% | 61.4hPa | 2.7V | 00:00:00 | 00:00:00 | 00:00:00 | |
| DL1XH1-15 | 2026-08-31 18:00:50 | 52.61535 | 15.14423 | 118° | 27km/h | 19739m | -5m/s | -52.3°C | 3.9% | 61.1hPa | 2.7V | 08:30:00 | 01:44:56 | 00:00:00 | |
| AA1-15 | 2026-08-31 18:00:50 | 52.61527 | 15.14453 | 21° | 5km/h | 19715m | -4.4m/s | -52.2°C | 0.8% | 61.3hPa | 2.5V | 18:12:15 | 01:45:01 | 00:00:00 | |
| DM0DOS-11 | 2026-08-31 18:00:49 | 52.61538 | 15.14412 | 116° | 31km/h | 19744m | -5.4m/s | -52.2°C | 3.9% | 61hPa | 2.5V | 08:30:00 | 01:44:55 | 00:00:00 | |
| DL1XH-west | 2026-08-31 18:00:48 | 52.61528 | 15.14446 | 116° | 15km/h | 19725m | -4.6m/s | -52.3°C | 0.7% | 61.2hPa | 2.5V | 18:12:15 | 01:44:59 | 00:00:00 | |
| EDDB2-11 | 2026-08-31 18:00:48 | 52.61530 | 15.14440 | 113° | 18km/h | 19729m | -4.8m/s | -52.3°C | 1.2% | 61.2hPa | 2.7V | 00:00:00 | 00:00:00 | 00:00:00 | |
| KRY50SP-1 | 2026-08-31 18:00:45 | 52.61532 | 15.14432 | 120° | 22km/h | 19734m | -4.8m/s | -52.3°C | 1.2% | 61.1hPa | 2.7V | 00:00:00 | 00:00:00 | 00:00:00 | |
| AM1SDL-15 | 2026-08-31 18:00:42 | 52.61543 | 15.14389 | 102° | 27km/h | 19756m | -5.4m/s | -52.1°C | 3.9% | 60.9hPa | 2.7V | 00:00:00 | 01:44:53 | 00:00:00 | |
| MECKS9 | 2026-08-31 18:00:41 | 52.61543 | 15.14389 | 103° | 27km/h | 19756m | -5.5m/s | -52.2°C | 1.2% | 60.9hPa | 2.7V | 00:00:00 | 00:00:00 | 00:00:00 | |
| DAC517 | 2026-08-31 18:00:40 | 52.61531 | 15.14353 | 14° | 26km/h | 19779m | -4.7m/s | -52.2°C | 1.2% | 60.7hPa | 2.7V | 00:00:00 | 00:00:00 | 00:00:00 | |
| DL1XH1-15 | 2026-08-31 18:00:39 | 52.61509 | 15.14347 | 10° | 31km/h | 19794m | -5.3m/s | -52.2°C | 3.9% | 60.5hPa | 2.7V | 08:30:00 | 01:44:45 | 00:00:00 | |
| AA1-15 | 2026-08-31 18:00:39 | 52.61541 | 15.14361 | 46° | 22km/h | 19770m | -3.8m/s | -52.2°C | 0.8% | 60.8hPa | 2.5V | 18:12:15 | 01:44:50 | 00:00:00 | |
| DL1XH-west | 2026-08-31 18:00:38 | 52.61536 | 15.14356 | 25° | 22km/h | 19775m | -4.3m/s | -52.2°C | 0.7% | 60.8hPa | 2.5V | 18:12:15 | 01:44:49 | 00:00:00 | |
| DF8AY | 2026-08-31 18:00:37 | 52.61531 | 15.14353 | 13° | 26km/h | 19779m | -4.7m/s | -52.2°C | 0.7% | 60.7hPa | 2.5V | 18:12:15 | 01:44:48 | 00:00:00 | |
| DJ2DS-15 | 2026-08-31 18:00:37 | 52.61530 | 15.14353 | 13° | 20km/h | 19779m | -4.6m/s | -52.2°C | 3.9% | 60.7hPa | 2.7V | 00:00:00 | 01:44:48 | 00:00:00 | |
| S3001 | 2026-08-31 18:00:36 | 52.61524 | 15.14351 | 6° | 27km/h | 19784m | -5.0m/s | -52.2°C | 1.2% | 60.7hPa | 2.7V | 00:00:00 | 00:00:00 | 00:00:00 | |
| KRY50SP-1 | 2026-08-31 18:00:34 | 52.61517 | 15.14349 | 9° | 29km/h | 19789m | -5.3m/s | -52.2°C | 1.2% | 60.6hPa | 2.7V | 00:00:00 | 00:00:00 | 00:00:00 | |
| SP6BVK | 2026-08-31 18:00:33 | 52.61509 | 15.14347 | 12° | 31km/h | 19795m | -5.3m/s | -52.2°C | 1.2% | 60.5hPa | 2.7V | 00:00:00 | 00:00:00 | 00:00:00 | |
| DL2RXE-15 | 2026-08-31 18:00:31 | 52.61489 | 15.14332 | 42° | 29km/h | 19810m | -4.9m/s | -52.1°C | 1.2% | 60.5hPa | 2.7V | 00:00:00 | 00:00:00 | 00:00:00 | |
| AM1SDL-15 | 2026-08-31 18:00:30 | 52.61484 | 15.14323 | 54° | 18km/h | 19815m | -4.4m/s | -52.0°C | 3.9% | 60.3hPa | 2.7V | 00:00:00 | 01:44:41 | 00:00:00 | |
| DL1XH1-15 | 2026-08-31 18:00:29 | 52.61476 | 15.14277 | 62° | 13km/h | 19849m | -11.7m/s | -52.1°C | 3.9% | 60.1hPa | 2.7V | 08:30:00 | 01:44:35 | 00:00:00 | |
| SONDE2-12 | 2026-08-31 18:00:29 | 52.61480 | 15.14314 | 66° | 24km/h | 19819m | -4.3m/s | -52.1°C | 1.3% | 60.3hPa | 2.5V | 00:00:00 | 00:00:00 | 00:00:00 | |
| DL1XH-west | 2026-08-31 18:00:28 | 52.61479 | 15.14305 | 78° | 22km/h | 19823m | -4.3m/s | -52.1°C | 0.7% | 60.3hPa | 2.5V | 18:12:15 | 01:44:39 | 00:00:00 | |
| DF8AY | 2026-08-31 18:00:25 | 52.61477 | 15.14282 | 75° | 13km/h | 19840m | -6.5m/s | -52.1°C | 0.7% | 60.2hPa | 2.7V | 18:12:15 | 01:44:36 | 00:00:00 | |
| DJ2DS-15 | 2026-08-31 18:00:25 | 52.61476 | 15.14277 | 62° | 11km/h | 19849m | -11.7m/s | -52.2°C | 1.2% | 60.1hPa | 2.7V | 00:00:00 | 00:00:00 | 00:00:00 | |
| DB0DAN | 2026-08-31 18:00:25 | 52.61477 | 15.14282 | 75° | 13km/h | 19840m | -6.5m/s | -52.1°C | 1.2% | 60.16hPa | 2.7V | 00:00:00 | 00:00:00 | 00:00:00 | |
| SONDE2-11 | 2026-08-31 18:00:23 | 52.61474 | 15.14273 | 59° | 11km/h | 19856m | -2.1m/s | -52.1°C | 1.2% | 60.0hPa | 2.7V | 00:00:00 | 00:00:00 | 00:00:00 | |
| DL1XH1-15 | 2026-08-31 18:00:19 | 52.61462 | 15.14231 | 57° | 15km/h | 19816m | 4.7m/s | -52.1°C | 3.9% | 60.3hPa | 2.7V | 08:30:00 | 01:44:25 | 00:00:00 | |
| DL1XH-west | 2026-08-31 18:00:18 | 52.61468 | 15.14249 | 61° | 11km/h | 19834m | 4.8m/s | -52.2°C | 0.7% | 60.2hPa | 2.7V | 18:12:15 | 01:44:29 | 00:00:00 | |
| AA1-15 | 2026-08-31 18:00:17 | 52.61466 | 15.14245 | 59° | 13km/h | 19830m | 4m/s | -52.2°C | 0.7% | 60.2hPa | 2.6V | 18:12:15 | 01:44:28 | 00:00:00 | |
| DF8AY | 2026-08-31 18:00:15 | 52.61463 | 15.14236 | 65° | 13km/h | 19820m | 3.9m/s | -52.1°C | 0.7% | 60.3hPa | 2.7V | 18:12:15 | 01:44:26 | 00:00:00 | |
| SP6BVK | 2026-08-31 18:00:12 | 52.61459 | 15.14226 | 47° | 15km/h | 19811m | 5.0m/s | -52.2°C | 1.2% | 60.4hPa | 2.7V | 00:00:00 | 00:00:00 | 00:00:00 | |
| KRY50SP-1 | 2026-08-31 18:00:11 | 52.61457 | 15.14222 | 44° | 15km/h | 19807m | 3.9m/s | -52.2°C | 1.2% | 60.5hPa | 2.7V | 00:00:00 | 00:00:00 | 00:00:00 | |
| DL1XH1-15 | 2026-08-31 18:00:09 | 52.61440 | 15.14180 | 61° | 16km/h | 19767m | 4.8m/s | -52.2°C | 3.9% | 60.8hPa | 2.7V | 08:30:00 | 01:44:15 | 00:00:00 | |
| DO3MHA-11 | 2026-08-31 18:00:09 | 52.61449 | 15.14209 | 48° | 16km/h | 19793m | 5.4m/s | 0°C | 0% | 0hPa | 2.7V | 00:00:00 | 01:44:20 | 00:00:00 | |
| SP3BTT-10 | 2026-08-31 18:00:08 | 52.61447 | 15.14204 | 50° | 13km/h | 19788m | 4.6m/s | -52.2°C | 3.9% | 60.6hPa | 2.7V | 00:00:00 | 00:00:00 | 00:00:00 | |
| DM0DOS-11 | 2026-08-31 18:00:07 | 52.61435 | 15.14167 | 63° | 16km/h | 19758m | 5.5m/s | -52.2°C | 3.9% | 60.9hPa | 2.6V | 08:30:00 | 01:44:13 | 00:00:00 | |
| DL1XH-west | 2026-08-31 18:00:07 | 52.61445 | 15.14199 | 58° | 16km/h | 19782m | 6.1m/s | -52.2°C | 0.7% | 60.7hPa | 2.5V | 18:12:15 | 01:44:18 | 00:00:00 | |
| AA1-15 | 2026-08-31 18:00:06 | 52.61443 | 15.14193 | 69° | 16km/h | 19777m | 4m/s | -52.3°C | 0.7% | 60.7hPa | 2.6V | 18:12:15 | 01:44:17 | 00:00:00 | |
| DF8AY | 2026-08-31 18:00:02 | 52.61435 | 15.14167 | 64° | 16km/h | 19758m | 5.5m/s | -52.2°C | 0.7% | 60.9hPa | 2.6V | 18:12:15 | 01:44:13 | 00:00:00 | |
| SONDE2-12 | 2026-08-31 17:59:58 | 52.61428 | 15.14143 | 50° | 15km/h | 19739m | 4.3m/s | -52.3°C | 1.3% | 61.1hPa | 2.7V | 00:00:00 | 00:00:00 | 00:00:00 | |
| DL1XH-west | 2026-08-31 17:59:57 | 52.61425 | 15.14138 | 50° | 15km/h | 19734m | 4.8m/s | -52.3°C | 0.8% | 61.1hPa | 2.7V | 18:12:15 | 01:44:08 | 00:00:00 | |
| AA1-15 | 2026-08-31 17:59:55 | 52.61421 | 15.14128 | 52° | 15km/h | 19725m | 3.9m/s | -52.3°C | 0.7% | 61.2hPa | 2.6V | 18:12:15 | 01:44:06 | 00:00:00 | |
| DB0DAN | 2026-08-31 17:59:55 | 52.61421 | 15.14128 | 52° | 13km/h | 19725m | 3.9m/s | -52.3°C | 1.2% | 61.21hPa | 2.6V | 00:00:00 | 00:00:00 | 00:00:00 | |
| DF8AY | 2026-08-31 17:59:52 | 52.61412 | 15.14117 | 31° | 15km/h | 19711m | 4.6m/s | -52.3°C | 0.7% | 61.4hPa | 2.7V | 18:12:15 | 01:44:03 | 00:00:00 | |
| DJ2DS-15 | 2026-08-31 17:59:49 | 52.61396 | 15.14099 | 35° | 16km/h | 19687m | 4.8m/s | -52.3°C | 1.2% | 61.5hPa | 2.7V | 00:00:00 | 00:00:00 | 00:00:00 | |
| KRY50SP-1 | 2026-08-31 17:59:48 | 52.61403 | 15.14106 | 34° | 16km/h | 19696m | 5.7m/s | -52.3°C | 1.2% | 61.4hPa | 2.7V | 00:00:00 | 00:00:00 | 00:00:00 | |
| DM0DOS-11 | 2026-08-31 17:59:48 | 52.61392 | 15.14094 | 40° | 16km/h | 19682m | 5.1m/s | 0°C | 0% | 0hPa | 2.6V | 08:30:00 | 01:43:57 | 00:00:00 | |
| DL1XH1-15 | 2026-08-31 17:59:47 | 52.61378 | 15.14079 | 19° | 15km/h | 19661m | 5.2m/s | -52.2°C | 3.8% | 61.8hPa | 2.7V | 08:30:00 | 01:43:53 | 00:00:00 | |
| EDDB2-12 | 2026-08-31 17:59:47 | 52.61392 | 15.14094 | 40° | 16km/h | 19682m | 5.1m/s | -52.2°C | 1.2% | 61.6hPa | 2.7V | 00:00:00 | 00:00:00 | 00:00:00 | |
| SP3WXH-11 | 2026-08-31 17:59:46 | 52.61392 | 15.14094 | 40° | 16km/h | 19682m | 5.1m/s | -52.2°C | 1.2% | 61.6hPa | 2.7V | 00:00:00 | 00:00:00 | 00:00:00 | |
| EDDB2-11 | 2026-08-31 17:59:45 | 52.61389 | 15.14090 | 41° | 15km/h | 19677m | 4.4m/s | -52.2°C | 1.2% | 61.6hPa | 2.7V | 00:00:00 | 00:00:00 | 00:00:00 | |
| AA1-15 | 2026-08-31 17:59:44 | 52.61386 | 15.14086 | 36° | 16km/h | 19672m | 5.8m/s | -52.2°C | 0.7% | 61.7hPa | 2.7V | 18:12:15 | 01:43:55 | 00:00:00 | |
| DF8AY | 2026-08-31 17:59:41 | 52.61375 | 15.14078 | 17° | 15km/h | 19657m | 5m/s | -52.2°C | 0.6% | 61.9hPa | 2.6V | 18:12:15 | 01:43:52 | 00:00:00 | |
| DB0DAN | 2026-08-31 17:59:40 | 52.61372 | 15.14076 | 15° | 15km/h | 19652m | 3.5m/s | -52.2°C | 1.2% | 61.91hPa | 2.6V | 00:00:00 | 00:00:00 | 00:00:00 | |
| DM0DOS-11 | 2026-08-31 17:59:38 | 52.61353 | 15.14067 | 22° | 22km/h | 19632m | 5.8m/s | -52.6°C | 3.8% | 62hPa | 2.6V | 08:30:00 | 01:43:47 | 00:00:00 | |
| DL1XH-west | 2026-08-31 17:59:34 | 52.61343 | 15.14060 | 24° | 20km/h | 19622m | 5.4m/s | -52.7°C | 0.7% | 62.1hPa | 2.6V | 18:12:15 | 01:43:45 | 00:00:00 | |
| AA1-15 | 2026-08-31 17:59:33 | 52.61339 | 15.14057 | 21° | 18km/h | 19617m | 3.9m/s | -52.8°C | 0.7% | 62.2hPa | 2.7V | 18:12:15 | 01:43:44 | 00:00:00 | |
| DF8AY | 2026-08-31 17:59:30 | 52.61329 | 15.14051 | 12° | 11km/h | 19601m | 5.9m/s | -53.2°C | 0.8% | 62.4hPa | 2.6V | 18:12:15 | 01:43:41 | 00:00:00 | |
| DM0DOS-11 | 2026-08-31 17:59:28 | 52.61319 | 15.14049 | 11° | 7km/h | 19577m | 5.2m/s | -53.2°C | 4.1% | 62.6hPa | 2.6V | 08:30:00 | 01:43:36 | 00:00:00 | |
| SONDE2-12 | 2026-08-31 17:59:27 | 52.61322 | 15.14050 | 3° | 5km/h | 19587m | 5.9m/s | -53.2°C | 1.3% | 62.5hPa | 2.6V | 00:00:00 | 00:00:00 | 00:00:00 | |
| DB0DAN | 2026-08-31 17:59:25 | 52.61319 | 15.14049 | 12° | 7km/h | 19577m | 5.2m/s | -53.2°C | 1.3% | 62.59hPa | 2.6V | 00:00:00 | 00:00:00 | 00:00:00 | |
| DL1XH-west | 2026-08-31 17:59:23 | 52.61313 | 15.14046 | 18° | 15km/h | 19568m | 4.2m/s | -53.2°C | 0.8% | 62.7hPa | 2.7V | 18:12:15 | 01:43:34 | 00:00:00 | |
| AA1-15 | 2026-08-31 17:59:22 | 52.61310 | 15.14044 | 21° | 15km/h | 19563m | 5.3m/s | -53.2°C | 0.9% | 62.8hPa | 2.7V | 18:12:15 | 01:43:33 | 00:00:00 | |
| DF8AY | 2026-08-31 17:59:20 | 52.61303 | 15.14039 | 22° | 16km/h | 19553m | 4.8m/s | -53.2°C | 0.8% | 62.8hPa | 2.6V | 18:12:15 | 01:43:31 | 00:00:00 | |
| KRY50SP-1 | 2026-08-31 17:59:19 | 52.61303 | 15.14039 | 23° | 16km/h | 19553m | 4.8m/s | -53.2°C | 1.3% | 62.8hPa | 2.6V | 00:00:00 | 00:00:00 | 00:00:00 | |
| DM0DOS-11 | 2026-08-31 17:59:17 | 52.61282 | 15.14026 | 23° | 16km/h | 19528m | 5.1m/s | -53.2°C | 4.1% | 63.1hPa | 2.6V | 08:30:00 | 01:43:26 | 00:00:00 | |
| DL1XH-west | 2026-08-31 17:59:13 | 52.61274 | 15.14020 | 21° | 18km/h | 19518m | 3.9m/s | -53.3°C | 0.8% | 63.2hPa | 2.6V | 18:12:15 | 01:43:24 | 00:00:00 | |
| AA1-15 | 2026-08-31 17:59:11 | 52.61266 | 15.14014 | 34° | 16km/h | 19508m | 5.3m/s | -53.3°C | 0.9% | 63.3hPa | 2.7V | 18:12:15 | 01:43:22 | 00:00:00 | |
| DB0DAN | 2026-08-31 17:59:10 | 52.61263 | 15.14010 | 38° | 16km/h | 19504m | 4.4m/s | -53.5°C | 1.3% | 63.31hPa | 2.6V | 00:00:00 | 00:00:00 | 00:00:00 | |
| DF8AY | 2026-08-31 17:59:09 | 52.61260 | 15.14006 | 36° | 16km/h | 19499m | 5.5m/s | -53.6°C | 0.9% | 63.3hPa | 2.6V | 18:12:15 | 01:43:20 | 00:00:00 | |
| DL1XH1-15 | 2026-08-31 17:59:09 | 52.61243 | 15.13979 | 40° | 20km/h | 19473m | 4.9m/s | -53.5°C | 4.3% | 63.6hPa | 2.6V | 08:30:00 | 01:43:15 | 00:00:00 | |
| DM0DOS-11 | 2026-08-31 17:59:07 | 52.61247 | 15.13985 | 48° | 18km/h | 19479m | 6.2m/s | -53.6°C | 4.3% | 63.5hPa | 2.7V | 08:30:00 | 01:43:16 | 00:00:00 | |
| DL1XH-west | 2026-08-31 17:59:02 | 52.61235 | 15.13968 | 40° | 22km/h | 19464m | 5.8m/s | -53.4°C | 0.9% | 63.7hPa | 2.6V | 18:12:15 | 01:43:13 | 00:00:00 | |
| AA1-15 | 2026-08-31 17:59:01 | 52.61231 | 15.13961 | 45° | 24km/h | 19458m | 5m/s | -53.4°C | 0.9% | 63.8hPa | 2.7V | 18:12:15 | 01:43:12 | 00:00:00 | |
| DF8AY | 2026-08-31 17:58:58 | 52.61217 | 15.13941 | 39° | 26km/h | 19444m | 4.7m/s | -53.2°C | 0.9% | 63.9hPa | 2.6V | 18:12:15 | 01:43:09 | 00:00:00 | |
| SONDE2-12 | 2026-08-31 17:58:56 | 52.61208 | 15.13927 | 46° | 22km/h | 19433m | 5.0m/s | -53.2°C | 1.4% | 64.1hPa | 2.6V | 00:00:00 | 00:00:00 | 00:00:00 | |
| DB0DAN | 2026-08-31 17:58:55 | 52.61204 | 15.13920 | 45° | 22km/h | 19428m | 5.9m/s | -53.1°C | 1.3% | 64.09hPa | 2.6V | 00:00:00 | 00:00:00 | 00:00:00 | |
| DL1XH-west | 2026-08-31 17:58:52 | 52.61192 | 15.13899 | 52° | 22km/h | 19412m | 5.4m/s | -53°C | 0.8% | 64.2hPa | 2.7V | 18:12:15 | 01:43:03 | 00:00:00 | |
| AA1-15 | 2026-08-31 17:58:51 | 52.61188 | 15.13892 | 52° | 22km/h | 19407m | 4.8m/s | -53°C | 0.8% | 64.3hPa | 2.7V | 18:12:15 | 01:43:02 | 00:00:00 | |
| DF8AY | 2026-08-31 17:58:48 | 52.61178 | 15.13873 | 49° | 20km/h | 19392m | 5.7m/s | -53.1°C | 0.9% | 64.5hPa | 2.6V | 18:12:15 | 01:42:59 | 00:00:00 | |
| DM0DOS-11 | 2026-08-31 17:58:47 | 52.61169 | 15.13853 | 50° | 20km/h | 19376m | 5m/s | -53°C | 4.2% | 64.6hPa | 2.7V | 08:30:00 | 01:42:56 | 00:00:00 | |
| DL1XH-west | 2026-08-31 17:58:41 | 52.61156 | 15.13822 | 61° | 24km/h | 19356m | 5.3m/s | -52.9°C | 0.8% | 64.8hPa | 2.7V | 18:12:15 | 01:42:52 | 00:00:00 | |
| AA1-15 | 2026-08-31 17:58:40 | 52.61152 | 15.13813 | 57° | 24km/h | 19351m | 5.4m/s | -52.9°C | 0.8% | 64.9hPa | 2.7V | 18:12:15 | 01:42:51 | 00:00:00 | |
| DB0DAN | 2026-08-31 17:58:40 | 52.61152 | 15.13813 | 57° | 24km/h | 19351m | 5.4m/s | -52.9°C | 1.3% | 64.86hPa | 2.7V | 00:00:00 | 00:00:00 | 00:00:00 | |
| DF8AY | 2026-08-31 17:58:37 | 52.61143 | 15.13786 | 62° | 26km/h | 19336m | 4.3m/s | -52.9°C | 0.8% | 65hPa | 2.6V | 18:12:15 | 01:42:48 | 00:00:00 | |
| DL1XH-west | 2026-08-31 17:58:31 | 52.61123 | 15.13736 | 55° | 26km/h | 19306m | 5.7m/s | -52.8°C | 0.8% | 65.3hPa | 2.7V | 18:12:15 | 01:42:42 | 00:00:00 | |
| AA1-15 | 2026-08-31 17:58:29 | 52.61115 | 15.13719 | 53° | 27km/h | 19296m | 4.9m/s | -52.7°C | 0.7% | 65.4hPa | 2.6V | 18:12:15 | 01:42:40 | 00:00:00 | |
| DF8AY | 2026-08-31 17:58:26 | 52.61102 | 15.13688 | 54° | 31km/h | 19280m | 6.1m/s | -52.7°C | 0.7% | 65.6hPa | 2.7V | 18:12:15 | 01:42:37 | 00:00:00 | |
| SONDE2-12 | 2026-08-31 17:58:25 | 52.61089 | 15.13659 | 56° | 26km/h | 19266m | 5.1m/s | -52.6°C | 1.3% | 65.7hPa | 2.7V | 00:00:00 | 00:00:00 | 00:00:00 | |
| DL1XH-west | 2026-08-31 17:58:20 | 52.61078 | 15.13633 | 49° | 24km/h | 19250m | 4.8m/s | -52.6°C | 0.7% | 65.8hPa | 2.7V | 18:12:15 | 01:42:31 | 00:00:00 | |
| AA1-15 | 2026-08-31 17:58:18 | 52.61071 | 15.13619 | 53° | 22km/h | 19241m | 6m/s | -52.6°C | 0.7% | 66hPa | 2.6V | 18:12:15 | 01:42:29 | 00:00:00 | |
| DF8AY | 2026-08-31 17:58:16 | 52.61065 | 15.13605 | 55° | 20km/h | 19230m | 5.2m/s | -52.9°C | 0.7% | 66.1hPa | 2.7V | 18:12:15 | 01:42:27 | 00:00:00 | |
| DM0DOS-11 | 2026-08-31 17:58:14 | 52.61040 | 15.13563 | 29° | 16km/h | 19195m | 4.1m/s | -53.1°C | 4.1% | 66.5hPa | 2.7V | 08:30:00 | 01:42:20 | 00:00:00 | |
| DL1XH-west | 2026-08-31 17:58:09 | 52.61040 | 15.13563 | 29° | 16km/h | 19195m | 4.1m/s | -53.1°C | 0.8% | 66.5hPa | 2.7V | 18:12:15 | 01:42:20 | 00:00:00 | |
| AA1-15 | 2026-08-31 17:58:07 | 52.61033 | 15.13555 | 39° | 15km/h | 19185m | 5.4m/s | -53.1°C | 0.8% | 66.5hPa | 2.6V | 18:12:15 | 01:42:18 | 00:00:00 | |
| DL1XH1-15 | 2026-08-31 17:58:06 | 52.61018 | 15.13529 | 61° | 16km/h | 19155m | 4.8m/s | -53°C | 4% | 66.8hPa | 2.7V | 08:30:00 | 01:42:12 | 00:00:00 | |
| DF8AY | 2026-08-31 17:58:06 | 52.61031 | 15.13551 | 47° | 15km/h | 19180m | 4.3m/s | -53.1°C | 0.7% | 66.6hPa | 2.6V | 18:12:15 | 01:42:17 | 00:00:00 | |
| DL1XH-west | 2026-08-31 17:57:58 | 52.61012 | 15.13512 | 59° | 15km/h | 19140m | 4.3m/s | -53.1°C | 0.8% | 67hPa | 2.6V | 18:12:15 | 01:42:09 | 00:00:00 | |
| DJ2DS-15 | 2026-08-31 17:57:57 | 52.61010 | 15.13506 | 62° | 26km/h | 19135m | 5.1m/s | -53.0°C | 4.1% | 67.0hPa | 2.6V | 00:00:00 | 01:42:08 | 08:30:00 | |
| DL1XH1-15 | 2026-08-31 17:57:56 | 52.60994 | 15.13465 | 58° | 24km/h | 19104m | 5.5m/s | -53.2°C | 4.1% | 67.3hPa | 2.6V | 08:30:00 | 01:42:02 | 00:00:00 | |
| AA1-15 | 2026-08-31 17:57:56 | 52.61009 | 15.13500 | 65° | 18km/h | 19130m | 5.4m/s | -53°C | 0.8% | 67.1hPa | 2.7V | 18:12:15 | 01:42:07 | 00:00:00 | |
| DF8AY | 2026-08-31 17:57:55 | 52.61007 | 15.13493 | 60° | 20km/h | 19125m | 4.6m/s | -53°C | 0.8% | 67.2hPa | 2.7V | 18:12:15 | 01:42:06 | 00:00:00 | |
| DB0DAN | 2026-08-31 17:57:55 | 52.61007 | 15.13493 | 60° | 18km/h | 19125m | 4.6m/s | -53°C | 1.3% | 67.15hPa | 2.7V | 00:00:00 | 00:00:00 | 00:00:00 | |
| SONDE2-12 | 2026-08-31 17:57:54 | 52.61001 | 15.13480 | 51° | 20km/h | 19115m | 4.4m/s | -53.0°C | 1.4% | 67.3hPa | 2.6V | 00:00:00 | 00:00:00 | 00:00:00 | |
| DM0DOS-11 | 2026-08-31 17:57:53 | 52.60985 | 15.13442 | 58° | 22km/h | 19089m | 4.3m/s | -53.3°C | 4.2% | 67.5hPa | 2.6V | 08:30:00 | 01:41:59 | 00:00:00 | |
| DL1XH-west | 2026-08-31 17:57:47 | 52.60982 | 15.13433 | 61° | 24km/h | 19083m | 6.3m/s | -53.3°C | 0.8% | 67.6hPa | 2.6V | 18:12:15 | 01:41:58 | 00:00:00 | |
| AA1-15 | 2026-08-31 17:57:45 | 52.60976 | 15.13414 | 61° | 29km/h | 19072m | 5.6m/s | -53.3°C | 0.9% | 67.7hPa | 2.7V | 18:12:15 | 01:41:56 | 00:00:00 | |
| DF8AY | 2026-08-31 17:57:44 | 52.60972 | 15.13403 | 56° | 29km/h | 19067m | 4.9m/s | -53.3°C | 0.9% | 67.8hPa | 2.6V | 18:12:15 | 01:41:55 | 00:00:00 | |
| KRY50SP-1 | 2026-08-31 17:57:44 | 52.60972 | 15.13403 | 57° | 29km/h | 19067m | 4.9m/s | -53.3°C | 1.3% | 67.8hPa | 2.7V | 00:00:00 | 00:00:00 | 00:00:00 | |
| DB0DAN | 2026-08-31 17:57:40 | 52.60955 | 15.13359 | 54° | 31km/h | 19047m | 5.7m/s | -53.2°C | 1.3% | 68.01hPa | 2.7V | 00:00:00 | 00:00:00 | 00:00:00 | |
| DM0DOS-11 | 2026-08-31 17:57:37 | 52.60941 | 15.13328 | 57° | 31km/h | 19031m | 5.2m/s | -53.1°C | 4.2% | 68.1hPa | 2.6V | 08:30:00 | 01:41:48 | 00:00:00 | |
| DL1XH-west | 2026-08-31 17:57:37 | 52.60941 | 15.13328 | 58° | 33km/h | 19031m | 5.2m/s | -53.1°C | 0.9% | 68.2hPa | 2.6V | 18:12:15 | 01:41:48 | 00:00:00 | |
| DF8AY | 2026-08-31 17:57:34 | 52.60929 | 15.13296 | 61° | 27km/h | 19015m | 5.3m/s | -53°C | 0.8% | 68.3hPa | 2.7V | 18:12:15 | 01:41:45 | 00:00:00 | |
| DM0DOS-11 | 2026-08-31 17:57:32 | 52.60914 | 15.13230 | 75° | 24km/h | 18979m | 4.7m/s | -52.8°C | 4.1% | 68.7hPa | 2.6V | 08:30:00 | 01:41:38 | 00:00:00 | |
| S3001 | 2026-08-31 17:57:30 | 52.60919 | 15.13257 | 68° | 20km/h | 18994m | 4.4m/s | -52.9°C | 1.3% | 68.5hPa | 2.7V | 00:00:00 | 00:00:00 | 00:00:00 | |
| DL1XH1-15 | 2026-08-31 17:57:29 | 52.60909 | 15.13201 | 71° | 27km/h | 18963m | 6m/s | -52.8°C | 4% | 68.8hPa | 2.7V | 08:30:00 | 01:41:35 | 00:00:00 | |
| DL1XH-west | 2026-08-31 17:57:26 | 52.60913 | 15.13221 | 74° | 24km/h | 18974m | 5.9m/s | -52.8°C | 0.8% | 68.8hPa | 2.7V | 18:12:15 | 01:41:37 | 00:00:00 | |
| DB0DAN | 2026-08-31 17:57:25 | 52.60911 | 15.13211 | 71° | 24km/h | 18969m | 4.4m/s | -52.8°C | 1.3% | 68.81hPa | 2.7V | 00:00:00 | 00:00:00 | 00:00:00 | |
| DF8AY | 2026-08-31 17:57:24 | 52.60909 | 15.13201 | 71° | 27km/h | 18963m | 6m/s | -52.8°C | 0.8% | 68.9hPa | 2.7V | 18:12:15 | 01:41:35 | 00:00:00 | |
| SONDE2-12 | 2026-08-31 17:57:23 | 52.60904 | 15.13179 | 70° | 27km/h | 18953m | 5.7m/s | -52.7°C | 1.3% | 69.0hPa | 2.6V | 00:00:00 | 00:00:00 | 00:00:00 | |
| DM0DOS-11 | 2026-08-31 17:57:22 | 52.60893 | 15.13129 | 72° | 22km/h | 18928m | 5.7m/s | -52.7°C | 4% | 69.2hPa | 2.6V | 08:30:00 | 01:41:28 | 00:00:00 | |
| KRY50SP-1 | 2026-08-31 17:57:20 | 52.60902 | 15.13168 | 68° | 27km/h | 18948m | 5.0m/s | -52.6°C | 1.3% | 69.0hPa | 2.6V | 00:00:00 | 00:00:00 | 00:00:00 | |
| DL1XH1-15 | 2026-08-31 17:57:19 | 52.60891 | 15.13105 | 86° | 18km/h | 18913m | 4.4m/s | -52.6°C | 0% | 69.4hPa | 2.6V | 08:30:00 | 01:41:25 | 00:00:00 | |
| DL1XH-west | 2026-08-31 17:57:15 | 52.60891 | 15.13113 | 82° | 18km/h | 18918m | 5.8m/s | -52.6°C | 0.8% | 69.4hPa | 2.7V | 18:12:15 | 01:41:26 | 00:00:00 | |
| DF8AY | 2026-08-31 17:57:14 | 52.60891 | 15.13105 | 87° | 18km/h | 18913m | 4.4m/s | -52.6°C | 0.8% | 69.4hPa | 2.6V | 18:12:15 | 01:41:25 | 00:00:00 | |
| DM0DOS-11 | 2026-08-31 17:57:12 | 52.60892 | 15.13052 | 91° | 20km/h | 18879m | 4.8m/s | -52.6°C | 4% | 69.8hPa | 2.6V | 08:30:00 | 01:41:18 | 00:00:00 | |
| DB0DAN | 2026-08-31 17:57:10 | 52.60891 | 15.13077 | 93° | 18km/h | 18893m | 5.8m/s | -52.5°C | 1.3% | 69.59hPa | 2.7V | 00:00:00 | 00:00:00 | 00:00:00 | |
| DL1XH1-15 | 2026-08-31 17:57:09 | 52.60891 | 15.13027 | 82° | 22km/h | 18863m | 4.3m/s | -52.5°C | 0% | 69.9hPa | 2.7V | 08:30:00 | 01:41:15 | 00:00:00 | |
| DL1XH-west | 2026-08-31 17:57:04 | 52.60891 | 15.13026 | 82° | 22km/h | 18863m | 4.3m/s | -52.5°C | 0.8% | 69.9hPa | 2.7V | 18:12:15 | 01:41:15 | 00:00:00 | |
| DF8AY | 2026-08-31 17:57:03 | 52.60890 | 15.13018 | 78° | 20km/h | 18859m | 5.5m/s | -52.6°C | 0.8% | 70hPa | 2.6V | 18:12:15 | 01:41:14 | 00:00:00 | |
| D01LWL | 2026-08-31 17:57:01 | 52.60887 | 15.13002 | 72° | 20km/h | 18849m | 5.7m/s | -52.6°C | 1.3% | 70.1hPa | 2.7V | 00:00:00 | 00:00:00 | 00:00:00 | |
| AM1SDL-15 | 2026-08-31 17:57:00 | 52.60886 | 15.12993 | 75° | 24km/h | 18844m | 4.4m/s | 0°C | 0% | 0hPa | 2.7V | 00:00:00 | 01:41:11 | 00:00:00 | |
| DL1XH1-15 | 2026-08-31 17:56:59 | 52.60878 | 15.12939 | 71° | 26km/h | 18813m | 5.8m/s | -52.7°C | 0% | 70.5hPa | 2.7V | 08:30:00 | 01:41:05 | 00:00:00 | |
| DF8AY | 2026-08-31 17:56:53 | 52.60875 | 15.12929 | 69° | 26km/h | 18809m | 3.2m/s | -52.7°C | 0.8% | 70.6hPa | 2.6V | 18:12:15 | 01:41:04 | 00:00:00 | |
| SONDE2-12 | 2026-08-31 17:56:52 | 52.60870 | 15.12909 | 62° | 27km/h | 18800m | 5.1m/s | -52.7°C | 1.4% | 70.7hPa | 2.6V | 00:00:00 | 00:00:00 | 00:00:00 | |
| AA1-15 | 2026-08-31 17:56:51 | 52.60870 | 15.12909 | 62° | 29km/h | 18799m | 5.1m/s | -52.7°C | 0.8% | 70.7hPa | 2.6V | 18:12:15 | 01:41:02 | 00:00:00 | |
| DJ2DS-15 | 2026-08-31 17:56:48 | 52.60861 | 15.12877 | 66° | 29km/h | 18784m | 4.7m/s | -52.7°C | 1.3% | 70.8hPa | 2.6V | 00:00:00 | 00:00:00 | 00:00:00 | |
| SONDE2-11 | 2026-08-31 17:56:46 | 52.60855 | 15.12852 | 71° | 33km/h | 18774m | 4.3m/s | -52.8°C | 1.3% | 70.9hPa | 2.6V | 00:00:00 | 00:00:00 | 00:00:00 | |
| DL1XH-west | 2026-08-31 17:56:43 | 52.60848 | 15.12811 | 75° | 35km/h | 18760m | 5.5m/s | -52.8°C | 0.8% | 71.1hPa | 2.6V | 18:12:15 | 01:40:54 | 00:00:00 | |
| DF8AY | 2026-08-31 17:56:42 | 52.60845 | 15.12797 | 72° | 33km/h | 18755m | 4.7m/s | -52.8°C | 0.8% | 71.1hPa | 2.6V | 18:12:15 | 01:40:53 | 00:00:00 | |
| AA1-15 | 2026-08-31 17:56:40 | 52.60840 | 15.12773 | 70° | 27km/h | 18745m | 5.1m/s | -52.8°C | 0.8% | 71.2hPa | 2.7V | 18:12:15 | 01:40:51 | 00:00:00 | |
| DB0DAN | 2026-08-31 17:56:40 | 52.60840 | 15.12773 | 70° | 26km/h | 18745m | 5.1m/s | -52.8°C | 1.3% | 71.22hPa | 2.7V | 00:00:00 | 00:00:00 | 00:00:00 | |
| DL1XH1-15 | 2026-08-31 17:56:39 | 52.60822 | 15.12723 | 51° | 24km/h | 18716m | 5.8m/s | -52.8°C | 0% | 71.5hPa | 2.7V | 08:30:00 | 01:40:45 | 00:00:00 | |
| DF8AY | 2026-08-31 17:56:32 | 52.60813 | 15.12705 | 58° | 31km/h | 18707m | 4.1m/s | -52.8°C | 0.7% | 71.7hPa | 2.6V | 18:12:15 | 01:40:43 | 00:00:00 | |
| AA1-15 | 2026-08-31 17:56:29 | 52.60801 | 15.12667 | 62° | 37km/h | 18692m | 5.8m/s | -52.9°C | 0.7% | 71.8hPa | 2.6V | 18:12:15 | 01:40:40 | 00:00:00 | |
| S3001 | 2026-08-31 17:56:28 | 52.60797 | 15.12653 | 62° | 37km/h | 18688m | 3.8m/s | -52.9°C | 1.3% | 71.8hPa | 2.7V | 00:00:00 | 00:00:00 | 00:00:00 | |
| MECKS9 | 2026-08-31 17:56:27 | 52.60797 | 15.12653 | 63° | 38km/h | 18688m | 3.8m/s | -52.9°C | 1.3% | 71.8hPa | 2.7V | 00:00:00 | 00:00:00 | 00:00:00 | |
| DB0DAN | 2026-08-31 17:56:25 | 52.60786 | 15.12612 | 65° | 33km/h | 18674m | 5.6m/s | -52.9°C | 1.3% | 72hPa | 2.7V | 00:00:00 | 00:00:00 | 00:00:00 | |
| KRY50SP-1 | 2026-08-31 17:56:24 | 52.60786 | 15.12612 | 66° | 35km/h | 18674m | 5.6m/s | -52.9°C | 1.3% | 72.0hPa | 2.6V | 00:00:00 | 00:00:00 | 00:00:00 | |
| SP3BTT-10 | 2026-08-31 17:56:23 | 52.60778 | 15.12589 | 61° | 35km/h | 18663m | 5.6m/s | -52.8°C | 4.1% | 72.0hPa | 2.6V | 00:00:00 | 00:00:00 | 00:00:00 | |
| DM0DOS-11 | 2026-08-31 17:56:22 | 52.60754 | 15.12532 | 58° | 29km/h | 18634m | 4.6m/s | -53°C | 4.2% | 72.4hPa | 2.6V | 08:30:00 | 01:40:28 | 00:00:00 | |
| DL1XH-west | 2026-08-31 17:56:22 | 52.60775 | 15.12579 | 61° | 27km/h | 18658m | 4.2m/s | -52.9°C | 0.8% | 72.2hPa | 2.6V | 18:12:15 | 01:40:33 | 00:00:00 | |
| SONDE2-12 | 2026-08-31 17:56:21 | 52.60767 | 15.12561 | 50° | 27km/h | 18648m | 4.9m/s | -52.9°C | 1.4% | 72.3hPa | 2.7V | 00:00:00 | 00:00:00 | 00:00:00 | |
| DL1XH1-15 | 2026-08-31 17:56:19 | 52.60741 | 15.12497 | 61° | 35km/h | 18619m | 5.3m/s | -53°C | 0% | 72.6hPa | 2.7V | 08:30:00 | 01:40:25 | 00:00:00 | |
| AA1-15 | 2026-08-31 17:56:18 | 52.60758 | 15.12542 | 53° | 29km/h | 18639m | 5.6m/s | -53°C | 0.8% | 72.4hPa | 2.7V | 18:12:15 | 01:40:29 | 00:00:00 | |
| DAC517 | 2026-08-31 17:56:16 | 52.60754 | 15.12532 | 59° | 29km/h | 18634m | 4.6m/s | -53.0°C | 1.4% | 72.4hPa | 2.7V | 00:00:00 | 00:00:00 | 00:00:00 | |
| SONDE2-11 | 2026-08-31 17:56:15 | 52.60746 | 15.12510 | 58° | 33km/h | 18624m | 5.1m/s | -53.0°C | 1.3% | 72.5hPa | 2.7V | 00:00:00 | 00:00:00 | 00:00:00 | |
| DM0DOS-11 | 2026-08-31 17:56:12 | 52.60707 | 15.12405 | 49° | 38km/h | 18585m | 5.5m/s | -53°C | 4.1% | 73hPa | 2.7V | 08:30:00 | 01:40:18 | 00:00:00 | |
| DL1XH-west | 2026-08-31 17:56:12 | 52.60733 | 15.12471 | 62° | 37km/h | 18609m | 5.1m/s | -53°C | 0.9% | 72.7hPa | 2.6V | 18:12:15 | 01:40:23 | 00:00:00 | |
| DF8AY | 2026-08-31 17:56:11 | 52.60728 | 15.12457 | 60° | 40km/h | 18604m | 4.7m/s | -53°C | 0.8% | 72.8hPa | 2.6V | 18:12:15 | 01:40:22 | 00:00:00 | |
| DB0DAN | 2026-08-31 17:56:10 | 52.60723 | 15.12443 | 59° | 37km/h | 18599m | 5.2m/s | -53.1°C | 1.3% | 72.82hPa | 2.6V | 00:00:00 | 00:00:00 | 00:00:00 | |
| EDDB2-12 | 2026-08-31 17:56:10 | 52.60718 | 15.12429 | 57° | 37km/h | 18594m | 4.7m/s | -53.0°C | 1.3% | 72.9hPa | 2.6V | 00:00:00 | 00:00:00 | 00:00:00 | |
| DL1XH1-15 | 2026-08-31 17:56:09 | 52.60687 | 15.12370 | 47° | 38km/h | 18571m | 4.3m/s | -53°C | 0% | 73.1hPa | 2.6V | 08:30:00 | 01:40:15 | 00:00:00 | |
| AA1-15 | 2026-08-31 17:56:07 | 52.60707 | 15.12405 | 49° | 38km/h | 18585m | 5.5m/s | -53°C | 0.8% | 73hPa | 2.7V | 18:12:15 | 01:40:18 | 00:00:00 | |
| DB0NH | 2026-08-31 17:56:04 | 52.60687 | 15.12370 | 48° | 38km/h | 18571m | 4.2m/s | -52.9°C | 4.1% | 73.1hPa | 2.7V | 00:00:00 | 01:40:15 | 00:00:00 | |
| DL2RXE-15 | 2026-08-31 17:56:03 | 52.60687 | 15.12370 | 48° | 38km/h | 18571m | 4.3m/s | -53.0°C | 1.3% | 73.1hPa | 2.7V | 00:00:00 | 00:00:00 | 00:00:00 | |
| DM0DOS-11 | 2026-08-31 17:56:02 | 52.60643 | 15.12279 | 53° | 42km/h | 18538m | 3.6m/s | -52.8°C | 4% | 73.5hPa | 2.7V | 08:30:00 | 01:40:08 | 00:00:00 | |
| DL1XH-west | 2026-08-31 17:56:02 | 52.60667 | 15.12333 | 52° | 40km/h | 18556m | 5.7m/s | -52.9°C | 0.8% | 73.3hPa | 2.7V | 18:12:15 | 01:40:12 | 00:00:00 | |
| DF8AY | 2026-08-31 17:56:00 | 52.60661 | 15.12320 | 54° | 38km/h | 18551m | 4.5m/s | -52.9°C | 0.8% | 73.4hPa | 2.6V | 18:12:15 | 01:40:11 | 00:00:00 | |
| AA1-15 | 2026-08-31 17:55:56 | 52.60636 | 15.12265 | 54° | 42km/h | 18533m | 5.6m/s | -52.8°C | 0.8% | 73.6hPa | 2.7V | 18:12:15 | 01:40:07 | 00:00:00 | |
| KRY50SP-1 | 2026-08-31 17:55:56 | 52.60636 | 15.12264 | 55° | 42km/h | 18534m | 5.6m/s | -52.8°C | 1.3% | 73.6hPa | 2.6V | 00:00:00 | 00:00:00 | 00:00:00 | |
| AM1SDL-15 | 2026-08-31 17:55:55 | 52.60630 | 15.12251 | 53° | 37km/h | 18529m | 3.9m/s | 0°C | 0% | 0hPa | 2.6V | 00:00:00 | 01:40:06 | 00:00:00 | |
| DM0DOS-11 | 2026-08-31 17:55:52 | 52.60577 | 15.12164 | 44° | 37km/h | 18491m | 4m/s | -52.9°C | 4.2% | 74.1hPa | 2.6V | 08:30:00 | 01:39:58 | 00:00:00 | |
| DF8AY | 2026-08-31 17:55:50 | 52.60596 | 15.12193 | 42° | 35km/h | 18505m | 4.8m/s | -53°C | 0.9% | 73.9hPa | 2.7V | 18:12:15 | 01:40:01 | 00:00:00 | |
| SONDE2-12 | 2026-08-31 17:55:50 | 52.60590 | 15.12184 | 41° | 33km/h | 18501m | 4.3m/s | -53.0°C | 1.5% | 74.0hPa | 2.6V | 00:00:00 | 00:00:00 | 00:00:00 | |
| DL1XH1-15 | 2026-08-31 17:55:48 | 52.60552 | 15.12120 | 47° | 38km/h | 18472m | 5.2m/s | -52.8°C | 0% | 74.3hPa | 2.6V | 08:30:00 | 01:39:54 | 00:00:00 | |
| AA1-15 | 2026-08-31 17:55:45 | 52.60564 | 15.12142 | 49° | 35km/h | 18481m | 4.4m/s | -52.9°C | 0.8% | 74.2hPa | 2.7V | 18:12:15 | 01:39:56 | 00:00:00 | |
| SONDE2-11 | 2026-08-31 17:55:44 | 52.60558 | 15.12131 | 48° | 37km/h | 18477m | 4.5m/s | -52.9°C | 1.3% | 74.2hPa | 2.6V | 00:00:00 | 00:00:00 | 00:00:00 | |
| DM0DOS-11 | 2026-08-31 17:55:41 | 52.60508 | 15.12051 | 38° | 38km/h | 18443m | 4.8m/s | -52.6°C | 4.1% | 74.6hPa | 2.6V | 08:30:00 | 01:39:48 | 00:00:00 | |
| DF8AY | 2026-08-31 17:55:40 | 52.60523 | 15.12072 | 43° | 40km/h | 18452m | 5.3m/s | -52.8°C | 0.9% | 74.5hPa | 2.7V | 18:12:15 | 01:39:50 | 00:00:00 | |
| DL1XH-west | 2026-08-31 17:55:40 | 52.60531 | 15.12083 | 45° | 40km/h | 18457m | 5.1m/s | -52.8°C | 0.9% | 74.5hPa | 2.7V | 18:12:15 | 01:39:51 | 00:00:00 | |
| AA1-15 | 2026-08-31 17:55:34 | 52.60489 | 15.12024 | 40° | 33km/h | 18428m | 5.7m/s | -52.6°C | 0.7% | 74.8hPa | 2.6V | 18:12:15 | 01:39:45 | 00:00:00 | |
| DB0NH | 2026-08-31 17:55:33 | 52.60482 | 15.12015 | 41° | 31km/h | 18423m | 4.1m/s | -52.5°C | 4.0% | 74.8hPa | 2.6V | 00:00:00 | 01:39:44 | 00:00:00 | |
| DM0DOS-11 | 2026-08-31 17:55:32 | 52.60444 | 15.11958 | 41° | 35km/h | 18394m | 4.3m/s | -52.4°C | 4% | 75.2hPa | 2.6V | 08:30:00 | 01:39:38 | 00:00:00 | |
| DL1XH-west | 2026-08-31 17:55:30 | 52.60464 | 15.11988 | 43° | 35km/h | 18409m | 5.2m/s | -52.5°C | 0.7% | 75hPa | 2.7V | 18:12:15 | 01:39:41 | 00:00:00 | |
| DF8AY | 2026-08-31 17:55:29 | 52.60458 | 15.11978 | 43° | 37km/h | 18404m | 4.3m/s | -52.5°C | 0.7% | 75.1hPa | 2.7V | 18:12:15 | 01:39:40 | 00:00:00 | |
| AA1-15 | 2026-08-31 17:55:23 | 52.60416 | 15.11921 | 38° | 31km/h | 18375m | 5m/s | -52.4°C | 0.8% | 75.4hPa | 2.7V | 18:12:15 | 01:39:34 | 00:00:00 | |
| DM0DOS-11 | 2026-08-31 17:55:20 | 52.60372 | 15.11859 | 40° | 31km/h | 18338m | 4m/s | -52.3°C | 4% | 75.9hPa | 2.7V | 08:30:00 | 01:39:26 | 00:00:00 | |
| SONDE2-12 | 2026-08-31 17:55:19 | 52.60388 | 15.11883 | 42° | 24km/h | 18352m | 4.8m/s | -52.3°C | 1.4% | 75.7hPa | 2.7V | 00:00:00 | 00:00:00 | 00:00:00 | |
| DF8AY | 2026-08-31 17:55:18 | 52.60388 | 15.11883 | 43° | 26km/h | 18352m | 4.8m/s | 0°C | 0% | 75.7hPa | 2.7V | 18:12:15 | 01:39:29 | 00:00:00 | |
| DL1XH-west | 2026-08-31 17:55:17 | 52.60383 | 15.11875 | 43° | 26km/h | 18347m | 4.4m/s | -52.3°C | 0.8% | 75.7hPa | 2.6V | 18:12:15 | 01:39:28 | 00:00:00 | |
| AA1-15 | 2026-08-31 17:55:13 | 52.60360 | 15.11841 | 47° | 33km/h | 18328m | 4.7m/s | -52.3°C | 0.8% | 76hPa | 2.6V | 18:12:15 | 01:39:24 | 00:00:00 | |
| SONDE2-11 | 2026-08-31 17:55:13 | 52.60360 | 15.11841 | 46° | 31km/h | 18328m | 4.7m/s | -52.3°C | 1.3% | 76.0hPa | 2.7V | 00:00:00 | 00:00:00 | 00:00:00 | |
| DL1XH1-15 | 2026-08-31 17:55:11 | 52.60331 | 15.11790 | 47° | 29km/h | 18304m | 4.5m/s | -52.2°C | 0% | 76.2hPa | 2.7V | 08:30:00 | 01:39:19 | 00:00:00 | |
| DB0DAN | 2026-08-31 17:55:10 | 52.60343 | 15.11810 | 45° | 35km/h | 18314m | 3.7m/s | -52.2°C | 1.3% | 76.13hPa | 2.7V | 00:00:00 | 00:00:00 | 00:00:00 | |
| DF8AY | 2026-08-31 17:55:08 | 52.60331 | 15.11790 | 47° | 29km/h | 18304m | 4.5m/s | 0°C | 0% | 76.2hPa | 2.7V | 18:12:15 | 01:39:19 | 00:00:00 | |
| DL1XH-west | 2026-08-31 17:55:07 | 52.60326 | 15.11781 | 46° | 26km/h | 18300m | 4.6m/s | -52.1°C | 0.7% | 76.3hPa | 2.6V | 18:12:15 | 01:39:18 | 00:00:00 | |
| AA1-15 | 2026-08-31 17:55:02 | 52.60306 | 15.11749 | 45° | 24km/h | 18276m | 5.8m/s | -52.1°C | 0.7% | 76.5hPa | 2.7V | 18:12:15 | 01:39:13 | 00:00:00 | |
| DM0DOS-11 | 2026-08-31 17:55:01 | 52.60283 | 15.11706 | 50° | 29km/h | 18253m | 5.3m/s | -52°C | 3.9% | 76.8hPa | 2.7V | 08:30:00 | 01:39:08 | 00:00:00 | |
| DL1XH-west | 2026-08-31 17:54:57 | 52.60283 | 15.11706 | 50° | 29km/h | 18253m | 5.3m/s | -52°C | 0.7% | 76.8hPa | 2.7V | 18:12:15 | 01:39:08 | 00:00:00 | |
| DB0DAN | 2026-08-31 17:54:55 | 52.60274 | 15.11689 | 49° | 24km/h | 18243m | 6.1m/s | -52°C | 1.3% | 76.97hPa | 2.6V | 00:00:00 | 00:00:00 | 00:00:00 | |
| AA1-15 | 2026-08-31 17:54:51 | 52.60261 | 15.11666 | 38° | 16km/h | 18223m | 4m/s | -51.9°C | 0.8% | 77.2hPa | 2.6V | 18:12:15 | 01:39:02 | 00:00:00 | |
| DM0DOS-11 | 2026-08-31 17:54:49 | 52.60236 | 15.11623 | 43° | 18km/h | 18184m | 5.6m/s | -51.7°C | 3.9% | 77.6hPa | 2.7V | 08:30:00 | 01:38:54 | 00:00:00 | |
| SONDE2-12 | 2026-08-31 17:54:48 | 52.60249 | 15.11647 | 44° | 18km/h | 18204m | 4.6m/s | -51.8°C | 1.3% | 77.5hPa | 2.7V | 00:00:00 | 00:00:00 | 00:00:00 | |
| DL1XH-west | 2026-08-31 17:54:47 | 52.60249 | 15.11647 | 45° | 18km/h | 18204m | 4.6m/s | -51.8°C | 0.7% | 77.5hPa | 2.7V | 18:12:15 | 01:38:58 | 00:00:00 | |
| DF8AY | 2026-08-31 17:54:46 | 52.60246 | 15.11642 | 46° | 20km/h | 18199m | 4.4m/s | 0°C | 0% | 0hPa | 2.6V | 18:12:15 | 01:38:57 | 00:00:00 | |
| AA1-15 | 2026-08-31 17:54:40 | 52.60227 | 15.11612 | 37° | 11km/h | 18171m | 5.1m/s | -51.6°C | 0.7% | 77.8hPa | 2.6V | 18:12:15 | 01:38:51 | 00:00:00 | |
| DB0DAN | 2026-08-31 17:54:40 | 52.60227 | 15.11612 | 37° | 11km/h | 18171m | 5.1m/s | -51.6°C | 1.3% | 77.82hPa | 2.6V | 00:00:00 | 00:00:00 | 00:00:00 | |
| DL1XH-west | 2026-08-31 17:54:36 | 52.60219 | 15.11602 | 45° | 11km/h | 18152m | 4m/s | -51.6°C | 0.7% | 78hPa | 2.7V | 18:12:15 | 01:38:47 | 00:00:00 | |
| DF8AY | 2026-08-31 17:54:35 | 52.60217 | 15.11598 | 53° | 13km/h | 18148m | 5.2m/s | 0°C | 0% | 0hPa | 2.6V | 18:12:15 | 01:38:46 | 00:00:00 | |
| KRY50SP-1 | 2026-08-31 17:54:34 | 52.60217 | 15.11598 | 54° | 13km/h | 18148m | 5.2m/s | -51.6°C | 1.3% | 78.1hPa | 2.7V | 00:00:00 | 00:00:00 | 00:00:00 | |
| DB0NH | 2026-08-31 17:54:33 | 52.60213 | 15.11589 | 47° | 18km/h | 18139m | 5.4m/s | -51.5°C | 3.9% | 78.2hPa | 2.7V | 00:00:00 | 01:38:44 | 00:00:00 | |
| DAC517 | 2026-08-31 17:54:32 | 52.60213 | 15.11589 | 48° | 15km/h | 18139m | 5.4m/s | -51.5°C | 1.3% | 78.2hPa | 2.7V | 00:00:00 | 00:00:00 | 00:00:00 | |
| DM0DOS-11 | 2026-08-31 17:54:31 | 52.60195 | 15.11554 | 58° | 16km/h | 18103m | 5.1m/s | -51.3°C | 3.8% | 78.6hPa | 2.7V | 08:30:00 | 01:38:37 | 00:00:00 | |
| AA1-15 | 2026-08-31 17:54:29 | 52.60202 | 15.11568 | 53° | 16km/h | 18119m | 4.6m/s | -51.4°C | 0.6% | 78.4hPa | 2.6V | 18:12:15 | 01:38:40 | 00:00:00 | |
| DL1XH-west | 2026-08-31 17:54:25 | 52.60193 | 15.11548 | 63° | 16km/h | 18099m | 3.6m/s | -51.3°C | 0.7% | 78.7hPa | 2.6V | 18:12:15 | 01:38:36 | 00:00:00 | |
| DB0DAN | 2026-08-31 17:54:25 | 52.60193 | 15.11548 | 63° | 15km/h | 18099m | 3.6m/s | -51.3°C | 1.2% | 78.71hPa | 2.6V | 00:00:00 | 00:00:00 | 00:00:00 | |
| DF8AY | 2026-08-31 17:54:24 | 52.60191 | 15.11542 | 61° | 16km/h | 18094m | 5.7m/s | 0°C | 0% | 0hPa | 2.6V | 18:12:15 | 01:38:35 | 00:00:00 | |
| AA1-15 | 2026-08-31 17:54:18 | 52.60181 | 15.11500 | 73° | 18km/h | 18065m | 4.3m/s | -51.4°C | 0.7% | 79hPa | 2.6V | 18:12:15 | 01:38:29 | 00:00:00 | |
| SONDE2-12 | 2026-08-31 17:54:17 | 52.60178 | 15.11484 | 74° | 20km/h | 18056m | 4.7m/s | -51.4°C | 1.3% | 79.2hPa | 2.6V | 00:00:00 | 00:00:00 | 00:00:00 | |
| DL1XH-west | 2026-08-31 17:54:14 | 52.60175 | 15.11468 | 67° | 20km/h | 18046m | 4.5m/s | -51.4°C | 0.7% | 79.3hPa | 2.6V | 18:12:15 | 01:38:25 | 00:00:00 | |
| DM0DOS-11 | 2026-08-31 17:54:12 | 52.60163 | 15.11416 | 80° | 20km/h | 18013m | 3.9m/s | -51.2°C | 3.8% | 79.8hPa | 2.7V | 08:30:00 | 01:38:18 | 00:00:00 | |
| DF8AY | 2026-08-31 17:54:12 | 52.60171 | 15.11453 | 68° | 22km/h | 18036m | 4.8m/s | 0°C | 0% | 0hPa | 2.7V | 18:12:15 | 01:38:23 | 00:00:00 | |
| DB0DAN | 2026-08-31 17:54:10 | 52.60167 | 15.11437 | 68° | 16km/h | 18027m | 5.7m/s | -51.3°C | 1.2% | 79.53hPa | 2.6V | 00:00:00 | 00:00:00 | 00:00:00 | |
| AA1-15 | 2026-08-31 17:54:07 | 52.60164 | 15.11416 | 80° | 20km/h | 18013m | 3.9m/s | -51.2°C | 0.7% | 79.8hPa | 2.7V | 18:12:15 | 01:38:18 | 00:00:00 | |
| DL1XH-west | 2026-08-31 17:54:04 | 52.60160 | 15.11391 | 75° | 22km/h | 17999m | 5.5m/s | -51.1°C | 0.7% | 79.9hPa | 2.6V | 18:12:15 | 01:38:15 | 00:00:00 | |
| DF8AY | 2026-08-31 17:54:01 | 52.60155 | 15.11360 | 72° | 27km/h | 17984m | 5.3m/s | 0°C | 0% | 0hPa | 2.7V | 18:12:15 | 01:38:12 | 00:00:00 | |
| KRY50SP-1 | 2026-08-31 17:53:59 | 52.60153 | 15.11349 | 74° | 27km/h | 17980m | 3.9m/s | -51.0°C | 1.3% | 80.2hPa | 2.6V | 00:00:00 | 00:00:00 | 00:00:00 | |
| DM0DOS-11 | 2026-08-31 17:53:57 | 52.60137 | 15.11260 | 73° | 27km/h | 17941m | 5.2m/s | -50.8°C | 3.7% | 80.6hPa | 2.6V | 08:30:00 | 01:38:03 | 00:00:00 | |
| AA1-15 | 2026-08-31 17:53:56 | 52.60145 | 15.11304 | 71° | 26km/h | 17961m | 4.7m/s | -50.9°C | 0.6% | 80.3hPa | 2.6V | 18:12:15 | 01:38:07 | 00:00:00 | |
| DB0DAN | 2026-08-31 17:53:55 | 52.60143 | 15.11293 | 71° | 26km/h | 17956m | 4.4m/s | -50.9°C | 1.3% | 80.42hPa | 2.7V | 00:00:00 | 00:00:00 | 00:00:00 | |
| DL1XH-west | 2026-08-31 17:53:53 | 52.60139 | 15.11272 | 73° | 29km/h | 17947m | 4.4m/s | -50.8°C | 0.6% | 80.6hPa | 2.6V | 18:12:15 | 01:38:04 | 00:00:00 | |
| S3001 | 2026-08-31 17:53:53 | 52.60137 | 15.11260 | 73° | 27km/h | 17942m | 5.2m/s | -50.8°C | 1.2% | 80.6hPa | 2.6V | 00:00:00 | 00:00:00 | 00:00:00 | |
| DJ2DS-15 | 2026-08-31 17:53:48 | 52.60127 | 15.11202 | 76° | 29km/h | 17917m | 5.0m/s | 0°C | -1.0% | 80.9hPa | 2.6V | 00:00:00 | 00:00:00 | 00:00:00 | |
| SONCRA | 2026-08-31 17:53:47 | 52.60125 | 15.11190 | 74° | 29km/h | 17912m | 5.1m/s | -50.8°C | 1.2% | 81.0hPa | 2.6V | 00:00:00 | 00:00:00 | 00:00:00 | |
| DM0DOS-11 | 2026-08-31 17:53:46 | 52.60112 | 15.11127 | 68° | 33km/h | 17888m | 5.7m/s | -50.6°C | 3.7% | 81.3hPa | 2.6V | 08:30:00 | 01:37:52 | 00:00:00 | |
| SONDE2-12 | 2026-08-31 17:53:46 | 52.60123 | 15.11178 | 72° | 33km/h | 17907m | 4.7m/s | -50.7°C | 1.3% | 81.0hPa | 2.7V | 00:00:00 | 00:00:00 | 00:00:00 | |
| AA1-15 | 2026-08-31 17:53:45 | 52.60123 | 15.11178 | 73° | 33km/h | 17907m | 4.7m/s | -50.7°C | 0.6% | 81hPa | 2.7V | 18:12:15 | 01:37:56 | 00:00:00 | |
| DL1XH-west | 2026-08-31 17:53:43 | 52.60118 | 15.11152 | 71° | 33km/h | 17898m | 5.3m/s | -50.7°C | 0.6% | 81.2hPa | 2.6V | 18:12:15 | 01:37:54 | 00:00:00 | |
| KRY50SP-1 | 2026-08-31 17:53:42 | 52.60118 | 15.11152 | 72° | 33km/h | 17898m | 5.3m/s | -50.7°C | 1.2% | 81.2hPa | 2.7V | 00:00:00 | 00:00:00 | 00:00:00 | |
| DB0DAN | 2026-08-31 17:53:40 | 52.60109 | 15.11114 | 67° | 35km/h | 17884m | 4.5m/s | -50.6°C | 1.2% | 81.35hPa | 2.7V | 00:00:00 | 00:00:00 | 00:00:00 | |
| AA1-15 | 2026-08-31 17:53:34 | 52.60088 | 15.11032 | 65° | 35km/h | 17854m | 5.8m/s | -50.5°C | 0.5% | 81.7hPa | 2.7V | 18:12:15 | 01:37:45 | 00:00:00 | |
| EDDB2-11 | 2026-08-31 17:53:33 | 52.60084 | 15.11019 | 62° | 35km/h | 17849m | 4.3m/s | -50.5°C | 1.2% | 81.8hPa | 2.7V | 00:00:00 | 00:00:00 | 00:00:00 | |
| KRY50SP-1 | 2026-08-31 17:53:31 | 52.60080 | 15.11006 | 63° | 37km/h | 17844m | 5.5m/s | -50.5°C | 1.2% | 81.8hPa | 2.7V | 00:00:00 | 00:00:00 | 00:00:00 | |
| DM0DOS-11 | 2026-08-31 17:53:30 | 52.60044 | 15.10905 | 56° | 40km/h | 17810m | 5.6m/s | -50.4°C | 3.7% | 82.2hPa | 2.7V | 08:30:00 | 01:37:36 | 00:00:00 | |
| DL1XH-west | 2026-08-31 17:53:30 | 52.60070 | 15.10977 | 61° | 40km/h | 17834m | 4.8m/s | -50.5°C | 0.6% | 81.9hPa | 2.7V | 18:12:15 | 01:37:41 | 00:00:00 | |
| DAC517 | 2026-08-31 17:53:29 | 52.60070 | 15.10977 | 62° | 40km/h | 17834m | 4.8m/s | -50.5°C | 1.2% | 81.9hPa | 2.6V | 00:00:00 | 00:00:00 | 00:00:00 | |
| DL1XH1-15 | 2026-08-31 17:53:27 | 52.60027 | 15.10864 | 56° | 38km/h | 17795m | 4.2m/s | -50.3°C | 0% | 82.4hPa | 2.6V | 08:30:00 | 01:37:33 | 00:00:00 | |
| DB0DAN | 2026-08-31 17:53:25 | 52.60044 | 15.10905 | 57° | 38km/h | 17810m | 5.6m/s | -50.4°C | 1.2% | 82.22hPa | 2.7V | 00:00:00 | 00:00:00 | 00:00:00 | |
| AA1-15 | 2026-08-31 17:53:23 | 52.60033 | 15.10878 | 56° | 40km/h | 17800m | 5.6m/s | -50.3°C | 0.6% | 82.4hPa | 2.7V | 18:12:15 | 01:37:34 | 00:00:00 | |
| SP3BTT-10 | 2026-08-31 17:53:23 | 52.60033 | 15.10877 | 57° | 42km/h | 17801m | 5.5m/s | -50.3°C | 3.7% | 82.3hPa | 2.7V | 00:00:00 | 00:00:00 | 00:00:00 | |
| SP6BVK | 2026-08-31 17:53:21 | 52.60027 | 15.10864 | 58° | 40km/h | 17796m | 4.2m/s | -50.3°C | 1.2% | 82.4hPa | 2.6V | 00:00:00 | 00:00:00 | 00:00:00 | |
| DM0DOS-11 | 2026-08-31 17:53:19 | 52.59981 | 15.10754 | 53° | 44km/h | 17757m | 5.8m/s | -50.2°C | 3.8% | 82.9hPa | 2.6V | 08:30:00 | 01:37:25 | 00:00:00 | |
| DL1XH-west | 2026-08-31 17:53:19 | 52.60011 | 15.10824 | 55° | 40km/h | 17781m | 5.9m/s | -50.3°C | 0.6% | 82.6hPa | 2.7V | 18:12:15 | 01:37:30 | 00:00:00 | |
| DL2RXE-15 | 2026-08-31 17:53:18 | 52.59999 | 15.10796 | 56° | 42km/h | 17772m | 5.0m/s | -50.3°C | 1.3% | 82.7hPa | 2.7V | 00:00:00 | 00:00:00 | 00:00:00 | |
| DL1XH1-15 | 2026-08-31 17:53:17 | 52.59967 | 15.10725 | 53° | 44km/h | 17748m | 5.5m/s | -50.1°C | 0% | 83hPa | 2.7V | 08:30:00 | 01:37:23 | 00:00:00 | |
| SONDE2-12 | 2026-08-31 17:53:14 | 52.59981 | 15.10754 | 53° | 42km/h | 17758m | 5.8m/s | -50.2°C | 1.3% | 82.9hPa | 2.7V | 00:00:00 | 00:00:00 | 00:00:00 | |
| AA1-15 | 2026-08-31 17:53:12 | 52.59967 | 15.10725 | 53° | 44km/h | 17748m | 5.5m/s | -50.1°C | 0.6% | 83hPa | 2.7V | 18:12:15 | 01:37:23 | 00:00:00 | |
| DB0DAN | 2026-08-31 17:53:10 | 52.59954 | 15.10696 | 53° | 44km/h | 17738m | 5.7m/s | -50°C | 1.2% | 83.15hPa | 2.6V | 00:00:00 | 00:00:00 | 00:00:00 | |
| DL1XH-west | 2026-08-31 17:53:09 | 52.59947 | 15.10681 | 52° | 46km/h | 17734m | 3.9m/s | -50°C | 0.5% | 83.2hPa | 2.7V | 18:12:15 | 01:37:20 | 00:00:00 | |
| AA1-15 | 2026-08-31 17:53:02 | 52.59896 | 15.10582 | 50° | 42km/h | 17699m | 4.3m/s | -49.8°C | 0.6% | 83.6hPa | 2.7V | 18:12:15 | 01:37:13 | 00:00:00 | |
| SP6BVK | 2026-08-31 17:53:00 | 52.59889 | 15.10569 | 50° | 42km/h | 17694m | 5.8m/s | -49.7°C | 1.2% | 83.7hPa | 2.6V | 00:00:00 | 00:00:00 | 00:00:00 | |
| DL1XH1-15 | 2026-08-31 17:52:58 | 52.59836 | 15.10457 | 55° | 44km/h | 17654m | 4.8m/s | -49.5°C | 0% | 84.2hPa | 2.6V | 08:30:00 | 01:37:04 | 00:00:00 | |
| DL1XH-west | 2026-08-31 17:52:58 | 52.59869 | 15.10529 | 52° | 40km/h | 17679m | 3.9m/s | -49.7°C | 0.5% | 83.9hPa | 2.7V | 18:12:15 | 01:37:09 | 00:00:00 | |
| DB0DAN | 2026-08-31 17:52:55 | 52.59849 | 15.10487 | 53° | 42km/h | 17664m | 4.4m/s | -49.6°C | 1.2% | 84.1hPa | 2.6V | 00:00:00 | 00:00:00 | 00:00:00 | |
| AA1-15 | 2026-08-31 17:52:51 | 52.59824 | 15.10427 | 56° | 44km/h | 17644m | 5m/s | -49.4°C | 0.5% | 84.4hPa | 2.7V | 18:12:15 | 01:37:02 | 00:00:00 | |
| S3001 | 2026-08-31 17:52:51 | 52.59818 | 15.10413 | 59° | 40km/h | 17639m | 4.8m/s | -49.4°C | 1.2% | 84.4hPa | 2.6V | 00:00:00 | 00:00:00 | 00:00:00 | |
| 3Z3Z-3 | 2026-08-31 17:52:50 | 52.59823 | 15.10427 | 57° | 44km/h | 17645m | 5.0m/s | -49.4°C | 1.2% | 84.4hPa | 2.6V | 00:00:00 | 00:00:00 | 00:00:00 | |
| DL1XH1-15 | 2026-08-31 17:52:48 | 52.59782 | 15.10305 | 61° | 44km/h | 17605m | 5.7m/s | 0°C | 0% | 0hPa | 2.6V | 08:30:00 | 01:36:54 | 00:00:00 | |
| DL1XH-west | 2026-08-31 17:52:47 | 52.59802 | 15.10368 | 61° | 44km/h | 17624m | 3.9m/s | 0°C | 0% | 84.6hPa | 2.6V | 18:12:15 | 01:36:58 | 00:00:00 | |
| SONDE2-12 | 2026-08-31 17:52:43 | 52.59782 | 15.10305 | 61° | 44km/h | 17606m | 5.7m/s | -49.1°C | 1.2% | 84.9hPa | 2.6V | 00:00:00 | 00:00:00 | 00:00:00 | |
| AA1-15 | 2026-08-31 17:52:40 | 52.59766 | 15.10256 | 62° | 44km/h | 17591m | 4.7m/s | -49°C | 0.4% | 85hPa | 2.6V | 18:12:15 | 01:36:51 | 00:00:00 | |
| DL1XH-west | 2026-08-31 17:52:36 | 52.59745 | 15.10193 | 63° | 42km/h | 17573m | 5.4m/s | 0°C | 0% | 85.3hPa | 2.7V | 18:12:15 | 01:36:47 | 00:00:00 | |
| AA1-15 | 2026-08-31 17:52:29 | 52.59719 | 15.10079 | 72° | 47km/h | 17537m | 4.7m/s | -49.3°C | 0.5% | 85.8hPa | 2.7V | 18:12:15 | 01:36:40 | 00:00:00 | |
| DL1XH-west | 2026-08-31 17:52:26 | 52.59707 | 15.10023 | 72° | 47km/h | 17522m | 4.4m/s | 0°C | 0% | 0hPa | 2.6V | 18:12:15 | 01:36:37 | 00:00:00 | |
| KRY50SP-1 | 2026-08-31 17:52:24 | 52.59703 | 15.10004 | 71° | 47km/h | 17518m | 4.9m/s | -49.1°C | 1.2% | 86.0hPa | 2.6V | 00:00:00 | 00:00:00 | 00:00:00 | |
| 13BRC | 2026-08-31 17:52:21 | 52.59689 | 15.09951 | 67° | 44km/h | 17504m | 5.2m/s | -49.0°C | 1.1% | 86.2hPa | 2.6V | 00:00:00 | 00:00:00 | 00:00:00 | |
| S3001 | 2026-08-31 17:52:20 | 52.59675 | 15.09901 | 63° | 44km/h | 17489m | 3.9m/s | -48.9°C | 1.2% | 86.4hPa | 2.6V | 00:00:00 | 00:00:00 | 00:00:00 | |
| DM0DOS-11 | 2026-08-31 17:52:19 | 52.59652 | 15.09818 | 65° | 44km/h | 17464m | 5.4m/s | -48.7°C | 3.4% | 86.7hPa | 2.6V | 08:30:00 | 01:36:25 | 00:00:00 | |
| AA1-15 | 2026-08-31 17:52:18 | 52.59670 | 15.09884 | 66° | 42km/h | 17484m | 5.2m/s | -48.8°C | 0.4% | 86.5hPa | 2.6V | 18:12:15 | 01:36:29 | 00:00:00 | |
| DL1XH-west | 2026-08-31 17:52:15 | 52.59657 | 15.09834 | 65° | 46km/h | 17469m | 3.7m/s | 0°C | 0% | 0hPa | 2.6V | 18:12:15 | 01:36:26 | 00:00:00 | |
| AA1-15 | 2026-08-31 17:52:08 | 52.59621 | 15.09723 | 62° | 42km/h | 17434m | 4.2m/s | -48.5°C | 0.4% | 87.1hPa | 2.6V | 18:12:15 | 01:36:19 | 00:00:00 | |
| DL1XH-west | 2026-08-31 17:52:05 | 52.59605 | 15.09673 | 62° | 46km/h | 17419m | 5.4m/s | 0°C | 0% | 0hPa | 2.7V | 18:12:15 | 01:36:16 | 00:00:00 | |
| AA1-15 | 2026-08-31 17:51:57 | 52.59558 | 15.09549 | 55° | 46km/h | 17379m | 4.1m/s | -48.8°C | 0.3% | 87.8hPa | 2.6V | 18:12:15 | 01:36:08 | 00:00:00 | |
| DM0DOS-11 | 2026-08-31 17:51:55 | 52.59515 | 15.09442 | 59° | 40km/h | 17346m | 4.6m/s | -48.9°C | 3.3% | 88.2hPa | 2.7V | 08:30:00 | 01:36:01 | 00:00:00 | |
| DL1XH-west | 2026-08-31 17:51:50 | 52.59515 | 15.09442 | 59° | 40km/h | 17346m | 4.6m/s | 0°C | 0% | 0hPa | 2.7V | 18:12:15 | 01:36:01 | 00:00:00 | |
| AA1-15 | 2026-08-31 17:51:46 | 52.59492 | 15.09385 | 55° | 42km/h | 17327m | 5.3m/s | -49.2°C | 0.3% | 88.6hPa | 2.6V | 18:12:15 | 01:35:57 | 00:00:00 | |
| SONDE2-12 | 2026-08-31 17:51:39 | 52.59440 | 15.09268 | 48° | 46km/h | 17288m | 4.5m/s | -50.4°C | 1.3% | 89.0hPa | 2.7V | 00:00:00 | 00:00:00 | 00:00:00 | |
| DL1XH-west | 2026-08-31 17:51:38 | 52.59432 | 15.09253 | 47° | 46km/h | 17283m | 5m/s | 0°C | 0% | 0hPa | 2.7V | 18:12:15 | 01:35:48 | 00:00:00 | |
| AA1-15 | 2026-08-31 17:51:36 | 52.59424 | 15.09240 | 46° | 44km/h | 17278m | 4.7m/s | -50.5°C | 0.6% | 89.2hPa | 2.6V | 18:12:15 | 01:35:47 | 00:00:00 | |
| DL1XH-west | 2026-08-31 17:51:27 | 52.59341 | 15.09131 | 35° | 47km/h | 17235m | 5.9m/s | 0°C | 0% | 0hPa | 2.6V | 18:12:15 | 01:35:38 | 00:00:00 | |
| AA1-15 | 2026-08-31 17:51:21 | 52.59282 | 15.09058 | 35° | 49km/h | 17206m | 4.4m/s | -50°C | 0.7% | 90.2hPa | 2.6V | 18:12:15 | 01:35:32 | 00:00:00 | |
| AA1-15 | 2026-08-31 17:51:10 | 52.59177 | 15.08951 | 32° | 42km/h | 17152m | 5.4m/s | -49.6°C | 0.5% | 90.9hPa | 2.7V | 18:12:15 | 01:35:21 | 00:00:00 | |
| SONDE2-12 | 2026-08-31 17:51:08 | 52.59150 | 15.08924 | 30° | 44km/h | 17138m | 4.0m/s | -49.5°C | 1.3% | 91.2hPa | 2.7V | 00:00:00 | 00:00:00 | 00:00:00 | |
| KRY50SP-1 | 2026-08-31 17:51:07 | 52.59149 | 15.08924 | 31° | 44km/h | 17138m | 4.0m/s | -49.5°C | 1.2% | 91.2hPa | 2.7V | 00:00:00 | 00:00:00 | 00:00:00 | |
| MECKS9 | 2026-08-31 17:51:06 | 52.59149 | 15.08924 | 31° | 44km/h | 17138m | 4.0m/s | -49.5°C | 1.2% | 91.2hPa | 2.7V | 00:00:00 | 00:00:00 | 00:00:00 | |
| DAC517 | 2026-08-31 17:51:05 | 52.59131 | 15.08906 | 33° | 42km/h | 17128m | 3.8m/s | -49.4°C | 1.2% | 91.3hPa | 2.7V | 00:00:00 | 00:00:00 | 00:00:00 | |
| DM0DOS-11 | 2026-08-31 17:51:02 | 52.59061 | 15.08827 | 35° | 40km/h | 17088m | 4.7m/s | -49.2°C | 3.5% | 91.8hPa | 2.7V | 08:30:00 | 01:35:08 | 00:00:00 | |
| AA1-15 | 2026-08-31 17:50:59 | 52.59078 | 15.08848 | 36° | 44km/h | 17098m | 4.2m/s | -49.3°C | 0.5% | 91.7hPa | 2.6V | 18:12:15 | 01:35:10 | 00:00:00 | |
| AA1-15 | 2026-08-31 17:50:48 | 52.58984 | 15.08739 | 34° | 37km/h | 17045m | 5.4m/s | -49.4°C | 0.5% | 92.4hPa | 2.6V | 18:12:15 | 01:34:59 | 00:00:00 | |
| S3001 | 2026-08-31 17:50:46 | 52.58969 | 15.08722 | 36° | 35km/h | 17035m | 5.2m/s | -49.5°C | 1.2% | 92.5hPa | 2.6V | 00:00:00 | 00:00:00 | 00:00:00 | |
| AA1-15 | 2026-08-31 17:50:37 | 52.58912 | 15.08627 | 57° | 40km/h | 16994m | 4.7m/s | -49.6°C | 0.5% | 93.1hPa | 2.6V | 18:12:15 | 01:34:48 | 00:00:00 | |
| SONDE2-12 | 2026-08-31 17:50:36 | 52.58907 | 15.08612 | 61° | 38km/h | 16989m | 4.9m/s | -49.6°C | 1.2% | 93.3hPa | 2.7V | 00:00:00 | 00:00:00 | 00:00:00 | |
| AA1-15 | 2026-08-31 17:50:26 | 52.58863 | 15.08467 | 64° | 40km/h | 16943m | 3.5m/s | -49.7°C | 0.5% | 93.9hPa | 2.7V | 18:12:15 | 01:34:37 | 00:00:00 | |
| AA1-15 | 2026-08-31 17:50:15 | 52.58810 | 15.08304 | 61° | 46km/h | 16894m | 4.5m/s | -49.7°C | 0.5% | 94.6hPa | 2.6V | 18:12:15 | 01:34:26 | 00:00:00 | |
| SONDE2-12 | 2026-08-31 17:50:06 | 52.58753 | 15.08143 | 56° | 42km/h | 16849m | 3.6m/s | -49.5°C | 1.2% | 95.3hPa | 2.7V | 00:00:00 | 00:00:00 | 00:00:00 | |
| DM0DOS-11 | 2026-08-31 17:50:04 | 52.58740 | 15.08114 | 55° | 44km/h | 16841m | 3.7m/s | -49.5°C | 3.4% | 95.4hPa | 2.7V | 08:30:00 | 01:34:14 | 00:00:00 | |
| AA1-15 | 2026-08-31 17:50:04 | 52.58747 | 15.08129 | 55° | 44km/h | 16845m | 4.8m/s | -49.5°C | 0.4% | 95.2hPa | 2.7V | 18:12:15 | 01:34:15 | 00:00:00 | |
| DAC517 | 2026-08-31 17:50:04 | 52.58747 | 15.08129 | 56° | 44km/h | 16845m | 4.8m/s | -49.5°C | 1.2% | 95.2hPa | 2.7V | 00:00:00 | 00:00:00 | 00:00:00 | |
| SONDE2-11 | 2026-08-31 17:50:03 | 52.58734 | 15.08099 | 57° | 44km/h | 16836m | 5.6m/s | -49.6°C | 1.2% | 95.4hPa | 2.7V | 00:00:00 | 00:00:00 | 00:00:00 | |
| SP3WXH-11 | 2026-08-31 17:49:57 | 52.58698 | 15.08007 | 57° | 44km/h | 16809m | 3.3m/s | -50.3°C | 1.2% | 95.8hPa | 2.7V | 00:00:00 | 00:00:00 | 00:00:00 | |
| EDDB2-11 | 2026-08-31 17:49:56 | 52.58698 | 15.08007 | 57° | 44km/h | 16809m | 3.3m/s | -50.3°C | 1.2% | 95.8hPa | 2.7V | 00:00:00 | 00:00:00 | 00:00:00 | |
| DB0DAN | 2026-08-31 17:49:55 | 52.58692 | 15.07992 | 55° | 42km/h | 16805m | 5.4m/s | -50.4°C | 1.2% | 95.9hPa | 2.7V | 00:00:00 | 00:00:00 | 00:00:00 | |
| AA1-15 | 2026-08-31 17:49:53 | 52.58679 | 15.07963 | 52° | 44km/h | 16795m | 5m/s | -50.4°C | 0.6% | 96hPa | 2.7V | 18:12:15 | 01:34:04 | 00:00:00 | |
| D01LWL | 2026-08-31 17:49:46 | 52.58632 | 15.07872 | 46° | 38km/h | 16764m | 4.9m/s | -50.7°C | 1.3% | 96.5hPa | 2.7V | 00:00:00 | 00:00:00 | 00:00:00 | |
| AA1-15 | 2026-08-31 17:49:43 | 52.58609 | 15.07835 | 45° | 44km/h | 16752m | 3.6m/s | -50.7°C | 0.6% | 96.7hPa | 2.7V | 18:12:15 | 01:33:54 | 00:00:00 | |
| SONDE2-12 | 2026-08-31 17:49:35 | 52.58536 | 15.07740 | 34° | 35km/h | 16713m | 5.6m/s | -50.9°C | 1.4% | 97.3hPa | 2.7V | 00:00:00 | 00:00:00 | 00:00:00 | |
| AA1-15 | 2026-08-31 17:49:29 | 52.58498 | 15.07702 | 28° | 33km/h | 16689m | 5m/s | -51°C | 0.6% | 97.6hPa | 2.7V | 18:12:15 | 01:33:40 | 00:00:00 | |
| KRY50SP-1 | 2026-08-31 17:49:27 | 52.58491 | 15.07696 | 31° | 33km/h | 16685m | 3.9m/s | -51.1°C | 1.3% | 97.7hPa | 2.6V | 00:00:00 | 00:00:00 | 00:00:00 | |
| DB0DAN | 2026-08-31 17:49:25 | 52.58469 | 15.07675 | 27° | 33km/h | 16671m | 4.1m/s | -51.3°C | 1.3% | 97.84hPa | 2.6V | 00:00:00 | 00:00:00 | 00:00:00 | |
| AA1-15 | 2026-08-31 17:49:18 | 52.58411 | 15.07635 | 21° | 35km/h | 16641m | 3.9m/s | -51.4°C | 0.7% | 98.3hPa | 2.7V | 18:12:15 | 01:33:29 | 00:00:00 | |
| D01LWL | 2026-08-31 17:49:15 | 52.58388 | 15.07623 | 16° | 29km/h | 16628m | 4.9m/s | -51.3°C | 1.3% | 98.5hPa | 2.7V | 00:00:00 | 00:00:00 | 00:00:00 | |
| 13BRC | 2026-08-31 17:49:14 | 52.58388 | 15.07623 | 17° | 31km/h | 16628m | 4.9m/s | -51.3°C | 1.3% | 98.5hPa | 2.7V | 00:00:00 | 00:00:00 | 00:00:00 | |
| S3001 | 2026-08-31 17:49:13 | 52.58374 | 15.07616 | 18° | 26km/h | 16620m | 4.7m/s | -51.2°C | 1.3% | 98.6hPa | 2.7V | 00:00:00 | 00:00:00 | 00:00:00 | |
| DB0DAN | 2026-08-31 17:49:10 | 52.58356 | 15.07608 | 14° | 22km/h | 16607m | 4.6m/s | -51.2°C | 1.4% | 98.84hPa | 2.7V | 00:00:00 | 00:00:00 | 00:00:00 | |
| AA1-15 | 2026-08-31 17:49:07 | 52.58340 | 15.07603 | 4° | 22km/h | 16594m | 3.5m/s | -51.1°C | 0.7% | 99hPa | 2.6V | 18:12:15 | 01:33:18 | 00:00:00 | |
| SONDE2-12 | 2026-08-31 17:49:03 | 52.58315 | 15.07601 | 2° | 26km/h | 16576m | 2.9m/s | -50.9°C | 1.4% | 99.3hPa | 2.7V | 00:00:00 | 00:00:00 | 00:00:00 | |
| AA1-15 | 2026-08-31 17:48:56 | 52.58277 | 15.07587 | 26° | 15km/h | 16546m | 4.3m/s | -50.8°C | 0.6% | 99.7hPa | 2.7V | 18:12:15 | 01:33:07 | 00:00:00 | |
| DB0DAN | 2026-08-31 17:48:55 | 52.58274 | 15.07585 | 22° | 11km/h | 16541m | 4.9m/s | -50.9°C | 1.3% | 99.82hPa | 2.7V | 00:00:00 | 00:00:00 | 00:00:00 | |
| SP3WXH-11 | 2026-08-31 17:48:55 | 52.58271 | 15.07583 | 15° | 11km/h | 16537m | 3.3m/s | -50.9°C | 1.3% | 99.9hPa | 2.6V | 00:00:00 | 00:00:00 | 00:00:00 | |
| EDDB2-11 | 2026-08-31 17:48:54 | 52.58268 | 15.07582 | 17° | 13km/h | 16533m | 5.0m/s | -50.9°C | 1.3% | 100.0hPa | 2.6V | 00:00:00 | 00:00:00 | 00:00:00 | |
| 13BRC | 2026-08-31 17:48:53 | 52.58271 | 15.07583 | 16° | 13km/h | 16538m | 3.3m/s | -50.9°C | 1.3% | 99.9hPa | 2.6V | 00:00:00 | 00:00:00 | 00:00:00 | |
| SP6BVK | 2026-08-31 17:48:52 | 52.58268 | 15.07582 | 18° | 13km/h | 16533m | 5.0m/s | -50.9°C | 1.3% | 100.0hPa | 2.6V | 00:00:00 | 00:00:00 | 00:00:00 | |
| OE3JTB-15 | 2026-08-31 17:48:50 | 52.58255 | 15.07578 | 4° | 20km/h | 16520m | 2.9m/s | -50.8°C | 3.8% | 100.1hPa | 2.6V | 00:00:00 | 00:00:00 | 00:00:00 | |
| DM0DOS-11 | 2026-08-31 17:48:49 | 52.58222 | 15.07568 | 15° | 20km/h | 16496m | 4.5m/s | -50.9°C | 3.9% | 100.5hPa | 2.6V | 08:30:00 | 01:32:55 | 00:00:00 | |
| AA1-15 | 2026-08-31 17:48:45 | 52.58227 | 15.07570 | 12° | 22km/h | 16500m | 3.4m/s | -50.9°C | 0.7% | 100.5hPa | 2.7V | 18:12:15 | 01:32:56 | 00:00:00 | |
| D01LWL | 2026-08-31 17:48:44 | 52.58222 | 15.07568 | 15° | 20km/h | 16496m | 4.5m/s | -50.9°C | 1.3% | 100.5hPa | 2.7V | 00:00:00 | 00:00:00 | 00:00:00 | |
| DB0DAN | 2026-08-31 17:48:40 | 52.58205 | 15.07557 | 26° | 15km/h | 16479m | 4.2m/s | -50.8°C | 1.3% | 100.78hPa | 2.7V | 00:00:00 | 00:00:00 | 00:00:00 | |
| AA1-15 | 2026-08-31 17:48:34 | 52.58182 | 15.07531 | 37° | 24km/h | 16453m | 4.3m/s | -50.7°C | 0.7% | 101.2hPa | 2.7V | 18:12:15 | 01:32:45 | 00:00:00 | |
| SONDE2-12 | 2026-08-31 17:48:33 | 52.58172 | 15.07520 | 35° | 24km/h | 16444m | 3.0m/s | -50.6°C | 1.4% | 101.4hPa | 2.6V | 00:00:00 | 00:00:00 | 00:00:00 | |
| SP6BVK | 2026-08-31 17:48:32 | 52.58177 | 15.07525 | 36° | 24km/h | 16448m | 5.0m/s | -50.7°C | 1.3% | 101.3hPa | 2.6V | 00:00:00 | 00:00:00 | 00:00:00 | |
| SONDE2-11 | 2026-08-31 17:48:29 | 52.58158 | 15.07500 | 41° | 22km/h | 16430m | 5.6m/s | -50.5°C | 1.3% | 101.5hPa | 2.6V | 00:00:00 | 00:00:00 | 00:00:00 | |
| DB0DAN | 2026-08-31 17:48:25 | 52.58143 | 15.07475 | 54° | 20km/h | 16412m | 3.8m/s | -50.4°C | 1.3% | 101.92hPa | 2.6V | 00:00:00 | 00:00:00 | 00:00:00 | |
| AA1-15 | 2026-08-31 17:48:23 | 52.58137 | 15.07462 | 50° | 20km/h | 16403m | 3.2m/s | -50.3°C | 0.7% | 102hPa | 2.7V | 18:12:15 | 01:32:34 | 00:00:00 | |
| EDDB2-11 | 2026-08-31 17:48:23 | 52.58134 | 15.07455 | 51° | 20km/h | 16399m | 4.6m/s | -50.3°C | 1.3% | 102.1hPa | 2.7V | 00:00:00 | 00:00:00 | 00:00:00 | |
| OE3JTB-15 | 2026-08-31 17:48:21 | 52.58130 | 15.07448 | 57° | 22km/h | 16394m | 5.0m/s | -50.2°C | 3.7% | 102.1hPa | 2.7V | 00:00:00 | 01:32:32 | 00:00:00 | |
| DAC517 | 2026-08-31 17:48:20 | 52.58124 | 15.07434 | 53° | 20km/h | 16385m | 5.0m/s | -50.2°C | 1.3% | 102.3hPa | 2.7V | 00:00:00 | 00:00:00 | 00:00:00 | |
| KRY50SP-1 | 2026-08-31 17:48:18 | 52.58124 | 15.07434 | 53° | 20km/h | 16385m | 5.0m/s | -50.2°C | 1.3% | 102.3hPa | 2.7V | 00:00:00 | 00:00:00 | 00:00:00 | |
| DM0DOS-11 | 2026-08-31 17:48:14 | 52.58105 | 15.07392 | 51° | 22km/h | 16357m | 5.5m/s | -50.1°C | 3.6% | 102.7hPa | 2.7V | 08:30:00 | 01:32:24 | 00:00:00 | |
| AA1-15 | 2026-08-31 17:48:12 | 52.58101 | 15.07384 | 55° | 24km/h | 16352m | 4.4m/s | -50.1°C | 0.6% | 102.7hPa | 2.7V | 18:12:15 | 01:32:23 | 00:00:00 | |
| DB0DAN | 2026-08-31 17:48:10 | 52.58094 | 15.07369 | 53° | 22km/h | 16343m | 4.3m/s | -50.1°C | 1.3% | 102.94hPa | 2.6V | 00:00:00 | 00:00:00 | 00:00:00 | |
| AA1-15 | 2026-08-31 17:48:01 | 52.58062 | 15.07301 | 61° | 22km/h | 16303m | 4m/s | -50.3°C | 0.7% | 103.6hPa | 2.6V | 18:12:15 | 01:32:12 | 00:00:00 | |
| SONDE2-11 | 2026-08-31 17:47:58 | 52.58055 | 15.07275 | 64° | 22km/h | 16290m | 4.2m/s | -50.2°C | 1.3% | 103.8hPa | 2.6V | 00:00:00 | 00:00:00 | 00:00:00 | |
| DAC517 | 2026-08-31 17:47:57 | 52.58055 | 15.07275 | 65° | 22km/h | 16290m | 4.2m/s | -50.2°C | 1.3% | 103.8hPa | 2.6V | 00:00:00 | 00:00:00 | 00:00:00 | |
| DB0DAN | 2026-08-31 17:47:55 | 52.58047 | 15.07251 | 65° | 22km/h | 16277m | 5.1m/s | -50.1°C | 1.3% | 103.96hPa | 2.6V | 00:00:00 | 00:00:00 | 00:00:00 | |
| AA1-15 | 2026-08-31 17:47:50 | 52.58035 | 15.07205 | 71° | 27km/h | 16252m | 4.3m/s | -50°C | 0.6% | 104.4hPa | 2.6V | 18:12:15 | 01:32:01 | 00:00:00 | |
| KRY50SP-1 | 2026-08-31 17:47:46 | 52.58031 | 15.07166 | 90° | 24km/h | 16235m | 6.3m/s | -50.0°C | 1.3% | 104.7hPa | 2.7V | 00:00:00 | 00:00:00 | 00:00:00 | |
| MECKS9 | 2026-08-31 17:47:42 | 52.58030 | 15.07134 | 89° | 26km/h | 16219m | 4.8m/s | -49.8°C | 1.3% | 104.9hPa | 2.7V | 00:00:00 | 00:00:00 | 00:00:00 | |
| DB0DAN | 2026-08-31 17:47:40 | 52.58030 | 15.07101 | 89° | 27km/h | 16204m | 4.1m/s | -49.7°C | 1.2% | 105.17hPa | 2.7V | 00:00:00 | 00:00:00 | 00:00:00 | |
| AA1-15 | 2026-08-31 17:47:40 | 52.58030 | 15.07101 | 89° | 29km/h | 16204m | 4.1m/s | -49.7°C | 0.5% | 105.2hPa | 2.7V | 18:12:15 | 01:31:51 | 00:00:00 | |
| SONDE2-12 | 2026-08-31 17:47:30 | 52.58033 | 15.06979 | 98° | 29km/h | 16156m | 4.7m/s | -50.6°C | 1.4% | 105.9hPa | 2.7V | 00:00:00 | 00:00:00 | 00:00:00 | |
| AA1-15 | 2026-08-31 17:47:29 | 52.58034 | 15.06967 | 96° | 31km/h | 16152m | 3.9m/s | -50.7°C | 0.6% | 106hPa | 2.7V | 18:12:15 | 01:31:40 | 00:00:00 | |
| KRY50SP-1 | 2026-08-31 17:47:28 | 52.58034 | 15.06967 | 97° | 31km/h | 16152m | 3.9m/s | -50.7°C | 1.3% | 106.0hPa | 2.7V | 00:00:00 | 00:00:00 | 00:00:00 | |
| DB0DAN | 2026-08-31 17:47:25 | 52.58035 | 15.06914 | 90° | 31km/h | 16132m | 3.8m/s | -50.9°C | 1.4% | 106.3hPa | 2.7V | 00:00:00 | 00:00:00 | 00:00:00 | |
| OE3JTB-15 | 2026-08-31 17:47:23 | 52.58034 | 15.06885 | 86° | 40km/h | 16124m | 3.5m/s | -50.8°C | 3.9% | 106.4hPa | 2.6V | 00:00:00 | 00:00:00 | 00:00:00 | |
| SP3WXH-11 | 2026-08-31 17:47:22 | 52.58033 | 15.06854 | 90° | 37km/h | 16114m | 4.4m/s | -50.8°C | 1.4% | 106.6hPa | 2.6V | 00:00:00 | 00:00:00 | 00:00:00 | |
| DM0DOS-11 | 2026-08-31 17:47:19 | 52.58030 | 15.06740 | 84° | 40km/h | 16082m | 4.7m/s | -50.5°C | 3.8% | 107.1hPa | 2.6V | 08:30:00 | 01:31:25 | 00:00:00 | |
| AA1-15 | 2026-08-31 17:47:18 | 52.58032 | 15.06805 | 87° | 38km/h | 16101m | 4.1m/s | -50.7°C | 0.8% | 106.8hPa | 2.7V | 18:12:15 | 01:31:29 | 00:00:00 | |
| KRY50SP-1 | 2026-08-31 17:47:16 | 52.58032 | 15.06789 | 88° | 38km/h | 16096m | 4.6m/s | -50.6°C | 1.4% | 106.9hPa | 2.6V | 00:00:00 | 00:00:00 | 00:00:00 | |
| DAC517 | 2026-08-31 17:47:15 | 52.58031 | 15.06773 | 88° | 40km/h | 16092m | 5.0m/s | -50.6°C | 1.4% | 106.9hPa | 2.6V | 00:00:00 | 00:00:00 | 00:00:00 | |
| MECKS9 | 2026-08-31 17:47:12 | 52.58028 | 15.06723 | 85° | 40km/h | 16079m | 4.1m/s | -50.5°C | 1.4% | 107.2hPa | 2.6V | 00:00:00 | 00:00:00 | 00:00:00 | |
| DB0DAN | 2026-08-31 17:47:10 | 52.58024 | 15.06671 | 82° | 42km/h | 16065m | 4.6m/s | -50.4°C | 1.4% | 107.41hPa | 2.6V | 00:00:00 | 00:00:00 | 00:00:00 | |
| DM0DOS-11 | 2026-08-31 17:47:09 | 52.58016 | 15.06567 | 83° | 40km/h | 16040m | 4m/s | -50.3°C | 3.7% | 107.8hPa | 2.6V | 08:30:00 | 01:31:15 | 00:00:00 | |
| AA1-15 | 2026-08-31 17:47:07 | 52.58020 | 15.06619 | 81° | 44km/h | 16053m | 4.6m/s | -50.4°C | 0.7% | 107.6hPa | 2.7V | 18:12:15 | 01:31:18 | 00:00:00 | |
| SONDE2-12 | 2026-08-31 17:46:59 | 52.58010 | 15.06483 | 83° | 38km/h | 16018m | 5.3m/s | -50.2°C | 1.4% | 108.1hPa | 2.6V | 00:00:00 | 00:00:00 | 00:00:00 | |
| AA1-15 | 2026-08-31 17:46:57 | 52.58007 | 15.06451 | 79° | 38km/h | 16009m | 4.3m/s | -50.2°C | 0.6% | 108.3hPa | 2.6V | 18:12:15 | 01:31:08 | 00:00:00 | |
| SONDE2-11 | 2026-08-31 17:46:56 | 52.58005 | 15.06436 | 79° | 35km/h | 16004m | 4.5m/s | -50.2°C | 1.3% | 108.4hPa | 2.7V | 00:00:00 | 00:00:00 | 00:00:00 | |
| DB0DAN | 2026-08-31 17:46:55 | 52.58004 | 15.06421 | 79° | 35km/h | 16000m | 3.3m/s | -50.2°C | 1.3% | 108.46hPa | 2.7V | 00:00:00 | 00:00:00 | 00:00:00 | |
| AA1-15 | 2026-08-31 17:46:46 | 52.57986 | 15.06290 | 77° | 33km/h | 15963m | 4.3m/s | -50.3°C | 0.7% | 109.1hPa | 2.6V | 18:12:15 | 01:30:57 | 00:00:00 | |
| KRY50SP-1 | 2026-08-31 17:46:42 | 52.57978 | 15.06250 | 69° | 35km/h | 15951m | 3.5m/s | -50.2°C | 1.3% | 109.2hPa | 2.6V | 00:00:00 | 00:00:00 | 00:00:00 | |
| DM0DOS-11 | 2026-08-31 17:46:41 | 52.57961 | 15.06185 | 67° | 35km/h | 15930m | 5.3m/s | -50.4°C | 3.7% | 109.6hPa | 2.6V | 08:30:00 | 01:30:49 | 00:00:00 | |
| DB0DAN | 2026-08-31 17:46:40 | 52.57968 | 15.06212 | 67° | 33km/h | 15939m | 4.9m/s | -50.4°C | 1.4% | 109.49hPa | 2.6V | 00:00:00 | 00:00:00 | 00:00:00 | |
| AA1-15 | 2026-08-31 17:46:35 | 52.57952 | 15.06145 | 70° | 38km/h | 15918m | 4.8m/s | -50.5°C | 0.8% | 109.9hPa | 2.7V | 18:12:15 | 01:30:46 | 00:00:00 | |
| DAC517 | 2026-08-31 17:46:33 | 52.57945 | 15.06114 | 72° | 38km/h | 15909m | 5.2m/s | -50.5°C | 1.4% | 110.0hPa | 2.6V | 00:00:00 | 00:00:00 | 00:00:00 | |
| KRY50SP-1 | 2026-08-31 17:46:32 | 52.57942 | 15.06099 | 72° | 38km/h | 15904m | 4.4m/s | -50.5°C | 1.4% | 110.1hPa | 2.6V | 00:00:00 | 00:00:00 | 00:00:00 | |
| DM0DOS-11 | 2026-08-31 17:46:31 | 52.57930 | 15.06036 | 76° | 40km/h | 15887m | 3.4m/s | -50.4°C | 3.8% | 110.4hPa | 2.6V | 08:30:00 | 01:30:39 | 00:00:00 | |
| SONDE2-12 | 2026-08-31 17:46:28 | 52.57930 | 15.06036 | 76° | 40km/h | 15887m | 3.4m/s | -50.4°C | 1.4% | 110.4hPa | 2.6V | 00:00:00 | 00:00:00 | 00:00:00 | |
| SP6BVK | 2026-08-31 17:46:27 | 52.57930 | 15.06036 | 77° | 40km/h | 15887m | 3.4m/s | -50.4°C | 1.4% | 110.4hPa | 2.6V | 00:00:00 | 00:00:00 | 00:00:00 | |
| DB0DAN | 2026-08-31 17:46:25 | 52.57923 | 15.05984 | 80° | 42km/h | 15873m | 5.2m/s | -50.2°C | 1.4% | 110.53hPa | 2.6V | 00:00:00 | 00:00:00 | 00:00:00 | |
| AA1-15 | 2026-08-31 17:46:24 | 52.57922 | 15.05966 | 82° | 44km/h | 15869m | 3.8m/s | -50.2°C | 0.8% | 110.7hPa | 2.6V | 18:12:15 | 01:30:35 | 00:00:00 | |
| DL2RXE-15 | 2026-08-31 17:46:23 | 52.57920 | 15.05948 | 82° | 44km/h | 15865m | 3.4m/s | -50.2°C | 1.4% | 110.8hPa | 2.6V | 00:00:00 | 00:00:00 | 00:00:00 | |
| DM0DOS-11 | 2026-08-31 17:46:21 | 52.57903 | 15.05836 | 74° | 47km/h | 15838m | 4m/s | -50.3°C | 3.7% | 111.2hPa | 2.6V | 08:30:00 | 01:30:28 | 00:00:00 | |
| AA1-15 | 2026-08-31 17:46:14 | 52.57894 | 15.05778 | 79° | 47km/h | 15825m | 3.5m/s | -50.2°C | 0.7% | 111.4hPa | 2.7V | 18:12:15 | 01:30:25 | 00:00:00 | |
| DAC517 | 2026-08-31 17:46:12 | 52.57892 | 15.05759 | 79° | 49km/h | 15821m | 4.9m/s | -50.2°C | 1.4% | 111.5hPa | 2.7V | 00:00:00 | 00:00:00 | 00:00:00 | |
| DB0DAN | 2026-08-31 17:46:10 | 52.57885 | 15.05699 | 81° | 46km/h | 15807m | 4.4m/s | -50.3°C | 1.4% | 111.75hPa | 2.7V | 00:00:00 | 00:00:00 | 00:00:00 | |
| AA1-15 | 2026-08-31 17:46:03 | 52.57870 | 15.05562 | 81° | 51km/h | 15775m | 3.8m/s | -50.3°C | 0.7% | 112.3hPa | 2.7V | 18:12:15 | 01:30:14 | 00:00:00 | |
| SP3BTT-10 | 2026-08-31 17:46:03 | 52.57869 | 15.05562 | 81° | 66km/h | 15775m | 3.8m/s | -50.2°C | 3.7% | 112.3hPa | 2.7V | 00:00:00 | 00:00:00 | 00:00:00 | |
| DM0DOS-11 | 2026-08-31 17:46:01 | 52.57860 | 15.05430 | 83° | 55km/h | 15748m | 4.4m/s | -50.1°C | 3.7% | 112.8hPa | 2.7V | 08:30:00 | 01:30:08 | 00:00:00 | |
| SONDE2-12 | 2026-08-31 17:45:57 | 52.57860 | 15.05430 | 83° | 55km/h | 15748m | 4.4m/s | -50.1°C | 1.5% | 112.8hPa | 2.6V | 00:00:00 | 00:00:00 | 00:00:00 | |
| DB0DAN | 2026-08-31 17:45:55 | 52.57856 | 15.05384 | 82° | 53km/h | 15739m | 6m/s | -50.1°C | 1.4% | 112.92hPa | 2.6V | 00:00:00 | 00:00:00 | 00:00:00 | |
| AA1-15 | 2026-08-31 17:45:52 | 52.57850 | 15.05317 | 83° | 53km/h | 15724m | 4m/s | -50.1°C | 0.7% | 113.2hPa | 2.7V | 18:12:15 | 01:30:03 | 00:00:00 | |
| DAC517 | 2026-08-31 17:45:52 | 52.57850 | 15.05317 | 84° | 53km/h | 15724m | 4.0m/s | -50.1°C | 1.4% | 113.2hPa | 2.7V | 00:00:00 | 00:00:00 | 00:00:00 | |
| DM0DOS-11 | 2026-08-31 17:45:51 | 52.57843 | 15.05180 | 85° | 58km/h | 15697m | 5m/s | -50.1°C | 3.8% | 113.6hPa | 2.7V | 08:30:00 | 01:29:57 | 00:00:00 | |
| EDDB2-12 | 2026-08-31 17:45:49 | 52.57845 | 15.05227 | 87° | 55km/h | 15706m | 3.5m/s | -50.0°C | 1.4% | 113.5hPa | 2.6V | 00:00:00 | 00:00:00 | 00:00:00 | |
| EDDB2-11 | 2026-08-31 17:45:48 | 52.57844 | 15.05204 | 86° | 57km/h | 15702m | 4.7m/s | -50.0°C | 1.4% | 113.6hPa | 2.6V | 00:00:00 | 00:00:00 | 00:00:00 | |
| 13BRC | 2026-08-31 17:45:46 | 52.57844 | 15.05204 | 87° | 57km/h | 15702m | 4.7m/s | -50.0°C | 1.4% | 113.6hPa | 2.6V | 00:00:00 | 00:00:00 | 00:00:00 | |
| SP6BVK | 2026-08-31 17:45:45 | 52.57843 | 15.05180 | 87° | 58km/h | 15697m | 5.0m/s | -50.1°C | 1.4% | 113.6hPa | 2.6V | 00:00:00 | 00:00:00 | 00:00:00 | |
| KRY50SP-1 | 2026-08-31 17:45:42 | 52.57840 | 15.05107 | 87° | 60km/h | 15683m | 4.9m/s | -50.0°C | 1.4% | 113.9hPa | 2.6V | 00:00:00 | 00:00:00 | 00:00:00 | |
| DM0DOS-11 | 2026-08-31 17:45:41 | 52.57829 | 15.04922 | 85° | 66km/h | 15650m | 5.6m/s | -49.8°C | 3.7% | 114.4hPa | 2.6V | 08:30:00 | 01:29:47 | 00:00:00 | |
| AA1-15 | 2026-08-31 17:45:41 | 52.57837 | 15.05056 | 84° | 64km/h | 15674m | 3.1m/s | -50°C | 0.7% | 114hPa | 2.6V | 18:12:15 | 01:29:52 | 00:00:00 | |
| DL2RXE-15 | 2026-08-31 17:45:40 | 52.57837 | 15.05056 | 85° | 64km/h | 15674m | 3.1m/s | -50.0°C | 1.4% | 114.0hPa | 2.7V | 00:00:00 | 00:00:00 | 00:00:00 | |
| DB0DAN | 2026-08-31 17:45:40 | 52.57835 | 15.05030 | 85° | 60km/h | 15669m | 5.1m/s | -49.9°C | 1.4% | 114.1hPa | 2.7V | 00:00:00 | 00:00:00 | 00:00:00 | |
| MECKS9 | 2026-08-31 17:45:39 | 52.57835 | 15.05030 | 86° | 64km/h | 15670m | 5.1m/s | -49.9°C | 1.4% | 114.1hPa | 2.7V | 00:00:00 | 00:00:00 | 00:00:00 | |
| KRY50SP-1 | 2026-08-31 17:45:37 | 52.57832 | 15.04977 | 85° | 66km/h | 15660m | 5.6m/s | -49.9°C | 1.4% | 114.3hPa | 2.7V | 00:00:00 | 00:00:00 | 00:00:00 | |
| S3001 | 2026-08-31 17:45:36 | 52.57829 | 15.04922 | 85° | 66km/h | 15650m | 5.6m/s | -49.8°C | 1.4% | 114.4hPa | 2.7V | 00:00:00 | 00:00:00 | 00:00:00 | |
| KRY50SP-1 | 2026-08-31 17:45:33 | 52.57825 | 15.04840 | 86° | 68km/h | 15637m | 4.5m/s | -49.9°C | 1.4% | 114.7hPa | 2.7V | 00:00:00 | 00:00:00 | 00:00:00 | |
| DM0DOS-11 | 2026-08-31 17:45:31 | 52.57815 | 15.04640 | 84° | 69km/h | 15605m | 4.1m/s | -49.7°C | 3.5% | 115.2hPa | 2.7V | 08:30:00 | 01:29:37 | 00:00:00 | |
| AA1-15 | 2026-08-31 17:45:30 | 52.57822 | 15.04756 | 86° | 69km/h | 15624m | 3.7m/s | -49.9°C | 0.7% | 114.9hPa | 2.6V | 18:12:15 | 01:29:41 | 00:00:00 | |
| SONDE2-12 | 2026-08-31 17:45:26 | 52.57815 | 15.04640 | 84° | 69km/h | 15606m | 4.1m/s | -49.7°C | 1.4% | 115.2hPa | 2.6V | 00:00:00 | 00:00:00 | 00:00:00 | |
| DB0DAN | 2026-08-31 17:45:25 | 52.57813 | 15.04611 | 84° | 68km/h | 15601m | 4.3m/s | -49.7°C | 1.3% | 115.29hPa | 2.6V | 00:00:00 | 00:00:00 | 00:00:00 | |
| SP6BVK | 2026-08-31 17:45:24 | 52.57813 | 15.04611 | 85° | 71km/h | 15601m | 4.3m/s | -49.7°C | 1.3% | 115.3hPa | 2.7V | 00:00:00 | 00:00:00 | 00:00:00 | |
| SONDE2-11 | 2026-08-31 17:45:23 | 52.57808 | 15.04553 | 80° | 71km/h | 15591m | 4.0m/s | -49.7°C | 1.3% | 115.5hPa | 2.7V | 00:00:00 | 00:00:00 | 00:00:00 | |
| DM0DOS-11 | 2026-08-31 17:45:21 | 52.57789 | 15.04352 | 78° | 69km/h | 15559m | 4.2m/s | -50.2°C | 3.6% | 116hPa | 2.7V | 08:30:00 | 01:29:27 | 00:00:00 | |
| AA1-15 | 2026-08-31 17:45:19 | 52.57798 | 15.04437 | 81° | 71km/h | 15573m | 4.7m/s | -49.9°C | 0.6% | 115.8hPa | 2.6V | 18:12:15 | 01:29:30 | 00:00:00 | |
| EDDB2-12 | 2026-08-31 17:45:18 | 52.57792 | 15.04380 | 80° | 68km/h | 15563m | 4.5m/s | -50.0°C | 1.3% | 116.0hPa | 2.6V | 00:00:00 | 00:00:00 | 00:00:00 | |
| SP3WXH-11 | 2026-08-31 17:45:17 | 52.57792 | 15.04380 | 80° | 68km/h | 15563m | 4.5m/s | -50.0°C | 1.3% | 116.0hPa | 2.6V | 00:00:00 | 00:00:00 | 00:00:00 | |
| KRY50SP-1 | 2026-08-31 17:45:16 | 52.57792 | 15.04380 | 82° | 69km/h | 15563m | 4.5m/s | -50.0°C | 1.3% | 115.9hPa | 2.6V | 00:00:00 | 00:00:00 | 00:00:00 | |
| DAC517 | 2026-08-31 17:45:12 | 52.57768 | 15.04204 | 77° | 77km/h | 15536m | 6.0m/s | -51.2°C | 1.5% | 116.4hPa | 2.6V | 00:00:00 | 00:00:00 | 00:00:00 | |
| DM0DOS-11 | 2026-08-31 17:45:11 | 52.57743 | 15.04034 | 74° | 91km/h | 15511m | 4.6m/s | -51.2°C | 3.9% | 116.8hPa | 2.6V | 08:30:00 | 01:29:17 | 00:00:00 | |
| DB0DAN | 2026-08-31 17:45:10 | 52.57763 | 15.04173 | 76° | 77km/h | 15530m | 4.7m/s | -51.2°C | 1.5% | 116.47hPa | 2.7V | 00:00:00 | 00:00:00 | 00:00:00 | |
| AA1-15 | 2026-08-31 17:45:08 | 52.57754 | 15.04106 | 78° | 88km/h | 15520m | 3.3m/s | -51.2°C | 0.9% | 116.7hPa | 2.7V | 18:12:15 | 01:29:19 | 00:00:00 | |
| MECKS9 | 2026-08-31 17:45:07 | 52.57754 | 15.04106 | 79° | 88km/h | 15521m | 3.3m/s | -51.2°C | 1.5% | 116.7hPa | 2.7V | 00:00:00 | 00:00:00 | 00:00:00 | |
| S3001 | 2026-08-31 17:45:05 | 52.57730 | 15.03964 | 71° | 84km/h | 15500m | 4.6m/s | -51.1°C | 1.5% | 117.1hPa | 2.7V | 00:00:00 | 00:00:00 | 00:00:00 | |
| SP6BVK | 2026-08-31 17:45:03 | 52.57730 | 15.03964 | 72° | 86km/h | 15500m | 4.6m/s | -51.1°C | 1.5% | 117.1hPa | 2.7V | 00:00:00 | 00:00:00 | 00:00:00 | |
| DM0DOS-11 | 2026-08-31 17:45:01 | 52.57671 | 15.03708 | 69° | 80km/h | 15466m | 3.1m/s | -50.8°C | 3.9% | 117.7hPa | 2.7V | 08:30:00 | 01:29:07 | 00:00:00 | |
| AA1-15 | 2026-08-31 17:44:57 | 52.57678 | 15.03740 | 69° | 80km/h | 15470m | 5.5m/s | -50.8°C | 0.8% | 117.6hPa | 2.7V | 18:12:15 | 01:29:08 | 00:00:00 | |
| DB0DAN | 2026-08-31 17:44:55 | 52.57664 | 15.03677 | 69° | 78km/h | 15462m | 4.8m/s | -50.8°C | 1.5% | 117.78hPa | 2.6V | 00:00:00 | 00:00:00 | 00:00:00 | |
| SONDE2-12 | 2026-08-31 17:44:55 | 52.57664 | 15.03677 | 69° | 80km/h | 15462m | 4.8m/s | -50.8°C | 1.5% | 117.8hPa | 2.7V | 00:00:00 | 00:00:00 | 00:00:00 | |
| SONDE2-11 | 2026-08-31 17:44:52 | 52.57642 | 15.03584 | 68° | 77km/h | 15448m | 3.4m/s | -50.7°C | 1.5% | 118.0hPa | 2.7V | 00:00:00 | 00:00:00 | 00:00:00 | |
| DM0DOS-11 | 2026-08-31 17:44:51 | 52.57599 | 15.03407 | 69° | 77km/h | 15423m | 3.2m/s | -50.5°C | 3.8% | 118.5hPa | 2.7V | 08:30:00 | 01:28:57 | 00:00:00 | |
| AA1-15 | 2026-08-31 17:44:46 | 52.57599 | 15.03407 | 69° | 77km/h | 15423m | 3.2m/s | -50.5°C | 0.8% | 118.5hPa | 2.7V | 18:12:15 | 01:28:57 | 00:00:00 | |
| EDDB2-11 | 2026-08-31 17:44:46 | 52.57592 | 15.03377 | 69° | 75km/h | 15419m | 4.7m/s | -50.5°C | 1.4% | 118.6hPa | 2.6V | 00:00:00 | 00:00:00 | 00:00:00 | |
| KRY50SP-1 | 2026-08-31 17:44:45 | 52.57592 | 15.03377 | 71° | 75km/h | 15419m | 4.7m/s | -50.5°C | 1.4% | 118.6hPa | 2.6V | 00:00:00 | 00:00:00 | 00:00:00 | |
| 13BRC | 2026-08-31 17:44:44 | 52.57592 | 15.03377 | 71° | 75km/h | 15419m | 4.7m/s | -50.5°C | 1.4% | 118.6hPa | 2.6V | 00:00:00 | 00:00:00 | 00:00:00 | |
| SP6BVK | 2026-08-31 17:44:43 | 52.57586 | 15.03348 | 71° | 75km/h | 15415m | 4.2m/s | -50.4°C | 1.4% | 118.7hPa | 2.6V | 00:00:00 | 00:00:00 | 00:00:00 | |
| DM0DOS-11 | 2026-08-31 17:44:41 | 52.57526 | 15.03111 | 66° | 77km/h | 15381m | 4.5m/s | -50.2°C | 3.7% | 119.3hPa | 2.6V | 08:30:00 | 01:28:47 | 00:00:00 | |
| DB0DAN | 2026-08-31 17:44:40 | 52.57558 | 15.03230 | 67° | 73km/h | 15397m | 3.1m/s | -50.3°C | 1.4% | 118.93hPa | 2.7V | 00:00:00 | 00:00:00 | 00:00:00 | |
| AA1-15 | 2026-08-31 17:44:36 | 52.57526 | 15.03111 | 66° | 77km/h | 15381m | 4.6m/s | -50.2°C | 0.7% | 119.3hPa | 2.6V | 18:12:15 | 01:28:47 | 00:00:00 | |
| KRY50SP-1 | 2026-08-31 17:44:34 | 52.57511 | 15.03051 | 68° | 78km/h | 15372m | 4.3m/s | -50.2°C | 1.4% | 119.4hPa | 2.7V | 00:00:00 | 00:00:00 | 00:00:00 | |
| SP3BTT-10 | 2026-08-31 17:44:33 | 52.57503 | 15.03022 | 68° | 73km/h | 15368m | 4.8m/s | -50.2°C | 3.7% | 119.5hPa | 2.7V | 00:00:00 | 00:00:00 | 08:30:00 | |
| DM0DOS-11 | 2026-08-31 17:44:31 | 52.57452 | 15.02821 | 63° | 77km/h | 15337m | 5.5m/s | -50.3°C | 3.8% | 120hPa | 2.7V | 08:30:00 | 01:28:37 | 00:00:00 | |
| AA1-15 | 2026-08-31 17:44:26 | 52.57452 | 15.02821 | 64° | 77km/h | 15337m | 5.5m/s | -50.3°C | 0.8% | 120hPa | 2.7V | 18:12:15 | 01:28:37 | 00:00:00 | |
| DB0DAN | 2026-08-31 17:44:25 | 52.57444 | 15.02793 | 63° | 73km/h | 15332m | 3.8m/s | -50.3°C | 1.4% | 120.13hPa | 2.6V | 00:00:00 | 00:00:00 | 00:00:00 | |
| SONDE2-12 | 2026-08-31 17:44:24 | 52.57435 | 15.02764 | 62° | 75km/h | 15328m | 5.2m/s | -50.3°C | 1.5% | 120.2hPa | 2.7V | 00:00:00 | 00:00:00 | 00:00:00 | |
| SP6BVK | 2026-08-31 17:44:23 | 52.57435 | 15.02764 | 63° | 77km/h | 15328m | 5.2m/s | -50.3°C | 1.4% | 120.2hPa | 2.7V | 00:00:00 | 00:00:00 | 00:00:00 | |
| DM0DOS-11 | 2026-08-31 17:44:21 | 52.57365 | 15.02542 | 62° | 71km/h | 15293m | 4.7m/s | -50.1°C | 3.8% | 120.8hPa | 2.7V | 08:30:00 | 01:28:27 | 00:00:00 | |
| AA1-15 | 2026-08-31 17:44:15 | 52.57356 | 15.02516 | 62° | 71km/h | 15289m | 4.4m/s | -50.1°C | 0.8% | 121hPa | 2.7V | 18:12:15 | 01:28:26 | 00:00:00 | |
| EDDB2-11 | 2026-08-31 17:44:15 | 52.57348 | 15.02490 | 61° | 71km/h | 15284m | 5.0m/s | -50.1°C | 1.4% | 121.1hPa | 2.6V | 00:00:00 | 00:00:00 | 00:00:00 | |
| KRY50SP-1 | 2026-08-31 17:44:12 | 52.57330 | 15.02436 | 62° | 73km/h | 15276m | 5.1m/s | -50.1°C | 1.4% | 121.2hPa | 2.6V | 00:00:00 | 00:00:00 | 00:00:00 | |
| DM0DOS-11 | 2026-08-31 17:44:11 | 52.57276 | 15.02281 | 58° | 71km/h | 15251m | 3.3m/s | -50°C | 3.7% | 121.7hPa | 2.6V | 08:30:00 | 01:28:17 | 00:00:00 | |
| DB0DAN | 2026-08-31 17:44:10 | 52.57313 | 15.02385 | 60° | 69km/h | 15267m | 4.5m/s | -50.1°C | 1.4% | 121.32hPa | 2.7V | 00:00:00 | 00:00:00 | 00:00:00 | |
| AA1-15 | 2026-08-31 17:44:04 | 52.57257 | 15.02230 | 59° | 71km/h | 15242m | 4m/s | -50.1°C | 0.7% | 121.8hPa | 2.7V | 18:12:15 | 01:28:15 | 00:00:00 | |
| 13BRC | 2026-08-31 17:44:03 | 52.57257 | 15.02230 | 60° | 71km/h | 15242m | 4.0m/s | -50.1°C | 1.4% | 121.8hPa | 2.7V | 00:00:00 | 00:00:00 | 00:00:00 | |
| SP6BVK | 2026-08-31 17:44:02 | 52.57247 | 15.02205 | 60° | 71km/h | 15238m | 5.5m/s | -50.2°C | 1.4% | 121.9hPa | 2.7V | 00:00:00 | 00:00:00 | 00:00:00 | |
| DM0DOS-11 | 2026-08-31 17:44:01 | 52.57177 | 15.02023 | 56° | 78km/h | 15209m | 4m/s | -50.1°C | 3.7% | 122.5hPa | 2.7V | 08:30:00 | 01:28:07 | 00:00:00 | |
| DB0DAN | 2026-08-31 17:43:55 | 52.57166 | 15.01997 | 55° | 73km/h | 15205m | 4m/s | -50.1°C | 1.4% | 122.51hPa | 2.6V | 00:00:00 | 00:00:00 | 00:00:00 | |
| AA1-15 | 2026-08-31 17:43:53 | 52.57144 | 15.01945 | 56° | 75km/h | 15197m | 4.9m/s | -50.2°C | 0.7% | 122.7hPa | 2.6V | 18:12:15 | 01:28:04 | 00:00:00 | |
| SONDE2-11 | 2026-08-31 17:43:50 | 52.57112 | 15.01869 | 53° | 73km/h | 15184m | 3.8m/s | -50.2°C | 1.4% | 122.9hPa | 2.6V | 00:00:00 | 00:00:00 | 00:00:00 | |
| KRY50SP-1 | 2026-08-31 17:43:49 | 52.57100 | 15.01843 | 55° | 77km/h | 15180m | 5.0m/s | -50.2°C | 1.4% | 123.0hPa | 2.6V | 00:00:00 | 00:00:00 | 00:00:00 | |
| SP3WXH-11 | 2026-08-31 17:43:45 | 52.57044 | 15.01717 | 54° | 73km/h | 15158m | 3.5m/s | -50.5°C | 1.4% | 123.4hPa | 2.6V | 00:00:00 | 00:00:00 | 00:00:00 | |
| KRY50SP-1 | 2026-08-31 17:43:44 | 52.57044 | 15.01717 | 56° | 75km/h | 15158m | 3.5m/s | -50.5°C | 1.4% | 123.4hPa | 2.6V | 00:00:00 | 00:00:00 | 00:00:00 | |
| EDDB2-11 | 2026-08-31 17:43:43 | 52.57033 | 15.01692 | 54° | 71km/h | 15154m | 5.0m/s | -50.6°C | 1.4% | 123.5hPa | 2.6V | 00:00:00 | 00:00:00 | 00:00:00 | |
| SP6BVK | 2026-08-31 17:43:42 | 52.57033 | 15.01692 | 55° | 73km/h | 15154m | 5.0m/s | -50.6°C | 1.4% | 123.5hPa | 2.6V | 00:00:00 | 00:00:00 | 00:00:00 | |
| AA1-15 | 2026-08-31 17:43:42 | 52.57023 | 15.01668 | 53° | 71km/h | 15149m | 4.2m/s | -50.7°C | 0.8% | 123.5hPa | 2.6V | 18:12:15 | 01:27:53 | 00:00:00 | |
| DM0DOS-11 | 2026-08-31 17:43:41 | 52.56955 | 15.01522 | 53° | 77km/h | 15124m | 4.8m/s | -50.8°C | 3.8% | 124hPa | 2.6V | 08:30:00 | 01:27:47 | 00:00:00 | |
| DB0DAN | 2026-08-31 17:43:40 | 52.57001 | 15.01620 | 53° | 69km/h | 15140m | 3.8m/s | -50.8°C | 1.4% | 123.72hPa | 2.7V | 00:00:00 | 00:00:00 | 00:00:00 | |
| AA1-15 | 2026-08-31 17:43:31 | 52.56904 | 15.01390 | 61° | 73km/h | 15102m | 5.3m/s | -51.2°C | 0.9% | 124.5hPa | 2.6V | 18:12:15 | 01:27:42 | 00:00:00 | |
| DM0DOS-11 | 2026-08-31 17:43:30 | 52.56851 | 15.01238 | 58° | 69km/h | 15076m | 4.9m/s | -51.7°C | 4.1% | 124.9hPa | 2.6V | 08:30:00 | 01:27:36 | 00:00:00 | |
| DAC517 | 2026-08-31 17:43:29 | 52.56877 | 15.01312 | 61° | 71km/h | 15089m | 4.2m/s | -51.5°C | 1.5% | 124.7hPa | 2.6V | 00:00:00 | 00:00:00 | 00:00:00 | |
| KRY50SP-1 | 2026-08-31 17:43:27 | 52.56877 | 15.01312 | 61° | 71km/h | 15089m | 4.2m/s | -51.5°C | 1.5% | 124.7hPa | 2.6V | 00:00:00 | 00:00:00 | 00:00:00 | |
| DB0DAN | 2026-08-31 17:43:25 | 52.56851 | 15.01238 | 59° | 68km/h | 15076m | 4.9m/s | -51.7°C | 1.6% | 124.95hPa | 2.6V | 00:00:00 | 00:00:00 | 00:00:00 | |
| KRY50SP-1 | 2026-08-31 17:43:22 | 52.56823 | 15.01162 | 60° | 73km/h | 15063m | 3.4m/s | -51.6°C | 1.6% | 125.2hPa | 2.7V | 00:00:00 | 00:00:00 | 00:00:00 | |
| DM0DOS-11 | 2026-08-31 17:43:20 | 52.56752 | 15.00959 | 59° | 80km/h | 15033m | 5.3m/s | -51.3°C | 4% | 125.7hPa | 2.7V | 08:30:00 | 01:27:26 | 00:00:00 | |
| AA1-15 | 2026-08-31 17:43:20 | 52.56803 | 15.01107 | 60° | 80km/h | 15054m | 3.9m/s | -51.5°C | 0.9% | 125.3hPa | 2.7V | 18:12:15 | 01:27:31 | 00:00:00 | |
| SONDE2-11 | 2026-08-31 17:43:19 | 52.56792 | 15.01077 | 60° | 80km/h | 15050m | 5.3m/s | -51.5°C | 1.6% | 125.5hPa | 2.7V | 00:00:00 | 00:00:00 | 00:00:00 | |
| KRY50SP-1 | 2026-08-31 17:43:16 | 52.56773 | 15.01018 | 62° | 82km/h | 15042m | 5.1m/s | -51.4°C | 1.6% | 125.6hPa | 2.7V | 00:00:00 | 00:00:00 | 00:00:00 | |
| EDDB2-12 | 2026-08-31 17:43:14 | 52.56731 | 15.00902 | 58° | 78km/h | 15025m | 5.4m/s | -51.3°C | 1.6% | 125.9hPa | 2.7V | 00:00:00 | 00:00:00 | 00:00:00 | |
| SP3WXH-11 | 2026-08-31 17:43:13 | 52.56731 | 15.00902 | 58° | 78km/h | 15025m | 5.4m/s | -51.3°C | 1.6% | 125.9hPa | 2.7V | 00:00:00 | 00:00:00 | 00:00:00 | |
| DB0DAN | 2026-08-31 17:43:10 | 52.56700 | 15.00817 | 59° | 75km/h | 15012m | 4.7m/s | -51.3°C | 1.5% | 126.19hPa | 2.7V | 00:00:00 | 00:00:00 | 00:00:00 | |
| DM0DOS-11 | 2026-08-31 17:43:10 | 52.56649 | 15.00675 | 60° | 80km/h | 14990m | 3.9m/s | -51.2°C | 3.9% | 126.6hPa | 2.6V | 08:30:00 | 01:27:16 | 00:00:00 | |
| AA1-15 | 2026-08-31 17:43:09 | 52.56690 | 15.00789 | 59° | 78km/h | 15008m | 3.6m/s | -51.2°C | 0.9% | 126.3hPa | 2.7V | 18:12:15 | 01:27:20 | 00:00:00 | |
| DL2RXE-15 | 2026-08-31 17:43:06 | 52.56669 | 15.00732 | 61° | 80km/h | 14999m | 3.8m/s | -51.2°C | 1.5% | 126.4hPa | 2.6V | 00:00:00 | 00:00:00 | 00:00:00 | |
| KRY50SP-1 | 2026-08-31 17:43:05 | 52.56659 | 15.00704 | 62° | 80km/h | 14995m | 5.1m/s | -51.2°C | 1.5% | 126.5hPa | 2.6V | 00:00:00 | 00:00:00 | 00:00:00 | |
| DAC517 | 2026-08-31 17:43:04 | 52.56639 | 15.00645 | 62° | 82km/h | 14986m | 4.8m/s | -51.2°C | 1.5% | 126.7hPa | 2.6V | 00:00:00 | 00:00:00 | 00:00:00 | |
| D01LWL | 2026-08-31 17:43:03 | 52.56619 | 15.00587 | 60° | 78km/h | 14978m | 4.7m/s | -51.1°C | 1.5% | 126.8hPa | 2.6V | 00:00:00 | 00:00:00 | 00:00:00 | |
| DM0DOS-11 | 2026-08-31 17:43:02 | 52.56549 | 15.00392 | 58° | 78km/h | 14947m | 4.5m/s | -51.2°C | 4.1% | 127.5hPa | 2.6V | 08:30:00 | 01:27:06 | 00:00:00 | |
| AA1-15 | 2026-08-31 17:42:58 | 52.56579 | 15.00474 | 59° | 78km/h | 14960m | 5.4m/s | -51.1°C | 1% | 127.2hPa | 2.7V | 18:12:15 | 01:27:09 | 00:00:00 | |
| DB0DAN | 2026-08-31 17:42:55 | 52.56549 | 15.00392 | 59° | 75km/h | 14947m | 4.5m/s | -51.2°C | 1.6% | 127.45hPa | 2.6V | 00:00:00 | 00:00:00 | 00:00:00 | |
| SONDE2-12 | 2026-08-31 17:42:51 | 52.56508 | 15.00277 | 60° | 80km/h | 14930m | 4.8m/s | -51.2°C | 1.7% | 127.8hPa | 2.7V | 00:00:00 | 00:00:00 | 00:00:00 | |
| DM0DOS-11 | 2026-08-31 17:42:50 | 52.56444 | 15.00112 | 54° | 75km/h | 14903m | 5.5m/s | -51°C | 3.9% | 128.3hPa | 2.7V | 08:30:00 | 01:26:56 | 00:00:00 | |
| AA1-15 | 2026-08-31 17:42:48 | 52.56477 | 15.00192 | 58° | 78km/h | 14917m | 4.1m/s | -51.1°C | 1% | 128.1hPa | 2.7V | 18:12:15 | 01:26:59 | 00:00:00 | |
| SONDE2-11 | 2026-08-31 17:42:48 | 52.56477 | 15.00192 | 57° | 77km/h | 14917m | 4.1m/s | -51.1°C | 1.6% | 128.1hPa | 2.6V | 00:00:00 | 00:00:00 | 00:00:00 | |
| DL2RXE-15 | 2026-08-31 17:42:45 | 52.56455 | 15.00138 | 56° | 78km/h | 14908m | 3.8m/s | -51.1°C | 1.5% | 128.2hPa | 2.6V | 00:00:00 | 00:00:00 | 00:00:00 | |
| KRY50SP-1 | 2026-08-31 17:42:43 | 52.56433 | 15.00086 | 56° | 75km/h | 14899m | 3.5m/s | -51.0°C | 1.5% | 128.4hPa | 2.6V | 00:00:00 | 00:00:00 | 00:00:00 | |
| DAC517 | 2026-08-31 17:42:42 | 52.56422 | 15.00061 | 55° | 75km/h | 14895m | 5.2m/s | -51.0°C | 1.5% | 128.5hPa | 2.6V | 00:00:00 | 00:00:00 | 00:00:00 | |
| EDDB2-11 | 2026-08-31 17:42:41 | 52.56401 | 15.00011 | 55° | 71km/h | 14886m | 5.1m/s | -50.9°C | 1.6% | 128.7hPa | 2.6V | 00:00:00 | 00:00:00 | 00:00:00 | |
| DM0DOS-11 | 2026-08-31 17:42:40 | 52.56342 | 14.99857 | 58° | 73km/h | 14859m | 5.2m/s | -51°C | 4% | 129.2hPa | 2.6V | 08:30:00 | 01:26:46 | 00:00:00 | |
| DB0DAN | 2026-08-31 17:42:40 | 52.56391 | 14.99986 | 57° | 69km/h | 14881m | 3.7m/s | -50.9°C | 1.6% | 128.78hPa | 2.7V | 00:00:00 | 00:00:00 | 00:00:00 | |
| AA1-15 | 2026-08-31 17:42:37 | 52.56361 | 14.99909 | 59° | 73km/h | 14868m | 5m/s | -50.9°C | 1% | 129hPa | 2.7V | 18:12:15 | 01:26:48 | 00:00:00 | |
| AA1-15 | 2026-08-31 17:42:26 | 52.56253 | 14.99632 | 60° | 68km/h | 14819m | 5m/s | -51°C | 1% | 129.9hPa | 2.6V | 18:12:15 | 01:26:37 | 00:00:00 | |
| OE3JTB-15 | 2026-08-31 17:42:26 | 52.56253 | 14.99632 | 60° | 77km/h | 14819m | 4.9m/s | -50.9°C | 4.0% | 129.9hPa | 2.6V | 00:00:00 | 01:26:37 | 00:00:00 | |
| DB0DAN | 2026-08-31 17:42:25 | 52.56245 | 14.99607 | 61° | 66km/h | 14814m | 4.7m/s | -50.9°C | 1.6% | 129.98hPa | 2.7V | 00:00:00 | 00:00:00 | 00:00:00 | |
| SONCRA | 2026-08-31 17:42:24 | 52.56228 | 14.99557 | 60° | 68km/h | 14805m | 3.8m/s | -51.0°C | 1.6% | 130.2hPa | 2.6V | 00:00:00 | 00:00:00 | 00:00:00 | |
| KRY50SP-1 | 2026-08-31 17:42:22 | 52.56227 | 14.99557 | 61° | 69km/h | 14805m | 3.8m/s | -51.0°C | 1.6% | 130.2hPa | 2.6V | 00:00:00 | 00:00:00 | 00:00:00 | |
| DM0DOS-11 | 2026-08-31 17:42:21 | 52.56202 | 14.99481 | 60° | 71km/h | 14792m | 4.5m/s | -51°C | 4% | 130.5hPa | 2.6V | 08:30:00 | 01:26:31 | 00:00:00 | |
| SONDE2-12 | 2026-08-31 17:42:20 | 52.56201 | 14.99481 | 60° | 71km/h | 14792m | 4.5m/s | -51.0°C | 1.7% | 130.5hPa | 2.6V | 00:00:00 | 00:00:00 | 00:00:00 | |
| AA1-15 | 2026-08-31 17:42:15 | 52.56154 | 14.99350 | 60° | 75km/h | 14770m | 4.9m/s | -51.1°C | 1.1% | 130.9hPa | 2.6V | 18:12:15 | 01:26:26 | 00:00:00 | |
| DAC517 | 2026-08-31 17:42:15 | 52.56154 | 14.99350 | 61° | 75km/h | 14771m | 4.9m/s | -51.1°C | 1.6% | 130.9hPa | 2.6V | 00:00:00 | 00:00:00 | 00:00:00 | |
| DB0DAN | 2026-08-31 17:42:10 | 52.56106 | 14.99213 | 60° | 73km/h | 14748m | 5.5m/s | -51°C | 1.6% | 131.37hPa | 2.6V | 00:00:00 | 00:00:00 | 00:00:00 | |
| AA1-15 | 2026-08-31 17:42:04 | 52.56045 | 14.99044 | 58° | 82km/h | 14720m | 5.4m/s | -51.7°C | 1.3% | 131.9hPa | 2.6V | 18:12:15 | 01:26:15 | 00:00:00 | |
| S3001 | 2026-08-31 17:41:58 | 52.55972 | 14.98868 | 55° | 88km/h | 14692m | 5.1m/s | -51.7°C | 1.8% | 132.5hPa | 2.7V | 00:00:00 | 00:00:00 | 00:00:00 | |
| DB0DAN | 2026-08-31 17:41:55 | 52.55934 | 14.98778 | 56° | 84km/h | 14679m | 4.1m/s | -51.6°C | 1.8% | 132.78hPa | 2.7V | 00:00:00 | 00:00:00 | 00:00:00 | |
| AA1-15 | 2026-08-31 17:41:53 | 52.55910 | 14.98719 | 56° | 84km/h | 14670m | 3.4m/s | -51.6°C | 1.3% | 133hPa | 2.7V | 18:12:15 | 01:26:04 | 00:00:00 | |
| SONDE2-12 | 2026-08-31 17:41:49 | 52.55860 | 14.98603 | 54° | 82km/h | 14652m | 4.1m/s | -51.5°C | 1.8% | 133.4hPa | 2.7V | 00:00:00 | 00:00:00 | 00:00:00 | |
| SONDE2-11 | 2026-08-31 17:41:46 | 52.55824 | 14.98519 | 56° | 80km/h | 14639m | 3.2m/s | -51.5°C | 1.7% | 133.6hPa | 2.7V | 00:00:00 | 00:00:00 | 00:00:00 | |
| AA1-15 | 2026-08-31 17:41:42 | 52.55782 | 14.98407 | 60° | 78km/h | 14619m | 4.3m/s | -51.4°C | 1.2% | 134.1hPa | 2.7V | 18:12:15 | 01:25:53 | 00:00:00 | |
| DB0DAN | 2026-08-31 17:41:40 | 52.55763 | 14.98352 | 61° | 73km/h | 14609m | 3.2m/s | -51.4°C | 1.7% | 134.26hPa | 2.6V | 00:00:00 | 00:00:00 | 00:00:00 | |
| AA1-15 | 2026-08-31 17:41:31 | 52.55676 | 14.98105 | 62° | 73km/h | 14569m | 4.8m/s | -51.7°C | 1.4% | 135.1hPa | 2.7V | 18:12:15 | 01:25:42 | 00:00:00 | |
| OE3JTB-15 | 2026-08-31 17:41:28 | 52.55651 | 14.98022 | 65° | 82km/h | 14556m | 3.9m/s | -51.6°C | 4.4% | 135.3hPa | 2.7V | 00:00:00 | 00:00:00 | 00:00:00 | |
| DB0DAN | 2026-08-31 17:41:25 | 52.55626 | 14.97936 | 64° | 73km/h | 14542m | 5.8m/s | -51.6°C | 1.8% | 135.6hPa | 2.7V | 00:00:00 | 00:00:00 | 00:00:00 | |
| AA1-15 | 2026-08-31 17:41:20 | 52.55581 | 14.97792 | 63° | 78km/h | 14518m | 4.3m/s | -51.5°C | 1.3% | 136.1hPa | 2.7V | 18:12:15 | 01:25:31 | 00:00:00 | |
| SONDE2-12 | 2026-08-31 17:41:18 | 52.55563 | 14.97733 | 64° | 80km/h | 14509m | 3.2m/s | -51.5°C | 1.9% | 136.3hPa | 2.6V | 00:00:00 | 00:00:00 | 00:00:00 | |
| KRY50SP-1 | 2026-08-31 17:41:16 | 52.55546 | 14.97673 | 65° | 78km/h | 14500m | 3.8m/s | -51.5°C | 1.8% | 136.5hPa | 2.6V | 00:00:00 | 00:00:00 | 00:00:00 | |
| SONDE2-11 | 2026-08-31 17:41:15 | 52.55537 | 14.97643 | 64° | 78km/h | 14495m | 5.6m/s | -51.5°C | 1.8% | 136.6hPa | 2.6V | 00:00:00 | 00:00:00 | 00:00:00 | |
| DAC517 | 2026-08-31 17:41:14 | 52.55528 | 14.97612 | 65° | 82km/h | 14490m | 4.6m/s | -51.5°C | 1.8% | 136.7hPa | 2.6V | 00:00:00 | 00:00:00 | 00:00:00 | |
| DB0DAN | 2026-08-31 17:41:10 | 52.55489 | 14.97491 | 61° | 80km/h | 14473m | 5.4m/s | -51.4°C | 1.8% | 137.05hPa | 2.6V | 00:00:00 | 00:00:00 | 00:00:00 | |
| AA1-15 | 2026-08-31 17:41:09 | 52.55479 | 14.97460 | 62° | 86km/h | 14469m | 4.2m/s | -51.4°C | 1.4% | 137.2hPa | 2.6V | 18:12:15 | 01:25:20 | 00:00:00 | |
| AA1-15 | 2026-08-31 17:40:58 | 52.55369 | 14.97110 | 60° | 88km/h | 14419m | 3.5m/s | -51.3°C | 1.3% | 138.3hPa | 2.6V | 18:12:15 | 01:25:09 | 00:00:00 | |
| S3001 | 2026-08-31 17:40:56 | 52.55346 | 14.97046 | 59° | 89km/h | 14409m | 4.3m/s | -51.4°C | 1.8% | 138.4hPa | 2.7V | 00:00:00 | 00:00:00 | 00:00:00 | |
| DB0DAN | 2026-08-31 17:40:55 | 52.55335 | 14.97014 | 59° | 86km/h | 14404m | 5.7m/s | -51.5°C | 1.8% | 138.52hPa | 2.7V | 00:00:00 | 00:00:00 | 00:00:00 | |
| DL1XH-west | 2026-08-31 17:40:54 | 52.55323 | 14.96983 | 59° | 89km/h | 14399m | 4.1m/s | -51.5°C | 1.4% | 138.6hPa | 2.7V | 18:12:15 | 01:25:05 | 00:00:00 | |
| AA1-15 | 2026-08-31 17:40:47 | 52.55237 | 14.96757 | 58° | 93km/h | 14367m | 5.6m/s | -51.3°C | 1.3% | 139.3hPa | 2.6V | 18:12:15 | 01:24:58 | 00:00:00 | |
| SONDE2-12 | 2026-08-31 17:40:47 | 52.55237 | 14.96757 | 57° | 91km/h | 14367m | 5.6m/s | -51.3°C | 1.9% | 139.3hPa | 2.7V | 00:00:00 | 00:00:00 | 00:00:00 | |
| DL1XH-west | 2026-08-31 17:40:43 | 52.55186 | 14.96629 | 57° | 93km/h | 14349m | 4.4m/s | -51.3°C | 1.3% | 139.7hPa | 2.7V | 18:12:15 | 01:24:54 | 00:00:00 | |
| 3Z3Z-3 | 2026-08-31 17:40:42 | 52.55186 | 14.96629 | 57° | 93km/h | 14349m | 4.4m/s | 0°C | 0% | 0hPa | 2.6V | 00:00:00 | 00:00:00 | 00:00:00 | |
| DB0DAN | 2026-08-31 17:40:40 | 52.55147 | 14.96533 | 56° | 89km/h | 14335m | 4.4m/s | -51.2°C | 1.8% | 140hPa | 2.6V | 00:00:00 | 00:00:00 | 00:00:00 | |
| DL1XH1-15 | 2026-08-31 17:40:40 | 52.55081 | 14.96376 | 54° | 89km/h | 14312m | 5.1m/s | 0°C | 0% | 0hPa | 2.7V | 08:30:00 | 01:24:46 | 00:00:00 | |
| AA1-15 | 2026-08-31 17:40:37 | 52.55108 | 14.96438 | 55° | 93km/h | 14321m | 5m/s | -51.1°C | 1.3% | 140.3hPa | 2.6V | 18:12:15 | 01:24:48 | 00:00:00 | |
| DL1XH-west | 2026-08-31 17:40:31 | 52.55031 | 14.96255 | 57° | 86km/h | 14293m | 5.4m/s | -51°C | 1.3% | 140.9hPa | 2.7V | 18:12:15 | 01:24:42 | 00:00:00 | |
| OE3JTB-15 | 2026-08-31 17:40:30 | 52.55019 | 14.96225 | 59° | 86km/h | 14289m | 3.2m/s | 0°C | 0% | 0hPa | 2.7V | 00:00:00 | 00:00:00 | 00:00:00 | |
| DL1XH1-15 | 2026-08-31 17:40:29 | 52.54953 | 14.96041 | 58° | 88km/h | 14263m | 3.9m/s | 0°C | 0% | 0hPa | 2.7V | 08:30:00 | 01:24:35 | 00:00:00 | |
| AA1-15 | 2026-08-31 17:40:26 | 52.54976 | 14.96103 | 59° | 86km/h | 14271m | 4.3m/s | -50.8°C | 1.3% | 141.4hPa | 2.6V | 18:12:15 | 01:24:37 | 00:00:00 | |
| DB0DAN | 2026-08-31 17:40:25 | 52.54965 | 14.96072 | 59° | 84km/h | 14267m | 4.5m/s | -50.8°C | 1.8% | 141.5hPa | 2.7V | 00:00:00 | 00:00:00 | 00:00:00 | |
| DL1XH-west | 2026-08-31 17:40:17 | 52.54869 | 14.95840 | 56° | 82km/h | 14229m | 5.1m/s | -50.5°C | 1.2% | 142.3hPa | 2.7V | 18:12:15 | 01:24:28 | 00:00:00 | |
| SONDE2-12 | 2026-08-31 17:40:16 | 52.54857 | 14.95812 | 55° | 82km/h | 14225m | 3.2m/s | -50.5°C | 1.8% | 142.4hPa | 2.6V | 00:00:00 | 00:00:00 | 00:00:00 | |
| AA1-15 | 2026-08-31 17:40:15 | 52.54845 | 14.95784 | 55° | 82km/h | 14220m | 5.5m/s | -50.5°C | 1.2% | 142.5hPa | 2.6V | 18:12:15 | 01:24:26 | 00:00:00 | |
| 3Z3Z-3 | 2026-08-31 17:40:14 | 52.54845 | 14.95784 | 56° | 82km/h | 14221m | 5.5m/s | 0°C | 0% | 0hPa | 2.6V | 00:00:00 | 00:00:00 | 00:00:00 | |
| DB0DAN | 2026-08-31 17:40:10 | 52.54783 | 14.95641 | 52° | 82km/h | 14198m | 4.2m/s | -50.4°C | 1.7% | 143.02hPa | 2.6V | 00:00:00 | 00:00:00 | 00:00:00 | |
| DL1XH-west | 2026-08-31 17:40:07 | 52.54743 | 14.95556 | 52° | 86km/h | 14184m | 5.6m/s | -50.4°C | 1.3% | 143.3hPa | 2.7V | 18:12:15 | 01:24:18 | 00:00:00 | |
| AA1-15 | 2026-08-31 17:40:04 | 52.54704 | 14.95475 | 53° | 82km/h | 14170m | 4.3m/s | -50.3°C | 1.2% | 143.6hPa | 2.7V | 18:12:15 | 01:24:15 | 00:00:00 | |
| SP3BTT-10 | 2026-08-31 17:40:04 | 52.54703 | 14.95475 | 53° | 77km/h | 14170m | 4.3m/s | -50.3°C | 4.0% | 143.6hPa | 2.7V | 00:00:00 | 00:00:00 | 00:00:00 | |
| KRY50SP-1 | 2026-08-31 17:40:03 | 52.54703 | 14.95475 | 53° | 82km/h | 14170m | 4.3m/s | -50.3°C | 1.7% | 143.6hPa | 2.6V | 00:00:00 | 00:00:00 | 00:00:00 | |
| DL1XH1-15 | 2026-08-31 17:40:01 | 52.54599 | 14.95259 | 47° | 84km/h | 14132m | 4.3m/s | 0°C | 0% | 0hPa | 2.6V | 00:00:00 | 01:24:07 | 00:00:00 | |
| DL2RXE-15 | 2026-08-31 17:39:59 | 52.54652 | 14.95366 | 54° | 84km/h | 14152m | 4.1m/s | -50.4°C | 1.7% | 144.0hPa | 2.6V | 00:00:00 | 00:00:00 | 00:00:00 | |
| KRY50SP-1 | 2026-08-31 17:39:57 | 52.54626 | 14.95311 | 52° | 84km/h | 14142m | 4.0m/s | -50.4°C | 1.8% | 144.3hPa | 2.6V | 00:00:00 | 00:00:00 | 00:00:00 | |
| DM0DOS-11 | 2026-08-31 17:39:56 | 52.54525 | 14.95140 | 45° | 80km/h | 14106m | 4.8m/s | -50.1°C | 4.1% | 145hPa | 2.6V | 08:30:00 | 01:24:02 | 00:00:00 | |
| DL1XH-west | 2026-08-31 17:39:56 | 52.54599 | 14.95259 | 47° | 84km/h | 14132m | 4.4m/s | 0°C | 0% | 144.4hPa | 2.6V | 18:12:15 | 01:24:07 | 00:00:00 | |
| DB0DAN | 2026-08-31 17:39:55 | 52.54584 | 14.95233 | 46° | 78km/h | 14127m | 5.8m/s | -50.4°C | 1.7% | 144.52hPa | 2.6V | 00:00:00 | 00:00:00 | 00:00:00 | |
| AA1-15 | 2026-08-31 17:39:53 | 52.54555 | 14.95187 | 43° | 80km/h | 14116m | 5.8m/s | -50.3°C | 1.2% | 144.8hPa | 2.7V | 18:12:15 | 01:24:04 | 00:00:00 | |
| DL1XH-west | 2026-08-31 17:39:46 | 52.54458 | 14.95014 | 51° | 80km/h | 14082m | 3.9m/s | 0°C | 0% | 145.6hPa | 2.7V | 18:12:15 | 01:23:57 | 00:00:00 | |
| SONDE2-12 | 2026-08-31 17:39:45 | 52.54431 | 14.94962 | 49° | 82km/h | 14072m | 5.3m/s | -50.0°C | 1.8% | 145.7hPa | 2.7V | 00:00:00 | 00:00:00 | 00:00:00 | |
| AA1-15 | 2026-08-31 17:39:42 | 52.54404 | 14.94912 | 47° | 78km/h | 14063m | 4.9m/s | -50°C | 1.2% | 145.9hPa | 2.7V | 18:12:15 | 01:23:53 | 00:00:00 | |
| DB0DAN | 2026-08-31 17:39:40 | 52.54376 | 14.94866 | 43° | 73km/h | 14054m | 5.3m/s | -49.9°C | 1.7% | 146.12hPa | 2.7V | 00:00:00 | 00:00:00 | 00:00:00 | |
| DL1XH-west | 2026-08-31 17:39:35 | 52.54307 | 14.94760 | 46° | 77km/h | 14032m | 3.5m/s | 0°C | 0% | 0hPa | 2.6V | 18:12:15 | 01:23:46 | 00:00:00 | |
| AA1-15 | 2026-08-31 17:39:31 | 52.54255 | 14.94663 | 50° | 80km/h | 14014m | 4.2m/s | -49.9°C | 1.2% | 147hPa | 2.7V | 18:12:15 | 01:23:42 | 00:00:00 | |
| DAC517 | 2026-08-31 17:39:30 | 52.54243 | 14.94637 | 52° | 80km/h | 14010m | 4.8m/s | -49.9°C | 1.7% | 147.1hPa | 2.7V | 00:00:00 | 00:00:00 | 00:00:00 | |
| KRY50SP-1 | 2026-08-31 17:39:28 | 52.54230 | 14.94611 | 53° | 80km/h | 14006m | 4.1m/s | -49.9°C | 1.7% | 147.2hPa | 2.7V | 00:00:00 | 00:00:00 | 00:00:00 | |
| DB0DAN | 2026-08-31 17:39:25 | 52.54179 | 14.94513 | 47° | 71km/h | 13987m | 5.7m/s | -49.8°C | 1.8% | 147.68hPa | 2.7V | 00:00:00 | 00:00:00 | 00:00:00 | |
| DL1XH-west | 2026-08-31 17:39:25 | 52.54179 | 14.94513 | 47° | 75km/h | 13987m | 5.7m/s | 0°C | 0% | 0hPa | 2.7V | 18:12:15 | 01:23:36 | 00:00:00 | |
| AA1-15 | 2026-08-31 17:39:20 | 52.54114 | 14.94404 | 47° | 73km/h | 13964m | 4.5m/s | -49.7°C | 1.2% | 148.2hPa | 2.7V | 18:12:15 | 01:23:31 | 00:00:00 | |
| DL1XH-west | 2026-08-31 17:39:14 | 52.54040 | 14.94265 | 51° | 75km/h | 13936m | 4.4m/s | 0°C | 0% | 0hPa | 2.7V | 18:12:15 | 01:23:25 | 00:00:00 | |
| SONDE2-12 | 2026-08-31 17:39:14 | 52.54040 | 14.94265 | 51° | 73km/h | 13937m | 4.4m/s | -49.7°C | 1.8% | 148.8hPa | 2.7V | 00:00:00 | 00:00:00 | 00:00:00 | |
| KRY50SP-1 | 2026-08-31 17:39:13 | 52.54029 | 14.94241 | 53° | 73km/h | 13932m | 4.2m/s | -49.6°C | 1.7% | 148.9hPa | 2.7V | 00:00:00 | 00:00:00 | 00:00:00 | |
| DB0DAN | 2026-08-31 17:39:10 | 52.53994 | 14.94169 | 51° | 69km/h | 13918m | 4.4m/s | -49.5°C | 1.7% | 149.2hPa | 2.7V | 00:00:00 | 00:00:00 | 00:00:00 | |
| AA1-15 | 2026-08-31 17:39:09 | 52.53982 | 14.94146 | 51° | 71km/h | 13914m | 4.2m/s | -49.5°C | 1.1% | 149.3hPa | 2.7V | 18:12:15 | 01:23:20 | 00:00:00 | |
| DL1XH-west | 2026-08-31 17:39:04 | 52.53924 | 14.94037 | 48° | 69km/h | 13891m | 4.5m/s | 0°C | 0% | 0hPa | 2.6V | 18:12:15 | 01:23:15 | 00:00:00 | |
| AA1-15 | 2026-08-31 17:38:58 | 52.53852 | 14.93912 | 46° | 68km/h | 13865m | 4.3m/s | -49.2°C | 1.2% | 150.4hPa | 2.6V | 18:12:15 | 01:23:09 | 00:00:00 | |
| DB0DAN | 2026-08-31 17:38:55 | 52.53817 | 14.93853 | 46° | 64km/h | 13851m | 4.9m/s | -49.1°C | 1.7% | 150.67hPa | 2.7V | 00:00:00 | 00:00:00 | 00:00:00 | |
| DL1XH-west | 2026-08-31 17:38:52 | 52.53784 | 14.93792 | 48° | 66km/h | 13839m | 3.7m/s | 0°C | 0% | 0hPa | 2.6V | 18:12:15 | 01:23:03 | 00:00:00 | |
| AA1-15 | 2026-08-31 17:38:47 | 52.53726 | 14.93686 | 48° | 69km/h | 13817m | 5.1m/s | -48.8°C | 1.1% | 151.5hPa | 2.6V | 18:12:15 | 01:22:58 | 00:00:00 | |
| SONCRA | 2026-08-31 17:38:46 | 52.53714 | 14.93665 | 47° | 68km/h | 13813m | 3.7m/s | -48.7°C | 1.7% | 151.6hPa | 2.6V | 00:00:00 | 00:00:00 | 00:00:00 | |
| SONDE2-12 | 2026-08-31 17:38:43 | 52.53669 | 14.93586 | 44° | 62km/h | 13796m | 3.4m/s | -48.6°C | 1.8% | 152.0hPa | 2.6V | 00:00:00 | 00:00:00 | 00:00:00 | |
| DL1XH-west | 2026-08-31 17:38:42 | 52.53669 | 14.93586 | 45° | 64km/h | 13796m | 3.4m/s | 0°C | 0% | 0hPa | 2.6V | 18:12:15 | 01:22:53 | 00:00:00 | |
| DB0NH | 2026-08-31 17:38:42 | 52.53669 | 14.93586 | 45° | 64km/h | 13796m | 3.3m/s | -48.6°C | 3.9% | 152.0hPa | 2.7V | 00:00:00 | 01:22:53 | 00:00:00 | |
| DM0DOS-11 | 2026-08-31 17:38:41 | 52.53601 | 14.93469 | 47° | 68km/h | 13769m | 4.2m/s | -48.4°C | 3.8% | 152.6hPa | 2.7V | 08:30:00 | 01:22:47 | 00:00:00 | |
| DB0DAN | 2026-08-31 17:38:40 | 52.53646 | 14.93548 | 47° | 60km/h | 13787m | 3.7m/s | -48.5°C | 1.6% | 152.2hPa | 2.7V | 00:00:00 | 00:00:00 | 00:00:00 | |
| AA1-15 | 2026-08-31 17:38:36 | 52.53601 | 14.93469 | 48° | 68km/h | 13769m | 4.3m/s | -48.4°C | 1% | 152.6hPa | 2.7V | 18:12:15 | 01:22:47 | 00:00:00 | |
| SP6BVK | 2026-08-31 17:38:35 | 52.53601 | 14.93469 | 49° | 68km/h | 13770m | 4.3m/s | -48.4°C | 1.7% | 152.6hPa | 2.6V | 00:00:00 | 00:00:00 | 00:00:00 | |
| SP3WXH-11 | 2026-08-31 17:38:34 | 52.53577 | 14.93429 | 46° | 66km/h | 13760m | 3.9m/s | -48.3°C | 1.6% | 152.8hPa | 2.6V | 00:00:00 | 00:00:00 | 00:00:00 | |
| SP3BTT-10 | 2026-08-31 17:38:33 | 52.53566 | 14.93409 | 48° | 66km/h | 13755m | 5.5m/s | -48.2°C | 3.8% | 152.9hPa | 2.6V | 00:00:00 | 00:00:00 | 00:00:00 | |
| DM0DOS-11 | 2026-08-31 17:38:31 | 52.53488 | 14.93276 | 47° | 64km/h | 13724m | 3.5m/s | -48.1°C | 3.8% | 153.6hPa | 2.6V | 08:30:00 | 01:22:37 | 00:00:00 | |
| DL1XH-west | 2026-08-31 17:38:31 | 52.53544 | 14.93370 | 45° | 64km/h | 13746m | 4.9m/s | 0°C | 0% | 0hPa | 2.7V | 18:12:15 | 01:22:42 | 00:00:00 | |
| AA1-15 | 2026-08-31 17:38:26 | 52.53488 | 14.93276 | 48° | 64km/h | 13724m | 3.6m/s | -48.2°C | 1% | 153.6hPa | 2.6V | 18:12:15 | 01:22:37 | 00:00:00 | |
| DB0DAN | 2026-08-31 17:38:25 | 52.53477 | 14.93256 | 49° | 62km/h | 13719m | 5.2m/s | -48.1°C | 1.7% | 153.76hPa | 2.7V | 00:00:00 | 00:00:00 | 00:00:00 | |
| DL1XH-west | 2026-08-31 17:38:20 | 52.53424 | 14.93153 | 49° | 62km/h | 13698m | 3.5m/s | 0°C | 0% | 0hPa | 2.7V | 18:12:15 | 01:22:31 | 00:00:00 | |
| AA1-15 | 2026-08-31 17:38:15 | 52.53372 | 14.93059 | 49° | 62km/h | 13675m | 4.3m/s | 0°C | 0% | 154.8hPa | 2.7V | 18:12:15 | 01:22:26 | 00:00:00 | |
| SONDE2-12 | 2026-08-31 17:38:12 | 52.53332 | 14.92975 | 53° | 66km/h | 13659m | 4.5m/s | -48.0°C | 1.7% | 155.1hPa | 2.7V | 00:00:00 | 00:00:00 | 00:00:00 | |
| DB0DAN | 2026-08-31 17:38:10 | 52.53322 | 14.92952 | 55° | 64km/h | 13654m | 4m/s | -47.9°C | 1.6% | 155.29hPa | 2.7V | 00:00:00 | 00:00:00 | 00:00:00 | |
| DL1XH-west | 2026-08-31 17:38:09 | 52.53313 | 14.92929 | 56° | 68km/h | 13650m | 4.6m/s | 0°C | 0% | 0hPa | 2.7V | 18:12:15 | 01:22:20 | 00:00:00 | |
| AA1-15 | 2026-08-31 17:38:04 | 52.53266 | 14.92815 | 57° | 64km/h | 13631m | 3.7m/s | 0°C | 0% | 0hPa | 2.7V | 18:12:15 | 01:22:15 | 00:00:00 | |
| EDDB2-12 | 2026-08-31 17:38:03 | 52.53257 | 14.92793 | 56° | 64km/h | 13627m | 4.4m/s | -48.0°C | 1.6% | 156.0hPa | 2.8V | 00:00:00 | 00:00:00 | 00:00:00 | |
| KRY50SP-1 | 2026-08-31 17:37:59 | 52.53231 | 14.92725 | 60° | 66km/h | 13614m | 5.3m/s | -48.1°C | 1.6% | 156.3hPa | 2.8V | 00:00:00 | 00:00:00 | 00:00:00 | |
| DL2RXE-15 | 2026-08-31 17:37:57 | 52.53214 | 14.92677 | 62° | 68km/h | 13606m | 5.0m/s | -48.1°C | 1.6% | 156.5hPa | 2.8V | 00:00:00 | 00:00:00 | 00:00:00 | |
| DB0DAN | 2026-08-31 17:37:55 | 52.53188 | 14.92603 | 60° | 64km/h | 13593m | 4.4m/s | -48.1°C | 1.6% | 156.75hPa | 2.8V | 00:00:00 | 00:00:00 | 00:00:00 | |
| AA1-15 | 2026-08-31 17:37:54 | 52.53180 | 14.92580 | 61° | 66km/h | 13589m | 4.2m/s | 0°C | 0% | 0hPa | 2.7V | 18:12:15 | 01:22:05 | 00:00:00 | |
| D01LWL | 2026-08-31 17:37:52 | 52.53154 | 14.92510 | 58° | 64km/h | 13577m | 4.2m/s | -48.1°C | 1.6% | 157.1hPa | 2.8V | 00:00:00 | 00:00:00 | 00:00:00 | |
| DM0DOS-11 | 2026-08-31 17:37:51 | 52.53137 | 14.92464 | 59° | 66km/h | 13568m | 4.4m/s | -48.1°C | 3.7% | 157.3hPa | 2.8V | 08:30:00 | 01:22:00 | 00:00:00 | |
| S3001 | 2026-08-31 17:37:50 | 52.53146 | 14.92487 | 59° | 64km/h | 13573m | 4.1m/s | -48.1°C | 1.6% | 157.3hPa | 2.7V | 00:00:00 | 00:00:00 | 00:00:00 | |
| SP3BTT-10 | 2026-08-31 17:37:48 | 52.53129 | 14.92440 | 59° | 69km/h | 13565m | 3.2m/s | -48.1°C | 3.7% | 157.4hPa | 2.7V | 00:00:00 | 00:00:00 | 08:30:00 | |
| DAC517 | 2026-08-31 17:37:47 | 52.53120 | 14.92417 | 60° | 66km/h | 13561m | 4.1m/s | -48.2°C | 1.6% | 157.6hPa | 2.6V | 00:00:00 | 00:00:00 | 00:00:00 | |
| SONCRA | 2026-08-31 17:37:44 | 52.53094 | 14.92345 | 58° | 68km/h | 13550m | 3.8m/s | -48.1°C | 1.6% | 157.8hPa | 2.6V | 00:00:00 | 00:00:00 | 00:00:00 | |
| DB0NH | 2026-08-31 17:37:42 | 52.53076 | 14.92297 | 58° | 69km/h | 13542m | 3.7m/s | -48.1°C | 3.7% | 158.0hPa | 2.6V | 00:00:00 | 01:21:53 | 00:00:00 | |
| DM0DOS-11 | 2026-08-31 17:37:41 | 52.53047 | 14.92225 | 55° | 69km/h | 13530m | 4.2m/s | -48.1°C | 3.7% | 158.3hPa | 2.6V | 08:30:00 | 01:21:50 | 00:00:00 | |
| SONDE2-12 | 2026-08-31 17:37:41 | 52.53057 | 14.92249 | 55° | 69km/h | 13534m | 3.3m/s | -48.1°C | 1.7% | 158.2hPa | 2.6V | 00:00:00 | 00:00:00 | 00:00:00 | |
| DB0DAN | 2026-08-31 17:37:40 | 52.53057 | 14.92249 | 55° | 68km/h | 13533m | 3.3m/s | -48.1°C | 1.6% | 158.18hPa | 2.6V | 00:00:00 | 00:00:00 | 00:00:00 | |
| KRY50SP-1 | 2026-08-31 17:37:38 | 52.53047 | 14.92225 | 56° | 69km/h | 13530m | 4.2m/s | -48.1°C | 1.6% | 158.3hPa | 2.6V | 00:00:00 | 00:00:00 | 00:00:00 | |
| SONDE2-11 | 2026-08-31 17:37:37 | 52.53027 | 14.92178 | 55° | 69km/h | 13522m | 4.2m/s | -48.2°C | 1.6% | 158.5hPa | 2.6V | 00:00:00 | 00:00:00 | 00:00:00 | |
| EDDB2-12 | 2026-08-31 17:37:32 | 52.52979 | 14.92062 | 56° | 66km/h | 13502m | 4.2m/s | -48.1°C | 1.6% | 159.0hPa | 2.6V | 00:00:00 | 00:00:00 | 00:00:00 | |
| DM0DOS-11 | 2026-08-31 17:37:31 | 52.52952 | 14.91991 | 58° | 69km/h | 13490m | 4.5m/s | -48.2°C | 3.7% | 159.2hPa | 2.6V | 08:30:00 | 01:21:40 | 00:00:00 | |
| MECKS9 | 2026-08-31 17:37:29 | 52.52961 | 14.92015 | 59° | 68km/h | 13494m | 3.1m/s | -48.1°C | 0% | 0hPa | 2.6V | 00:00:00 | 00:00:00 | 00:00:00 | |
| KRY50SP-1 | 2026-08-31 17:37:27 | 52.52943 | 14.91966 | 60° | 71km/h | 13486m | 3.1m/s | -48.2°C | 1.6% | 159.3hPa | 2.6V | 00:00:00 | 00:00:00 | 00:00:00 | |
| DB0DAN | 2026-08-31 17:37:25 | 52.52915 | 14.91890 | 59° | 68km/h | 13475m | 3.8m/s | -48.2°C | 1.6% | 159.58hPa | 2.6V | 00:00:00 | 00:00:00 | 00:00:00 | |
| DM0DOS-11 | 2026-08-31 17:37:21 | 52.52858 | 14.91743 | 57° | 69km/h | 13453m | 3.9m/s | -48.2°C | 3.7% | 160.2hPa | 2.6V | 08:30:00 | 01:21:30 | 00:00:00 | |
| D01LWL | 2026-08-31 17:37:21 | 52.52877 | 14.91791 | 56° | 69km/h | 13461m | 2.9m/s | 0°C | -1.0% | 160.0hPa | 2.6V | 00:00:00 | 00:00:00 | 00:00:00 | |
| S3001 | 2026-08-31 17:37:19 | 52.52858 | 14.91742 | 57° | 69km/h | 13453m | 3.9m/s | -48.2°C | 1.6% | 160.2hPa | 2.6V | 00:00:00 | 00:00:00 | 00:00:00 | |
| KRY50SP-1 | 2026-08-31 17:37:17 | 52.52840 | 14.91693 | 60° | 71km/h | 13446m | 4.1m/s | -48.2°C | 1.6% | 160.3hPa | 2.6V | 00:00:00 | 00:00:00 | 00:00:00 | |
| SONCRA | 2026-08-31 17:37:13 | 52.52802 | 14.91597 | 55° | 68km/h | 13431m | 4.2m/s | -48.1°C | 1.6% | 160.7hPa | 2.6V | 00:00:00 | 00:00:00 | 00:00:00 | |
| DB0NH | 2026-08-31 17:37:12 | 52.52792 | 14.91573 | 54° | 68km/h | 13427m | 3.7m/s | -48.1°C | 3.7% | 160.7hPa | 2.6V | 00:00:00 | 01:21:23 | 00:00:00 | |
| DM0DOS-11 | 2026-08-31 17:37:11 | 52.52760 | 14.91505 | 52° | 69km/h | 13416m | 4.1m/s | -48°C | 3.7% | 161hPa | 2.6V | 08:30:00 | 01:21:20 | 00:00:00 | |
| DB0DAN | 2026-08-31 17:37:10 | 52.52771 | 14.91528 | 52° | 66km/h | 13420m | 3.9m/s | -48.1°C | 1.6% | 160.93hPa | 2.6V | 00:00:00 | 00:00:00 | 00:00:00 | |
| SONDE2-12 | 2026-08-31 17:37:10 | 52.52760 | 14.91505 | 52° | 68km/h | 13416m | 4.1m/s | -48.1°C | 1.7% | 161.0hPa | 2.7V | 00:00:00 | 00:00:00 | 00:00:00 | |
| SONDE2-11 | 2026-08-31 17:37:06 | 52.52729 | 14.91439 | 52° | 64km/h | 13404m | 3.1m/s | -48.0°C | 1.6% | 161.3hPa | 2.7V | 00:00:00 | 00:00:00 | 00:00:00 | |
| KRY50SP-1 | 2026-08-31 17:37:05 | 52.52729 | 14.91439 | 54° | 64km/h | 13404m | 3.1m/s | -48.0°C | 1.6% | 161.3hPa | 2.7V | 00:00:00 | 00:00:00 | 00:00:00 | |
| SP3BTT-10 | 2026-08-31 17:37:04 | 52.52709 | 14.91395 | 53° | 68km/h | 13397m | 3.0m/s | -48.0°C | 3.7% | 161.5hPa | 2.7V | 00:00:00 | 00:00:00 | 00:00:00 | |
| DM0DOS-11 | 2026-08-31 17:37:01 | 52.52658 | 14.91285 | 54° | 69km/h | 13378m | 2.9m/s | -47.9°C | 3.7% | 162hPa | 2.7V | 08:30:00 | 01:21:10 | 00:00:00 | |
| EDDB2-12 | 2026-08-31 17:37:01 | 52.52679 | 14.91330 | 53° | 66km/h | 13385m | 3.8m/s | -48.1°C | 1.6% | 161.8hPa | 2.7V | 00:00:00 | 00:00:00 | 00:00:00 | |
| EDDB2-11 | 2026-08-31 17:37:00 | 52.52669 | 14.91308 | 53° | 68km/h | 13381m | 4.1m/s | -48.0°C | 1.6% | 161.9hPa | 2.7V | 00:00:00 | 00:00:00 | 00:00:00 | |
| MECKS9 | 2026-08-31 17:36:59 | 52.52669 | 14.91308 | 54° | 69km/h | 13381m | 4.1m/s | -48.0°C | 0% | 0hPa | 2.7V | 00:00:00 | 00:00:00 | 00:00:00 | |
| DB0DAN | 2026-08-31 17:36:55 | 52.52618 | 14.91190 | 55° | 68km/h | 13362m | 3.9m/s | -47.9°C | 1.6% | 162.35hPa | 2.7V | 00:00:00 | 00:00:00 | 00:00:00 | |
| DM0DOS-11 | 2026-08-31 17:36:51 | 52.52559 | 14.91051 | 56° | 68km/h | 13339m | 4.1m/s | -47.9°C | 3.6% | 162.9hPa | 2.7V | 08:30:00 | 01:21:00 | 00:00:00 | |
| D01LWL | 2026-08-31 17:36:50 | 52.52568 | 14.91074 | 56° | 66km/h | 13343m | 3.9m/s | 0°C | -1.0% | -1.0hPa | 2.7V | 00:00:00 | 00:00:00 | 00:00:00 | |
| S3001 | 2026-08-31 17:36:48 | 52.52549 | 14.91027 | 57° | 68km/h | 13335m | 3.6m/s | -47.9°C | 1.6% | 163.0hPa | 2.7V | 00:00:00 | 00:00:00 | 00:00:00 | |
| DAC517 | 2026-08-31 17:36:45 | 52.52523 | 14.90956 | 59° | 66km/h | 13324m | 3.9m/s | -47.9°C | 1.6% | 163.3hPa | 2.7V | 00:00:00 | 00:00:00 | 00:00:00 | |
| KRY50SP-1 | 2026-08-31 17:36:43 | 52.52514 | 14.90933 | 56° | 68km/h | 13320m | 3.5m/s | -47.9°C | 1.6% | 163.4hPa | 2.7V | 00:00:00 | 00:00:00 | 00:00:00 | |
| DM0DOS-11 | 2026-08-31 17:36:41 | 52.52461 | 14.90823 | 49° | 69km/h | 13301m | 3.6m/s | -47.9°C | 3.6% | 163.9hPa | 2.7V | 08:30:00 | 01:20:50 | 00:00:00 | |
| DB0DAN | 2026-08-31 17:36:40 | 52.52472 | 14.90845 | 50° | 66km/h | 13305m | 4.6m/s | -48°C | 1.6% | 163.77hPa | 2.6V | 00:00:00 | 00:00:00 | 00:00:00 | |
| SONDE2-12 | 2026-08-31 17:36:39 | 52.52450 | 14.90801 | 48° | 66km/h | 13297m | 4.3m/s | -47.9°C | 1.7% | 164.0hPa | 2.8V | 00:00:00 | 00:00:00 | 00:00:00 | |
| KRY50SP-1 | 2026-08-31 17:36:37 | 52.52449 | 14.90801 | 50° | 68km/h | 13297m | 4.3m/s | -47.9°C | 1.6% | 164.0hPa | 2.8V | 00:00:00 | 00:00:00 | 00:00:00 | |
| SONDE2-11 | 2026-08-31 17:36:36 | 52.52416 | 14.90739 | 50° | 66km/h | 13285m | 3.5m/s | -47.9°C | 1.6% | 164.3hPa | 2.8V | 00:00:00 | 00:00:00 | 00:00:00 | |
| DL2RXE-15 | 2026-08-31 17:36:33 | 52.52406 | 14.90718 | 51° | 66km/h | 13281m | 4.7m/s | -48.0°C | 1.6% | 164.3hPa | 2.8V | 00:00:00 | 00:00:00 | 00:00:00 | |
| KRY50SP-1 | 2026-08-31 17:36:32 | 52.52395 | 14.90697 | 52° | 66km/h | 13277m | 3.2m/s | -48.0°C | 1.6% | 164.5hPa | 2.8V | 00:00:00 | 00:00:00 | 00:00:00 | |
| DM0DOS-11 | 2026-08-31 17:36:31 | 52.52353 | 14.90611 | 51° | 66km/h | 13261m | 3m/s | -48°C | 3.7% | 164.8hPa | 2.8V | 08:30:00 | 01:20:40 | 00:00:00 | |
| EDDB2-12 | 2026-08-31 17:36:30 | 52.52364 | 14.90632 | 51° | 66km/h | 13265m | 4.8m/s | -48.1°C | 1.6% | 164.7hPa | 2.6V | 00:00:00 | 00:00:00 | 00:00:00 | |
| EDDB2-11 | 2026-08-31 17:36:29 | 52.52353 | 14.90611 | 51° | 66km/h | 13261m | 3.0m/s | -48.0°C | 1.6% | 164.8hPa | 2.6V | 00:00:00 | 00:00:00 | 00:00:00 | |
| DB0DAN | 2026-08-31 17:36:25 | 52.52309 | 14.90523 | 50° | 66km/h | 13245m | 4.2m/s | -48°C | 1.6% | 165.26hPa | 2.6V | 00:00:00 | 00:00:00 | 00:00:00 | |
| DAC517 | 2026-08-31 17:36:23 | 52.52298 | 14.90501 | 51° | 69km/h | 13241m | 3.0m/s | -47.9°C | 1.6% | 165.3hPa | 2.6V | 00:00:00 | 00:00:00 | 00:00:00 | |
| DM0DOS-11 | 2026-08-31 17:36:21 | 52.52241 | 14.90391 | 50° | 69km/h | 13222m | 5m/s | -47.9°C | 3.6% | 165.8hPa | 2.6V | 08:30:00 | 01:20:30 | 00:00:00 | |
| SP3BTT-10 | 2026-08-31 17:36:19 | 52.52241 | 14.90391 | 51° | 66km/h | 13222m | 4.9m/s | -47.8°C | 3.6% | 165.7hPa | 2.6V | 00:00:00 | 00:00:00 | 00:00:00 | |
| S3001 | 2026-08-31 17:36:17 | 52.52219 | 14.90348 | 49° | 68km/h | 13214m | 4.6m/s | -47.9°C | 1.6% | 166.0hPa | 2.6V | 00:00:00 | 00:00:00 | 00:00:00 | |
| KRY50SP-1 | 2026-08-31 17:36:15 | 52.52208 | 14.90326 | 51° | 68km/h | 13210m | 3.5m/s | -47.8°C | 1.6% | 166.1hPa | 2.6V | 00:00:00 | 00:00:00 | 00:00:00 | |
| DL2RXE-15 | 2026-08-31 17:36:12 | 52.52175 | 14.90262 | 51° | 66km/h | 13198m | 4.5m/s | -47.8°C | 1.6% | 166.4hPa | 2.6V | 00:00:00 | 00:00:00 | 00:00:00 | |
| DM0DOS-11 | 2026-08-31 17:36:11 | 52.52132 | 14.90182 | 47° | 64km/h | 13182m | 4.2m/s | -47.6°C | 3.7% | 166.8hPa | 2.6V | 08:30:00 | 01:20:20 | 00:00:00 | |
| SONDE2-12 | 2026-08-31 17:36:08 | 52.52111 | 14.90143 | 49° | 62km/h | 13174m | 4.4m/s | -47.6°C | 1.7% | 167.0hPa | 2.6V | 00:00:00 | 00:00:00 | 00:00:00 | |
| KRY50SP-1 | 2026-08-31 17:36:05 | 52.52089 | 14.90102 | 51° | 64km/h | 13166m | 4.1m/s | -47.5°C | 1.6% | 167.2hPa | 2.6V | 00:00:00 | 00:00:00 | 00:00:00 | |
| SONDE2-11 | 2026-08-31 17:36:04 | 52.52079 | 14.90082 | 50° | 62km/h | 13162m | 3.5m/s | -47.5°C | 1.6% | 167.3hPa | 2.6V | 00:00:00 | 00:00:00 | 00:00:00 | |
| DAC517 | 2026-08-31 17:36:03 | 52.52069 | 14.90061 | 52° | 64km/h | 13158m | 5.4m/s | -47.5°C | 1.6% | 167.4hPa | 2.6V | 00:00:00 | 00:00:00 | 00:00:00 | |
| DM0DOS-11 | 2026-08-31 17:36:01 | 52.52028 | 14.89979 | 50° | 66km/h | 13141m | 4.7m/s | -47.6°C | 3.6% | 167.9hPa | 2.6V | 08:30:00 | 01:20:10 | 00:00:00 | |
| SP3WXH-11 | 2026-08-31 17:35:59 | 52.52028 | 14.89979 | 50° | 64km/h | 13141m | 4.7m/s | -47.6°C | 1.6% | 167.9hPa | 2.7V | 00:00:00 | 00:00:00 | 00:00:00 | |
| EDDB2-11 | 2026-08-31 17:35:58 | 52.52017 | 14.89958 | 50° | 64km/h | 13137m | 4.6m/s | -47.6°C | 1.6% | 168.0hPa | 2.7V | 00:00:00 | 00:00:00 | 00:00:00 | |
| DB0DAN | 2026-08-31 17:35:55 | 52.51986 | 14.89895 | 52° | 64km/h | 13124m | 3.2m/s | -47.5°C | 1.6% | 168.31hPa | 2.7V | 00:00:00 | 00:00:00 | 00:00:00 | |
| KRY50SP-1 | 2026-08-31 17:35:53 | 52.51975 | 14.89873 | 53° | 68km/h | 13120m | 5.0m/s | -47.5°C | 1.6% | 168.4hPa | 2.7V | 00:00:00 | 00:00:00 | 00:00:00 | |
| DM0DOS-11 | 2026-08-31 17:35:51 | 52.51927 | 14.89760 | 55° | 66km/h | 13098m | 3m/s | -47.4°C | 3.6% | 169hPa | 2.7V | 08:30:00 | 01:20:00 | 00:00:00 | |
| S3001 | 2026-08-31 17:35:46 | 52.51889 | 14.89669 | 55° | 64km/h | 13083m | 4.1m/s | -47.3°C | 1.6% | 169.3hPa | 2.7V | 00:00:00 | 00:00:00 | 00:00:00 | |
| KRY50SP-1 | 2026-08-31 17:35:45 | 52.51880 | 14.89647 | 57° | 66km/h | 13079m | 3.9m/s | -47.3°C | 1.6% | 169.5hPa | 2.7V | 00:00:00 | 00:00:00 | 00:00:00 | |
| 3Z3Z-3 | 2026-08-31 17:35:43 | 52.51880 | 14.89647 | 57° | 66km/h | 13079m | 3.9m/s | 0°C | 0% | 0hPa | 2.7V | 00:00:00 | 00:00:00 | 00:00:00 | |
| DM0DOS-11 | 2026-08-31 17:35:41 | 52.51833 | 14.89536 | 54° | 66km/h | 13058m | 3.6m/s | -47.6°C | 3.6% | 169.9hPa | 2.7V | 08:30:00 | 01:19:50 | 00:00:00 | |
| DB0DAN | 2026-08-31 17:35:40 | 52.51843 | 14.89558 | 55° | 62km/h | 13062m | 4.7m/s | -47.6°C | 1.6% | 169.89hPa | 2.8V | 00:00:00 | 00:00:00 | 00:00:00 | |
| SONDE2-12 | 2026-08-31 17:35:37 | 52.51804 | 14.89469 | 55° | 66km/h | 13046m | 4.5m/s | -47.6°C | 1.7% | 170.3hPa | 2.6V | 00:00:00 | 00:00:00 | 00:00:00 | |
| SP3BTT-10 | 2026-08-31 17:35:33 | 52.51777 | 14.89398 | 61° | 69km/h | 13033m | 4.1m/s | -47.5°C | 3.7% | 170.6hPa | 2.6V | 00:00:00 | 00:00:00 | 00:00:00 | |
| DM0DOS-11 | 2026-08-31 17:35:31 | 52.51745 | 14.89298 | 63° | 66km/h | 13016m | 3.7m/s | -47.6°C | 3.6% | 171.1hPa | 2.7V | 08:30:00 | 01:19:40 | 00:00:00 | |
| EDDB2-12 | 2026-08-31 17:35:28 | 52.51737 | 14.89274 | 62° | 66km/h | 13012m | 3.8m/s | -47.7°C | 1.7% | 171.2hPa | 2.6V | 00:00:00 | 00:00:00 | 00:00:00 | |
| 13BRC | 2026-08-31 17:35:27 | 52.51738 | 14.89273 | 64° | 66km/h | 13012m | 3.8m/s | -47.7°C | 1.7% | 171.2hPa | 2.6V | 00:00:00 | 00:00:00 | 00:00:00 | |
| DB0DAN | 2026-08-31 17:35:25 | 52.51713 | 14.89200 | 61° | 62km/h | 13000m | 4.9m/s | -47.6°C | 1.7% | 171.52hPa | 2.6V | 00:00:00 | 00:00:00 | 00:00:00 | |
| DM0DOS-11 | 2026-08-31 17:35:21 | 52.51661 | 14.89060 | 57° | 68km/h | 12974m | 5m/s | -47.5°C | 3.6% | 172.2hPa | 2.8V | 08:30:00 | 01:19:30 | 00:00:00 | |
| DL2RXE-15 | 2026-08-31 17:35:20 | 52.51679 | 14.89106 | 58° | 66km/h | 12983m | 5.1m/s | -47.6°C | 1.6% | 172.0hPa | 2.6V | 00:00:00 | 00:00:00 | 00:00:00 | |
| 3Z3Z-3 | 2026-08-31 17:35:18 | 52.51661 | 14.89060 | 58° | 68km/h | 12974m | 5.0m/s | 0°C | 0% | 0hPa | 2.6V | 00:00:00 | 00:00:00 | 00:00:00 | |
| KRY50SP-1 | 2026-08-31 17:35:14 | 52.51624 | 14.88966 | 60° | 69km/h | 12957m | 3.6m/s | -47.5°C | 1.6% | 172.6hPa | 2.6V | 00:00:00 | 00:00:00 | 00:00:00 | |
| DM0DOS-11 | 2026-08-31 17:35:11 | 52.51569 | 14.88824 | 57° | 66km/h | 12932m | 3.4m/s | -47.6°C | 0% | 173.3hPa | 2.6V | 08:30:00 | 01:19:20 | 00:00:00 | |
| DB0DAN | 2026-08-31 17:35:10 | 52.51578 | 14.88847 | 57° | 64km/h | 12936m | 4.9m/s | -47.6°C | 1.7% | 173.25hPa | 2.6V | 00:00:00 | 00:00:00 | 00:00:00 | |
| SONDE2-12 | 2026-08-31 17:35:06 | 52.51535 | 14.88729 | 61° | 68km/h | 12914m | 3.7m/s | -47.6°C | 1.7% | 173.7hPa | 2.6V | 00:00:00 | 00:00:00 | 00:00:00 | |
| KRY50SP-1 | 2026-08-31 17:35:04 | 52.51534 | 14.88729 | 63° | 68km/h | 12914m | 3.7m/s | -47.6°C | 1.6% | 173.7hPa | 2.6V | 00:00:00 | 00:00:00 | 00:00:00 | |
| SONDE2-11 | 2026-08-31 17:35:02 | 52.51510 | 14.88652 | 62° | 69km/h | 12901m | 5.3m/s | -47.8°C | 1.6% | 174.1hPa | 2.6V | 00:00:00 | 00:00:00 | 00:00:00 | |
| DM0DOS-11 | 2026-08-31 17:35:01 | 52.51484 | 14.88575 | 60° | 71km/h | 12888m | 4.4m/s | -47.7°C | 0% | 174.4hPa | 2.6V | 08:30:00 | 01:19:10 | 00:00:00 | |
| EDDB2-12 | 2026-08-31 17:34:57 | 52.51466 | 14.88524 | 60° | 71km/h | 12879m | 5.3m/s | -47.6°C | 1.6% | 174.7hPa | 2.6V | 00:00:00 | 00:00:00 | 00:00:00 | |
| EDDB2-11 | 2026-08-31 17:34:56 | 52.51457 | 14.88498 | 60° | 71km/h | 12874m | 3.4m/s | -47.6°C | 1.6% | 174.8hPa | 2.6V | 00:00:00 | 00:00:00 | 00:00:00 | |
| DB0DAN | 2026-08-31 17:34:55 | 52.51448 | 14.88472 | 61° | 69km/h | 12870m | 5.1m/s | -47.6°C | 1.6% | 174.91hPa | 2.6V | 00:00:00 | 00:00:00 | 00:00:00 | |
| KRY50SP-1 | 2026-08-31 17:34:52 | 52.51432 | 14.88419 | 65° | 73km/h | 12863m | 4.9m/s | -47.6°C | 1.6% | 175.1hPa | 2.6V | 00:00:00 | 00:00:00 | 00:00:00 | |
| DM0DOS-11 | 2026-08-31 17:34:51 | 52.51400 | 14.88309 | 65° | 73km/h | 12845m | 4.9m/s | -47.7°C | 0% | 175.6hPa | 2.6V | 08:30:00 | 01:19:00 | 00:00:00 | |
| 3Z3Z-3 | 2026-08-31 17:34:49 | 52.51408 | 14.88336 | 66° | 73km/h | 12849m | 3.8m/s | 0°C | 0% | 0hPa | 2.8V | 00:00:00 | 00:00:00 | 00:00:00 | |
| SP3BTT-10 | 2026-08-31 17:34:48 | 52.51392 | 14.88281 | 66° | 77km/h | 12841m | 4.1m/s | -47.7°C | 3.6% | 175.6hPa | 2.8V | 00:00:00 | 00:00:00 | 00:00:00 | |
| SP6BVK | 2026-08-31 17:34:47 | 52.51392 | 14.88281 | 67° | 75km/h | 12841m | 4.1m/s | -47.7°C | 1.6% | 175.7hPa | 2.8V | 00:00:00 | 00:00:00 | 00:00:00 | |
| 13BRC | 2026-08-31 17:34:46 | 52.51384 | 14.88253 | 67° | 75km/h | 12836m | 5.0m/s | -47.8°C | 1.7% | 175.8hPa | 2.8V | 00:00:00 | 00:00:00 | 00:00:00 | |
| S3001 | 2026-08-31 17:34:44 | 52.51353 | 14.88139 | 63° | 75km/h | 12819m | 4.7m/s | -47.8°C | 1.7% | 176.3hPa | 2.8V | 00:00:00 | 00:00:00 | 00:00:00 | |
| DM0DOS-11 | 2026-08-31 17:34:41 | 52.51299 | 14.87985 | 58° | 69km/h | 12793m | 3.7m/s | -47.8°C | 0% | 177hPa | 2.8V | 08:30:00 | 01:18:48 | 00:00:00 | |
| DB0DAN | 2026-08-31 17:34:40 | 52.51327 | 14.88060 | 60° | 69km/h | 12806m | 4.8m/s | -47.8°C | 1.7% | 176.65hPa | 2.6V | 00:00:00 | 00:00:00 | 00:00:00 | |
| SONDE2-12 | 2026-08-31 17:34:35 | 52.51272 | 14.87909 | 60° | 71km/h | 12780m | 5.1m/s | -47.8°C | 1.8% | 177.3hPa | 2.6V | 00:00:00 | 00:00:00 | 00:00:00 | |
| DM0DOS-11 | 2026-08-31 17:34:31 | 52.51210 | 14.87722 | 60° | 73km/h | 12749m | 3.8m/s | -48°C | 0% | 178.1hPa | 2.6V | 08:30:00 | 01:18:38 | 00:00:00 | |
| KRY50SP-1 | 2026-08-31 17:34:30 | 52.51245 | 14.87829 | 62° | 75km/h | 12767m | 3.5m/s | -47.9°C | 1.7% | 177.7hPa | 2.6V | 00:00:00 | 00:00:00 | 00:00:00 | |
| SP6BVK | 2026-08-31 17:34:27 | 52.51219 | 14.87748 | 62° | 73km/h | 12754m | 5.2m/s | -48.0°C | 1.7% | 178.0hPa | 2.6V | 00:00:00 | 00:00:00 | 00:00:00 | |
| DB0DAN | 2026-08-31 17:34:25 | 52.51192 | 14.87669 | 61° | 69km/h | 12740m | 4.4m/s | -48.1°C | 1.8% | 178.25hPa | 2.6V | 00:00:00 | 00:00:00 | 00:00:00 | |
| EDDB2-11 | 2026-08-31 17:34:25 | 52.51192 | 14.87669 | 61° | 73km/h | 12740m | 4.4m/s | -48.1°C | 1.8% | 178.2hPa | 2.8V | 00:00:00 | 00:00:00 | 00:00:00 | |
| KRY50SP-1 | 2026-08-31 17:34:24 | 52.51192 | 14.87669 | 62° | 73km/h | 12740m | 4.4m/s | -48.1°C | 1.8% | 178.3hPa | 2.8V | 00:00:00 | 00:00:00 | 00:00:00 | |
| DM0DOS-11 | 2026-08-31 17:34:21 | 52.51111 | 14.87406 | 63° | 82km/h | 12701m | 4.5m/s | -48°C | 0% | 179.4hPa | 2.8V | 08:30:00 | 01:18:27 | 00:00:00 | |
| KRY50SP-1 | 2026-08-31 17:34:19 | 52.51147 | 14.87527 | 64° | 80km/h | 12718m | 5.3m/s | -48.0°C | 1.7% | 179.0hPa | 2.6V | 00:00:00 | 00:00:00 | 00:00:00 | |
| DAC517 | 2026-08-31 17:34:18 | 52.51129 | 14.87467 | 66° | 80km/h | 12709m | 4.9m/s | -48.0°C | 1.7% | 179.2hPa | 2.6V | 00:00:00 | 00:00:00 | 00:00:00 | |
| KRY50SP-1 | 2026-08-31 17:34:14 | 52.51102 | 14.87375 | 65° | 80km/h | 12696m | 5.0m/s | -48.1°C | 1.7% | 179.5hPa | 2.6V | 00:00:00 | 00:00:00 | 00:00:00 | |
| 3Z3Z-3 | 2026-08-31 17:34:12 | 52.51084 | 14.87317 | 63° | 78km/h | 12688m | 3.1m/s | 0°C | 0% | 0hPa | 2.6V | 00:00:00 | 00:00:00 | 00:00:00 | |
| DM0DOS-11 | 2026-08-31 17:34:11 | 52.51014 | 14.87128 | 59° | 73km/h | 12657m | 3.7m/s | -48.2°C | 0% | 180.6hPa | 2.6V | 08:30:00 | 01:18:17 | 00:00:00 | |
| DB0DAN | 2026-08-31 17:34:10 | 52.51054 | 14.87233 | 58° | 71km/h | 12675m | 4.3m/s | -48.2°C | 1.7% | 180.12hPa | 2.6V | 00:00:00 | 00:00:00 | 00:00:00 | |
| KRY50SP-1 | 2026-08-31 17:34:08 | 52.51044 | 14.87206 | 59° | 75km/h | 12670m | 5.1m/s | -48.2°C | 1.7% | 180.3hPa | 2.6V | 00:00:00 | 00:00:00 | 00:00:00 | |
| SONCRA | 2026-08-31 17:34:07 | 52.51024 | 14.87154 | 58° | 71km/h | 12661m | 4.9m/s | -48.2°C | -1.0% | 180.5hPa | 2.6V | 00:00:00 | 00:00:00 | 00:00:00 | |
| SP6BVK | 2026-08-31 17:34:06 | 52.51024 | 14.87154 | 60° | 73km/h | 12661m | 4.9m/s | -48.2°C | 1.8% | 180.5hPa | 2.6V | 00:00:00 | 00:00:00 | 00:00:00 | |
| 13BRC | 2026-08-31 17:34:05 | 52.51014 | 14.87128 | 60° | 73km/h | 12657m | 3.7m/s | -48.2°C | 1.8% | 180.6hPa | 2.6V | 00:00:00 | 00:00:00 | 00:00:00 | |
| KRY50SP-1 | 2026-08-31 17:34:03 | 52.50995 | 14.87075 | 61° | 75km/h | 12649m | 3.6m/s | -48.1°C | 1.7% | 180.9hPa | 2.6V | 00:00:00 | 00:00:00 | 00:00:00 | |
| SP3BTT-10 | 2026-08-31 17:34:02 | 52.50977 | 14.87021 | 62° | 78km/h | 12640m | 4.8m/s | -48.2°C | 3.8% | 181.0hPa | 2.6V | 00:00:00 | 00:00:00 | 00:00:00 | |
| DM0DOS-11 | 2026-08-31 17:34:01 | 52.50921 | 14.86856 | 60° | 75km/h | 12613m | 4.5m/s | 0°C | 0% | 0hPa | 2.6V | 08:30:00 | 01:18:07 | 00:00:00 | |
| SONDE2-11 | 2026-08-31 17:34:00 | 52.50958 | 14.86966 | 60° | 75km/h | 12631m | 5.4m/s | -48.2°C | 1.8% | 181.4hPa | 2.6V | 00:00:00 | 00:00:00 | 00:00:00 | |
| 3Z3Z-3 | 2026-08-31 17:33:59 | 52.50958 | 14.86966 | 62° | 75km/h | 12631m | 5.4m/s | 0°C | 0% | 0hPa | 2.6V | 00:00:00 | 00:00:00 | 00:00:00 | |
| DL2RXE-15 | 2026-08-31 17:33:58 | 52.50949 | 14.86938 | 62° | 75km/h | 12627m | 3.0m/s | -48.1°C | 1.8% | 181.5hPa | 2.6V | 00:00:00 | 00:00:00 | 00:00:00 | |
| DAC517 | 2026-08-31 17:33:57 | 52.50940 | 14.86911 | 62° | 75km/h | 12622m | 5.7m/s | -48.2°C | 1.8% | 181.5hPa | 2.6V | 00:00:00 | 00:00:00 | 00:00:00 | |
| DB0DAN | 2026-08-31 17:33:55 | 52.50912 | 14.86830 | 60° | 69km/h | 12609m | 3.8m/s | -48.2°C | 1.8% | 181.99hPa | 2.6V | 00:00:00 | 00:00:00 | 00:00:00 | |
| EDDB2-12 | 2026-08-31 17:33:55 | 52.50912 | 14.86830 | 59° | 73km/h | 12609m | 3.8m/s | -48.2°C | 1.8% | 182.0hPa | 2.8V | 00:00:00 | 00:00:00 | 00:00:00 | |
| EDDB2-11 | 2026-08-31 17:33:54 | 52.50903 | 14.86804 | 59° | 73km/h | 12605m | 4.5m/s | -48.2°C | 1.8% | 182.1hPa | 2.8V | 00:00:00 | 00:00:00 | 00:00:00 | |
| KRY50SP-1 | 2026-08-31 17:33:52 | 52.50893 | 14.86777 | 61° | 75km/h | 12600m | 4.9m/s | -48.2°C | 1.8% | 182.2hPa | 2.8V | 00:00:00 | 00:00:00 | 00:00:00 | |
| DM0DOS-11 | 2026-08-31 17:33:47 | 52.50827 | 14.86593 | 62° | 75km/h | 12569m | 3.8m/s | 0°C | 0% | 0hPa | 2.8V | 08:30:00 | 01:17:57 | 00:00:00 | |
| SP6BVK | 2026-08-31 17:33:46 | 52.50836 | 14.86620 | 61° | 73km/h | 12574m | 5.6m/s | -48.1°C | 1.8% | 182.9hPa | 2.6V | 00:00:00 | 00:00:00 | 00:00:00 | |
| 13BRC | 2026-08-31 17:33:44 | 52.50818 | 14.86565 | 64° | 78km/h | 12564m | 4.9m/s | -48.1°C | 1.8% | 183.2hPa | 2.6V | 00:00:00 | 00:00:00 | 00:00:00 | |
| S3001 | 2026-08-31 17:33:42 | 52.50782 | 14.86445 | 63° | 80km/h | 12546m | 4.2m/s | -48.2°C | 1.8% | 183.8hPa | 2.6V | 00:00:00 | 00:00:00 | 00:00:00 | |
| DM0DOS-11 | 2026-08-31 17:33:41 | 52.50737 | 14.86294 | 65° | 80km/h | 12525m | 4.6m/s | 0°C | 0% | 0hPa | 2.6V | 08:30:00 | 01:17:47 | 00:00:00 | |
| DB0DAN | 2026-08-31 17:33:40 | 52.50772 | 14.86415 | 64° | 78km/h | 12541m | 5.8m/s | -48.2°C | 1.8% | 183.92hPa | 2.6V | 00:00:00 | 00:00:00 | 00:00:00 | |
| SONDE2-12 | 2026-08-31 17:33:32 | 52.50704 | 14.86170 | 66° | 82km/h | 12507m | 5.2m/s | -48.1°C | 1.8% | 184.8hPa | 2.6V | 00:00:00 | 00:00:00 | 00:00:00 | |
| KRY50SP-1 | 2026-08-31 17:33:30 | 52.50696 | 14.86139 | 68° | 82km/h | 12503m | 3.3m/s | -48.2°C | 1.8% | 185.0hPa | 2.6V | 00:00:00 | 00:00:00 | 00:00:00 | |
| SONDE2-11 | 2026-08-31 17:33:29 | 52.50679 | 14.86077 | 65° | 78km/h | 12494m | 3.6m/s | -48.3°C | 1.8% | 185.2hPa | 2.6V | 00:00:00 | 00:00:00 | 00:00:00 | |
| DB0DAN | 2026-08-31 17:33:25 | 52.50646 | 14.85959 | 64° | 73km/h | 12476m | 3.9m/s | -48.3°C | 1.7% | 185.64hPa | 2.6V | 00:00:00 | 00:00:00 | 00:00:00 | |
| EDDB2-12 | 2026-08-31 17:33:24 | 52.50629 | 14.85903 | 63° | 75km/h | 12467m | 4.4m/s | -48.4°C | 1.8% | 185.9hPa | 2.7V | 00:00:00 | 00:00:00 | 00:00:00 | |
| EDDB2-11 | 2026-08-31 17:33:23 | 52.50629 | 14.85903 | 63° | 75km/h | 12467m | 4.4m/s | -48.4°C | 1.8% | 185.9hPa | 2.7V | 00:00:00 | 00:00:00 | 00:00:00 | |
| DL2RXE-15 | 2026-08-31 17:33:22 | 52.50629 | 14.85903 | 64° | 75km/h | 12467m | 4.4m/s | -48.4°C | 1.8% | 185.9hPa | 2.7V | 00:00:00 | 00:00:00 | 00:00:00 | |
| KRY50SP-1 | 2026-08-31 17:33:18 | 52.50594 | 14.85794 | 63° | 75km/h | 12450m | 3.8m/s | -48.3°C | 1.8% | 186.5hPa | 2.7V | 00:00:00 | 00:00:00 | 00:00:00 | |
| DAC517 | 2026-08-31 17:33:17 | 52.50576 | 14.85739 | 63° | 77km/h | 12441m | 3.9m/s | -48.3°C | 1.8% | 186.7hPa | 2.7V | 00:00:00 | 00:00:00 | 00:00:00 | |
| SP3BTT-10 | 2026-08-31 17:33:16 | 52.50567 | 14.85711 | 65° | 77km/h | 12437m | 4.1m/s | -48.3°C | 3.9% | 186.7hPa | 2.7V | 00:00:00 | 00:00:00 | 00:00:00 | |
| KRY50SP-1 | 2026-08-31 17:33:13 | 52.50550 | 14.85653 | 66° | 77km/h | 12429m | 3.6m/s | -48.6°C | 1.9% | 187.1hPa | 2.6V | 00:00:00 | 00:00:00 | 00:00:00 | |
| DB0DAN | 2026-08-31 17:33:10 | 52.50518 | 14.85540 | 64° | 69km/h | 12411m | 4.3m/s | -48.6°C | 1.9% | 187.55hPa | 2.6V | 00:00:00 | 00:00:00 | 00:00:00 | |
| SONDE2-12 | 2026-08-31 17:33:01 | 52.50435 | 14.85273 | 65° | 71km/h | 12369m | 4.2m/s | -48.4°C | 1.9% | 188.8hPa | 2.6V | 00:00:00 | 00:00:00 | 00:00:00 | |
| SONDE2-11 | 2026-08-31 17:32:58 | 52.50420 | 14.85218 | 66° | 73km/h | 12360m | 4.7m/s | -48.5°C | 1.8% | 188.9hPa | 2.6V | 00:00:00 | 00:00:00 | 00:00:00 | |
| DB0DAN | 2026-08-31 17:32:55 | 52.50398 | 14.85134 | 66° | 71km/h | 12347m | 3.6m/s | -48.5°C | 1.9% | 189.39hPa | 2.6V | 00:00:00 | 00:00:00 | 00:00:00 | |
| EDDB2-12 | 2026-08-31 17:32:53 | 52.50376 | 14.85047 | 66° | 75km/h | 12335m | 5.2m/s | -48.4°C | 1.8% | 189.8hPa | 2.6V | 00:00:00 | 00:00:00 | 00:00:00 | |
| EDDB2-11 | 2026-08-31 17:32:52 | 52.50368 | 14.85018 | 66° | 77km/h | 12330m | 3.6m/s | -48.4°C | 1.8% | 189.8hPa | 2.6V | 00:00:00 | 00:00:00 | 00:00:00 | |
| KRY50SP-1 | 2026-08-31 17:32:51 | 52.50376 | 14.85047 | 68° | 75km/h | 12335m | 5.2m/s | -48.4°C | 1.8% | 189.7hPa | 2.6V | 00:00:00 | 00:00:00 | 00:00:00 | |
| KRY50SP-1 | 2026-08-31 17:32:46 | 52.50328 | 14.84871 | 67° | 78km/h | 12310m | 5.3m/s | -48.2°C | 1.8% | 190.5hPa | 2.6V | 00:00:00 | 00:00:00 | 00:00:00 | |
| DL2RXE-15 | 2026-08-31 17:32:45 | 52.50328 | 14.84871 | 67° | 78km/h | 12310m | 5.3m/s | -48.2°C | 1.8% | 190.5hPa | 2.6V | 00:00:00 | 00:00:00 | 00:00:00 | |
| SP6BVK | 2026-08-31 17:32:44 | 52.50320 | 14.84841 | 67° | 78km/h | 12305m | 3.8m/s | -48.2°C | 1.8% | 190.6hPa | 2.6V | 00:00:00 | 00:00:00 | 00:00:00 | |
| 13BRC | 2026-08-31 17:32:43 | 52.50312 | 14.84812 | 67° | 78km/h | 12301m | 5.0m/s | -48.1°C | 1.8% | 190.7hPa | 2.6V | 00:00:00 | 00:00:00 | 00:00:00 | |
| DB0DAN | 2026-08-31 17:32:40 | 52.50278 | 14.84696 | 65° | 73km/h | 12284m | 5.3m/s | -48°C | 1.8% | 191.15hPa | 2.6V | 00:00:00 | 00:00:00 | 00:00:00 | |
| SONDE2-12 | 2026-08-31 17:32:30 | 52.50192 | 14.84413 | 62° | 75km/h | 12242m | 4.0m/s | -47.9°C | 1.9% | 192.4hPa | 2.8V | 00:00:00 | 00:00:00 | 00:00:00 | |
| KRY50SP-1 | 2026-08-31 17:32:29 | 52.50192 | 14.84413 | 63° | 77km/h | 12242m | 4.0m/s | -47.9°C | 1.8% | 192.4hPa | 2.8V | 00:00:00 | 00:00:00 | 00:00:00 | |
| DB0DAN | 2026-08-31 17:32:25 | 52.50149 | 14.84272 | 65° | 71km/h | 12221m | 4.3m/s | -48°C | 1.8% | 193.07hPa | 2.8V | 00:00:00 | 00:00:00 | 00:00:00 | |
| AA1-15 | 2026-08-31 17:32:13 | 52.50044 | 14.83956 | 61° | 71km/h | 12170m | 4.6m/s | -47.8°C | 1% | 194.5hPa | 2.6V | 18:12:15 | 01:16:24 | 00:00:00 | |
| AA1-15 | 2026-08-31 17:32:02 | 52.49958 | 14.83654 | 64° | 75km/h | 12127m | 4.4m/s | -47.6°C | 1% | 195.8hPa | 2.6V | 18:12:15 | 01:16:13 | 00:00:00 | |
| SONDE2-12 | 2026-08-31 17:31:59 | 52.49932 | 14.83571 | 61° | 75km/h | 12115m | 4.3m/s | -47.6°C | 1.9% | 196.2hPa | 2.6V | 00:00:00 | 00:00:00 | 00:00:00 | |
| AA1-15 | 2026-08-31 17:31:51 | 52.49861 | 14.83353 | 63° | 77km/h | 12084m | 3.2m/s | -47.6°C | 1.1% | 197.1hPa | 2.6V | 18:12:15 | 01:16:02 | 00:00:00 | |
| EDDB2-12 | 2026-08-31 17:31:51 | 52.49852 | 14.83324 | 64° | 75km/h | 12080m | 5.2m/s | -47.6°C | 1.7% | 197.2hPa | 2.6V | 00:00:00 | 00:00:00 | 00:00:00 | |
| EDDB2-11 | 2026-08-31 17:31:50 | 52.49844 | 14.83296 | 65° | 77km/h | 12076m | 3.3m/s | -47.6°C | 1.7% | 197.3hPa | 2.6V | 00:00:00 | 00:00:00 | 00:00:00 | |
| AA1-15 | 2026-08-31 17:31:41 | 52.49780 | 14.83064 | 63° | 75km/h | 12045m | 3.9m/s | -47.9°C | 1% | 198.2hPa | 2.6V | 18:12:15 | 01:15:52 | 00:00:00 | |
| AA1-15 | 2026-08-31 17:31:31 | 52.49689 | 14.82746 | 63° | 88km/h | 12004m | 4.9m/s | -48.4°C | 1.2% | 199.5hPa | 2.6V | 18:12:15 | 01:15:42 | 00:00:00 | |
| SONDE2-12 | 2026-08-31 17:31:28 | 52.49648 | 14.82621 | 61° | 84km/h | 11989m | 4.5m/s | -48.4°C | 2.0% | 200.0hPa | 2.6V | 00:00:00 | 00:00:00 | 00:00:00 | |
| DB0DAN | 2026-08-31 17:31:25 | 52.49628 | 14.82559 | 62° | 82km/h | 11981m | 3.2m/s | -48.5°C | 1.9% | 200.16hPa | 2.6V | 00:00:00 | 00:00:00 | 00:00:00 | |
| AA1-15 | 2026-08-31 17:31:20 | 52.49575 | 14.82398 | 62° | 89km/h | 11961m | 4.6m/s | -48.5°C | 1.2% | 200.8hPa | 2.6V | 18:12:15 | 01:15:31 | 00:00:00 | |
| EDDB2-12 | 2026-08-31 17:31:20 | 52.49565 | 14.82365 | 61° | 89km/h | 11957m | 3.4m/s | -48.4°C | 1.9% | 200.9hPa | 2.8V | 00:00:00 | 00:00:00 | 00:00:00 | |
| EDDB2-11 | 2026-08-31 17:31:19 | 52.49554 | 14.82332 | 60° | 89km/h | 11953m | 5.0m/s | -48.4°C | 1.9% | 201.1hPa | 2.8V | 00:00:00 | 00:00:00 | 00:00:00 | |
| KRY50SP-1 | 2026-08-31 17:31:14 | 52.49520 | 14.82237 | 62° | 88km/h | 11941m | 3.7m/s | -48.4°C | 2.0% | 201.4hPa | 2.8V | 00:00:00 | 00:00:00 | 00:00:00 | |
| DB0DAN | 2026-08-31 17:31:10 | 52.49467 | 14.82085 | 59° | 80km/h | 11920m | 5.2m/s | -48.2°C | 1.9% | 202.01hPa | 2.8V | 00:00:00 | 00:00:00 | 00:00:00 | |
| AA1-15 | 2026-08-31 17:31:09 | 52.49456 | 14.82055 | 59° | 84km/h | 11916m | 4.1m/s | -48.2°C | 1.3% | 202.2hPa | 2.6V | 18:12:15 | 01:15:20 | 00:00:00 | |
| S3001 | 2026-08-31 17:31:06 | 52.49422 | 14.81964 | 57° | 86km/h | 11903m | 3.5m/s | -48.2°C | 2.0% | 202.5hPa | 2.7V | 00:00:00 | 00:00:00 | 00:00:00 | |
| SP6BVK | 2026-08-31 17:31:04 | 52.49399 | 14.81904 | 59° | 86km/h | 11896m | 3.6m/s | -48.1°C | 1.9% | 202.8hPa | 2.7V | 00:00:00 | 00:00:00 | 00:00:00 | |
| 13BRC | 2026-08-31 17:31:02 | 52.49388 | 14.81874 | 58° | 84km/h | 11892m | 3.8m/s | -48.1°C | 1.9% | 202.8hPa | 2.7V | 00:00:00 | 00:00:00 | 00:00:00 | |
| DM0DOS-11 | 2026-08-31 17:31:01 | 52.49321 | 14.81705 | 58° | 78km/h | 11868m | 4.7m/s | 0°C | 0% | 0hPa | 2.7V | 08:30:00 | 01:15:08 | 00:00:00 | |
| AA1-15 | 2026-08-31 17:30:58 | 52.49331 | 14.81733 | 57° | 78km/h | 11872m | 3.5m/s | -48°C | 1.3% | 203.6hPa | 2.6V | 18:12:15 | 01:15:09 | 00:00:00 | |
| SONDE2-12 | 2026-08-31 17:30:57 | 52.49321 | 14.81705 | 58° | 78km/h | 11868m | 4.7m/s | -48.0°C | 2.1% | 203.6hPa | 2.8V | 00:00:00 | 00:00:00 | 00:00:00 | |
| DB0DAN | 2026-08-31 17:30:55 | 52.49300 | 14.81649 | 59° | 75km/h | 11860m | 4.7m/s | -47.9°C | 2% | 203.85hPa | 2.8V | 00:00:00 | 00:00:00 | 00:00:00 | |
| SONDE2-11 | 2026-08-31 17:30:54 | 52.49290 | 14.81621 | 58° | 78km/h | 11856m | 3.2m/s | -47.9°C | 2.0% | 204.0hPa | 2.7V | 00:00:00 | 00:00:00 | 00:00:00 | |
| KRY50SP-1 | 2026-08-31 17:30:52 | 52.49279 | 14.81593 | 60° | 80km/h | 11852m | 5.0m/s | -47.9°C | 2.0% | 204.1hPa | 2.7V | 00:00:00 | 00:00:00 | 00:00:00 | |
| DM0DOS-11 | 2026-08-31 17:30:51 | 52.49205 | 14.81398 | 58° | 75km/h | 11824m | 4.1m/s | 0°C | 0% | 0hPa | 2.7V | 08:30:00 | 01:14:57 | 00:00:00 | |
| AA1-15 | 2026-08-31 17:30:47 | 52.49215 | 14.81424 | 58° | 77km/h | 11828m | 3.9m/s | -48°C | 1.5% | 204.9hPa | 2.7V | 18:12:15 | 01:14:58 | 00:00:00 | |
| KRY50SP-1 | 2026-08-31 17:30:46 | 52.49215 | 14.81424 | 59° | 77km/h | 11828m | 3.9m/s | -47.9°C | 2.0% | 204.9hPa | 2.7V | 00:00:00 | 00:00:00 | 00:00:00 | |
| SP6BVK | 2026-08-31 17:30:42 | 52.49175 | 14.81316 | 60° | 77km/h | 11812m | 4.1m/s | -48.1°C | 2.1% | 205.4hPa | 2.7V | 00:00:00 | 00:00:00 | 00:00:00 | |
| DM0DOS-11 | 2026-08-31 17:30:41 | 52.49107 | 14.81125 | 58° | 75km/h | 11785m | 4.2m/s | 0°C | 0% | 0hPa | 2.7V | 00:00:00 | 01:14:47 | 00:00:00 | |
| DB0DAN | 2026-08-31 17:30:40 | 52.49146 | 14.81234 | 60° | 75km/h | 11800m | 3.4m/s | -48.1°C | 2.1% | 205.76hPa | 2.7V | 00:00:00 | 00:00:00 | 00:00:00 | |
| AA1-15 | 2026-08-31 17:30:37 | 52.49116 | 14.81151 | 59° | 77km/h | 11789m | 4.4m/s | -48.2°C | 1.6% | 206.1hPa | 2.8V | 18:12:15 | 01:14:48 | 00:00:00 | |
| AA1-15 | 2026-08-31 17:30:26 | 52.49018 | 14.80873 | 61° | 71km/h | 11745m | 4.4m/s | -48.4°C | 1.7% | 207.6hPa | 2.8V | 18:12:15 | 01:14:37 | 00:00:00 | |
| DB0DAN | 2026-08-31 17:30:25 | 52.49009 | 14.80847 | 61° | 69km/h | 11741m | 4.5m/s | -48.4°C | 2.2% | 207.63hPa | 2.7V | 00:00:00 | 00:00:00 | 00:00:00 | |
| AA1-15 | 2026-08-31 17:30:15 | 52.48917 | 14.80582 | 62° | 77km/h | 11700m | 4.4m/s | -48.7°C | 1.9% | 208.9hPa | 2.8V | 18:12:15 | 01:14:26 | 00:00:00 | |
| KRY50SP-1 | 2026-08-31 17:30:13 | 52.48899 | 14.80525 | 65° | 77km/h | 11692m | 4.9m/s | -48.6°C | 2.3% | 209.2hPa | 2.8V | 00:00:00 | 00:00:00 | 00:00:00 | |
| DB0DAN | 2026-08-31 17:30:10 | 52.48875 | 14.80439 | 65° | 73km/h | 11678m | 3.4m/s | -48.6°C | 2.5% | 209.59hPa | 2.8V | 00:00:00 | 00:00:00 | 00:00:00 | |
| AA1-15 | 2026-08-31 17:30:04 | 52.48825 | 14.80273 | 61° | 75km/h | 11653m | 2.8m/s | -48.6°C | 2.3% | 210.3hPa | 2.8V | 18:12:15 | 01:14:15 | 00:00:00 | |
| KRY50SP-1 | 2026-08-31 17:30:01 | 52.48806 | 14.80218 | 64° | 77km/h | 11646m | 3.1m/s | -48.6°C | 2.6% | 210.6hPa | 2.7V | 00:00:00 | 00:00:00 | 00:00:00 | |
| SP6BVK | 2026-08-31 17:30:00 | 52.48797 | 14.80189 | 65° | 77km/h | 11642m | 3.9m/s | -48.6°C | 2.6% | 210.7hPa | 2.7V | 00:00:00 | 00:00:00 | 00:00:00 | |
| DB0DAN | 2026-08-31 17:29:55 | 52.48750 | 14.80016 | 65° | 73km/h | 11618m | 4.7m/s | -48.6°C | 2.7% | 211.48hPa | 2.7V | 00:00:00 | 00:00:00 | 00:00:00 | |
| SONDE2-12 | 2026-08-31 17:29:55 | 52.48750 | 14.80016 | 65° | 77km/h | 11618m | 4.7m/s | -48.6°C | 2.9% | 211.5hPa | 2.8V | 00:00:00 | 00:00:00 | 00:00:00 | |
| AA1-15 | 2026-08-31 17:29:53 | 52.48733 | 14.79959 | 64° | 77km/h | 11611m | 3.8m/s | -48.6°C | 2.7% | 211.7hPa | 2.8V | 18:12:15 | 01:14:04 | 00:00:00 | |
| SONDE2-11 | 2026-08-31 17:29:52 | 52.48715 | 14.79902 | 62° | 78km/h | 11603m | 4.9m/s | -48.5°C | 2.8% | 212.0hPa | 2.8V | 00:00:00 | 00:00:00 | 00:00:00 | |
| SP3WXH-11 | 2026-08-31 17:29:47 | 52.48668 | 14.79751 | 63° | 82km/h | 11583m | 4.9m/s | -48.5°C | 2.9% | 212.5hPa | 2.8V | 00:00:00 | 00:00:00 | 00:00:00 | |
| EDDB2-11 | 2026-08-31 17:29:46 | 52.48659 | 14.79720 | 63° | 82km/h | 11578m | 3.6m/s | -48.5°C | 3.0% | 212.8hPa | 2.8V | 00:00:00 | 00:00:00 | 00:00:00 | |
| AA1-15 | 2026-08-31 17:29:42 | 52.48630 | 14.79629 | 63° | 80km/h | 11565m | 4.9m/s | -48.4°C | 3.2% | 213.1hPa | 2.8V | 18:12:15 | 01:13:53 | 00:00:00 | |
| DB0DAN | 2026-08-31 17:29:40 | 52.48611 | 14.79570 | 62° | 77km/h | 11556m | 3.1m/s | -48.4°C | 3.2% | 213.48hPa | 2.7V | 00:00:00 | 00:00:00 | 00:00:00 | |
| AA1-15 | 2026-08-31 17:29:31 | 52.48531 | 14.79304 | 65° | 78km/h | 11519m | 4.1m/s | -48.6°C | 4.1% | 214.7hPa | 2.7V | 18:12:15 | 01:13:42 | 00:00:00 | |
| SP3BTT-10 | 2026-08-31 17:29:31 | 52.48530 | 14.79304 | 65° | 84km/h | 11519m | 4.1m/s | -48.6°C | 5.8% | 214.7hPa | 2.8V | 00:00:00 | 00:00:00 | 00:00:00 | |
| DB0DAN | 2026-08-31 17:29:25 | 52.48478 | 14.79128 | 64° | 78km/h | 11494m | 3.4m/s | -48.7°C | 3.9% | 215.5hPa | 2.8V | 00:00:00 | 00:00:00 | 00:00:00 | |
| SONDE2-12 | 2026-08-31 17:29:24 | 52.48469 | 14.79097 | 64° | 82km/h | 11490m | 5.1m/s | -48.7°C | 4.1% | 215.7hPa | 2.7V | 00:00:00 | 00:00:00 | 00:00:00 | |
| AA1-15 | 2026-08-31 17:29:20 | 52.48430 | 14.78969 | 64° | 88km/h | 11472m | 5.1m/s | -48.8°C | 4.8% | 216.2hPa | 2.7V | 18:12:15 | 01:13:31 | 00:00:00 | |
| SP6BVK | 2026-08-31 17:29:19 | 52.48430 | 14.78969 | 65° | 88km/h | 11473m | 5.1m/s | -48.7°C | 4.1% | 216.2hPa | 2.8V | 00:00:00 | 00:00:00 | 00:00:00 | |
| SP3WXH-11 | 2026-08-31 17:29:16 | 52.48381 | 14.78812 | 61° | 82km/h | 11450m | 2.9m/s | -48.5°C | 4.3% | 216.9hPa | 2.8V | 00:00:00 | 00:00:00 | 00:00:00 | |
| EDDB2-12 | 2026-08-31 17:29:15 | 52.48381 | 14.78812 | 61° | 82km/h | 11450m | 2.9m/s | -48.5°C | 4.3% | 216.9hPa | 2.8V | 00:00:00 | 00:00:00 | 00:00:00 | |
| KRY50SP-1 | 2026-08-31 17:29:14 | 52.48380 | 14.78812 | 63° | 82km/h | 11450m | 2.9m/s | -48.5°C | 4.3% | 216.9hPa | 2.8V | 00:00:00 | 00:00:00 | 00:00:00 | |
| DB0DAN | 2026-08-31 17:29:10 | 52.48330 | 14.78660 | 61° | 80km/h | 11430m | 4.4m/s | -48.4°C | 4.5% | 217.64hPa | 2.8V | 00:00:00 | 00:00:00 | 00:00:00 | |
| AA1-15 | 2026-08-31 17:29:09 | 52.48319 | 14.78629 | 62° | 84km/h | 11426m | 3.2m/s | -48.4°C | 5.7% | 217.8hPa | 2.7V | 18:12:15 | 01:13:20 | 00:00:00 | |
| AA1-15 | 2026-08-31 17:28:58 | 52.48215 | 14.78278 | 64° | 84km/h | 11378m | 4.6m/s | -48.8°C | 6.7% | 219.3hPa | 2.8V | 18:12:15 | 01:13:09 | 00:00:00 | |
| DB0DAN | 2026-08-31 17:28:55 | 52.48187 | 14.78185 | 63° | 80km/h | 11365m | 4.3m/s | -48.9°C | 5.4% | 219.77hPa | 2.7V | 00:00:00 | 00:00:00 | 00:00:00 | |
| SONDE2-12 | 2026-08-31 17:28:53 | 52.48167 | 14.78123 | 61° | 84km/h | 11357m | 4.0m/s | -48.9°C | 5.8% | 220.1hPa | 2.7V | 00:00:00 | 00:00:00 | 00:00:00 | |
| AA1-15 | 2026-08-31 17:28:48 | 52.48114 | 14.77971 | 60° | 88km/h | 11336m | 4.8m/s | -48.9°C | 7.5% | 220.8hPa | 2.7V | 18:12:15 | 01:12:59 | 00:00:00 | |
| KRY50SP-1 | 2026-08-31 17:28:47 | 52.48114 | 14.77971 | 61° | 88km/h | 11336m | 4.8m/s | -48.9°C | 5.8% | 220.8hPa | 2.7V | 00:00:00 | 00:00:00 | 00:00:00 | |
| SP3BTT-10 | 2026-08-31 17:28:46 | 52.48091 | 14.77908 | 60° | 84km/h | 11328m | 5.1m/s | -48.9°C | 8.5% | 221.1hPa | 2.7V | 00:00:00 | 00:00:00 | 00:00:00 | |
| EDDB2-12 | 2026-08-31 17:28:45 | 52.48068 | 14.77843 | 60° | 89km/h | 11320m | 4.7m/s | -49.0°C | 6.0% | 221.4hPa | 2.8V | 00:00:00 | 00:00:00 | 00:00:00 | |
| EDDB2-11 | 2026-08-31 17:28:43 | 52.48057 | 14.77811 | 60° | 89km/h | 11316m | 3.0m/s | -49.0°C | 6.1% | 221.5hPa | 2.8V | 00:00:00 | 00:00:00 | 00:00:00 | |
| DB0DAN | 2026-08-31 17:28:40 | 52.48022 | 14.77716 | 58° | 84km/h | 11304m | 3.8m/s | -48.9°C | 6.2% | 221.93hPa | 2.8V | 00:00:00 | 00:00:00 | 00:00:00 | |
| AA1-15 | 2026-08-31 17:28:37 | 52.47986 | 14.77622 | 56° | 89km/h | 11292m | 3.5m/s | -48.9°C | 8.4% | 222.3hPa | 2.7V | 18:12:15 | 01:12:48 | 00:00:00 | |
| AA1-15 | 2026-08-31 17:28:27 | 52.47866 | 14.77323 | 58° | 86km/h | 11249m | 5.5m/s | -48.8°C | 9.8% | 223.8hPa | 2.8V | 18:12:15 | 01:12:38 | 00:00:00 | |
| DB0DAN | 2026-08-31 17:28:25 | 52.47843 | 14.77264 | 58° | 80km/h | 11240m | 4.2m/s | -49.1°C | 7.3% | 224.14hPa | 2.7V | 00:00:00 | 00:00:00 | 00:00:00 | |
| SONDE2-12 | 2026-08-31 17:28:22 | 52.47809 | 14.77176 | 58° | 82km/h | 11228m | 4.9m/s | -49.5°C | 8.1% | 224.5hPa | 2.7V | 00:00:00 | 00:00:00 | 00:00:00 | |
| AA1-15 | 2026-08-31 17:28:16 | 52.47747 | 14.76997 | 62° | 84km/h | 11201m | 4.4m/s | -50°C | 11.3% | 225.4hPa | 2.7V | 18:12:15 | 01:12:27 | 00:00:00 | |
| KRY50SP-1 | 2026-08-31 17:28:15 | 52.47747 | 14.76997 | 63° | 84km/h | 11201m | 4.4m/s | -50.0°C | 8.1% | 225.4hPa | 2.8V | 00:00:00 | 00:00:00 | 00:00:00 | |
| SP3WXH-11 | 2026-08-31 17:28:14 | 52.47717 | 14.76906 | 60° | 82km/h | 11189m | 3.5m/s | -50.1°C | 8.3% | 225.8hPa | 2.8V | 00:00:00 | 00:00:00 | 00:00:00 | |
| EDDB2-12 | 2026-08-31 17:28:13 | 52.47717 | 14.76906 | 60° | 82km/h | 11189m | 3.5m/s | -50.1°C | 8.3% | 225.8hPa | 2.8V | 00:00:00 | 00:00:00 | 00:00:00 | |
| DB0DAN | 2026-08-31 17:28:10 | 52.47684 | 14.76818 | 57° | 77km/h | 11176m | 4.5m/s | -50.6°C | 8.6% | 226.26hPa | 2.8V | 00:00:00 | 00:00:00 | 00:00:00 | |
| AA1-15 | 2026-08-31 17:28:05 | 52.47626 | 14.76680 | 56° | 80km/h | 11155m | 4.1m/s | -51°C | 12.5% | 227hPa | 2.8V | 18:12:15 | 01:12:16 | 00:00:00 | |
| KRY50SP-1 | 2026-08-31 17:28:05 | 52.47626 | 14.76680 | 57° | 80km/h | 11155m | 4.1m/s | -51.0°C | 9.2% | 227.0hPa | 2.7V | 00:00:00 | 00:00:00 | 00:00:00 | |
| SP3BTT-10 | 2026-08-31 17:28:01 | 52.47579 | 14.76568 | 56° | 91km/h | 11139m | 4.3m/s | -51.0°C | 12.9% | 227.5hPa | 2.7V | 00:00:00 | 00:00:00 | 00:00:00 | |
| KRY50SP-1 | 2026-08-31 17:28:00 | 52.47567 | 14.76540 | 56° | 86km/h | 11135m | 3.7m/s | -51.1°C | 9.8% | 227.7hPa | 2.7V | 00:00:00 | 00:00:00 | 00:00:00 | |
| 13BRC | 2026-08-31 17:27:58 | 52.47555 | 14.76511 | 56° | 86km/h | 11131m | 4.3m/s | -51.1°C | 9.9% | 227.9hPa | 2.7V | 00:00:00 | 00:00:00 | 00:00:00 | |
| SP6BVK | 2026-08-31 17:27:57 | 52.47542 | 14.76482 | 58° | 86km/h | 11127m | 4.2m/s | -51.0°C | 10.0% | 228.0hPa | 2.7V | 00:00:00 | 00:00:00 | 00:00:00 | |
| DB0DAN | 2026-08-31 17:27:55 | 52.47507 | 14.76390 | 58° | 84km/h | 11115m | 4m/s | -51.1°C | 10.7% | 228.4hPa | 2.7V | 00:00:00 | 00:00:00 | 00:00:00 | |
| AA1-15 | 2026-08-31 17:27:54 | 52.47496 | 14.76360 | 58° | 86km/h | 11111m | 3.9m/s | -51.1°C | 15.2% | 228.6hPa | 2.7V | 18:12:15 | 01:12:05 | 00:00:00 | |
| SONDE2-12 | 2026-08-31 17:27:51 | 52.47460 | 14.76272 | 54° | 84km/h | 11099m | 3.6m/s | -51.0°C | 12.2% | 228.9hPa | 2.8V | 00:00:00 | 00:00:00 | 00:00:00 | |
| SONDE2-11 | 2026-08-31 17:27:48 | 52.47407 | 14.76157 | 53° | 88km/h | 11083m | 3.9m/s | -51.3°C | 13.1% | 229.6hPa | 2.8V | 00:00:00 | 00:00:00 | 00:00:00 | |
| AA1-15 | 2026-08-31 17:27:43 | 52.47355 | 14.76037 | 56° | 89km/h | 11067m | 3m/s | -51.5°C | 20.8% | 230.1hPa | 2.8V | 18:12:15 | 01:11:54 | 00:00:00 | |
| KRY50SP-1 | 2026-08-31 17:27:42 | 52.47355 | 14.76036 | 57° | 89km/h | 11067m | 3.0m/s | -51.5°C | 15.2% | 230.1hPa | 2.7V | 00:00:00 | 00:00:00 | 00:00:00 | |
| DB0DAN | 2026-08-31 17:27:40 | 52.47318 | 14.75942 | 57° | 86km/h | 11055m | 5.4m/s | -51.7°C | 17.3% | 230.54hPa | 2.7V | 00:00:00 | 00:00:00 | 00:00:00 | |
| AA1-15 | 2026-08-31 17:27:32 | 52.47212 | 14.75686 | 55° | 97km/h | 11021m | 4.1m/s | -52.7°C | 28.5% | 231.8hPa | 2.7V | 18:12:15 | 01:11:43 | 00:00:00 | |
| KRY50SP-1 | 2026-08-31 17:27:31 | 52.47212 | 14.75686 | 56° | 97km/h | 11021m | 4.1m/s | -52.7°C | 21.9% | 231.8hPa | 2.7V | 00:00:00 | 00:00:00 | 00:00:00 | |
| S3001 | 2026-08-31 17:27:29 | 52.47171 | 14.75589 | 54° | 93km/h | 11009m | 4.6m/s | -52.9°C | 22.8% | 232.2hPa | 2.7V | 00:00:00 | 00:00:00 | 00:00:00 | |
| DB0DAN | 2026-08-31 17:27:25 | 52.47114 | 14.75468 | 50° | 88km/h | 10991m | 5.7m/s | -52.8°C | 23.1% | 232.75hPa | 2.7V | 00:00:00 | 00:00:00 | 00:00:00 | |
| AA1-15 | 2026-08-31 17:27:21 | 52.47053 | 14.75354 | 47° | 91km/h | 10973m | 4.5m/s | -52.8°C | 30.1% | 233.4hPa | 2.8V | 18:12:15 | 01:11:32 | 00:00:00 | |
| SONDE2-12 | 2026-08-31 17:27:20 | 52.47038 | 14.75326 | 47° | 89km/h | 10969m | 3.8m/s | -52.8°C | 25.8% | 233.6hPa | 2.7V | 00:00:00 | 00:00:00 | 00:00:00 | |
| AA1-15 | 2026-08-31 17:27:11 | 52.46895 | 14.75079 | 45° | 91km/h | 10931m | 3.6m/s | -53°C | 30.1% | 235hPa | 2.7V | 18:12:15 | 01:11:22 | 00:00:00 | |
| DB0DAN | 2026-08-31 17:27:10 | 52.46879 | 14.75053 | 45° | 86km/h | 10927m | 4.1m/s | -53°C | 24.6% | 235.16hPa | 2.8V | 00:00:00 | 00:00:00 | 00:00:00 | |
| AA1-15 | 2026-08-31 17:27:00 | 52.46719 | 14.74796 | 45° | 88km/h | 10886m | 4.6m/s | -52.7°C | 29.2% | 236.7hPa | 2.7V | 18:12:15 | 01:11:11 | 00:00:00 | |
| S3001 | 2026-08-31 17:26:58 | 52.46688 | 14.74743 | 46° | 89km/h | 10878m | 4.9m/s | -52.7°C | 23.3% | 237.0hPa | 2.8V | 00:00:00 | 00:00:00 | 00:00:00 | |
| DB0DAN | 2026-08-31 17:26:55 | 52.46642 | 14.74660 | 49° | 86km/h | 10865m | 3.7m/s | -52.7°C | 22.9% | 237.51hPa | 2.8V | 00:00:00 | 00:00:00 | 00:00:00 | |
| AA1-15 | 2026-08-31 17:26:49 | 52.46552 | 14.74491 | 47° | 89km/h | 10839m | 4.4m/s | -52.5°C | 27.4% | 238.4hPa | 2.8V | 18:12:15 | 01:11:00 | 00:00:00 | |
| SONDE2-11 | 2026-08-31 17:26:46 | 52.46489 | 14.74382 | 46° | 91km/h | 10822m | 4.8m/s | -52.4°C | 21.6% | 239.0hPa | 2.7V | 00:00:00 | 00:00:00 | 00:00:00 | |
| DB0DAN | 2026-08-31 17:26:40 | 52.46410 | 14.74237 | 49° | 89km/h | 10802m | 3.7m/s | -52.2°C | 21.2% | 239.74hPa | 2.7V | 00:00:00 | 00:00:00 | 00:00:00 | |
| AA1-15 | 2026-08-31 17:26:38 | 52.46378 | 14.74179 | 48° | 93km/h | 10793m | 4.1m/s | -52.2°C | 26.8% | 240.1hPa | 2.8V | 18:12:15 | 01:10:49 | 00:00:00 | |
| AA1-15 | 2026-08-31 17:26:27 | 52.46209 | 14.73870 | 48° | 88km/h | 10747m | 4.6m/s | -52.2°C | 27.3% | 241.8hPa | 2.8V | 18:12:15 | 01:10:38 | 00:00:00 | |
| DB0DAN | 2026-08-31 17:26:25 | 52.46178 | 14.73816 | 47° | 86km/h | 10738m | 4.3m/s | -52.1°C | 22% | 242.16hPa | 2.8V | 00:00:00 | 00:00:00 | 00:00:00 | |
| SONDE2-12 | 2026-08-31 17:26:18 | 52.46069 | 14.73615 | 48° | 89km/h | 10709m | 3.8m/s | -51.9°C | 23.0% | 243.2hPa | 2.8V | 00:00:00 | 00:00:00 | 00:00:00 | |
| AA1-15 | 2026-08-31 17:26:16 | 52.46039 | 14.73560 | 48° | 88km/h | 10701m | 3.8m/s | -51.9°C | 27.4% | 243.5hPa | 2.8V | 18:12:15 | 01:10:27 | 00:00:00 | |
| SP6BVK | 2026-08-31 17:26:15 | 52.46039 | 14.73560 | 49° | 88km/h | 10701m | 3.8m/s | -51.9°C | 21.8% | 243.5hPa | 2.8V | 00:00:00 | 00:00:00 | 00:00:00 | |
| DL2RXE-15 | 2026-08-31 17:26:14 | 52.46024 | 14.73533 | 50° | 88km/h | 10697m | 4.6m/s | -51.8°C | 21.7% | 243.7hPa | 2.8V | 00:00:00 | 00:00:00 | 00:00:00 | |
| DB0DAN | 2026-08-31 17:26:10 | 52.45951 | 14.73395 | 50° | 84km/h | 10673m | 4.2m/s | -51.9°C | 22% | 244.62hPa | 2.8V | 00:00:00 | 00:00:00 | 00:00:00 | |
| AA1-15 | 2026-08-31 17:26:05 | 52.45882 | 14.73255 | 51° | 86km/h | 10651m | 4.9m/s | -51.9°C | 27.9% | 245.4hPa | 2.8V | 18:12:15 | 01:10:16 | 00:00:00 | |
| S3001 | 2026-08-31 17:25:56 | 52.45763 | 14.73001 | 52° | 88km/h | 10613m | 2.9m/s | -51.8°C | 22.5% | 246.9hPa | 2.8V | 00:00:00 | 00:00:00 | 00:00:00 | |
| DB0DAN | 2026-08-31 17:25:55 | 52.45749 | 14.72971 | 52° | 86km/h | 10608m | 5.7m/s | -51.8°C | 22.3% | 247.05hPa | 2.8V | 00:00:00 | 00:00:00 | 00:00:00 | |
| AA1-15 | 2026-08-31 17:25:54 | 52.45735 | 14.72942 | 51° | 91km/h | 10604m | 3.9m/s | -51.8°C | 28.1% | 247.2hPa | 2.7V | 18:12:15 | 01:10:05 | 00:00:00 | |
| SONDE2-12 | 2026-08-31 17:25:47 | 52.45635 | 14.72733 | 53° | 91km/h | 10572m | 5.2m/s | -51.7°C | 23.9% | 248.4hPa | 2.7V | 00:00:00 | 00:00:00 | 00:00:00 | |
| AA1-15 | 2026-08-31 17:25:43 | 52.45578 | 14.72612 | 52° | 93km/h | 10554m | 5.4m/s | -51.6°C | 28.4% | 249.1hPa | 2.7V | 18:12:15 | 01:09:54 | 00:00:00 | |
| DB0DAN | 2026-08-31 17:25:40 | 52.45533 | 14.72525 | 48° | 88km/h | 10541m | 3.5m/s | -51.6°C | 23.8% | 249.55hPa | 2.8V | 00:00:00 | 00:00:00 | 00:00:00 | |
| AA1-15 | 2026-08-31 17:25:32 | 52.45412 | 14.72296 | 50° | 91km/h | 10504m | 5.6m/s | -51.5°C | 29% | 251hPa | 2.8V | 18:12:15 | 01:09:43 | 00:00:00 | |
| KRY50SP-1 | 2026-08-31 17:25:27 | 52.45353 | 14.72182 | 52° | 91km/h | 10485m | 4.4m/s | -51.4°C | 23.1% | 251.8hPa | 2.8V | 00:00:00 | 00:00:00 | 00:00:00 | |
| DB0DAN | 2026-08-31 17:25:25 | 52.45309 | 14.72093 | 51° | 91km/h | 10471m | 4.4m/s | -51.3°C | 23.3% | 252.24hPa | 2.8V | 00:00:00 | 00:00:00 | 00:00:00 | |
| AA1-15 | 2026-08-31 17:25:21 | 52.45250 | 14.71967 | 54° | 97km/h | 10454m | 4.3m/s | -51.2°C | 28.7% | 252.9hPa | 2.8V | 18:12:15 | 01:09:32 | 00:00:00 | |
| SONDE2-12 | 2026-08-31 17:25:16 | 52.45177 | 14.71807 | 54° | 93km/h | 10432m | 4.2m/s | -51.2°C | 24.7% | 253.9hPa | 2.8V | 00:00:00 | 00:00:00 | 00:00:00 | |
| SP6BVK | 2026-08-31 17:25:14 | 52.45163 | 14.71776 | 55° | 93km/h | 10428m | 4.5m/s | -51.1°C | 23.4% | 254.0hPa | 2.8V | 00:00:00 | 00:00:00 | 00:00:00 | |
| DB0DAN | 2026-08-31 17:25:10 | 52.45096 | 14.71618 | 56° | 89km/h | 10405m | 5.3m/s | -51°C | 22.8% | 254.89hPa | 2.8V | 00:00:00 | 00:00:00 | 00:00:00 | |
| AA1-15 | 2026-08-31 17:25:10 | 52.45096 | 14.71618 | 56° | 93km/h | 10405m | 5.3m/s | -51°C | 27.9% | 254.9hPa | 2.8V | 18:12:15 | 01:09:21 | 00:00:00 | |
| AA1-15 | 2026-08-31 17:25:00 | 52.44961 | 14.71299 | 54° | 93km/h | 10361m | 5.5m/s | -50.7°C | 26.9% | 256.6hPa | 2.7V | 18:12:15 | 01:09:11 | 00:00:00 | |
| DB0DAN | 2026-08-31 17:24:55 | 52.44892 | 14.71137 | 56° | 93km/h | 10337m | 5.5m/s | -50.6°C | 21.5% | 257.56hPa | 2.7V | 00:00:00 | 00:00:00 | 00:00:00 | |
| AA1-15 | 2026-08-31 17:24:49 | 52.44810 | 14.70935 | 56° | 95km/h | 10308m | 4.4m/s | -50.4°C | 25.6% | 258.6hPa | 2.8V | 18:12:15 | 01:09:00 | 00:00:00 | |
| SONDE2-12 | 2026-08-31 17:24:45 | 52.44753 | 14.70804 | 54° | 97km/h | 10288m | 4.4m/s | -50.3°C | 21.3% | 259.4hPa | 2.8V | 00:00:00 | 00:00:00 | 00:00:00 | |
| KRY50SP-1 | 2026-08-31 17:24:43 | 52.44739 | 14.70770 | 56° | 100km/h | 10284m | 4.9m/s | -50.2°C | 20.2% | 259.6hPa | 2.8V | 00:00:00 | 00:00:00 | 00:00:00 | |
| DB0DAN | 2026-08-31 17:24:40 | 52.44680 | 14.70630 | 56° | 100km/h | 10265m | 4.4m/s | -50.1°C | 20% | 260.37hPa | 2.8V | 00:00:00 | 00:00:00 | 00:00:00 | |
| AA1-15 | 2026-08-31 17:24:38 | 52.44651 | 14.70559 | 57° | 102km/h | 10256m | 3.8m/s | -50°C | 24.7% | 260.7hPa | 2.7V | 18:12:15 | 01:08:49 | 00:00:00 | |
| AA1-15 | 2026-08-31 17:24:27 | 52.44495 | 14.70172 | 56° | 104km/h | 10206m | 4.5m/s | -49.7°C | 23.9% | 262.8hPa | 2.7V | 18:12:15 | 01:08:38 | 00:00:00 | |
| DB0DAN | 2026-08-31 17:24:25 | 52.44466 | 14.70100 | 57° | 99km/h | 10197m | 5.3m/s | -49.7°C | 19.1% | 263.13hPa | 2.7V | 00:00:00 | 00:00:00 | 00:00:00 | |
| AA1-15 | 2026-08-31 17:24:16 | 52.44335 | 14.69779 | 55° | 104km/h | 10156m | 5.5m/s | -49.5°C | 23.1% | 264.8hPa | 2.8V | 18:12:15 | 01:08:27 | 00:00:00 | |
| SONDE2-12 | 2026-08-31 17:24:14 | 52.44290 | 14.69675 | 54° | 102km/h | 10142m | 3.7m/s | -49.4°C | 19.0% | 265.4hPa | 2.7V | 00:00:00 | 00:00:00 | 00:00:00 | |
| SP6BVK | 2026-08-31 17:24:12 | 52.44290 | 14.69675 | 56° | 104km/h | 10142m | 3.7m/s | -49.4°C | 18.1% | 265.4hPa | 2.7V | 00:00:00 | 00:00:00 | 00:00:00 | |
| DB0DAN | 2026-08-31 17:24:10 | 52.44244 | 14.69569 | 54° | 99km/h | 10129m | 5.1m/s | -49.5°C | 17.7% | 265.85hPa | 2.7V | 00:00:00 | 00:00:00 | 00:00:00 | |
| AA1-15 | 2026-08-31 17:24:05 | 52.44168 | 14.69395 | 54° | 102km/h | 10107m | 3.4m/s | -49.4°C | 22.4% | 266.8hPa | 2.8V | 18:12:15 | 01:08:16 | 00:00:00 | |
| EDDB2-11 | 2026-08-31 17:24:04 | 52.44152 | 14.69361 | 54° | 102km/h | 10103m | 4.8m/s | -49.3°C | 17.6% | 267.0hPa | 2.8V | 00:00:00 | 00:00:00 | 00:00:00 | |
| DAC517 | 2026-08-31 17:24:02 | 52.44137 | 14.69326 | 55° | 102km/h | 10099m | 4.5m/s | -49.3°C | 17.7% | 267.1hPa | 2.8V | 00:00:00 | 00:00:00 | 00:00:00 | |
| KRY50SP-1 | 2026-08-31 17:24:00 | 52.44106 | 14.69258 | 54° | 102km/h | 10089m | 4.0m/s | -49.3°C | 17.8% | 267.5hPa | 2.8V | 00:00:00 | 00:00:00 | 00:00:00 | |
| DB0DAN | 2026-08-31 17:23:55 | 52.44010 | 14.69057 | 51° | 99km/h | 10063m | 4.3m/s | -49.1°C | 18% | 268.57hPa | 2.8V | 00:00:00 | 00:00:00 | 00:00:00 | |
| AA1-15 | 2026-08-31 17:23:54 | 52.43994 | 14.69024 | 51° | 100km/h | 10058m | 4.3m/s | -49.2°C | 23% | 268.8hPa | 2.7V | 18:12:15 | 01:08:05 | 00:00:00 | |
| S3001 | 2026-08-31 17:23:52 | 52.43946 | 14.68928 | 50° | 97km/h | 10045m | 5.0m/s | -49.1°C | 18.7% | 269.3hPa | 2.7V | 00:00:00 | 00:00:00 | 00:00:00 | |
| AA1-15 | 2026-08-31 17:23:43 | 52.43821 | 14.68674 | 51° | 100km/h | 10011m | 5.5m/s | -48.9°C | 24.5% | 270.7hPa | 2.7V | 18:12:15 | 01:07:54 | 00:00:00 | |
| SONDE2-12 | 2026-08-31 17:23:43 | 52.43805 | 14.68642 | 51° | 99km/h | 10006m | 3.6m/s | -48.9°C | 20.9% | 270.9hPa | 2.8V | 00:00:00 | 00:00:00 | 00:00:00 | |
| DB0DAN | 2026-08-31 17:23:40 | 52.43773 | 14.68577 | 51° | 95km/h | 9997m | 4.7m/s | -48.8°C | 20.1% | 271.22hPa | 2.8V | 00:00:00 | 00:00:00 | 00:00:00 | |
| AA1-15 | 2026-08-31 17:23:32 | 52.43647 | 14.68320 | 53° | 102km/h | 9962m | 4.5m/s | -48.6°C | 25.3% | 272.7hPa | 2.7V | 18:12:15 | 01:07:43 | 00:00:00 | |
| SP3BTT-10 | 2026-08-31 17:23:31 | 52.43632 | 14.68286 | 54° | 100km/h | 9958m | 3.6m/s | -48.5°C | 24.5% | 272.8hPa | 2.8V | 00:00:00 | 00:00:00 | 00:00:00 | |
| 13BRC | 2026-08-31 17:23:30 | 52.43616 | 14.68252 | 54° | 104km/h | 9954m | 5.2m/s | -48.6°C | 20.7% | 273.0hPa | 2.8V | 00:00:00 | 00:00:00 | 00:00:00 | |
| KRY50SP-1 | 2026-08-31 17:23:29 | 52.43616 | 14.68252 | 54° | 104km/h | 9954m | 5.2m/s | -48.6°C | 20.7% | 273.0hPa | 2.8V | 00:00:00 | 00:00:00 | 00:00:00 | |
| DL2RXE-15 | 2026-08-31 17:23:27 | 52.43584 | 14.68185 | 54° | 102km/h | 9945m | 5.0m/s | -48.6°C | 20.8% | 273.4hPa | 2.8V | 00:00:00 | 00:00:00 | 00:00:00 | |
| DB0DAN | 2026-08-31 17:23:25 | 52.43537 | 14.68086 | 52° | 97km/h | 9931m | 4.9m/s | -48.6°C | 20.8% | 273.98hPa | 2.8V | 00:00:00 | 00:00:00 | 00:00:00 | |
| SONDE2-12 | 2026-08-31 17:23:12 | 52.43314 | 14.67613 | 53° | 97km/h | 9871m | 4.6m/s | -48.1°C | 20.6% | 276.5hPa | 2.7V | 00:00:00 | 00:00:00 | 00:00:00 | |
| DB0DAN | 2026-08-31 17:23:10 | 52.43299 | 14.67581 | 52° | 93km/h | 9867m | 3.4m/s | -48.1°C | 19.6% | 276.62hPa | 2.7V | 00:00:00 | 00:00:00 | 00:00:00 | |
| AA1-15 | 2026-08-31 17:23:08 | 52.43268 | 14.67517 | 52° | 100km/h | 9859m | 4.3m/s | -48°C | 24% | 276.9hPa | 2.8V | 18:12:15 | 01:07:19 | 00:00:00 | |
| AA1-15 | 2026-08-31 17:22:57 | 52.43089 | 14.67155 | 53° | 97km/h | 9816m | 2.8m/s | -47.6°C | 23.4% | 278.8hPa | 2.8V | 18:12:15 | 01:07:08 | 00:00:00 | |
| DB0DAN | 2026-08-31 17:22:55 | 52.43060 | 14.67089 | 54° | 93km/h | 9808m | 3m/s | -47.6°C | 18.7% | 279.16hPa | 2.8V | 00:00:00 | 00:00:00 | 00:00:00 | |
| AA1-15 | 2026-08-31 17:22:46 | 52.42917 | 14.66796 | 50° | 100km/h | 9773m | 3.5m/s | -47.3°C | 22.4% | 280.8hPa | 2.8V | 18:12:15 | 01:06:57 | 00:00:00 | |
| SONDE2-12 | 2026-08-31 17:22:41 | 52.42821 | 14.66605 | 52° | 99km/h | 9748m | 3.2m/s | -47.2°C | 18.0% | 281.8hPa | 2.8V | 00:00:00 | 00:00:00 | 00:00:00 | |
| DB0DAN | 2026-08-31 17:22:40 | 52.42821 | 14.66605 | 53° | 95km/h | 9748m | 3.2m/s | -47.2°C | 17.2% | 281.76hPa | 2.8V | 00:00:00 | 00:00:00 | 00:00:00 | |
| DAC517 | 2026-08-31 17:22:38 | 52.42806 | 14.66572 | 54° | 99km/h | 9744m | 5.0m/s | -47.1°C | 17.0% | 281.9hPa | 2.7V | 00:00:00 | 00:00:00 | 00:00:00 | |
| SONDE2-11 | 2026-08-31 17:22:37 | 52.42776 | 14.66507 | 53° | 99km/h | 9736m | 4.9m/s | -47.1°C | 16.9% | 282.2hPa | 2.7V | 00:00:00 | 00:00:00 | 00:00:00 | |
| KRY50SP-1 | 2026-08-31 17:22:34 | 52.42745 | 14.66440 | 54° | 100km/h | 9728m | 5.2m/s | -47.0°C | 16.8% | 282.6hPa | 2.7V | 00:00:00 | 00:00:00 | 00:00:00 | |
| EDDB2-12 | 2026-08-31 17:22:32 | 52.42699 | 14.66343 | 50° | 99km/h | 9716m | 3.1m/s | -46.9°C | 16.6% | 283.1hPa | 2.7V | 00:00:00 | 00:00:00 | 00:00:00 | |
| EDDB2-11 | 2026-08-31 17:22:31 | 52.42683 | 14.66312 | 50° | 99km/h | 9712m | 4.5m/s | -46.9°C | 16.4% | 283.2hPa | 2.7V | 00:00:00 | 00:00:00 | 00:00:00 | |
| DL2RXE-15 | 2026-08-31 17:22:29 | 52.42651 | 14.66249 | 51° | 100km/h | 9703m | 4.5m/s | -46.8°C | 16.4% | 283.7hPa | 2.7V | 00:00:00 | 00:00:00 | 00:00:00 | |
| SP6BVK | 2026-08-31 17:22:28 | 52.42651 | 14.66249 | 51° | 100km/h | 9703m | 4.5m/s | -46.8°C | 16.4% | 283.7hPa | 2.7V | 00:00:00 | 00:00:00 | 00:00:00 | |
| 13BRC | 2026-08-31 17:22:27 | 52.42634 | 14.66216 | 52° | 100km/h | 9699m | 2.9m/s | -46.8°C | 16.2% | 283.8hPa | 2.7V | 00:00:00 | 00:00:00 | 00:00:00 | |
| DB0DAN | 2026-08-31 17:22:25 | 52.42587 | 14.66119 | 51° | 97km/h | 9688m | 4.1m/s | -46.7°C | 15.8% | 284.29hPa | 2.7V | 00:00:00 | 00:00:00 | 00:00:00 | |
| AA1-15 | 2026-08-31 17:22:24 | 52.42570 | 14.66087 | 50° | 102km/h | 9683m | 4.9m/s | -46.7°C | 20% | 284.6hPa | 2.8V | 18:12:15 | 01:06:35 | 00:00:00 | |
| KRY50SP-1 | 2026-08-31 17:22:23 | 52.42570 | 14.66087 | 51° | 102km/h | 9683m | 4.9m/s | -46.7°C | 15.6% | 284.6hPa | 2.8V | 00:00:00 | 00:00:00 | 00:00:00 | |
| S3001 | 2026-08-31 17:22:19 | 52.42470 | 14.65894 | 49° | 100km/h | 9657m | 4.9m/s | -46.5°C | 15.4% | 285.6hPa | 2.8V | 00:00:00 | 00:00:00 | 00:00:00 | |
| KRY50SP-1 | 2026-08-31 17:22:17 | 52.42470 | 14.65894 | 51° | 100km/h | 9658m | 4.9m/s | -46.5°C | 15.4% | 285.6hPa | 2.8V | 00:00:00 | 00:00:00 | 00:00:00 | |
| DB0DAN | 2026-08-31 17:22:10 | 52.42333 | 14.65647 | 47° | 99km/h | 9624m | 4.4m/s | -46.4°C | 15.8% | 287.03hPa | 2.8V | 00:00:00 | 00:00:00 | 00:00:00 | |
| SONDE2-12 | 2026-08-31 17:22:10 | 52.42315 | 14.65616 | 47° | 100km/h | 9621m | 3.3m/s | -46.4°C | 16.7% | 287.1hPa | 2.8V | 00:00:00 | 00:00:00 | 00:00:00 | |
| SP6BVK | 2026-08-31 17:22:08 | 52.42315 | 14.65616 | 49° | 102km/h | 9621m | 3.3m/s | -46.4°C | 15.9% | 287.1hPa | 2.8V | 00:00:00 | 00:00:00 | 00:00:00 | |
| SONDE2-11 | 2026-08-31 17:22:06 | 52.42264 | 14.65522 | 48° | 100km/h | 9609m | 4.3m/s | -46.3°C | 15.7% | 287.7hPa | 2.8V | 00:00:00 | 00:00:00 | 00:00:00 | |
| EDDB2-12 | 2026-08-31 17:22:01 | 52.42177 | 14.65367 | 45° | 100km/h | 9589m | 3.4m/s | -46.2°C | 15.5% | 288.5hPa | 2.8V | 00:00:00 | 00:00:00 | 00:00:00 | |
| EDDB2-11 | 2026-08-31 17:22:00 | 52.42159 | 14.65337 | 45° | 99km/h | 9585m | 4.6m/s | -46.2°C | 15.5% | 288.7hPa | 2.8V | 00:00:00 | 00:00:00 | 00:00:00 | |
| DAC517 | 2026-08-31 17:21:57 | 52.42123 | 14.65278 | 48° | 100km/h | 9577m | 3.8m/s | -46.2°C | 15.9% | 289.1hPa | 2.8V | 00:00:00 | 00:00:00 | 00:00:00 | |
| DB0DAN | 2026-08-31 17:21:55 | 52.42073 | 14.65186 | 49° | 95km/h | 9564m | 4.7m/s | -46.2°C | 16.1% | 289.56hPa | 2.8V | 00:00:00 | 00:00:00 | 00:00:00 | |
| S3001 | 2026-08-31 17:21:48 | 52.41938 | 14.64936 | 48° | 100km/h | 9534m | 4.7m/s | -45.9°C | 15.8% | 291.0hPa | 2.7V | 00:00:00 | 00:00:00 | 00:00:00 | |
| 13BRC | 2026-08-31 17:21:45 | 52.41921 | 14.64905 | 50° | 100km/h | 9530m | 3.7m/s | -45.9°C | 15.7% | 291.0hPa | 2.7V | 00:00:00 | 00:00:00 | 00:00:00 | |
| KRY50SP-1 | 2026-08-31 17:21:43 | 52.41888 | 14.64842 | 51° | 99km/h | 9521m | 4.3m/s | -45.8°C | 15.7% | 291.4hPa | 2.7V | 00:00:00 | 00:00:00 | 00:00:00 | |
| DB0DAN | 2026-08-31 17:21:40 | 52.41823 | 14.64719 | 48° | 93km/h | 9505m | 4.6m/s | -45.7°C | 15.4% | 292.22hPa | 2.7V | 00:00:00 | 00:00:00 | 00:00:00 | |
| SONDE2-12 | 2026-08-31 17:21:39 | 52.41790 | 14.64659 | 47° | 97km/h | 9497m | 4.0m/s | -45.6°C | 15.8% | 292.6hPa | 2.8V | 00:00:00 | 00:00:00 | 00:00:00 | |
| AA1-15 | 2026-08-31 17:21:38 | 52.41790 | 14.64659 | 47° | 97km/h | 9497m | 4m/s | -45.6°C | 19% | 292.6hPa | 2.8V | 18:12:15 | 01:05:49 | 00:00:00 | |
| AA1-15 | 2026-08-31 17:21:27 | 52.41612 | 14.64316 | 51° | 100km/h | 9452m | 3.3m/s | -45.4°C | 18.8% | 294.6hPa | 2.7V | 18:12:15 | 01:05:38 | 00:00:00 | |
| DB0DAN | 2026-08-31 17:21:25 | 52.41579 | 14.64253 | 48° | 95km/h | 9444m | 2.7m/s | -45.4°C | 15.1% | 294.89hPa | 2.8V | 00:00:00 | 00:00:00 | 00:00:00 | |
| AA1-15 | 2026-08-31 17:21:16 | 52.41432 | 14.63965 | 51° | 104km/h | 9405m | 2.1m/s | -45.2°C | 19.3% | 296.6hPa | 2.7V | 18:12:15 | 01:05:27 | 00:00:00 | |
| SP3BTT-10 | 2026-08-31 17:21:16 | 52.41432 | 14.63965 | 52° | 110km/h | 9405m | 2.1m/s | -45.1°C | 18.2% | 296.6hPa | 2.7V | 00:00:00 | 00:00:00 | 00:00:00 | |
| DB0DAN | 2026-08-31 17:21:10 | 52.41326 | 14.63771 | 46° | 99km/h | 9377m | 4.2m/s | -44.9°C | 16.4% | 297.94hPa | 2.7V | 00:00:00 | 00:00:00 | 00:00:00 | |
| AA1-15 | 2026-08-31 17:21:05 | 52.41235 | 14.63605 | 49° | 110km/h | 9354m | 4.8m/s | -44.8°C | 22.6% | 298.9hPa | 2.8V | 18:12:15 | 01:05:16 | 00:00:00 | |
| SONDE2-11 | 2026-08-31 17:21:04 | 52.41217 | 14.63571 | 48° | 108km/h | 9350m | 3.8m/s | -44.8°C | 18.7% | 299.1hPa | 2.8V | 00:00:00 | 00:00:00 | 00:00:00 | |
| EDDB2-12 | 2026-08-31 17:20:59 | 52.41127 | 14.63410 | 47° | 106km/h | 9330m | 4.5m/s | -44.9°C | 22.9% | 300.0hPa | 2.8V | 00:00:00 | 00:00:00 | 00:00:00 | |
| EDDB2-11 | 2026-08-31 17:20:58 | 52.41109 | 14.63377 | 48° | 106km/h | 9326m | 3.9m/s | -45.0°C | 24.0% | 300.1hPa | 2.8V | 00:00:00 | 00:00:00 | 00:00:00 | |
| DB0DAN | 2026-08-31 17:20:55 | 52.41054 | 14.63277 | 48° | 104km/h | 9314m | 3.1m/s | -45°C | 25.8% | 300.74hPa | 2.8V | 00:00:00 | 00:00:00 | 00:00:00 | |
| AA1-15 | 2026-08-31 17:20:54 | 52.41036 | 14.63243 | 48° | 111km/h | 9310m | 4.3m/s | -45°C | 31.5% | 300.9hPa | 2.8V | 18:12:15 | 01:05:05 | 00:00:00 | |
| S3001 | 2026-08-31 17:20:46 | 52.40859 | 14.62947 | 45° | 110km/h | 9272m | 2.8m/s | -44.9°C | 33.0% | 302.7hPa | 2.8V | 00:00:00 | 00:00:00 | 00:00:00 | |
| AA1-15 | 2026-08-31 17:20:43 | 52.40820 | 14.62883 | 44° | 110km/h | 9264m | 3.9m/s | -44.8°C | 39.1% | 303hPa | 2.8V | 18:12:15 | 01:04:54 | 00:00:00 | |
| KRY50SP-1 | 2026-08-31 17:20:42 | 52.40820 | 14.62883 | 45° | 110km/h | 9264m | 3.9m/s | -44.8°C | 34.1% | 303.0hPa | 2.7V | 00:00:00 | 00:00:00 | 00:00:00 | |
| DB0DAN | 2026-08-31 17:20:40 | 52.40759 | 14.62788 | 43° | 106km/h | 9252m | 4.2m/s | -44.8°C | 36.4% | 303.53hPa | 2.7V | 00:00:00 | 00:00:00 | 00:00:00 | |
| KRY50SP-1 | 2026-08-31 17:20:36 | 52.40698 | 14.62692 | 45° | 111km/h | 9240m | 5.0m/s | -44.7°C | 38.4% | 304.1hPa | 2.8V | 00:00:00 | 00:00:00 | 00:00:00 | |
| DL2RXE-15 | 2026-08-31 17:20:35 | 52.40678 | 14.62660 | 45° | 111km/h | 9235m | 3.9m/s | -44.7°C | 39.0% | 304.3hPa | 2.8V | 00:00:00 | 00:00:00 | 00:00:00 | |
| DAC517 | 2026-08-31 17:20:34 | 52.40658 | 14.62628 | 45° | 111km/h | 9231m | 3.6m/s | -44.7°C | 39.7% | 304.5hPa | 2.8V | 00:00:00 | 00:00:00 | 00:00:00 | |
| SONDE2-11 | 2026-08-31 17:20:33 | 52.40618 | 14.62565 | 43° | 110km/h | 9223m | 2.9m/s | -44.6°C | 40.7% | 304.8hPa | 2.8V | 00:00:00 | 00:00:00 | 00:00:00 | |
| SP3BTT-10 | 2026-08-31 17:20:31 | 52.40577 | 14.62501 | 44° | 115km/h | 9216m | 2.9m/s | -44.5°C | 46.2% | 305.2hPa | 2.8V | 00:00:00 | 00:00:00 | 00:00:00 | |
| EDDB2-12 | 2026-08-31 17:20:28 | 52.40516 | 14.62404 | 44° | 111km/h | 9205m | 4.5m/s | -44.5°C | 42.4% | 305.7hPa | 2.8V | 00:00:00 | 00:00:00 | 00:00:00 | |
| DB0DAN | 2026-08-31 17:20:25 | 52.40454 | 14.62307 | 44° | 108km/h | 9194m | 4.7m/s | -44.4°C | 43.1% | 306.21hPa | 2.8V | 00:00:00 | 00:00:00 | 00:00:00 | |
| 13BRC | 2026-08-31 17:20:22 | 52.40413 | 14.62242 | 45° | 113km/h | 9185m | 4.3m/s | -44.3°C | 44.0% | 306.6hPa | 2.8V | 00:00:00 | 00:00:00 | 00:00:00 | |
| KRY50SP-1 | 2026-08-31 17:20:20 | 52.40372 | 14.62176 | 46° | 115km/h | 9177m | 3.6m/s | -44.2°C | 44.8% | 307.0hPa | 2.8V | 00:00:00 | 00:00:00 | 00:00:00 | |
| DL2RXE-15 | 2026-08-31 17:20:15 | 52.40271 | 14.62009 | 46° | 113km/h | 9158m | 4.9m/s | -44.1°C | 46.5% | 307.9hPa | 2.8V | 00:00:00 | 00:00:00 | 00:00:00 | |
| S3001 | 2026-08-31 17:20:14 | 52.40230 | 14.61943 | 45° | 111km/h | 9149m | 4.1m/s | -44.0°C | 48.4% | 308.2hPa | 2.8V | 00:00:00 | 00:00:00 | 00:00:00 | |
| DAC517 | 2026-08-31 17:20:13 | 52.40230 | 14.61943 | 46° | 113km/h | 9149m | 4.1m/s | -44.0°C | 48.4% | 308.2hPa | 2.8V | 00:00:00 | 00:00:00 | 00:00:00 | |
| DB0DAN | 2026-08-31 17:20:10 | 52.40149 | 14.61811 | 44° | 110km/h | 9132m | 3.7m/s | -43.9°C | 52% | 308.95hPa | 2.8V | 00:00:00 | 00:00:00 | 00:00:00 | |
| KRY50SP-1 | 2026-08-31 17:20:09 | 52.40149 | 14.61811 | 45° | 115km/h | 9132m | 3.7m/s | -43.9°C | 52.0% | 309.0hPa | 2.7V | 00:00:00 | 00:00:00 | 00:00:00 | |
| SP6BVK | 2026-08-31 17:20:06 | 52.40065 | 14.61677 | 46° | 117km/h | 9116m | 5.1m/s | -43.8°C | 57.0% | 309.7hPa | 2.7V | 00:00:00 | 00:00:00 | 00:00:00 | |
| KRY50SP-1 | 2026-08-31 17:20:03 | 52.40024 | 14.61609 | 47° | 117km/h | 9109m | 4.3m/s | -43.8°C | 59.6% | 310.1hPa | 2.7V | 00:00:00 | 00:00:00 | 00:00:00 | |
| SONDE2-11 | 2026-08-31 17:20:02 | 52.39984 | 14.61539 | 46° | 113km/h | 9102m | 4.6m/s | -43.8°C | 62.2% | 310.4hPa | 2.7V | 00:00:00 | 00:00:00 | 00:00:00 | |
| EDDB2-12 | 2026-08-31 17:19:57 | 52.39884 | 14.61369 | 45° | 115km/h | 9082m | 4.5m/s | -43.6°C | 62.1% | 311.4hPa | 2.7V | 00:00:00 | 00:00:00 | 00:00:00 | |
| EDDB2-11 | 2026-08-31 17:19:56 | 52.39863 | 14.61334 | 46° | 115km/h | 9078m | 3.7m/s | -43.6°C | 62.9% | 311.5hPa | 2.7V | 00:00:00 | 00:00:00 | 00:00:00 | |
| DB0DAN | 2026-08-31 17:19:55 | 52.39843 | 14.61299 | 46° | 111km/h | 9074m | 3.7m/s | -43.6°C | 62.3% | 311.68hPa | 2.7V | 00:00:00 | 00:00:00 | 00:00:00 | |
| KRY50SP-1 | 2026-08-31 17:19:52 | 52.39802 | 14.61230 | 47° | 119km/h | 9066m | 4.3m/s | -43.5°C | 61.4% | 312.0hPa | 2.7V | 00:00:00 | 00:00:00 | 00:00:00 | |
| SP3BTT-10 | 2026-08-31 17:19:46 | 52.39657 | 14.60982 | 46° | 111km/h | 9038m | 2.4m/s | -43.2°C | 66.8% | 313.3hPa | 2.7V | 00:00:00 | 00:00:00 | 00:00:00 | |
| SP6BVK | 2026-08-31 17:19:45 | 52.39657 | 14.60982 | 47° | 117km/h | 9038m | 2.5m/s | -43.3°C | 61.2% | 313.3hPa | 2.8V | 00:00:00 | 00:00:00 | 00:00:00 | |
| DL2RXE-15 | 2026-08-31 17:19:44 | 52.39636 | 14.60947 | 47° | 119km/h | 9035m | 4.3m/s | -43.3°C | 61.0% | 313.4hPa | 2.8V | 00:00:00 | 00:00:00 | 00:00:00 | |
| S3001 | 2026-08-31 17:19:43 | 52.39595 | 14.60877 | 45° | 115km/h | 9027m | 4.8m/s | -43.2°C | 62.1% | 313.9hPa | 2.8V | 00:00:00 | 00:00:00 | 00:00:00 | |
| DB0DAN | 2026-08-31 17:19:40 | 52.39534 | 14.60774 | 46° | 110km/h | 9015m | 4.5m/s | -43.1°C | 63.2% | 314.45hPa | 2.8V | 00:00:00 | 00:00:00 | 00:00:00 | |
| AA1-15 | 2026-08-31 17:19:39 | 52.39514 | 14.60739 | 47° | 115km/h | 9011m | 3m/s | -43.1°C | 65.8% | 314.6hPa | 2.8V | 18:12:15 | 01:03:50 | 00:00:00 | |
| SONDE2-12 | 2026-08-31 17:19:34 | 52.39413 | 14.60564 | 46° | 115km/h | 8991m | 3.0m/s | -42.9°C | 67.2% | 315.5hPa | 2.8V | 00:00:00 | 00:00:00 | 00:00:00 | |
| DAC517 | 2026-08-31 17:19:33 | 52.39372 | 14.60496 | 46° | 113km/h | 8982m | 3.7m/s | -42.9°C | 64.8% | 315.9hPa | 2.8V | 00:00:00 | 00:00:00 | 00:00:00 | |
| SONDE2-11 | 2026-08-31 17:19:31 | 52.39352 | 14.60463 | 44° | 113km/h | 8978m | 5.2m/s | -42.8°C | 65.2% | 316.1hPa | 2.8V | 00:00:00 | 00:00:00 | 00:00:00 | |
| KRY50SP-1 | 2026-08-31 17:19:30 | 52.39351 | 14.60463 | 45° | 115km/h | 8978m | 5.2m/s | -42.8°C | 65.2% | 316.1hPa | 2.8V | 00:00:00 | 00:00:00 | 00:00:00 | |
| DB0DAN | 2026-08-31 17:19:25 | 52.39230 | 14.60271 | 46° | 106km/h | 8954m | 3.7m/s | -42.6°C | 68.7% | 317.27hPa | 2.8V | 00:00:00 | 00:00:00 | 00:00:00 | |
| EDDB2-11 | 2026-08-31 17:19:25 | 52.39230 | 14.60271 | 45° | 110km/h | 8954m | 3.7m/s | -42.6°C | 68.7% | 317.3hPa | 2.7V | 00:00:00 | 00:00:00 | 00:00:00 | |
| KRY50SP-1 | 2026-08-31 17:19:24 | 52.39230 | 14.60271 | 47° | 111km/h | 8954m | 3.7m/s | -42.6°C | 68.7% | 317.3hPa | 2.7V | 00:00:00 | 00:00:00 | 00:00:00 | |
| DL2RXE-15 | 2026-08-31 17:19:23 | 52.39211 | 14.60238 | 47° | 113km/h | 8951m | 4.0m/s | -42.6°C | 68.4% | 317.5hPa | 2.7V | 00:00:00 | 00:00:00 | 00:00:00 | |
| 13BRC | 2026-08-31 17:19:19 | 52.39132 | 14.60102 | 47° | 113km/h | 8934m | 4.7m/s | -42.5°C | 68.0% | 318.2hPa | 2.7V | 00:00:00 | 00:00:00 | 00:00:00 | |
| KRY50SP-1 | 2026-08-31 17:19:18 | 52.39112 | 14.60068 | 47° | 113km/h | 8930m | 4.1m/s | -42.4°C | 67.8% | 318.4hPa | 2.7V | 00:00:00 | 00:00:00 | 00:00:00 | |
| MECKS9 | 2026-08-31 17:19:13 | 52.39013 | 14.59903 | 46° | 110km/h | 8910m | 3.0m/s | -42.2°C | 0% | 0hPa | 2.7V | 00:00:00 | 00:00:00 | 00:00:00 | |
| KRY50SP-1 | 2026-08-31 17:19:12 | 52.38993 | 14.59871 | 46° | 110km/h | 8906m | 5.0m/s | -42.2°C | 66.3% | 319.5hPa | 2.7V | 00:00:00 | 00:00:00 | 00:00:00 | |
| DB0DAN | 2026-08-31 17:19:10 | 52.38935 | 14.59777 | 44° | 104km/h | 8893m | 3.7m/s | -42.1°C | 66.3% | 320.06hPa | 2.7V | 00:00:00 | 00:00:00 | 00:00:00 | |
| SONDE2-12 | 2026-08-31 17:19:03 | 52.38794 | 14.59549 | 45° | 111km/h | 8866m | 4.5m/s | -41.8°C | 68.8% | 321.5hPa | 2.9V | 00:00:00 | 00:00:00 | 00:00:00 | |
| SONDE2-11 | 2026-08-31 17:19:00 | 52.38734 | 14.59452 | 45° | 110km/h | 8853m | 5.2m/s | -41.7°C | 65.7% | 322.1hPa | 2.9V | 00:00:00 | 00:00:00 | 00:00:00 | |
| 13BRC | 2026-08-31 17:18:59 | 52.38734 | 14.59452 | 46° | 110km/h | 8853m | 5.2m/s | -41.7°C | 65.7% | 322.1hPa | 2.9V | 00:00:00 | 00:00:00 | 00:00:00 | |
| DB0DAN | 2026-08-31 17:18:55 | 52.38635 | 14.59289 | 45° | 106km/h | 8832m | 4.9m/s | -41.5°C | 64.9% | 323.03hPa | 2.9V | 00:00:00 | 00:00:00 | 00:00:00 | |
| EDDB2-12 | 2026-08-31 17:18:55 | 52.38615 | 14.59256 | 45° | 111km/h | 8827m | 4.1m/s | -41.5°C | 65.0% | 323.3hPa | 2.9V | 00:00:00 | 00:00:00 | 00:00:00 | |
| EDDB2-11 | 2026-08-31 17:18:54 | 52.38615 | 14.59256 | 45° | 111km/h | 8827m | 4.1m/s | -41.5°C | 65.0% | 323.3hPa | 2.9V | 00:00:00 | 00:00:00 | 00:00:00 | |
| DAC517 | 2026-08-31 17:18:50 | 52.38555 | 14.59156 | 46° | 113km/h | 8814m | 3.9m/s | -41.3°C | 64.6% | 323.9hPa | 2.9V | 00:00:00 | 00:00:00 | 00:00:00 | |
| DL2RXE-15 | 2026-08-31 17:18:48 | 52.38515 | 14.59090 | 46° | 111km/h | 8806m | 4.8m/s | -41.2°C | 64.3% | 324.4hPa | 2.9V | 00:00:00 | 00:00:00 | 00:00:00 | |
| KRY50SP-1 | 2026-08-31 17:18:44 | 52.38435 | 14.58960 | 46° | 111km/h | 8788m | 4.8m/s | -41.1°C | 63.7% | 325.1hPa | 2.9V | 00:00:00 | 00:00:00 | 00:00:00 | |
| SP6BVK | 2026-08-31 17:18:43 | 52.38416 | 14.58928 | 46° | 110km/h | 8783m | 4.1m/s | -41.0°C | 63.7% | 325.3hPa | 2.9V | 00:00:00 | 00:00:00 | 00:00:00 | |
| DB0DAN | 2026-08-31 17:18:40 | 52.38338 | 14.58796 | 46° | 106km/h | 8767m | 3.7m/s | -40.9°C | 63.3% | 326.11hPa | 2.9V | 00:00:00 | 00:00:00 | 00:00:00 | |
| AA1-15 | 2026-08-31 17:18:36 | 52.38259 | 14.58664 | 46° | 113km/h | 8750m | 4.5m/s | -40.8°C | 64.8% | 326.9hPa | 2.7V | 18:12:15 | 01:02:47 | 00:00:00 | |
| DAC517 | 2026-08-31 17:18:32 | 52.38140 | 14.58466 | 48° | 110km/h | 8724m | 4.2m/s | -40.5°C | 65.0% | 328.2hPa | 2.9V | 00:00:00 | 00:00:00 | 00:00:00 | |
| KRY50SP-1 | 2026-08-31 17:18:30 | 52.38140 | 14.58466 | 48° | 110km/h | 8724m | 4.2m/s | -40.5°C | 65.0% | 328.2hPa | 2.9V | 00:00:00 | 00:00:00 | 00:00:00 | |
| SONDE2-11 | 2026-08-31 17:18:29 | 52.38121 | 14.58432 | 47° | 110km/h | 8719m | 5.4m/s | -40.5°C | 65.0% | 328.4hPa | 2.9V | 00:00:00 | 00:00:00 | 00:00:00 | |
| DL2RXE-15 | 2026-08-31 17:18:27 | 52.38102 | 14.58398 | 48° | 111km/h | 8715m | 3.9m/s | -40.5°C | 65.1% | 328.7hPa | 2.9V | 00:00:00 | 00:00:00 | 00:00:00 | |
| DB0DAN | 2026-08-31 17:18:25 | 52.38044 | 14.58299 | 45° | 108km/h | 8701m | 4.8m/s | -40.4°C | 65.1% | 329.3hPa | 2.9V | 00:00:00 | 00:00:00 | 00:00:00 | |
| AA1-15 | 2026-08-31 17:18:25 | 52.38044 | 14.58299 | 45° | 111km/h | 8701m | 4.8m/s | -40.4°C | 66.3% | 329.3hPa | 2.9V | 18:12:15 | 01:02:36 | 00:00:00 | |
| EDDB2-12 | 2026-08-31 17:18:24 | 52.38004 | 14.58233 | 45° | 111km/h | 8693m | 3.8m/s | -40.3°C | 65.1% | 329.7hPa | 2.9V | 00:00:00 | 00:00:00 | 00:00:00 | |
| EDDB2-11 | 2026-08-31 17:18:23 | 52.38004 | 14.58233 | 45° | 111km/h | 8693m | 3.8m/s | -40.3°C | 65.1% | 329.7hPa | 2.9V | 00:00:00 | 00:00:00 | 00:00:00 | |
| SP6BVK | 2026-08-31 17:18:22 | 52.38004 | 14.58233 | 46° | 111km/h | 8693m | 3.8m/s | -40.3°C | 65.1% | 329.7hPa | 2.9V | 00:00:00 | 00:00:00 | 00:00:00 | |
| KRY50SP-1 | 2026-08-31 17:18:21 | 52.37984 | 14.58200 | 47° | 113km/h | 8689m | 3.5m/s | -40.2°C | 64.7% | 329.9hPa | 2.9V | 00:00:00 | 00:00:00 | 00:00:00 | |
| 13BRC | 2026-08-31 17:18:18 | 52.37925 | 14.58099 | 48° | 111km/h | 8676m | 3.6m/s | -40.1°C | 64.1% | 330.5hPa | 2.9V | 00:00:00 | 00:00:00 | 00:00:00 | |
| KRY50SP-1 | 2026-08-31 17:18:16 | 52.37868 | 14.57999 | 48° | 110km/h | 8664m | 5.4m/s | -40.0°C | 62.2% | 331.1hPa | 2.9V | 00:00:00 | 00:00:00 | 00:00:00 | |
| SP3BTT-10 | 2026-08-31 17:18:15 | 52.37849 | 14.57965 | 47° | 110km/h | 8660m | 3.6m/s | -39.9°C | 67.1% | 331.3hPa | 2.9V | 00:00:00 | 00:00:00 | 00:00:00 | |
| DB0DAN | 2026-08-31 17:18:10 | 52.37754 | 14.57799 | 47° | 106km/h | 8638m | 4.2m/s | -39.8°C | 61.3% | 332.35hPa | 2.9V | 00:00:00 | 00:00:00 | 00:00:00 | |
| AA1-15 | 2026-08-31 17:18:05 | 52.37659 | 14.57634 | 48° | 108km/h | 8616m | 5.2m/s | -39.6°C | 61.5% | 333.5hPa | 2.9V | 18:12:15 | 01:02:16 | 00:00:00 | |
| SONDE2-12 | 2026-08-31 17:18:01 | 52.37586 | 14.57499 | 48° | 108km/h | 8598m | 3.8m/s | -39.4°C | 61.9% | 334.3hPa | 2.7V | 00:00:00 | 00:00:00 | 00:00:00 | |
| SONDE2-11 | 2026-08-31 17:17:58 | 52.37531 | 14.57397 | 47° | 110km/h | 8585m | 4.8m/s | -39.3°C | 59.2% | 335.0hPa | 2.7V | 00:00:00 | 00:00:00 | 00:00:00 | |
| 13BRC | 2026-08-31 17:17:57 | 52.37531 | 14.57397 | 49° | 110km/h | 8585m | 4.8m/s | -39.3°C | 59.2% | 335.0hPa | 2.7V | 00:00:00 | 00:00:00 | 00:00:00 | |
| DB0DAN | 2026-08-31 17:17:55 | 52.37475 | 14.57296 | 48° | 104km/h | 8572m | 3.6m/s | -39.1°C | 58.9% | 335.59hPa | 2.7V | 00:00:00 | 00:00:00 | 00:00:00 | |
| AA1-15 | 2026-08-31 17:17:51 | 52.37401 | 14.57163 | 48° | 108km/h | 8554m | 4.6m/s | 0°C | 0% | 336.4hPa | 2.9V | 18:12:15 | 01:02:02 | 00:00:00 | |
| DAC517 | 2026-08-31 17:17:48 | 52.37364 | 14.57097 | 49° | 108km/h | 8545m | 5.1m/s | -38.9°C | 58.8% | 337.0hPa | 2.7V | 00:00:00 | 00:00:00 | 00:00:00 | |
| DL2RXE-15 | 2026-08-31 17:17:46 | 52.37327 | 14.57030 | 50° | 110km/h | 8537m | 4.9m/s | -38.8°C | 59.7% | 337.4hPa | 2.7V | 00:00:00 | 00:00:00 | 00:00:00 | |
| DB0DAN | 2026-08-31 17:17:40 | 52.37199 | 14.56789 | 49° | 104km/h | 8505m | 4.2m/s | -38.6°C | 64.6% | 338.97hPa | 2.7V | 00:00:00 | 00:00:00 | 00:00:00 | |
| AA1-15 | 2026-08-31 17:17:40 | 52.37199 | 14.56789 | 49° | 110km/h | 8505m | 4.2m/s | 0°C | 0% | 339hPa | 2.7V | 18:12:15 | 01:01:51 | 00:00:00 | |
| SONDE2-12 | 2026-08-31 17:17:30 | 52.37015 | 14.56451 | 50° | 110km/h | 8458m | 3.9m/s | -38.3°C | 67.0% | 341.2hPa | 2.9V | 00:00:00 | 00:00:00 | 00:00:00 | |
| AA1-15 | 2026-08-31 17:17:29 | 52.36997 | 14.56416 | 50° | 111km/h | 8454m | 5.5m/s | 0°C | 0% | 341.5hPa | 2.9V | 18:12:15 | 01:01:40 | 00:00:00 | |
| DAC517 | 2026-08-31 17:17:28 | 52.36979 | 14.56380 | 52° | 111km/h | 8449m | 4.5m/s | -38.2°C | 64.1% | 341.7hPa | 2.7V | 00:00:00 | 00:00:00 | 00:00:00 | |
| DB0DAN | 2026-08-31 17:17:25 | 52.36926 | 14.56274 | 51° | 106km/h | 8434m | 3.2m/s | -38.1°C | 63.5% | 342.39hPa | 2.7V | 00:00:00 | 00:00:00 | 00:00:00 | |
| AA1-15 | 2026-08-31 17:17:19 | 52.36821 | 14.56065 | 50° | 110km/h | 8406m | 5.5m/s | 0°C | 0% | 343.9hPa | 2.7V | 18:12:15 | 01:01:30 | 00:00:00 | |
| 13BRC | 2026-08-31 17:17:16 | 52.36786 | 14.55996 | 51° | 108km/h | 8397m | 4.3m/s | -37.7°C | 61.3% | 344.3hPa | 2.9V | 00:00:00 | 00:00:00 | 00:00:00 | |
| DB0DAN | 2026-08-31 17:17:10 | 52.36665 | 14.55758 | 51° | 100km/h | 8366m | 4.8m/s | -37.5°C | 60.6% | 345.81hPa | 2.9V | 00:00:00 | 00:00:00 | 00:00:00 | |
| AA1-15 | 2026-08-31 17:17:08 | 52.36632 | 14.55690 | 51° | 106km/h | 8356m | 5.7m/s | 0°C | 0% | 346.3hPa | 2.9V | 18:12:15 | 01:01:19 | 00:00:00 | |
| SONDE2-12 | 2026-08-31 17:16:59 | 52.36475 | 14.55382 | 49° | 108km/h | 8315m | 3.9m/s | -37.1°C | 62.7% | 348.3hPa | 2.9V | 00:00:00 | 00:00:00 | 00:00:00 | |
| SONDE2-11 | 2026-08-31 17:16:56 | 52.36407 | 14.55245 | 51° | 106km/h | 8297m | 5.4m/s | -37.0°C | 58.9% | 349.3hPa | 2.9V | 00:00:00 | 00:00:00 | 00:00:00 | |
| DB0DAN | 2026-08-31 17:16:55 | 52.36407 | 14.55245 | 51° | 102km/h | 8297m | 5.4m/s | -37°C | 58.9% | 349.27hPa | 2.9V | 00:00:00 | 00:00:00 | 00:00:00 | |
| AA1-15 | 2026-08-31 17:16:48 | 52.36289 | 14.55008 | 53° | 106km/h | 8264m | 4.3m/s | 0°C | 0% | 0hPa | 2.8V | 18:12:15 | 01:00:59 | 00:00:00 | |
| DAC517 | 2026-08-31 17:16:47 | 52.36272 | 14.54973 | 53° | 106km/h | 8259m | 5.8m/s | -36.6°C | 56.8% | 351.2hPa | 2.9V | 00:00:00 | 00:00:00 | 00:00:00 | |
| DB0DAN | 2026-08-31 17:16:40 | 52.36157 | 14.54739 | 51° | 97km/h | 8227m | 4.1m/s | -36.4°C | 56.9% | 352.83hPa | 2.9V | 00:00:00 | 00:00:00 | 00:00:00 | |
| AA1-15 | 2026-08-31 17:16:37 | 52.36109 | 14.54643 | 51° | 102km/h | 8213m | 4m/s | 0°C | 0% | 0hPa | 2.9V | 18:12:15 | 01:00:48 | 00:00:00 | |
| SONDE2-12 | 2026-08-31 17:16:28 | 52.35969 | 14.54340 | 53° | 100km/h | 8173m | 4.3m/s | -35.9°C | 59.8% | 355.6hPa | 2.9V | 00:00:00 | 00:00:00 | 00:00:00 | |
| AA1-15 | 2026-08-31 17:16:27 | 52.35954 | 14.54306 | 53° | 102km/h | 8168m | 4.9m/s | 0°C | 0% | 0hPa | 2.9V | 18:12:15 | 01:00:38 | 00:00:00 | |
| DB0DAN | 2026-08-31 17:16:25 | 52.35923 | 14.54239 | 53° | 97km/h | 8159m | 5.5m/s | -35.8°C | 59.8% | 356.25hPa | 2.7V | 00:00:00 | 00:00:00 | 00:00:00 | |
| SONDE2-11 | 2026-08-31 17:16:25 | 52.35907 | 14.54206 | 52° | 102km/h | 8154m | 4.9m/s | -35.7°C | 61.4% | 356.5hPa | 2.9V | 00:00:00 | 00:00:00 | 00:00:00 | |
| KRY50SP-1 | 2026-08-31 17:16:21 | 52.35875 | 14.54139 | 54° | 102km/h | 8145m | 5.5m/s | -35.7°C | 62.0% | 356.9hPa | 2.9V | 00:00:00 | 00:00:00 | 00:00:00 | |
| EDDB2-12 | 2026-08-31 17:16:20 | 52.35828 | 14.54039 | 51° | 100km/h | 8132m | 5.1m/s | -35.6°C | 61.7% | 357.6hPa | 2.9V | 00:00:00 | 00:00:00 | 00:00:00 | |
| SP6BVK | 2026-08-31 17:16:18 | 52.35828 | 14.54039 | 53° | 102km/h | 8132m | 5.1m/s | -35.6°C | 61.7% | 357.6hPa | 2.9V | 00:00:00 | 00:00:00 | 00:00:00 | |
| 13BRC | 2026-08-31 17:16:15 | 52.35780 | 14.53941 | 52° | 100km/h | 8119m | 4.4m/s | -35.5°C | 62.7% | 358.4hPa | 2.9V | 00:00:00 | 00:00:00 | 00:00:00 | |
| DB0DAN | 2026-08-31 17:16:10 | 52.35684 | 14.53739 | 53° | 100km/h | 8091m | 4.3m/s | -35.2°C | 61.4% | 359.72hPa | 2.9V | 00:00:00 | 00:00:00 | 00:00:00 | |
| AA1-15 | 2026-08-31 17:16:06 | 52.35620 | 14.53606 | 51° | 102km/h | 8074m | 4.5m/s | 0°C | 0% | 0hPa | 2.8V | 18:12:15 | 01:00:17 | 00:00:00 | |
| SONDE2-12 | 2026-08-31 17:15:57 | 52.35476 | 14.53302 | 52° | 100km/h | 8031m | 3.7m/s | -34.7°C | 63.8% | 362.8hPa | 2.9V | 00:00:00 | 00:00:00 | 00:00:00 | |
| DB0DAN | 2026-08-31 17:15:55 | 52.35444 | 14.53236 | 51° | 97km/h | 8022m | 3.2m/s | -34.6°C | 61.4% | 363.36hPa | 2.9V | 00:00:00 | 00:00:00 | 00:00:00 | |
| AA1-15 | 2026-08-31 17:15:55 | 52.35444 | 14.53236 | 51° | 102km/h | 8022m | 3.2m/s | 0°C | 0% | 0hPa | 2.9V | 18:12:15 | 01:00:06 | 00:00:00 | |
| AA1-15 | 2026-08-31 17:15:45 | 52.35285 | 14.52910 | 52° | 100km/h | 7975m | 3.1m/s | 0°C | 0% | 0hPa | 2.9V | 18:12:15 | 00:59:56 | 00:00:00 | |
| KRY50SP-1 | 2026-08-31 17:15:42 | 52.35253 | 14.52844 | 53° | 102km/h | 7967m | 3.3m/s | -34.2°C | 64.5% | 366.2hPa | 2.9V | 00:00:00 | 00:00:00 | 00:00:00 | |
| DB0DAN | 2026-08-31 17:15:40 | 52.35206 | 14.52745 | 52° | 97km/h | 7953m | 5.3m/s | -34.1°C | 65.1% | 367.02hPa | 2.9V | 00:00:00 | 00:00:00 | 00:00:00 | |
| AA1-15 | 2026-08-31 17:15:33 | 52.35097 | 14.52530 | 51° | 95km/h | 7921m | 4.6m/s | 0°C | 0% | 0hPa | 2.9V | 18:12:15 | 00:59:44 | 00:00:00 | |
| SONDE2-12 | 2026-08-31 17:15:26 | 52.34993 | 14.52311 | 54° | 97km/h | 7890m | 3.7m/s | -33.6°C | 66.7% | 370.3hPa | 2.8V | 00:00:00 | 00:00:00 | 00:00:00 | |
| DB0DAN | 2026-08-31 17:15:25 | 52.34979 | 14.52278 | 54° | 93km/h | 7886m | 3.7m/s | -33.6°C | 64.5% | 370.46hPa | 2.8V | 00:00:00 | 00:00:00 | 00:00:00 | |
| SONDE2-11 | 2026-08-31 17:15:23 | 52.34935 | 14.52186 | 48° | 91km/h | 7875m | 5.5m/s | -33.5°C | 64.0% | 370.9hPa | 2.8V | 00:00:00 | 00:00:00 | 00:00:00 | |
| KRY50SP-1 | 2026-08-31 17:15:19 | 52.34903 | 14.52130 | 48° | 91km/h | 7868m | 4.3m/s | -33.5°C | 64.0% | 371.4hPa | 2.8V | 00:00:00 | 00:00:00 | 00:00:00 | |
| EDDB2-12 | 2026-08-31 17:15:18 | 52.34859 | 14.52041 | 52° | 97km/h | 7855m | 5.3m/s | -33.4°C | 63.5% | 372.1hPa | 2.8V | 00:00:00 | 00:00:00 | 00:00:00 | |
| MECKS9 | 2026-08-31 17:15:16 | 52.34859 | 14.52041 | 53° | 97km/h | 7855m | 5.3m/s | 0°C | 0% | 0hPa | 2.8V | 00:00:00 | 00:00:00 | 00:00:00 | |
| KRY50SP-1 | 2026-08-31 17:15:15 | 52.34829 | 14.51976 | 55° | 97km/h | 7843m | 6.3m/s | -33.2°C | 63.0% | 372.7hPa | 2.8V | 00:00:00 | 00:00:00 | 00:00:00 | |
| SP6BVK | 2026-08-31 17:15:14 | 52.34829 | 14.51976 | 55° | 97km/h | 7843m | 6.3m/s | -33.2°C | 63.0% | 372.7hPa | 2.8V | 00:00:00 | 00:00:00 | 00:00:00 | |
| 13BRC | 2026-08-31 17:15:13 | 52.34815 | 14.51944 | 55° | 97km/h | 7837m | 4.2m/s | -33.2°C | 63.2% | 373.0hPa | 2.8V | 00:00:00 | 00:00:00 | 00:00:00 | |
| DB0DAN | 2026-08-31 17:15:10 | 52.34756 | 14.51818 | 52° | 91km/h | 7820m | 3.2m/s | -33°C | 62.2% | 373.92hPa | 2.8V | 00:00:00 | 00:00:00 | 00:00:00 | |
| AA1-15 | 2026-08-31 17:14:59 | 52.34589 | 14.51453 | 55° | 102km/h | 7775m | 5.6m/s | 0°C | 0% | 0hPa | 2.9V | 18:12:15 | 00:59:10 | 00:00:00 | |
| KRY50SP-1 | 2026-08-31 17:14:58 | 52.34574 | 14.51419 | 55° | 102km/h | 7771m | 2.7m/s | -32.5°C | 60.2% | 376.7hPa | 2.9V | 00:00:00 | 00:00:00 | 00:00:00 | |
| DB0DAN | 2026-08-31 17:14:55 | 52.34528 | 14.51319 | 52° | 97km/h | 7758m | 4.6m/s | -32.4°C | 59.6% | 377.31hPa | 2.9V | 00:00:00 | 00:00:00 | 00:00:00 | |
| SONDE2-12 | 2026-08-31 17:14:55 | 52.34528 | 14.51319 | 52° | 100km/h | 7759m | 4.6m/s | -32.4°C | 61.6% | 377.3hPa | 2.9V | 00:00:00 | 00:00:00 | 00:00:00 | |
| AA1-15 | 2026-08-31 17:14:48 | 52.34420 | 14.51085 | 53° | 102km/h | 7729m | 3.7m/s | 0°C | 0% | 0hPa | 2.9V | 18:12:15 | 00:58:59 | 00:00:00 | |
| EDDB2-12 | 2026-08-31 17:14:47 | 52.34389 | 14.51018 | 52° | 99km/h | 7721m | 3.2m/s | -32.1°C | 55.4% | 379.3hPa | 2.9V | 00:00:00 | 00:00:00 | 00:00:00 | |
| EDDB2-11 | 2026-08-31 17:14:46 | 52.34374 | 14.50986 | 52° | 99km/h | 7717m | 4.9m/s | -32.1°C | 54.7% | 379.6hPa | 2.9V | 00:00:00 | 00:00:00 | 00:00:00 | |
| DB0DAN | 2026-08-31 17:14:40 | 52.34295 | 14.50817 | 53° | 100km/h | 7696m | 3.4m/s | -31.9°C | 47.6% | 380.76hPa | 2.9V | 00:00:00 | 00:00:00 | 00:00:00 | |
| AA1-15 | 2026-08-31 17:14:28 | 52.34108 | 14.50402 | 56° | 100km/h | 7647m | 4.6m/s | 0°C | 0% | 0hPa | 2.9V | 18:12:15 | 00:58:39 | 00:00:00 | |
| DB0DAN | 2026-08-31 17:14:25 | 52.34066 | 14.50298 | 56° | 95km/h | 7634m | 6.1m/s | -31.5°C | 42.2% | 384.11hPa | 2.9V | 00:00:00 | 00:00:00 | 00:00:00 | |
| SONDE2-12 | 2026-08-31 17:14:24 | 52.34052 | 14.50263 | 56° | 99km/h | 7629m | 4.1m/s | -31.4°C | 43.0% | 384.3hPa | 2.9V | 00:00:00 | 00:00:00 | 00:00:00 | |
| KRY50SP-1 | 2026-08-31 17:14:23 | 52.34051 | 14.50264 | 57° | 100km/h | 7629m | 4.1m/s | -31.4°C | 41.7% | 384.3hPa | 2.9V | 00:00:00 | 00:00:00 | 00:00:00 | |
| SONDE2-11 | 2026-08-31 17:14:21 | 52.33995 | 14.50126 | 55° | 100km/h | 7612m | 4.8m/s | -31.3°C | 40.9% | 385.3hPa | 2.9V | 00:00:00 | 00:00:00 | 00:00:00 | |
| DAC517 | 2026-08-31 17:14:18 | 52.33966 | 14.50056 | 58° | 104km/h | 7604m | 4.3m/s | -31.2°C | 40.5% | 385.7hPa | 2.9V | 00:00:00 | 00:00:00 | 00:00:00 | |
| EDDB2-12 | 2026-08-31 17:14:16 | 52.33922 | 14.49948 | 56° | 104km/h | 7592m | 3.9m/s | -31.1°C | 40.5% | 386.4hPa | 2.9V | 00:00:00 | 00:00:00 | 00:00:00 | |
| EDDB2-11 | 2026-08-31 17:14:15 | 52.33908 | 14.49912 | 57° | 102km/h | 7589m | 4.0m/s | -31.1°C | 40.9% | 386.5hPa | 2.9V | 00:00:00 | 00:00:00 | 00:00:00 | |
| SP6BVK | 2026-08-31 17:14:12 | 52.33894 | 14.49876 | 59° | 102km/h | 7585m | 4.2m/s | -31.0°C | 41.0% | 386.8hPa | 2.9V | 00:00:00 | 00:00:00 | 00:00:00 | |
| DB0DAN | 2026-08-31 17:14:10 | 52.33854 | 14.49772 | 57° | 93km/h | 7572m | 3.7m/s | -30.9°C | 42.3% | 387.46hPa | 2.9V | 00:00:00 | 00:00:00 | 00:00:00 | |
| AA1-15 | 2026-08-31 17:14:07 | 52.33814 | 14.49672 | 57° | 95km/h | 7560m | 3.9m/s | 0°C | 0% | 0hPa | 2.9V | 18:12:15 | 00:58:18 | 00:00:00 | |
| KRY50SP-1 | 2026-08-31 17:14:06 | 52.33814 | 14.49672 | 58° | 95km/h | 7560m | 3.9m/s | -30.9°C | 49.3% | 388.1hPa | 2.8V | 00:00:00 | 00:00:00 | 00:00:00 | |
| S3001 | 2026-08-31 17:14:02 | 52.33744 | 14.49504 | 56° | 99km/h | 7541m | 4.1m/s | -30.9°C | 53.1% | 389.1hPa | 2.8V | 00:00:00 | 00:00:00 | 00:00:00 | |
| KRY50SP-1 | 2026-08-31 17:14:01 | 52.33744 | 14.49504 | 57° | 99km/h | 7542m | 4.1m/s | -30.9°C | 53.1% | 389.1hPa | 2.8V | 00:00:00 | 00:00:00 | 00:00:00 | |
| DB0DAN | 2026-08-31 17:13:55 | 52.33648 | 14.49265 | 59° | 91km/h | 7515m | 3.6m/s | -30.7°C | 55.9% | 390.62hPa | 2.8V | 00:00:00 | 00:00:00 | 00:00:00 | |
| SONDE2-12 | 2026-08-31 17:13:53 | 52.33623 | 14.49197 | 58° | 97km/h | 7506m | 2.1m/s | -30.6°C | 58.3% | 391.1hPa | 2.9V | 00:00:00 | 00:00:00 | 00:00:00 | |
| SONDE2-11 | 2026-08-31 17:13:50 | 52.33570 | 14.49059 | 57° | 99km/h | 7491m | 2.5m/s | -30.4°C | 56.6% | 391.9hPa | 2.9V | 00:00:00 | 00:00:00 | 00:00:00 | |
| KRY50SP-1 | 2026-08-31 17:13:49 | 52.33584 | 14.49094 | 58° | 99km/h | 7495m | 5.1m/s | -30.5°C | 56.4% | 391.6hPa | 2.9V | 00:00:00 | 00:00:00 | 00:00:00 | |
| SP3BTT-10 | 2026-08-31 17:13:44 | 52.33502 | 14.48888 | 58° | 93km/h | 7473m | 4.4m/s | -30.3°C | 62.4% | 392.8hPa | 2.9V | 00:00:00 | 00:00:00 | 00:00:00 | |
| KRY50SP-1 | 2026-08-31 17:13:43 | 52.33502 | 14.48888 | 59° | 97km/h | 7473m | 4.4m/s | -30.3°C | 59.0% | 392.8hPa | 2.9V | 00:00:00 | 00:00:00 | 00:00:00 | |
| DB0DAN | 2026-08-31 17:13:40 | 52.33450 | 14.48756 | 57° | 91km/h | 7457m | 3.9m/s | -30.1°C | 56.2% | 393.71hPa | 2.9V | 00:00:00 | 00:00:00 | 00:00:00 | |
| AA1-15 | 2026-08-31 17:13:26 | 52.33265 | 14.48282 | 59° | 102km/h | 7400m | 3m/s | 0°C | 0% | 0hPa | 2.9V | 18:12:15 | 00:57:37 | 00:00:00 | |
| DB0DAN | 2026-08-31 17:13:25 | 52.33252 | 14.48247 | 59° | 95km/h | 7396m | 4.5m/s | -29.7°C | 57.8% | 397.05hPa | 2.9V | 00:00:00 | 00:00:00 | 00:00:00 | |
| SONDE2-12 | 2026-08-31 17:13:22 | 52.33217 | 14.48145 | 62° | 91km/h | 7380m | 6.7m/s | -29.5°C | 57.7% | 397.9hPa | 2.9V | 00:00:00 | 00:00:00 | 00:00:00 | |
| AA1-15 | 2026-08-31 17:13:12 | 52.33090 | 14.47831 | 54° | 95km/h | 7340m | 4m/s | 0°C | 0% | 0hPa | 2.9V | 18:12:15 | 00:57:23 | 00:00:00 | |
| DB0DAN | 2026-08-31 17:13:10 | 52.33063 | 14.47768 | 56° | 88km/h | 7333m | 4.1m/s | -29.1°C | 55.3% | 400.49hPa | 2.9V | 00:00:00 | 00:00:00 | 00:00:00 | |
| 13BRC | 2026-08-31 17:13:09 | 52.33063 | 14.47768 | 57° | 93km/h | 7333m | 4.1m/s | -29.1°C | 55.3% | 400.5hPa | 2.9V | 00:00:00 | 00:00:00 | 00:00:00 | |
| KRY50SP-1 | 2026-08-31 17:13:07 | 52.33036 | 14.47704 | 58° | 93km/h | 7324m | 3.8m/s | -29.0°C | 55.0% | 401.1hPa | 2.9V | 00:00:00 | 00:00:00 | 00:00:00 | |
| KRY50SP-1 | 2026-08-31 17:13:02 | 52.32976 | 14.47549 | 59° | 86km/h | 7304m | 3.1m/s | -28.8°C | 54.1% | 402.2hPa | 2.9V | 00:00:00 | 00:00:00 | 00:00:00 | |
| S3001 | 2026-08-31 17:13:00 | 52.32941 | 14.47459 | 56° | 88km/h | 7292m | 4.5m/s | -28.7°C | 54.4% | 402.9hPa | 2.9V | 00:00:00 | 00:00:00 | 00:00:00 | |
| SP3BTT-10 | 2026-08-31 17:12:59 | 52.32929 | 14.47429 | 58° | 91km/h | 7288m | 3.4m/s | -28.6°C | 57.4% | 403.1hPa | 2.9V | 00:00:00 | 00:00:00 | 00:00:00 | |
| DB0DAN | 2026-08-31 17:12:55 | 52.32878 | 14.47306 | 56° | 88km/h | 7273m | 4m/s | -28.5°C | 54% | 403.97hPa | 2.9V | 00:00:00 | 00:00:00 | 00:00:00 | |
| SONDE2-12 | 2026-08-31 17:12:51 | 52.32826 | 14.47181 | 54° | 89km/h | 7257m | 5.1m/s | -28.3°C | 54.1% | 404.9hPa | 2.9V | 00:00:00 | 00:00:00 | 00:00:00 | |
| SONDE2-11 | 2026-08-31 17:12:47 | 52.32774 | 14.47061 | 55° | 88km/h | 7240m | 4.7m/s | -28.2°C | 52.6% | 405.9hPa | 2.9V | 00:00:00 | 00:00:00 | 00:00:00 | |
| MECKS9 | 2026-08-31 17:12:45 | 52.32761 | 14.47030 | 56° | 91km/h | 7236m | 3.1m/s | 0°C | 0% | 0hPa | 2.9V | 00:00:00 | 00:00:00 | 00:00:00 | |
| DB0DAN | 2026-08-31 17:12:40 | 52.32684 | 14.46846 | 55° | 86km/h | 7213m | 4.8m/s | -27.9°C | 51.4% | 407.46hPa | 2.9V | 00:00:00 | 00:00:00 | 00:00:00 | |
| MECKS9 | 2026-08-31 17:12:34 | 52.32618 | 14.46693 | 55° | 89km/h | 7194m | 4.0m/s | 0°C | 0% | 0hPa | 2.8V | 00:00:00 | 00:00:00 | 00:00:00 | |
| DAC517 | 2026-08-31 17:12:32 | 52.32591 | 14.46632 | 56° | 93km/h | 7185m | 4.4m/s | -27.6°C | 50.6% | 409.1hPa | 2.8V | 00:00:00 | 00:00:00 | 00:00:00 | |
| 13BRC | 2026-08-31 17:12:29 | 52.32540 | 14.46508 | 58° | 91km/h | 7171m | 4.4m/s | -27.5°C | 50.1% | 410.0hPa | 2.8V | 00:00:00 | 00:00:00 | 00:00:00 | |
| DB0DAN | 2026-08-31 17:12:25 | 52.32488 | 14.46382 | 55° | 86km/h | 7153m | 4.1m/s | -27.5°C | 49.2% | 410.83hPa | 2.8V | 00:00:00 | 00:00:00 | 00:00:00 | |
| SONDE2-12 | 2026-08-31 17:12:20 | 52.32421 | 14.46230 | 54° | 89km/h | 7132m | 4.1m/s | -27.4°C | 51.2% | 412.2hPa | 2.9V | 00:00:00 | 00:00:00 | 00:00:00 | |
| KRY50SP-1 | 2026-08-31 17:12:18 | 52.32407 | 14.46200 | 55° | 91km/h | 7128m | 3.4m/s | -27.4°C | 49.6% | 412.2hPa | 2.9V | 00:00:00 | 00:00:00 | 00:00:00 | |
| SONDE2-11 | 2026-08-31 17:12:16 | 52.32368 | 14.46108 | 55° | 89km/h | 7116m | 4.8m/s | -27.3°C | 48.1% | 412.9hPa | 2.9V | 00:00:00 | 00:00:00 | 00:00:00 | |
| SP3BTT-10 | 2026-08-31 17:12:14 | 52.32342 | 14.46047 | 56° | 82km/h | 7109m | 4.0m/s | -27.3°C | 49.4% | 413.3hPa | 2.9V | 00:00:00 | 00:00:00 | 00:00:00 | |
| KRY50SP-1 | 2026-08-31 17:12:13 | 52.32342 | 14.46047 | 56° | 88km/h | 7109m | 4.0m/s | -27.3°C | 46.9% | 413.3hPa | 2.9V | 00:00:00 | 00:00:00 | 00:00:00 | |
| DB0DAN | 2026-08-31 17:12:10 | 52.32290 | 14.45929 | 54° | 84km/h | 7090m | 4.6m/s | -27.2°C | 45% | 414.4hPa | 2.9V | 00:00:00 | 00:00:00 | 00:00:00 | |
| AA1-15 | 2026-08-31 17:12:07 | 52.32251 | 14.45842 | 54° | 88km/h | 7077m | 4.1m/s | 0°C | 0% | 0hPa | 2.9V | 18:12:15 | 00:56:18 | 00:00:00 | |
| SP6BVK | 2026-08-31 17:12:05 | 52.32238 | 14.45813 | 55° | 88km/h | 7073m | 3.4m/s | -27.1°C | 47.7% | 415.3hPa | 2.8V | 00:00:00 | 00:00:00 | 00:00:00 | |
| KRY50SP-1 | 2026-08-31 17:12:02 | 52.32201 | 14.45729 | 56° | 82km/h | 7061m | 3.3m/s | -27.0°C | 49.1% | 416.0hPa | 2.8V | 00:00:00 | 00:00:00 | 00:00:00 | |
| S3001 | 2026-08-31 17:11:58 | 52.32141 | 14.45592 | 52° | 82km/h | 7039m | 3.9m/s | -26.9°C | 46.1% | 417.4hPa | 2.8V | 00:00:00 | 00:00:00 | 00:00:00 | |
| DL2RXE-15 | 2026-08-31 17:11:57 | 52.32141 | 14.45592 | 53° | 84km/h | 7039m | 3.9m/s | -26.9°C | 46.1% | 417.4hPa | 2.8V | 00:00:00 | 00:00:00 | 00:00:00 | |
| DB0DAN | 2026-08-31 17:11:55 | 52.32102 | 14.45510 | 53° | 80km/h | 7027m | 3.2m/s | -26.8°C | 46.1% | 418.02hPa | 2.8V | 00:00:00 | 00:00:00 | 00:00:00 | |
| SONDE2-12 | 2026-08-31 17:11:49 | 52.32028 | 14.45345 | 54° | 80km/h | 7002m | 4.0m/s | -26.6°C | 46.1% | 419.5hPa | 2.9V | 00:00:00 | 00:00:00 | 00:00:00 | |
| SONDE2-11 | 2026-08-31 17:11:45 | 52.31978 | 14.45236 | 52° | 82km/h | 6985m | 3.6m/s | -26.5°C | 47.8% | 420.5hPa | 2.9V | 00:00:00 | 00:00:00 | 00:00:00 | |
| DB0DAN | 2026-08-31 17:11:40 | 52.31915 | 14.45101 | 53° | 77km/h | 6965m | 4m/s | -26.5°C | 58.5% | 421.55hPa | 2.9V | 00:00:00 | 00:00:00 | 00:00:00 | |
| EDDB2-11 | 2026-08-31 17:11:39 | 52.31903 | 14.45074 | 54° | 80km/h | 6960m | 5.1m/s | -26.5°C | 60.5% | 421.9hPa | 2.9V | 00:00:00 | 00:00:00 | 00:00:00 | |
| KRY50SP-1 | 2026-08-31 17:11:37 | 52.31891 | 14.45047 | 56° | 80km/h | 6956m | 4.3m/s | -26.5°C | 61.5% | 422.1hPa | 2.9V | 00:00:00 | 00:00:00 | 00:00:00 | |
| DAC517 | 2026-08-31 17:11:30 | 52.31812 | 14.44853 | 57° | 82km/h | 6927m | 5.4m/s | -26.2°C | 61.6% | 423.7hPa | 2.9V | 00:00:00 | 00:00:00 | 00:00:00 | |
| SP3BTT-10 | 2026-08-31 17:11:29 | 52.31789 | 14.44799 | 55° | 78km/h | 6919m | 4.2m/s | -26.1°C | 64.4% | 424.1hPa | 2.9V | 00:00:00 | 00:00:00 | 00:00:00 | |
| KRY50SP-1 | 2026-08-31 17:11:28 | 52.31777 | 14.44773 | 54° | 78km/h | 6916m | 2.9m/s | -26.1°C | 61.6% | 424.5hPa | 2.9V | 00:00:00 | 00:00:00 | 00:00:00 | |
| DB0DAN | 2026-08-31 17:11:25 | 52.31742 | 14.44696 | 53° | 73km/h | 6903m | 4m/s | -26°C | 60.1% | 425.1hPa | 2.9V | 00:00:00 | 00:00:00 | 00:00:00 | |
| SONDE2-12 | 2026-08-31 17:11:18 | 52.31659 | 14.44514 | 54° | 78km/h | 6874m | 3.9m/s | -25.8°C | 60.0% | 426.9hPa | 2.9V | 00:00:00 | 00:00:00 | 00:00:00 | |
| KRY50SP-1 | 2026-08-31 17:11:16 | 52.31636 | 14.44460 | 56° | 78km/h | 6867m | 4.1m/s | -25.7°C | 58.0% | 427.4hPa | 2.9V | 00:00:00 | 00:00:00 | 00:00:00 | |
| SONDE2-11 | 2026-08-31 17:11:14 | 52.31612 | 14.44409 | 52° | 78km/h | 6859m | 4.2m/s | -25.6°C | 57.7% | 427.8hPa | 2.9V | 00:00:00 | 00:00:00 | 00:00:00 | |
| DB0DAN | 2026-08-31 17:11:10 | 52.31564 | 14.44306 | 52° | 77km/h | 6843m | 3m/s | -25.5°C | 57.6% | 428.72hPa | 2.9V | 00:00:00 | 00:00:00 | 00:00:00 | |
| EDDB2-12 | 2026-08-31 17:11:09 | 52.31551 | 14.44280 | 53° | 78km/h | 6839m | 4.4m/s | -25.5°C | 57.6% | 429.0hPa | 2.9V | 00:00:00 | 00:00:00 | 00:00:00 | |
| DAC517 | 2026-08-31 17:11:08 | 52.31540 | 14.44253 | 55° | 78km/h | 6836m | 3.3m/s | -25.4°C | 58.0% | 429.2hPa | 2.9V | 00:00:00 | 00:00:00 | 00:00:00 | |
| DL2RXE-15 | 2026-08-31 17:11:05 | 52.31516 | 14.44200 | 56° | 80km/h | 6828m | 4.3m/s | -25.4°C | 58.4% | 429.7hPa | 2.9V | 00:00:00 | 00:00:00 | 00:00:00 | |
| 13BRC | 2026-08-31 17:11:04 | 52.31505 | 14.44173 | 57° | 80km/h | 6824m | 3.3m/s | -25.4°C | 59.4% | 430.0hPa | 2.9V | 00:00:00 | 00:00:00 | 00:00:00 | |
| KRY50SP-1 | 2026-08-31 17:11:03 | 52.31493 | 14.44146 | 56° | 80km/h | 6820m | 5.4m/s | -25.4°C | 60.4% | 430.2hPa | 2.9V | 00:00:00 | 00:00:00 | 00:00:00 | |
| S3001 | 2026-08-31 17:10:56 | 52.31384 | 14.43914 | 51° | 77km/h | 6778m | 4.3m/s | -25.1°C | 61.7% | 432.6hPa | 2.9V | 00:00:00 | 00:00:00 | 00:00:00 | |
| DB0DAN | 2026-08-31 17:10:55 | 52.31384 | 14.43914 | 51° | 73km/h | 6778m | 4.3m/s | -25.1°C | 61.7% | 432.6hPa | 2.9V | 00:00:00 | 00:00:00 | 00:00:00 | |
| SONDE2-12 | 2026-08-31 17:10:47 | 52.31289 | 14.43712 | 51° | 75km/h | 6746m | 3.4m/s | -24.8°C | 61.0% | 434.6hPa | 2.9V | 00:00:00 | 00:00:00 | 00:00:00 | |
| AA1-15 | 2026-08-31 17:10:44 | 52.31254 | 14.43640 | 50° | 75km/h | 6735m | 3.8m/s | 0°C | 0% | 0hPa | 2.9V | 18:12:15 | 00:54:55 | 00:00:00 | |
| SP3BTT-10 | 2026-08-31 17:10:44 | 52.31253 | 14.43640 | 51° | 73km/h | 6735m | 3.7m/s | -24.7°C | 61.9% | 435.2hPa | 2.9V | 00:00:00 | 00:00:00 | 08:30:00 | |
| SONDE2-11 | 2026-08-31 17:10:43 | 52.31242 | 14.43615 | 51° | 73km/h | 6731m | 4.8m/s | -24.7°C | 59.2% | 435.5hPa | 2.9V | 00:00:00 | 00:00:00 | 00:00:00 | |
| DB0DAN | 2026-08-31 17:10:40 | 52.31208 | 14.43543 | 52° | 69km/h | 6719m | 3.6m/s | -24.6°C | 59.6% | 436.27hPa | 2.9V | 00:00:00 | 00:00:00 | 00:00:00 | |
| EDDB2-12 | 2026-08-31 17:10:38 | 52.31186 | 14.43496 | 53° | 71km/h | 6711m | 3.2m/s | -24.5°C | 59.5% | 436.8hPa | 2.9V | 00:00:00 | 00:00:00 | 00:00:00 | |
| EDDB2-11 | 2026-08-31 17:10:37 | 52.31175 | 14.43472 | 53° | 71km/h | 6707m | 4.9m/s | -24.5°C | 59.2% | 436.9hPa | 2.9V | 00:00:00 | 00:00:00 | 00:00:00 | |
| KRY50SP-1 | 2026-08-31 17:10:35 | 52.31164 | 14.43448 | 54° | 71km/h | 6703m | 3.3m/s | -24.5°C | 59.1% | 437.1hPa | 2.9V | 00:00:00 | 00:00:00 | 00:00:00 | |
| DL2RXE-15 | 2026-08-31 17:10:33 | 52.31143 | 14.43401 | 54° | 71km/h | 6695m | 4.2m/s | -24.4°C | 57.5% | 437.6hPa | 2.9V | 00:00:00 | 00:00:00 | 00:00:00 | |
| KRY50SP-1 | 2026-08-31 17:10:30 | 52.31098 | 14.43306 | 52° | 73km/h | 6677m | 5.4m/s | -24.3°C | 48.4% | 438.7hPa | 2.9V | 00:00:00 | 00:00:00 | 00:00:00 | |
| DB0DAN | 2026-08-31 17:10:25 | 52.31040 | 14.43188 | 53° | 69km/h | 6657m | 4.7m/s | -24.1°C | 43.8% | 440hPa | 2.9V | 00:00:00 | 00:00:00 | 00:00:00 | |
| SONDE2-12 | 2026-08-31 17:10:16 | 52.30939 | 14.42975 | 52° | 71km/h | 6619m | 3.4m/s | -23.9°C | 39.4% | 442.3hPa | 2.9V | 00:00:00 | 00:00:00 | 00:00:00 | |
| SP6BVK | 2026-08-31 17:10:15 | 52.30939 | 14.42975 | 53° | 71km/h | 6619m | 3.4m/s | -23.9°C | 38.4% | 442.3hPa | 2.9V | 00:00:00 | 00:00:00 | 00:00:00 | |
| DL2RXE-15 | 2026-08-31 17:10:13 | 52.30916 | 14.42927 | 54° | 73km/h | 6610m | 4.6m/s | -23.9°C | 40.9% | 442.8hPa | 2.9V | 00:00:00 | 00:00:00 | 00:00:00 | |
| DB0DAN | 2026-08-31 17:10:10 | 52.30869 | 14.42829 | 51° | 73km/h | 6592m | 4.1m/s | -23.8°C | 42.1% | 443.91hPa | 2.9V | 00:00:00 | 00:00:00 | 00:00:00 | |
| KRY50SP-1 | 2026-08-31 17:10:09 | 52.30856 | 14.42804 | 52° | 77km/h | 6588m | 4.3m/s | -23.8°C | 42.5% | 444.2hPa | 2.9V | 00:00:00 | 00:00:00 | 00:00:00 | |
| EDDB2-12 | 2026-08-31 17:10:07 | 52.30832 | 14.42755 | 51° | 75km/h | 6579m | 4.6m/s | -23.7°C | 43.1% | 444.5hPa | 2.9V | 00:00:00 | 00:00:00 | 00:00:00 | |
| EDDB2-11 | 2026-08-31 17:10:06 | 52.30821 | 14.42731 | 52° | 73km/h | 6575m | 3.7m/s | -23.7°C | 43.5% | 444.9hPa | 2.9V | 00:00:00 | 00:00:00 | 00:00:00 | |
| 13BRC | 2026-08-31 17:10:03 | 52.30798 | 14.42682 | 54° | 73km/h | 6567m | 4.0m/s | -23.6°C | 44.6% | 445.5hPa | 2.9V | 00:00:00 | 00:00:00 | 00:00:00 | |
| SP3BTT-10 | 2026-08-31 17:09:59 | 52.30744 | 14.42564 | 54° | 69km/h | 6546m | 3.6m/s | -23.5°C | 55.4% | 446.8hPa | 2.9V | 00:00:00 | 00:00:00 | 00:00:00 | |
| KRY50SP-1 | 2026-08-31 17:09:57 | 52.30733 | 14.42540 | 55° | 73km/h | 6542m | 4.3m/s | -23.6°C | 55.1% | 446.9hPa | 2.9V | 00:00:00 | 00:00:00 | 00:00:00 | |
| DB0DAN | 2026-08-31 17:09:55 | 52.30700 | 14.42468 | 52° | 71km/h | 6528m | 5.5m/s | -23.6°C | 60.8% | 447.81hPa | 2.9V | 00:00:00 | 00:00:00 | 00:00:00 | |
| SONDE2-12 | 2026-08-31 17:09:45 | 52.30587 | 14.42222 | 56° | 71km/h | 6488m | 3.9m/s | -23.3°C | 72.7% | 450.2hPa | 2.9V | 00:00:00 | 00:00:00 | 00:00:00 | |
| Es werden nur die letzten 3500 von 3841 Frames angezeigt. GPX/KML und Diagramme bleiben verfügbar. | |||||||||||||||